<?xml version='1.0' encoding='UTF-8'?><gpx version="1.1" creator="JPX - https://github.com/jenetics/jpx" xmlns="http://www.topografix.com/GPX/1/1"><trk><trkseg><trkpt lat="45.1572084" lon="9.5271198"><ele>60.00000000000001</ele><time>2026-04-16T08:56:45.833Z</time></trkpt><trkpt lat="45.1571302" lon="9.5270014"><ele>61.0</ele><time>2026-04-16T08:56:47.832Z</time></trkpt><trkpt lat="45.1570914" lon="9.5269271"><ele>62.0</ele><time>2026-04-16T08:56:48.832Z</time></trkpt><trkpt lat="45.1570513" lon="9.5268423"><ele>63.0</ele><time>2026-04-16T08:56:49.831Z</time></trkpt><trkpt lat="45.1570117" lon="9.5267549"><ele>64.0</ele><time>2026-04-16T08:56:50.831Z</time></trkpt><trkpt lat="45.1569794" lon="9.5266672"><ele>65.0</ele><time>2026-04-16T08:56:51.832Z</time></trkpt><trkpt lat="45.156958" lon="9.5265802"><ele>65.00000000000001</ele><time>2026-04-16T08:56:52.832Z</time></trkpt><trkpt lat="45.1569456" lon="9.5264846"><ele>65.0</ele><time>2026-04-16T08:56:53.832Z</time></trkpt><trkpt lat="45.1569336" lon="9.5263753"><ele>65.0</ele><time>2026-04-16T08:56:54.833Z</time></trkpt><trkpt lat="45.1569197" lon="9.5262705"><ele>65.0</ele><time>2026-04-16T08:56:55.831Z</time></trkpt><trkpt lat="45.1569086" lon="9.5261757"><ele>65.0</ele><time>2026-04-16T08:56:56.831Z</time></trkpt><trkpt lat="45.1568955" lon="9.5260829"><ele>65.00000000000001</ele><time>2026-04-16T08:56:57.832Z</time></trkpt><trkpt lat="45.1568804" lon="9.5259886"><ele>65.0</ele><time>2026-04-16T08:56:58.833Z</time></trkpt><trkpt lat="45.1568628" lon="9.5258984"><ele>64.83333333333334</ele><time>2026-04-16T08:56:59.832Z</time></trkpt><trkpt lat="45.1568314" lon="9.5257384"><ele>64.66666666666667</ele><time>2026-04-16T08:57:01.832Z</time></trkpt><trkpt lat="45.1567895" lon="9.5255859"><ele>64.5</ele><time>2026-04-16T08:57:03.832Z</time></trkpt><trkpt lat="45.1567669" lon="9.5255023"><ele>64.33333333333333</ele><time>2026-04-16T08:57:04.832Z</time></trkpt><trkpt lat="45.156746" lon="9.5254179"><ele>64.16666666666666</ele><time>2026-04-16T08:57:05.832Z</time></trkpt><trkpt lat="45.1567263" lon="9.5253316"><ele>64.0</ele><time>2026-04-16T08:57:06.833Z</time></trkpt><trkpt lat="45.1566841" lon="9.5251706"><ele>64.0</ele><time>2026-04-16T08:57:08.832Z</time></trkpt><trkpt lat="45.156645" lon="9.5250097"><ele>64.0</ele><time>2026-04-16T08:57:10.832Z</time></trkpt><trkpt lat="45.1566153" lon="9.5248677"><ele>64.0</ele><time>2026-04-16T08:57:12.832Z</time></trkpt><trkpt lat="45.1565742" lon="9.5247278"><ele>64.0</ele><time>2026-04-16T08:57:14.832Z</time></trkpt><trkpt lat="45.1565312" lon="9.524559"><ele>64.16666666666666</ele><time>2026-04-16T08:57:16.832Z</time></trkpt><trkpt lat="45.1565101" lon="9.524473"><ele>64.33333333333333</ele><time>2026-04-16T08:57:17.831Z</time></trkpt><trkpt lat="45.1564665" lon="9.5243085"><ele>64.5</ele><time>2026-04-16T08:57:19.831Z</time></trkpt><trkpt lat="45.1564267" lon="9.5241636"><ele>64.66666666666667</ele><time>2026-04-16T08:57:21.831Z</time></trkpt><trkpt lat="45.1563878" lon="9.5240932"><ele>64.83333333333334</ele><time>2026-04-16T08:57:23.832Z</time></trkpt><trkpt lat="45.1563104" lon="9.5241155"><ele>65.0</ele><time>2026-04-16T08:57:26.831Z</time></trkpt><trkpt lat="45.15628" lon="9.5242382"><ele>65.00000000000001</ele><time>2026-04-16T08:57:28.831Z</time></trkpt><trkpt lat="45.1562579" lon="9.524328"><ele>65.0</ele><time>2026-04-16T08:57:29.832Z</time></trkpt><trkpt lat="45.1562312" lon="9.5244203"><ele>65.0</ele><time>2026-04-16T08:57:30.832Z</time></trkpt><trkpt lat="45.1561996" lon="9.5245096"><ele>65.0</ele><time>2026-04-16T08:57:31.833Z</time></trkpt><trkpt lat="45.1561718" lon="9.5245998"><ele>65.0</ele><time>2026-04-16T08:57:32.832Z</time></trkpt><trkpt lat="45.1561413" lon="9.5247091"><ele>65.00000000000001</ele><time>2026-04-16T08:57:33.832Z</time></trkpt><trkpt lat="45.1561111" lon="9.524827"><ele>65.0</ele><time>2026-04-16T08:57:34.832Z</time></trkpt><trkpt lat="45.1560708" lon="9.5249619"><ele>64.83333333333334</ele><time>2026-04-16T08:57:35.832Z</time></trkpt><trkpt lat="45.1560307" lon="9.5250911"><ele>64.66666666666667</ele><time>2026-04-16T08:57:36.832Z</time></trkpt><trkpt lat="45.1559933" lon="9.5252148"><ele>64.5</ele><time>2026-04-16T08:57:37.831Z</time></trkpt><trkpt lat="45.1559635" lon="9.5253312"><ele>64.33333333333333</ele><time>2026-04-16T08:57:38.833Z</time></trkpt><trkpt lat="45.1559381" lon="9.525444"><ele>64.16666666666666</ele><time>2026-04-16T08:57:39.831Z</time></trkpt><trkpt lat="45.1559179" lon="9.5255515"><ele>64.0</ele><time>2026-04-16T08:57:40.831Z</time></trkpt><trkpt lat="45.1558993" lon="9.5256559"><ele>63.71428571428571</ele><time>2026-04-16T08:57:41.832Z</time></trkpt><trkpt lat="45.1558845" lon="9.5257535"><ele>63.42857142857142</ele><time>2026-04-16T08:57:42.832Z</time></trkpt><trkpt lat="45.1558679" lon="9.5258422"><ele>63.14285714285714</ele><time>2026-04-16T08:57:43.832Z</time></trkpt><trkpt lat="45.1558496" lon="9.5259279"><ele>62.85714285714286</ele><time>2026-04-16T08:57:44.831Z</time></trkpt><trkpt lat="45.1558234" lon="9.5260143"><ele>62.57142857142858</ele><time>2026-04-16T08:57:45.832Z</time></trkpt><trkpt lat="45.155785" lon="9.5261003"><ele>62.28571428571429</ele><time>2026-04-16T08:57:46.831Z</time></trkpt><trkpt lat="45.1557344" lon="9.5261884"><ele>62.0</ele><time>2026-04-16T08:57:47.832Z</time></trkpt><trkpt lat="45.1556732" lon="9.5262826"><ele>60.400000000000006</ele><time>2026-04-16T08:57:48.831Z</time></trkpt><trkpt lat="45.1556056" lon="9.5263819"><ele>58.800000000000004</ele><time>2026-04-16T08:57:49.831Z</time></trkpt><trkpt lat="45.155533" lon="9.5264761"><ele>57.2</ele><time>2026-04-16T08:57:50.831Z</time></trkpt><trkpt lat="45.1554621" lon="9.5265638"><ele>55.6</ele><time>2026-04-16T08:57:51.831Z</time></trkpt><trkpt lat="45.155395" lon="9.526644"><ele>54.0</ele><time>2026-04-16T08:57:52.832Z</time></trkpt><trkpt lat="45.1553345" lon="9.5267193"><ele>54.0</ele><time>2026-04-16T08:57:53.832Z</time></trkpt><trkpt lat="45.1552743" lon="9.5267834"><ele>54.0</ele><time>2026-04-16T08:57:54.831Z</time></trkpt><trkpt lat="45.155208" lon="9.5268437"><ele>54.0</ele><time>2026-04-16T08:57:55.832Z</time></trkpt><trkpt lat="45.1551412" lon="9.526901"><ele>54.0</ele><time>2026-04-16T08:57:56.831Z</time></trkpt><trkpt lat="45.155072" lon="9.5269468"><ele>54.0</ele><time>2026-04-16T08:57:57.832Z</time></trkpt><trkpt lat="45.1549993" lon="9.5269843"><ele>54.0</ele><time>2026-04-16T08:57:58.832Z</time></trkpt><trkpt lat="45.1549317" lon="9.5270169"><ele>54.0</ele><time>2026-04-16T08:57:59.832Z</time></trkpt><trkpt lat="45.1548717" lon="9.5270496"><ele>54.0</ele><time>2026-04-16T08:58:00.831Z</time></trkpt><trkpt lat="45.1547782" lon="9.5270771"><ele>54.0</ele><time>2026-04-16T08:58:02.833Z</time></trkpt><trkpt lat="45.1546842" lon="9.5270262"><ele>54.0</ele><time>2026-04-16T08:58:04.832Z</time></trkpt><trkpt lat="45.1546251" lon="9.5269615"><ele>54.0</ele><time>2026-04-16T08:58:05.832Z</time></trkpt><trkpt lat="45.1545543" lon="9.5268719"><ele>54.0</ele><time>2026-04-16T08:58:06.831Z</time></trkpt><trkpt lat="45.1544788" lon="9.5267661"><ele>54.0</ele><time>2026-04-16T08:58:07.832Z</time></trkpt><trkpt lat="45.1543955" lon="9.5266427"><ele>54.00000000000001</ele><time>2026-04-16T08:58:08.832Z</time></trkpt><trkpt lat="45.154317" lon="9.526516"><ele>54.00000000000001</ele><time>2026-04-16T08:58:09.832Z</time></trkpt><trkpt lat="45.154245" lon="9.5263999"><ele>54.0</ele><time>2026-04-16T08:58:10.831Z</time></trkpt><trkpt lat="45.1541762" lon="9.5262968"><ele>54.0</ele><time>2026-04-16T08:58:11.832Z</time></trkpt><trkpt lat="45.1541026" lon="9.5262159"><ele>53.0</ele><time>2026-04-16T08:58:12.831Z</time></trkpt><trkpt lat="45.1540105" lon="9.5261538"><ele>52.0</ele><time>2026-04-16T08:58:13.832Z</time></trkpt><trkpt lat="45.1539022" lon="9.5261103"><ele>51.0</ele><time>2026-04-16T08:58:14.832Z</time></trkpt><trkpt lat="45.153778" lon="9.5260871"><ele>50.0</ele><time>2026-04-16T08:58:15.832Z</time></trkpt><trkpt lat="45.1536455" lon="9.5260651"><ele>50.0</ele><time>2026-04-16T08:58:16.832Z</time></trkpt><trkpt lat="45.153505" lon="9.5260483"><ele>50.0</ele><time>2026-04-16T08:58:17.832Z</time></trkpt><trkpt lat="45.1533592" lon="9.5260298"><ele>50.0</ele><time>2026-04-16T08:58:18.831Z</time></trkpt><trkpt lat="45.1532141" lon="9.5260131"><ele>50.0</ele><time>2026-04-16T08:58:19.833Z</time></trkpt><trkpt lat="45.1530747" lon="9.5259952"><ele>49.75</ele><time>2026-04-16T08:58:20.831Z</time></trkpt><trkpt lat="45.1529434" lon="9.5259799"><ele>49.5</ele><time>2026-04-16T08:58:21.831Z</time></trkpt><trkpt lat="45.1528114" lon="9.5259623"><ele>49.25</ele><time>2026-04-16T08:58:22.833Z</time></trkpt><trkpt lat="45.1526784" lon="9.5259323"><ele>49.0</ele><time>2026-04-16T08:58:23.832Z</time></trkpt><trkpt lat="45.1525449" lon="9.5258769"><ele>49.0</ele><time>2026-04-16T08:58:24.832Z</time></trkpt><trkpt lat="45.1524099" lon="9.5258019"><ele>49.0</ele><time>2026-04-16T08:58:25.832Z</time></trkpt><trkpt lat="45.1522715" lon="9.5257153"><ele>49.0</ele><time>2026-04-16T08:58:26.831Z</time></trkpt><trkpt lat="45.1521273" lon="9.525629"><ele>49.0</ele><time>2026-04-16T08:58:27.831Z</time></trkpt><trkpt lat="45.1519849" lon="9.5255488"><ele>49.0</ele><time>2026-04-16T08:58:28.83Z</time></trkpt><trkpt lat="45.1518404" lon="9.5254725"><ele>49.0</ele><time>2026-04-16T08:58:29.83Z</time></trkpt><trkpt lat="45.1516902" lon="9.5254046"><ele>48.33333333333333</ele><time>2026-04-16T08:58:30.83Z</time></trkpt><trkpt lat="45.151536" lon="9.5253464"><ele>47.666666666666664</ele><time>2026-04-16T08:58:31.831Z</time></trkpt><trkpt lat="45.1513724" lon="9.525306"><ele>47.0</ele><time>2026-04-16T08:58:32.831Z</time></trkpt><trkpt lat="45.151199" lon="9.5252716"><ele>47.0</ele><time>2026-04-16T08:58:33.831Z</time></trkpt><trkpt lat="45.1510203" lon="9.5252498"><ele>47.0</ele><time>2026-04-16T08:58:34.831Z</time></trkpt><trkpt lat="45.1508371" lon="9.5252298"><ele>47.0</ele><time>2026-04-16T08:58:35.831Z</time></trkpt><trkpt lat="45.1506564" lon="9.5252065"><ele>47.33333333333333</ele><time>2026-04-16T08:58:36.831Z</time></trkpt><trkpt lat="45.1504737" lon="9.5251841"><ele>47.666666666666664</ele><time>2026-04-16T08:58:37.831Z</time></trkpt><trkpt lat="45.1502924" lon="9.5251641"><ele>48.0</ele><time>2026-04-16T08:58:38.831Z</time></trkpt><trkpt lat="45.1501102" lon="9.5251455"><ele>48.0</ele><time>2026-04-16T08:58:39.832Z</time></trkpt><trkpt lat="45.1499267" lon="9.5251245"><ele>48.0</ele><time>2026-04-16T08:58:40.831Z</time></trkpt><trkpt lat="45.149741" lon="9.5251025"><ele>48.0</ele><time>2026-04-16T08:58:41.831Z</time></trkpt><trkpt lat="45.1495546" lon="9.52507"><ele>49.0</ele><time>2026-04-16T08:58:42.83Z</time></trkpt><trkpt lat="45.1493649" lon="9.5250281"><ele>50.0</ele><time>2026-04-16T08:58:43.831Z</time></trkpt><trkpt lat="45.1491751" lon="9.5249833"><ele>51.0</ele><time>2026-04-16T08:58:44.83Z</time></trkpt><trkpt lat="45.1489907" lon="9.5249335"><ele>51.0</ele><time>2026-04-16T08:58:45.83Z</time></trkpt><trkpt lat="45.1488119" lon="9.5248798"><ele>51.0</ele><time>2026-04-16T08:58:46.83Z</time></trkpt><trkpt lat="45.1486371" lon="9.5248258"><ele>51.0</ele><time>2026-04-16T08:58:47.832Z</time></trkpt><trkpt lat="45.1484675" lon="9.5247775"><ele>51.0</ele><time>2026-04-16T08:58:48.831Z</time></trkpt><trkpt lat="45.1483085" lon="9.5247281"><ele>51.0</ele><time>2026-04-16T08:58:49.831Z</time></trkpt><trkpt lat="45.1481567" lon="9.5246823"><ele>51.0</ele><time>2026-04-16T08:58:50.831Z</time></trkpt><trkpt lat="45.1480144" lon="9.5246395"><ele>51.0</ele><time>2026-04-16T08:58:51.831Z</time></trkpt><trkpt lat="45.1478883" lon="9.5245979"><ele>51.0</ele><time>2026-04-16T08:58:52.831Z</time></trkpt><trkpt lat="45.1477793" lon="9.5245493"><ele>51.0</ele><time>2026-04-16T08:58:53.831Z</time></trkpt><trkpt lat="45.1476893" lon="9.5244778"><ele>51.0</ele><time>2026-04-16T08:58:54.831Z</time></trkpt><trkpt lat="45.1476251" lon="9.5243796"><ele>51.0</ele><time>2026-04-16T08:58:55.831Z</time></trkpt><trkpt lat="45.1475913" lon="9.5242601"><ele>51.0</ele><time>2026-04-16T08:58:56.831Z</time></trkpt><trkpt lat="45.1475813" lon="9.524125"><ele>51.0</ele><time>2026-04-16T08:58:57.832Z</time></trkpt><trkpt lat="45.1475858" lon="9.5239723"><ele>51.0</ele><time>2026-04-16T08:58:58.831Z</time></trkpt><trkpt lat="45.1475934" lon="9.5238012"><ele>51.0</ele><time>2026-04-16T08:58:59.83Z</time></trkpt><trkpt lat="45.1476011" lon="9.5236159"><ele>50.5</ele><time>2026-04-16T08:59:00.831Z</time></trkpt><trkpt lat="45.1476076" lon="9.5234282"><ele>50.0</ele><time>2026-04-16T08:59:01.83Z</time></trkpt><trkpt lat="45.147613" lon="9.5232325"><ele>49.5</ele><time>2026-04-16T08:59:02.83Z</time></trkpt><trkpt lat="45.147619" lon="9.5230266"><ele>49.0</ele><time>2026-04-16T08:59:03.831Z</time></trkpt><trkpt lat="45.1476233" lon="9.5228132"><ele>48.33333333333333</ele><time>2026-04-16T08:59:04.83Z</time></trkpt><trkpt lat="45.147627" lon="9.5225959"><ele>47.666666666666664</ele><time>2026-04-16T08:59:05.831Z</time></trkpt><trkpt lat="45.1476315" lon="9.5223743"><ele>47.0</ele><time>2026-04-16T08:59:06.83Z</time></trkpt><trkpt lat="45.1476353" lon="9.5221525"><ele>47.25</ele><time>2026-04-16T08:59:07.831Z</time></trkpt><trkpt lat="45.1476382" lon="9.5219406"><ele>47.5</ele><time>2026-04-16T08:59:08.831Z</time></trkpt><trkpt lat="45.1476415" lon="9.5217368"><ele>47.75</ele><time>2026-04-16T08:59:09.83Z</time></trkpt><trkpt lat="45.1476446" lon="9.5215376"><ele>48.0</ele><time>2026-04-16T08:59:10.831Z</time></trkpt><trkpt lat="45.1476456" lon="9.5213403"><ele>48.0</ele><time>2026-04-16T08:59:11.831Z</time></trkpt><trkpt lat="45.1476443" lon="9.5211507"><ele>48.0</ele><time>2026-04-16T08:59:12.83Z</time></trkpt><trkpt lat="45.1476403" lon="9.5209679"><ele>48.0</ele><time>2026-04-16T08:59:13.831Z</time></trkpt><trkpt lat="45.1476322" lon="9.5207955"><ele>48.0</ele><time>2026-04-16T08:59:14.83Z</time></trkpt><trkpt lat="45.1476201" lon="9.5206332"><ele>48.0</ele><time>2026-04-16T08:59:15.831Z</time></trkpt><trkpt lat="45.1476056" lon="9.5204818"><ele>48.0</ele><time>2026-04-16T08:59:16.831Z</time></trkpt><trkpt lat="45.1475792" lon="9.5203549"><ele>48.0</ele><time>2026-04-16T08:59:17.831Z</time></trkpt><trkpt lat="45.147535" lon="9.5202566"><ele>48.0</ele><time>2026-04-16T08:59:18.83Z</time></trkpt><trkpt lat="45.1474776" lon="9.5201879"><ele>48.0</ele><time>2026-04-16T08:59:19.832Z</time></trkpt><trkpt lat="45.1474005" lon="9.5201419"><ele>48.0</ele><time>2026-04-16T08:59:20.831Z</time></trkpt><trkpt lat="45.1473081" lon="9.5201248"><ele>48.0</ele><time>2026-04-16T08:59:21.831Z</time></trkpt><trkpt lat="45.1471982" lon="9.52013"><ele>48.0</ele><time>2026-04-16T08:59:22.831Z</time></trkpt><trkpt lat="45.1470818" lon="9.5201497"><ele>48.0</ele><time>2026-04-16T08:59:23.831Z</time></trkpt><trkpt lat="45.1469562" lon="9.5201825"><ele>48.0</ele><time>2026-04-16T08:59:24.83Z</time></trkpt><trkpt lat="45.1468241" lon="9.5202136"><ele>48.0</ele><time>2026-04-16T08:59:25.83Z</time></trkpt><trkpt lat="45.1466834" lon="9.5202455"><ele>48.0</ele><time>2026-04-16T08:59:26.83Z</time></trkpt><trkpt lat="45.1465357" lon="9.5202769"><ele>48.0</ele><time>2026-04-16T08:59:27.83Z</time></trkpt><trkpt lat="45.1463797" lon="9.5203102"><ele>48.0</ele><time>2026-04-16T08:59:28.831Z</time></trkpt><trkpt lat="45.1462202" lon="9.5203476"><ele>48.0</ele><time>2026-04-16T08:59:29.83Z</time></trkpt><trkpt lat="45.1460564" lon="9.5203844"><ele>48.0</ele><time>2026-04-16T08:59:30.832Z</time></trkpt><trkpt lat="45.1458911" lon="9.5204239"><ele>48.0</ele><time>2026-04-16T08:59:31.831Z</time></trkpt><trkpt lat="45.1457241" lon="9.5204608"><ele>48.0</ele><time>2026-04-16T08:59:32.83Z</time></trkpt><trkpt lat="45.1455643" lon="9.5205014"><ele>48.0</ele><time>2026-04-16T08:59:33.832Z</time></trkpt><trkpt lat="45.1454129" lon="9.5205447"><ele>48.0</ele><time>2026-04-16T08:59:34.831Z</time></trkpt><trkpt lat="45.145265" lon="9.520594"><ele>48.0</ele><time>2026-04-16T08:59:35.831Z</time></trkpt><trkpt lat="45.1451255" lon="9.5206444"><ele>48.0</ele><time>2026-04-16T08:59:36.832Z</time></trkpt><trkpt lat="45.1449882" lon="9.5206928"><ele>48.0</ele><time>2026-04-16T08:59:37.83Z</time></trkpt><trkpt lat="45.1448529" lon="9.5207534"><ele>48.0</ele><time>2026-04-16T08:59:38.831Z</time></trkpt><trkpt lat="45.1447196" lon="9.5208304"><ele>48.0</ele><time>2026-04-16T08:59:39.83Z</time></trkpt><trkpt lat="45.1445802" lon="9.5208982"><ele>48.0</ele><time>2026-04-16T08:59:40.832Z</time></trkpt><trkpt lat="45.1444299" lon="9.5209543"><ele>48.0</ele><time>2026-04-16T08:59:41.831Z</time></trkpt><trkpt lat="45.1442795" lon="9.5210058"><ele>48.0</ele><time>2026-04-16T08:59:42.831Z</time></trkpt><trkpt lat="45.1441379" lon="9.5210589"><ele>48.0</ele><time>2026-04-16T08:59:43.831Z</time></trkpt><trkpt lat="45.1440025" lon="9.5211081"><ele>48.0</ele><time>2026-04-16T08:59:44.83Z</time></trkpt><trkpt lat="45.1438693" lon="9.5211276"><ele>48.0</ele><time>2026-04-16T08:59:45.83Z</time></trkpt><trkpt lat="45.1437383" lon="9.521116"><ele>48.5</ele><time>2026-04-16T08:59:46.83Z</time></trkpt><trkpt lat="45.1436145" lon="9.5210603"><ele>49.0</ele><time>2026-04-16T08:59:47.831Z</time></trkpt><trkpt lat="45.1434905" lon="9.5209713"><ele>49.5</ele><time>2026-04-16T08:59:48.832Z</time></trkpt><trkpt lat="45.1433572" lon="9.5208634"><ele>50.0</ele><time>2026-04-16T08:59:49.83Z</time></trkpt><trkpt lat="45.143227" lon="9.5207562"><ele>49.66666666666667</ele><time>2026-04-16T08:59:50.83Z</time></trkpt><trkpt lat="45.1430908" lon="9.5206469"><ele>49.33333333333333</ele><time>2026-04-16T08:59:51.83Z</time></trkpt><trkpt lat="45.1429512" lon="9.520538"><ele>49.0</ele><time>2026-04-16T08:59:52.831Z</time></trkpt><trkpt lat="45.1428107" lon="9.5204289"><ele>48.666666666666664</ele><time>2026-04-16T08:59:53.832Z</time></trkpt><trkpt lat="45.1426698" lon="9.5203197"><ele>48.33333333333333</ele><time>2026-04-16T08:59:54.83Z</time></trkpt><trkpt lat="45.1425282" lon="9.5202098"><ele>48.0</ele><time>2026-04-16T08:59:55.832Z</time></trkpt><trkpt lat="45.1423871" lon="9.5201012"><ele>48.66666666666667</ele><time>2026-04-16T08:59:56.83Z</time></trkpt><trkpt lat="45.1422458" lon="9.5199911"><ele>49.333333333333336</ele><time>2026-04-16T08:59:57.83Z</time></trkpt><trkpt lat="45.1421047" lon="9.519879"><ele>50.0</ele><time>2026-04-16T08:59:58.83Z</time></trkpt><trkpt lat="45.1419629" lon="9.5197653"><ele>50.0</ele><time>2026-04-16T08:59:59.831Z</time></trkpt><trkpt lat="45.1418212" lon="9.5196522"><ele>50.0</ele><time>2026-04-16T09:00:00.83Z</time></trkpt><trkpt lat="45.1416783" lon="9.5195372"><ele>50.0</ele><time>2026-04-16T09:00:01.831Z</time></trkpt><trkpt lat="45.1415349" lon="9.5194211"><ele>49.66666666666667</ele><time>2026-04-16T09:00:02.831Z</time></trkpt><trkpt lat="45.1413925" lon="9.5193069"><ele>49.33333333333333</ele><time>2026-04-16T09:00:03.83Z</time></trkpt><trkpt lat="45.1412496" lon="9.5191946"><ele>49.0</ele><time>2026-04-16T09:00:04.831Z</time></trkpt><trkpt lat="45.1411043" lon="9.5190873"><ele>49.0</ele><time>2026-04-16T09:00:05.831Z</time></trkpt><trkpt lat="45.1409592" lon="9.5189798"><ele>49.0</ele><time>2026-04-16T09:00:06.831Z</time></trkpt><trkpt lat="45.1408118" lon="9.5188736"><ele>49.0</ele><time>2026-04-16T09:00:07.831Z</time></trkpt><trkpt lat="45.1406606" lon="9.5187734"><ele>48.666666666666664</ele><time>2026-04-16T09:00:08.832Z</time></trkpt><trkpt lat="45.1405079" lon="9.5186768"><ele>48.33333333333333</ele><time>2026-04-16T09:00:09.831Z</time></trkpt><trkpt lat="45.1403539" lon="9.5185837"><ele>48.0</ele><time>2026-04-16T09:00:10.831Z</time></trkpt><trkpt lat="45.1401982" lon="9.5184941"><ele>48.0</ele><time>2026-04-16T09:00:11.831Z</time></trkpt><trkpt lat="45.1400414" lon="9.5184047"><ele>48.0</ele><time>2026-04-16T09:00:12.831Z</time></trkpt><trkpt lat="45.1398836" lon="9.5183159"><ele>48.0</ele><time>2026-04-16T09:00:13.83Z</time></trkpt><trkpt lat="45.1397213" lon="9.5182259"><ele>48.0</ele><time>2026-04-16T09:00:14.831Z</time></trkpt><trkpt lat="45.139559" lon="9.5181353"><ele>48.0</ele><time>2026-04-16T09:00:15.832Z</time></trkpt><trkpt lat="45.1393989" lon="9.5180429"><ele>48.0</ele><time>2026-04-16T09:00:16.83Z</time></trkpt><trkpt lat="45.1392417" lon="9.5179518"><ele>48.0</ele><time>2026-04-16T09:00:17.83Z</time></trkpt><trkpt lat="45.1390827" lon="9.5178602"><ele>48.0</ele><time>2026-04-16T09:00:18.832Z</time></trkpt><trkpt lat="45.1389205" lon="9.5177663"><ele>48.0</ele><time>2026-04-16T09:00:19.831Z</time></trkpt><trkpt lat="45.1387544" lon="9.5176711"><ele>48.0</ele><time>2026-04-16T09:00:20.831Z</time></trkpt><trkpt lat="45.1385888" lon="9.5175727"><ele>48.0</ele><time>2026-04-16T09:00:21.83Z</time></trkpt><trkpt lat="45.1384202" lon="9.5174766"><ele>48.0</ele><time>2026-04-16T09:00:22.831Z</time></trkpt><trkpt lat="45.138257" lon="9.5173829"><ele>48.0</ele><time>2026-04-16T09:00:23.831Z</time></trkpt><trkpt lat="45.1380979" lon="9.5172923"><ele>48.0</ele><time>2026-04-16T09:00:24.831Z</time></trkpt><trkpt lat="45.1379452" lon="9.5172007"><ele>48.0</ele><time>2026-04-16T09:00:25.831Z</time></trkpt><trkpt lat="45.137797" lon="9.5171147"><ele>47.666666666666664</ele><time>2026-04-16T09:00:26.831Z</time></trkpt><trkpt lat="45.1376499" lon="9.5170345"><ele>47.33333333333333</ele><time>2026-04-16T09:00:27.831Z</time></trkpt><trkpt lat="45.1375033" lon="9.5169673"><ele>47.0</ele><time>2026-04-16T09:00:28.83Z</time></trkpt><trkpt lat="45.1373537" lon="9.5169185"><ele>47.666666666666664</ele><time>2026-04-16T09:00:29.832Z</time></trkpt><trkpt lat="45.1372023" lon="9.5168861"><ele>48.33333333333333</ele><time>2026-04-16T09:00:30.831Z</time></trkpt><trkpt lat="45.1370516" lon="9.5168575"><ele>49.0</ele><time>2026-04-16T09:00:31.831Z</time></trkpt><trkpt lat="45.1369008" lon="9.516826"><ele>49.0</ele><time>2026-04-16T09:00:32.83Z</time></trkpt><trkpt lat="45.1367491" lon="9.5167954"><ele>49.0</ele><time>2026-04-16T09:00:33.831Z</time></trkpt><trkpt lat="45.1365945" lon="9.5167624"><ele>49.0</ele><time>2026-04-16T09:00:34.832Z</time></trkpt><trkpt lat="45.1364413" lon="9.5167339"><ele>49.25</ele><time>2026-04-16T09:00:35.83Z</time></trkpt><trkpt lat="45.1362964" lon="9.5167078"><ele>49.5</ele><time>2026-04-16T09:00:36.83Z</time></trkpt><trkpt lat="45.1361562" lon="9.5166799"><ele>49.75</ele><time>2026-04-16T09:00:37.83Z</time></trkpt><trkpt lat="45.1360257" lon="9.5166513"><ele>50.0</ele><time>2026-04-16T09:00:38.83Z</time></trkpt><trkpt lat="45.1359083" lon="9.5166217"><ele>50.00000000000001</ele><time>2026-04-16T09:00:39.832Z</time></trkpt><trkpt lat="45.135805" lon="9.516596"><ele>50.0</ele><time>2026-04-16T09:00:40.83Z</time></trkpt><trkpt lat="45.1357199" lon="9.5165953"><ele>50.0</ele><time>2026-04-16T09:00:41.831Z</time></trkpt><trkpt lat="45.1356503" lon="9.5166227"><ele>50.0</ele><time>2026-04-16T09:00:42.832Z</time></trkpt><trkpt lat="45.1355956" lon="9.5166846"><ele>50.00000000000001</ele><time>2026-04-16T09:00:43.83Z</time></trkpt><trkpt lat="45.1355607" lon="9.5167789"><ele>50.0</ele><time>2026-04-16T09:00:44.831Z</time></trkpt><trkpt lat="45.1355392" lon="9.5168947"><ele>50.16666666666667</ele><time>2026-04-16T09:00:45.832Z</time></trkpt><trkpt lat="45.1355174" lon="9.5170092"><ele>50.333333333333336</ele><time>2026-04-16T09:00:46.83Z</time></trkpt><trkpt lat="45.1354892" lon="9.5171122"><ele>50.5</ele><time>2026-04-16T09:00:47.831Z</time></trkpt><trkpt lat="45.1354507" lon="9.5171944"><ele>50.66666666666667</ele><time>2026-04-16T09:00:48.831Z</time></trkpt><trkpt lat="45.1353997" lon="9.517256"><ele>50.833333333333336</ele><time>2026-04-16T09:00:49.831Z</time></trkpt><trkpt lat="45.1353322" lon="9.5172998"><ele>51.0</ele><time>2026-04-16T09:00:50.83Z</time></trkpt><trkpt lat="45.135249" lon="9.5173283"><ele>51.0</ele><time>2026-04-16T09:00:51.831Z</time></trkpt><trkpt lat="45.1351539" lon="9.5173578"><ele>51.0</ele><time>2026-04-16T09:00:52.831Z</time></trkpt><trkpt lat="45.1350631" lon="9.5173895"><ele>51.0</ele><time>2026-04-16T09:00:53.831Z</time></trkpt><trkpt lat="45.1349704" lon="9.5174171"><ele>51.0</ele><time>2026-04-16T09:00:54.83Z</time></trkpt><trkpt lat="45.134879" lon="9.5174343"><ele>51.0</ele><time>2026-04-16T09:00:55.83Z</time></trkpt><trkpt lat="45.1347869" lon="9.5174515"><ele>51.199999999999996</ele><time>2026-04-16T09:00:56.83Z</time></trkpt><trkpt lat="45.1346939" lon="9.5174726"><ele>51.4</ele><time>2026-04-16T09:00:57.831Z</time></trkpt><trkpt lat="45.1346098" lon="9.5174887"><ele>51.6</ele><time>2026-04-16T09:00:58.831Z</time></trkpt><trkpt lat="45.1345409" lon="9.5175003"><ele>51.8</ele><time>2026-04-16T09:00:59.831Z</time></trkpt><trkpt lat="45.1344561" lon="9.5174525"><ele>52.0</ele><time>2026-04-16T09:01:01.831Z</time></trkpt><trkpt lat="45.134428" lon="9.517294"><ele>52.0</ele><time>2026-04-16T09:01:03.832Z</time></trkpt><trkpt lat="45.1344245" lon="9.5171856"><ele>52.0</ele><time>2026-04-16T09:01:04.831Z</time></trkpt><trkpt lat="45.1344095" lon="9.5170753"><ele>52.0</ele><time>2026-04-16T09:01:05.831Z</time></trkpt><trkpt lat="45.1343788" lon="9.5169821"><ele>52.0</ele><time>2026-04-16T09:01:06.831Z</time></trkpt><trkpt lat="45.1343374" lon="9.516909"><ele>52.0</ele><time>2026-04-16T09:01:07.832Z</time></trkpt><trkpt lat="45.1342834" lon="9.5168589"><ele>52.0</ele><time>2026-04-16T09:01:08.83Z</time></trkpt><trkpt lat="45.1342166" lon="9.5168118"><ele>52.0</ele><time>2026-04-16T09:01:09.83Z</time></trkpt><trkpt lat="45.1341447" lon="9.516769"><ele>51.83333333333333</ele><time>2026-04-16T09:01:10.831Z</time></trkpt><trkpt lat="45.1340801" lon="9.5167315"><ele>51.666666666666664</ele><time>2026-04-16T09:01:11.831Z</time></trkpt><trkpt lat="45.1339979" lon="9.5166515"><ele>51.5</ele><time>2026-04-16T09:01:13.832Z</time></trkpt><trkpt lat="45.1339024" lon="9.5165739"><ele>51.33333333333333</ele><time>2026-04-16T09:01:16.831Z</time></trkpt><trkpt lat="45.1338368" lon="9.5165707"><ele>51.166666666666664</ele><time>2026-04-16T09:01:17.831Z</time></trkpt><trkpt lat="45.1337545" lon="9.516581"><ele>51.0</ele><time>2026-04-16T09:01:18.831Z</time></trkpt><trkpt lat="45.1336599" lon="9.5165931"><ele>50.75</ele><time>2026-04-16T09:01:19.831Z</time></trkpt><trkpt lat="45.1335522" lon="9.5166148"><ele>50.5</ele><time>2026-04-16T09:01:20.83Z</time></trkpt><trkpt lat="45.1334395" lon="9.5166529"><ele>50.25</ele><time>2026-04-16T09:01:21.831Z</time></trkpt><trkpt lat="45.1333305" lon="9.5167207"><ele>50.0</ele><time>2026-04-16T09:01:22.832Z</time></trkpt><trkpt lat="45.1332214" lon="9.5168159"><ele>49.75</ele><time>2026-04-16T09:01:23.831Z</time></trkpt><trkpt lat="45.1331272" lon="9.5169273"><ele>49.5</ele><time>2026-04-16T09:01:24.831Z</time></trkpt><trkpt lat="45.1330515" lon="9.5170611"><ele>49.25</ele><time>2026-04-16T09:01:25.831Z</time></trkpt><trkpt lat="45.1329914" lon="9.5172186"><ele>49.0</ele><time>2026-04-16T09:01:26.831Z</time></trkpt><trkpt lat="45.1329393" lon="9.5173882"><ele>49.0</ele><time>2026-04-16T09:01:27.831Z</time></trkpt><trkpt lat="45.1328804" lon="9.5175582"><ele>49.0</ele><time>2026-04-16T09:01:28.83Z</time></trkpt><trkpt lat="45.132813" lon="9.5177203"><ele>49.0</ele><time>2026-04-16T09:01:29.831Z</time></trkpt><trkpt lat="45.1327338" lon="9.5178725"><ele>49.0</ele><time>2026-04-16T09:01:30.83Z</time></trkpt><trkpt lat="45.1326463" lon="9.5180092"><ele>49.25</ele><time>2026-04-16T09:01:31.83Z</time></trkpt><trkpt lat="45.1325543" lon="9.5181206"><ele>49.5</ele><time>2026-04-16T09:01:32.83Z</time></trkpt><trkpt lat="45.1324601" lon="9.5182162"><ele>49.75</ele><time>2026-04-16T09:01:33.831Z</time></trkpt><trkpt lat="45.132363" lon="9.5183089"><ele>50.0</ele><time>2026-04-16T09:01:34.831Z</time></trkpt><trkpt lat="45.1322657" lon="9.5184054"><ele>49.75</ele><time>2026-04-16T09:01:35.832Z</time></trkpt><trkpt lat="45.1321667" lon="9.5185036"><ele>49.5</ele><time>2026-04-16T09:01:36.832Z</time></trkpt><trkpt lat="45.1320669" lon="9.5185998"><ele>49.25</ele><time>2026-04-16T09:01:37.831Z</time></trkpt><trkpt lat="45.1319685" lon="9.5186973"><ele>49.0</ele><time>2026-04-16T09:01:38.831Z</time></trkpt><trkpt lat="45.1318682" lon="9.518793"><ele>49.0</ele><time>2026-04-16T09:01:39.831Z</time></trkpt><trkpt lat="45.1317662" lon="9.5188887"><ele>49.0</ele><time>2026-04-16T09:01:40.83Z</time></trkpt><trkpt lat="45.1316635" lon="9.5189846"><ele>49.0</ele><time>2026-04-16T09:01:41.831Z</time></trkpt><trkpt lat="45.1315586" lon="9.519083"><ele>49.0</ele><time>2026-04-16T09:01:42.831Z</time></trkpt><trkpt lat="45.1314504" lon="9.5191805"><ele>48.5</ele><time>2026-04-16T09:01:43.831Z</time></trkpt><trkpt lat="45.1313379" lon="9.5192739"><ele>48.0</ele><time>2026-04-16T09:01:44.83Z</time></trkpt><trkpt lat="45.1312218" lon="9.5193713"><ele>47.5</ele><time>2026-04-16T09:01:45.831Z</time></trkpt><trkpt lat="45.1311057" lon="9.5194688"><ele>47.0</ele><time>2026-04-16T09:01:46.831Z</time></trkpt><trkpt lat="45.130985" lon="9.5195715"><ele>47.0</ele><time>2026-04-16T09:01:47.83Z</time></trkpt><trkpt lat="45.1308612" lon="9.5196813"><ele>47.0</ele><time>2026-04-16T09:01:48.83Z</time></trkpt><trkpt lat="45.130733" lon="9.5197933"><ele>47.0</ele><time>2026-04-16T09:01:49.831Z</time></trkpt><trkpt lat="45.1306051" lon="9.5199081"><ele>47.0</ele><time>2026-04-16T09:01:50.831Z</time></trkpt><trkpt lat="45.1304752" lon="9.5200217"><ele>47.666666666666664</ele><time>2026-04-16T09:01:51.832Z</time></trkpt><trkpt lat="45.1303438" lon="9.5201335"><ele>48.33333333333333</ele><time>2026-04-16T09:01:52.831Z</time></trkpt><trkpt lat="45.1302137" lon="9.5202404"><ele>49.0</ele><time>2026-04-16T09:01:53.83Z</time></trkpt><trkpt lat="45.1300852" lon="9.5203465"><ele>49.0</ele><time>2026-04-16T09:01:54.83Z</time></trkpt><trkpt lat="45.1299539" lon="9.5204491"><ele>49.0</ele><time>2026-04-16T09:01:55.831Z</time></trkpt><trkpt lat="45.1298205" lon="9.5205437"><ele>49.0</ele><time>2026-04-16T09:01:56.83Z</time></trkpt><trkpt lat="45.1296846" lon="9.5206312"><ele>49.0</ele><time>2026-04-16T09:01:57.831Z</time></trkpt><trkpt lat="45.1295455" lon="9.5207109"><ele>48.666666666666664</ele><time>2026-04-16T09:01:58.83Z</time></trkpt><trkpt lat="45.1294033" lon="9.5207877"><ele>48.33333333333333</ele><time>2026-04-16T09:01:59.83Z</time></trkpt><trkpt lat="45.1292605" lon="9.5208621"><ele>48.0</ele><time>2026-04-16T09:02:00.83Z</time></trkpt><trkpt lat="45.1291183" lon="9.5209312"><ele>48.25</ele><time>2026-04-16T09:02:01.832Z</time></trkpt><trkpt lat="45.1289735" lon="9.5209864"><ele>48.5</ele><time>2026-04-16T09:02:02.832Z</time></trkpt><trkpt lat="45.1288295" lon="9.521033"><ele>48.75</ele><time>2026-04-16T09:02:03.831Z</time></trkpt><trkpt lat="45.1286887" lon="9.5210747"><ele>49.0</ele><time>2026-04-16T09:02:04.831Z</time></trkpt><trkpt lat="45.1285524" lon="9.5211143"><ele>49.0</ele><time>2026-04-16T09:02:05.831Z</time></trkpt><trkpt lat="45.1284246" lon="9.521155"><ele>49.0</ele><time>2026-04-16T09:02:06.83Z</time></trkpt><trkpt lat="45.1283085" lon="9.5212067"><ele>49.0</ele><time>2026-04-16T09:02:07.83Z</time></trkpt><trkpt lat="45.1282062" lon="9.5212779"><ele>49.0</ele><time>2026-04-16T09:02:08.831Z</time></trkpt><trkpt lat="45.1281165" lon="9.5213684"><ele>49.2</ele><time>2026-04-16T09:02:09.832Z</time></trkpt><trkpt lat="45.1280317" lon="9.5214754"><ele>49.400000000000006</ele><time>2026-04-16T09:02:10.83Z</time></trkpt><trkpt lat="45.1279539" lon="9.5215838"><ele>49.6</ele><time>2026-04-16T09:02:11.831Z</time></trkpt><trkpt lat="45.1278727" lon="9.5216744"><ele>49.8</ele><time>2026-04-16T09:02:12.83Z</time></trkpt><trkpt lat="45.1277821" lon="9.5217359"><ele>50.0</ele><time>2026-04-16T09:02:13.83Z</time></trkpt><trkpt lat="45.1276851" lon="9.5217736"><ele>50.0</ele><time>2026-04-16T09:02:14.832Z</time></trkpt><trkpt lat="45.1275826" lon="9.521782"><ele>50.0</ele><time>2026-04-16T09:02:15.831Z</time></trkpt><trkpt lat="45.1274764" lon="9.5217674"><ele>50.0</ele><time>2026-04-16T09:02:16.83Z</time></trkpt><trkpt lat="45.1273636" lon="9.5217399"><ele>50.0</ele><time>2026-04-16T09:02:17.831Z</time></trkpt><trkpt lat="45.1272424" lon="9.5217099"><ele>50.0</ele><time>2026-04-16T09:02:18.83Z</time></trkpt><trkpt lat="45.1271163" lon="9.5216788"><ele>50.25</ele><time>2026-04-16T09:02:19.831Z</time></trkpt><trkpt lat="45.1269895" lon="9.5216486"><ele>50.5</ele><time>2026-04-16T09:02:20.831Z</time></trkpt><trkpt lat="45.1268619" lon="9.5216227"><ele>50.75</ele><time>2026-04-16T09:02:21.831Z</time></trkpt><trkpt lat="45.1267328" lon="9.5215985"><ele>51.0</ele><time>2026-04-16T09:02:22.831Z</time></trkpt><trkpt lat="45.126604" lon="9.5215778"><ele>50.75</ele><time>2026-04-16T09:02:23.832Z</time></trkpt><trkpt lat="45.1264763" lon="9.5215545"><ele>50.5</ele><time>2026-04-16T09:02:24.831Z</time></trkpt><trkpt lat="45.1263491" lon="9.5215322"><ele>50.25</ele><time>2026-04-16T09:02:25.83Z</time></trkpt><trkpt lat="45.1262223" lon="9.5215259"><ele>50.0</ele><time>2026-04-16T09:02:26.83Z</time></trkpt><trkpt lat="45.1260903" lon="9.5215316"><ele>50.0</ele><time>2026-04-16T09:02:27.83Z</time></trkpt><trkpt lat="45.1259527" lon="9.5215435"><ele>50.0</ele><time>2026-04-16T09:02:28.831Z</time></trkpt><trkpt lat="45.125812" lon="9.5215532"><ele>50.0</ele><time>2026-04-16T09:02:29.831Z</time></trkpt><trkpt lat="45.1256709" lon="9.5215601"><ele>50.0</ele><time>2026-04-16T09:02:30.83Z</time></trkpt><trkpt lat="45.1255358" lon="9.5215697"><ele>49.75</ele><time>2026-04-16T09:02:31.83Z</time></trkpt><trkpt lat="45.1253989" lon="9.5215793"><ele>49.5</ele><time>2026-04-16T09:02:32.83Z</time></trkpt><trkpt lat="45.1252611" lon="9.5215927"><ele>49.25</ele><time>2026-04-16T09:02:33.83Z</time></trkpt><trkpt lat="45.1251214" lon="9.521603"><ele>49.0</ele><time>2026-04-16T09:02:34.83Z</time></trkpt><trkpt lat="45.1249783" lon="9.5216105"><ele>49.0</ele><time>2026-04-16T09:02:35.831Z</time></trkpt><trkpt lat="45.1248356" lon="9.5216174"><ele>49.0</ele><time>2026-04-16T09:02:36.83Z</time></trkpt><trkpt lat="45.1246955" lon="9.5216251"><ele>49.0</ele><time>2026-04-16T09:02:37.832Z</time></trkpt><trkpt lat="45.1245604" lon="9.5216273"><ele>49.0</ele><time>2026-04-16T09:02:38.831Z</time></trkpt><trkpt lat="45.1244293" lon="9.5216261"><ele>49.0</ele><time>2026-04-16T09:02:39.831Z</time></trkpt><trkpt lat="45.1243051" lon="9.5216171"><ele>49.0</ele><time>2026-04-16T09:02:40.83Z</time></trkpt><trkpt lat="45.1241937" lon="9.5216021"><ele>49.0</ele><time>2026-04-16T09:02:41.83Z</time></trkpt><trkpt lat="45.1240874" lon="9.5215882"><ele>49.0</ele><time>2026-04-16T09:02:42.83Z</time></trkpt><trkpt lat="45.1239828" lon="9.5215728"><ele>49.0</ele><time>2026-04-16T09:02:43.831Z</time></trkpt><trkpt lat="45.1238665" lon="9.5215552"><ele>48.5</ele><time>2026-04-16T09:02:44.831Z</time></trkpt><trkpt lat="45.1237401" lon="9.5215402"><ele>48.0</ele><time>2026-04-16T09:02:45.83Z</time></trkpt><trkpt lat="45.1236086" lon="9.5215233"><ele>47.5</ele><time>2026-04-16T09:02:46.831Z</time></trkpt><trkpt lat="45.1234766" lon="9.5215063"><ele>47.0</ele><time>2026-04-16T09:02:47.83Z</time></trkpt><trkpt lat="45.123332" lon="9.5214856"><ele>47.33333333333333</ele><time>2026-04-16T09:02:48.831Z</time></trkpt><trkpt lat="45.1231812" lon="9.5214648"><ele>47.666666666666664</ele><time>2026-04-16T09:02:49.83Z</time></trkpt><trkpt lat="45.1230253" lon="9.5214421"><ele>48.0</ele><time>2026-04-16T09:02:50.832Z</time></trkpt><trkpt lat="45.1228679" lon="9.5214156"><ele>48.0</ele><time>2026-04-16T09:02:51.83Z</time></trkpt><trkpt lat="45.1227104" lon="9.5213912"><ele>48.0</ele><time>2026-04-16T09:02:52.831Z</time></trkpt><trkpt lat="45.1225558" lon="9.5213665"><ele>48.0</ele><time>2026-04-16T09:02:53.831Z</time></trkpt><trkpt lat="45.1224054" lon="9.5213427"><ele>48.25</ele><time>2026-04-16T09:02:54.831Z</time></trkpt><trkpt lat="45.1222578" lon="9.5213185"><ele>48.5</ele><time>2026-04-16T09:02:55.831Z</time></trkpt><trkpt lat="45.1221171" lon="9.5212967"><ele>48.75</ele><time>2026-04-16T09:02:56.83Z</time></trkpt><trkpt lat="45.1219817" lon="9.5212772"><ele>49.0</ele><time>2026-04-16T09:02:57.831Z</time></trkpt><trkpt lat="45.1218504" lon="9.5212595"><ele>49.0</ele><time>2026-04-16T09:02:58.83Z</time></trkpt><trkpt lat="45.1217236" lon="9.5212364"><ele>49.0</ele><time>2026-04-16T09:02:59.831Z</time></trkpt><trkpt lat="45.1216054" lon="9.5212002"><ele>49.0</ele><time>2026-04-16T09:03:00.83Z</time></trkpt><trkpt lat="45.1214894" lon="9.5211471"><ele>49.0</ele><time>2026-04-16T09:03:01.83Z</time></trkpt><trkpt lat="45.121374" lon="9.521073"><ele>49.5</ele><time>2026-04-16T09:03:02.831Z</time></trkpt><trkpt lat="45.121262" lon="9.5209767"><ele>50.0</ele><time>2026-04-16T09:03:03.83Z</time></trkpt><trkpt lat="45.1211531" lon="9.5208651"><ele>50.5</ele><time>2026-04-16T09:03:04.831Z</time></trkpt><trkpt lat="45.1210488" lon="9.5207365"><ele>51.0</ele><time>2026-04-16T09:03:05.83Z</time></trkpt><trkpt lat="45.1209478" lon="9.5205951"><ele>51.0</ele><time>2026-04-16T09:03:06.83Z</time></trkpt><trkpt lat="45.1208442" lon="9.520442"><ele>51.0</ele><time>2026-04-16T09:03:07.831Z</time></trkpt><trkpt lat="45.1207397" lon="9.5202781"><ele>51.0</ele><time>2026-04-16T09:03:08.83Z</time></trkpt><trkpt lat="45.1206303" lon="9.5201116"><ele>49.666666666666664</ele><time>2026-04-16T09:03:09.83Z</time></trkpt><trkpt lat="45.1205216" lon="9.5199483"><ele>48.33333333333333</ele><time>2026-04-16T09:03:10.83Z</time></trkpt><trkpt lat="45.1204151" lon="9.519787"><ele>47.0</ele><time>2026-04-16T09:03:11.831Z</time></trkpt><trkpt lat="45.120312" lon="9.5196338"><ele>47.0</ele><time>2026-04-16T09:03:12.832Z</time></trkpt><trkpt lat="45.1202163" lon="9.519486"><ele>47.0</ele><time>2026-04-16T09:03:13.83Z</time></trkpt><trkpt lat="45.1201324" lon="9.5193453"><ele>47.0</ele><time>2026-04-16T09:03:14.83Z</time></trkpt><trkpt lat="45.1200673" lon="9.5192037"><ele>47.0</ele><time>2026-04-16T09:03:15.83Z</time></trkpt><trkpt lat="45.1200259" lon="9.5190562"><ele>47.0</ele><time>2026-04-16T09:03:16.831Z</time></trkpt><trkpt lat="45.1200008" lon="9.5189006"><ele>47.0</ele><time>2026-04-16T09:03:17.831Z</time></trkpt><trkpt lat="45.1199974" lon="9.5187346"><ele>47.0</ele><time>2026-04-16T09:03:18.83Z</time></trkpt><trkpt lat="45.120007" lon="9.5185542"><ele>47.0</ele><time>2026-04-16T09:03:19.83Z</time></trkpt><trkpt lat="45.1200126" lon="9.518359"><ele>47.0</ele><time>2026-04-16T09:03:20.831Z</time></trkpt><trkpt lat="45.1200155" lon="9.5181527"><ele>47.0</ele><time>2026-04-16T09:03:21.831Z</time></trkpt><trkpt lat="45.1200175" lon="9.5179349"><ele>47.0</ele><time>2026-04-16T09:03:22.83Z</time></trkpt><trkpt lat="45.1200185" lon="9.5177084"><ele>47.0</ele><time>2026-04-16T09:03:23.83Z</time></trkpt><trkpt lat="45.1200186" lon="9.5174712"><ele>47.0</ele><time>2026-04-16T09:03:24.83Z</time></trkpt><trkpt lat="45.12002" lon="9.5172302"><ele>47.0</ele><time>2026-04-16T09:03:25.83Z</time></trkpt><trkpt lat="45.1200233" lon="9.5169879"><ele>47.0</ele><time>2026-04-16T09:03:26.831Z</time></trkpt><trkpt lat="45.1200268" lon="9.5167526"><ele>47.0</ele><time>2026-04-16T09:03:27.831Z</time></trkpt><trkpt lat="45.1200292" lon="9.5165256"><ele>47.0</ele><time>2026-04-16T09:03:28.831Z</time></trkpt><trkpt lat="45.1200347" lon="9.5163099"><ele>47.25</ele><time>2026-04-16T09:03:29.831Z</time></trkpt><trkpt lat="45.1200401" lon="9.516103"><ele>47.5</ele><time>2026-04-16T09:03:30.831Z</time></trkpt><trkpt lat="45.1200441" lon="9.515908"><ele>47.75</ele><time>2026-04-16T09:03:31.832Z</time></trkpt><trkpt lat="45.1200421" lon="9.5157239"><ele>48.0</ele><time>2026-04-16T09:03:32.831Z</time></trkpt><trkpt lat="45.1200274" lon="9.5155446"><ele>48.0</ele><time>2026-04-16T09:03:33.83Z</time></trkpt><trkpt lat="45.1199996" lon="9.5153605"><ele>48.0</ele><time>2026-04-16T09:03:34.83Z</time></trkpt><trkpt lat="45.1199564" lon="9.5151727"><ele>48.0</ele><time>2026-04-16T09:03:35.831Z</time></trkpt><trkpt lat="45.1198998" lon="9.5149784"><ele>48.0</ele><time>2026-04-16T09:03:36.83Z</time></trkpt><trkpt lat="45.1198368" lon="9.5147786"><ele>48.0</ele><time>2026-04-16T09:03:37.831Z</time></trkpt><trkpt lat="45.1197732" lon="9.5145717"><ele>48.0</ele><time>2026-04-16T09:03:38.83Z</time></trkpt><trkpt lat="45.1197133" lon="9.5143674"><ele>48.0</ele><time>2026-04-16T09:03:39.831Z</time></trkpt><trkpt lat="45.1196553" lon="9.5141693"><ele>48.0</ele><time>2026-04-16T09:03:40.831Z</time></trkpt><trkpt lat="45.1196015" lon="9.5139776"><ele>48.0</ele><time>2026-04-16T09:03:41.831Z</time></trkpt><trkpt lat="45.1195449" lon="9.5137942"><ele>48.0</ele><time>2026-04-16T09:03:42.831Z</time></trkpt><trkpt lat="45.1194886" lon="9.513618"><ele>48.0</ele><time>2026-04-16T09:03:43.831Z</time></trkpt><trkpt lat="45.1194236" lon="9.5134577"><ele>48.0</ele><time>2026-04-16T09:03:44.832Z</time></trkpt><trkpt lat="45.119346" lon="9.5133175"><ele>48.0</ele><time>2026-04-16T09:03:45.83Z</time></trkpt><trkpt lat="45.1192499" lon="9.5131911"><ele>48.0</ele><time>2026-04-16T09:03:46.831Z</time></trkpt><trkpt lat="45.1191408" lon="9.5130796"><ele>48.0</ele><time>2026-04-16T09:03:47.832Z</time></trkpt><trkpt lat="45.1190193" lon="9.5129774"><ele>48.5</ele><time>2026-04-16T09:03:48.83Z</time></trkpt><trkpt lat="45.1188917" lon="9.5128806"><ele>49.0</ele><time>2026-04-16T09:03:49.831Z</time></trkpt><trkpt lat="45.1187625" lon="9.5128027"><ele>49.5</ele><time>2026-04-16T09:03:50.831Z</time></trkpt><trkpt lat="45.1186385" lon="9.5127466"><ele>50.0</ele><time>2026-04-16T09:03:51.83Z</time></trkpt><trkpt lat="45.1185185" lon="9.5127151"><ele>50.0</ele><time>2026-04-16T09:03:52.832Z</time></trkpt><trkpt lat="45.1183951" lon="9.5127091"><ele>50.0</ele><time>2026-04-16T09:03:53.831Z</time></trkpt><trkpt lat="45.1182661" lon="9.5127301"><ele>50.0</ele><time>2026-04-16T09:03:54.831Z</time></trkpt><trkpt lat="45.1181338" lon="9.5127727"><ele>50.0</ele><time>2026-04-16T09:03:55.831Z</time></trkpt><trkpt lat="45.1179988" lon="9.5128222"><ele>50.25</ele><time>2026-04-16T09:03:56.831Z</time></trkpt><trkpt lat="45.1178622" lon="9.5128751"><ele>50.5</ele><time>2026-04-16T09:03:57.83Z</time></trkpt><trkpt lat="45.1177275" lon="9.5129281"><ele>50.75</ele><time>2026-04-16T09:03:58.831Z</time></trkpt><trkpt lat="45.1175892" lon="9.5129822"><ele>51.0</ele><time>2026-04-16T09:03:59.831Z</time></trkpt><trkpt lat="45.1174482" lon="9.5130353"><ele>51.0</ele><time>2026-04-16T09:04:00.831Z</time></trkpt><trkpt lat="45.1173079" lon="9.513088"><ele>51.0</ele><time>2026-04-16T09:04:01.83Z</time></trkpt><trkpt lat="45.1171638" lon="9.5131399"><ele>51.0</ele><time>2026-04-16T09:04:02.832Z</time></trkpt><trkpt lat="45.1170189" lon="9.5131933"><ele>51.0</ele><time>2026-04-16T09:04:03.83Z</time></trkpt><trkpt lat="45.1168739" lon="9.5132469"><ele>51.0</ele><time>2026-04-16T09:04:04.831Z</time></trkpt><trkpt lat="45.1167329" lon="9.5133033"><ele>51.0</ele><time>2026-04-16T09:04:05.831Z</time></trkpt><trkpt lat="45.1165951" lon="9.5133538"><ele>51.0</ele><time>2026-04-16T09:04:06.83Z</time></trkpt><trkpt lat="45.1164589" lon="9.5134043"><ele>51.0</ele><time>2026-04-16T09:04:07.83Z</time></trkpt><trkpt lat="45.1163214" lon="9.5134508"><ele>51.0</ele><time>2026-04-16T09:04:08.831Z</time></trkpt><trkpt lat="45.116184" lon="9.5135021"><ele>51.0</ele><time>2026-04-16T09:04:09.831Z</time></trkpt><trkpt lat="45.1160442" lon="9.5135573"><ele>51.0</ele><time>2026-04-16T09:04:10.831Z</time></trkpt><trkpt lat="45.115907" lon="9.5136141"><ele>51.0</ele><time>2026-04-16T09:04:11.831Z</time></trkpt><trkpt lat="45.1157655" lon="9.5136694"><ele>51.0</ele><time>2026-04-16T09:04:12.832Z</time></trkpt><trkpt lat="45.1156197" lon="9.5137219"><ele>51.0</ele><time>2026-04-16T09:04:13.831Z</time></trkpt><trkpt lat="45.1154729" lon="9.5137751"><ele>51.0</ele><time>2026-04-16T09:04:14.831Z</time></trkpt><trkpt lat="45.1153245" lon="9.5138308"><ele>51.0</ele><time>2026-04-16T09:04:15.831Z</time></trkpt><trkpt lat="45.1151796" lon="9.5138873"><ele>51.0</ele><time>2026-04-16T09:04:16.83Z</time></trkpt><trkpt lat="45.1150393" lon="9.5139359"><ele>51.0</ele><time>2026-04-16T09:04:17.831Z</time></trkpt><trkpt lat="45.114903" lon="9.5139865"><ele>51.0</ele><time>2026-04-16T09:04:18.83Z</time></trkpt><trkpt lat="45.114762" lon="9.5140399"><ele>51.33333333333333</ele><time>2026-04-16T09:04:19.83Z</time></trkpt><trkpt lat="45.1146168" lon="9.5140957"><ele>51.666666666666664</ele><time>2026-04-16T09:04:20.831Z</time></trkpt><trkpt lat="45.1144661" lon="9.5141518"><ele>52.0</ele><time>2026-04-16T09:04:21.831Z</time></trkpt><trkpt lat="45.1143112" lon="9.5142112"><ele>52.0</ele><time>2026-04-16T09:04:22.83Z</time></trkpt><trkpt lat="45.1141549" lon="9.5142709"><ele>52.0</ele><time>2026-04-16T09:04:23.831Z</time></trkpt><trkpt lat="45.114002" lon="9.5143304"><ele>52.0</ele><time>2026-04-16T09:04:24.832Z</time></trkpt><trkpt lat="45.1138465" lon="9.5143903"><ele>52.33333333333333</ele><time>2026-04-16T09:04:25.832Z</time></trkpt><trkpt lat="45.1136914" lon="9.5144499"><ele>52.66666666666667</ele><time>2026-04-16T09:04:26.831Z</time></trkpt><trkpt lat="45.1135381" lon="9.5145088"><ele>53.0</ele><time>2026-04-16T09:04:27.83Z</time></trkpt><trkpt lat="45.1133813" lon="9.5145673"><ele>52.333333333333336</ele><time>2026-04-16T09:04:28.831Z</time></trkpt><trkpt lat="45.1132238" lon="9.5146336"><ele>51.66666666666667</ele><time>2026-04-16T09:04:29.832Z</time></trkpt><trkpt lat="45.1130697" lon="9.5146958"><ele>51.0</ele><time>2026-04-16T09:04:30.831Z</time></trkpt><trkpt lat="45.112921" lon="9.5147595"><ele>51.0</ele><time>2026-04-16T09:04:31.83Z</time></trkpt><trkpt lat="45.1127765" lon="9.5148217"><ele>51.0</ele><time>2026-04-16T09:04:32.83Z</time></trkpt><trkpt lat="45.1126363" lon="9.5148813"><ele>51.0</ele><time>2026-04-16T09:04:33.831Z</time></trkpt><trkpt lat="45.1124969" lon="9.5149416"><ele>51.0</ele><time>2026-04-16T09:04:34.831Z</time></trkpt><trkpt lat="45.1123655" lon="9.5150012"><ele>51.0</ele><time>2026-04-16T09:04:35.831Z</time></trkpt><trkpt lat="45.1122435" lon="9.5150598"><ele>51.0</ele><time>2026-04-16T09:04:36.83Z</time></trkpt><trkpt lat="45.1121271" lon="9.5151144"><ele>51.0</ele><time>2026-04-16T09:04:37.831Z</time></trkpt><trkpt lat="45.1120128" lon="9.5151627"><ele>51.0</ele><time>2026-04-16T09:04:38.831Z</time></trkpt><trkpt lat="45.1119025" lon="9.51521"><ele>51.0</ele><time>2026-04-16T09:04:39.831Z</time></trkpt><trkpt lat="45.1117979" lon="9.5152567"><ele>51.0</ele><time>2026-04-16T09:04:40.831Z</time></trkpt><trkpt lat="45.1117048" lon="9.5153061"><ele>51.0</ele><time>2026-04-16T09:04:41.831Z</time></trkpt><trkpt lat="45.1116176" lon="9.5153355"><ele>51.0</ele><time>2026-04-16T09:04:42.831Z</time></trkpt><trkpt lat="45.1115356" lon="9.5153415"><ele>51.0</ele><time>2026-04-16T09:04:43.83Z</time></trkpt><trkpt lat="45.1114603" lon="9.5153269"><ele>51.599999999999994</ele><time>2026-04-16T09:04:44.831Z</time></trkpt><trkpt lat="45.1113895" lon="9.5152939"><ele>52.2</ele><time>2026-04-16T09:04:45.831Z</time></trkpt><trkpt lat="45.111319" lon="9.515237"><ele>52.800000000000004</ele><time>2026-04-16T09:04:46.83Z</time></trkpt><trkpt lat="45.1112477" lon="9.5151529"><ele>53.400000000000006</ele><time>2026-04-16T09:04:47.832Z</time></trkpt><trkpt lat="45.1111675" lon="9.5150653"><ele>54.0</ele><time>2026-04-16T09:04:48.83Z</time></trkpt><trkpt lat="45.1110837" lon="9.5149871"><ele>54.0</ele><time>2026-04-16T09:04:49.831Z</time></trkpt><trkpt lat="45.1109975" lon="9.5149164"><ele>54.00000000000001</ele><time>2026-04-16T09:04:50.83Z</time></trkpt><trkpt lat="45.1109098" lon="9.5148488"><ele>54.00000000000001</ele><time>2026-04-16T09:04:51.831Z</time></trkpt><trkpt lat="45.110827" lon="9.5147838"><ele>54.0</ele><time>2026-04-16T09:04:52.831Z</time></trkpt><trkpt lat="45.110751" lon="9.5147249"><ele>54.0</ele><time>2026-04-16T09:04:53.832Z</time></trkpt><trkpt lat="45.1106705" lon="9.5146611"><ele>53.6</ele><time>2026-04-16T09:04:54.831Z</time></trkpt><trkpt lat="45.1105897" lon="9.5145861"><ele>53.2</ele><time>2026-04-16T09:04:55.831Z</time></trkpt><trkpt lat="45.1105084" lon="9.5144939"><ele>52.800000000000004</ele><time>2026-04-16T09:04:56.831Z</time></trkpt><trkpt lat="45.1104172" lon="9.5144"><ele>52.400000000000006</ele><time>2026-04-16T09:04:57.831Z</time></trkpt><trkpt lat="45.1103234" lon="9.5143007"><ele>52.0</ele><time>2026-04-16T09:04:58.831Z</time></trkpt><trkpt lat="45.1102285" lon="9.5141978"><ele>51.75</ele><time>2026-04-16T09:04:59.832Z</time></trkpt><trkpt lat="45.1101312" lon="9.5140918"><ele>51.5</ele><time>2026-04-16T09:05:00.831Z</time></trkpt><trkpt lat="45.1100323" lon="9.5139831"><ele>51.25</ele><time>2026-04-16T09:05:01.831Z</time></trkpt><trkpt lat="45.1099366" lon="9.5138743"><ele>51.0</ele><time>2026-04-16T09:05:02.831Z</time></trkpt><trkpt lat="45.1098499" lon="9.5137777"><ele>51.0</ele><time>2026-04-16T09:05:03.83Z</time></trkpt><trkpt lat="45.1097639" lon="9.5136877"><ele>51.0</ele><time>2026-04-16T09:05:04.83Z</time></trkpt><trkpt lat="45.1096851" lon="9.5136013"><ele>51.0</ele><time>2026-04-16T09:05:05.832Z</time></trkpt><trkpt lat="45.1096119" lon="9.5135218"><ele>51.0</ele><time>2026-04-16T09:05:06.83Z</time></trkpt><trkpt lat="45.1095462" lon="9.5134542"><ele>51.0</ele><time>2026-04-16T09:05:07.829Z</time></trkpt><trkpt lat="45.1095035" lon="9.5133826"><ele>51.0</ele><time>2026-04-16T09:05:08.83Z</time></trkpt><trkpt lat="45.1094852" lon="9.5132491"><ele>51.0</ele><time>2026-04-16T09:05:10.83Z</time></trkpt><trkpt lat="45.1095681" lon="9.5131408"><ele>51.0</ele><time>2026-04-16T09:05:12.829Z</time></trkpt><trkpt lat="45.109634" lon="9.5130972"><ele>51.0</ele><time>2026-04-16T09:05:13.83Z</time></trkpt><trkpt lat="45.1097128" lon="9.5130625"><ele>51.0</ele><time>2026-04-16T09:05:14.829Z</time></trkpt><trkpt lat="45.1097894" lon="9.5130261"><ele>51.0</ele><time>2026-04-16T09:05:15.83Z</time></trkpt><trkpt lat="45.1098617" lon="9.512984"><ele>51.0</ele><time>2026-04-16T09:05:16.83Z</time></trkpt><trkpt lat="45.1099334" lon="9.5129394"><ele>51.0</ele><time>2026-04-16T09:05:17.831Z</time></trkpt><trkpt lat="45.1100121" lon="9.512894"><ele>51.0</ele><time>2026-04-16T09:05:18.83Z</time></trkpt><trkpt lat="45.1100966" lon="9.5128384"><ele>51.0</ele><time>2026-04-16T09:05:19.83Z</time></trkpt><trkpt lat="45.1101904" lon="9.5127733"><ele>51.0</ele><time>2026-04-16T09:05:20.829Z</time></trkpt><trkpt lat="45.1102966" lon="9.5127091"><ele>51.0</ele><time>2026-04-16T09:05:21.83Z</time></trkpt><trkpt lat="45.1104049" lon="9.5126417"><ele>51.0</ele><time>2026-04-16T09:05:22.83Z</time></trkpt><trkpt lat="45.1105148" lon="9.5125781"><ele>51.0</ele><time>2026-04-16T09:05:23.83Z</time></trkpt><trkpt lat="45.1106261" lon="9.5125198"><ele>51.0</ele><time>2026-04-16T09:05:24.831Z</time></trkpt><trkpt lat="45.1107302" lon="9.5124594"><ele>51.0</ele><time>2026-04-16T09:05:25.83Z</time></trkpt><trkpt lat="45.1108251" lon="9.5124042"><ele>51.166666666666664</ele><time>2026-04-16T09:05:26.83Z</time></trkpt><trkpt lat="45.1109022" lon="9.5123551"><ele>51.33333333333333</ele><time>2026-04-16T09:05:27.829Z</time></trkpt><trkpt lat="45.1109605" lon="9.5122906"><ele>51.5</ele><time>2026-04-16T09:05:28.831Z</time></trkpt><trkpt lat="45.1109964" lon="9.5122123"><ele>51.666666666666664</ele><time>2026-04-16T09:05:29.83Z</time></trkpt><trkpt lat="45.111006" lon="9.5120463"><ele>51.83333333333333</ele><time>2026-04-16T09:05:31.83Z</time></trkpt><trkpt lat="45.1109855" lon="9.5119559"><ele>52.0</ele><time>2026-04-16T09:05:32.831Z</time></trkpt><trkpt lat="45.1109476" lon="9.5118535"><ele>52.2</ele><time>2026-04-16T09:05:33.83Z</time></trkpt><trkpt lat="45.1108989" lon="9.5117405"><ele>52.400000000000006</ele><time>2026-04-16T09:05:34.83Z</time></trkpt><trkpt lat="45.110845" lon="9.5116254"><ele>52.599999999999994</ele><time>2026-04-16T09:05:35.829Z</time></trkpt><trkpt lat="45.1107926" lon="9.511513"><ele>52.8</ele><time>2026-04-16T09:05:36.829Z</time></trkpt><trkpt lat="45.1107465" lon="9.5114059"><ele>53.0</ele><time>2026-04-16T09:05:37.829Z</time></trkpt><trkpt lat="45.1107054" lon="9.5113078"><ele>52.66666666666667</ele><time>2026-04-16T09:05:38.83Z</time></trkpt><trkpt lat="45.1106691" lon="9.5112255"><ele>52.333333333333336</ele><time>2026-04-16T09:05:39.83Z</time></trkpt><trkpt lat="45.1106105" lon="9.5110967"><ele>52.0</ele><time>2026-04-16T09:05:41.831Z</time></trkpt><trkpt lat="45.1105712" lon="9.5109856"><ele>51.66666666666667</ele><time>2026-04-16T09:05:43.829Z</time></trkpt><trkpt lat="45.1105716" lon="9.5108634"><ele>51.333333333333336</ele><time>2026-04-16T09:05:45.829Z</time></trkpt><trkpt lat="45.1106267" lon="9.5107587"><ele>51.0</ele><time>2026-04-16T09:05:47.83Z</time></trkpt><trkpt lat="45.1107102" lon="9.5106561"><ele>51.0</ele><time>2026-04-16T09:05:49.83Z</time></trkpt><trkpt lat="45.110764" lon="9.51053"><ele>51.0</ele><time>2026-04-16T09:05:51.83Z</time></trkpt><trkpt lat="45.1107437" lon="9.5103885"><ele>51.0</ele><time>2026-04-16T09:05:53.829Z</time></trkpt><trkpt lat="45.1106844" lon="9.5102219"><ele>51.0</ele><time>2026-04-16T09:05:55.83Z</time></trkpt><trkpt lat="45.110643" lon="9.5101026"><ele>51.0</ele><time>2026-04-16T09:05:56.83Z</time></trkpt><trkpt lat="45.110599" lon="9.5099909"><ele>51.0</ele><time>2026-04-16T09:05:57.83Z</time></trkpt><trkpt lat="45.1105557" lon="9.5098687"><ele>51.0</ele><time>2026-04-16T09:05:58.83Z</time></trkpt><trkpt lat="45.1105007" lon="9.5097214"><ele>51.0</ele><time>2026-04-16T09:05:59.831Z</time></trkpt><trkpt lat="45.1104436" lon="9.5095664"><ele>51.0</ele><time>2026-04-16T09:06:00.829Z</time></trkpt><trkpt lat="45.1103848" lon="9.5093983"><ele>50.75</ele><time>2026-04-16T09:06:01.83Z</time></trkpt><trkpt lat="45.11032" lon="9.5092202"><ele>50.5</ele><time>2026-04-16T09:06:02.831Z</time></trkpt><trkpt lat="45.1102493" lon="9.5090363"><ele>50.25</ele><time>2026-04-16T09:06:03.831Z</time></trkpt><trkpt lat="45.110179" lon="9.5088455"><ele>50.0</ele><time>2026-04-16T09:06:04.83Z</time></trkpt><trkpt lat="45.1101063" lon="9.5086506"><ele>50.0</ele><time>2026-04-16T09:06:05.83Z</time></trkpt><trkpt lat="45.1100352" lon="9.5084528"><ele>50.0</ele><time>2026-04-16T09:06:06.83Z</time></trkpt><trkpt lat="45.1099624" lon="9.5082562"><ele>50.0</ele><time>2026-04-16T09:06:07.83Z</time></trkpt><trkpt lat="45.1098908" lon="9.5080568"><ele>49.66666666666667</ele><time>2026-04-16T09:06:08.83Z</time></trkpt><trkpt lat="45.1098191" lon="9.5078572"><ele>49.33333333333333</ele><time>2026-04-16T09:06:09.83Z</time></trkpt><trkpt lat="45.1097442" lon="9.50766"><ele>49.0</ele><time>2026-04-16T09:06:10.829Z</time></trkpt><trkpt lat="45.1096719" lon="9.507463"><ele>49.0</ele><time>2026-04-16T09:06:11.83Z</time></trkpt><trkpt lat="45.1095989" lon="9.5072636"><ele>49.0</ele><time>2026-04-16T09:06:12.829Z</time></trkpt><trkpt lat="45.1095288" lon="9.5070743"><ele>49.0</ele><time>2026-04-16T09:06:13.83Z</time></trkpt><trkpt lat="45.1094628" lon="9.5068952"><ele>49.5</ele><time>2026-04-16T09:06:14.83Z</time></trkpt><trkpt lat="45.1094015" lon="9.5067282"><ele>50.0</ele><time>2026-04-16T09:06:15.829Z</time></trkpt><trkpt lat="45.1093407" lon="9.5065669"><ele>50.5</ele><time>2026-04-16T09:06:16.83Z</time></trkpt><trkpt lat="45.10928" lon="9.5064128"><ele>51.0</ele><time>2026-04-16T09:06:17.829Z</time></trkpt><trkpt lat="45.1092148" lon="9.5062599"><ele>50.5</ele><time>2026-04-16T09:06:18.831Z</time></trkpt><trkpt lat="45.1091514" lon="9.5060989"><ele>50.0</ele><time>2026-04-16T09:06:19.829Z</time></trkpt><trkpt lat="45.1090858" lon="9.5059274"><ele>49.5</ele><time>2026-04-16T09:06:20.83Z</time></trkpt><trkpt lat="45.1090177" lon="9.5057488"><ele>49.0</ele><time>2026-04-16T09:06:21.83Z</time></trkpt><trkpt lat="45.1089494" lon="9.505569"><ele>49.25</ele><time>2026-04-16T09:06:22.829Z</time></trkpt><trkpt lat="45.108879" lon="9.505383"><ele>49.5</ele><time>2026-04-16T09:06:23.83Z</time></trkpt><trkpt lat="45.1088075" lon="9.5051962"><ele>49.75</ele><time>2026-04-16T09:06:24.83Z</time></trkpt><trkpt lat="45.1087378" lon="9.5050093"><ele>50.0</ele><time>2026-04-16T09:06:25.83Z</time></trkpt><trkpt lat="45.1086682" lon="9.5048203"><ele>50.0</ele><time>2026-04-16T09:06:26.83Z</time></trkpt><trkpt lat="45.1085941" lon="9.5046279"><ele>50.0</ele><time>2026-04-16T09:06:27.83Z</time></trkpt><trkpt lat="45.108521" lon="9.5044344"><ele>50.0</ele><time>2026-04-16T09:06:28.83Z</time></trkpt><trkpt lat="45.1084484" lon="9.5042418"><ele>50.0</ele><time>2026-04-16T09:06:29.83Z</time></trkpt><trkpt lat="45.1083782" lon="9.5040568"><ele>50.0</ele><time>2026-04-16T09:06:30.829Z</time></trkpt><trkpt lat="45.1083082" lon="9.503874"><ele>50.0</ele><time>2026-04-16T09:06:31.829Z</time></trkpt><trkpt lat="45.1082377" lon="9.5036898"><ele>50.0</ele><time>2026-04-16T09:06:32.83Z</time></trkpt><trkpt lat="45.1081666" lon="9.5035002"><ele>50.0</ele><time>2026-04-16T09:06:33.83Z</time></trkpt><trkpt lat="45.1080955" lon="9.5033123"><ele>50.0</ele><time>2026-04-16T09:06:34.83Z</time></trkpt><trkpt lat="45.1080275" lon="9.5031308"><ele>50.0</ele><time>2026-04-16T09:06:35.829Z</time></trkpt><trkpt lat="45.1079599" lon="9.5029514"><ele>50.0</ele><time>2026-04-16T09:06:36.829Z</time></trkpt><trkpt lat="45.1078909" lon="9.5027681"><ele>50.5</ele><time>2026-04-16T09:06:37.829Z</time></trkpt><trkpt lat="45.1078221" lon="9.5025821"><ele>51.0</ele><time>2026-04-16T09:06:38.83Z</time></trkpt><trkpt lat="45.1077585" lon="9.5024077"><ele>51.5</ele><time>2026-04-16T09:06:39.829Z</time></trkpt><trkpt lat="45.1076965" lon="9.50224"><ele>52.0</ele><time>2026-04-16T09:06:40.829Z</time></trkpt><trkpt lat="45.1076415" lon="9.5020781"><ele>52.400000000000006</ele><time>2026-04-16T09:06:41.83Z</time></trkpt><trkpt lat="45.1075979" lon="9.5019145"><ele>52.800000000000004</ele><time>2026-04-16T09:06:42.831Z</time></trkpt><trkpt lat="45.1075743" lon="9.5017658"><ele>53.2</ele><time>2026-04-16T09:06:43.83Z</time></trkpt><trkpt lat="45.1075581" lon="9.5016359"><ele>53.6</ele><time>2026-04-16T09:06:44.83Z</time></trkpt><trkpt lat="45.1075358" lon="9.5015253"><ele>54.0</ele><time>2026-04-16T09:06:45.83Z</time></trkpt><trkpt lat="45.1075089" lon="9.5014367"><ele>54.0</ele><time>2026-04-16T09:06:46.829Z</time></trkpt><trkpt lat="45.1074788" lon="9.5013483"><ele>54.00000000000001</ele><time>2026-04-16T09:06:47.831Z</time></trkpt><trkpt lat="45.1074532" lon="9.5012395"><ele>54.00000000000001</ele><time>2026-04-16T09:06:48.83Z</time></trkpt><trkpt lat="45.1074326" lon="9.5011069"><ele>54.0</ele><time>2026-04-16T09:06:49.83Z</time></trkpt><trkpt lat="45.1074062" lon="9.5009581"><ele>54.0</ele><time>2026-04-16T09:06:50.83Z</time></trkpt><trkpt lat="45.1073804" lon="9.5008033"><ele>54.0</ele><time>2026-04-16T09:06:51.83Z</time></trkpt><trkpt lat="45.1073553" lon="9.5006324"><ele>54.0</ele><time>2026-04-16T09:06:52.831Z</time></trkpt><trkpt lat="45.1073311" lon="9.5004571"><ele>54.0</ele><time>2026-04-16T09:06:53.83Z</time></trkpt><trkpt lat="45.1073069" lon="9.5002679"><ele>54.0</ele><time>2026-04-16T09:06:54.83Z</time></trkpt><trkpt lat="45.1072887" lon="9.5000691"><ele>54.0</ele><time>2026-04-16T09:06:55.83Z</time></trkpt><trkpt lat="45.1072771" lon="9.4998569"><ele>54.0</ele><time>2026-04-16T09:06:56.831Z</time></trkpt><trkpt lat="45.1072692" lon="9.4996394"><ele>54.0</ele><time>2026-04-16T09:06:57.829Z</time></trkpt><trkpt lat="45.1072679" lon="9.4994379"><ele>54.0</ele><time>2026-04-16T09:06:58.829Z</time></trkpt><trkpt lat="45.1072716" lon="9.4992577"><ele>54.2</ele><time>2026-04-16T09:06:59.83Z</time></trkpt><trkpt lat="45.1072837" lon="9.499092"><ele>54.400000000000006</ele><time>2026-04-16T09:07:00.83Z</time></trkpt><trkpt lat="45.1072956" lon="9.4989416"><ele>54.6</ele><time>2026-04-16T09:07:01.83Z</time></trkpt><trkpt lat="45.1073057" lon="9.4988095"><ele>54.8</ele><time>2026-04-16T09:07:02.829Z</time></trkpt><trkpt lat="45.1073172" lon="9.4986966"><ele>55.0</ele><time>2026-04-16T09:07:03.83Z</time></trkpt><trkpt lat="45.1073267" lon="9.4986055"><ele>54.99999999999999</ele><time>2026-04-16T09:07:04.83Z</time></trkpt><trkpt lat="45.1073346" lon="9.4984925"><ele>55.0</ele><time>2026-04-16T09:07:06.829Z</time></trkpt><trkpt lat="45.107326" lon="9.4983903"><ele>55.0</ele><time>2026-04-16T09:07:09.83Z</time></trkpt><trkpt lat="45.1073168" lon="9.4983013"><ele>55.0</ele><time>2026-04-16T09:07:11.83Z</time></trkpt><trkpt lat="45.1073197" lon="9.4981872"><ele>54.99999999999999</ele><time>2026-04-16T09:07:13.829Z</time></trkpt><trkpt lat="45.107331" lon="9.4980443"><ele>55.0</ele><time>2026-04-16T09:07:15.829Z</time></trkpt><trkpt lat="45.1073429" lon="9.4979175"><ele>54.42857142857142</ele><time>2026-04-16T09:07:17.829Z</time></trkpt><trkpt lat="45.1073481" lon="9.4978008"><ele>53.857142857142854</ele><time>2026-04-16T09:07:19.829Z</time></trkpt><trkpt lat="45.1073325" lon="9.4976999"><ele>53.285714285714285</ele><time>2026-04-16T09:07:21.83Z</time></trkpt><trkpt lat="45.1072951" lon="9.4976226"><ele>52.71428571428571</ele><time>2026-04-16T09:07:23.831Z</time></trkpt><trkpt lat="45.1072345" lon="9.4975469"><ele>52.142857142857146</ele><time>2026-04-16T09:07:25.831Z</time></trkpt><trkpt lat="45.1071826" lon="9.4974615"><ele>51.57142857142857</ele><time>2026-04-16T09:07:27.83Z</time></trkpt><trkpt lat="45.1071422" lon="9.4973903"><ele>51.0</ele><time>2026-04-16T09:07:29.829Z</time></trkpt><trkpt lat="45.107108" lon="9.4972878"><ele>51.0</ele><time>2026-04-16T09:07:32.829Z</time></trkpt><trkpt lat="45.107092" lon="9.4971757"><ele>51.0</ele><time>2026-04-16T09:07:35.83Z</time></trkpt><trkpt lat="45.1070997" lon="9.4972824"><ele>51.0</ele><time>2026-04-16T09:10:27.83Z</time></trkpt><trkpt lat="45.1071282" lon="9.4973709"><ele>51.0</ele><time>2026-04-16T09:10:30.83Z</time></trkpt><trkpt lat="45.1071669" lon="9.4974588"><ele>51.0</ele><time>2026-04-16T09:10:33.83Z</time></trkpt><trkpt lat="45.1072195" lon="9.4975468"><ele>51.0</ele><time>2026-04-16T09:10:36.83Z</time></trkpt><trkpt lat="45.1072694" lon="9.4976392"><ele>51.0</ele><time>2026-04-16T09:10:38.83Z</time></trkpt><trkpt lat="45.1073197" lon="9.4977463"><ele>51.0</ele><time>2026-04-16T09:10:40.83Z</time></trkpt><trkpt lat="45.10733" lon="9.4978633"><ele>51.0</ele><time>2026-04-16T09:10:42.83Z</time></trkpt><trkpt lat="45.1073245" lon="9.4979973"><ele>51.0</ele><time>2026-04-16T09:10:44.83Z</time></trkpt><trkpt lat="45.1073169" lon="9.4981558"><ele>51.0</ele><time>2026-04-16T09:10:46.83Z</time></trkpt><trkpt lat="45.1073081" lon="9.4983018"><ele>51.166666666666664</ele><time>2026-04-16T09:10:48.83Z</time></trkpt><trkpt lat="45.1073274" lon="9.4984124"><ele>51.33333333333333</ele><time>2026-04-16T09:10:51.83Z</time></trkpt><trkpt lat="45.1073955" lon="9.4984277"><ele>51.5</ele><time>2026-04-16T09:11:14.829Z</time></trkpt><trkpt lat="45.1074291" lon="9.4983498"><ele>51.666666666666664</ele><time>2026-04-16T09:11:16.828Z</time></trkpt><trkpt lat="45.1074538" lon="9.4982454"><ele>51.83333333333333</ele><time>2026-04-16T09:11:18.829Z</time></trkpt><trkpt lat="45.1074845" lon="9.4981149"><ele>52.0</ele><time>2026-04-16T09:11:20.829Z</time></trkpt><trkpt lat="45.1075328" lon="9.4980099"><ele>52.0</ele><time>2026-04-16T09:11:22.829Z</time></trkpt><trkpt lat="45.1076112" lon="9.497959"><ele>52.0</ele><time>2026-04-16T09:11:25.829Z</time></trkpt><trkpt lat="45.1076746" lon="9.4979079"><ele>52.0</ele><time>2026-04-16T09:11:29.83Z</time></trkpt><trkpt lat="45.1077099" lon="9.4977752"><ele>52.0</ele><time>2026-04-16T09:11:32.829Z</time></trkpt><trkpt lat="45.1077505" lon="9.4976291"><ele>52.0</ele><time>2026-04-16T09:11:34.83Z</time></trkpt><trkpt lat="45.107792" lon="9.4974685"><ele>51.99999999999999</ele><time>2026-04-16T09:11:36.828Z</time></trkpt><trkpt lat="45.1078091" lon="9.4973823"><ele>52.0</ele><time>2026-04-16T09:11:37.829Z</time></trkpt><trkpt lat="45.1078558" lon="9.4972274"><ele>52.0</ele><time>2026-04-16T09:11:39.829Z</time></trkpt><trkpt lat="45.1078874" lon="9.4971478"><ele>52.0</ele><time>2026-04-16T09:11:40.828Z</time></trkpt><trkpt lat="45.1079212" lon="9.4970667"><ele>51.99999999999999</ele><time>2026-04-16T09:11:41.829Z</time></trkpt><trkpt lat="45.1079585" lon="9.4969798"><ele>52.0</ele><time>2026-04-16T09:11:42.829Z</time></trkpt><trkpt lat="45.107996" lon="9.4968962"><ele>51.8</ele><time>2026-04-16T09:11:43.829Z</time></trkpt><trkpt lat="45.1080328" lon="9.4968226"><ele>51.6</ele><time>2026-04-16T09:11:44.828Z</time></trkpt><trkpt lat="45.1080919" lon="9.4966717"><ele>51.4</ele><time>2026-04-16T09:11:46.828Z</time></trkpt><trkpt lat="45.1081601" lon="9.4965119"><ele>51.199999999999996</ele><time>2026-04-16T09:11:48.828Z</time></trkpt><trkpt lat="45.1081856" lon="9.4964246"><ele>51.0</ele><time>2026-04-16T09:11:49.828Z</time></trkpt><trkpt lat="45.1082402" lon="9.4962786"><ele>50.8</ele><time>2026-04-16T09:11:51.828Z</time></trkpt><trkpt lat="45.1082883" lon="9.4961675"><ele>50.599999999999994</ele><time>2026-04-16T09:11:53.829Z</time></trkpt><trkpt lat="45.1083362" lon="9.4960641"><ele>50.4</ele><time>2026-04-16T09:11:55.829Z</time></trkpt><trkpt lat="45.1083714" lon="9.495953"><ele>50.2</ele><time>2026-04-16T09:11:57.829Z</time></trkpt><trkpt lat="45.1084197" lon="9.495818"><ele>50.0</ele><time>2026-04-16T09:11:59.829Z</time></trkpt><trkpt lat="45.108477" lon="9.4956829"><ele>50.0</ele><time>2026-04-16T09:12:01.829Z</time></trkpt><trkpt lat="45.1085281" lon="9.4955388"><ele>50.0</ele><time>2026-04-16T09:12:03.83Z</time></trkpt><trkpt lat="45.1085686" lon="9.495418"><ele>50.0</ele><time>2026-04-16T09:12:05.829Z</time></trkpt><trkpt lat="45.1086137" lon="9.4952801"><ele>50.0</ele><time>2026-04-16T09:12:07.829Z</time></trkpt><trkpt lat="45.1086362" lon="9.4951329"><ele>50.0</ele><time>2026-04-16T09:12:09.83Z</time></trkpt><trkpt lat="45.108663" lon="9.4949931"><ele>50.333333333333336</ele><time>2026-04-16T09:12:11.829Z</time></trkpt><trkpt lat="45.1086788" lon="9.4948595"><ele>50.66666666666667</ele><time>2026-04-16T09:12:13.829Z</time></trkpt><trkpt lat="45.1086967" lon="9.4947656"><ele>51.0</ele><time>2026-04-16T09:12:15.828Z</time></trkpt><trkpt lat="45.1086849" lon="9.4946681"><ele>51.33333333333333</ele><time>2026-04-16T09:22:14.825Z</time></trkpt><trkpt lat="45.1086676" lon="9.4945279"><ele>51.666666666666664</ele><time>2026-04-16T09:22:17.826Z</time></trkpt><trkpt lat="45.108676" lon="9.4943859"><ele>52.0</ele><time>2026-04-16T09:22:19.826Z</time></trkpt><trkpt lat="45.1086763" lon="9.4942051"><ele>51.99999999999999</ele><time>2026-04-16T09:22:21.826Z</time></trkpt><trkpt lat="45.1086745" lon="9.494099"><ele>52.0</ele><time>2026-04-16T09:22:22.826Z</time></trkpt><trkpt lat="45.1086712" lon="9.4940035"><ele>52.0</ele><time>2026-04-16T09:22:23.825Z</time></trkpt><trkpt lat="45.1086597" lon="9.4938386"><ele>52.0</ele><time>2026-04-16T09:22:25.825Z</time></trkpt><trkpt lat="45.1086434" lon="9.4937503"><ele>51.99999999999999</ele><time>2026-04-16T09:22:26.826Z</time></trkpt><trkpt lat="45.1086278" lon="9.4936566"><ele>52.0</ele><time>2026-04-16T09:22:27.826Z</time></trkpt><trkpt lat="45.1086068" lon="9.4935613"><ele>52.0</ele><time>2026-04-16T09:22:28.826Z</time></trkpt><trkpt lat="45.1085827" lon="9.4934617"><ele>52.0</ele><time>2026-04-16T09:22:29.826Z</time></trkpt><trkpt lat="45.1085571" lon="9.4933659"><ele>52.0</ele><time>2026-04-16T09:22:30.826Z</time></trkpt><trkpt lat="45.1085299" lon="9.4932777"><ele>52.0</ele><time>2026-04-16T09:22:31.826Z</time></trkpt><trkpt lat="45.1085036" lon="9.4931883"><ele>52.0</ele><time>2026-04-16T09:22:32.825Z</time></trkpt><trkpt lat="45.1084754" lon="9.4931003"><ele>52.0</ele><time>2026-04-16T09:22:33.825Z</time></trkpt><trkpt lat="45.1084444" lon="9.4930093"><ele>52.0</ele><time>2026-04-16T09:22:34.826Z</time></trkpt><trkpt lat="45.1084133" lon="9.4929218"><ele>52.0</ele><time>2026-04-16T09:22:35.825Z</time></trkpt><trkpt lat="45.1083785" lon="9.4928381"><ele>52.0</ele><time>2026-04-16T09:22:36.826Z</time></trkpt><trkpt lat="45.1083442" lon="9.4927524"><ele>52.0</ele><time>2026-04-16T09:22:37.826Z</time></trkpt><trkpt lat="45.1083052" lon="9.4926715"><ele>52.0</ele><time>2026-04-16T09:22:38.825Z</time></trkpt><trkpt lat="45.1082663" lon="9.4925927"><ele>52.0</ele><time>2026-04-16T09:22:39.826Z</time></trkpt><trkpt lat="45.108228" lon="9.4925173"><ele>52.0</ele><time>2026-04-16T09:22:40.826Z</time></trkpt><trkpt lat="45.108185" lon="9.4924462"><ele>52.0</ele><time>2026-04-16T09:22:41.826Z</time></trkpt><trkpt lat="45.108107" lon="9.492317"><ele>52.2</ele><time>2026-04-16T09:22:43.826Z</time></trkpt><trkpt lat="45.1080301" lon="9.4921867"><ele>52.400000000000006</ele><time>2026-04-16T09:22:45.826Z</time></trkpt><trkpt lat="45.1079388" lon="9.4920675"><ele>52.599999999999994</ele><time>2026-04-16T09:22:47.826Z</time></trkpt><trkpt lat="45.1078902" lon="9.4920088"><ele>52.8</ele><time>2026-04-16T09:22:48.826Z</time></trkpt><trkpt lat="45.1078054" lon="9.4919004"><ele>53.0</ele><time>2026-04-16T09:22:50.826Z</time></trkpt><trkpt lat="45.1077106" lon="9.4918093"><ele>53.0</ele><time>2026-04-16T09:22:52.826Z</time></trkpt><trkpt lat="45.1076207" lon="9.4917032"><ele>53.0</ele><time>2026-04-16T09:22:54.826Z</time></trkpt><trkpt lat="45.1075322" lon="9.4915981"><ele>53.0</ele><time>2026-04-16T09:22:56.826Z</time></trkpt><trkpt lat="45.1074513" lon="9.4915232"><ele>53.0</ele><time>2026-04-16T09:22:58.826Z</time></trkpt><trkpt lat="45.1073825" lon="9.4914626"><ele>53.0</ele><time>2026-04-16T09:23:01.826Z</time></trkpt><trkpt lat="45.1073271" lon="9.4914144"><ele>53.0</ele><time>2026-04-16T09:23:03.825Z</time></trkpt><trkpt lat="45.107275" lon="9.4913576"><ele>53.0</ele><time>2026-04-16T09:23:05.825Z</time></trkpt><trkpt lat="45.1072177" lon="9.4913065"><ele>53.0</ele><time>2026-04-16T09:23:07.826Z</time></trkpt><trkpt lat="45.1071607" lon="9.4912339"><ele>53.0</ele><time>2026-04-16T09:23:09.826Z</time></trkpt><trkpt lat="45.1071165" lon="9.4911609"><ele>53.0</ele><time>2026-04-16T09:23:11.825Z</time></trkpt><trkpt lat="45.1070588" lon="9.4911024"><ele>53.0</ele><time>2026-04-16T09:23:13.825Z</time></trkpt><trkpt lat="45.106983" lon="9.4910436"><ele>53.0</ele><time>2026-04-16T09:23:15.826Z</time></trkpt><trkpt lat="45.1068894" lon="9.4909489"><ele>52.4</ele><time>2026-04-16T09:23:17.825Z</time></trkpt><trkpt lat="45.1067974" lon="9.4908553"><ele>51.8</ele><time>2026-04-16T09:23:19.827Z</time></trkpt><trkpt lat="45.1067146" lon="9.4907732"><ele>51.2</ele><time>2026-04-16T09:23:21.827Z</time></trkpt><trkpt lat="45.1066418" lon="9.4906881"><ele>50.6</ele><time>2026-04-16T09:23:23.826Z</time></trkpt><trkpt lat="45.1065584" lon="9.4905925"><ele>50.0</ele><time>2026-04-16T09:23:25.826Z</time></trkpt><trkpt lat="45.1065081" lon="9.4905323"><ele>50.00000000000001</ele><time>2026-04-16T09:23:26.826Z</time></trkpt><trkpt lat="45.1064544" lon="9.4904637"><ele>50.0</ele><time>2026-04-16T09:23:27.825Z</time></trkpt><trkpt lat="45.1064025" lon="9.4903856"><ele>50.0</ele><time>2026-04-16T09:23:28.826Z</time></trkpt><trkpt lat="45.1063451" lon="9.4903031"><ele>50.0</ele><time>2026-04-16T09:23:29.825Z</time></trkpt><trkpt lat="45.1062897" lon="9.4902257"><ele>50.00000000000001</ele><time>2026-04-16T09:23:30.826Z</time></trkpt><trkpt lat="45.1062477" lon="9.4901592"><ele>50.0</ele><time>2026-04-16T09:23:31.825Z</time></trkpt><trkpt lat="45.10619" lon="9.4900674"><ele>50.00000000000001</ele><time>2026-04-16T09:23:33.826Z</time></trkpt><trkpt lat="45.1061493" lon="9.4899958"><ele>50.0</ele><time>2026-04-16T09:23:37.825Z</time></trkpt><trkpt lat="45.1060932" lon="9.489893"><ele>50.0</ele><time>2026-04-16T09:23:43.825Z</time></trkpt><trkpt lat="45.1060523" lon="9.4898071"><ele>50.0</ele><time>2026-04-16T09:23:45.824Z</time></trkpt><trkpt lat="45.1060282" lon="9.4897155"><ele>50.0</ele><time>2026-04-16T09:23:47.825Z</time></trkpt><trkpt lat="45.1060047" lon="9.4896322"><ele>50.00000000000001</ele><time>2026-04-16T09:23:49.824Z</time></trkpt><trkpt lat="45.1059855" lon="9.4895187"><ele>50.0</ele><time>2026-04-16T09:23:52.825Z</time></trkpt><trkpt lat="45.1059673" lon="9.4893931"><ele>50.0</ele><time>2026-04-16T09:23:55.825Z</time></trkpt><trkpt lat="45.1059284" lon="9.4892823"><ele>50.0</ele><time>2026-04-16T09:23:57.824Z</time></trkpt><trkpt lat="45.1058773" lon="9.489197"><ele>50.0</ele><time>2026-04-16T09:23:59.824Z</time></trkpt><trkpt lat="45.1058104" lon="9.4890716"><ele>50.0</ele><time>2026-04-16T09:24:01.824Z</time></trkpt><trkpt lat="45.1057591" lon="9.4889353"><ele>50.0</ele><time>2026-04-16T09:24:03.824Z</time></trkpt><trkpt lat="45.1057183" lon="9.4888005"><ele>50.2</ele><time>2026-04-16T09:24:05.825Z</time></trkpt><trkpt lat="45.1056783" lon="9.4886856"><ele>50.4</ele><time>2026-04-16T09:24:07.825Z</time></trkpt><trkpt lat="45.1056377" lon="9.4885025"><ele>50.599999999999994</ele><time>2026-04-16T09:24:09.825Z</time></trkpt><trkpt lat="45.1056221" lon="9.4883929"><ele>50.8</ele><time>2026-04-16T09:24:10.825Z</time></trkpt><trkpt lat="45.1056059" lon="9.4882755"><ele>51.0</ele><time>2026-04-16T09:24:11.824Z</time></trkpt><trkpt lat="45.1055868" lon="9.4881506"><ele>51.0</ele><time>2026-04-16T09:24:12.825Z</time></trkpt><trkpt lat="45.1055642" lon="9.4880135"><ele>51.0</ele><time>2026-04-16T09:24:13.824Z</time></trkpt><trkpt lat="45.1055429" lon="9.4878748"><ele>51.0</ele><time>2026-04-16T09:24:14.824Z</time></trkpt><trkpt lat="45.1055232" lon="9.4877242"><ele>51.0</ele><time>2026-04-16T09:24:15.825Z</time></trkpt><trkpt lat="45.1055039" lon="9.4875626"><ele>51.0</ele><time>2026-04-16T09:24:16.824Z</time></trkpt><trkpt lat="45.1054784" lon="9.4873941"><ele>51.0</ele><time>2026-04-16T09:24:17.825Z</time></trkpt><trkpt lat="45.1054533" lon="9.4872213"><ele>51.0</ele><time>2026-04-16T09:24:18.825Z</time></trkpt><trkpt lat="45.1054305" lon="9.4870548"><ele>51.0</ele><time>2026-04-16T09:24:19.825Z</time></trkpt><trkpt lat="45.1054048" lon="9.4868927"><ele>51.0</ele><time>2026-04-16T09:24:20.824Z</time></trkpt><trkpt lat="45.1053843" lon="9.4867388"><ele>51.0</ele><time>2026-04-16T09:24:21.824Z</time></trkpt><trkpt lat="45.1053625" lon="9.4865877"><ele>51.0</ele><time>2026-04-16T09:24:22.824Z</time></trkpt><trkpt lat="45.1053368" lon="9.4864482"><ele>51.0</ele><time>2026-04-16T09:24:23.825Z</time></trkpt><trkpt lat="45.1053083" lon="9.4863148"><ele>51.0</ele><time>2026-04-16T09:24:24.824Z</time></trkpt><trkpt lat="45.1052692" lon="9.4861879"><ele>51.0</ele><time>2026-04-16T09:24:25.825Z</time></trkpt><trkpt lat="45.1052214" lon="9.4860678"><ele>51.0</ele><time>2026-04-16T09:24:26.824Z</time></trkpt><trkpt lat="45.1051666" lon="9.4859542"><ele>51.0</ele><time>2026-04-16T09:24:27.824Z</time></trkpt><trkpt lat="45.1050999" lon="9.4858481"><ele>51.0</ele><time>2026-04-16T09:24:28.825Z</time></trkpt><trkpt lat="45.1050252" lon="9.4857502"><ele>51.0</ele><time>2026-04-16T09:24:29.825Z</time></trkpt><trkpt lat="45.1049458" lon="9.4856519"><ele>51.0</ele><time>2026-04-16T09:24:30.825Z</time></trkpt><trkpt lat="45.1048624" lon="9.4855551"><ele>51.599999999999994</ele><time>2026-04-16T09:24:31.824Z</time></trkpt><trkpt lat="45.1047807" lon="9.4854598"><ele>52.2</ele><time>2026-04-16T09:24:32.825Z</time></trkpt><trkpt lat="45.1047008" lon="9.485369"><ele>52.800000000000004</ele><time>2026-04-16T09:24:33.825Z</time></trkpt><trkpt lat="45.1046256" lon="9.4852839"><ele>53.400000000000006</ele><time>2026-04-16T09:24:34.825Z</time></trkpt><trkpt lat="45.1045622" lon="9.4851988"><ele>54.0</ele><time>2026-04-16T09:24:35.824Z</time></trkpt><trkpt lat="45.1045186" lon="9.4851056"><ele>54.333333333333336</ele><time>2026-04-16T09:24:36.824Z</time></trkpt><trkpt lat="45.1044892" lon="9.4850106"><ele>54.66666666666667</ele><time>2026-04-16T09:24:37.825Z</time></trkpt><trkpt lat="45.1044755" lon="9.4849037"><ele>55.0</ele><time>2026-04-16T09:24:38.825Z</time></trkpt><trkpt lat="45.1044696" lon="9.4847785"><ele>55.333333333333336</ele><time>2026-04-16T09:24:39.824Z</time></trkpt><trkpt lat="45.1044655" lon="9.4846336"><ele>55.66666666666667</ele><time>2026-04-16T09:24:40.825Z</time></trkpt><trkpt lat="45.1044612" lon="9.4844805"><ele>56.0</ele><time>2026-04-16T09:24:41.825Z</time></trkpt><trkpt lat="45.104456" lon="9.4843229"><ele>56.0</ele><time>2026-04-16T09:24:42.824Z</time></trkpt><trkpt lat="45.1044525" lon="9.4841528"><ele>56.0</ele><time>2026-04-16T09:24:43.825Z</time></trkpt><trkpt lat="45.1044506" lon="9.4839761"><ele>56.0</ele><time>2026-04-16T09:24:44.825Z</time></trkpt><trkpt lat="45.1044503" lon="9.4837997"><ele>56.0</ele><time>2026-04-16T09:24:45.825Z</time></trkpt><trkpt lat="45.1044505" lon="9.4836192"><ele>56.0</ele><time>2026-04-16T09:24:46.825Z</time></trkpt><trkpt lat="45.104456" lon="9.483441"><ele>56.0</ele><time>2026-04-16T09:24:47.826Z</time></trkpt><trkpt lat="45.1044625" lon="9.4832539"><ele>56.0</ele><time>2026-04-16T09:24:48.825Z</time></trkpt><trkpt lat="45.10447" lon="9.483067"><ele>56.0</ele><time>2026-04-16T09:24:49.825Z</time></trkpt><trkpt lat="45.104479" lon="9.4828736"><ele>55.75</ele><time>2026-04-16T09:24:50.824Z</time></trkpt><trkpt lat="45.1044868" lon="9.4826816"><ele>55.5</ele><time>2026-04-16T09:24:51.825Z</time></trkpt><trkpt lat="45.1044938" lon="9.4824879"><ele>55.25</ele><time>2026-04-16T09:24:52.825Z</time></trkpt><trkpt lat="45.1044975" lon="9.4822927"><ele>55.0</ele><time>2026-04-16T09:24:53.824Z</time></trkpt><trkpt lat="45.1045004" lon="9.4820951"><ele>54.5</ele><time>2026-04-16T09:24:54.825Z</time></trkpt><trkpt lat="45.1044998" lon="9.4818951"><ele>54.0</ele><time>2026-04-16T09:24:55.826Z</time></trkpt><trkpt lat="45.1044982" lon="9.4816944"><ele>53.5</ele><time>2026-04-16T09:24:56.825Z</time></trkpt><trkpt lat="45.1044968" lon="9.4814915"><ele>53.0</ele><time>2026-04-16T09:24:57.825Z</time></trkpt><trkpt lat="45.1044932" lon="9.4812876"><ele>53.75</ele><time>2026-04-16T09:24:58.825Z</time></trkpt><trkpt lat="45.1044915" lon="9.4810795"><ele>54.5</ele><time>2026-04-16T09:24:59.825Z</time></trkpt><trkpt lat="45.1044901" lon="9.4808694"><ele>55.25</ele><time>2026-04-16T09:25:00.824Z</time></trkpt><trkpt lat="45.104486" lon="9.4806608"><ele>56.0</ele><time>2026-04-16T09:25:01.824Z</time></trkpt><trkpt lat="45.1044811" lon="9.4804502"><ele>55.66666666666667</ele><time>2026-04-16T09:25:02.825Z</time></trkpt><trkpt lat="45.1044763" lon="9.4802379"><ele>55.33333333333333</ele><time>2026-04-16T09:25:03.825Z</time></trkpt><trkpt lat="45.1044741" lon="9.4800248"><ele>55.0</ele><time>2026-04-16T09:25:04.824Z</time></trkpt><trkpt lat="45.1044717" lon="9.4798078"><ele>54.666666666666664</ele><time>2026-04-16T09:25:05.825Z</time></trkpt><trkpt lat="45.1044689" lon="9.479585"><ele>54.33333333333333</ele><time>2026-04-16T09:25:06.825Z</time></trkpt><trkpt lat="45.1044655" lon="9.4793633"><ele>54.0</ele><time>2026-04-16T09:25:07.825Z</time></trkpt><trkpt lat="45.1044643" lon="9.4791349"><ele>54.0</ele><time>2026-04-16T09:25:08.824Z</time></trkpt><trkpt lat="45.1044615" lon="9.4789089"><ele>54.0</ele><time>2026-04-16T09:25:09.824Z</time></trkpt><trkpt lat="45.1044583" lon="9.4786799"><ele>54.0</ele><time>2026-04-16T09:25:10.825Z</time></trkpt><trkpt lat="45.1044555" lon="9.47845"><ele>54.0</ele><time>2026-04-16T09:25:11.825Z</time></trkpt><trkpt lat="45.1044522" lon="9.4782213"><ele>54.0</ele><time>2026-04-16T09:25:12.826Z</time></trkpt><trkpt lat="45.1044498" lon="9.4779927"><ele>54.0</ele><time>2026-04-16T09:25:13.825Z</time></trkpt><trkpt lat="45.1044474" lon="9.4777641"><ele>53.0</ele><time>2026-04-16T09:25:14.825Z</time></trkpt><trkpt lat="45.1044433" lon="9.4775332"><ele>52.0</ele><time>2026-04-16T09:25:15.825Z</time></trkpt><trkpt lat="45.1044374" lon="9.4773056"><ele>51.0</ele><time>2026-04-16T09:25:16.824Z</time></trkpt><trkpt lat="45.104432" lon="9.477079"><ele>51.0</ele><time>2026-04-16T09:25:17.825Z</time></trkpt><trkpt lat="45.1044291" lon="9.4768474"><ele>51.0</ele><time>2026-04-16T09:25:18.825Z</time></trkpt><trkpt lat="45.1044249" lon="9.4766124"><ele>51.0</ele><time>2026-04-16T09:25:19.824Z</time></trkpt><trkpt lat="45.1044209" lon="9.4763711"><ele>51.0</ele><time>2026-04-16T09:25:20.824Z</time></trkpt><trkpt lat="45.1044183" lon="9.4761286"><ele>51.0</ele><time>2026-04-16T09:25:21.825Z</time></trkpt><trkpt lat="45.1044165" lon="9.4758852"><ele>51.0</ele><time>2026-04-16T09:25:22.825Z</time></trkpt><trkpt lat="45.1044139" lon="9.4756422"><ele>51.0</ele><time>2026-04-16T09:25:23.825Z</time></trkpt><trkpt lat="45.1044133" lon="9.4753996"><ele>51.0</ele><time>2026-04-16T09:25:24.826Z</time></trkpt><trkpt lat="45.104412" lon="9.4751552"><ele>51.0</ele><time>2026-04-16T09:25:25.825Z</time></trkpt><trkpt lat="45.1044109" lon="9.4749161"><ele>51.0</ele><time>2026-04-16T09:25:26.826Z</time></trkpt><trkpt lat="45.1044073" lon="9.4746752"><ele>51.0</ele><time>2026-04-16T09:25:27.826Z</time></trkpt><trkpt lat="45.1044031" lon="9.4744359"><ele>51.0</ele><time>2026-04-16T09:25:28.825Z</time></trkpt><trkpt lat="45.1044001" lon="9.4742026"><ele>51.0</ele><time>2026-04-16T09:25:29.824Z</time></trkpt><trkpt lat="45.1043971" lon="9.473969"><ele>51.0</ele><time>2026-04-16T09:25:30.825Z</time></trkpt><trkpt lat="45.1043945" lon="9.473735"><ele>51.0</ele><time>2026-04-16T09:25:31.824Z</time></trkpt><trkpt lat="45.1043925" lon="9.4735012"><ele>51.66666666666667</ele><time>2026-04-16T09:25:32.825Z</time></trkpt><trkpt lat="45.1043887" lon="9.473273"><ele>52.333333333333336</ele><time>2026-04-16T09:25:33.825Z</time></trkpt><trkpt lat="45.1043885" lon="9.4730526"><ele>53.0</ele><time>2026-04-16T09:25:34.825Z</time></trkpt><trkpt lat="45.104387" lon="9.4728437"><ele>53.0</ele><time>2026-04-16T09:25:35.825Z</time></trkpt><trkpt lat="45.1043847" lon="9.4726459"><ele>53.0</ele><time>2026-04-16T09:25:36.824Z</time></trkpt><trkpt lat="45.1043819" lon="9.4724571"><ele>53.0</ele><time>2026-04-16T09:25:37.824Z</time></trkpt><trkpt lat="45.1043791" lon="9.4722798"><ele>53.0</ele><time>2026-04-16T09:25:38.824Z</time></trkpt><trkpt lat="45.1043727" lon="9.4721129"><ele>53.0</ele><time>2026-04-16T09:25:39.824Z</time></trkpt><trkpt lat="45.1043656" lon="9.4719567"><ele>53.0</ele><time>2026-04-16T09:25:40.825Z</time></trkpt><trkpt lat="45.1043594" lon="9.4718114"><ele>53.0</ele><time>2026-04-16T09:25:41.824Z</time></trkpt><trkpt lat="45.1043563" lon="9.4716787"><ele>53.0</ele><time>2026-04-16T09:25:42.824Z</time></trkpt><trkpt lat="45.1043515" lon="9.4715634"><ele>53.0</ele><time>2026-04-16T09:25:43.825Z</time></trkpt><trkpt lat="45.1043466" lon="9.4714686"><ele>53.00000000000001</ele><time>2026-04-16T09:25:44.825Z</time></trkpt><trkpt lat="45.1043333" lon="9.4713322"><ele>53.0</ele><time>2026-04-16T09:25:46.826Z</time></trkpt><trkpt lat="45.1043164" lon="9.471217"><ele>53.0</ele><time>2026-04-16T09:25:49.825Z</time></trkpt><trkpt lat="45.1042992" lon="9.4711225"><ele>53.0</ele><time>2026-04-16T09:25:53.825Z</time></trkpt><trkpt lat="45.1043314" lon="9.4710412"><ele>53.00000000000001</ele><time>2026-04-16T09:26:02.825Z</time></trkpt><trkpt lat="45.1043167" lon="9.4709541"><ele>53.0</ele><time>2026-04-16T09:26:05.825Z</time></trkpt><trkpt lat="45.1043069" lon="9.4707774"><ele>53.00000000000001</ele><time>2026-04-16T09:26:08.826Z</time></trkpt><trkpt lat="45.1043016" lon="9.4706769"><ele>53.0</ele><time>2026-04-16T09:26:09.824Z</time></trkpt><trkpt lat="45.104298" lon="9.4705729"><ele>53.0</ele><time>2026-04-16T09:26:10.824Z</time></trkpt><trkpt lat="45.1042962" lon="9.4704591"><ele>53.0</ele><time>2026-04-16T09:26:11.824Z</time></trkpt><trkpt lat="45.1042965" lon="9.470324"><ele>53.00000000000001</ele><time>2026-04-16T09:26:12.825Z</time></trkpt><trkpt lat="45.1042966" lon="9.4701801"><ele>53.0</ele><time>2026-04-16T09:26:13.825Z</time></trkpt><trkpt lat="45.1042937" lon="9.4700198"><ele>53.0</ele><time>2026-04-16T09:26:14.825Z</time></trkpt><trkpt lat="45.1042922" lon="9.4698487"><ele>53.0</ele><time>2026-04-16T09:26:15.825Z</time></trkpt><trkpt lat="45.1042927" lon="9.4696705"><ele>53.0</ele><time>2026-04-16T09:26:16.824Z</time></trkpt><trkpt lat="45.1042918" lon="9.4694907"><ele>53.0</ele><time>2026-04-16T09:26:17.825Z</time></trkpt><trkpt lat="45.1042909" lon="9.4693131"><ele>53.0</ele><time>2026-04-16T09:26:18.825Z</time></trkpt><trkpt lat="45.1042905" lon="9.469133"><ele>53.0</ele><time>2026-04-16T09:26:19.825Z</time></trkpt><trkpt lat="45.1042896" lon="9.468952"><ele>53.0</ele><time>2026-04-16T09:26:20.825Z</time></trkpt><trkpt lat="45.1042871" lon="9.4687727"><ele>53.0</ele><time>2026-04-16T09:26:21.825Z</time></trkpt><trkpt lat="45.1042866" lon="9.4686001"><ele>52.8</ele><time>2026-04-16T09:26:22.824Z</time></trkpt><trkpt lat="45.1042825" lon="9.4684362"><ele>52.599999999999994</ele><time>2026-04-16T09:26:23.825Z</time></trkpt><trkpt lat="45.1042785" lon="9.4682864"><ele>52.400000000000006</ele><time>2026-04-16T09:26:24.825Z</time></trkpt><trkpt lat="45.1042774" lon="9.4681471"><ele>52.2</ele><time>2026-04-16T09:26:25.826Z</time></trkpt><trkpt lat="45.1042782" lon="9.4680222"><ele>52.0</ele><time>2026-04-16T09:26:26.825Z</time></trkpt><trkpt lat="45.104278" lon="9.4679112"><ele>51.99999999999999</ele><time>2026-04-16T09:26:27.824Z</time></trkpt><trkpt lat="45.1042796" lon="9.4678152"><ele>52.0</ele><time>2026-04-16T09:26:28.825Z</time></trkpt><trkpt lat="45.1042799" lon="9.4676617"><ele>52.0</ele><time>2026-04-16T09:26:30.825Z</time></trkpt><trkpt lat="45.1042815" lon="9.4675478"><ele>52.0</ele><time>2026-04-16T09:26:32.824Z</time></trkpt><trkpt lat="45.1042666" lon="9.4674595"><ele>51.99999999999999</ele><time>2026-04-16T09:26:35.824Z</time></trkpt><trkpt lat="45.1042155" lon="9.4675164"><ele>52.0</ele><time>2026-04-16T09:27:42.824Z</time></trkpt><trkpt lat="45.1041984" lon="9.4676385"><ele>52.0</ele><time>2026-04-16T09:27:45.823Z</time></trkpt><trkpt lat="45.1041841" lon="9.4677385"><ele>52.0</ele><time>2026-04-16T09:27:47.824Z</time></trkpt><trkpt lat="45.1041652" lon="9.4678375"><ele>52.0</ele><time>2026-04-16T09:27:49.824Z</time></trkpt><trkpt lat="45.1041521" lon="9.4679512"><ele>52.0</ele><time>2026-04-16T09:27:51.824Z</time></trkpt><trkpt lat="45.1041354" lon="9.4680521"><ele>52.0</ele><time>2026-04-16T09:27:53.825Z</time></trkpt><trkpt lat="45.1041211" lon="9.4681391"><ele>52.0</ele><time>2026-04-16T09:27:55.735Z</time></trkpt><trkpt lat="45.1040989" lon="9.4682233"><ele>52.0</ele><time>2026-04-16T09:27:58.824Z</time></trkpt><trkpt lat="45.1040766" lon="9.468315"><ele>51.99999999999999</ele><time>2026-04-16T09:28:03.824Z</time></trkpt><trkpt lat="45.1040481" lon="9.4684038"><ele>52.0</ele><time>2026-04-16T09:28:07.824Z</time></trkpt><trkpt lat="45.1040426" lon="9.4685214"><ele>52.0</ele><time>2026-04-16T09:28:11.824Z</time></trkpt><trkpt lat="45.1040386" lon="9.4686251"><ele>52.0</ele><time>2026-04-16T09:28:14.824Z</time></trkpt><trkpt lat="45.1040332" lon="9.4687506"><ele>51.99999999999999</ele><time>2026-04-16T09:28:17.824Z</time></trkpt><trkpt lat="45.1040373" lon="9.4688546"><ele>52.0</ele><time>2026-04-16T09:28:20.824Z</time></trkpt><trkpt lat="45.104036" lon="9.4689643"><ele>52.285714285714285</ele><time>2026-04-16T09:28:24.824Z</time></trkpt><trkpt lat="45.1040178" lon="9.4690598"><ele>52.57142857142858</ele><time>2026-04-16T09:28:27.824Z</time></trkpt><trkpt lat="45.1039883" lon="9.4691414"><ele>52.85714285714286</ele><time>2026-04-16T09:28:30.824Z</time></trkpt><trkpt lat="45.103928" lon="9.4692298"><ele>53.14285714285714</ele><time>2026-04-16T09:28:33.823Z</time></trkpt><trkpt lat="45.1038723" lon="9.4693336"><ele>53.42857142857143</ele><time>2026-04-16T09:28:36.823Z</time></trkpt><trkpt lat="45.1038187" lon="9.4693912"><ele>53.714285714285715</ele><time>2026-04-16T09:28:38.823Z</time></trkpt><trkpt lat="45.1037583" lon="9.4694327"><ele>54.0</ele><time>2026-04-16T09:28:40.824Z</time></trkpt><trkpt lat="45.1036864" lon="9.4694876"><ele>54.0</ele><time>2026-04-16T09:28:42.824Z</time></trkpt><trkpt lat="45.1036049" lon="9.4695348"><ele>54.00000000000001</ele><time>2026-04-16T09:28:44.824Z</time></trkpt><trkpt lat="45.1035126" lon="9.4695816"><ele>54.00000000000001</ele><time>2026-04-16T09:28:46.824Z</time></trkpt><trkpt lat="45.1034047" lon="9.4696368"><ele>54.0</ele><time>2026-04-16T09:28:48.823Z</time></trkpt><trkpt lat="45.1033075" lon="9.4696719"><ele>54.0</ele><time>2026-04-16T09:28:50.824Z</time></trkpt><trkpt lat="45.1031845" lon="9.4697198"><ele>53.833333333333336</ele><time>2026-04-16T09:28:52.824Z</time></trkpt><trkpt lat="45.1031222" lon="9.4697512"><ele>53.66666666666667</ele><time>2026-04-16T09:28:53.823Z</time></trkpt><trkpt lat="45.1030125" lon="9.4698089"><ele>53.5</ele><time>2026-04-16T09:28:55.824Z</time></trkpt><trkpt lat="45.1029496" lon="9.4698394"><ele>53.333333333333336</ele><time>2026-04-16T09:28:56.823Z</time></trkpt><trkpt lat="45.1028797" lon="9.4698737"><ele>53.16666666666667</ele><time>2026-04-16T09:28:57.824Z</time></trkpt><trkpt lat="45.1028152" lon="9.4699057"><ele>53.0</ele><time>2026-04-16T09:28:58.823Z</time></trkpt><trkpt lat="45.102753" lon="9.4699343"><ele>53.0</ele><time>2026-04-16T09:28:59.824Z</time></trkpt><trkpt lat="45.102641" lon="9.4699822"><ele>53.0</ele><time>2026-04-16T09:29:01.825Z</time></trkpt><trkpt lat="45.1025459" lon="9.4700243"><ele>53.0</ele><time>2026-04-16T09:29:03.823Z</time></trkpt><trkpt lat="45.1024723" lon="9.4700629"><ele>53.0</ele><time>2026-04-16T09:29:05.823Z</time></trkpt><trkpt lat="45.1023745" lon="9.4701072"><ele>53.0</ele><time>2026-04-16T09:29:07.824Z</time></trkpt><trkpt lat="45.1023057" lon="9.4701399"><ele>53.00000000000001</ele><time>2026-04-16T09:29:08.824Z</time></trkpt><trkpt lat="45.102232" lon="9.4701769"><ele>53.0</ele><time>2026-04-16T09:29:09.823Z</time></trkpt><trkpt lat="45.1021449" lon="9.4702195"><ele>53.0</ele><time>2026-04-16T09:29:10.823Z</time></trkpt><trkpt lat="45.1020589" lon="9.4702614"><ele>53.0</ele><time>2026-04-16T09:29:11.824Z</time></trkpt><trkpt lat="45.1019797" lon="9.4702979"><ele>53.00000000000001</ele><time>2026-04-16T09:29:12.823Z</time></trkpt><trkpt lat="45.1019085" lon="9.4703328"><ele>53.0</ele><time>2026-04-16T09:29:13.823Z</time></trkpt><trkpt lat="45.1018401" lon="9.470363"><ele>53.00000000000001</ele><time>2026-04-16T09:29:14.823Z</time></trkpt><trkpt lat="45.101775" lon="9.4703908"><ele>53.0</ele><time>2026-04-16T09:29:15.824Z</time></trkpt><trkpt lat="45.1016602" lon="9.4704406"><ele>53.0</ele><time>2026-04-16T09:29:17.823Z</time></trkpt><trkpt lat="45.1015659" lon="9.4704855"><ele>53.0</ele><time>2026-04-16T09:29:19.824Z</time></trkpt><trkpt lat="45.1014904" lon="9.4705189"><ele>53.00000000000001</ele><time>2026-04-16T09:29:21.823Z</time></trkpt><trkpt lat="45.1014203" lon="9.4705443"><ele>53.0</ele><time>2026-04-16T09:29:23.825Z</time></trkpt><trkpt lat="45.1013302" lon="9.4705693"><ele>52.50000000000001</ele><time>2026-04-16T09:29:26.823Z</time></trkpt><trkpt lat="45.101265" lon="9.470628"><ele>52.0</ele><time>2026-04-16T09:29:28.823Z</time></trkpt><trkpt lat="45.1011792" lon="9.470672"><ele>51.5</ele><time>2026-04-16T09:29:30.824Z</time></trkpt><trkpt lat="45.1010912" lon="9.4707108"><ele>51.0</ele><time>2026-04-16T09:29:32.824Z</time></trkpt><trkpt lat="45.1010158" lon="9.4707441"><ele>50.50000000000001</ele><time>2026-04-16T09:29:34.825Z</time></trkpt><trkpt lat="45.1009372" lon="9.4707804"><ele>50.0</ele><time>2026-04-16T09:29:36.824Z</time></trkpt><trkpt lat="45.1008539" lon="9.470818"><ele>50.00000000000001</ele><time>2026-04-16T09:29:38.824Z</time></trkpt><trkpt lat="45.1007725" lon="9.4708571"><ele>50.0</ele><time>2026-04-16T09:29:40.824Z</time></trkpt><trkpt lat="45.1007043" lon="9.4708908"><ele>50.0</ele><time>2026-04-16T09:29:42.824Z</time></trkpt><trkpt lat="45.1006376" lon="9.4709236"><ele>50.0</ele><time>2026-04-16T09:29:44.823Z</time></trkpt><trkpt lat="45.100575" lon="9.470954"><ele>50.0</ele><time>2026-04-16T09:29:46.823Z</time></trkpt><trkpt lat="45.1005008" lon="9.470989"><ele>50.00000000000001</ele><time>2026-04-16T09:29:49.824Z</time></trkpt><trkpt lat="45.1004285" lon="9.4710153"><ele>50.0</ele><time>2026-04-16T09:29:53.824Z</time></trkpt><trkpt lat="45.1003814" lon="9.4709464"><ele>50.00000000000001</ele><time>2026-04-16T09:29:56.823Z</time></trkpt><trkpt lat="45.1003788" lon="9.4708452"><ele>50.0</ele><time>2026-04-16T09:29:58.824Z</time></trkpt><trkpt lat="45.1003874" lon="9.4707387"><ele>50.0</ele><time>2026-04-16T09:30:00.823Z</time></trkpt><trkpt lat="45.1003936" lon="9.4706172"><ele>50.0</ele><time>2026-04-16T09:30:02.824Z</time></trkpt><trkpt lat="45.1003937" lon="9.4704969"><ele>50.00000000000001</ele><time>2026-04-16T09:30:04.824Z</time></trkpt><trkpt lat="45.1003891" lon="9.4703878"><ele>50.0</ele><time>2026-04-16T09:30:06.823Z</time></trkpt><trkpt lat="45.1003767" lon="9.4702568"><ele>50.28571428571429</ele><time>2026-04-16T09:30:09.823Z</time></trkpt><trkpt lat="45.1003682" lon="9.4701605"><ele>50.57142857142857</ele><time>2026-04-16T09:30:11.824Z</time></trkpt><trkpt lat="45.1003511" lon="9.4700408"><ele>50.85714285714286</ele><time>2026-04-16T09:30:14.823Z</time></trkpt><trkpt lat="45.1003363" lon="9.469948"><ele>51.142857142857146</ele><time>2026-04-16T09:30:17.824Z</time></trkpt><trkpt lat="45.1003176" lon="9.4698282"><ele>51.42857142857143</ele><time>2026-04-16T09:30:21.823Z</time></trkpt><trkpt lat="45.1003044" lon="9.4697305"><ele>51.714285714285715</ele><time>2026-04-16T09:30:24.824Z</time></trkpt><trkpt lat="45.1002863" lon="9.4696338"><ele>52.0</ele><time>2026-04-16T09:30:28.824Z</time></trkpt><trkpt lat="45.1002711" lon="9.469527"><ele>52.49999999999999</ele><time>2026-04-16T09:30:31.824Z</time></trkpt><trkpt lat="45.1002513" lon="9.4694141"><ele>53.0</ele><time>2026-04-16T09:30:34.823Z</time></trkpt><trkpt lat="45.1002311" lon="9.4693062"><ele>53.5</ele><time>2026-04-16T09:30:38.825Z</time></trkpt><trkpt lat="45.1002159" lon="9.4692105"><ele>54.0</ele><time>2026-04-16T09:30:41.824Z</time></trkpt><trkpt lat="45.1001939" lon="9.469121"><ele>54.49999999999999</ele><time>2026-04-16T09:30:44.824Z</time></trkpt><trkpt lat="45.1001726" lon="9.4689989"><ele>55.0</ele><time>2026-04-16T09:30:47.823Z</time></trkpt><trkpt lat="45.1001476" lon="9.468897"><ele>54.99999999999999</ele><time>2026-04-16T09:30:50.824Z</time></trkpt><trkpt lat="45.1001282" lon="9.4687828"><ele>55.0</ele><time>2026-04-16T09:30:53.824Z</time></trkpt><trkpt lat="45.1001034" lon="9.4686917"><ele>55.0</ele><time>2026-04-16T09:30:55.824Z</time></trkpt><trkpt lat="45.1000874" lon="9.4686023"><ele>55.0</ele><time>2026-04-16T09:30:57.823Z</time></trkpt><trkpt lat="45.1000487" lon="9.4684739"><ele>54.99999999999999</ele><time>2026-04-16T09:31:00.824Z</time></trkpt><trkpt lat="45.1000203" lon="9.4683629"><ele>55.0</ele><time>2026-04-16T09:31:02.824Z</time></trkpt><trkpt lat="45.09999" lon="9.4682641"><ele>54.99999999999999</ele><time>2026-04-16T09:31:04.823Z</time></trkpt><trkpt lat="45.0999575" lon="9.4681717"><ele>55.0</ele><time>2026-04-16T09:31:06.823Z</time></trkpt><trkpt lat="45.0999308" lon="9.46809"><ele>55.0</ele><time>2026-04-16T09:31:08.823Z</time></trkpt><trkpt lat="45.0998939" lon="9.4679701"><ele>55.0</ele><time>2026-04-16T09:31:11.824Z</time></trkpt><trkpt lat="45.0998662" lon="9.4678812"><ele>55.0</ele><time>2026-04-16T09:31:13.824Z</time></trkpt><trkpt lat="45.0998417" lon="9.4677947"><ele>54.99999999999999</ele><time>2026-04-16T09:31:15.824Z</time></trkpt><trkpt lat="45.0998168" lon="9.4677015"><ele>55.0</ele><time>2026-04-16T09:31:17.823Z</time></trkpt><trkpt lat="45.0997882" lon="9.4676031"><ele>55.166666666666664</ele><time>2026-04-16T09:31:19.822Z</time></trkpt><trkpt lat="45.0997539" lon="9.4674826"><ele>55.33333333333333</ele><time>2026-04-16T09:31:22.822Z</time></trkpt><trkpt lat="45.0997282" lon="9.4673876"><ele>55.5</ele><time>2026-04-16T09:31:25.823Z</time></trkpt><trkpt lat="45.099691" lon="9.4672817"><ele>55.66666666666667</ele><time>2026-04-16T09:31:29.822Z</time></trkpt><trkpt lat="45.0996652" lon="9.4671898"><ele>55.833333333333336</ele><time>2026-04-16T09:31:32.823Z</time></trkpt><trkpt lat="45.0996378" lon="9.4670711"><ele>56.0</ele><time>2026-04-16T09:31:36.823Z</time></trkpt><trkpt lat="45.0996107" lon="9.4669759"><ele>56.00000000000001</ele><time>2026-04-16T09:31:39.823Z</time></trkpt><trkpt lat="45.0995809" lon="9.4668618"><ele>56.0</ele><time>2026-04-16T09:31:43.823Z</time></trkpt><trkpt lat="45.0995539" lon="9.4667764"><ele>56.0</ele><time>2026-04-16T09:31:46.822Z</time></trkpt><trkpt lat="45.0995285" lon="9.4666791"><ele>56.0</ele><time>2026-04-16T09:31:50.823Z</time></trkpt><trkpt lat="45.0994998" lon="9.4665834"><ele>56.00000000000001</ele><time>2026-04-16T09:31:53.823Z</time></trkpt><trkpt lat="45.0994791" lon="9.4664798"><ele>56.0</ele><time>2026-04-16T09:31:56.822Z</time></trkpt><trkpt lat="45.0994405" lon="9.4663826"><ele>56.00000000000001</ele><time>2026-04-16T09:31:59.822Z</time></trkpt><trkpt lat="45.0994171" lon="9.4662812"><ele>56.0</ele><time>2026-04-16T09:32:10.823Z</time></trkpt><trkpt lat="45.0993861" lon="9.4661907"><ele>56.0</ele><time>2026-04-16T09:32:14.823Z</time></trkpt><trkpt lat="45.0993545" lon="9.4660887"><ele>56.0</ele><time>2026-04-16T09:32:17.822Z</time></trkpt><trkpt lat="45.0993276" lon="9.4660037"><ele>56.00000000000001</ele><time>2026-04-16T09:32:20.824Z</time></trkpt><trkpt lat="45.0992995" lon="9.4658959"><ele>56.0</ele><time>2026-04-16T09:32:24.823Z</time></trkpt><trkpt lat="45.099271" lon="9.4657921"><ele>55.50000000000001</ele><time>2026-04-16T09:32:27.824Z</time></trkpt><trkpt lat="45.0992456" lon="9.4657018"><ele>55.0</ele><time>2026-04-16T09:32:30.823Z</time></trkpt><trkpt lat="45.0992179" lon="9.4655964"><ele>54.5</ele><time>2026-04-16T09:32:33.823Z</time></trkpt><trkpt lat="45.0991814" lon="9.465485"><ele>54.0</ele><time>2026-04-16T09:32:36.823Z</time></trkpt><trkpt lat="45.0991549" lon="9.4653806"><ele>53.50000000000001</ele><time>2026-04-16T09:32:39.824Z</time></trkpt><trkpt lat="45.0991173" lon="9.4652685"><ele>53.0</ele><time>2026-04-16T09:32:42.823Z</time></trkpt><trkpt lat="45.0990771" lon="9.4651595"><ele>53.0</ele><time>2026-04-16T09:32:45.823Z</time></trkpt><trkpt lat="45.0990403" lon="9.4650704"><ele>53.0</ele><time>2026-04-16T09:32:48.822Z</time></trkpt><trkpt lat="45.0990012" lon="9.4649773"><ele>53.0</ele><time>2026-04-16T09:32:51.823Z</time></trkpt><trkpt lat="45.0989751" lon="9.4648838"><ele>53.0</ele><time>2026-04-16T09:32:53.823Z</time></trkpt><trkpt lat="45.0989542" lon="9.4647971"><ele>53.0</ele><time>2026-04-16T09:32:55.823Z</time></trkpt><trkpt lat="45.0989408" lon="9.4646918"><ele>53.0</ele><time>2026-04-16T09:32:58.822Z</time></trkpt><trkpt lat="45.0989387" lon="9.4645854"><ele>53.0</ele><time>2026-04-16T09:33:01.822Z</time></trkpt><trkpt lat="45.098932" lon="9.4644767"><ele>53.00000000000001</ele><time>2026-04-16T09:33:04.823Z</time></trkpt><trkpt lat="45.0989231" lon="9.4643735"><ele>53.0</ele><time>2026-04-16T09:33:07.823Z</time></trkpt><trkpt lat="45.098919" lon="9.464278"><ele>53.0</ele><time>2026-04-16T09:33:10.823Z</time></trkpt><trkpt lat="45.0989192" lon="9.4641443"><ele>53.0</ele><time>2026-04-16T09:33:13.822Z</time></trkpt><trkpt lat="45.0989154" lon="9.4640329"><ele>53.00000000000001</ele><time>2026-04-16T09:33:15.823Z</time></trkpt><trkpt lat="45.0989106" lon="9.4639153"><ele>53.0</ele><time>2026-04-16T09:33:17.822Z</time></trkpt><trkpt lat="45.0989044" lon="9.4637761"><ele>53.599999999999994</ele><time>2026-04-16T09:33:19.822Z</time></trkpt><trkpt lat="45.098898" lon="9.4636217"><ele>54.199999999999996</ele><time>2026-04-16T09:33:21.822Z</time></trkpt><trkpt lat="45.0988849" lon="9.4634882"><ele>54.8</ele><time>2026-04-16T09:33:23.822Z</time></trkpt><trkpt lat="45.098867" lon="9.4633645"><ele>55.4</ele><time>2026-04-16T09:33:25.822Z</time></trkpt><trkpt lat="45.0988469" lon="9.4632353"><ele>56.0</ele><time>2026-04-16T09:33:27.823Z</time></trkpt><trkpt lat="45.0988227" lon="9.4631038"><ele>56.00000000000001</ele><time>2026-04-16T09:33:29.823Z</time></trkpt><trkpt lat="45.0988007" lon="9.4629856"><ele>56.0</ele><time>2026-04-16T09:33:31.823Z</time></trkpt><trkpt lat="45.0987827" lon="9.4628585"><ele>56.0</ele><time>2026-04-16T09:33:33.823Z</time></trkpt><trkpt lat="45.0987579" lon="9.4627333"><ele>56.0</ele><time>2026-04-16T09:33:35.823Z</time></trkpt><trkpt lat="45.0987331" lon="9.4626144"><ele>56.00000000000001</ele><time>2026-04-16T09:33:37.823Z</time></trkpt><trkpt lat="45.0987106" lon="9.4625044"><ele>56.0</ele><time>2026-04-16T09:33:39.823Z</time></trkpt><trkpt lat="45.0986882" lon="9.4623813"><ele>55.8</ele><time>2026-04-16T09:33:41.822Z</time></trkpt><trkpt lat="45.0986747" lon="9.4622616"><ele>55.599999999999994</ele><time>2026-04-16T09:33:43.824Z</time></trkpt><trkpt lat="45.0986562" lon="9.4621385"><ele>55.4</ele><time>2026-04-16T09:33:45.823Z</time></trkpt><trkpt lat="45.0986338" lon="9.4620178"><ele>55.2</ele><time>2026-04-16T09:33:47.823Z</time></trkpt><trkpt lat="45.0986095" lon="9.4618864"><ele>55.0</ele><time>2026-04-16T09:33:49.822Z</time></trkpt><trkpt lat="45.0985804" lon="9.4617345"><ele>54.2</ele><time>2026-04-16T09:33:51.823Z</time></trkpt><trkpt lat="45.0985483" lon="9.4615817"><ele>53.4</ele><time>2026-04-16T09:33:53.822Z</time></trkpt><trkpt lat="45.098516" lon="9.4614458"><ele>52.599999999999994</ele><time>2026-04-16T09:33:55.823Z</time></trkpt><trkpt lat="45.0984867" lon="9.4613247"><ele>51.8</ele><time>2026-04-16T09:33:57.823Z</time></trkpt><trkpt lat="45.0984594" lon="9.4612105"><ele>51.0</ele><time>2026-04-16T09:33:59.824Z</time></trkpt><trkpt lat="45.0984248" lon="9.4610856"><ele>50.8</ele><time>2026-04-16T09:34:01.822Z</time></trkpt><trkpt lat="45.098374" lon="9.4609393"><ele>50.599999999999994</ele><time>2026-04-16T09:34:03.824Z</time></trkpt><trkpt lat="45.0983267" lon="9.4607957"><ele>50.4</ele><time>2026-04-16T09:34:05.823Z</time></trkpt><trkpt lat="45.0982828" lon="9.4606602"><ele>50.2</ele><time>2026-04-16T09:34:07.822Z</time></trkpt><trkpt lat="45.098243" lon="9.4605369"><ele>50.0</ele><time>2026-04-16T09:34:09.822Z</time></trkpt><trkpt lat="45.0982074" lon="9.4604246"><ele>50.8</ele><time>2026-04-16T09:34:11.822Z</time></trkpt><trkpt lat="45.0981677" lon="9.4602945"><ele>51.6</ele><time>2026-04-16T09:34:13.822Z</time></trkpt><trkpt lat="45.0981346" lon="9.4601666"><ele>52.400000000000006</ele><time>2026-04-16T09:34:15.822Z</time></trkpt><trkpt lat="45.0981013" lon="9.4600377"><ele>53.2</ele><time>2026-04-16T09:34:17.824Z</time></trkpt><trkpt lat="45.0980693" lon="9.4599024"><ele>54.0</ele><time>2026-04-16T09:34:19.823Z</time></trkpt><trkpt lat="45.0980523" lon="9.4597711"><ele>54.0</ele><time>2026-04-16T09:34:21.823Z</time></trkpt><trkpt lat="45.0980373" lon="9.4596409"><ele>54.0</ele><time>2026-04-16T09:34:23.823Z</time></trkpt><trkpt lat="45.0980128" lon="9.4595178"><ele>54.0</ele><time>2026-04-16T09:34:25.823Z</time></trkpt><trkpt lat="45.0979733" lon="9.4593977"><ele>54.0</ele><time>2026-04-16T09:34:27.823Z</time></trkpt><trkpt lat="45.097933" lon="9.4592876"><ele>54.0</ele><time>2026-04-16T09:34:29.824Z</time></trkpt><trkpt lat="45.0978966" lon="9.459182"><ele>54.0</ele><time>2026-04-16T09:34:31.822Z</time></trkpt><trkpt lat="45.0978584" lon="9.4590718"><ele>53.6</ele><time>2026-04-16T09:34:33.823Z</time></trkpt><trkpt lat="45.0978126" lon="9.4589407"><ele>53.2</ele><time>2026-04-16T09:34:35.822Z</time></trkpt><trkpt lat="45.0977693" lon="9.4588059"><ele>52.800000000000004</ele><time>2026-04-16T09:34:37.822Z</time></trkpt><trkpt lat="45.0977343" lon="9.4586705"><ele>52.400000000000006</ele><time>2026-04-16T09:34:39.823Z</time></trkpt><trkpt lat="45.0976892" lon="9.4585534"><ele>52.0</ele><time>2026-04-16T09:34:41.823Z</time></trkpt><trkpt lat="45.0976434" lon="9.4584303"><ele>51.99999999999999</ele><time>2026-04-16T09:34:43.824Z</time></trkpt><trkpt lat="45.0976122" lon="9.4583185"><ele>52.0</ele><time>2026-04-16T09:34:45.822Z</time></trkpt><trkpt lat="45.0975952" lon="9.4582119"><ele>52.0</ele><time>2026-04-16T09:34:47.823Z</time></trkpt><trkpt lat="45.0975771" lon="9.4581019"><ele>52.0</ele><time>2026-04-16T09:34:49.823Z</time></trkpt><trkpt lat="45.0975453" lon="9.45798"><ele>51.99999999999999</ele><time>2026-04-16T09:34:51.824Z</time></trkpt><trkpt lat="45.0974984" lon="9.4578605"><ele>52.0</ele><time>2026-04-16T09:34:53.823Z</time></trkpt><trkpt lat="45.0974467" lon="9.4577479"><ele>52.400000000000006</ele><time>2026-04-16T09:34:55.823Z</time></trkpt><trkpt lat="45.0973883" lon="9.4576398"><ele>52.800000000000004</ele><time>2026-04-16T09:34:57.822Z</time></trkpt><trkpt lat="45.0973263" lon="9.4575283"><ele>53.2</ele><time>2026-04-16T09:34:59.822Z</time></trkpt><trkpt lat="45.0972742" lon="9.4574213"><ele>53.6</ele><time>2026-04-16T09:35:01.823Z</time></trkpt><trkpt lat="45.0972195" lon="9.4572971"><ele>54.0</ele><time>2026-04-16T09:35:03.823Z</time></trkpt><trkpt lat="45.097166" lon="9.4571733"><ele>54.400000000000006</ele><time>2026-04-16T09:35:05.823Z</time></trkpt><trkpt lat="45.0971138" lon="9.4570583"><ele>54.800000000000004</ele><time>2026-04-16T09:35:07.823Z</time></trkpt><trkpt lat="45.0970669" lon="9.4569584"><ele>55.199999999999996</ele><time>2026-04-16T09:35:09.823Z</time></trkpt><trkpt lat="45.0970203" lon="9.456837"><ele>55.599999999999994</ele><time>2026-04-16T09:35:11.823Z</time></trkpt><trkpt lat="45.0969805" lon="9.4567286"><ele>56.0</ele><time>2026-04-16T09:35:13.822Z</time></trkpt><trkpt lat="45.0969462" lon="9.4565986"><ele>56.0</ele><time>2026-04-16T09:35:15.823Z</time></trkpt><trkpt lat="45.0969157" lon="9.4564605"><ele>55.99999999999999</ele><time>2026-04-16T09:35:17.822Z</time></trkpt><trkpt lat="45.096893" lon="9.4563149"><ele>55.99999999999999</ele><time>2026-04-16T09:35:19.822Z</time></trkpt><trkpt lat="45.0968777" lon="9.4561821"><ele>56.0</ele><time>2026-04-16T09:35:21.823Z</time></trkpt><trkpt lat="45.0968543" lon="9.4560492"><ele>56.0</ele><time>2026-04-16T09:35:23.823Z</time></trkpt><trkpt lat="45.0968318" lon="9.4559047"><ele>56.00000000000001</ele><time>2026-04-16T09:35:25.822Z</time></trkpt><trkpt lat="45.0968116" lon="9.4557669"><ele>56.0</ele><time>2026-04-16T09:35:27.823Z</time></trkpt><trkpt lat="45.09679" lon="9.4556022"><ele>56.0</ele><time>2026-04-16T09:35:29.824Z</time></trkpt><trkpt lat="45.0967725" lon="9.4555052"><ele>56.0</ele><time>2026-04-16T09:35:30.822Z</time></trkpt><trkpt lat="45.0967539" lon="9.455415"><ele>56.00000000000001</ele><time>2026-04-16T09:35:31.821Z</time></trkpt><trkpt lat="45.0967357" lon="9.455324"><ele>56.0</ele><time>2026-04-16T09:35:32.822Z</time></trkpt><trkpt lat="45.0967221" lon="9.4552288"><ele>55.714285714285715</ele><time>2026-04-16T09:35:33.822Z</time></trkpt><trkpt lat="45.0967086" lon="9.4551317"><ele>55.42857142857143</ele><time>2026-04-16T09:35:34.822Z</time></trkpt><trkpt lat="45.0966941" lon="9.4550204"><ele>55.14285714285714</ele><time>2026-04-16T09:35:35.822Z</time></trkpt><trkpt lat="45.096681" lon="9.4549158"><ele>54.85714285714286</ele><time>2026-04-16T09:35:36.822Z</time></trkpt><trkpt lat="45.0966671" lon="9.4548178"><ele>54.57142857142857</ele><time>2026-04-16T09:35:37.822Z</time></trkpt><trkpt lat="45.096653" lon="9.454728"><ele>54.285714285714285</ele><time>2026-04-16T09:35:38.822Z</time></trkpt><trkpt lat="45.0966409" lon="9.4546352"><ele>54.0</ele><time>2026-04-16T09:35:39.823Z</time></trkpt><trkpt lat="45.0966293" lon="9.4545411"><ele>53.333333333333336</ele><time>2026-04-16T09:35:40.822Z</time></trkpt><trkpt lat="45.0966065" lon="9.454366"><ele>52.66666666666667</ele><time>2026-04-16T09:35:42.821Z</time></trkpt><trkpt lat="45.0965967" lon="9.4542688"><ele>52.0</ele><time>2026-04-16T09:35:43.822Z</time></trkpt><trkpt lat="45.0965856" lon="9.4541623"><ele>51.333333333333336</ele><time>2026-04-16T09:35:44.822Z</time></trkpt><trkpt lat="45.0965747" lon="9.4540501"><ele>50.66666666666667</ele><time>2026-04-16T09:35:45.821Z</time></trkpt><trkpt lat="45.0965642" lon="9.4539369"><ele>50.0</ele><time>2026-04-16T09:35:46.822Z</time></trkpt><trkpt lat="45.0965536" lon="9.4538234"><ele>49.333333333333336</ele><time>2026-04-16T09:35:47.821Z</time></trkpt><trkpt lat="45.0965428" lon="9.4537115"><ele>48.66666666666667</ele><time>2026-04-16T09:35:48.822Z</time></trkpt><trkpt lat="45.0965325" lon="9.4535986"><ele>48.0</ele><time>2026-04-16T09:35:49.821Z</time></trkpt><trkpt lat="45.0965215" lon="9.4534767"><ele>47.333333333333336</ele><time>2026-04-16T09:35:50.821Z</time></trkpt><trkpt lat="45.0965078" lon="9.4533495"><ele>46.66666666666667</ele><time>2026-04-16T09:35:51.822Z</time></trkpt><trkpt lat="45.0964939" lon="9.453218"><ele>46.0</ele><time>2026-04-16T09:35:52.822Z</time></trkpt><trkpt lat="45.0964837" lon="9.4530831"><ele>46.0</ele><time>2026-04-16T09:35:53.823Z</time></trkpt><trkpt lat="45.0964691" lon="9.4529555"><ele>46.0</ele><time>2026-04-16T09:35:54.822Z</time></trkpt><trkpt lat="45.0964559" lon="9.4528367"><ele>46.0</ele><time>2026-04-16T09:35:55.822Z</time></trkpt><trkpt lat="45.0964457" lon="9.452716"><ele>46.0</ele><time>2026-04-16T09:35:56.821Z</time></trkpt><trkpt lat="45.0964317" lon="9.452592"><ele>46.0</ele><time>2026-04-16T09:35:57.822Z</time></trkpt><trkpt lat="45.0964195" lon="9.4524662"><ele>46.0</ele><time>2026-04-16T09:35:58.822Z</time></trkpt><trkpt lat="45.0964069" lon="9.4523422"><ele>46.0</ele><time>2026-04-16T09:35:59.821Z</time></trkpt><trkpt lat="45.0963953" lon="9.4522232"><ele>46.0</ele><time>2026-04-16T09:36:00.821Z</time></trkpt><trkpt lat="45.0963808" lon="9.4521094"><ele>46.0</ele><time>2026-04-16T09:36:01.822Z</time></trkpt><trkpt lat="45.096368" lon="9.4520025"><ele>46.0</ele><time>2026-04-16T09:36:02.822Z</time></trkpt><trkpt lat="45.0963594" lon="9.4518956"><ele>46.0</ele><time>2026-04-16T09:36:03.822Z</time></trkpt><trkpt lat="45.0963496" lon="9.4517933"><ele>46.0</ele><time>2026-04-16T09:36:04.822Z</time></trkpt><trkpt lat="45.0963433" lon="9.4516991"><ele>46.599999999999994</ele><time>2026-04-16T09:36:05.822Z</time></trkpt><trkpt lat="45.0963289" lon="9.4515317"><ele>47.2</ele><time>2026-04-16T09:36:07.822Z</time></trkpt><trkpt lat="45.0963149" lon="9.451362"><ele>47.8</ele><time>2026-04-16T09:36:09.822Z</time></trkpt><trkpt lat="45.0963056" lon="9.451213"><ele>48.400000000000006</ele><time>2026-04-16T09:36:11.821Z</time></trkpt><trkpt lat="45.0962915" lon="9.4510722"><ele>49.0</ele><time>2026-04-16T09:36:13.822Z</time></trkpt><trkpt lat="45.0962559" lon="9.4509152"><ele>49.2</ele><time>2026-04-16T09:36:15.823Z</time></trkpt><trkpt lat="45.0962235" lon="9.4507457"><ele>49.400000000000006</ele><time>2026-04-16T09:36:17.822Z</time></trkpt><trkpt lat="45.0962215" lon="9.4505817"><ele>49.6</ele><time>2026-04-16T09:36:19.821Z</time></trkpt><trkpt lat="45.0962199" lon="9.4504387"><ele>49.8</ele><time>2026-04-16T09:36:21.823Z</time></trkpt><trkpt lat="45.096216" lon="9.4503185"><ele>50.0</ele><time>2026-04-16T09:36:23.822Z</time></trkpt><trkpt lat="45.0962087" lon="9.4502083"><ele>50.0</ele><time>2026-04-16T09:36:25.821Z</time></trkpt><trkpt lat="45.0961977" lon="9.4500852"><ele>50.0</ele><time>2026-04-16T09:36:27.821Z</time></trkpt><trkpt lat="45.0961838" lon="9.4499379"><ele>50.0</ele><time>2026-04-16T09:36:29.821Z</time></trkpt><trkpt lat="45.0961742" lon="9.4497952"><ele>50.0</ele><time>2026-04-16T09:36:31.822Z</time></trkpt><trkpt lat="45.0961655" lon="9.449661"><ele>50.0</ele><time>2026-04-16T09:36:33.822Z</time></trkpt><trkpt lat="45.0961537" lon="9.4495175"><ele>49.6</ele><time>2026-04-16T09:36:35.822Z</time></trkpt><trkpt lat="45.0961338" lon="9.449359"><ele>49.2</ele><time>2026-04-16T09:36:37.823Z</time></trkpt><trkpt lat="45.0961221" lon="9.4492039"><ele>48.8</ele><time>2026-04-16T09:36:39.822Z</time></trkpt><trkpt lat="45.0961083" lon="9.4490404"><ele>48.4</ele><time>2026-04-16T09:36:41.822Z</time></trkpt><trkpt lat="45.0960995" lon="9.4489508"><ele>48.0</ele><time>2026-04-16T09:36:42.822Z</time></trkpt><trkpt lat="45.0960911" lon="9.448854"><ele>48.0</ele><time>2026-04-16T09:36:43.823Z</time></trkpt><trkpt lat="45.0960834" lon="9.4487524"><ele>48.0</ele><time>2026-04-16T09:36:44.822Z</time></trkpt><trkpt lat="45.0960748" lon="9.4486481"><ele>48.0</ele><time>2026-04-16T09:36:45.821Z</time></trkpt><trkpt lat="45.0960664" lon="9.4485423"><ele>48.0</ele><time>2026-04-16T09:36:46.822Z</time></trkpt><trkpt lat="45.0960609" lon="9.44845"><ele>48.0</ele><time>2026-04-16T09:36:47.821Z</time></trkpt><trkpt lat="45.0960545" lon="9.4482755"><ele>48.0</ele><time>2026-04-16T09:36:49.821Z</time></trkpt><trkpt lat="45.0960562" lon="9.4480964"><ele>47.99999999999999</ele><time>2026-04-16T09:36:51.822Z</time></trkpt><trkpt lat="45.0960508" lon="9.4480047"><ele>48.0</ele><time>2026-04-16T09:36:52.823Z</time></trkpt><trkpt lat="45.0960461" lon="9.4479122"><ele>48.0</ele><time>2026-04-16T09:36:53.821Z</time></trkpt><trkpt lat="45.0960387" lon="9.4478204"><ele>48.0</ele><time>2026-04-16T09:36:54.822Z</time></trkpt><trkpt lat="45.0960329" lon="9.4477238"><ele>48.0</ele><time>2026-04-16T09:36:55.822Z</time></trkpt><trkpt lat="45.096025" lon="9.4476277"><ele>47.99999999999999</ele><time>2026-04-16T09:36:56.821Z</time></trkpt><trkpt lat="45.0960216" lon="9.4475292"><ele>48.0</ele><time>2026-04-16T09:36:57.822Z</time></trkpt><trkpt lat="45.0960199" lon="9.4474311"><ele>48.333333333333336</ele><time>2026-04-16T09:36:58.821Z</time></trkpt><trkpt lat="45.0960141" lon="9.4473256"><ele>48.66666666666667</ele><time>2026-04-16T09:36:59.822Z</time></trkpt><trkpt lat="45.0960072" lon="9.4472183"><ele>49.0</ele><time>2026-04-16T09:37:00.823Z</time></trkpt><trkpt lat="45.0960082" lon="9.447113"><ele>49.333333333333336</ele><time>2026-04-16T09:37:01.822Z</time></trkpt><trkpt lat="45.0960121" lon="9.4470104"><ele>49.66666666666667</ele><time>2026-04-16T09:37:02.821Z</time></trkpt><trkpt lat="45.0960145" lon="9.4469033"><ele>50.0</ele><time>2026-04-16T09:37:03.822Z</time></trkpt><trkpt lat="45.0960089" lon="9.4467935"><ele>50.4</ele><time>2026-04-16T09:37:04.821Z</time></trkpt><trkpt lat="45.0960023" lon="9.4466687"><ele>50.8</ele><time>2026-04-16T09:37:05.822Z</time></trkpt><trkpt lat="45.0959958" lon="9.4465315"><ele>51.2</ele><time>2026-04-16T09:37:06.822Z</time></trkpt><trkpt lat="45.0959926" lon="9.4463977"><ele>51.6</ele><time>2026-04-16T09:37:07.821Z</time></trkpt><trkpt lat="45.0959866" lon="9.4462713"><ele>52.0</ele><time>2026-04-16T09:37:08.821Z</time></trkpt><trkpt lat="45.0959795" lon="9.4461518"><ele>52.166666666666664</ele><time>2026-04-16T09:37:09.821Z</time></trkpt><trkpt lat="45.0959722" lon="9.4460421"><ele>52.33333333333333</ele><time>2026-04-16T09:37:10.821Z</time></trkpt><trkpt lat="45.09597" lon="9.4459496"><ele>52.5</ele><time>2026-04-16T09:37:11.821Z</time></trkpt><trkpt lat="45.0959755" lon="9.4458009"><ele>52.66666666666667</ele><time>2026-04-16T09:37:13.822Z</time></trkpt><trkpt lat="45.0959946" lon="9.445698"><ele>52.833333333333336</ele><time>2026-04-16T09:37:15.821Z</time></trkpt><trkpt lat="45.0960232" lon="9.4456183"><ele>53.0</ele><time>2026-04-16T09:37:17.822Z</time></trkpt><trkpt lat="45.0960828" lon="9.4455557"><ele>53.00000000000001</ele><time>2026-04-16T09:37:20.822Z</time></trkpt><trkpt lat="45.0961503" lon="9.445526"><ele>53.0</ele><time>2026-04-16T09:37:23.822Z</time></trkpt><trkpt lat="45.0962213" lon="9.4454952"><ele>53.0</ele><time>2026-04-16T09:37:27.821Z</time></trkpt><trkpt lat="45.0962847" lon="9.445423"><ele>53.0</ele><time>2026-04-16T09:37:31.822Z</time></trkpt><trkpt lat="45.0963408" lon="9.445341"><ele>53.00000000000001</ele><time>2026-04-16T09:37:34.822Z</time></trkpt><trkpt lat="45.0964031" lon="9.4452806"><ele>53.0</ele><time>2026-04-16T09:37:37.821Z</time></trkpt><trkpt lat="45.0964791" lon="9.4452161"><ele>53.00000000000001</ele><time>2026-04-16T09:37:40.822Z</time></trkpt><trkpt lat="45.0965649" lon="9.4451571"><ele>53.0</ele><time>2026-04-16T09:37:42.822Z</time></trkpt><trkpt lat="45.0966836" lon="9.4451102"><ele>53.0</ele><time>2026-04-16T09:37:44.822Z</time></trkpt><trkpt lat="45.0967461" lon="9.4450791"><ele>53.0</ele><time>2026-04-16T09:37:45.821Z</time></trkpt><trkpt lat="45.0968142" lon="9.4450504"><ele>53.00000000000001</ele><time>2026-04-16T09:37:46.822Z</time></trkpt><trkpt lat="45.0968838" lon="9.4450164"><ele>53.0</ele><time>2026-04-16T09:37:47.821Z</time></trkpt><trkpt lat="45.0969575" lon="9.4449853"><ele>53.599999999999994</ele><time>2026-04-16T09:37:48.822Z</time></trkpt><trkpt lat="45.0970388" lon="9.4449541"><ele>54.199999999999996</ele><time>2026-04-16T09:37:49.822Z</time></trkpt><trkpt lat="45.0971268" lon="9.4449141"><ele>54.8</ele><time>2026-04-16T09:37:50.822Z</time></trkpt><trkpt lat="45.0972132" lon="9.4448623"><ele>55.4</ele><time>2026-04-16T09:37:51.821Z</time></trkpt><trkpt lat="45.0973048" lon="9.4447952"><ele>56.0</ele><time>2026-04-16T09:37:52.822Z</time></trkpt><trkpt lat="45.0973949" lon="9.4447257"><ele>55.8</ele><time>2026-04-16T09:37:53.823Z</time></trkpt><trkpt lat="45.0974892" lon="9.4446514"><ele>55.599999999999994</ele><time>2026-04-16T09:37:54.821Z</time></trkpt><trkpt lat="45.097585" lon="9.4445709"><ele>55.4</ele><time>2026-04-16T09:37:55.822Z</time></trkpt><trkpt lat="45.0976826" lon="9.4444853"><ele>55.2</ele><time>2026-04-16T09:37:56.821Z</time></trkpt><trkpt lat="45.0977797" lon="9.4443973"><ele>55.0</ele><time>2026-04-16T09:37:57.822Z</time></trkpt><trkpt lat="45.0978753" lon="9.4443108"><ele>54.8</ele><time>2026-04-16T09:37:58.821Z</time></trkpt><trkpt lat="45.0979716" lon="9.4442249"><ele>54.6</ele><time>2026-04-16T09:37:59.823Z</time></trkpt><trkpt lat="45.0980662" lon="9.4441433"><ele>54.400000000000006</ele><time>2026-04-16T09:38:00.821Z</time></trkpt><trkpt lat="45.0981607" lon="9.444066"><ele>54.2</ele><time>2026-04-16T09:38:01.821Z</time></trkpt><trkpt lat="45.0982523" lon="9.4439852"><ele>54.0</ele><time>2026-04-16T09:38:02.822Z</time></trkpt><trkpt lat="45.0983428" lon="9.4439035"><ele>53.800000000000004</ele><time>2026-04-16T09:38:03.821Z</time></trkpt><trkpt lat="45.098434" lon="9.4438195"><ele>53.60000000000001</ele><time>2026-04-16T09:38:04.822Z</time></trkpt><trkpt lat="45.0985257" lon="9.4437392"><ele>53.4</ele><time>2026-04-16T09:38:05.822Z</time></trkpt><trkpt lat="45.0986189" lon="9.4436602"><ele>53.2</ele><time>2026-04-16T09:38:06.821Z</time></trkpt><trkpt lat="45.0987087" lon="9.4435799"><ele>53.0</ele><time>2026-04-16T09:38:07.823Z</time></trkpt><trkpt lat="45.0988" lon="9.4435061"><ele>52.599999999999994</ele><time>2026-04-16T09:38:08.822Z</time></trkpt><trkpt lat="45.0988904" lon="9.4434301"><ele>52.199999999999996</ele><time>2026-04-16T09:38:09.822Z</time></trkpt><trkpt lat="45.0989805" lon="9.44335"><ele>51.8</ele><time>2026-04-16T09:38:10.821Z</time></trkpt><trkpt lat="45.0990729" lon="9.4432708"><ele>51.4</ele><time>2026-04-16T09:38:11.822Z</time></trkpt><trkpt lat="45.0991653" lon="9.4431891"><ele>51.0</ele><time>2026-04-16T09:38:12.821Z</time></trkpt><trkpt lat="45.0992588" lon="9.4431109"><ele>50.8</ele><time>2026-04-16T09:38:13.821Z</time></trkpt><trkpt lat="45.09935" lon="9.4430371"><ele>50.599999999999994</ele><time>2026-04-16T09:38:14.823Z</time></trkpt><trkpt lat="45.0994375" lon="9.4429647"><ele>50.4</ele><time>2026-04-16T09:38:15.821Z</time></trkpt><trkpt lat="45.0995256" lon="9.4428892"><ele>50.2</ele><time>2026-04-16T09:38:16.822Z</time></trkpt><trkpt lat="45.0996149" lon="9.4428145"><ele>50.0</ele><time>2026-04-16T09:38:17.822Z</time></trkpt><trkpt lat="45.0997037" lon="9.4427455"><ele>50.0</ele><time>2026-04-16T09:38:18.822Z</time></trkpt><trkpt lat="45.099794" lon="9.4426782"><ele>50.0</ele><time>2026-04-16T09:38:19.823Z</time></trkpt><trkpt lat="45.0998777" lon="9.4426113"><ele>50.0</ele><time>2026-04-16T09:38:20.822Z</time></trkpt><trkpt lat="45.0999529" lon="9.4425505"><ele>50.0</ele><time>2026-04-16T09:38:21.821Z</time></trkpt><trkpt lat="45.1000184" lon="9.4425016"><ele>50.0</ele><time>2026-04-16T09:38:22.821Z</time></trkpt><trkpt lat="45.1001198" lon="9.4424317"><ele>50.00000000000001</ele><time>2026-04-16T09:38:24.822Z</time></trkpt><trkpt lat="45.1001952" lon="9.4423921"><ele>50.0</ele><time>2026-04-16T09:38:26.823Z</time></trkpt><trkpt lat="45.1002723" lon="9.4423508"><ele>50.0</ele><time>2026-04-16T09:38:28.822Z</time></trkpt><trkpt lat="45.1003892" lon="9.4423047"><ele>50.0</ele><time>2026-04-16T09:38:30.822Z</time></trkpt><trkpt lat="45.1004568" lon="9.4422878"><ele>50.00000000000001</ele><time>2026-04-16T09:38:31.821Z</time></trkpt><trkpt lat="45.1005261" lon="9.4422767"><ele>50.0</ele><time>2026-04-16T09:38:32.822Z</time></trkpt><trkpt lat="45.1005957" lon="9.4422772"><ele>50.00000000000001</ele><time>2026-04-16T09:38:33.821Z</time></trkpt><trkpt lat="45.1006696" lon="9.4422814"><ele>50.0</ele><time>2026-04-16T09:38:34.822Z</time></trkpt><trkpt lat="45.1007462" lon="9.4422912"><ele>50.0</ele><time>2026-04-16T09:38:35.821Z</time></trkpt><trkpt lat="45.1008241" lon="9.4423051"><ele>50.0</ele><time>2026-04-16T09:38:36.822Z</time></trkpt><trkpt lat="45.1009012" lon="9.4423243"><ele>50.00000000000001</ele><time>2026-04-16T09:38:37.823Z</time></trkpt><trkpt lat="45.1009772" lon="9.4423489"><ele>50.0</ele><time>2026-04-16T09:38:38.821Z</time></trkpt><trkpt lat="45.1010533" lon="9.4423799"><ele>50.50000000000001</ele><time>2026-04-16T09:38:39.822Z</time></trkpt><trkpt lat="45.10113" lon="9.4424126"><ele>51.0</ele><time>2026-04-16T09:38:40.822Z</time></trkpt><trkpt lat="45.1012089" lon="9.4424484"><ele>51.5</ele><time>2026-04-16T09:38:41.823Z</time></trkpt><trkpt lat="45.1012916" lon="9.4424862"><ele>52.0</ele><time>2026-04-16T09:38:42.822Z</time></trkpt><trkpt lat="45.1013728" lon="9.4425158"><ele>52.50000000000001</ele><time>2026-04-16T09:38:43.821Z</time></trkpt><trkpt lat="45.1014572" lon="9.4425433"><ele>53.0</ele><time>2026-04-16T09:38:44.821Z</time></trkpt><trkpt lat="45.1015471" lon="9.442574"><ele>52.599999999999994</ele><time>2026-04-16T09:38:45.822Z</time></trkpt><trkpt lat="45.1016408" lon="9.4426002"><ele>52.199999999999996</ele><time>2026-04-16T09:38:46.822Z</time></trkpt><trkpt lat="45.10174" lon="9.4426212"><ele>51.8</ele><time>2026-04-16T09:38:47.822Z</time></trkpt><trkpt lat="45.1018449" lon="9.4426319"><ele>51.4</ele><time>2026-04-16T09:38:48.821Z</time></trkpt><trkpt lat="45.1019485" lon="9.4426439"><ele>51.0</ele><time>2026-04-16T09:38:49.821Z</time></trkpt><trkpt lat="45.1020562" lon="9.4426537"><ele>51.0</ele><time>2026-04-16T09:38:50.821Z</time></trkpt><trkpt lat="45.1021637" lon="9.4426594"><ele>51.0</ele><time>2026-04-16T09:38:51.821Z</time></trkpt><trkpt lat="45.1022759" lon="9.442657"><ele>51.0</ele><time>2026-04-16T09:38:52.822Z</time></trkpt><trkpt lat="45.1023885" lon="9.4426503"><ele>51.0</ele><time>2026-04-16T09:38:53.822Z</time></trkpt><trkpt lat="45.1025023" lon="9.4426426"><ele>51.0</ele><time>2026-04-16T09:38:54.821Z</time></trkpt><trkpt lat="45.102617" lon="9.4426327"><ele>51.0</ele><time>2026-04-16T09:38:55.822Z</time></trkpt><trkpt lat="45.1027355" lon="9.4426206"><ele>51.0</ele><time>2026-04-16T09:38:56.823Z</time></trkpt><trkpt lat="45.1028562" lon="9.4426067"><ele>51.0</ele><time>2026-04-16T09:38:57.821Z</time></trkpt><trkpt lat="45.1029778" lon="9.4425946"><ele>51.0</ele><time>2026-04-16T09:38:58.822Z</time></trkpt><trkpt lat="45.1031013" lon="9.4425842"><ele>51.0</ele><time>2026-04-16T09:38:59.821Z</time></trkpt><trkpt lat="45.1032247" lon="9.4425725"><ele>51.0</ele><time>2026-04-16T09:39:00.822Z</time></trkpt><trkpt lat="45.1033499" lon="9.4425592"><ele>51.0</ele><time>2026-04-16T09:39:01.822Z</time></trkpt><trkpt lat="45.1034747" lon="9.4425416"><ele>51.0</ele><time>2026-04-16T09:39:02.822Z</time></trkpt><trkpt lat="45.1036003" lon="9.442524"><ele>50.5</ele><time>2026-04-16T09:39:03.822Z</time></trkpt><trkpt lat="45.1037242" lon="9.4425128"><ele>50.0</ele><time>2026-04-16T09:39:04.822Z</time></trkpt><trkpt lat="45.1038419" lon="9.4425002"><ele>49.5</ele><time>2026-04-16T09:39:05.821Z</time></trkpt><trkpt lat="45.1039544" lon="9.4424871"><ele>49.0</ele><time>2026-04-16T09:39:06.821Z</time></trkpt><trkpt lat="45.1040615" lon="9.4424741"><ele>49.166666666666664</ele><time>2026-04-16T09:39:07.822Z</time></trkpt><trkpt lat="45.1041597" lon="9.4424657"><ele>49.33333333333333</ele><time>2026-04-16T09:39:08.822Z</time></trkpt><trkpt lat="45.104252" lon="9.4424555"><ele>49.5</ele><time>2026-04-16T09:39:09.821Z</time></trkpt><trkpt lat="45.10434" lon="9.4424485"><ele>49.66666666666667</ele><time>2026-04-16T09:39:10.822Z</time></trkpt><trkpt lat="45.1044225" lon="9.4424424"><ele>49.833333333333336</ele><time>2026-04-16T09:39:11.822Z</time></trkpt><trkpt lat="45.1044997" lon="9.4424318"><ele>50.0</ele><time>2026-04-16T09:39:12.822Z</time></trkpt><trkpt lat="45.1045761" lon="9.4424229"><ele>50.00000000000001</ele><time>2026-04-16T09:39:13.822Z</time></trkpt><trkpt lat="45.1046549" lon="9.4424187"><ele>50.0</ele><time>2026-04-16T09:39:14.822Z</time></trkpt><trkpt lat="45.1047364" lon="9.4424139"><ele>50.0</ele><time>2026-04-16T09:39:15.823Z</time></trkpt><trkpt lat="45.1048215" lon="9.4424071"><ele>50.0</ele><time>2026-04-16T09:39:16.821Z</time></trkpt><trkpt lat="45.1049071" lon="9.4423995"><ele>50.00000000000001</ele><time>2026-04-16T09:39:17.821Z</time></trkpt><trkpt lat="45.1049925" lon="9.442393"><ele>50.0</ele><time>2026-04-16T09:39:18.821Z</time></trkpt><trkpt lat="45.105078" lon="9.4423864"><ele>50.16666666666667</ele><time>2026-04-16T09:39:19.823Z</time></trkpt><trkpt lat="45.1051654" lon="9.4423826"><ele>50.333333333333336</ele><time>2026-04-16T09:39:20.822Z</time></trkpt><trkpt lat="45.1052518" lon="9.4423774"><ele>50.5</ele><time>2026-04-16T09:39:21.822Z</time></trkpt><trkpt lat="45.1053392" lon="9.4423766"><ele>50.66666666666667</ele><time>2026-04-16T09:39:22.822Z</time></trkpt><trkpt lat="45.1054278" lon="9.442383"><ele>50.833333333333336</ele><time>2026-04-16T09:39:23.823Z</time></trkpt><trkpt lat="45.1055159" lon="9.4423963"><ele>51.0</ele><time>2026-04-16T09:39:24.821Z</time></trkpt><trkpt lat="45.1056043" lon="9.4424167"><ele>51.0</ele><time>2026-04-16T09:39:25.821Z</time></trkpt><trkpt lat="45.1056921" lon="9.4424379"><ele>51.0</ele><time>2026-04-16T09:39:26.821Z</time></trkpt><trkpt lat="45.1057799" lon="9.4424567"><ele>51.0</ele><time>2026-04-16T09:39:27.822Z</time></trkpt><trkpt lat="45.1058644" lon="9.4424778"><ele>51.0</ele><time>2026-04-16T09:39:28.823Z</time></trkpt><trkpt lat="45.1059448" lon="9.4424967"><ele>51.0</ele><time>2026-04-16T09:39:29.821Z</time></trkpt><trkpt lat="45.1060292" lon="9.4425213"><ele>51.0</ele><time>2026-04-16T09:39:30.822Z</time></trkpt><trkpt lat="45.1061178" lon="9.4425419"><ele>51.199999999999996</ele><time>2026-04-16T09:39:31.821Z</time></trkpt><trkpt lat="45.1062091" lon="9.4425664"><ele>51.4</ele><time>2026-04-16T09:39:32.822Z</time></trkpt><trkpt lat="45.1063011" lon="9.4425907"><ele>51.6</ele><time>2026-04-16T09:39:33.821Z</time></trkpt><trkpt lat="45.1063935" lon="9.4426129"><ele>51.8</ele><time>2026-04-16T09:39:34.821Z</time></trkpt><trkpt lat="45.1064843" lon="9.44264"><ele>52.0</ele><time>2026-04-16T09:39:35.823Z</time></trkpt><trkpt lat="45.1065701" lon="9.4426614"><ele>51.666666666666664</ele><time>2026-04-16T09:39:36.822Z</time></trkpt><trkpt lat="45.1066496" lon="9.4426869"><ele>51.33333333333333</ele><time>2026-04-16T09:39:37.821Z</time></trkpt><trkpt lat="45.1067242" lon="9.442705"><ele>51.0</ele><time>2026-04-16T09:39:38.822Z</time></trkpt><trkpt lat="45.1067927" lon="9.4427191"><ele>50.66666666666667</ele><time>2026-04-16T09:39:39.822Z</time></trkpt><trkpt lat="45.1069079" lon="9.4427511"><ele>50.333333333333336</ele><time>2026-04-16T09:39:41.823Z</time></trkpt><trkpt lat="45.1069729" lon="9.4428288"><ele>50.0</ele><time>2026-04-16T09:39:43.822Z</time></trkpt><trkpt lat="45.106981" lon="9.4429428"><ele>50.2</ele><time>2026-04-16T09:39:45.822Z</time></trkpt><trkpt lat="45.1069359" lon="9.4430723"><ele>50.4</ele><time>2026-04-16T09:39:47.821Z</time></trkpt><trkpt lat="45.1068652" lon="9.4432252"><ele>50.599999999999994</ele><time>2026-04-16T09:39:49.821Z</time></trkpt><trkpt lat="45.1068182" lon="9.443304"><ele>50.8</ele><time>2026-04-16T09:39:50.822Z</time></trkpt><trkpt lat="45.1067687" lon="9.4433835"><ele>51.0</ele><time>2026-04-16T09:39:51.822Z</time></trkpt><trkpt lat="45.1067198" lon="9.443478"><ele>51.0</ele><time>2026-04-16T09:39:52.822Z</time></trkpt><trkpt lat="45.1066647" lon="9.4435827"><ele>51.0</ele><time>2026-04-16T09:39:53.821Z</time></trkpt><trkpt lat="45.1066101" lon="9.4436965"><ele>51.0</ele><time>2026-04-16T09:39:54.822Z</time></trkpt><trkpt lat="45.1065546" lon="9.4438203"><ele>51.0</ele><time>2026-04-16T09:39:55.822Z</time></trkpt><trkpt lat="45.1064986" lon="9.4439475"><ele>51.0</ele><time>2026-04-16T09:39:56.822Z</time></trkpt><trkpt lat="45.1064377" lon="9.4440818"><ele>51.0</ele><time>2026-04-16T09:39:57.822Z</time></trkpt><trkpt lat="45.1063756" lon="9.4442239"><ele>51.0</ele><time>2026-04-16T09:39:58.822Z</time></trkpt><trkpt lat="45.1063136" lon="9.444375"><ele>51.0</ele><time>2026-04-16T09:39:59.821Z</time></trkpt><trkpt lat="45.1062462" lon="9.4445366"><ele>51.0</ele><time>2026-04-16T09:40:00.821Z</time></trkpt><trkpt lat="45.1061786" lon="9.4447043"><ele>50.75</ele><time>2026-04-16T09:40:01.822Z</time></trkpt><trkpt lat="45.1061111" lon="9.4448762"><ele>50.5</ele><time>2026-04-16T09:40:02.822Z</time></trkpt><trkpt lat="45.1060401" lon="9.4450509"><ele>50.25</ele><time>2026-04-16T09:40:03.823Z</time></trkpt><trkpt lat="45.105967" lon="9.4452316"><ele>50.0</ele><time>2026-04-16T09:40:04.821Z</time></trkpt><trkpt lat="45.1058921" lon="9.4454158"><ele>50.0</ele><time>2026-04-16T09:40:05.822Z</time></trkpt><trkpt lat="45.1058185" lon="9.445601"><ele>50.0</ele><time>2026-04-16T09:40:06.821Z</time></trkpt><trkpt lat="45.1057411" lon="9.4457866"><ele>50.0</ele><time>2026-04-16T09:40:07.821Z</time></trkpt><trkpt lat="45.1056646" lon="9.4459693"><ele>50.0</ele><time>2026-04-16T09:40:08.821Z</time></trkpt><trkpt lat="45.1055867" lon="9.4461565"><ele>50.0</ele><time>2026-04-16T09:40:09.822Z</time></trkpt><trkpt lat="45.105505" lon="9.4463512"><ele>50.0</ele><time>2026-04-16T09:40:10.822Z</time></trkpt><trkpt lat="45.1054253" lon="9.4465398"><ele>50.0</ele><time>2026-04-16T09:40:11.821Z</time></trkpt><trkpt lat="45.1053422" lon="9.4467297"><ele>50.0</ele><time>2026-04-16T09:40:12.822Z</time></trkpt><trkpt lat="45.1052617" lon="9.4469206"><ele>50.0</ele><time>2026-04-16T09:40:13.822Z</time></trkpt><trkpt lat="45.1051809" lon="9.4471143"><ele>50.0</ele><time>2026-04-16T09:40:14.822Z</time></trkpt><trkpt lat="45.1050983" lon="9.4473102"><ele>50.0</ele><time>2026-04-16T09:40:15.822Z</time></trkpt><trkpt lat="45.1050175" lon="9.4475049"><ele>50.0</ele><time>2026-04-16T09:40:16.822Z</time></trkpt><trkpt lat="45.1049383" lon="9.4477022"><ele>50.0</ele><time>2026-04-16T09:40:17.822Z</time></trkpt><trkpt lat="45.1048589" lon="9.4479006"><ele>50.0</ele><time>2026-04-16T09:40:18.821Z</time></trkpt><trkpt lat="45.1047778" lon="9.4480977"><ele>50.0</ele><time>2026-04-16T09:40:19.821Z</time></trkpt><trkpt lat="45.1046941" lon="9.4482953"><ele>50.0</ele><time>2026-04-16T09:40:20.82Z</time></trkpt><trkpt lat="45.104611" lon="9.4484932"><ele>50.0</ele><time>2026-04-16T09:40:21.82Z</time></trkpt><trkpt lat="45.1045298" lon="9.4486848"><ele>50.0</ele><time>2026-04-16T09:40:22.821Z</time></trkpt><trkpt lat="45.1044401" lon="9.4488707"><ele>50.66666666666667</ele><time>2026-04-16T09:40:23.821Z</time></trkpt><trkpt lat="45.1043452" lon="9.4490465"><ele>51.33333333333333</ele><time>2026-04-16T09:40:24.82Z</time></trkpt><trkpt lat="45.1042432" lon="9.4492158"><ele>52.0</ele><time>2026-04-16T09:40:25.82Z</time></trkpt><trkpt lat="45.1041398" lon="9.4493724"><ele>52.0</ele><time>2026-04-16T09:40:26.82Z</time></trkpt><trkpt lat="45.1040379" lon="9.4495153"><ele>52.0</ele><time>2026-04-16T09:40:27.82Z</time></trkpt><trkpt lat="45.1039344" lon="9.4496443"><ele>52.0</ele><time>2026-04-16T09:40:28.82Z</time></trkpt><trkpt lat="45.1038346" lon="9.4497579"><ele>52.0</ele><time>2026-04-16T09:40:29.82Z</time></trkpt><trkpt lat="45.1037395" lon="9.449861"><ele>52.2</ele><time>2026-04-16T09:40:30.821Z</time></trkpt><trkpt lat="45.1036507" lon="9.449958"><ele>52.400000000000006</ele><time>2026-04-16T09:40:31.822Z</time></trkpt><trkpt lat="45.10357" lon="9.4500481"><ele>52.599999999999994</ele><time>2026-04-16T09:40:32.82Z</time></trkpt><trkpt lat="45.1034942" lon="9.4501364"><ele>52.8</ele><time>2026-04-16T09:40:33.82Z</time></trkpt><trkpt lat="45.1034253" lon="9.4502167"><ele>53.0</ele><time>2026-04-16T09:40:34.821Z</time></trkpt><trkpt lat="45.1033578" lon="9.4502843"><ele>53.0</ele><time>2026-04-16T09:40:35.821Z</time></trkpt><trkpt lat="45.1032814" lon="9.4503348"><ele>53.0</ele><time>2026-04-16T09:40:36.82Z</time></trkpt><trkpt lat="45.103197" lon="9.4503686"><ele>53.0</ele><time>2026-04-16T09:40:37.821Z</time></trkpt><trkpt lat="45.1031044" lon="9.4503921"><ele>53.0</ele><time>2026-04-16T09:40:38.821Z</time></trkpt><trkpt lat="45.1030006" lon="9.4504129"><ele>53.0</ele><time>2026-04-16T09:40:39.82Z</time></trkpt><trkpt lat="45.10289" lon="9.4504328"><ele>53.0</ele><time>2026-04-16T09:40:40.82Z</time></trkpt><trkpt lat="45.1027678" lon="9.4504488"><ele>53.0</ele><time>2026-04-16T09:40:41.821Z</time></trkpt><trkpt lat="45.1026379" lon="9.4504602"><ele>53.0</ele><time>2026-04-16T09:40:42.82Z</time></trkpt><trkpt lat="45.1025022" lon="9.4504703"><ele>53.0</ele><time>2026-04-16T09:40:43.82Z</time></trkpt><trkpt lat="45.1023672" lon="9.4504796"><ele>53.0</ele><time>2026-04-16T09:40:44.821Z</time></trkpt><trkpt lat="45.102228" lon="9.4504897"><ele>53.0</ele><time>2026-04-16T09:40:45.822Z</time></trkpt><trkpt lat="45.1020899" lon="9.4505014"><ele>53.0</ele><time>2026-04-16T09:40:46.821Z</time></trkpt><trkpt lat="45.1019523" lon="9.4505149"><ele>53.0</ele><time>2026-04-16T09:40:47.82Z</time></trkpt><trkpt lat="45.1018167" lon="9.4505284"><ele>53.0</ele><time>2026-04-16T09:40:48.821Z</time></trkpt><trkpt lat="45.1016886" lon="9.450542"><ele>53.0</ele><time>2026-04-16T09:40:49.821Z</time></trkpt><trkpt lat="45.1015642" lon="9.4505528"><ele>53.0</ele><time>2026-04-16T09:40:50.821Z</time></trkpt><trkpt lat="45.1014427" lon="9.4505601"><ele>53.0</ele><time>2026-04-16T09:40:51.82Z</time></trkpt><trkpt lat="45.1013281" lon="9.4505675"><ele>52.8</ele><time>2026-04-16T09:40:52.821Z</time></trkpt><trkpt lat="45.101217" lon="9.450576"><ele>52.599999999999994</ele><time>2026-04-16T09:40:53.821Z</time></trkpt><trkpt lat="45.1011095" lon="9.4505854"><ele>52.400000000000006</ele><time>2026-04-16T09:40:54.821Z</time></trkpt><trkpt lat="45.1009981" lon="9.4505937"><ele>52.2</ele><time>2026-04-16T09:40:55.82Z</time></trkpt><trkpt lat="45.1008844" lon="9.4505997"><ele>52.0</ele><time>2026-04-16T09:40:56.82Z</time></trkpt><trkpt lat="45.1007695" lon="9.4506043"><ele>52.5</ele><time>2026-04-16T09:40:57.821Z</time></trkpt><trkpt lat="45.1006535" lon="9.4506124"><ele>53.0</ele><time>2026-04-16T09:40:58.821Z</time></trkpt><trkpt lat="45.1005323" lon="9.4506226"><ele>53.5</ele><time>2026-04-16T09:40:59.82Z</time></trkpt><trkpt lat="45.1004132" lon="9.4506291"><ele>54.0</ele><time>2026-04-16T09:41:00.82Z</time></trkpt><trkpt lat="45.1002972" lon="9.4506378"><ele>54.0</ele><time>2026-04-16T09:41:01.821Z</time></trkpt><trkpt lat="45.1001872" lon="9.4506479"><ele>54.00000000000001</ele><time>2026-04-16T09:41:02.82Z</time></trkpt><trkpt lat="45.1000809" lon="9.4506597"><ele>54.00000000000001</ele><time>2026-04-16T09:41:03.82Z</time></trkpt><trkpt lat="45.0999717" lon="9.4506677"><ele>54.0</ele><time>2026-04-16T09:41:04.82Z</time></trkpt><trkpt lat="45.099861" lon="9.4506773"><ele>54.0</ele><time>2026-04-16T09:41:05.82Z</time></trkpt><trkpt lat="45.0997475" lon="9.4506865"><ele>54.25</ele><time>2026-04-16T09:41:06.821Z</time></trkpt><trkpt lat="45.0996312" lon="9.4506949"><ele>54.5</ele><time>2026-04-16T09:41:07.821Z</time></trkpt><trkpt lat="45.0995185" lon="9.4507022"><ele>54.75</ele><time>2026-04-16T09:41:08.821Z</time></trkpt><trkpt lat="45.0994076" lon="9.4507077"><ele>55.0</ele><time>2026-04-16T09:41:09.821Z</time></trkpt><trkpt lat="45.0992964" lon="9.4507163"><ele>55.0</ele><time>2026-04-16T09:41:10.821Z</time></trkpt><trkpt lat="45.0991818" lon="9.450722"><ele>55.0</ele><time>2026-04-16T09:41:11.82Z</time></trkpt><trkpt lat="45.0990655" lon="9.4507284"><ele>55.0</ele><time>2026-04-16T09:41:12.82Z</time></trkpt><trkpt lat="45.0989473" lon="9.4507379"><ele>55.0</ele><time>2026-04-16T09:41:13.82Z</time></trkpt><trkpt lat="45.09883" lon="9.4507454"><ele>54.75</ele><time>2026-04-16T09:41:14.822Z</time></trkpt><trkpt lat="45.09871" lon="9.4507566"><ele>54.5</ele><time>2026-04-16T09:41:15.82Z</time></trkpt><trkpt lat="45.098591" lon="9.4507671"><ele>54.25</ele><time>2026-04-16T09:41:16.82Z</time></trkpt><trkpt lat="45.098472" lon="9.4507733"><ele>54.0</ele><time>2026-04-16T09:41:17.821Z</time></trkpt><trkpt lat="45.0983518" lon="9.4507824"><ele>54.25</ele><time>2026-04-16T09:41:18.821Z</time></trkpt><trkpt lat="45.0982279" lon="9.4507896"><ele>54.5</ele><time>2026-04-16T09:41:19.821Z</time></trkpt><trkpt lat="45.0981053" lon="9.4507997"><ele>54.75</ele><time>2026-04-16T09:41:20.822Z</time></trkpt><trkpt lat="45.0979854" lon="9.4508051"><ele>55.0</ele><time>2026-04-16T09:41:21.822Z</time></trkpt><trkpt lat="45.0978686" lon="9.4508128"><ele>55.0</ele><time>2026-04-16T09:41:22.821Z</time></trkpt><trkpt lat="45.0977579" lon="9.4508223"><ele>55.0</ele><time>2026-04-16T09:41:23.821Z</time></trkpt><trkpt lat="45.0976527" lon="9.450833"><ele>55.0</ele><time>2026-04-16T09:41:24.82Z</time></trkpt><trkpt lat="45.0975487" lon="9.450839"><ele>55.0</ele><time>2026-04-16T09:41:25.821Z</time></trkpt><trkpt lat="45.0974478" lon="9.450847"><ele>55.0</ele><time>2026-04-16T09:41:26.821Z</time></trkpt><trkpt lat="45.0973491" lon="9.4508529"><ele>55.2</ele><time>2026-04-16T09:41:27.82Z</time></trkpt><trkpt lat="45.0972535" lon="9.4508589"><ele>55.4</ele><time>2026-04-16T09:41:28.82Z</time></trkpt><trkpt lat="45.0971604" lon="9.4508659"><ele>55.599999999999994</ele><time>2026-04-16T09:41:29.82Z</time></trkpt><trkpt lat="45.0970681" lon="9.4508712"><ele>55.8</ele><time>2026-04-16T09:41:30.82Z</time></trkpt><trkpt lat="45.0969717" lon="9.4508783"><ele>56.0</ele><time>2026-04-16T09:41:31.82Z</time></trkpt><trkpt lat="45.0968713" lon="9.4508847"><ele>56.0</ele><time>2026-04-16T09:41:32.821Z</time></trkpt><trkpt lat="45.0967667" lon="9.4508915"><ele>55.99999999999999</ele><time>2026-04-16T09:41:33.822Z</time></trkpt><trkpt lat="45.0966602" lon="9.4509001"><ele>55.99999999999999</ele><time>2026-04-16T09:41:34.821Z</time></trkpt><trkpt lat="45.0965586" lon="9.4509094"><ele>56.0</ele><time>2026-04-16T09:41:35.82Z</time></trkpt><trkpt lat="45.096463" lon="9.4509179"><ele>56.0</ele><time>2026-04-16T09:41:36.82Z</time></trkpt><trkpt lat="45.096365" lon="9.4509239"><ele>54.8</ele><time>2026-04-16T09:41:37.821Z</time></trkpt><trkpt lat="45.0962682" lon="9.4509321"><ele>53.599999999999994</ele><time>2026-04-16T09:41:38.82Z</time></trkpt><trkpt lat="45.0961701" lon="9.4509421"><ele>52.4</ele><time>2026-04-16T09:41:39.82Z</time></trkpt><trkpt lat="45.0960714" lon="9.4509505"><ele>51.2</ele><time>2026-04-16T09:41:40.82Z</time></trkpt><trkpt lat="45.0959725" lon="9.4509588"><ele>50.0</ele><time>2026-04-16T09:41:41.821Z</time></trkpt><trkpt lat="45.0958718" lon="9.4509636"><ele>50.0</ele><time>2026-04-16T09:41:42.821Z</time></trkpt><trkpt lat="45.0957758" lon="9.4509712"><ele>50.0</ele><time>2026-04-16T09:41:43.821Z</time></trkpt><trkpt lat="45.0956845" lon="9.4509764"><ele>50.0</ele><time>2026-04-16T09:41:44.821Z</time></trkpt><trkpt lat="45.0955913" lon="9.4509827"><ele>50.0</ele><time>2026-04-16T09:41:45.82Z</time></trkpt><trkpt lat="45.095499" lon="9.4509919"><ele>50.0</ele><time>2026-04-16T09:41:46.82Z</time></trkpt><trkpt lat="45.0954085" lon="9.4509995"><ele>49.0</ele><time>2026-04-16T09:41:47.821Z</time></trkpt><trkpt lat="45.095314" lon="9.4510041"><ele>48.0</ele><time>2026-04-16T09:41:48.822Z</time></trkpt><trkpt lat="45.0952169" lon="9.4510123"><ele>47.0</ele><time>2026-04-16T09:41:49.821Z</time></trkpt><trkpt lat="45.0951167" lon="9.4510194"><ele>46.0</ele><time>2026-04-16T09:41:50.821Z</time></trkpt><trkpt lat="45.095013" lon="9.451029"><ele>45.0</ele><time>2026-04-16T09:41:51.82Z</time></trkpt><trkpt lat="45.0949153" lon="9.4510366"><ele>45.0</ele><time>2026-04-16T09:41:52.82Z</time></trkpt><trkpt lat="45.0948172" lon="9.4510471"><ele>45.0</ele><time>2026-04-16T09:41:53.822Z</time></trkpt><trkpt lat="45.0947225" lon="9.4510572"><ele>45.0</ele><time>2026-04-16T09:41:54.821Z</time></trkpt><trkpt lat="45.0946302" lon="9.4510616"><ele>45.0</ele><time>2026-04-16T09:41:55.82Z</time></trkpt><trkpt lat="45.094534" lon="9.4510667"><ele>45.0</ele><time>2026-04-16T09:41:56.82Z</time></trkpt><trkpt lat="45.0944397" lon="9.4510729"><ele>45.0</ele><time>2026-04-16T09:41:57.82Z</time></trkpt><trkpt lat="45.0943423" lon="9.4510785"><ele>45.0</ele><time>2026-04-16T09:41:58.82Z</time></trkpt><trkpt lat="45.0942445" lon="9.451082"><ele>45.0</ele><time>2026-04-16T09:41:59.82Z</time></trkpt><trkpt lat="45.0941475" lon="9.4510863"><ele>45.0</ele><time>2026-04-16T09:42:00.821Z</time></trkpt><trkpt lat="45.0940532" lon="9.4510922"><ele>45.0</ele><time>2026-04-16T09:42:01.821Z</time></trkpt><trkpt lat="45.0939551" lon="9.4510993"><ele>45.0</ele><time>2026-04-16T09:42:02.821Z</time></trkpt><trkpt lat="45.0938564" lon="9.4511065"><ele>45.0</ele><time>2026-04-16T09:42:03.821Z</time></trkpt><trkpt lat="45.0937553" lon="9.4511133"><ele>45.0</ele><time>2026-04-16T09:42:04.82Z</time></trkpt><trkpt lat="45.0936509" lon="9.4511227"><ele>45.0</ele><time>2026-04-16T09:42:05.821Z</time></trkpt><trkpt lat="45.0935504" lon="9.4511308"><ele>45.0</ele><time>2026-04-16T09:42:06.821Z</time></trkpt><trkpt lat="45.0934474" lon="9.4511374"><ele>45.0</ele><time>2026-04-16T09:42:07.822Z</time></trkpt><trkpt lat="45.0933441" lon="9.4511452"><ele>45.0</ele><time>2026-04-16T09:42:08.821Z</time></trkpt><trkpt lat="45.0932417" lon="9.4511534"><ele>45.0</ele><time>2026-04-16T09:42:09.821Z</time></trkpt><trkpt lat="45.0931336" lon="9.4511594"><ele>45.0</ele><time>2026-04-16T09:42:10.82Z</time></trkpt><trkpt lat="45.0930236" lon="9.4511696"><ele>45.0</ele><time>2026-04-16T09:42:11.821Z</time></trkpt><trkpt lat="45.0929132" lon="9.4511792"><ele>46.0</ele><time>2026-04-16T09:42:12.821Z</time></trkpt><trkpt lat="45.0928039" lon="9.4511863"><ele>47.0</ele><time>2026-04-16T09:42:13.821Z</time></trkpt><trkpt lat="45.0926965" lon="9.451192"><ele>48.0</ele><time>2026-04-16T09:42:14.82Z</time></trkpt><trkpt lat="45.0925906" lon="9.4512024"><ele>49.0</ele><time>2026-04-16T09:42:15.821Z</time></trkpt><trkpt lat="45.0924899" lon="9.4512111"><ele>50.0</ele><time>2026-04-16T09:42:16.82Z</time></trkpt><trkpt lat="45.0923896" lon="9.4512205"><ele>50.8</ele><time>2026-04-16T09:42:17.821Z</time></trkpt><trkpt lat="45.0922907" lon="9.4512234"><ele>51.6</ele><time>2026-04-16T09:42:18.82Z</time></trkpt><trkpt lat="45.0921918" lon="9.4512292"><ele>52.400000000000006</ele><time>2026-04-16T09:42:19.821Z</time></trkpt><trkpt lat="45.092092" lon="9.4512361"><ele>53.2</ele><time>2026-04-16T09:42:20.82Z</time></trkpt><trkpt lat="45.0919919" lon="9.4512452"><ele>54.0</ele><time>2026-04-16T09:42:21.821Z</time></trkpt><trkpt lat="45.0918898" lon="9.4512544"><ele>54.0</ele><time>2026-04-16T09:42:22.821Z</time></trkpt><trkpt lat="45.0917907" lon="9.4512621"><ele>54.00000000000001</ele><time>2026-04-16T09:42:23.821Z</time></trkpt><trkpt lat="45.0916897" lon="9.4512674"><ele>54.00000000000001</ele><time>2026-04-16T09:42:24.821Z</time></trkpt><trkpt lat="45.09159" lon="9.4512776"><ele>54.0</ele><time>2026-04-16T09:42:25.82Z</time></trkpt><trkpt lat="45.0914894" lon="9.4512861"><ele>54.0</ele><time>2026-04-16T09:42:26.821Z</time></trkpt><trkpt lat="45.0913908" lon="9.4512891"><ele>54.2</ele><time>2026-04-16T09:42:27.821Z</time></trkpt><trkpt lat="45.0912899" lon="9.4512933"><ele>54.400000000000006</ele><time>2026-04-16T09:42:28.821Z</time></trkpt><trkpt lat="45.0911851" lon="9.4513006"><ele>54.6</ele><time>2026-04-16T09:42:29.821Z</time></trkpt><trkpt lat="45.091079" lon="9.4513092"><ele>54.8</ele><time>2026-04-16T09:42:30.821Z</time></trkpt><trkpt lat="45.0909684" lon="9.4513161"><ele>55.0</ele><time>2026-04-16T09:42:31.821Z</time></trkpt><trkpt lat="45.0908607" lon="9.4513252"><ele>54.6</ele><time>2026-04-16T09:42:32.82Z</time></trkpt><trkpt lat="45.0907542" lon="9.4513313"><ele>54.2</ele><time>2026-04-16T09:42:33.821Z</time></trkpt><trkpt lat="45.09065" lon="9.4513375"><ele>53.8</ele><time>2026-04-16T09:42:34.82Z</time></trkpt><trkpt lat="45.0905481" lon="9.4513466"><ele>53.4</ele><time>2026-04-16T09:42:35.822Z</time></trkpt><trkpt lat="45.0904464" lon="9.4513549"><ele>53.0</ele><time>2026-04-16T09:42:36.821Z</time></trkpt><trkpt lat="45.0903514" lon="9.4513597"><ele>53.0</ele><time>2026-04-16T09:42:37.821Z</time></trkpt><trkpt lat="45.0902581" lon="9.4513656"><ele>53.0</ele><time>2026-04-16T09:42:38.821Z</time></trkpt><trkpt lat="45.0901656" lon="9.4513716"><ele>53.0</ele><time>2026-04-16T09:42:39.82Z</time></trkpt><trkpt lat="45.0900767" lon="9.4513789"><ele>53.0</ele><time>2026-04-16T09:42:40.82Z</time></trkpt><trkpt lat="45.0899864" lon="9.4513861"><ele>53.0</ele><time>2026-04-16T09:42:41.821Z</time></trkpt><trkpt lat="45.0898965" lon="9.4513936"><ele>53.0</ele><time>2026-04-16T09:42:42.821Z</time></trkpt><trkpt lat="45.0898047" lon="9.4513981"><ele>53.0</ele><time>2026-04-16T09:42:43.82Z</time></trkpt><trkpt lat="45.0897072" lon="9.4514037"><ele>53.0</ele><time>2026-04-16T09:42:44.821Z</time></trkpt><trkpt lat="45.089603" lon="9.4514107"><ele>53.0</ele><time>2026-04-16T09:42:45.821Z</time></trkpt><trkpt lat="45.0894942" lon="9.4514142"><ele>53.0</ele><time>2026-04-16T09:42:46.82Z</time></trkpt><trkpt lat="45.089382" lon="9.4514131"><ele>53.0</ele><time>2026-04-16T09:42:47.821Z</time></trkpt><trkpt lat="45.0892731" lon="9.4514116"><ele>53.0</ele><time>2026-04-16T09:42:48.82Z</time></trkpt><trkpt lat="45.0891679" lon="9.4514028"><ele>53.0</ele><time>2026-04-16T09:42:49.821Z</time></trkpt><trkpt lat="45.0890616" lon="9.451398"><ele>53.0</ele><time>2026-04-16T09:42:50.82Z</time></trkpt><trkpt lat="45.0889559" lon="9.4513863"><ele>53.0</ele><time>2026-04-16T09:42:51.82Z</time></trkpt><trkpt lat="45.0888522" lon="9.4513765"><ele>53.2</ele><time>2026-04-16T09:42:52.821Z</time></trkpt><trkpt lat="45.0887517" lon="9.4513664"><ele>53.4</ele><time>2026-04-16T09:42:53.821Z</time></trkpt><trkpt lat="45.088652" lon="9.4513547"><ele>53.60000000000001</ele><time>2026-04-16T09:42:54.821Z</time></trkpt><trkpt lat="45.0885507" lon="9.451341"><ele>53.800000000000004</ele><time>2026-04-16T09:42:55.821Z</time></trkpt><trkpt lat="45.088448" lon="9.4513338"><ele>54.0</ele><time>2026-04-16T09:42:56.821Z</time></trkpt><trkpt lat="45.0883461" lon="9.4513268"><ele>53.6</ele><time>2026-04-16T09:42:57.821Z</time></trkpt><trkpt lat="45.0882442" lon="9.4513167"><ele>53.2</ele><time>2026-04-16T09:42:58.82Z</time></trkpt><trkpt lat="45.0881463" lon="9.4513056"><ele>52.800000000000004</ele><time>2026-04-16T09:42:59.821Z</time></trkpt><trkpt lat="45.0880484" lon="9.4512965"><ele>52.400000000000006</ele><time>2026-04-16T09:43:00.821Z</time></trkpt><trkpt lat="45.0879523" lon="9.4512873"><ele>52.0</ele><time>2026-04-16T09:43:01.82Z</time></trkpt><trkpt lat="45.087859" lon="9.4512776"><ele>52.0</ele><time>2026-04-16T09:43:02.821Z</time></trkpt><trkpt lat="45.0877635" lon="9.4512663"><ele>52.0</ele><time>2026-04-16T09:43:03.821Z</time></trkpt><trkpt lat="45.0876644" lon="9.4512528"><ele>52.0</ele><time>2026-04-16T09:43:04.821Z</time></trkpt><trkpt lat="45.0875685" lon="9.4512404"><ele>52.0</ele><time>2026-04-16T09:43:05.82Z</time></trkpt><trkpt lat="45.0874752" lon="9.4512279"><ele>52.0</ele><time>2026-04-16T09:43:06.82Z</time></trkpt><trkpt lat="45.0873849" lon="9.4512185"><ele>52.166666666666664</ele><time>2026-04-16T09:43:07.82Z</time></trkpt><trkpt lat="45.0872964" lon="9.4512061"><ele>52.33333333333333</ele><time>2026-04-16T09:43:08.82Z</time></trkpt><trkpt lat="45.0872095" lon="9.4511909"><ele>52.5</ele><time>2026-04-16T09:43:09.82Z</time></trkpt><trkpt lat="45.0871319" lon="9.4511815"><ele>52.66666666666667</ele><time>2026-04-16T09:43:10.82Z</time></trkpt><trkpt lat="45.0870265" lon="9.4511677"><ele>52.833333333333336</ele><time>2026-04-16T09:43:12.82Z</time></trkpt><trkpt lat="45.0869635" lon="9.4511581"><ele>53.0</ele><time>2026-04-16T09:43:15.82Z</time></trkpt><trkpt lat="45.0868976" lon="9.451179"><ele>53.00000000000001</ele><time>2026-04-16T09:43:21.821Z</time></trkpt><trkpt lat="45.0868478" lon="9.4512902"><ele>53.0</ele><time>2026-04-16T09:43:24.821Z</time></trkpt><trkpt lat="45.0868662" lon="9.451408"><ele>53.0</ele><time>2026-04-16T09:43:25.821Z</time></trkpt><trkpt lat="45.0868735" lon="9.4515225"><ele>53.0</ele><time>2026-04-16T09:43:26.821Z</time></trkpt><trkpt lat="45.0868806" lon="9.451645"><ele>53.00000000000001</ele><time>2026-04-16T09:43:27.821Z</time></trkpt><trkpt lat="45.0868864" lon="9.4517883"><ele>53.0</ele><time>2026-04-16T09:43:28.822Z</time></trkpt><trkpt lat="45.0868937" lon="9.4519477"><ele>52.75</ele><time>2026-04-16T09:43:29.821Z</time></trkpt><trkpt lat="45.0869115" lon="9.452116"><ele>52.5</ele><time>2026-04-16T09:43:30.821Z</time></trkpt><trkpt lat="45.0869407" lon="9.4522949"><ele>52.25</ele><time>2026-04-16T09:43:31.82Z</time></trkpt><trkpt lat="45.0869717" lon="9.4524799"><ele>52.0</ele><time>2026-04-16T09:43:32.821Z</time></trkpt><trkpt lat="45.0870077" lon="9.4526737"><ele>52.0</ele><time>2026-04-16T09:43:33.821Z</time></trkpt><trkpt lat="45.0870405" lon="9.4528703"><ele>52.0</ele><time>2026-04-16T09:43:34.82Z</time></trkpt><trkpt lat="45.0870744" lon="9.4530702"><ele>52.0</ele><time>2026-04-16T09:43:35.82Z</time></trkpt><trkpt lat="45.0871095" lon="9.4532695"><ele>52.0</ele><time>2026-04-16T09:43:36.82Z</time></trkpt><trkpt lat="45.0871417" lon="9.4534731"><ele>52.0</ele><time>2026-04-16T09:43:37.821Z</time></trkpt><trkpt lat="45.0871742" lon="9.453666"><ele>52.0</ele><time>2026-04-16T09:43:38.821Z</time></trkpt><trkpt lat="45.0872033" lon="9.453859"><ele>52.0</ele><time>2026-04-16T09:43:39.821Z</time></trkpt><trkpt lat="45.0872324" lon="9.4540473"><ele>52.0</ele><time>2026-04-16T09:43:40.82Z</time></trkpt><trkpt lat="45.0872606" lon="9.4542341"><ele>52.25</ele><time>2026-04-16T09:43:41.821Z</time></trkpt><trkpt lat="45.0872882" lon="9.4544127"><ele>52.5</ele><time>2026-04-16T09:43:42.821Z</time></trkpt><trkpt lat="45.0873244" lon="9.4545764"><ele>52.75</ele><time>2026-04-16T09:43:43.821Z</time></trkpt><trkpt lat="45.0873714" lon="9.454726"><ele>53.0</ele><time>2026-04-16T09:43:44.82Z</time></trkpt><trkpt lat="45.0874348" lon="9.4548512"><ele>52.5</ele><time>2026-04-16T09:43:45.82Z</time></trkpt><trkpt lat="45.0875145" lon="9.4549468"><ele>52.0</ele><time>2026-04-16T09:43:46.82Z</time></trkpt><trkpt lat="45.0876105" lon="9.4550193"><ele>51.5</ele><time>2026-04-16T09:43:47.821Z</time></trkpt><trkpt lat="45.087719" lon="9.4550793"><ele>51.0</ele><time>2026-04-16T09:43:48.821Z</time></trkpt><trkpt lat="45.0878395" lon="9.4551343"><ele>51.0</ele><time>2026-04-16T09:43:49.82Z</time></trkpt><trkpt lat="45.0879699" lon="9.4551945"><ele>51.0</ele><time>2026-04-16T09:43:50.821Z</time></trkpt><trkpt lat="45.0881032" lon="9.4552525"><ele>51.0</ele><time>2026-04-16T09:43:51.821Z</time></trkpt><trkpt lat="45.0882414" lon="9.4553118"><ele>51.0</ele><time>2026-04-16T09:43:52.822Z</time></trkpt><trkpt lat="45.0883824" lon="9.4553709"><ele>51.25</ele><time>2026-04-16T09:43:53.82Z</time></trkpt><trkpt lat="45.0885195" lon="9.4554255"><ele>51.5</ele><time>2026-04-16T09:43:54.821Z</time></trkpt><trkpt lat="45.0886541" lon="9.4554798"><ele>51.75</ele><time>2026-04-16T09:43:55.82Z</time></trkpt><trkpt lat="45.0887831" lon="9.4555304"><ele>52.0</ele><time>2026-04-16T09:43:56.821Z</time></trkpt><trkpt lat="45.0889127" lon="9.4555852"><ele>52.0</ele><time>2026-04-16T09:43:57.821Z</time></trkpt><trkpt lat="45.0890432" lon="9.4556405"><ele>52.0</ele><time>2026-04-16T09:43:58.821Z</time></trkpt><trkpt lat="45.0891715" lon="9.4556988"><ele>52.0</ele><time>2026-04-16T09:43:59.82Z</time></trkpt><trkpt lat="45.0892955" lon="9.4557541"><ele>52.0</ele><time>2026-04-16T09:44:00.822Z</time></trkpt><trkpt lat="45.0894128" lon="9.4558078"><ele>52.2</ele><time>2026-04-16T09:44:01.821Z</time></trkpt><trkpt lat="45.0895207" lon="9.4558614"><ele>52.400000000000006</ele><time>2026-04-16T09:44:02.821Z</time></trkpt><trkpt lat="45.089608" lon="9.4559386"><ele>52.599999999999994</ele><time>2026-04-16T09:44:03.82Z</time></trkpt><trkpt lat="45.0896798" lon="9.4560344"><ele>52.8</ele><time>2026-04-16T09:44:04.821Z</time></trkpt><trkpt lat="45.0897401" lon="9.4561492"><ele>53.0</ele><time>2026-04-16T09:44:05.821Z</time></trkpt><trkpt lat="45.0897813" lon="9.4562847"><ele>52.75</ele><time>2026-04-16T09:44:06.821Z</time></trkpt><trkpt lat="45.0898111" lon="9.4564411"><ele>52.5</ele><time>2026-04-16T09:44:07.822Z</time></trkpt><trkpt lat="45.0898372" lon="9.456608"><ele>52.25</ele><time>2026-04-16T09:44:08.821Z</time></trkpt><trkpt lat="45.0898646" lon="9.4567859"><ele>52.0</ele><time>2026-04-16T09:44:09.821Z</time></trkpt><trkpt lat="45.0898909" lon="9.4569642"><ele>52.0</ele><time>2026-04-16T09:44:10.821Z</time></trkpt><trkpt lat="45.0899182" lon="9.4571409"><ele>52.0</ele><time>2026-04-16T09:44:11.82Z</time></trkpt><trkpt lat="45.089943" lon="9.4573061"><ele>52.0</ele><time>2026-04-16T09:44:12.821Z</time></trkpt><trkpt lat="45.0899651" lon="9.45746"><ele>52.0</ele><time>2026-04-16T09:44:13.821Z</time></trkpt><trkpt lat="45.0899902" lon="9.4576182"><ele>52.0</ele><time>2026-04-16T09:44:14.821Z</time></trkpt><trkpt lat="45.090014" lon="9.4577808"><ele>52.0</ele><time>2026-04-16T09:44:15.821Z</time></trkpt><trkpt lat="45.0900359" lon="9.457948"><ele>52.0</ele><time>2026-04-16T09:44:16.821Z</time></trkpt><trkpt lat="45.0900571" lon="9.4581153"><ele>52.0</ele><time>2026-04-16T09:44:17.822Z</time></trkpt><trkpt lat="45.0900772" lon="9.4582894"><ele>52.0</ele><time>2026-04-16T09:44:18.821Z</time></trkpt><trkpt lat="45.0900926" lon="9.4584672"><ele>52.0</ele><time>2026-04-16T09:44:19.821Z</time></trkpt><trkpt lat="45.0901015" lon="9.4586452"><ele>52.0</ele><time>2026-04-16T09:44:20.821Z</time></trkpt><trkpt lat="45.0901072" lon="9.458826"><ele>52.0</ele><time>2026-04-16T09:44:21.82Z</time></trkpt><trkpt lat="45.0901142" lon="9.4590084"><ele>52.0</ele><time>2026-04-16T09:44:22.821Z</time></trkpt><trkpt lat="45.0901232" lon="9.4591931"><ele>52.0</ele><time>2026-04-16T09:44:23.821Z</time></trkpt><trkpt lat="45.0901336" lon="9.4593788"><ele>52.0</ele><time>2026-04-16T09:44:24.822Z</time></trkpt><trkpt lat="45.0901451" lon="9.459571"><ele>52.0</ele><time>2026-04-16T09:44:25.821Z</time></trkpt><trkpt lat="45.0901523" lon="9.4597639"><ele>52.0</ele><time>2026-04-16T09:44:26.82Z</time></trkpt><trkpt lat="45.0901592" lon="9.4599597"><ele>52.0</ele><time>2026-04-16T09:44:27.821Z</time></trkpt><trkpt lat="45.0901665" lon="9.4601603"><ele>52.0</ele><time>2026-04-16T09:44:28.821Z</time></trkpt><trkpt lat="45.0901764" lon="9.4603704"><ele>52.0</ele><time>2026-04-16T09:44:29.82Z</time></trkpt><trkpt lat="45.0901904" lon="9.4605839"><ele>52.0</ele><time>2026-04-16T09:44:30.821Z</time></trkpt><trkpt lat="45.0902065" lon="9.4608023"><ele>52.0</ele><time>2026-04-16T09:44:31.82Z</time></trkpt><trkpt lat="45.0902262" lon="9.4610246"><ele>52.0</ele><time>2026-04-16T09:44:32.82Z</time></trkpt><trkpt lat="45.0902458" lon="9.4612512"><ele>52.0</ele><time>2026-04-16T09:44:33.821Z</time></trkpt><trkpt lat="45.0902664" lon="9.4614761"><ele>52.0</ele><time>2026-04-16T09:44:34.82Z</time></trkpt><trkpt lat="45.0902902" lon="9.4616997"><ele>52.0</ele><time>2026-04-16T09:44:35.82Z</time></trkpt><trkpt lat="45.0903118" lon="9.4619213"><ele>51.33333333333333</ele><time>2026-04-16T09:44:36.82Z</time></trkpt><trkpt lat="45.0903358" lon="9.4621441"><ele>50.66666666666667</ele><time>2026-04-16T09:44:37.821Z</time></trkpt><trkpt lat="45.0903557" lon="9.4623631"><ele>50.0</ele><time>2026-04-16T09:44:38.82Z</time></trkpt><trkpt lat="45.0903792" lon="9.4625821"><ele>50.0</ele><time>2026-04-16T09:44:39.821Z</time></trkpt><trkpt lat="45.0904012" lon="9.4627992"><ele>50.0</ele><time>2026-04-16T09:44:40.82Z</time></trkpt><trkpt lat="45.0904225" lon="9.4630217"><ele>50.0</ele><time>2026-04-16T09:44:41.821Z</time></trkpt><trkpt lat="45.090443" lon="9.4632457"><ele>50.0</ele><time>2026-04-16T09:44:42.821Z</time></trkpt><trkpt lat="45.0904641" lon="9.4634685"><ele>50.0</ele><time>2026-04-16T09:44:43.822Z</time></trkpt><trkpt lat="45.0904858" lon="9.4636942"><ele>50.0</ele><time>2026-04-16T09:44:44.821Z</time></trkpt><trkpt lat="45.0905091" lon="9.4639245"><ele>50.0</ele><time>2026-04-16T09:44:45.821Z</time></trkpt><trkpt lat="45.0905326" lon="9.4641568"><ele>50.0</ele><time>2026-04-16T09:44:46.82Z</time></trkpt><trkpt lat="45.0905555" lon="9.464391"><ele>50.0</ele><time>2026-04-16T09:44:47.821Z</time></trkpt><trkpt lat="45.0905782" lon="9.4646233"><ele>50.0</ele><time>2026-04-16T09:44:48.821Z</time></trkpt><trkpt lat="45.0906006" lon="9.4648534"><ele>50.0</ele><time>2026-04-16T09:44:49.82Z</time></trkpt><trkpt lat="45.0906221" lon="9.4650813"><ele>50.0</ele><time>2026-04-16T09:44:50.821Z</time></trkpt><trkpt lat="45.0906421" lon="9.465305"><ele>49.66666666666667</ele><time>2026-04-16T09:44:51.821Z</time></trkpt><trkpt lat="45.0906621" lon="9.4655276"><ele>49.33333333333333</ele><time>2026-04-16T09:44:52.821Z</time></trkpt><trkpt lat="45.0906841" lon="9.4657474"><ele>49.0</ele><time>2026-04-16T09:44:53.822Z</time></trkpt><trkpt lat="45.0907035" lon="9.4659666"><ele>49.0</ele><time>2026-04-16T09:44:54.82Z</time></trkpt><trkpt lat="45.0907223" lon="9.4661815"><ele>49.0</ele><time>2026-04-16T09:44:55.821Z</time></trkpt><trkpt lat="45.0907437" lon="9.4663991"><ele>49.0</ele><time>2026-04-16T09:44:56.82Z</time></trkpt><trkpt lat="45.0907663" lon="9.4666176"><ele>49.0</ele><time>2026-04-16T09:44:57.822Z</time></trkpt><trkpt lat="45.0907876" lon="9.4668334"><ele>49.0</ele><time>2026-04-16T09:44:58.821Z</time></trkpt><trkpt lat="45.0908082" lon="9.4670478"><ele>49.0</ele><time>2026-04-16T09:44:59.821Z</time></trkpt><trkpt lat="45.0908288" lon="9.467264"><ele>49.33333333333333</ele><time>2026-04-16T09:45:00.821Z</time></trkpt><trkpt lat="45.090848" lon="9.4674767"><ele>49.66666666666667</ele><time>2026-04-16T09:45:01.82Z</time></trkpt><trkpt lat="45.0908685" lon="9.4676928"><ele>50.0</ele><time>2026-04-16T09:45:02.821Z</time></trkpt><trkpt lat="45.0908867" lon="9.4679062"><ele>50.333333333333336</ele><time>2026-04-16T09:45:03.821Z</time></trkpt><trkpt lat="45.0909062" lon="9.4681199"><ele>50.66666666666667</ele><time>2026-04-16T09:45:04.82Z</time></trkpt><trkpt lat="45.0909261" lon="9.4683376"><ele>51.0</ele><time>2026-04-16T09:45:05.821Z</time></trkpt><trkpt lat="45.0909482" lon="9.4685559"><ele>51.0</ele><time>2026-04-16T09:45:06.82Z</time></trkpt><trkpt lat="45.0909709" lon="9.4687768"><ele>51.0</ele><time>2026-04-16T09:45:07.821Z</time></trkpt><trkpt lat="45.0909929" lon="9.4690015"><ele>51.0</ele><time>2026-04-16T09:45:08.82Z</time></trkpt><trkpt lat="45.091015" lon="9.4692234"><ele>51.0</ele><time>2026-04-16T09:45:09.821Z</time></trkpt><trkpt lat="45.0910384" lon="9.4694494"><ele>51.0</ele><time>2026-04-16T09:45:10.82Z</time></trkpt><trkpt lat="45.0910623" lon="9.4696731"><ele>51.0</ele><time>2026-04-16T09:45:11.822Z</time></trkpt><trkpt lat="45.0910818" lon="9.4698951"><ele>51.0</ele><time>2026-04-16T09:45:12.821Z</time></trkpt><trkpt lat="45.0911027" lon="9.4701164"><ele>51.0</ele><time>2026-04-16T09:45:13.82Z</time></trkpt><trkpt lat="45.0911225" lon="9.4703383"><ele>51.0</ele><time>2026-04-16T09:45:14.82Z</time></trkpt><trkpt lat="45.0911442" lon="9.4705579"><ele>51.0</ele><time>2026-04-16T09:45:15.82Z</time></trkpt><trkpt lat="45.0911695" lon="9.4707769"><ele>51.0</ele><time>2026-04-16T09:45:16.822Z</time></trkpt><trkpt lat="45.091192" lon="9.4709969"><ele>51.0</ele><time>2026-04-16T09:45:17.82Z</time></trkpt><trkpt lat="45.0912125" lon="9.4712148"><ele>50.5</ele><time>2026-04-16T09:45:18.821Z</time></trkpt><trkpt lat="45.0912321" lon="9.4714254"><ele>50.0</ele><time>2026-04-16T09:45:19.82Z</time></trkpt><trkpt lat="45.0912526" lon="9.4716292"><ele>49.5</ele><time>2026-04-16T09:45:20.821Z</time></trkpt><trkpt lat="45.0912722" lon="9.471832"><ele>49.0</ele><time>2026-04-16T09:45:21.82Z</time></trkpt><trkpt lat="45.0912904" lon="9.4720368"><ele>48.75</ele><time>2026-04-16T09:45:22.821Z</time></trkpt><trkpt lat="45.0913082" lon="9.4722324"><ele>48.5</ele><time>2026-04-16T09:45:23.821Z</time></trkpt><trkpt lat="45.0913264" lon="9.4724198"><ele>48.25</ele><time>2026-04-16T09:45:24.82Z</time></trkpt><trkpt lat="45.0913452" lon="9.4726079"><ele>48.0</ele><time>2026-04-16T09:45:25.82Z</time></trkpt><trkpt lat="45.0913638" lon="9.4727936"><ele>48.5</ele><time>2026-04-16T09:45:26.82Z</time></trkpt><trkpt lat="45.09138" lon="9.4729772"><ele>49.0</ele><time>2026-04-16T09:45:27.82Z</time></trkpt><trkpt lat="45.0913949" lon="9.4731634"><ele>49.5</ele><time>2026-04-16T09:45:28.82Z</time></trkpt><trkpt lat="45.0914147" lon="9.473352"><ele>50.0</ele><time>2026-04-16T09:45:29.82Z</time></trkpt><trkpt lat="45.0914333" lon="9.4735427"><ele>50.0</ele><time>2026-04-16T09:45:30.82Z</time></trkpt><trkpt lat="45.0914529" lon="9.4737337"><ele>50.0</ele><time>2026-04-16T09:45:31.821Z</time></trkpt><trkpt lat="45.0914721" lon="9.4739179"><ele>50.0</ele><time>2026-04-16T09:45:32.821Z</time></trkpt><trkpt lat="45.0914886" lon="9.4741039"><ele>50.0</ele><time>2026-04-16T09:45:33.821Z</time></trkpt><trkpt lat="45.091505" lon="9.4742929"><ele>50.0</ele><time>2026-04-16T09:45:34.82Z</time></trkpt><trkpt lat="45.0915223" lon="9.4744833"><ele>50.0</ele><time>2026-04-16T09:45:35.82Z</time></trkpt><trkpt lat="45.0915417" lon="9.4746731"><ele>50.0</ele><time>2026-04-16T09:45:36.82Z</time></trkpt><trkpt lat="45.0915626" lon="9.4748628"><ele>50.0</ele><time>2026-04-16T09:45:37.821Z</time></trkpt><trkpt lat="45.0915788" lon="9.4750522"><ele>50.0</ele><time>2026-04-16T09:45:38.82Z</time></trkpt><trkpt lat="45.0915972" lon="9.4752439"><ele>50.0</ele><time>2026-04-16T09:45:39.821Z</time></trkpt><trkpt lat="45.091614" lon="9.4754368"><ele>50.0</ele><time>2026-04-16T09:45:40.82Z</time></trkpt><trkpt lat="45.0916366" lon="9.475631"><ele>50.0</ele><time>2026-04-16T09:45:41.821Z</time></trkpt><trkpt lat="45.0916564" lon="9.475824"><ele>50.25</ele><time>2026-04-16T09:45:42.821Z</time></trkpt><trkpt lat="45.0916741" lon="9.4760164"><ele>50.5</ele><time>2026-04-16T09:45:43.821Z</time></trkpt><trkpt lat="45.0916876" lon="9.4762086"><ele>50.75</ele><time>2026-04-16T09:45:44.82Z</time></trkpt><trkpt lat="45.0917046" lon="9.4764033"><ele>51.0</ele><time>2026-04-16T09:45:45.82Z</time></trkpt><trkpt lat="45.0917228" lon="9.476596"><ele>51.0</ele><time>2026-04-16T09:45:46.821Z</time></trkpt><trkpt lat="45.0917397" lon="9.4767854"><ele>51.0</ele><time>2026-04-16T09:45:47.82Z</time></trkpt><trkpt lat="45.0917591" lon="9.4769698"><ele>51.0</ele><time>2026-04-16T09:45:48.821Z</time></trkpt><trkpt lat="45.0917775" lon="9.4771566"><ele>51.0</ele><time>2026-04-16T09:45:49.82Z</time></trkpt><trkpt lat="45.0917957" lon="9.4773408"><ele>51.0</ele><time>2026-04-16T09:45:50.821Z</time></trkpt><trkpt lat="45.0918151" lon="9.4775241"><ele>51.0</ele><time>2026-04-16T09:45:51.821Z</time></trkpt><trkpt lat="45.0918356" lon="9.4777077"><ele>51.0</ele><time>2026-04-16T09:45:52.82Z</time></trkpt><trkpt lat="45.0918507" lon="9.4778858"><ele>51.0</ele><time>2026-04-16T09:45:53.82Z</time></trkpt><trkpt lat="45.0918679" lon="9.4780587"><ele>51.25</ele><time>2026-04-16T09:45:54.821Z</time></trkpt><trkpt lat="45.0918838" lon="9.478231"><ele>51.5</ele><time>2026-04-16T09:45:55.821Z</time></trkpt><trkpt lat="45.0919016" lon="9.4784"><ele>51.75</ele><time>2026-04-16T09:45:56.82Z</time></trkpt><trkpt lat="45.091919" lon="9.478571"><ele>52.0</ele><time>2026-04-16T09:45:57.82Z</time></trkpt><trkpt lat="45.0919373" lon="9.4787452"><ele>52.75</ele><time>2026-04-16T09:45:58.82Z</time></trkpt><trkpt lat="45.0919551" lon="9.478924"><ele>53.5</ele><time>2026-04-16T09:45:59.821Z</time></trkpt><trkpt lat="45.0919747" lon="9.4791017"><ele>54.25</ele><time>2026-04-16T09:46:00.821Z</time></trkpt><trkpt lat="45.0919897" lon="9.4792769"><ele>55.0</ele><time>2026-04-16T09:46:01.822Z</time></trkpt><trkpt lat="45.0920051" lon="9.4794439"><ele>55.0</ele><time>2026-04-16T09:46:02.822Z</time></trkpt><trkpt lat="45.0920229" lon="9.4796041"><ele>55.0</ele><time>2026-04-16T09:46:03.82Z</time></trkpt><trkpt lat="45.0920353" lon="9.4797547"><ele>55.0</ele><time>2026-04-16T09:46:04.82Z</time></trkpt><trkpt lat="45.0920495" lon="9.4799012"><ele>55.0</ele><time>2026-04-16T09:46:05.821Z</time></trkpt><trkpt lat="45.0920624" lon="9.4800447"><ele>55.0</ele><time>2026-04-16T09:46:06.82Z</time></trkpt><trkpt lat="45.0920762" lon="9.480193"><ele>55.0</ele><time>2026-04-16T09:46:07.82Z</time></trkpt><trkpt lat="45.0920919" lon="9.480346"><ele>55.0</ele><time>2026-04-16T09:46:08.821Z</time></trkpt><trkpt lat="45.0921057" lon="9.4805051"><ele>55.0</ele><time>2026-04-16T09:46:09.821Z</time></trkpt><trkpt lat="45.0921224" lon="9.4806704"><ele>55.0</ele><time>2026-04-16T09:46:10.821Z</time></trkpt><trkpt lat="45.092142" lon="9.4808402"><ele>55.25</ele><time>2026-04-16T09:46:11.821Z</time></trkpt><trkpt lat="45.0921596" lon="9.481014"><ele>55.5</ele><time>2026-04-16T09:46:12.82Z</time></trkpt><trkpt lat="45.0921737" lon="9.4811909"><ele>55.75</ele><time>2026-04-16T09:46:13.82Z</time></trkpt><trkpt lat="45.0921907" lon="9.4813607"><ele>56.0</ele><time>2026-04-16T09:46:14.821Z</time></trkpt><trkpt lat="45.0922079" lon="9.4815316"><ele>56.0</ele><time>2026-04-16T09:46:15.82Z</time></trkpt><trkpt lat="45.0922236" lon="9.4816971"><ele>56.0</ele><time>2026-04-16T09:46:16.822Z</time></trkpt><trkpt lat="45.0922404" lon="9.4818617"><ele>56.0</ele><time>2026-04-16T09:46:17.822Z</time></trkpt><trkpt lat="45.0922567" lon="9.4820258"><ele>56.0</ele><time>2026-04-16T09:46:18.82Z</time></trkpt><trkpt lat="45.092268" lon="9.4821904"><ele>55.25</ele><time>2026-04-16T09:46:19.821Z</time></trkpt><trkpt lat="45.0922815" lon="9.48235"><ele>54.5</ele><time>2026-04-16T09:46:20.821Z</time></trkpt><trkpt lat="45.0922975" lon="9.4825081"><ele>53.75</ele><time>2026-04-16T09:46:21.821Z</time></trkpt><trkpt lat="45.0923101" lon="9.482672"><ele>53.0</ele><time>2026-04-16T09:46:22.82Z</time></trkpt><trkpt lat="45.0923166" lon="9.482833"><ele>52.5</ele><time>2026-04-16T09:46:23.821Z</time></trkpt><trkpt lat="45.0923141" lon="9.4830014"><ele>52.0</ele><time>2026-04-16T09:46:24.821Z</time></trkpt><trkpt lat="45.0922958" lon="9.4831651"><ele>51.5</ele><time>2026-04-16T09:46:25.821Z</time></trkpt><trkpt lat="45.0922597" lon="9.4833242"><ele>51.0</ele><time>2026-04-16T09:46:26.821Z</time></trkpt><trkpt lat="45.0922131" lon="9.4834826"><ele>51.0</ele><time>2026-04-16T09:46:27.819Z</time></trkpt><trkpt lat="45.0921604" lon="9.4836468"><ele>51.0</ele><time>2026-04-16T09:46:28.819Z</time></trkpt><trkpt lat="45.0921085" lon="9.4838157"><ele>51.0</ele><time>2026-04-16T09:46:29.82Z</time></trkpt><trkpt lat="45.0920568" lon="9.4839878"><ele>51.0</ele><time>2026-04-16T09:46:30.82Z</time></trkpt><trkpt lat="45.0920009" lon="9.4841627"><ele>51.25</ele><time>2026-04-16T09:46:31.82Z</time></trkpt><trkpt lat="45.0919448" lon="9.4843419"><ele>51.5</ele><time>2026-04-16T09:46:32.82Z</time></trkpt><trkpt lat="45.0918891" lon="9.484523"><ele>51.75</ele><time>2026-04-16T09:46:33.82Z</time></trkpt><trkpt lat="45.0918336" lon="9.4847027"><ele>52.0</ele><time>2026-04-16T09:46:34.819Z</time></trkpt><trkpt lat="45.0917764" lon="9.4848845"><ele>51.75</ele><time>2026-04-16T09:46:35.82Z</time></trkpt><trkpt lat="45.0917214" lon="9.48506"><ele>51.5</ele><time>2026-04-16T09:46:36.819Z</time></trkpt><trkpt lat="45.0916669" lon="9.4852294"><ele>51.25</ele><time>2026-04-16T09:46:37.819Z</time></trkpt><trkpt lat="45.091612" lon="9.4853994"><ele>51.0</ele><time>2026-04-16T09:46:38.82Z</time></trkpt><trkpt lat="45.091556" lon="9.4855651"><ele>51.0</ele><time>2026-04-16T09:46:39.82Z</time></trkpt><trkpt lat="45.0914898" lon="9.4857262"><ele>51.0</ele><time>2026-04-16T09:46:40.819Z</time></trkpt><trkpt lat="45.0914159" lon="9.4858832"><ele>51.0</ele><time>2026-04-16T09:46:41.819Z</time></trkpt><trkpt lat="45.0913399" lon="9.4860442"><ele>51.0</ele><time>2026-04-16T09:46:42.819Z</time></trkpt><trkpt lat="45.0912601" lon="9.4862022"><ele>51.5</ele><time>2026-04-16T09:46:43.82Z</time></trkpt><trkpt lat="45.0911781" lon="9.4863619"><ele>52.0</ele><time>2026-04-16T09:46:44.82Z</time></trkpt><trkpt lat="45.0910949" lon="9.4865207"><ele>52.5</ele><time>2026-04-16T09:46:45.819Z</time></trkpt><trkpt lat="45.0910097" lon="9.4866853"><ele>53.0</ele><time>2026-04-16T09:46:46.82Z</time></trkpt><trkpt lat="45.0909237" lon="9.4868486"><ele>53.0</ele><time>2026-04-16T09:46:47.82Z</time></trkpt><trkpt lat="45.0908374" lon="9.4870131"><ele>53.0</ele><time>2026-04-16T09:46:48.82Z</time></trkpt><trkpt lat="45.0907536" lon="9.4871703"><ele>53.0</ele><time>2026-04-16T09:46:49.82Z</time></trkpt><trkpt lat="45.0906731" lon="9.4873291"><ele>53.0</ele><time>2026-04-16T09:46:50.819Z</time></trkpt><trkpt lat="45.0905932" lon="9.4874872"><ele>52.5</ele><time>2026-04-16T09:46:51.819Z</time></trkpt><trkpt lat="45.0905087" lon="9.4876414"><ele>52.0</ele><time>2026-04-16T09:46:52.819Z</time></trkpt><trkpt lat="45.0904294" lon="9.4877864"><ele>51.5</ele><time>2026-04-16T09:46:53.821Z</time></trkpt><trkpt lat="45.0903586" lon="9.4879228"><ele>51.0</ele><time>2026-04-16T09:46:54.819Z</time></trkpt><trkpt lat="45.0902942" lon="9.4880478"><ele>51.0</ele><time>2026-04-16T09:46:55.819Z</time></trkpt><trkpt lat="45.0902385" lon="9.4881563"><ele>51.0</ele><time>2026-04-16T09:46:56.82Z</time></trkpt><trkpt lat="45.0901871" lon="9.4882495"><ele>51.0</ele><time>2026-04-16T09:46:57.82Z</time></trkpt><trkpt lat="45.0901432" lon="9.4883281"><ele>51.0</ele><time>2026-04-16T09:46:58.819Z</time></trkpt><trkpt lat="45.0900654" lon="9.4884298"><ele>51.0</ele><time>2026-04-16T09:47:00.82Z</time></trkpt><trkpt lat="45.0899865" lon="9.4884487"><ele>51.0</ele><time>2026-04-16T09:47:02.82Z</time></trkpt><trkpt lat="45.0899107" lon="9.488412"><ele>51.0</ele><time>2026-04-16T09:47:04.819Z</time></trkpt><trkpt lat="45.0898109" lon="9.4883224"><ele>51.0</ele><time>2026-04-16T09:47:06.821Z</time></trkpt><trkpt lat="45.089748" lon="9.4882668"><ele>51.0</ele><time>2026-04-16T09:47:07.819Z</time></trkpt><trkpt lat="45.0896781" lon="9.4882088"><ele>51.0</ele><time>2026-04-16T09:47:08.819Z</time></trkpt><trkpt lat="45.0895984" lon="9.4881454"><ele>51.0</ele><time>2026-04-16T09:47:09.82Z</time></trkpt><trkpt lat="45.0895156" lon="9.4880744"><ele>51.0</ele><time>2026-04-16T09:47:10.82Z</time></trkpt><trkpt lat="45.0894263" lon="9.4879974"><ele>51.0</ele><time>2026-04-16T09:47:11.82Z</time></trkpt><trkpt lat="45.0893314" lon="9.4879221"><ele>51.0</ele><time>2026-04-16T09:47:12.819Z</time></trkpt><trkpt lat="45.0892363" lon="9.4878523"><ele>51.0</ele><time>2026-04-16T09:47:13.82Z</time></trkpt><trkpt lat="45.0891429" lon="9.4877774"><ele>51.0</ele><time>2026-04-16T09:47:14.82Z</time></trkpt><trkpt lat="45.0890474" lon="9.4877023"><ele>50.8</ele><time>2026-04-16T09:47:15.82Z</time></trkpt><trkpt lat="45.0889511" lon="9.4876255"><ele>50.599999999999994</ele><time>2026-04-16T09:47:16.82Z</time></trkpt><trkpt lat="45.088856" lon="9.4875473"><ele>50.4</ele><time>2026-04-16T09:47:17.82Z</time></trkpt><trkpt lat="45.0887638" lon="9.4874695"><ele>50.2</ele><time>2026-04-16T09:47:18.82Z</time></trkpt><trkpt lat="45.0886725" lon="9.4873962"><ele>50.0</ele><time>2026-04-16T09:47:19.819Z</time></trkpt><trkpt lat="45.0885813" lon="9.4873198"><ele>50.0</ele><time>2026-04-16T09:47:20.82Z</time></trkpt><trkpt lat="45.088494" lon="9.4872456"><ele>50.0</ele><time>2026-04-16T09:47:21.82Z</time></trkpt><trkpt lat="45.0884041" lon="9.487172"><ele>50.0</ele><time>2026-04-16T09:47:22.819Z</time></trkpt><trkpt lat="45.0883188" lon="9.4870896"><ele>50.0</ele><time>2026-04-16T09:47:23.82Z</time></trkpt><trkpt lat="45.0882373" lon="9.4869989"><ele>50.0</ele><time>2026-04-16T09:47:24.82Z</time></trkpt><trkpt lat="45.0881602" lon="9.4869012"><ele>50.4</ele><time>2026-04-16T09:47:25.82Z</time></trkpt><trkpt lat="45.0880829" lon="9.4868019"><ele>50.8</ele><time>2026-04-16T09:47:26.82Z</time></trkpt><trkpt lat="45.0880119" lon="9.4867001"><ele>51.2</ele><time>2026-04-16T09:47:27.819Z</time></trkpt><trkpt lat="45.0879432" lon="9.4866049"><ele>51.6</ele><time>2026-04-16T09:47:28.819Z</time></trkpt><trkpt lat="45.0878788" lon="9.4865042"><ele>52.0</ele><time>2026-04-16T09:47:29.819Z</time></trkpt><trkpt lat="45.0878165" lon="9.4864087"><ele>51.99999999999999</ele><time>2026-04-16T09:47:30.819Z</time></trkpt><trkpt lat="45.0877613" lon="9.4863143"><ele>52.0</ele><time>2026-04-16T09:47:31.819Z</time></trkpt><trkpt lat="45.0877075" lon="9.4862242"><ele>52.0</ele><time>2026-04-16T09:47:32.819Z</time></trkpt><trkpt lat="45.087664" lon="9.4861432"><ele>52.0</ele><time>2026-04-16T09:47:33.82Z</time></trkpt><trkpt lat="45.0876235" lon="9.4860709"><ele>51.99999999999999</ele><time>2026-04-16T09:47:34.819Z</time></trkpt><trkpt lat="45.0875548" lon="9.4859434"><ele>52.0</ele><time>2026-04-16T09:47:36.82Z</time></trkpt><trkpt lat="45.0874931" lon="9.4858386"><ele>52.0</ele><time>2026-04-16T09:47:38.821Z</time></trkpt><trkpt lat="45.0874362" lon="9.4857388"><ele>52.0</ele><time>2026-04-16T09:47:40.819Z</time></trkpt><trkpt lat="45.0873785" lon="9.4856485"><ele>52.0</ele><time>2026-04-16T09:47:42.82Z</time></trkpt><trkpt lat="45.0873273" lon="9.485558"><ele>52.0</ele><time>2026-04-16T09:47:44.82Z</time></trkpt><trkpt lat="45.087265" lon="9.4854641"><ele>52.0</ele><time>2026-04-16T09:47:46.82Z</time></trkpt><trkpt lat="45.0871824" lon="9.485372"><ele>52.400000000000006</ele><time>2026-04-16T09:47:48.82Z</time></trkpt><trkpt lat="45.087078" lon="9.4853005"><ele>52.800000000000004</ele><time>2026-04-16T09:47:50.82Z</time></trkpt><trkpt lat="45.0869567" lon="9.4852434"><ele>53.2</ele><time>2026-04-16T09:47:52.82Z</time></trkpt><trkpt lat="45.0868894" lon="9.4852127"><ele>53.6</ele><time>2026-04-16T09:47:53.82Z</time></trkpt><trkpt lat="45.0868202" lon="9.4851918"><ele>54.0</ele><time>2026-04-16T09:47:54.819Z</time></trkpt><trkpt lat="45.0867467" lon="9.4851707"><ele>54.0</ele><time>2026-04-16T09:47:55.821Z</time></trkpt><trkpt lat="45.0866764" lon="9.4851515"><ele>54.0</ele><time>2026-04-16T09:47:56.819Z</time></trkpt><trkpt lat="45.0866087" lon="9.4851288"><ele>54.0</ele><time>2026-04-16T09:47:57.82Z</time></trkpt><trkpt lat="45.0865395" lon="9.485111"><ele>54.0</ele><time>2026-04-16T09:47:58.819Z</time></trkpt><trkpt lat="45.0864691" lon="9.4850942"><ele>54.0</ele><time>2026-04-16T09:47:59.82Z</time></trkpt><trkpt lat="45.0864006" lon="9.4850741"><ele>54.0</ele><time>2026-04-16T09:48:00.821Z</time></trkpt><trkpt lat="45.0863283" lon="9.4850506"><ele>54.0</ele><time>2026-04-16T09:48:01.82Z</time></trkpt><trkpt lat="45.0862522" lon="9.4850328"><ele>53.400000000000006</ele><time>2026-04-16T09:48:02.82Z</time></trkpt><trkpt lat="45.0861706" lon="9.4850145"><ele>52.800000000000004</ele><time>2026-04-16T09:48:03.82Z</time></trkpt><trkpt lat="45.0860799" lon="9.4849913"><ele>52.2</ele><time>2026-04-16T09:48:04.819Z</time></trkpt><trkpt lat="45.085986" lon="9.484965"><ele>51.599999999999994</ele><time>2026-04-16T09:48:05.82Z</time></trkpt><trkpt lat="45.0858935" lon="9.4849334"><ele>51.0</ele><time>2026-04-16T09:48:06.82Z</time></trkpt><trkpt lat="45.0858001" lon="9.4849024"><ele>51.0</ele><time>2026-04-16T09:48:07.819Z</time></trkpt><trkpt lat="45.0857105" lon="9.4848778"><ele>51.0</ele><time>2026-04-16T09:48:08.82Z</time></trkpt><trkpt lat="45.0856272" lon="9.4848495"><ele>51.0</ele><time>2026-04-16T09:48:09.819Z</time></trkpt><trkpt lat="45.0855481" lon="9.4848263"><ele>51.0</ele><time>2026-04-16T09:48:10.819Z</time></trkpt><trkpt lat="45.0854721" lon="9.4848103"><ele>51.0</ele><time>2026-04-16T09:48:11.82Z</time></trkpt><trkpt lat="45.0854007" lon="9.4847952"><ele>51.0</ele><time>2026-04-16T09:48:12.821Z</time></trkpt><trkpt lat="45.08533" lon="9.4847789"><ele>51.0</ele><time>2026-04-16T09:48:13.819Z</time></trkpt><trkpt lat="45.085267" lon="9.4847643"><ele>51.0</ele><time>2026-04-16T09:48:14.82Z</time></trkpt><trkpt lat="45.0851582" lon="9.4847338"><ele>51.0</ele><time>2026-04-16T09:48:16.82Z</time></trkpt><trkpt lat="45.0850665" lon="9.4847003"><ele>51.0</ele><time>2026-04-16T09:48:18.819Z</time></trkpt><trkpt lat="45.0849825" lon="9.4846794"><ele>51.0</ele><time>2026-04-16T09:48:20.819Z</time></trkpt><trkpt lat="45.0848879" lon="9.4846599"><ele>50.833333333333336</ele><time>2026-04-16T09:48:22.82Z</time></trkpt><trkpt lat="45.0848008" lon="9.4846365"><ele>50.66666666666667</ele><time>2026-04-16T09:48:24.82Z</time></trkpt><trkpt lat="45.084718" lon="9.4845943"><ele>50.5</ele><time>2026-04-16T09:48:27.82Z</time></trkpt><trkpt lat="45.0846159" lon="9.4845934"><ele>50.333333333333336</ele><time>2026-04-16T09:48:30.821Z</time></trkpt><trkpt lat="45.0845306" lon="9.4845745"><ele>50.16666666666667</ele><time>2026-04-16T09:48:32.819Z</time></trkpt><trkpt lat="45.0844617" lon="9.4845415"><ele>50.0</ele><time>2026-04-16T09:48:34.821Z</time></trkpt><trkpt lat="45.0843793" lon="9.4845053"><ele>49.833333333333336</ele><time>2026-04-16T09:48:37.82Z</time></trkpt><trkpt lat="45.0843362" lon="9.484432"><ele>49.66666666666667</ele><time>2026-04-16T09:50:02.82Z</time></trkpt><trkpt lat="45.0843052" lon="9.4843544"><ele>49.5</ele><time>2026-04-16T09:50:03.819Z</time></trkpt><trkpt lat="45.0842706" lon="9.4842261"><ele>49.33333333333333</ele><time>2026-04-16T09:50:05.82Z</time></trkpt><trkpt lat="45.0842258" lon="9.4840691"><ele>49.166666666666664</ele><time>2026-04-16T09:50:21.819Z</time></trkpt><trkpt lat="45.0841879" lon="9.4839498"><ele>49.0</ele><time>2026-04-16T09:50:23.82Z</time></trkpt><trkpt lat="45.0841619" lon="9.4838454"><ele>48.99999999999999</ele><time>2026-04-16T09:50:25.821Z</time></trkpt><trkpt lat="45.0841511" lon="9.4837556"><ele>49.0</ele><time>2026-04-16T09:50:26.82Z</time></trkpt><trkpt lat="45.0841497" lon="9.4835943"><ele>49.0</ele><time>2026-04-16T09:50:28.82Z</time></trkpt><trkpt lat="45.0841577" lon="9.4834754"><ele>49.0</ele><time>2026-04-16T09:50:29.82Z</time></trkpt><trkpt lat="45.0841687" lon="9.4833685"><ele>48.99999999999999</ele><time>2026-04-16T09:50:30.82Z</time></trkpt><trkpt lat="45.0841751" lon="9.483271"><ele>49.0</ele><time>2026-04-16T09:50:31.82Z</time></trkpt><trkpt lat="45.084179" lon="9.4831672"><ele>48.99999999999999</ele><time>2026-04-16T09:50:32.819Z</time></trkpt><trkpt lat="45.0841774" lon="9.4830579"><ele>49.0</ele><time>2026-04-16T09:50:33.819Z</time></trkpt><trkpt lat="45.0841724" lon="9.4829439"><ele>49.0</ele><time>2026-04-16T09:50:34.82Z</time></trkpt><trkpt lat="45.0841681" lon="9.4828303"><ele>49.0</ele><time>2026-04-16T09:50:35.82Z</time></trkpt><trkpt lat="45.0841691" lon="9.4827166"><ele>48.99999999999999</ele><time>2026-04-16T09:50:36.819Z</time></trkpt><trkpt lat="45.0841694" lon="9.4826086"><ele>49.0</ele><time>2026-04-16T09:50:37.82Z</time></trkpt><trkpt lat="45.0841675" lon="9.4825001"><ele>49.0</ele><time>2026-04-16T09:50:38.82Z</time></trkpt><trkpt lat="45.0841683" lon="9.4823891"><ele>49.0</ele><time>2026-04-16T09:50:39.819Z</time></trkpt><trkpt lat="45.0841683" lon="9.482263"><ele>49.0</ele><time>2026-04-16T09:50:40.82Z</time></trkpt><trkpt lat="45.084172" lon="9.4821294"><ele>49.0</ele><time>2026-04-16T09:50:41.82Z</time></trkpt><trkpt lat="45.0841728" lon="9.4819915"><ele>49.0</ele><time>2026-04-16T09:50:42.82Z</time></trkpt><trkpt lat="45.0841732" lon="9.481849"><ele>49.2</ele><time>2026-04-16T09:50:43.82Z</time></trkpt><trkpt lat="45.084175" lon="9.4817009"><ele>49.400000000000006</ele><time>2026-04-16T09:50:44.819Z</time></trkpt><trkpt lat="45.0841758" lon="9.4815509"><ele>49.6</ele><time>2026-04-16T09:50:45.82Z</time></trkpt><trkpt lat="45.0841805" lon="9.4814006"><ele>49.8</ele><time>2026-04-16T09:50:46.82Z</time></trkpt><trkpt lat="45.0841817" lon="9.4812561"><ele>50.0</ele><time>2026-04-16T09:50:47.819Z</time></trkpt><trkpt lat="45.0841832" lon="9.4811243"><ele>50.00000000000001</ele><time>2026-04-16T09:50:48.82Z</time></trkpt><trkpt lat="45.084178" lon="9.4810072"><ele>50.0</ele><time>2026-04-16T09:50:49.82Z</time></trkpt><trkpt lat="45.084166" lon="9.4809081"><ele>50.0</ele><time>2026-04-16T09:50:50.82Z</time></trkpt><trkpt lat="45.0840981" lon="9.4807704"><ele>50.0</ele><time>2026-04-16T09:50:52.819Z</time></trkpt><trkpt lat="45.0840269" lon="9.4807128"><ele>50.00000000000001</ele><time>2026-04-16T09:50:53.819Z</time></trkpt><trkpt lat="45.0839403" lon="9.4806642"><ele>50.0</ele><time>2026-04-16T09:50:54.82Z</time></trkpt><trkpt lat="45.0838559" lon="9.4806261"><ele>50.0</ele><time>2026-04-16T09:50:55.82Z</time></trkpt><trkpt lat="45.0837805" lon="9.4805863"><ele>50.0</ele><time>2026-04-16T09:50:56.82Z</time></trkpt><trkpt lat="45.0837125" lon="9.4805542"><ele>50.0</ele><time>2026-04-16T09:50:57.82Z</time></trkpt><trkpt lat="45.0836006" lon="9.4805056"><ele>50.0</ele><time>2026-04-16T09:50:59.82Z</time></trkpt><trkpt lat="45.0834813" lon="9.4805172"><ele>50.0</ele><time>2026-04-16T09:51:01.82Z</time></trkpt><trkpt lat="45.0834098" lon="9.4805532"><ele>50.0</ele><time>2026-04-16T09:51:02.819Z</time></trkpt><trkpt lat="45.0833313" lon="9.4805983"><ele>50.0</ele><time>2026-04-16T09:51:03.82Z</time></trkpt><trkpt lat="45.0832456" lon="9.4806553"><ele>50.0</ele><time>2026-04-16T09:51:04.82Z</time></trkpt><trkpt lat="45.0831446" lon="9.4807262"><ele>50.0</ele><time>2026-04-16T09:51:05.821Z</time></trkpt><trkpt lat="45.0830395" lon="9.4808058"><ele>50.0</ele><time>2026-04-16T09:51:06.82Z</time></trkpt><trkpt lat="45.0829421" lon="9.480882"><ele>50.0</ele><time>2026-04-16T09:51:07.819Z</time></trkpt><trkpt lat="45.0828517" lon="9.4809494"><ele>50.0</ele><time>2026-04-16T09:51:08.82Z</time></trkpt><trkpt lat="45.0827697" lon="9.4810035"><ele>50.0</ele><time>2026-04-16T09:51:09.82Z</time></trkpt><trkpt lat="45.0826836" lon="9.4810452"><ele>50.0</ele><time>2026-04-16T09:51:10.82Z</time></trkpt><trkpt lat="45.0826" lon="9.4810695"><ele>50.0</ele><time>2026-04-16T09:51:11.819Z</time></trkpt><trkpt lat="45.0825164" lon="9.4810756"><ele>50.0</ele><time>2026-04-16T09:51:12.82Z</time></trkpt><trkpt lat="45.0824245" lon="9.4810699"><ele>50.0</ele><time>2026-04-16T09:51:13.82Z</time></trkpt><trkpt lat="45.0823246" lon="9.4810509"><ele>50.0</ele><time>2026-04-16T09:51:14.819Z</time></trkpt><trkpt lat="45.0822249" lon="9.4810169"><ele>50.0</ele><time>2026-04-16T09:51:15.82Z</time></trkpt><trkpt lat="45.0821169" lon="9.4809703"><ele>50.0</ele><time>2026-04-16T09:51:16.821Z</time></trkpt><trkpt lat="45.0820062" lon="9.4809183"><ele>50.0</ele><time>2026-04-16T09:51:17.82Z</time></trkpt><trkpt lat="45.0818941" lon="9.4808642"><ele>50.0</ele><time>2026-04-16T09:51:18.819Z</time></trkpt><trkpt lat="45.0817815" lon="9.480809"><ele>50.0</ele><time>2026-04-16T09:51:19.82Z</time></trkpt><trkpt lat="45.0816673" lon="9.4807515"><ele>50.0</ele><time>2026-04-16T09:51:20.819Z</time></trkpt><trkpt lat="45.0815499" lon="9.4806919"><ele>50.25</ele><time>2026-04-16T09:51:21.821Z</time></trkpt><trkpt lat="45.0814349" lon="9.480631"><ele>50.5</ele><time>2026-04-16T09:51:22.82Z</time></trkpt><trkpt lat="45.0813194" lon="9.4805717"><ele>50.75</ele><time>2026-04-16T09:51:23.819Z</time></trkpt><trkpt lat="45.0812052" lon="9.4805142"><ele>51.0</ele><time>2026-04-16T09:51:24.819Z</time></trkpt><trkpt lat="45.0810921" lon="9.480456"><ele>50.5</ele><time>2026-04-16T09:51:25.82Z</time></trkpt><trkpt lat="45.0809761" lon="9.4803933"><ele>50.0</ele><time>2026-04-16T09:51:26.819Z</time></trkpt><trkpt lat="45.0808605" lon="9.4803302"><ele>49.5</ele><time>2026-04-16T09:51:27.821Z</time></trkpt><trkpt lat="45.0807457" lon="9.4802683"><ele>49.0</ele><time>2026-04-16T09:51:28.82Z</time></trkpt><trkpt lat="45.0806306" lon="9.4802074"><ele>49.0</ele><time>2026-04-16T09:51:29.82Z</time></trkpt><trkpt lat="45.0805138" lon="9.4801463"><ele>49.0</ele><time>2026-04-16T09:51:30.82Z</time></trkpt><trkpt lat="45.080397" lon="9.4800854"><ele>49.0</ele><time>2026-04-16T09:51:31.82Z</time></trkpt><trkpt lat="45.0802803" lon="9.4800245"><ele>49.0</ele><time>2026-04-16T09:51:32.819Z</time></trkpt><trkpt lat="45.0801655" lon="9.4799637"><ele>49.0</ele><time>2026-04-16T09:51:33.82Z</time></trkpt><trkpt lat="45.0800513" lon="9.4799002"><ele>49.0</ele><time>2026-04-16T09:51:34.82Z</time></trkpt><trkpt lat="45.0799395" lon="9.4798431"><ele>49.0</ele><time>2026-04-16T09:51:35.82Z</time></trkpt><trkpt lat="45.0798321" lon="9.4797882"><ele>49.0</ele><time>2026-04-16T09:51:36.82Z</time></trkpt><trkpt lat="45.0797232" lon="9.4797359"><ele>49.5</ele><time>2026-04-16T09:51:37.819Z</time></trkpt><trkpt lat="45.0796148" lon="9.4796774"><ele>50.0</ele><time>2026-04-16T09:51:38.82Z</time></trkpt><trkpt lat="45.0795072" lon="9.47962"><ele>50.5</ele><time>2026-04-16T09:51:39.82Z</time></trkpt><trkpt lat="45.0794027" lon="9.4795653"><ele>51.0</ele><time>2026-04-16T09:51:40.819Z</time></trkpt><trkpt lat="45.0792976" lon="9.4795111"><ele>51.0</ele><time>2026-04-16T09:51:41.82Z</time></trkpt><trkpt lat="45.079195" lon="9.4794528"><ele>51.0</ele><time>2026-04-16T09:51:42.82Z</time></trkpt><trkpt lat="45.0790928" lon="9.4793894"><ele>51.0</ele><time>2026-04-16T09:51:43.82Z</time></trkpt><trkpt lat="45.0789917" lon="9.4793242"><ele>51.0</ele><time>2026-04-16T09:51:44.82Z</time></trkpt><trkpt lat="45.0788995" lon="9.4792605"><ele>51.0</ele><time>2026-04-16T09:51:45.819Z</time></trkpt><trkpt lat="45.0788153" lon="9.4791968"><ele>51.0</ele><time>2026-04-16T09:51:46.821Z</time></trkpt><trkpt lat="45.0787346" lon="9.4791391"><ele>51.0</ele><time>2026-04-16T09:51:47.819Z</time></trkpt><trkpt lat="45.0786534" lon="9.4790929"><ele>51.0</ele><time>2026-04-16T09:51:48.819Z</time></trkpt><trkpt lat="45.0785694" lon="9.4790603"><ele>51.0</ele><time>2026-04-16T09:51:49.82Z</time></trkpt><trkpt lat="45.0784839" lon="9.4790454"><ele>51.0</ele><time>2026-04-16T09:51:50.821Z</time></trkpt><trkpt lat="45.0783914" lon="9.4790463"><ele>51.0</ele><time>2026-04-16T09:51:51.819Z</time></trkpt><trkpt lat="45.0782937" lon="9.4790552"><ele>50.8</ele><time>2026-04-16T09:51:52.82Z</time></trkpt><trkpt lat="45.078192" lon="9.4790744"><ele>50.599999999999994</ele><time>2026-04-16T09:51:53.82Z</time></trkpt><trkpt lat="45.078083" lon="9.4790999"><ele>50.4</ele><time>2026-04-16T09:51:54.819Z</time></trkpt><trkpt lat="45.0779715" lon="9.4791286"><ele>50.2</ele><time>2026-04-16T09:51:55.821Z</time></trkpt><trkpt lat="45.0778611" lon="9.4791551"><ele>50.0</ele><time>2026-04-16T09:51:56.82Z</time></trkpt><trkpt lat="45.0777476" lon="9.479178"><ele>50.0</ele><time>2026-04-16T09:51:57.82Z</time></trkpt><trkpt lat="45.077633" lon="9.4791994"><ele>50.0</ele><time>2026-04-16T09:51:58.82Z</time></trkpt><trkpt lat="45.0775251" lon="9.4792235"><ele>50.0</ele><time>2026-04-16T09:51:59.82Z</time></trkpt><trkpt lat="45.0774262" lon="9.4792456"><ele>50.0</ele><time>2026-04-16T09:52:00.819Z</time></trkpt><trkpt lat="45.0773271" lon="9.4792675"><ele>50.0</ele><time>2026-04-16T09:52:01.82Z</time></trkpt><trkpt lat="45.0772202" lon="9.4792859"><ele>50.2</ele><time>2026-04-16T09:52:02.82Z</time></trkpt><trkpt lat="45.0771135" lon="9.4793034"><ele>50.4</ele><time>2026-04-16T09:52:03.82Z</time></trkpt><trkpt lat="45.0770067" lon="9.4793227"><ele>50.599999999999994</ele><time>2026-04-16T09:52:04.819Z</time></trkpt><trkpt lat="45.0769043" lon="9.4793464"><ele>50.8</ele><time>2026-04-16T09:52:05.82Z</time></trkpt><trkpt lat="45.0768014" lon="9.479376"><ele>51.0</ele><time>2026-04-16T09:52:06.821Z</time></trkpt><trkpt lat="45.0767012" lon="9.4794025"><ele>51.199999999999996</ele><time>2026-04-16T09:52:07.82Z</time></trkpt><trkpt lat="45.0765959" lon="9.4794283"><ele>51.4</ele><time>2026-04-16T09:52:08.82Z</time></trkpt><trkpt lat="45.0764897" lon="9.4794541"><ele>51.6</ele><time>2026-04-16T09:52:09.82Z</time></trkpt><trkpt lat="45.0763785" lon="9.4794773"><ele>51.8</ele><time>2026-04-16T09:52:10.82Z</time></trkpt><trkpt lat="45.0762677" lon="9.4795063"><ele>52.0</ele><time>2026-04-16T09:52:11.82Z</time></trkpt><trkpt lat="45.0761576" lon="9.4795322"><ele>52.0</ele><time>2026-04-16T09:52:12.82Z</time></trkpt><trkpt lat="45.0760424" lon="9.4795587"><ele>52.0</ele><time>2026-04-16T09:52:13.819Z</time></trkpt><trkpt lat="45.0759222" lon="9.4795849"><ele>52.0</ele><time>2026-04-16T09:52:14.82Z</time></trkpt><trkpt lat="45.075801" lon="9.4796126"><ele>52.0</ele><time>2026-04-16T09:52:15.82Z</time></trkpt><trkpt lat="45.075679" lon="9.479642"><ele>51.5</ele><time>2026-04-16T09:52:16.819Z</time></trkpt><trkpt lat="45.0755564" lon="9.4796709"><ele>51.0</ele><time>2026-04-16T09:52:17.82Z</time></trkpt><trkpt lat="45.0754347" lon="9.4796991"><ele>50.5</ele><time>2026-04-16T09:52:18.821Z</time></trkpt><trkpt lat="45.0753109" lon="9.4797281"><ele>50.0</ele><time>2026-04-16T09:52:19.82Z</time></trkpt><trkpt lat="45.075184" lon="9.4797556"><ele>50.0</ele><time>2026-04-16T09:52:20.819Z</time></trkpt><trkpt lat="45.0750577" lon="9.479787"><ele>50.0</ele><time>2026-04-16T09:52:21.819Z</time></trkpt><trkpt lat="45.0749317" lon="9.4798137"><ele>50.0</ele><time>2026-04-16T09:52:22.819Z</time></trkpt><trkpt lat="45.0748035" lon="9.4798422"><ele>50.0</ele><time>2026-04-16T09:52:23.82Z</time></trkpt><trkpt lat="45.0746764" lon="9.4798688"><ele>50.25</ele><time>2026-04-16T09:52:24.82Z</time></trkpt><trkpt lat="45.0745467" lon="9.4798964"><ele>50.5</ele><time>2026-04-16T09:52:25.819Z</time></trkpt><trkpt lat="45.0744205" lon="9.4799292"><ele>50.75</ele><time>2026-04-16T09:52:26.82Z</time></trkpt><trkpt lat="45.074298" lon="9.4799611"><ele>51.0</ele><time>2026-04-16T09:52:27.821Z</time></trkpt><trkpt lat="45.0741805" lon="9.4799907"><ele>51.0</ele><time>2026-04-16T09:52:28.819Z</time></trkpt><trkpt lat="45.0740692" lon="9.4800134"><ele>51.0</ele><time>2026-04-16T09:52:29.819Z</time></trkpt><trkpt lat="45.073963" lon="9.4800366"><ele>51.0</ele><time>2026-04-16T09:52:30.821Z</time></trkpt><trkpt lat="45.0738587" lon="9.4800624"><ele>51.0</ele><time>2026-04-16T09:52:31.819Z</time></trkpt><trkpt lat="45.0737572" lon="9.4800883"><ele>51.0</ele><time>2026-04-16T09:52:32.82Z</time></trkpt><trkpt lat="45.0736661" lon="9.4801165"><ele>51.0</ele><time>2026-04-16T09:52:33.82Z</time></trkpt><trkpt lat="45.0735724" lon="9.4801564"><ele>51.0</ele><time>2026-04-16T09:52:34.819Z</time></trkpt><trkpt lat="45.0734842" lon="9.480204"><ele>51.0</ele><time>2026-04-16T09:52:35.819Z</time></trkpt><trkpt lat="45.0733997" lon="9.4802572"><ele>51.0</ele><time>2026-04-16T09:52:36.819Z</time></trkpt><trkpt lat="45.0733255" lon="9.4803158"><ele>51.0</ele><time>2026-04-16T09:52:37.818Z</time></trkpt><trkpt lat="45.0732658" lon="9.4803824"><ele>51.0</ele><time>2026-04-16T09:52:38.818Z</time></trkpt><trkpt lat="45.0732042" lon="9.4804518"><ele>51.4</ele><time>2026-04-16T09:52:39.819Z</time></trkpt><trkpt lat="45.0731306" lon="9.4805259"><ele>51.8</ele><time>2026-04-16T09:52:40.818Z</time></trkpt><trkpt lat="45.0730472" lon="9.4806075"><ele>52.199999999999996</ele><time>2026-04-16T09:52:41.819Z</time></trkpt><trkpt lat="45.072951" lon="9.4806905"><ele>52.599999999999994</ele><time>2026-04-16T09:52:42.819Z</time></trkpt><trkpt lat="45.0728559" lon="9.4807749"><ele>53.0</ele><time>2026-04-16T09:52:43.818Z</time></trkpt><trkpt lat="45.0727676" lon="9.4808624"><ele>53.0</ele><time>2026-04-16T09:52:44.819Z</time></trkpt><trkpt lat="45.0726823" lon="9.4809358"><ele>53.0</ele><time>2026-04-16T09:52:45.819Z</time></trkpt><trkpt lat="45.0725981" lon="9.4809906"><ele>53.0</ele><time>2026-04-16T09:52:46.819Z</time></trkpt><trkpt lat="45.0725118" lon="9.4810314"><ele>53.0</ele><time>2026-04-16T09:52:47.819Z</time></trkpt><trkpt lat="45.0724253" lon="9.4810488"><ele>53.0</ele><time>2026-04-16T09:52:48.819Z</time></trkpt><trkpt lat="45.0723428" lon="9.481048"><ele>53.16666666666667</ele><time>2026-04-16T09:52:49.819Z</time></trkpt><trkpt lat="45.0722622" lon="9.481045"><ele>53.333333333333336</ele><time>2026-04-16T09:52:50.819Z</time></trkpt><trkpt lat="45.0721782" lon="9.4810325"><ele>53.5</ele><time>2026-04-16T09:52:51.818Z</time></trkpt><trkpt lat="45.072091" lon="9.4810174"><ele>53.66666666666667</ele><time>2026-04-16T09:52:52.82Z</time></trkpt><trkpt lat="45.0720022" lon="9.4809951"><ele>53.833333333333336</ele><time>2026-04-16T09:52:53.819Z</time></trkpt><trkpt lat="45.071907" lon="9.4809722"><ele>54.0</ele><time>2026-04-16T09:52:54.818Z</time></trkpt><trkpt lat="45.0718162" lon="9.4809481"><ele>54.0</ele><time>2026-04-16T09:52:55.818Z</time></trkpt><trkpt lat="45.0717256" lon="9.4809229"><ele>54.00000000000001</ele><time>2026-04-16T09:52:56.819Z</time></trkpt><trkpt lat="45.0716367" lon="9.4809002"><ele>54.00000000000001</ele><time>2026-04-16T09:52:57.819Z</time></trkpt><trkpt lat="45.0715466" lon="9.4808796"><ele>54.0</ele><time>2026-04-16T09:52:58.818Z</time></trkpt><trkpt lat="45.0714565" lon="9.4808698"><ele>54.0</ele><time>2026-04-16T09:52:59.819Z</time></trkpt><trkpt lat="45.0713647" lon="9.4808706"><ele>53.800000000000004</ele><time>2026-04-16T09:53:00.819Z</time></trkpt><trkpt lat="45.0712722" lon="9.4808886"><ele>53.60000000000001</ele><time>2026-04-16T09:53:01.818Z</time></trkpt><trkpt lat="45.0711748" lon="9.4809188"><ele>53.4</ele><time>2026-04-16T09:53:02.819Z</time></trkpt><trkpt lat="45.0710765" lon="9.4809665"><ele>53.2</ele><time>2026-04-16T09:53:03.819Z</time></trkpt><trkpt lat="45.0709774" lon="9.4810176"><ele>53.0</ele><time>2026-04-16T09:53:04.819Z</time></trkpt><trkpt lat="45.0708784" lon="9.4810711"><ele>53.0</ele><time>2026-04-16T09:53:05.818Z</time></trkpt><trkpt lat="45.0707788" lon="9.4811208"><ele>53.0</ele><time>2026-04-16T09:53:06.82Z</time></trkpt><trkpt lat="45.0706804" lon="9.4811727"><ele>53.0</ele><time>2026-04-16T09:53:07.818Z</time></trkpt><trkpt lat="45.0705845" lon="9.4812245"><ele>53.0</ele><time>2026-04-16T09:53:08.818Z</time></trkpt><trkpt lat="45.0704813" lon="9.4812731"><ele>53.0</ele><time>2026-04-16T09:53:09.819Z</time></trkpt><trkpt lat="45.0703783" lon="9.4813221"><ele>52.8</ele><time>2026-04-16T09:53:10.819Z</time></trkpt><trkpt lat="45.070275" lon="9.4813721"><ele>52.599999999999994</ele><time>2026-04-16T09:53:11.818Z</time></trkpt><trkpt lat="45.0701728" lon="9.4814191"><ele>52.400000000000006</ele><time>2026-04-16T09:53:12.819Z</time></trkpt><trkpt lat="45.0700693" lon="9.4814657"><ele>52.2</ele><time>2026-04-16T09:53:13.819Z</time></trkpt><trkpt lat="45.0699636" lon="9.4815131"><ele>52.0</ele><time>2026-04-16T09:53:14.819Z</time></trkpt><trkpt lat="45.0698599" lon="9.4815609"><ele>52.0</ele><time>2026-04-16T09:53:15.818Z</time></trkpt><trkpt lat="45.0697577" lon="9.4816087"><ele>52.0</ele><time>2026-04-16T09:53:16.819Z</time></trkpt><trkpt lat="45.069652" lon="9.4816545"><ele>52.0</ele><time>2026-04-16T09:53:17.819Z</time></trkpt><trkpt lat="45.0695483" lon="9.4817003"><ele>52.0</ele><time>2026-04-16T09:53:18.819Z</time></trkpt><trkpt lat="45.0694454" lon="9.4817491"><ele>52.0</ele><time>2026-04-16T09:53:19.819Z</time></trkpt><trkpt lat="45.0693451" lon="9.4817969"><ele>52.0</ele><time>2026-04-16T09:53:20.818Z</time></trkpt><trkpt lat="45.0692442" lon="9.4818406"><ele>52.0</ele><time>2026-04-16T09:53:21.818Z</time></trkpt><trkpt lat="45.0691403" lon="9.481886"><ele>52.0</ele><time>2026-04-16T09:53:22.818Z</time></trkpt><trkpt lat="45.0690386" lon="9.4819334"><ele>52.0</ele><time>2026-04-16T09:53:23.818Z</time></trkpt><trkpt lat="45.0689384" lon="9.4819789"><ele>52.0</ele><time>2026-04-16T09:53:24.819Z</time></trkpt><trkpt lat="45.068833" lon="9.4820236"><ele>52.2</ele><time>2026-04-16T09:53:25.819Z</time></trkpt><trkpt lat="45.0687288" lon="9.4820653"><ele>52.400000000000006</ele><time>2026-04-16T09:53:26.819Z</time></trkpt><trkpt lat="45.0686236" lon="9.4821107"><ele>52.599999999999994</ele><time>2026-04-16T09:53:27.818Z</time></trkpt><trkpt lat="45.0685186" lon="9.4821609"><ele>52.8</ele><time>2026-04-16T09:53:28.819Z</time></trkpt><trkpt lat="45.0684074" lon="9.4822137"><ele>53.0</ele><time>2026-04-16T09:53:29.819Z</time></trkpt><trkpt lat="45.0682949" lon="9.4822718"><ele>53.25</ele><time>2026-04-16T09:53:30.82Z</time></trkpt><trkpt lat="45.0681825" lon="9.4823263"><ele>53.5</ele><time>2026-04-16T09:53:31.819Z</time></trkpt><trkpt lat="45.0680726" lon="9.4823782"><ele>53.75</ele><time>2026-04-16T09:53:32.818Z</time></trkpt><trkpt lat="45.0679621" lon="9.482429"><ele>54.0</ele><time>2026-04-16T09:53:33.819Z</time></trkpt><trkpt lat="45.0678498" lon="9.4824824"><ele>54.0</ele><time>2026-04-16T09:53:34.818Z</time></trkpt><trkpt lat="45.0677377" lon="9.4825364"><ele>54.0</ele><time>2026-04-16T09:53:35.819Z</time></trkpt><trkpt lat="45.0676241" lon="9.4825903"><ele>54.0</ele><time>2026-04-16T09:53:36.819Z</time></trkpt><trkpt lat="45.0675114" lon="9.4826444"><ele>54.0</ele><time>2026-04-16T09:53:37.82Z</time></trkpt><trkpt lat="45.0674033" lon="9.482695"><ele>54.400000000000006</ele><time>2026-04-16T09:53:38.819Z</time></trkpt><trkpt lat="45.0672939" lon="9.4827448"><ele>54.800000000000004</ele><time>2026-04-16T09:53:39.819Z</time></trkpt><trkpt lat="45.0671877" lon="9.4827951"><ele>55.199999999999996</ele><time>2026-04-16T09:53:40.818Z</time></trkpt><trkpt lat="45.0670872" lon="9.4828444"><ele>55.599999999999994</ele><time>2026-04-16T09:53:41.819Z</time></trkpt><trkpt lat="45.0669927" lon="9.4828866"><ele>56.0</ele><time>2026-04-16T09:53:42.819Z</time></trkpt><trkpt lat="45.0668956" lon="9.48293"><ele>55.8</ele><time>2026-04-16T09:53:43.818Z</time></trkpt><trkpt lat="45.0667951" lon="9.4829737"><ele>55.599999999999994</ele><time>2026-04-16T09:53:44.818Z</time></trkpt><trkpt lat="45.0666931" lon="9.4830179"><ele>55.4</ele><time>2026-04-16T09:53:45.819Z</time></trkpt><trkpt lat="45.0665924" lon="9.4830605"><ele>55.2</ele><time>2026-04-16T09:53:46.819Z</time></trkpt><trkpt lat="45.0665019" lon="9.4831014"><ele>55.0</ele><time>2026-04-16T09:53:47.819Z</time></trkpt><trkpt lat="45.0664185" lon="9.483138"><ele>54.99999999999999</ele><time>2026-04-16T09:53:48.819Z</time></trkpt><trkpt lat="45.066333" lon="9.4831667"><ele>55.0</ele><time>2026-04-16T09:53:49.818Z</time></trkpt><trkpt lat="45.0662483" lon="9.4831818"><ele>55.0</ele><time>2026-04-16T09:53:50.818Z</time></trkpt><trkpt lat="45.0661678" lon="9.4831763"><ele>55.0</ele><time>2026-04-16T09:53:51.819Z</time></trkpt><trkpt lat="45.0660922" lon="9.483157"><ele>54.99999999999999</ele><time>2026-04-16T09:53:52.818Z</time></trkpt><trkpt lat="45.0660175" lon="9.4831156"><ele>55.0</ele><time>2026-04-16T09:53:53.82Z</time></trkpt><trkpt lat="45.0659396" lon="9.4830488"><ele>55.0</ele><time>2026-04-16T09:53:54.818Z</time></trkpt><trkpt lat="45.0658565" lon="9.4829658"><ele>55.0</ele><time>2026-04-16T09:53:55.82Z</time></trkpt><trkpt lat="45.0657643" lon="9.4828838"><ele>55.0</ele><time>2026-04-16T09:53:56.818Z</time></trkpt><trkpt lat="45.0656661" lon="9.4828086"><ele>55.0</ele><time>2026-04-16T09:53:57.819Z</time></trkpt><trkpt lat="45.0655639" lon="9.4827413"><ele>55.0</ele><time>2026-04-16T09:53:58.819Z</time></trkpt><trkpt lat="45.0654589" lon="9.4826851"><ele>55.0</ele><time>2026-04-16T09:53:59.819Z</time></trkpt><trkpt lat="45.0653538" lon="9.4826331"><ele>55.0</ele><time>2026-04-16T09:54:00.819Z</time></trkpt><trkpt lat="45.0652495" lon="9.4825836"><ele>55.0</ele><time>2026-04-16T09:54:01.819Z</time></trkpt><trkpt lat="45.0651508" lon="9.4825373"><ele>55.0</ele><time>2026-04-16T09:54:02.818Z</time></trkpt><trkpt lat="45.0650593" lon="9.4824922"><ele>55.0</ele><time>2026-04-16T09:54:03.819Z</time></trkpt><trkpt lat="45.0649718" lon="9.4824452"><ele>55.166666666666664</ele><time>2026-04-16T09:54:04.819Z</time></trkpt><trkpt lat="45.0648888" lon="9.4823947"><ele>55.33333333333333</ele><time>2026-04-16T09:54:05.819Z</time></trkpt><trkpt lat="45.0648087" lon="9.4823437"><ele>55.5</ele><time>2026-04-16T09:54:06.819Z</time></trkpt><trkpt lat="45.0647379" lon="9.482295"><ele>55.66666666666667</ele><time>2026-04-16T09:54:07.819Z</time></trkpt><trkpt lat="45.0646736" lon="9.4822588"><ele>55.833333333333336</ele><time>2026-04-16T09:54:08.819Z</time></trkpt><trkpt lat="45.0645584" lon="9.4822242"><ele>56.0</ele><time>2026-04-16T09:54:10.819Z</time></trkpt><trkpt lat="45.0644621" lon="9.4822061"><ele>56.00000000000001</ele><time>2026-04-16T09:54:12.819Z</time></trkpt><trkpt lat="45.064351" lon="9.4822136"><ele>56.0</ele><time>2026-04-16T09:54:14.818Z</time></trkpt><trkpt lat="45.0642852" lon="9.4822324"><ele>56.0</ele><time>2026-04-16T09:54:15.819Z</time></trkpt><trkpt lat="45.0642132" lon="9.4822528"><ele>56.0</ele><time>2026-04-16T09:54:16.819Z</time></trkpt><trkpt lat="45.0641378" lon="9.4822698"><ele>56.00000000000001</ele><time>2026-04-16T09:54:17.819Z</time></trkpt><trkpt lat="45.0640668" lon="9.4822756"><ele>56.0</ele><time>2026-04-16T09:54:18.819Z</time></trkpt><trkpt lat="45.0639952" lon="9.482273"><ele>56.0</ele><time>2026-04-16T09:54:19.82Z</time></trkpt><trkpt lat="45.0639217" lon="9.4822692"><ele>56.0</ele><time>2026-04-16T09:54:20.819Z</time></trkpt><trkpt lat="45.063843" lon="9.4822654"><ele>56.0</ele><time>2026-04-16T09:54:21.819Z</time></trkpt><trkpt lat="45.0637626" lon="9.4822641"><ele>56.0</ele><time>2026-04-16T09:54:22.82Z</time></trkpt><trkpt lat="45.0636893" lon="9.482265"><ele>56.0</ele><time>2026-04-16T09:54:23.818Z</time></trkpt><trkpt lat="45.0636228" lon="9.4822684"><ele>56.0</ele><time>2026-04-16T09:54:24.819Z</time></trkpt><trkpt lat="45.0635516" lon="9.4822752"><ele>56.0</ele><time>2026-04-16T09:54:25.819Z</time></trkpt><trkpt lat="45.0634737" lon="9.4822836"><ele>56.00000000000001</ele><time>2026-04-16T09:54:26.819Z</time></trkpt><trkpt lat="45.0633934" lon="9.4822906"><ele>56.0</ele><time>2026-04-16T09:54:27.819Z</time></trkpt><trkpt lat="45.0633129" lon="9.4822959"><ele>56.0</ele><time>2026-04-16T09:54:28.819Z</time></trkpt><trkpt lat="45.0632367" lon="9.4822997"><ele>56.0</ele><time>2026-04-16T09:54:29.818Z</time></trkpt><trkpt lat="45.0631695" lon="9.4822995"><ele>56.00000000000001</ele><time>2026-04-16T09:54:30.818Z</time></trkpt><trkpt lat="45.0630472" lon="9.4822905"><ele>56.0</ele><time>2026-04-16T09:54:32.818Z</time></trkpt><trkpt lat="45.0629357" lon="9.4822959"><ele>56.16666666666667</ele><time>2026-04-16T09:54:34.819Z</time></trkpt><trkpt lat="45.0628493" lon="9.4822998"><ele>56.333333333333336</ele><time>2026-04-16T09:54:36.818Z</time></trkpt><trkpt lat="45.0627813" lon="9.4823145"><ele>56.5</ele><time>2026-04-16T09:54:38.819Z</time></trkpt><trkpt lat="45.0627164" lon="9.4823882"><ele>56.66666666666667</ele><time>2026-04-16T09:54:40.819Z</time></trkpt><trkpt lat="45.0626859" lon="9.48247"><ele>56.833333333333336</ele><time>2026-04-16T09:54:41.819Z</time></trkpt><trkpt lat="45.0626581" lon="9.4825714"><ele>57.0</ele><time>2026-04-16T09:54:42.82Z</time></trkpt><trkpt lat="45.0626307" lon="9.4826786"><ele>57.0</ele><time>2026-04-16T09:54:43.819Z</time></trkpt><trkpt lat="45.062599" lon="9.4827951"><ele>57.0</ele><time>2026-04-16T09:54:44.818Z</time></trkpt><trkpt lat="45.0625612" lon="9.4829161"><ele>57.0</ele><time>2026-04-16T09:54:45.818Z</time></trkpt><trkpt lat="45.0625218" lon="9.4830439"><ele>57.0</ele><time>2026-04-16T09:54:46.819Z</time></trkpt><trkpt lat="45.0624835" lon="9.4831722"><ele>57.0</ele><time>2026-04-16T09:54:47.819Z</time></trkpt><trkpt lat="45.0624504" lon="9.4832971"><ele>57.0</ele><time>2026-04-16T09:54:48.818Z</time></trkpt><trkpt lat="45.0624216" lon="9.4834201"><ele>57.0</ele><time>2026-04-16T09:54:49.818Z</time></trkpt><trkpt lat="45.0623943" lon="9.483549"><ele>57.0</ele><time>2026-04-16T09:54:50.819Z</time></trkpt><trkpt lat="45.0623685" lon="9.4836879"><ele>57.0</ele><time>2026-04-16T09:54:51.819Z</time></trkpt><trkpt lat="45.0623441" lon="9.4838407"><ele>57.0</ele><time>2026-04-16T09:54:52.819Z</time></trkpt><trkpt lat="45.0623178" lon="9.4840061"><ele>57.0</ele><time>2026-04-16T09:54:53.819Z</time></trkpt><trkpt lat="45.0622931" lon="9.4841806"><ele>57.0</ele><time>2026-04-16T09:54:54.818Z</time></trkpt><trkpt lat="45.0622705" lon="9.4843612"><ele>57.0</ele><time>2026-04-16T09:54:55.819Z</time></trkpt><trkpt lat="45.0622478" lon="9.4845475"><ele>57.0</ele><time>2026-04-16T09:54:56.818Z</time></trkpt><trkpt lat="45.0622256" lon="9.4847329"><ele>57.25</ele><time>2026-04-16T09:54:57.819Z</time></trkpt><trkpt lat="45.0622033" lon="9.4849173"><ele>57.5</ele><time>2026-04-16T09:54:58.818Z</time></trkpt><trkpt lat="45.0621795" lon="9.4850952"><ele>57.75</ele><time>2026-04-16T09:54:59.819Z</time></trkpt><trkpt lat="45.062158" lon="9.4852704"><ele>58.0</ele><time>2026-04-16T09:55:00.818Z</time></trkpt><trkpt lat="45.0621347" lon="9.4854373"><ele>58.33333333333333</ele><time>2026-04-16T09:55:01.82Z</time></trkpt><trkpt lat="45.0621111" lon="9.4855868"><ele>58.666666666666664</ele><time>2026-04-16T09:55:02.819Z</time></trkpt><trkpt lat="45.062089" lon="9.4857165"><ele>59.0</ele><time>2026-04-16T09:55:03.819Z</time></trkpt><trkpt lat="45.0620667" lon="9.4858314"><ele>59.33333333333333</ele><time>2026-04-16T09:55:04.818Z</time></trkpt><trkpt lat="45.0620481" lon="9.4859219"><ele>59.666666666666664</ele><time>2026-04-16T09:55:05.819Z</time></trkpt><trkpt lat="45.0620263" lon="9.486016"><ele>60.0</ele><time>2026-04-16T09:55:06.819Z</time></trkpt><trkpt lat="45.0619988" lon="9.4861185"><ele>60.0</ele><time>2026-04-16T09:55:07.82Z</time></trkpt><trkpt lat="45.0619707" lon="9.4862314"><ele>60.0</ele><time>2026-04-16T09:55:08.818Z</time></trkpt><trkpt lat="45.0619427" lon="9.486358"><ele>60.0</ele><time>2026-04-16T09:55:09.818Z</time></trkpt><trkpt lat="45.0619145" lon="9.4864931"><ele>60.0</ele><time>2026-04-16T09:55:10.819Z</time></trkpt><trkpt lat="45.0618883" lon="9.4866369"><ele>60.0</ele><time>2026-04-16T09:55:11.818Z</time></trkpt><trkpt lat="45.0618571" lon="9.4867886"><ele>59.75</ele><time>2026-04-16T09:55:12.818Z</time></trkpt><trkpt lat="45.0618233" lon="9.4869509"><ele>59.5</ele><time>2026-04-16T09:55:13.819Z</time></trkpt><trkpt lat="45.0617864" lon="9.4871214"><ele>59.25</ele><time>2026-04-16T09:55:14.82Z</time></trkpt><trkpt lat="45.061752" lon="9.4873014"><ele>59.0</ele><time>2026-04-16T09:55:15.819Z</time></trkpt><trkpt lat="45.0617191" lon="9.4874852"><ele>58.75</ele><time>2026-04-16T09:55:16.818Z</time></trkpt><trkpt lat="45.0616849" lon="9.4876721"><ele>58.5</ele><time>2026-04-16T09:55:17.818Z</time></trkpt><trkpt lat="45.0616507" lon="9.4878561"><ele>58.25</ele><time>2026-04-16T09:55:18.819Z</time></trkpt><trkpt lat="45.0616162" lon="9.488031"><ele>58.0</ele><time>2026-04-16T09:55:19.819Z</time></trkpt><trkpt lat="45.061582" lon="9.4881911"><ele>59.2</ele><time>2026-04-16T09:55:20.819Z</time></trkpt><trkpt lat="45.0615541" lon="9.4883222"><ele>60.4</ele><time>2026-04-16T09:55:21.819Z</time></trkpt><trkpt lat="45.0615346" lon="9.4884202"><ele>61.60000000000001</ele><time>2026-04-16T09:55:22.82Z</time></trkpt><trkpt lat="45.0615056" lon="9.4885764"><ele>62.800000000000004</ele><time>2026-04-16T09:55:24.818Z</time></trkpt><trkpt lat="45.0614768" lon="9.48872"><ele>64.0</ele><time>2026-04-16T09:55:26.819Z</time></trkpt><trkpt lat="45.0614583" lon="9.4888192"><ele>64.8</ele><time>2026-04-16T09:55:27.818Z</time></trkpt><trkpt lat="45.0614367" lon="9.488933"><ele>65.60000000000001</ele><time>2026-04-16T09:55:28.819Z</time></trkpt><trkpt lat="45.0614168" lon="9.489047"><ele>66.4</ele><time>2026-04-16T09:55:29.819Z</time></trkpt><trkpt lat="45.0613938" lon="9.4891816"><ele>67.2</ele><time>2026-04-16T09:55:30.819Z</time></trkpt><trkpt lat="45.0613702" lon="9.4893286"><ele>68.0</ele><time>2026-04-16T09:55:31.82Z</time></trkpt><trkpt lat="45.0613418" lon="9.4894771"><ele>69.4</ele><time>2026-04-16T09:55:32.819Z</time></trkpt><trkpt lat="45.0613189" lon="9.4896143"><ele>70.8</ele><time>2026-04-16T09:55:33.819Z</time></trkpt><trkpt lat="45.0612968" lon="9.4897439"><ele>72.2</ele><time>2026-04-16T09:55:34.819Z</time></trkpt><trkpt lat="45.0612759" lon="9.4898638"><ele>73.6</ele><time>2026-04-16T09:55:35.818Z</time></trkpt><trkpt lat="45.0612531" lon="9.4899857"><ele>75.0</ele><time>2026-04-16T09:55:36.819Z</time></trkpt><trkpt lat="45.0612312" lon="9.4901111"><ele>75.0</ele><time>2026-04-16T09:55:37.819Z</time></trkpt><trkpt lat="45.0612108" lon="9.4902431"><ele>75.0</ele><time>2026-04-16T09:55:38.819Z</time></trkpt><trkpt lat="45.0611897" lon="9.4903647"><ele>75.0</ele><time>2026-04-16T09:55:39.819Z</time></trkpt><trkpt lat="45.0611673" lon="9.4904894"><ele>75.0</ele><time>2026-04-16T09:55:40.819Z</time></trkpt><trkpt lat="45.0611449" lon="9.4906184"><ele>75.0</ele><time>2026-04-16T09:55:41.818Z</time></trkpt><trkpt lat="45.0611248" lon="9.4907519"><ele>74.33333333333333</ele><time>2026-04-16T09:55:42.818Z</time></trkpt><trkpt lat="45.0611036" lon="9.4908861"><ele>73.66666666666667</ele><time>2026-04-16T09:55:43.819Z</time></trkpt><trkpt lat="45.0610872" lon="9.491007"><ele>73.0</ele><time>2026-04-16T09:55:44.818Z</time></trkpt><trkpt lat="45.0610729" lon="9.4911101"><ele>72.33333333333334</ele><time>2026-04-16T09:55:45.819Z</time></trkpt><trkpt lat="45.0610511" lon="9.4912505"><ele>71.66666666666667</ele><time>2026-04-16T09:55:47.82Z</time></trkpt><trkpt lat="45.0610274" lon="9.4913515"><ele>71.0</ele><time>2026-04-16T09:55:50.819Z</time></trkpt><trkpt lat="45.0609627" lon="9.49142"><ele>70.39999999999999</ele><time>2026-04-16T09:55:53.818Z</time></trkpt><trkpt lat="45.0608864" lon="9.4914417"><ele>69.8</ele><time>2026-04-16T09:55:55.819Z</time></trkpt><trkpt lat="45.0607688" lon="9.491448"><ele>69.19999999999999</ele><time>2026-04-16T09:55:57.819Z</time></trkpt><trkpt lat="45.0606618" lon="9.4914678"><ele>68.6</ele><time>2026-04-16T09:55:59.819Z</time></trkpt><trkpt lat="45.0605555" lon="9.4914842"><ele>68.0</ele><time>2026-04-16T09:56:01.819Z</time></trkpt><trkpt lat="45.0604311" lon="9.4915005"><ele>68.0</ele><time>2026-04-16T09:56:03.819Z</time></trkpt><trkpt lat="45.0603679" lon="9.4915056"><ele>68.0</ele><time>2026-04-16T09:56:04.818Z</time></trkpt><trkpt lat="45.0603025" lon="9.4915166"><ele>68.0</ele><time>2026-04-16T09:56:05.818Z</time></trkpt><trkpt lat="45.0601841" lon="9.4915206"><ele>68.0</ele><time>2026-04-16T09:56:07.819Z</time></trkpt><trkpt lat="45.0600745" lon="9.4915316"><ele>68.0</ele><time>2026-04-16T09:56:09.819Z</time></trkpt><trkpt lat="45.0599948" lon="9.4915378"><ele>68.0</ele><time>2026-04-16T09:56:11.819Z</time></trkpt><trkpt lat="45.0599101" lon="9.4914904"><ele>68.16666666666667</ele><time>2026-04-16T09:56:14.819Z</time></trkpt><trkpt lat="45.0598223" lon="9.4914398"><ele>68.33333333333334</ele><time>2026-04-16T09:56:17.819Z</time></trkpt><trkpt lat="45.0597574" lon="9.4914033"><ele>68.5</ele><time>2026-04-16T09:56:19.819Z</time></trkpt><trkpt lat="45.0596924" lon="9.4913382"><ele>68.66666666666667</ele><time>2026-04-16T09:56:21.819Z</time></trkpt><trkpt lat="45.0596137" lon="9.4913066"><ele>68.83333333333333</ele><time>2026-04-16T09:56:23.818Z</time></trkpt><trkpt lat="45.0595633" lon="9.4913887"><ele>69.0</ele><time>2026-04-16T09:56:25.818Z</time></trkpt><trkpt lat="45.0595859" lon="9.4914862"><ele>69.0</ele><time>2026-04-16T09:56:26.82Z</time></trkpt><trkpt lat="45.0596176" lon="9.491656"><ele>69.0</ele><time>2026-04-16T09:56:28.819Z</time></trkpt><trkpt lat="45.0596199" lon="9.4917597"><ele>69.0</ele><time>2026-04-16T09:56:29.818Z</time></trkpt><trkpt lat="45.0596091" lon="9.4918825"><ele>69.0</ele><time>2026-04-16T09:56:30.818Z</time></trkpt><trkpt lat="45.0595974" lon="9.4920127"><ele>69.0</ele><time>2026-04-16T09:56:31.819Z</time></trkpt><trkpt lat="45.0595735" lon="9.4921539"><ele>68.60000000000001</ele><time>2026-04-16T09:56:32.818Z</time></trkpt><trkpt lat="45.0595478" lon="9.4923033"><ele>68.2</ele><time>2026-04-16T09:56:33.82Z</time></trkpt><trkpt lat="45.0595207" lon="9.4924621"><ele>67.80000000000001</ele><time>2026-04-16T09:56:34.819Z</time></trkpt><trkpt lat="45.0594892" lon="9.4926182"><ele>67.4</ele><time>2026-04-16T09:56:35.819Z</time></trkpt><trkpt lat="45.0594574" lon="9.4927627"><ele>67.0</ele><time>2026-04-16T09:56:36.818Z</time></trkpt><trkpt lat="45.0594257" lon="9.4929026"><ele>66.6</ele><time>2026-04-16T09:56:37.819Z</time></trkpt><trkpt lat="45.0593971" lon="9.4930422"><ele>66.2</ele><time>2026-04-16T09:56:38.819Z</time></trkpt><trkpt lat="45.0593655" lon="9.4931892"><ele>65.8</ele><time>2026-04-16T09:56:39.818Z</time></trkpt><trkpt lat="45.059331" lon="9.493338"><ele>65.4</ele><time>2026-04-16T09:56:40.818Z</time></trkpt><trkpt lat="45.0592989" lon="9.493491"><ele>65.0</ele><time>2026-04-16T09:56:41.818Z</time></trkpt><trkpt lat="45.0592719" lon="9.4936328"><ele>65.16666666666667</ele><time>2026-04-16T09:56:42.819Z</time></trkpt><trkpt lat="45.0592437" lon="9.4937684"><ele>65.33333333333334</ele><time>2026-04-16T09:56:43.819Z</time></trkpt><trkpt lat="45.0592188" lon="9.4938922"><ele>65.5</ele><time>2026-04-16T09:56:44.819Z</time></trkpt><trkpt lat="45.0592046" lon="9.4940057"><ele>65.66666666666667</ele><time>2026-04-16T09:56:45.819Z</time></trkpt><trkpt lat="45.0592147" lon="9.494113"><ele>65.83333333333333</ele><time>2026-04-16T09:56:46.818Z</time></trkpt><trkpt lat="45.0592443" lon="9.4941981"><ele>66.0</ele><time>2026-04-16T09:56:47.819Z</time></trkpt><trkpt lat="45.0593446" lon="9.4943077"><ele>66.0</ele><time>2026-04-16T09:56:49.818Z</time></trkpt><trkpt lat="45.0594159" lon="9.4943518"><ele>66.0</ele><time>2026-04-16T09:56:50.819Z</time></trkpt><trkpt lat="45.0595013" lon="9.4943936"><ele>66.0</ele><time>2026-04-16T09:56:51.819Z</time></trkpt><trkpt lat="45.0595913" lon="9.4944356"><ele>66.0</ele><time>2026-04-16T09:56:52.818Z</time></trkpt><trkpt lat="45.0596712" lon="9.4944805"><ele>66.0</ele><time>2026-04-16T09:56:53.819Z</time></trkpt><trkpt lat="45.0597436" lon="9.4945352"><ele>66.0</ele><time>2026-04-16T09:56:54.819Z</time></trkpt><trkpt lat="45.0598118" lon="9.4946024"><ele>66.16666666666667</ele><time>2026-04-16T09:56:55.818Z</time></trkpt><trkpt lat="45.0598793" lon="9.4946859"><ele>66.33333333333333</ele><time>2026-04-16T09:56:56.818Z</time></trkpt><trkpt lat="45.0599429" lon="9.4947719"><ele>66.5</ele><time>2026-04-16T09:56:57.819Z</time></trkpt><trkpt lat="45.0599971" lon="9.4948622"><ele>66.66666666666666</ele><time>2026-04-16T09:56:58.818Z</time></trkpt><trkpt lat="45.0600433" lon="9.4949676"><ele>66.83333333333333</ele><time>2026-04-16T09:56:59.819Z</time></trkpt><trkpt lat="45.0600781" lon="9.4950864"><ele>67.0</ele><time>2026-04-16T09:57:00.818Z</time></trkpt><trkpt lat="45.0601077" lon="9.4952084"><ele>66.6</ele><time>2026-04-16T09:57:01.819Z</time></trkpt><trkpt lat="45.0601466" lon="9.4953221"><ele>66.2</ele><time>2026-04-16T09:57:02.819Z</time></trkpt><trkpt lat="45.0602011" lon="9.4954278"><ele>65.8</ele><time>2026-04-16T09:57:03.819Z</time></trkpt><trkpt lat="45.0602678" lon="9.4955283"><ele>65.4</ele><time>2026-04-16T09:57:04.818Z</time></trkpt><trkpt lat="45.0603481" lon="9.495609"><ele>65.0</ele><time>2026-04-16T09:57:05.818Z</time></trkpt><trkpt lat="45.0604382" lon="9.4956747"><ele>65.0</ele><time>2026-04-16T09:57:06.82Z</time></trkpt><trkpt lat="45.0605327" lon="9.4957226"><ele>65.0</ele><time>2026-04-16T09:57:07.818Z</time></trkpt><trkpt lat="45.0606232" lon="9.4957625"><ele>65.0</ele><time>2026-04-16T09:57:08.819Z</time></trkpt><trkpt lat="45.0607241" lon="9.4958034"><ele>65.0</ele><time>2026-04-16T09:57:09.819Z</time></trkpt><trkpt lat="45.0608149" lon="9.4958477"><ele>65.0</ele><time>2026-04-16T09:57:10.819Z</time></trkpt><trkpt lat="45.0608949" lon="9.4958937"><ele>64.66666666666667</ele><time>2026-04-16T09:57:11.818Z</time></trkpt><trkpt lat="45.0609638" lon="9.4959439"><ele>64.33333333333334</ele><time>2026-04-16T09:57:12.819Z</time></trkpt><trkpt lat="45.0610109" lon="9.496016"><ele>64.0</ele><time>2026-04-16T09:57:13.82Z</time></trkpt><trkpt lat="45.061045" lon="9.496106"><ele>63.66666666666667</ele><time>2026-04-16T09:57:14.818Z</time></trkpt><trkpt lat="45.0610699" lon="9.4962158"><ele>63.333333333333336</ele><time>2026-04-16T09:57:15.819Z</time></trkpt><trkpt lat="45.0610963" lon="9.4963402"><ele>63.0</ele><time>2026-04-16T09:57:16.819Z</time></trkpt><trkpt lat="45.0611227" lon="9.4964727"><ele>62.599999999999994</ele><time>2026-04-16T09:57:17.819Z</time></trkpt><trkpt lat="45.0611424" lon="9.4966045"><ele>62.199999999999996</ele><time>2026-04-16T09:57:18.818Z</time></trkpt><trkpt lat="45.0611639" lon="9.4967442"><ele>61.8</ele><time>2026-04-16T09:57:19.819Z</time></trkpt><trkpt lat="45.0611744" lon="9.4968885"><ele>61.4</ele><time>2026-04-16T09:57:20.819Z</time></trkpt><trkpt lat="45.0611722" lon="9.4970418"><ele>61.0</ele><time>2026-04-16T09:57:21.819Z</time></trkpt><trkpt lat="45.0611613" lon="9.4972093"><ele>60.75</ele><time>2026-04-16T09:57:22.819Z</time></trkpt><trkpt lat="45.0611456" lon="9.4973898"><ele>60.5</ele><time>2026-04-16T09:57:23.819Z</time></trkpt><trkpt lat="45.0611294" lon="9.4975795"><ele>60.25</ele><time>2026-04-16T09:57:24.819Z</time></trkpt><trkpt lat="45.0611134" lon="9.4977647"><ele>60.0</ele><time>2026-04-16T09:57:25.82Z</time></trkpt><trkpt lat="45.0610946" lon="9.4979386"><ele>59.8</ele><time>2026-04-16T09:57:26.818Z</time></trkpt><trkpt lat="45.0610792" lon="9.4981024"><ele>59.6</ele><time>2026-04-16T09:57:27.819Z</time></trkpt><trkpt lat="45.0610654" lon="9.4982582"><ele>59.400000000000006</ele><time>2026-04-16T09:57:28.818Z</time></trkpt><trkpt lat="45.0610528" lon="9.4984015"><ele>59.2</ele><time>2026-04-16T09:57:29.819Z</time></trkpt><trkpt lat="45.0610436" lon="9.4985393"><ele>59.0</ele><time>2026-04-16T09:57:30.819Z</time></trkpt><trkpt lat="45.0610392" lon="9.4986711"><ele>58.6</ele><time>2026-04-16T09:57:31.819Z</time></trkpt><trkpt lat="45.0610466" lon="9.4988015"><ele>58.2</ele><time>2026-04-16T09:57:32.819Z</time></trkpt><trkpt lat="45.0610801" lon="9.4989245"><ele>57.800000000000004</ele><time>2026-04-16T09:57:33.82Z</time></trkpt><trkpt lat="45.0611304" lon="9.4990333"><ele>57.400000000000006</ele><time>2026-04-16T09:57:34.818Z</time></trkpt><trkpt lat="45.0612" lon="9.4991272"><ele>57.0</ele><time>2026-04-16T09:57:35.818Z</time></trkpt><trkpt lat="45.0612834" lon="9.4992135"><ele>57.0</ele><time>2026-04-16T09:57:36.819Z</time></trkpt><trkpt lat="45.0613725" lon="9.499285"><ele>57.0</ele><time>2026-04-16T09:57:37.819Z</time></trkpt><trkpt lat="45.0614599" lon="9.4993389"><ele>57.0</ele><time>2026-04-16T09:57:38.819Z</time></trkpt><trkpt lat="45.0615473" lon="9.4993768"><ele>57.0</ele><time>2026-04-16T09:57:39.818Z</time></trkpt><trkpt lat="45.0616327" lon="9.4994042"><ele>57.0</ele><time>2026-04-16T09:57:40.819Z</time></trkpt><trkpt lat="45.0617223" lon="9.499426"><ele>57.0</ele><time>2026-04-16T09:57:41.819Z</time></trkpt><trkpt lat="45.0618125" lon="9.4994514"><ele>57.0</ele><time>2026-04-16T09:57:42.818Z</time></trkpt><trkpt lat="45.0619078" lon="9.4994783"><ele>57.0</ele><time>2026-04-16T09:57:43.818Z</time></trkpt><trkpt lat="45.0619974" lon="9.4995023"><ele>57.0</ele><time>2026-04-16T09:57:44.818Z</time></trkpt><trkpt lat="45.0620693" lon="9.4995213"><ele>57.0</ele><time>2026-04-16T09:57:45.819Z</time></trkpt><trkpt lat="45.0621629" lon="9.4995617"><ele>57.0</ele><time>2026-04-16T09:57:47.819Z</time></trkpt><trkpt lat="45.0621985" lon="9.4996589"><ele>57.0</ele><time>2026-04-16T09:57:49.819Z</time></trkpt><trkpt lat="45.0622011" lon="9.499796"><ele>57.0</ele><time>2026-04-16T09:57:51.819Z</time></trkpt><trkpt lat="45.0621899" lon="9.4998848"><ele>57.0</ele><time>2026-04-16T09:57:52.818Z</time></trkpt><trkpt lat="45.0621804" lon="9.4999745"><ele>57.0</ele><time>2026-04-16T09:57:53.819Z</time></trkpt><trkpt lat="45.0621753" lon="9.5000739"><ele>57.0</ele><time>2026-04-16T09:57:54.82Z</time></trkpt><trkpt lat="45.0621745" lon="9.5001837"><ele>57.0</ele><time>2026-04-16T09:57:55.819Z</time></trkpt><trkpt lat="45.062179" lon="9.5002948"><ele>57.0</ele><time>2026-04-16T09:57:56.819Z</time></trkpt><trkpt lat="45.062195" lon="9.5004067"><ele>57.0</ele><time>2026-04-16T09:57:57.818Z</time></trkpt><trkpt lat="45.0622171" lon="9.5005125"><ele>57.0</ele><time>2026-04-16T09:57:58.818Z</time></trkpt><trkpt lat="45.062241" lon="9.5006128"><ele>57.0</ele><time>2026-04-16T09:57:59.819Z</time></trkpt><trkpt lat="45.0622616" lon="9.5007129"><ele>57.0</ele><time>2026-04-16T09:58:00.819Z</time></trkpt><trkpt lat="45.0622797" lon="9.5008174"><ele>57.0</ele><time>2026-04-16T09:58:01.819Z</time></trkpt><trkpt lat="45.0622958" lon="9.5009279"><ele>57.0</ele><time>2026-04-16T09:58:02.818Z</time></trkpt><trkpt lat="45.0623084" lon="9.5010451"><ele>57.0</ele><time>2026-04-16T09:58:03.818Z</time></trkpt><trkpt lat="45.0623143" lon="9.5011609"><ele>57.0</ele><time>2026-04-16T09:58:04.819Z</time></trkpt><trkpt lat="45.0623144" lon="9.5012718"><ele>57.0</ele><time>2026-04-16T09:58:05.819Z</time></trkpt><trkpt lat="45.0623179" lon="9.5013744"><ele>57.0</ele><time>2026-04-16T09:58:06.819Z</time></trkpt><trkpt lat="45.0623229" lon="9.5014702"><ele>57.0</ele><time>2026-04-16T09:58:07.819Z</time></trkpt><trkpt lat="45.062318" lon="9.5016343"><ele>57.0</ele><time>2026-04-16T09:58:09.819Z</time></trkpt><trkpt lat="45.0622778" lon="9.5017469"><ele>57.0</ele><time>2026-04-16T09:58:11.819Z</time></trkpt><trkpt lat="45.0622172" lon="9.5017963"><ele>57.0</ele><time>2026-04-16T09:58:13.819Z</time></trkpt><trkpt lat="45.0621052" lon="9.5018011"><ele>57.0</ele><time>2026-04-16T09:58:15.819Z</time></trkpt><trkpt lat="45.0620182" lon="9.5017835"><ele>57.0</ele><time>2026-04-16T09:58:16.819Z</time></trkpt><trkpt lat="45.0619306" lon="9.5017547"><ele>57.0</ele><time>2026-04-16T09:58:17.819Z</time></trkpt><trkpt lat="45.06185" lon="9.5017248"><ele>57.0</ele><time>2026-04-16T09:58:18.819Z</time></trkpt><trkpt lat="45.0617749" lon="9.5017012"><ele>57.0</ele><time>2026-04-16T09:58:19.819Z</time></trkpt><trkpt lat="45.061707" lon="9.5016846"><ele>57.0</ele><time>2026-04-16T09:58:20.819Z</time></trkpt><trkpt lat="45.0615995" lon="9.5017023"><ele>57.0</ele><time>2026-04-16T09:58:22.818Z</time></trkpt><trkpt lat="45.0615231" lon="9.5018266"><ele>57.400000000000006</ele><time>2026-04-16T09:58:24.82Z</time></trkpt><trkpt lat="45.0614971" lon="9.5019224"><ele>57.800000000000004</ele><time>2026-04-16T09:58:25.818Z</time></trkpt><trkpt lat="45.0614778" lon="9.5020383"><ele>58.2</ele><time>2026-04-16T09:58:26.819Z</time></trkpt><trkpt lat="45.0614636" lon="9.5021863"><ele>58.6</ele><time>2026-04-16T09:58:27.818Z</time></trkpt><trkpt lat="45.061446" lon="9.5023432"><ele>59.0</ele><time>2026-04-16T09:58:28.818Z</time></trkpt><trkpt lat="45.0614269" lon="9.5024953"><ele>59.0</ele><time>2026-04-16T09:58:29.818Z</time></trkpt><trkpt lat="45.0614089" lon="9.5026376"><ele>59.00000000000001</ele><time>2026-04-16T09:58:30.818Z</time></trkpt><trkpt lat="45.0613873" lon="9.5027803"><ele>59.00000000000001</ele><time>2026-04-16T09:58:31.818Z</time></trkpt><trkpt lat="45.061366" lon="9.5029281"><ele>59.0</ele><time>2026-04-16T09:58:32.819Z</time></trkpt><trkpt lat="45.0613453" lon="9.5030911"><ele>59.0</ele><time>2026-04-16T09:58:33.819Z</time></trkpt><trkpt lat="45.0613225" lon="9.5032654"><ele>58.75</ele><time>2026-04-16T09:58:34.819Z</time></trkpt><trkpt lat="45.0612951" lon="9.5034423"><ele>58.5</ele><time>2026-04-16T09:58:35.818Z</time></trkpt><trkpt lat="45.0612698" lon="9.5036146"><ele>58.25</ele><time>2026-04-16T09:58:36.818Z</time></trkpt><trkpt lat="45.0612486" lon="9.5037762"><ele>58.0</ele><time>2026-04-16T09:58:37.818Z</time></trkpt><trkpt lat="45.061227" lon="9.5039291"><ele>58.0</ele><time>2026-04-16T09:58:38.819Z</time></trkpt><trkpt lat="45.061202" lon="9.5040723"><ele>58.0</ele><time>2026-04-16T09:58:39.82Z</time></trkpt><trkpt lat="45.061179" lon="9.5042208"><ele>58.0</ele><time>2026-04-16T09:58:40.818Z</time></trkpt><trkpt lat="45.06116" lon="9.5043686"><ele>58.0</ele><time>2026-04-16T09:58:41.819Z</time></trkpt><trkpt lat="45.0611398" lon="9.5045252"><ele>58.0</ele><time>2026-04-16T09:58:42.819Z</time></trkpt><trkpt lat="45.0611137" lon="9.50469"><ele>58.0</ele><time>2026-04-16T09:58:43.819Z</time></trkpt><trkpt lat="45.06109" lon="9.5048531"><ele>58.0</ele><time>2026-04-16T09:58:44.82Z</time></trkpt><trkpt lat="45.0610694" lon="9.5050174"><ele>58.0</ele><time>2026-04-16T09:58:45.818Z</time></trkpt><trkpt lat="45.0610461" lon="9.5051804"><ele>58.0</ele><time>2026-04-16T09:58:46.818Z</time></trkpt><trkpt lat="45.0610264" lon="9.5053391"><ele>57.8</ele><time>2026-04-16T09:58:47.819Z</time></trkpt><trkpt lat="45.0610041" lon="9.5054962"><ele>57.599999999999994</ele><time>2026-04-16T09:58:48.819Z</time></trkpt><trkpt lat="45.0609812" lon="9.505653"><ele>57.400000000000006</ele><time>2026-04-16T09:58:49.818Z</time></trkpt><trkpt lat="45.0609614" lon="9.5058015"><ele>57.2</ele><time>2026-04-16T09:58:50.819Z</time></trkpt><trkpt lat="45.0609461" lon="9.5059387"><ele>57.0</ele><time>2026-04-16T09:58:51.818Z</time></trkpt><trkpt lat="45.0609263" lon="9.5060674"><ele>57.0</ele><time>2026-04-16T09:58:52.819Z</time></trkpt><trkpt lat="45.0609054" lon="9.5061869"><ele>57.0</ele><time>2026-04-16T09:58:53.818Z</time></trkpt><trkpt lat="45.0608866" lon="9.5062957"><ele>57.0</ele><time>2026-04-16T09:58:54.818Z</time></trkpt><trkpt lat="45.0608666" lon="9.5063924"><ele>57.0</ele><time>2026-04-16T09:58:55.82Z</time></trkpt><trkpt lat="45.060844" lon="9.506478"><ele>57.0</ele><time>2026-04-16T09:58:56.818Z</time></trkpt><trkpt lat="45.0608282" lon="9.506639"><ele>57.0</ele><time>2026-04-16T09:58:58.82Z</time></trkpt><trkpt lat="45.0608688" lon="9.5067723"><ele>57.0</ele><time>2026-04-16T09:59:00.818Z</time></trkpt><trkpt lat="45.0609571" lon="9.5068363"><ele>57.0</ele><time>2026-04-16T09:59:02.817Z</time></trkpt><trkpt lat="45.0610801" lon="9.5068339"><ele>57.0</ele><time>2026-04-16T09:59:04.819Z</time></trkpt><trkpt lat="45.0611544" lon="9.5068262"><ele>57.0</ele><time>2026-04-16T09:59:05.818Z</time></trkpt><trkpt lat="45.061234" lon="9.506816"><ele>57.0</ele><time>2026-04-16T09:59:06.817Z</time></trkpt><trkpt lat="45.0613073" lon="9.5068141"><ele>57.0</ele><time>2026-04-16T09:59:07.817Z</time></trkpt><trkpt lat="45.0613736" lon="9.506813"><ele>57.0</ele><time>2026-04-16T09:59:08.818Z</time></trkpt><trkpt lat="45.0614429" lon="9.5068095"><ele>57.0</ele><time>2026-04-16T09:59:09.818Z</time></trkpt><trkpt lat="45.061509" lon="9.5068036"><ele>57.0</ele><time>2026-04-16T09:59:10.818Z</time></trkpt><trkpt lat="45.0616226" lon="9.5067931"><ele>57.0</ele><time>2026-04-16T09:59:12.818Z</time></trkpt><trkpt lat="45.0617161" lon="9.5068215"><ele>57.0</ele><time>2026-04-16T09:59:14.818Z</time></trkpt><trkpt lat="45.0617708" lon="9.5069127"><ele>57.166666666666664</ele><time>2026-04-16T09:59:16.818Z</time></trkpt><trkpt lat="45.0617793" lon="9.5070685"><ele>57.33333333333333</ele><time>2026-04-16T09:59:18.817Z</time></trkpt><trkpt lat="45.0617761" lon="9.5071673"><ele>57.5</ele><time>2026-04-16T09:59:19.817Z</time></trkpt><trkpt lat="45.0617695" lon="9.5072819"><ele>57.666666666666664</ele><time>2026-04-16T09:59:20.817Z</time></trkpt><trkpt lat="45.0617567" lon="9.5074024"><ele>57.83333333333333</ele><time>2026-04-16T09:59:21.817Z</time></trkpt><trkpt lat="45.0617459" lon="9.507519"><ele>58.0</ele><time>2026-04-16T09:59:22.819Z</time></trkpt><trkpt lat="45.0617361" lon="9.5076336"><ele>57.599999999999994</ele><time>2026-04-16T09:59:23.817Z</time></trkpt><trkpt lat="45.0617249" lon="9.507755"><ele>57.199999999999996</ele><time>2026-04-16T09:59:24.818Z</time></trkpt><trkpt lat="45.0617176" lon="9.5078825"><ele>56.8</ele><time>2026-04-16T09:59:25.818Z</time></trkpt><trkpt lat="45.0617134" lon="9.5080131"><ele>56.4</ele><time>2026-04-16T09:59:26.818Z</time></trkpt><trkpt lat="45.0617049" lon="9.5081389"><ele>56.0</ele><time>2026-04-16T09:59:27.817Z</time></trkpt><trkpt lat="45.061696" lon="9.5082707"><ele>56.0</ele><time>2026-04-16T09:59:28.818Z</time></trkpt><trkpt lat="45.0616903" lon="9.5084047"><ele>55.99999999999999</ele><time>2026-04-16T09:59:29.818Z</time></trkpt><trkpt lat="45.0616853" lon="9.5085443"><ele>55.99999999999999</ele><time>2026-04-16T09:59:30.818Z</time></trkpt><trkpt lat="45.0616779" lon="9.5086833"><ele>56.0</ele><time>2026-04-16T09:59:31.817Z</time></trkpt><trkpt lat="45.0616698" lon="9.508817"><ele>56.0</ele><time>2026-04-16T09:59:32.818Z</time></trkpt><trkpt lat="45.0616633" lon="9.5089511"><ele>56.0</ele><time>2026-04-16T09:59:33.818Z</time></trkpt><trkpt lat="45.0616593" lon="9.5090868"><ele>55.99999999999999</ele><time>2026-04-16T09:59:34.818Z</time></trkpt><trkpt lat="45.0616504" lon="9.5092252"><ele>55.99999999999999</ele><time>2026-04-16T09:59:35.817Z</time></trkpt><trkpt lat="45.0616428" lon="9.5093664"><ele>56.0</ele><time>2026-04-16T09:59:36.818Z</time></trkpt><trkpt lat="45.0616357" lon="9.5095119"><ele>56.0</ele><time>2026-04-16T09:59:37.818Z</time></trkpt><trkpt lat="45.0616267" lon="9.5096584"><ele>56.00000000000001</ele><time>2026-04-16T09:59:38.818Z</time></trkpt><trkpt lat="45.0616188" lon="9.5098005"><ele>56.0</ele><time>2026-04-16T09:59:39.818Z</time></trkpt><trkpt lat="45.0616105" lon="9.509928"><ele>56.0</ele><time>2026-04-16T09:59:40.818Z</time></trkpt><trkpt lat="45.0616037" lon="9.5100509"><ele>56.0</ele><time>2026-04-16T09:59:41.817Z</time></trkpt><trkpt lat="45.0615993" lon="9.5101708"><ele>56.00000000000001</ele><time>2026-04-16T09:59:42.818Z</time></trkpt><trkpt lat="45.0615932" lon="9.5102882"><ele>56.0</ele><time>2026-04-16T09:59:43.818Z</time></trkpt><trkpt lat="45.0615851" lon="9.5104092"><ele>56.333333333333336</ele><time>2026-04-16T09:59:44.819Z</time></trkpt><trkpt lat="45.0615771" lon="9.5105298"><ele>56.66666666666667</ele><time>2026-04-16T09:59:45.817Z</time></trkpt><trkpt lat="45.0615725" lon="9.5106565"><ele>57.0</ele><time>2026-04-16T09:59:46.817Z</time></trkpt><trkpt lat="45.0615704" lon="9.5107773"><ele>57.33333333333333</ele><time>2026-04-16T09:59:47.818Z</time></trkpt><trkpt lat="45.0615645" lon="9.510888"><ele>57.666666666666664</ele><time>2026-04-16T09:59:48.819Z</time></trkpt><trkpt lat="45.061557" lon="9.5109911"><ele>58.0</ele><time>2026-04-16T09:59:49.817Z</time></trkpt><trkpt lat="45.0615454" lon="9.5110899"><ele>57.99999999999999</ele><time>2026-04-16T09:59:50.817Z</time></trkpt><trkpt lat="45.0615402" lon="9.5111937"><ele>58.0</ele><time>2026-04-16T09:59:51.818Z</time></trkpt><trkpt lat="45.0615364" lon="9.511305"><ele>58.0</ele><time>2026-04-16T09:59:52.818Z</time></trkpt><trkpt lat="45.061531" lon="9.5114149"><ele>58.0</ele><time>2026-04-16T09:59:53.817Z</time></trkpt><trkpt lat="45.0615309" lon="9.5115152"><ele>57.99999999999999</ele><time>2026-04-16T09:59:54.817Z</time></trkpt><trkpt lat="45.0615302" lon="9.5116073"><ele>58.0</ele><time>2026-04-16T09:59:55.818Z</time></trkpt><trkpt lat="45.0615172" lon="9.5117744"><ele>58.0</ele><time>2026-04-16T09:59:57.817Z</time></trkpt><trkpt lat="45.0614649" lon="9.5118888"><ele>58.0</ele><time>2026-04-16T09:59:59.817Z</time></trkpt><trkpt lat="45.0613512" lon="9.511928"><ele>58.0</ele><time>2026-04-16T10:00:01.817Z</time></trkpt><trkpt lat="45.0612765" lon="9.5119093"><ele>58.0</ele><time>2026-04-16T10:00:02.817Z</time></trkpt><trkpt lat="45.0611932" lon="9.5118764"><ele>58.0</ele><time>2026-04-16T10:00:03.817Z</time></trkpt><trkpt lat="45.061096" lon="9.5118447"><ele>58.0</ele><time>2026-04-16T10:00:04.817Z</time></trkpt><trkpt lat="45.0609884" lon="9.5118189"><ele>58.0</ele><time>2026-04-16T10:00:05.818Z</time></trkpt><trkpt lat="45.0608692" lon="9.5117861"><ele>58.0</ele><time>2026-04-16T10:00:06.817Z</time></trkpt><trkpt lat="45.0607419" lon="9.5117466"><ele>58.0</ele><time>2026-04-16T10:00:07.817Z</time></trkpt><trkpt lat="45.0606098" lon="9.5117083"><ele>58.25</ele><time>2026-04-16T10:00:08.818Z</time></trkpt><trkpt lat="45.0604744" lon="9.5116769"><ele>58.5</ele><time>2026-04-16T10:00:09.817Z</time></trkpt><trkpt lat="45.060348" lon="9.5116428"><ele>58.75</ele><time>2026-04-16T10:00:10.818Z</time></trkpt><trkpt lat="45.0602363" lon="9.5116174"><ele>59.0</ele><time>2026-04-16T10:00:11.817Z</time></trkpt><trkpt lat="45.0601478" lon="9.511598"><ele>59.0</ele><time>2026-04-16T10:00:12.817Z</time></trkpt><trkpt lat="45.0600744" lon="9.5115818"><ele>59.0</ele><time>2026-04-16T10:00:13.818Z</time></trkpt><trkpt lat="45.0600105" lon="9.5115669"><ele>59.0</ele><time>2026-04-16T10:00:14.818Z</time></trkpt><trkpt lat="45.0599422" lon="9.5115502"><ele>59.0</ele><time>2026-04-16T10:00:15.818Z</time></trkpt><trkpt lat="45.0598707" lon="9.5115366"><ele>59.0</ele><time>2026-04-16T10:00:16.817Z</time></trkpt><trkpt lat="45.0598008" lon="9.511522"><ele>59.0</ele><time>2026-04-16T10:00:17.819Z</time></trkpt><trkpt lat="45.0597293" lon="9.5115031"><ele>59.0</ele><time>2026-04-16T10:00:18.818Z</time></trkpt><trkpt lat="45.0596564" lon="9.5114888"><ele>59.66666666666667</ele><time>2026-04-16T10:00:19.818Z</time></trkpt><trkpt lat="45.059585" lon="9.5114717"><ele>60.333333333333336</ele><time>2026-04-16T10:00:20.818Z</time></trkpt><trkpt lat="45.0595076" lon="9.511452"><ele>61.0</ele><time>2026-04-16T10:00:21.818Z</time></trkpt><trkpt lat="45.0594197" lon="9.5114296"><ele>61.66666666666667</ele><time>2026-04-16T10:00:22.813Z</time></trkpt><trkpt lat="45.0593312" lon="9.5114041"><ele>62.333333333333336</ele><time>2026-04-16T10:00:23.818Z</time></trkpt><trkpt lat="45.0592337" lon="9.5113759"><ele>63.0</ele><time>2026-04-16T10:00:24.818Z</time></trkpt><trkpt lat="45.0591223" lon="9.5113507"><ele>63.0</ele><time>2026-04-16T10:00:25.818Z</time></trkpt><trkpt lat="45.0590032" lon="9.5113305"><ele>63.0</ele><time>2026-04-16T10:00:26.817Z</time></trkpt><trkpt lat="45.0588724" lon="9.5113101"><ele>63.0</ele><time>2026-04-16T10:00:27.817Z</time></trkpt><trkpt lat="45.0587376" lon="9.5112908"><ele>63.0</ele><time>2026-04-16T10:00:28.818Z</time></trkpt><trkpt lat="45.0585993" lon="9.5112709"><ele>63.0</ele><time>2026-04-16T10:00:29.818Z</time></trkpt><trkpt lat="45.0584547" lon="9.5112536"><ele>63.0</ele><time>2026-04-16T10:00:30.817Z</time></trkpt><trkpt lat="45.0582994" lon="9.5112351"><ele>63.0</ele><time>2026-04-16T10:00:31.818Z</time></trkpt><trkpt lat="45.0581386" lon="9.511218"><ele>62.33333333333333</ele><time>2026-04-16T10:00:32.818Z</time></trkpt><trkpt lat="45.0579784" lon="9.5111969"><ele>61.666666666666664</ele><time>2026-04-16T10:00:33.817Z</time></trkpt><trkpt lat="45.0578229" lon="9.5111688"><ele>61.0</ele><time>2026-04-16T10:00:34.818Z</time></trkpt><trkpt lat="45.0576705" lon="9.511135"><ele>61.0</ele><time>2026-04-16T10:00:35.817Z</time></trkpt><trkpt lat="45.0575141" lon="9.5110985"><ele>61.0</ele><time>2026-04-16T10:00:36.818Z</time></trkpt><trkpt lat="45.0573532" lon="9.5110592"><ele>61.0</ele><time>2026-04-16T10:00:37.817Z</time></trkpt><trkpt lat="45.0571921" lon="9.5110187"><ele>62.0</ele><time>2026-04-16T10:00:38.817Z</time></trkpt><trkpt lat="45.0570329" lon="9.5109752"><ele>63.0</ele><time>2026-04-16T10:00:39.818Z</time></trkpt><trkpt lat="45.0568795" lon="9.5109325"><ele>64.0</ele><time>2026-04-16T10:00:40.818Z</time></trkpt><trkpt lat="45.0567357" lon="9.51089"><ele>64.25</ele><time>2026-04-16T10:00:41.818Z</time></trkpt><trkpt lat="45.0566004" lon="9.5108494"><ele>64.5</ele><time>2026-04-16T10:00:42.818Z</time></trkpt><trkpt lat="45.0564729" lon="9.5108182"><ele>64.75</ele><time>2026-04-16T10:00:43.817Z</time></trkpt><trkpt lat="45.0563515" lon="9.510789"><ele>65.0</ele><time>2026-04-16T10:00:44.818Z</time></trkpt><trkpt lat="45.0562416" lon="9.5107641"><ele>65.0</ele><time>2026-04-16T10:00:45.818Z</time></trkpt><trkpt lat="45.0561437" lon="9.5107402"><ele>65.0</ele><time>2026-04-16T10:00:46.817Z</time></trkpt><trkpt lat="45.0560611" lon="9.5107185"><ele>65.0</ele><time>2026-04-16T10:00:47.817Z</time></trkpt><trkpt lat="45.05599" lon="9.5106996"><ele>65.0</ele><time>2026-04-16T10:00:48.818Z</time></trkpt><trkpt lat="45.0558839" lon="9.5106698"><ele>65.0</ele><time>2026-04-16T10:00:50.817Z</time></trkpt><trkpt lat="45.0558144" lon="9.5106554"><ele>65.0</ele><time>2026-04-16T10:00:52.818Z</time></trkpt><trkpt lat="45.0557285" lon="9.5107039"><ele>65.2</ele><time>2026-04-16T10:01:32.817Z</time></trkpt><trkpt lat="45.0556945" lon="9.5108793"><ele>65.4</ele><time>2026-04-16T10:01:34.818Z</time></trkpt><trkpt lat="45.0556969" lon="9.5109934"><ele>65.6</ele><time>2026-04-16T10:01:35.819Z</time></trkpt><trkpt lat="45.0557026" lon="9.5111306"><ele>65.8</ele><time>2026-04-16T10:01:36.818Z</time></trkpt><trkpt lat="45.0557111" lon="9.5112864"><ele>66.0</ele><time>2026-04-16T10:01:37.818Z</time></trkpt><trkpt lat="45.0557217" lon="9.5114517"><ele>66.0</ele><time>2026-04-16T10:01:38.818Z</time></trkpt><trkpt lat="45.0557315" lon="9.5116219"><ele>66.0</ele><time>2026-04-16T10:01:39.818Z</time></trkpt><trkpt lat="45.0557382" lon="9.5117935"><ele>66.0</ele><time>2026-04-16T10:01:40.818Z</time></trkpt><trkpt lat="45.0557463" lon="9.5119569"><ele>66.0</ele><time>2026-04-16T10:01:41.817Z</time></trkpt><trkpt lat="45.0557545" lon="9.5121113"><ele>66.0</ele><time>2026-04-16T10:01:42.817Z</time></trkpt><trkpt lat="45.0557605" lon="9.5122733"><ele>66.0</ele><time>2026-04-16T10:01:43.818Z</time></trkpt><trkpt lat="45.0557693" lon="9.5124488"><ele>66.0</ele><time>2026-04-16T10:01:44.817Z</time></trkpt><trkpt lat="45.0557775" lon="9.5126397"><ele>66.0</ele><time>2026-04-16T10:01:45.818Z</time></trkpt><trkpt lat="45.0557874" lon="9.5128331"><ele>65.75</ele><time>2026-04-16T10:01:46.817Z</time></trkpt><trkpt lat="45.0557965" lon="9.5130291"><ele>65.5</ele><time>2026-04-16T10:01:47.817Z</time></trkpt><trkpt lat="45.0558057" lon="9.5132321"><ele>65.25</ele><time>2026-04-16T10:01:48.817Z</time></trkpt><trkpt lat="45.0558164" lon="9.5134394"><ele>65.0</ele><time>2026-04-16T10:01:49.817Z</time></trkpt><trkpt lat="45.0558267" lon="9.5136535"><ele>65.33333333333334</ele><time>2026-04-16T10:01:50.817Z</time></trkpt><trkpt lat="45.0558342" lon="9.513878"><ele>65.66666666666667</ele><time>2026-04-16T10:01:51.818Z</time></trkpt><trkpt lat="45.055845" lon="9.5141095"><ele>66.0</ele><time>2026-04-16T10:01:52.817Z</time></trkpt><trkpt lat="45.055858" lon="9.5143345"><ele>66.0</ele><time>2026-04-16T10:01:53.818Z</time></trkpt><trkpt lat="45.0558695" lon="9.5145601"><ele>66.0</ele><time>2026-04-16T10:01:54.817Z</time></trkpt><trkpt lat="45.0558794" lon="9.5147852"><ele>66.0</ele><time>2026-04-16T10:01:55.818Z</time></trkpt><trkpt lat="45.0558875" lon="9.5150108"><ele>65.33333333333333</ele><time>2026-04-16T10:01:56.817Z</time></trkpt><trkpt lat="45.0558968" lon="9.5152417"><ele>64.66666666666666</ele><time>2026-04-16T10:01:57.819Z</time></trkpt><trkpt lat="45.0559069" lon="9.5154783"><ele>64.0</ele><time>2026-04-16T10:01:58.818Z</time></trkpt><trkpt lat="45.0559179" lon="9.5157191"><ele>63.666666666666664</ele><time>2026-04-16T10:01:59.818Z</time></trkpt><trkpt lat="45.0559322" lon="9.515963"><ele>63.33333333333333</ele><time>2026-04-16T10:02:00.818Z</time></trkpt><trkpt lat="45.0559443" lon="9.5162104"><ele>63.0</ele><time>2026-04-16T10:02:01.818Z</time></trkpt><trkpt lat="45.0559555" lon="9.5164576"><ele>62.66666666666667</ele><time>2026-04-16T10:02:02.817Z</time></trkpt><trkpt lat="45.0559679" lon="9.516707"><ele>62.333333333333336</ele><time>2026-04-16T10:02:03.818Z</time></trkpt><trkpt lat="45.0559781" lon="9.5169564"><ele>62.0</ele><time>2026-04-16T10:02:04.818Z</time></trkpt><trkpt lat="45.0559914" lon="9.5171965"><ele>62.0</ele><time>2026-04-16T10:02:05.818Z</time></trkpt><trkpt lat="45.0560032" lon="9.5174329"><ele>62.0</ele><time>2026-04-16T10:02:06.819Z</time></trkpt><trkpt lat="45.0560119" lon="9.5176657"><ele>62.0</ele><time>2026-04-16T10:02:07.817Z</time></trkpt><trkpt lat="45.0560213" lon="9.5178915"><ele>61.66666666666667</ele><time>2026-04-16T10:02:08.817Z</time></trkpt><trkpt lat="45.0560327" lon="9.5181136"><ele>61.33333333333333</ele><time>2026-04-16T10:02:09.818Z</time></trkpt><trkpt lat="45.056044" lon="9.5183334"><ele>61.0</ele><time>2026-04-16T10:02:10.818Z</time></trkpt><trkpt lat="45.0560564" lon="9.5185536"><ele>61.0</ele><time>2026-04-16T10:02:11.818Z</time></trkpt><trkpt lat="45.0560671" lon="9.5187716"><ele>61.0</ele><time>2026-04-16T10:02:12.817Z</time></trkpt><trkpt lat="45.0560787" lon="9.5189885"><ele>61.0</ele><time>2026-04-16T10:02:13.818Z</time></trkpt><trkpt lat="45.0560871" lon="9.5191956"><ele>61.0</ele><time>2026-04-16T10:02:14.818Z</time></trkpt><trkpt lat="45.0560976" lon="9.5193996"><ele>61.0</ele><time>2026-04-16T10:02:15.818Z</time></trkpt><trkpt lat="45.0561092" lon="9.5196075"><ele>61.0</ele><time>2026-04-16T10:02:16.818Z</time></trkpt><trkpt lat="45.0561199" lon="9.5198185"><ele>61.0</ele><time>2026-04-16T10:02:17.818Z</time></trkpt><trkpt lat="45.0561306" lon="9.5200261"><ele>61.25</ele><time>2026-04-16T10:02:18.818Z</time></trkpt><trkpt lat="45.0561404" lon="9.5202359"><ele>61.5</ele><time>2026-04-16T10:02:19.817Z</time></trkpt><trkpt lat="45.0561514" lon="9.5204497"><ele>61.75</ele><time>2026-04-16T10:02:20.818Z</time></trkpt><trkpt lat="45.0561617" lon="9.520658"><ele>62.0</ele><time>2026-04-16T10:02:21.818Z</time></trkpt><trkpt lat="45.0561723" lon="9.5208583"><ele>62.0</ele><time>2026-04-16T10:02:22.817Z</time></trkpt><trkpt lat="45.0561813" lon="9.5210509"><ele>62.0</ele><time>2026-04-16T10:02:23.818Z</time></trkpt><trkpt lat="45.056188" lon="9.5212362"><ele>62.0</ele><time>2026-04-16T10:02:24.818Z</time></trkpt><trkpt lat="45.0561959" lon="9.5214149"><ele>62.0</ele><time>2026-04-16T10:02:25.818Z</time></trkpt><trkpt lat="45.0562036" lon="9.5215819"><ele>62.0</ele><time>2026-04-16T10:02:26.818Z</time></trkpt><trkpt lat="45.0562094" lon="9.5217523"><ele>62.0</ele><time>2026-04-16T10:02:27.819Z</time></trkpt><trkpt lat="45.0562199" lon="9.5219326"><ele>62.0</ele><time>2026-04-16T10:02:28.818Z</time></trkpt><trkpt lat="45.0562289" lon="9.5221202"><ele>62.0</ele><time>2026-04-16T10:02:29.818Z</time></trkpt><trkpt lat="45.0562391" lon="9.5223182"><ele>62.0</ele><time>2026-04-16T10:02:30.818Z</time></trkpt><trkpt lat="45.0562504" lon="9.5225246"><ele>62.0</ele><time>2026-04-16T10:02:31.817Z</time></trkpt><trkpt lat="45.0562597" lon="9.5227314"><ele>62.0</ele><time>2026-04-16T10:02:32.818Z</time></trkpt><trkpt lat="45.0562697" lon="9.5229381"><ele>62.0</ele><time>2026-04-16T10:02:33.817Z</time></trkpt><trkpt lat="45.0562796" lon="9.5231431"><ele>62.0</ele><time>2026-04-16T10:02:34.818Z</time></trkpt><trkpt lat="45.0562902" lon="9.5233408"><ele>62.0</ele><time>2026-04-16T10:02:35.818Z</time></trkpt><trkpt lat="45.0562997" lon="9.5235319"><ele>62.0</ele><time>2026-04-16T10:02:36.818Z</time></trkpt><trkpt lat="45.0563075" lon="9.5237059"><ele>62.0</ele><time>2026-04-16T10:02:37.818Z</time></trkpt><trkpt lat="45.0563141" lon="9.5238622"><ele>62.8</ele><time>2026-04-16T10:02:38.818Z</time></trkpt><trkpt lat="45.056321" lon="9.524"><ele>63.6</ele><time>2026-04-16T10:02:39.818Z</time></trkpt><trkpt lat="45.0563225" lon="9.524109"><ele>64.39999999999999</ele><time>2026-04-16T10:02:40.818Z</time></trkpt><trkpt lat="45.0562894" lon="9.5242159"><ele>65.2</ele><time>2026-04-16T10:02:42.817Z</time></trkpt><trkpt lat="45.0562164" lon="9.5242145"><ele>66.0</ele><time>2026-04-16T10:02:44.818Z</time></trkpt><trkpt lat="45.0560818" lon="9.5241674"><ele>66.0</ele><time>2026-04-16T10:02:46.818Z</time></trkpt><trkpt lat="45.0560045" lon="9.5241389"><ele>66.0</ele><time>2026-04-16T10:02:47.817Z</time></trkpt><trkpt lat="45.0559159" lon="9.5241041"><ele>66.0</ele><time>2026-04-16T10:02:48.818Z</time></trkpt><trkpt lat="45.0558184" lon="9.5240703"><ele>66.0</ele><time>2026-04-16T10:02:49.817Z</time></trkpt><trkpt lat="45.0557195" lon="9.5240359"><ele>66.0</ele><time>2026-04-16T10:02:50.818Z</time></trkpt><trkpt lat="45.0556118" lon="9.5239942"><ele>67.25</ele><time>2026-04-16T10:02:51.818Z</time></trkpt><trkpt lat="45.0554962" lon="9.5239526"><ele>68.5</ele><time>2026-04-16T10:02:52.818Z</time></trkpt><trkpt lat="45.0553775" lon="9.5239086"><ele>69.75</ele><time>2026-04-16T10:02:53.818Z</time></trkpt><trkpt lat="45.0552517" lon="9.5238637"><ele>71.0</ele><time>2026-04-16T10:02:54.818Z</time></trkpt><trkpt lat="45.0551259" lon="9.5238125"><ele>71.0</ele><time>2026-04-16T10:02:55.817Z</time></trkpt><trkpt lat="45.0549952" lon="9.5237627"><ele>71.0</ele><time>2026-04-16T10:02:56.818Z</time></trkpt><trkpt lat="45.0548617" lon="9.5237111"><ele>71.0</ele><time>2026-04-16T10:02:57.817Z</time></trkpt><trkpt lat="45.0547219" lon="9.5236628"><ele>71.0</ele><time>2026-04-16T10:02:58.818Z</time></trkpt><trkpt lat="45.0545806" lon="9.5236118"><ele>68.66666666666667</ele><time>2026-04-16T10:02:59.818Z</time></trkpt><trkpt lat="45.0544345" lon="9.5235545"><ele>66.33333333333333</ele><time>2026-04-16T10:03:00.818Z</time></trkpt><trkpt lat="45.0542851" lon="9.523495"><ele>64.0</ele><time>2026-04-16T10:03:01.818Z</time></trkpt><trkpt lat="45.0541294" lon="9.5234365"><ele>65.66666666666666</ele><time>2026-04-16T10:03:02.818Z</time></trkpt><trkpt lat="45.0539695" lon="9.5233768"><ele>67.33333333333333</ele><time>2026-04-16T10:03:03.818Z</time></trkpt><trkpt lat="45.0537996" lon="9.5233147"><ele>69.0</ele><time>2026-04-16T10:03:04.817Z</time></trkpt><trkpt lat="45.0536249" lon="9.5232545"><ele>69.0</ele><time>2026-04-16T10:03:05.819Z</time></trkpt><trkpt lat="45.0534451" lon="9.5231918"><ele>69.0</ele><time>2026-04-16T10:03:06.818Z</time></trkpt><trkpt lat="45.0532618" lon="9.5231238"><ele>69.0</ele><time>2026-04-16T10:03:07.818Z</time></trkpt><trkpt lat="45.0530783" lon="9.523056"><ele>68.0</ele><time>2026-04-16T10:03:08.818Z</time></trkpt><trkpt lat="45.0528911" lon="9.5229876"><ele>67.0</ele><time>2026-04-16T10:03:09.818Z</time></trkpt><trkpt lat="45.052703" lon="9.5229178"><ele>66.0</ele><time>2026-04-16T10:03:10.818Z</time></trkpt><trkpt lat="45.052514" lon="9.5228488"><ele>65.0</ele><time>2026-04-16T10:03:11.818Z</time></trkpt><trkpt lat="45.0523248" lon="9.5227748"><ele>64.0</ele><time>2026-04-16T10:03:12.819Z</time></trkpt><trkpt lat="45.0521342" lon="9.5227043"><ele>63.0</ele><time>2026-04-16T10:03:13.818Z</time></trkpt><trkpt lat="45.0519464" lon="9.5226355"><ele>63.0</ele><time>2026-04-16T10:03:14.817Z</time></trkpt><trkpt lat="45.0517601" lon="9.5225693"><ele>63.0</ele><time>2026-04-16T10:03:15.818Z</time></trkpt><trkpt lat="45.0515765" lon="9.522499"><ele>63.0</ele><time>2026-04-16T10:03:16.818Z</time></trkpt><trkpt lat="45.0513995" lon="9.5224342"><ele>63.0</ele><time>2026-04-16T10:03:17.817Z</time></trkpt><trkpt lat="45.0512256" lon="9.5223703"><ele>63.0</ele><time>2026-04-16T10:03:18.817Z</time></trkpt><trkpt lat="45.0510538" lon="9.5223039"><ele>63.0</ele><time>2026-04-16T10:03:19.818Z</time></trkpt><trkpt lat="45.0508806" lon="9.52224"><ele>63.0</ele><time>2026-04-16T10:03:20.818Z</time></trkpt><trkpt lat="45.0507074" lon="9.5221755"><ele>63.0</ele><time>2026-04-16T10:03:21.817Z</time></trkpt><trkpt lat="45.0505312" lon="9.5221104"><ele>63.0</ele><time>2026-04-16T10:03:22.818Z</time></trkpt><trkpt lat="45.0503569" lon="9.5220483"><ele>63.0</ele><time>2026-04-16T10:03:23.817Z</time></trkpt><trkpt lat="45.0501843" lon="9.5219832"><ele>63.0</ele><time>2026-04-16T10:03:24.817Z</time></trkpt><trkpt lat="45.0500103" lon="9.521917"><ele>63.0</ele><time>2026-04-16T10:03:25.818Z</time></trkpt><trkpt lat="45.0498364" lon="9.5218498"><ele>63.33333333333333</ele><time>2026-04-16T10:03:26.817Z</time></trkpt><trkpt lat="45.0496649" lon="9.5217859"><ele>63.666666666666664</ele><time>2026-04-16T10:03:27.817Z</time></trkpt><trkpt lat="45.0494917" lon="9.5217239"><ele>64.0</ele><time>2026-04-16T10:03:28.818Z</time></trkpt><trkpt lat="45.049322" lon="9.5216638"><ele>64.0</ele><time>2026-04-16T10:03:29.817Z</time></trkpt><trkpt lat="45.0491509" lon="9.5216023"><ele>64.0</ele><time>2026-04-16T10:03:30.818Z</time></trkpt><trkpt lat="45.0489783" lon="9.5215368"><ele>64.0</ele><time>2026-04-16T10:03:31.817Z</time></trkpt><trkpt lat="45.0488039" lon="9.5214733"><ele>64.0</ele><time>2026-04-16T10:03:32.817Z</time></trkpt><trkpt lat="45.0486277" lon="9.5214089"><ele>64.0</ele><time>2026-04-16T10:03:33.817Z</time></trkpt><trkpt lat="45.0484517" lon="9.5213454"><ele>64.0</ele><time>2026-04-16T10:03:34.818Z</time></trkpt><trkpt lat="45.0482752" lon="9.521281"><ele>64.0</ele><time>2026-04-16T10:03:35.818Z</time></trkpt><trkpt lat="45.0480983" lon="9.5212115"><ele>64.0</ele><time>2026-04-16T10:03:36.817Z</time></trkpt><trkpt lat="45.047921" lon="9.5211429"><ele>64.0</ele><time>2026-04-16T10:03:37.817Z</time></trkpt><trkpt lat="45.0477457" lon="9.5210739"><ele>64.0</ele><time>2026-04-16T10:03:38.818Z</time></trkpt><trkpt lat="45.0475694" lon="9.5210083"><ele>64.0</ele><time>2026-04-16T10:03:39.819Z</time></trkpt><trkpt lat="45.0473928" lon="9.5209428"><ele>64.0</ele><time>2026-04-16T10:03:40.817Z</time></trkpt><trkpt lat="45.0472166" lon="9.5208764"><ele>64.33333333333333</ele><time>2026-04-16T10:03:41.817Z</time></trkpt><trkpt lat="45.0470421" lon="9.52081"><ele>64.66666666666667</ele><time>2026-04-16T10:03:42.818Z</time></trkpt><trkpt lat="45.0468724" lon="9.520745"><ele>65.0</ele><time>2026-04-16T10:03:43.818Z</time></trkpt><trkpt lat="45.0467044" lon="9.5206797"><ele>65.0</ele><time>2026-04-16T10:03:44.818Z</time></trkpt><trkpt lat="45.0465346" lon="9.520616"><ele>65.0</ele><time>2026-04-16T10:03:45.818Z</time></trkpt><trkpt lat="45.0463642" lon="9.5205543"><ele>65.0</ele><time>2026-04-16T10:03:46.819Z</time></trkpt><trkpt lat="45.0461908" lon="9.5204904"><ele>65.0</ele><time>2026-04-16T10:03:47.817Z</time></trkpt><trkpt lat="45.0460172" lon="9.5204272"><ele>65.0</ele><time>2026-04-16T10:03:48.817Z</time></trkpt><trkpt lat="45.0458497" lon="9.5203649"><ele>65.0</ele><time>2026-04-16T10:03:49.819Z</time></trkpt><trkpt lat="45.0456828" lon="9.5203028"><ele>65.0</ele><time>2026-04-16T10:03:50.818Z</time></trkpt><trkpt lat="45.0455216" lon="9.5202449"><ele>65.0</ele><time>2026-04-16T10:03:51.817Z</time></trkpt><trkpt lat="45.0453641" lon="9.5201845"><ele>65.0</ele><time>2026-04-16T10:03:52.818Z</time></trkpt><trkpt lat="45.0452101" lon="9.5201251"><ele>65.0</ele><time>2026-04-16T10:03:53.818Z</time></trkpt><trkpt lat="45.0450587" lon="9.5200657"><ele>65.0</ele><time>2026-04-16T10:03:54.817Z</time></trkpt><trkpt lat="45.0449094" lon="9.5200088"><ele>65.0</ele><time>2026-04-16T10:03:55.817Z</time></trkpt><trkpt lat="45.0447579" lon="9.5199532"><ele>64.66666666666667</ele><time>2026-04-16T10:03:56.817Z</time></trkpt><trkpt lat="45.0446047" lon="9.5198985"><ele>64.33333333333333</ele><time>2026-04-16T10:03:57.817Z</time></trkpt><trkpt lat="45.0444487" lon="9.5198438"><ele>64.0</ele><time>2026-04-16T10:03:58.818Z</time></trkpt><trkpt lat="45.0442931" lon="9.5197888"><ele>64.0</ele><time>2026-04-16T10:03:59.818Z</time></trkpt><trkpt lat="45.0441398" lon="9.5197322"><ele>64.0</ele><time>2026-04-16T10:04:00.817Z</time></trkpt><trkpt lat="45.0439935" lon="9.5196751"><ele>64.0</ele><time>2026-04-16T10:04:01.818Z</time></trkpt><trkpt lat="45.0438533" lon="9.5196224"><ele>64.5</ele><time>2026-04-16T10:04:02.818Z</time></trkpt><trkpt lat="45.0437227" lon="9.5195708"><ele>65.0</ele><time>2026-04-16T10:04:03.818Z</time></trkpt><trkpt lat="45.0435961" lon="9.5195257"><ele>65.5</ele><time>2026-04-16T10:04:04.818Z</time></trkpt><trkpt lat="45.0434768" lon="9.5194839"><ele>66.0</ele><time>2026-04-16T10:04:05.818Z</time></trkpt><trkpt lat="45.0433645" lon="9.5194459"><ele>66.8</ele><time>2026-04-16T10:04:06.818Z</time></trkpt><trkpt lat="45.0432571" lon="9.5194118"><ele>67.6</ele><time>2026-04-16T10:04:07.818Z</time></trkpt><trkpt lat="45.0431542" lon="9.51938"><ele>68.4</ele><time>2026-04-16T10:04:08.819Z</time></trkpt><trkpt lat="45.0430566" lon="9.5193507"><ele>69.2</ele><time>2026-04-16T10:04:09.818Z</time></trkpt><trkpt lat="45.0429671" lon="9.5193171"><ele>70.0</ele><time>2026-04-16T10:04:10.818Z</time></trkpt><trkpt lat="45.0428832" lon="9.519288"><ele>70.0</ele><time>2026-04-16T10:04:11.817Z</time></trkpt><trkpt lat="45.042808" lon="9.5192593"><ele>70.0</ele><time>2026-04-16T10:04:12.819Z</time></trkpt><trkpt lat="45.0427444" lon="9.5192329"><ele>70.0</ele><time>2026-04-16T10:04:13.817Z</time></trkpt><trkpt lat="45.0426442" lon="9.5191666"><ele>70.0</ele><time>2026-04-16T10:04:15.818Z</time></trkpt><trkpt lat="45.0426002" lon="9.519051"><ele>70.0</ele><time>2026-04-16T10:04:17.818Z</time></trkpt><trkpt lat="45.0426091" lon="9.5189136"><ele>70.0</ele><time>2026-04-16T10:04:19.818Z</time></trkpt><trkpt lat="45.0426304" lon="9.5187778"><ele>70.0</ele><time>2026-04-16T10:04:21.818Z</time></trkpt><trkpt lat="45.0426008" lon="9.5186686"><ele>70.0</ele><time>2026-04-16T10:04:23.817Z</time></trkpt><trkpt lat="45.0425079" lon="9.5186042"><ele>70.0</ele><time>2026-04-16T10:04:25.818Z</time></trkpt><trkpt lat="45.042447" lon="9.5185744"><ele>70.0</ele><time>2026-04-16T10:04:26.817Z</time></trkpt><trkpt lat="45.0423804" lon="9.5185414"><ele>70.0</ele><time>2026-04-16T10:04:27.818Z</time></trkpt><trkpt lat="45.0423103" lon="9.5185028"><ele>70.0</ele><time>2026-04-16T10:04:28.817Z</time></trkpt><trkpt lat="45.0422423" lon="9.5184703"><ele>70.0</ele><time>2026-04-16T10:04:29.818Z</time></trkpt><trkpt lat="45.0421741" lon="9.5184467"><ele>70.0</ele><time>2026-04-16T10:04:30.818Z</time></trkpt><trkpt lat="45.0421023" lon="9.5184342"><ele>70.0</ele><time>2026-04-16T10:04:31.819Z</time></trkpt><trkpt lat="45.0420259" lon="9.5184315"><ele>70.0</ele><time>2026-04-16T10:04:32.817Z</time></trkpt><trkpt lat="45.0419467" lon="9.5184385"><ele>70.0</ele><time>2026-04-16T10:04:33.817Z</time></trkpt><trkpt lat="45.0418665" lon="9.5184525"><ele>70.0</ele><time>2026-04-16T10:04:34.819Z</time></trkpt><trkpt lat="45.0417839" lon="9.5184603"><ele>70.0</ele><time>2026-04-16T10:04:35.818Z</time></trkpt><trkpt lat="45.0416973" lon="9.5184643"><ele>70.0</ele><time>2026-04-16T10:04:36.817Z</time></trkpt><trkpt lat="45.0416086" lon="9.5184685"><ele>70.0</ele><time>2026-04-16T10:04:37.819Z</time></trkpt><trkpt lat="45.0415223" lon="9.5184722"><ele>70.0</ele><time>2026-04-16T10:04:38.817Z</time></trkpt><trkpt lat="45.0414391" lon="9.5184718"><ele>70.0</ele><time>2026-04-16T10:04:39.818Z</time></trkpt><trkpt lat="45.0413544" lon="9.5184744"><ele>70.0</ele><time>2026-04-16T10:04:40.818Z</time></trkpt><trkpt lat="45.0412676" lon="9.5184731"><ele>69.6</ele><time>2026-04-16T10:04:41.817Z</time></trkpt><trkpt lat="45.04118" lon="9.5184628"><ele>69.2</ele><time>2026-04-16T10:04:42.818Z</time></trkpt><trkpt lat="45.0410901" lon="9.5184412"><ele>68.8</ele><time>2026-04-16T10:04:43.817Z</time></trkpt><trkpt lat="45.0409939" lon="9.5184135"><ele>68.4</ele><time>2026-04-16T10:04:44.818Z</time></trkpt><trkpt lat="45.0408878" lon="9.5183819"><ele>68.0</ele><time>2026-04-16T10:04:45.818Z</time></trkpt><trkpt lat="45.040771" lon="9.518347"><ele>68.0</ele><time>2026-04-16T10:04:46.818Z</time></trkpt><trkpt lat="45.0406437" lon="9.5183075"><ele>68.0</ele><time>2026-04-16T10:04:47.818Z</time></trkpt><trkpt lat="45.0405119" lon="9.5182665"><ele>68.0</ele><time>2026-04-16T10:04:48.817Z</time></trkpt><trkpt lat="45.0403697" lon="9.5182232"><ele>68.0</ele><time>2026-04-16T10:04:49.817Z</time></trkpt><trkpt lat="45.0402227" lon="9.5181772"><ele>68.0</ele><time>2026-04-16T10:04:50.818Z</time></trkpt><trkpt lat="45.0400709" lon="9.5181311"><ele>68.0</ele><time>2026-04-16T10:04:51.818Z</time></trkpt><trkpt lat="45.0399155" lon="9.5180811"><ele>68.0</ele><time>2026-04-16T10:04:52.819Z</time></trkpt><trkpt lat="45.0397622" lon="9.5180325"><ele>68.0</ele><time>2026-04-16T10:04:53.818Z</time></trkpt><trkpt lat="45.0396173" lon="9.5179825"><ele>68.0</ele><time>2026-04-16T10:04:54.817Z</time></trkpt><trkpt lat="45.0394764" lon="9.5179375"><ele>68.0</ele><time>2026-04-16T10:04:55.817Z</time></trkpt><trkpt lat="45.0393407" lon="9.5178927"><ele>68.0</ele><time>2026-04-16T10:04:56.817Z</time></trkpt><trkpt lat="45.0392087" lon="9.5178466"><ele>68.75</ele><time>2026-04-16T10:04:57.818Z</time></trkpt><trkpt lat="45.0390791" lon="9.517798"><ele>69.5</ele><time>2026-04-16T10:04:58.818Z</time></trkpt><trkpt lat="45.0389521" lon="9.5177496"><ele>70.25</ele><time>2026-04-16T10:04:59.819Z</time></trkpt><trkpt lat="45.0388238" lon="9.5176941"><ele>71.0</ele><time>2026-04-16T10:05:00.818Z</time></trkpt><trkpt lat="45.0386988" lon="9.5176271"><ele>71.0</ele><time>2026-04-16T10:05:01.818Z</time></trkpt><trkpt lat="45.0385754" lon="9.5175496"><ele>71.0</ele><time>2026-04-16T10:05:02.818Z</time></trkpt><trkpt lat="45.0384524" lon="9.5174571"><ele>71.0</ele><time>2026-04-16T10:05:03.818Z</time></trkpt><trkpt lat="45.0383298" lon="9.5173547"><ele>71.0</ele><time>2026-04-16T10:05:04.817Z</time></trkpt><trkpt lat="45.0382082" lon="9.5172562"><ele>71.25</ele><time>2026-04-16T10:05:05.818Z</time></trkpt><trkpt lat="45.0380869" lon="9.5171555"><ele>71.5</ele><time>2026-04-16T10:05:06.818Z</time></trkpt><trkpt lat="45.0379625" lon="9.5170569"><ele>71.75</ele><time>2026-04-16T10:05:07.818Z</time></trkpt><trkpt lat="45.0378331" lon="9.5169658"><ele>72.0</ele><time>2026-04-16T10:05:08.818Z</time></trkpt><trkpt lat="45.0377011" lon="9.5168843"><ele>71.66666666666667</ele><time>2026-04-16T10:05:09.817Z</time></trkpt><trkpt lat="45.0375611" lon="9.5168153"><ele>71.33333333333334</ele><time>2026-04-16T10:05:10.817Z</time></trkpt><trkpt lat="45.0374125" lon="9.5167571"><ele>71.0</ele><time>2026-04-16T10:05:11.818Z</time></trkpt><trkpt lat="45.0372565" lon="9.5167105"><ele>71.0</ele><time>2026-04-16T10:05:12.818Z</time></trkpt><trkpt lat="45.037095" lon="9.5166663"><ele>71.0</ele><time>2026-04-16T10:05:13.818Z</time></trkpt><trkpt lat="45.0369295" lon="9.5166166"><ele>71.0</ele><time>2026-04-16T10:05:14.818Z</time></trkpt><trkpt lat="45.0367687" lon="9.51657"><ele>71.33333333333334</ele><time>2026-04-16T10:05:15.817Z</time></trkpt><trkpt lat="45.0366117" lon="9.5165266"><ele>71.66666666666667</ele><time>2026-04-16T10:05:16.818Z</time></trkpt><trkpt lat="45.0364634" lon="9.5164883"><ele>72.0</ele><time>2026-04-16T10:05:17.818Z</time></trkpt><trkpt lat="45.0363248" lon="9.5164508"><ele>72.0</ele><time>2026-04-16T10:05:18.819Z</time></trkpt><trkpt lat="45.0361931" lon="9.5164168"><ele>72.0</ele><time>2026-04-16T10:05:19.817Z</time></trkpt><trkpt lat="45.0360675" lon="9.516387"><ele>72.0</ele><time>2026-04-16T10:05:20.817Z</time></trkpt><trkpt lat="45.0359431" lon="9.5163586"><ele>72.0</ele><time>2026-04-16T10:05:21.817Z</time></trkpt><trkpt lat="45.035826" lon="9.5163308"><ele>72.0</ele><time>2026-04-16T10:05:22.818Z</time></trkpt><trkpt lat="45.0357132" lon="9.5163031"><ele>72.0</ele><time>2026-04-16T10:05:23.818Z</time></trkpt><trkpt lat="45.0355982" lon="9.5162755"><ele>72.0</ele><time>2026-04-16T10:05:24.818Z</time></trkpt><trkpt lat="45.0354771" lon="9.5162467"><ele>72.0</ele><time>2026-04-16T10:05:25.817Z</time></trkpt><trkpt lat="45.0353497" lon="9.5162164"><ele>72.25</ele><time>2026-04-16T10:05:26.817Z</time></trkpt><trkpt lat="45.0352227" lon="9.5161784"><ele>72.5</ele><time>2026-04-16T10:05:27.818Z</time></trkpt><trkpt lat="45.0350963" lon="9.5161431"><ele>72.75</ele><time>2026-04-16T10:05:28.817Z</time></trkpt><trkpt lat="45.0349727" lon="9.5161107"><ele>73.0</ele><time>2026-04-16T10:05:29.817Z</time></trkpt><trkpt lat="45.0348493" lon="9.5160766"><ele>73.2</ele><time>2026-04-16T10:05:30.817Z</time></trkpt><trkpt lat="45.0347305" lon="9.5160395"><ele>73.4</ele><time>2026-04-16T10:05:31.818Z</time></trkpt><trkpt lat="45.0346207" lon="9.5160092"><ele>73.60000000000001</ele><time>2026-04-16T10:05:32.817Z</time></trkpt><trkpt lat="45.0345232" lon="9.5159827"><ele>73.8</ele><time>2026-04-16T10:05:33.818Z</time></trkpt><trkpt lat="45.0344391" lon="9.5159535"><ele>74.0</ele><time>2026-04-16T10:05:34.818Z</time></trkpt><trkpt lat="45.0343661" lon="9.5159316"><ele>74.0</ele><time>2026-04-16T10:05:35.818Z</time></trkpt><trkpt lat="45.0343012" lon="9.5159107"><ele>74.0</ele><time>2026-04-16T10:05:36.818Z</time></trkpt><trkpt lat="45.0342" lon="9.5158796"><ele>74.0</ele><time>2026-04-16T10:05:38.818Z</time></trkpt><trkpt lat="45.0341328" lon="9.515903"><ele>74.0</ele><time>2026-04-16T10:05:40.817Z</time></trkpt><trkpt lat="45.0340968" lon="9.5159781"><ele>74.0</ele><time>2026-04-16T10:05:42.819Z</time></trkpt><trkpt lat="45.0340807" lon="9.5161127"><ele>74.0</ele><time>2026-04-16T10:05:44.816Z</time></trkpt><trkpt lat="45.0340713" lon="9.5162013"><ele>74.14285714285714</ele><time>2026-04-16T10:05:45.817Z</time></trkpt><trkpt lat="45.0340615" lon="9.51629"><ele>74.28571428571428</ele><time>2026-04-16T10:05:46.817Z</time></trkpt><trkpt lat="45.0340458" lon="9.5163779"><ele>74.42857142857142</ele><time>2026-04-16T10:05:47.816Z</time></trkpt><trkpt lat="45.0340286" lon="9.5164738"><ele>74.57142857142857</ele><time>2026-04-16T10:05:48.818Z</time></trkpt><trkpt lat="45.0340126" lon="9.5165794"><ele>74.71428571428571</ele><time>2026-04-16T10:05:49.817Z</time></trkpt><trkpt lat="45.0339985" lon="9.5166917"><ele>74.85714285714285</ele><time>2026-04-16T10:05:50.817Z</time></trkpt><trkpt lat="45.0339822" lon="9.5168056"><ele>75.0</ele><time>2026-04-16T10:05:51.816Z</time></trkpt><trkpt lat="45.0339636" lon="9.5169214"><ele>75.0</ele><time>2026-04-16T10:05:52.818Z</time></trkpt><trkpt lat="45.0339473" lon="9.5170396"><ele>75.0</ele><time>2026-04-16T10:05:53.817Z</time></trkpt><trkpt lat="45.0339292" lon="9.5171615"><ele>75.0</ele><time>2026-04-16T10:05:54.816Z</time></trkpt><trkpt lat="45.0339104" lon="9.5172828"><ele>75.0</ele><time>2026-04-16T10:05:55.816Z</time></trkpt><trkpt lat="45.033894" lon="9.5174064"><ele>75.0</ele><time>2026-04-16T10:05:56.818Z</time></trkpt><trkpt lat="45.0338774" lon="9.517529"><ele>75.0</ele><time>2026-04-16T10:05:57.817Z</time></trkpt><trkpt lat="45.0338604" lon="9.5176499"><ele>75.0</ele><time>2026-04-16T10:05:58.817Z</time></trkpt><trkpt lat="45.0338432" lon="9.5177659"><ele>75.0</ele><time>2026-04-16T10:05:59.816Z</time></trkpt><trkpt lat="45.0338259" lon="9.5178794"><ele>75.0</ele><time>2026-04-16T10:06:00.817Z</time></trkpt><trkpt lat="45.0338105" lon="9.5179871"><ele>75.0</ele><time>2026-04-16T10:06:01.816Z</time></trkpt><trkpt lat="45.0337932" lon="9.5180911"><ele>75.0</ele><time>2026-04-16T10:06:02.817Z</time></trkpt><trkpt lat="45.0337774" lon="9.5181951"><ele>75.0</ele><time>2026-04-16T10:06:03.817Z</time></trkpt><trkpt lat="45.0337633" lon="9.5182985"><ele>75.0</ele><time>2026-04-16T10:06:04.818Z</time></trkpt><trkpt lat="45.0337506" lon="9.5184017"><ele>75.0</ele><time>2026-04-16T10:06:05.817Z</time></trkpt><trkpt lat="45.0337399" lon="9.5185033"><ele>75.0</ele><time>2026-04-16T10:06:06.817Z</time></trkpt><trkpt lat="45.033732" lon="9.5186076"><ele>75.0</ele><time>2026-04-16T10:06:07.818Z</time></trkpt><trkpt lat="45.0337272" lon="9.5187184"><ele>75.0</ele><time>2026-04-16T10:06:08.817Z</time></trkpt><trkpt lat="45.0337205" lon="9.518835"><ele>75.0</ele><time>2026-04-16T10:06:09.817Z</time></trkpt><trkpt lat="45.0337111" lon="9.5189556"><ele>74.99999999999999</ele><time>2026-04-16T10:06:10.817Z</time></trkpt><trkpt lat="45.0337014" lon="9.5190702"><ele>75.0</ele><time>2026-04-16T10:06:11.817Z</time></trkpt><trkpt lat="45.0336884" lon="9.5191789"><ele>75.0</ele><time>2026-04-16T10:06:12.816Z</time></trkpt><trkpt lat="45.0336699" lon="9.5192789"><ele>75.0</ele><time>2026-04-16T10:06:13.817Z</time></trkpt><trkpt lat="45.0336507" lon="9.5193721"><ele>75.0</ele><time>2026-04-16T10:06:14.816Z</time></trkpt><trkpt lat="45.0336283" lon="9.5194657"><ele>74.99999999999999</ele><time>2026-04-16T10:06:15.817Z</time></trkpt><trkpt lat="45.0336085" lon="9.5195624"><ele>75.0</ele><time>2026-04-16T10:06:16.816Z</time></trkpt><trkpt lat="45.0335935" lon="9.5196592"><ele>75.0</ele><time>2026-04-16T10:06:17.817Z</time></trkpt><trkpt lat="45.0335797" lon="9.5197554"><ele>75.0</ele><time>2026-04-16T10:06:18.816Z</time></trkpt><trkpt lat="45.0335665" lon="9.5198483"><ele>75.0</ele><time>2026-04-16T10:06:19.816Z</time></trkpt><trkpt lat="45.0335535" lon="9.5199355"><ele>75.0</ele><time>2026-04-16T10:06:20.817Z</time></trkpt><trkpt lat="45.0335333" lon="9.5200929"><ele>75.0</ele><time>2026-04-16T10:06:22.817Z</time></trkpt><trkpt lat="45.0335182" lon="9.5202603"><ele>75.0</ele><time>2026-04-16T10:06:24.817Z</time></trkpt><trkpt lat="45.0335061" lon="9.5204337"><ele>75.0</ele><time>2026-04-16T10:06:26.816Z</time></trkpt><trkpt lat="45.0334915" lon="9.5205874"><ele>75.0</ele><time>2026-04-16T10:06:28.818Z</time></trkpt><trkpt lat="45.0334754" lon="9.5207391"><ele>75.0</ele><time>2026-04-16T10:06:30.817Z</time></trkpt><trkpt lat="45.0334576" lon="9.5208694"><ele>75.0</ele><time>2026-04-16T10:06:32.816Z</time></trkpt><trkpt lat="45.0334529" lon="9.5209738"><ele>75.0</ele><time>2026-04-16T10:06:34.816Z</time></trkpt><trkpt lat="45.0334478" lon="9.5210802"><ele>75.0</ele><time>2026-04-16T10:06:36.817Z</time></trkpt><trkpt lat="45.0334409" lon="9.5211955"><ele>75.0</ele><time>2026-04-16T10:06:38.817Z</time></trkpt><trkpt lat="45.0334239" lon="9.5213137"><ele>75.0</ele><time>2026-04-16T10:06:40.817Z</time></trkpt><trkpt lat="45.0333987" lon="9.5214276"><ele>75.0</ele><time>2026-04-16T10:06:42.816Z</time></trkpt><trkpt lat="45.0333701" lon="9.521544"><ele>75.0</ele><time>2026-04-16T10:06:44.817Z</time></trkpt><trkpt lat="45.0333482" lon="9.5216609"><ele>75.0</ele><time>2026-04-16T10:06:46.816Z</time></trkpt><trkpt lat="45.0333393" lon="9.5217839"><ele>75.0</ele><time>2026-04-16T10:06:48.816Z</time></trkpt><trkpt lat="45.0333317" lon="9.5219183"><ele>75.0</ele><time>2026-04-16T10:06:50.816Z</time></trkpt><trkpt lat="45.0333217" lon="9.5220435"><ele>75.0</ele><time>2026-04-16T10:06:52.817Z</time></trkpt><trkpt lat="45.0333091" lon="9.5221689"><ele>75.0</ele><time>2026-04-16T10:06:54.817Z</time></trkpt><trkpt lat="45.0332846" lon="9.5223019"><ele>75.0</ele><time>2026-04-16T10:06:56.817Z</time></trkpt><trkpt lat="45.0332591" lon="9.5224363"><ele>75.16666666666667</ele><time>2026-04-16T10:06:58.817Z</time></trkpt><trkpt lat="45.0332415" lon="9.5225751"><ele>75.33333333333333</ele><time>2026-04-16T10:07:00.817Z</time></trkpt><trkpt lat="45.0332232" lon="9.522707"><ele>75.5</ele><time>2026-04-16T10:07:02.817Z</time></trkpt><trkpt lat="45.0332056" lon="9.5228335"><ele>75.66666666666666</ele><time>2026-04-16T10:07:04.817Z</time></trkpt><trkpt lat="45.0331916" lon="9.5229435"><ele>75.83333333333333</ele><time>2026-04-16T10:07:06.816Z</time></trkpt><trkpt lat="45.0331782" lon="9.5230609"><ele>76.0</ele><time>2026-04-16T10:07:08.817Z</time></trkpt><trkpt lat="45.0331623" lon="9.5231822"><ele>75.39999999999999</ele><time>2026-04-16T10:07:10.816Z</time></trkpt><trkpt lat="45.0331443" lon="9.5233205"><ele>74.8</ele><time>2026-04-16T10:07:12.817Z</time></trkpt><trkpt lat="45.033123" lon="9.5234832"><ele>74.19999999999999</ele><time>2026-04-16T10:07:14.817Z</time></trkpt><trkpt lat="45.0331037" lon="9.5236474"><ele>73.6</ele><time>2026-04-16T10:07:16.816Z</time></trkpt><trkpt lat="45.0330878" lon="9.523779"><ele>73.0</ele><time>2026-04-16T10:07:18.817Z</time></trkpt><trkpt lat="45.0330739" lon="9.5238926"><ele>72.8</ele><time>2026-04-16T10:07:20.817Z</time></trkpt><trkpt lat="45.0330279" lon="9.5239773"><ele>72.6</ele><time>2026-04-16T10:07:22.816Z</time></trkpt><trkpt lat="45.032944" lon="9.5240118"><ele>72.4</ele><time>2026-04-16T10:07:24.817Z</time></trkpt><trkpt lat="45.0328152" lon="9.5239971"><ele>72.2</ele><time>2026-04-16T10:07:26.817Z</time></trkpt><trkpt lat="45.0327401" lon="9.5239818"><ele>72.0</ele><time>2026-04-16T10:07:27.817Z</time></trkpt><trkpt lat="45.0326575" lon="9.5239641"><ele>72.0</ele><time>2026-04-16T10:07:28.818Z</time></trkpt><trkpt lat="45.0325708" lon="9.5239451"><ele>72.0</ele><time>2026-04-16T10:07:29.816Z</time></trkpt><trkpt lat="45.0324817" lon="9.5239268"><ele>72.0</ele><time>2026-04-16T10:07:30.817Z</time></trkpt><trkpt lat="45.032388" lon="9.5239055"><ele>72.0</ele><time>2026-04-16T10:07:31.817Z</time></trkpt><trkpt lat="45.0322861" lon="9.5238825"><ele>72.0</ele><time>2026-04-16T10:07:32.816Z</time></trkpt><trkpt lat="45.0321811" lon="9.523863"><ele>72.0</ele><time>2026-04-16T10:07:33.816Z</time></trkpt><trkpt lat="45.0320741" lon="9.5238424"><ele>72.0</ele><time>2026-04-16T10:07:34.816Z</time></trkpt><trkpt lat="45.0319729" lon="9.5238216"><ele>72.0</ele><time>2026-04-16T10:07:35.817Z</time></trkpt><trkpt lat="45.031871" lon="9.523805"><ele>72.0</ele><time>2026-04-16T10:07:36.816Z</time></trkpt><trkpt lat="45.0317639" lon="9.5237863"><ele>72.0</ele><time>2026-04-16T10:07:37.817Z</time></trkpt><trkpt lat="45.0316552" lon="9.5237638"><ele>72.4</ele><time>2026-04-16T10:07:38.818Z</time></trkpt><trkpt lat="45.0315487" lon="9.5237379"><ele>72.80000000000001</ele><time>2026-04-16T10:07:39.817Z</time></trkpt><trkpt lat="45.0314484" lon="9.5237219"><ele>73.2</ele><time>2026-04-16T10:07:40.817Z</time></trkpt><trkpt lat="45.0313544" lon="9.523707"><ele>73.60000000000001</ele><time>2026-04-16T10:07:41.817Z</time></trkpt><trkpt lat="45.031262" lon="9.52369"><ele>74.0</ele><time>2026-04-16T10:07:42.817Z</time></trkpt><trkpt lat="45.0311605" lon="9.5236692"><ele>74.2</ele><time>2026-04-16T10:07:43.817Z</time></trkpt><trkpt lat="45.0310488" lon="9.5236449"><ele>74.4</ele><time>2026-04-16T10:07:44.817Z</time></trkpt><trkpt lat="45.0309355" lon="9.523622"><ele>74.6</ele><time>2026-04-16T10:07:45.817Z</time></trkpt><trkpt lat="45.0308288" lon="9.5236012"><ele>74.8</ele><time>2026-04-16T10:07:46.818Z</time></trkpt><trkpt lat="45.0307302" lon="9.5235798"><ele>75.0</ele><time>2026-04-16T10:07:47.818Z</time></trkpt><trkpt lat="45.0306383" lon="9.52356"><ele>75.0</ele><time>2026-04-16T10:07:48.817Z</time></trkpt><trkpt lat="45.0305498" lon="9.5235414"><ele>75.0</ele><time>2026-04-16T10:07:49.817Z</time></trkpt><trkpt lat="45.0304603" lon="9.5235237"><ele>75.0</ele><time>2026-04-16T10:07:50.816Z</time></trkpt><trkpt lat="45.030369" lon="9.5235015"><ele>75.0</ele><time>2026-04-16T10:07:51.816Z</time></trkpt><trkpt lat="45.0302732" lon="9.5234804"><ele>75.0</ele><time>2026-04-16T10:07:52.818Z</time></trkpt><trkpt lat="45.0301774" lon="9.5234633"><ele>75.0</ele><time>2026-04-16T10:07:53.816Z</time></trkpt><trkpt lat="45.0300816" lon="9.5234442"><ele>75.0</ele><time>2026-04-16T10:07:54.816Z</time></trkpt><trkpt lat="45.0299837" lon="9.5234233"><ele>75.0</ele><time>2026-04-16T10:07:55.817Z</time></trkpt><trkpt lat="45.0298819" lon="9.5234024"><ele>75.0</ele><time>2026-04-16T10:07:56.817Z</time></trkpt><trkpt lat="45.0297775" lon="9.5233804"><ele>75.0</ele><time>2026-04-16T10:07:57.818Z</time></trkpt><trkpt lat="45.0296717" lon="9.5233589"><ele>75.4</ele><time>2026-04-16T10:07:58.817Z</time></trkpt><trkpt lat="45.0295636" lon="9.5233353"><ele>75.8</ele><time>2026-04-16T10:07:59.817Z</time></trkpt><trkpt lat="45.0294557" lon="9.5233167"><ele>76.2</ele><time>2026-04-16T10:08:00.816Z</time></trkpt><trkpt lat="45.0293452" lon="9.5232995"><ele>76.6</ele><time>2026-04-16T10:08:01.817Z</time></trkpt><trkpt lat="45.0292411" lon="9.5232823"><ele>77.0</ele><time>2026-04-16T10:08:02.816Z</time></trkpt><trkpt lat="45.0291416" lon="9.5232652"><ele>77.2</ele><time>2026-04-16T10:08:03.817Z</time></trkpt><trkpt lat="45.0290436" lon="9.5232484"><ele>77.4</ele><time>2026-04-16T10:08:04.817Z</time></trkpt><trkpt lat="45.0289467" lon="9.5232293"><ele>77.6</ele><time>2026-04-16T10:08:05.816Z</time></trkpt><trkpt lat="45.0288541" lon="9.5232082"><ele>77.8</ele><time>2026-04-16T10:08:06.817Z</time></trkpt><trkpt lat="45.0287653" lon="9.5231865"><ele>78.0</ele><time>2026-04-16T10:08:07.817Z</time></trkpt><trkpt lat="45.0286833" lon="9.5231672"><ele>78.0</ele><time>2026-04-16T10:08:08.818Z</time></trkpt><trkpt lat="45.0286057" lon="9.5231498"><ele>78.0</ele><time>2026-04-16T10:08:09.816Z</time></trkpt><trkpt lat="45.028536" lon="9.5231409"><ele>78.0</ele><time>2026-04-16T10:08:10.817Z</time></trkpt><trkpt lat="45.0284214" lon="9.523178"><ele>78.0</ele><time>2026-04-16T10:08:12.817Z</time></trkpt><trkpt lat="45.0283315" lon="9.5233159"><ele>78.0</ele><time>2026-04-16T10:08:14.817Z</time></trkpt><trkpt lat="45.0282778" lon="9.5234376"><ele>77.8</ele><time>2026-04-16T10:08:15.817Z</time></trkpt><trkpt lat="45.028221" lon="9.5235614"><ele>77.6</ele><time>2026-04-16T10:08:16.817Z</time></trkpt><trkpt lat="45.0281635" lon="9.5236852"><ele>77.4</ele><time>2026-04-16T10:08:17.817Z</time></trkpt><trkpt lat="45.028107" lon="9.5238075"><ele>77.2</ele><time>2026-04-16T10:08:18.816Z</time></trkpt><trkpt lat="45.0280517" lon="9.5239337"><ele>77.0</ele><time>2026-04-16T10:08:19.817Z</time></trkpt><trkpt lat="45.0279998" lon="9.5240576"><ele>77.0</ele><time>2026-04-16T10:08:20.817Z</time></trkpt><trkpt lat="45.0279486" lon="9.5241803"><ele>77.0</ele><time>2026-04-16T10:08:21.818Z</time></trkpt><trkpt lat="45.0278958" lon="9.5243044"><ele>77.0</ele><time>2026-04-16T10:08:22.816Z</time></trkpt><trkpt lat="45.0278419" lon="9.5244281"><ele>77.0</ele><time>2026-04-16T10:08:23.817Z</time></trkpt><trkpt lat="45.027791" lon="9.5245493"><ele>77.0</ele><time>2026-04-16T10:08:24.816Z</time></trkpt><trkpt lat="45.0277442" lon="9.5246635"><ele>76.83333333333334</ele><time>2026-04-16T10:08:25.818Z</time></trkpt><trkpt lat="45.027701" lon="9.5247702"><ele>76.66666666666667</ele><time>2026-04-16T10:08:26.817Z</time></trkpt><trkpt lat="45.0276611" lon="9.5248687"><ele>76.5</ele><time>2026-04-16T10:08:27.816Z</time></trkpt><trkpt lat="45.0276223" lon="9.5249605"><ele>76.33333333333333</ele><time>2026-04-16T10:08:28.816Z</time></trkpt><trkpt lat="45.0275852" lon="9.5250508"><ele>76.16666666666666</ele><time>2026-04-16T10:08:29.817Z</time></trkpt><trkpt lat="45.0275507" lon="9.5251336"><ele>76.0</ele><time>2026-04-16T10:08:30.817Z</time></trkpt><trkpt lat="45.0275172" lon="9.5252144"><ele>76.25</ele><time>2026-04-16T10:08:31.816Z</time></trkpt><trkpt lat="45.0274598" lon="9.5253599"><ele>76.5</ele><time>2026-04-16T10:08:33.816Z</time></trkpt><trkpt lat="45.0273988" lon="9.5255117"><ele>76.75</ele><time>2026-04-16T10:08:35.817Z</time></trkpt><trkpt lat="45.0273387" lon="9.5256588"><ele>77.0</ele><time>2026-04-16T10:08:37.817Z</time></trkpt><trkpt lat="45.0272801" lon="9.5257997"><ele>77.16666666666667</ele><time>2026-04-16T10:08:39.816Z</time></trkpt><trkpt lat="45.0272289" lon="9.5258996"><ele>77.33333333333334</ele><time>2026-04-16T10:08:41.816Z</time></trkpt><trkpt lat="45.027139" lon="9.5259193"><ele>77.5</ele><time>2026-04-16T10:08:44.817Z</time></trkpt><trkpt lat="45.0270489" lon="9.5258612"><ele>77.66666666666667</ele><time>2026-04-16T10:08:46.816Z</time></trkpt><trkpt lat="45.0269836" lon="9.525813"><ele>77.83333333333333</ele><time>2026-04-16T10:08:47.816Z</time></trkpt><trkpt lat="45.0269109" lon="9.5257698"><ele>78.0</ele><time>2026-04-16T10:08:48.816Z</time></trkpt><trkpt lat="45.0268342" lon="9.5257209"><ele>78.0</ele><time>2026-04-16T10:08:49.817Z</time></trkpt><trkpt lat="45.0267541" lon="9.5256704"><ele>78.0</ele><time>2026-04-16T10:08:50.816Z</time></trkpt><trkpt lat="45.0266715" lon="9.5256177"><ele>78.0</ele><time>2026-04-16T10:08:51.817Z</time></trkpt><trkpt lat="45.0265912" lon="9.525567"><ele>78.0</ele><time>2026-04-16T10:08:52.816Z</time></trkpt><trkpt lat="45.026507" lon="9.5255112"><ele>78.0</ele><time>2026-04-16T10:08:53.818Z</time></trkpt><trkpt lat="45.0264254" lon="9.5254555"><ele>77.8</ele><time>2026-04-16T10:08:54.817Z</time></trkpt><trkpt lat="45.02634" lon="9.5253974"><ele>77.6</ele><time>2026-04-16T10:08:55.818Z</time></trkpt><trkpt lat="45.0262527" lon="9.5253347"><ele>77.4</ele><time>2026-04-16T10:08:56.816Z</time></trkpt><trkpt lat="45.0261613" lon="9.5252732"><ele>77.2</ele><time>2026-04-16T10:08:57.817Z</time></trkpt><trkpt lat="45.0260693" lon="9.5252113"><ele>77.0</ele><time>2026-04-16T10:08:58.816Z</time></trkpt><trkpt lat="45.0259755" lon="9.525149"><ele>77.0</ele><time>2026-04-16T10:08:59.816Z</time></trkpt><trkpt lat="45.0258822" lon="9.5250876"><ele>77.0</ele><time>2026-04-16T10:09:00.817Z</time></trkpt><trkpt lat="45.0257886" lon="9.5250249"><ele>77.0</ele><time>2026-04-16T10:09:01.816Z</time></trkpt><trkpt lat="45.0256909" lon="9.5249599"><ele>77.0</ele><time>2026-04-16T10:09:02.817Z</time></trkpt><trkpt lat="45.0255951" lon="9.5248975"><ele>77.0</ele><time>2026-04-16T10:09:03.817Z</time></trkpt><trkpt lat="45.0255001" lon="9.5248341"><ele>77.0</ele><time>2026-04-16T10:09:04.817Z</time></trkpt><trkpt lat="45.0254086" lon="9.5247719"><ele>77.0</ele><time>2026-04-16T10:09:05.817Z</time></trkpt><trkpt lat="45.0253147" lon="9.5247098"><ele>77.0</ele><time>2026-04-16T10:09:06.816Z</time></trkpt><trkpt lat="45.0252193" lon="9.5246445"><ele>77.0</ele><time>2026-04-16T10:09:07.817Z</time></trkpt><trkpt lat="45.0251218" lon="9.5245797"><ele>77.0</ele><time>2026-04-16T10:09:08.817Z</time></trkpt><trkpt lat="45.0250222" lon="9.5245121"><ele>77.0</ele><time>2026-04-16T10:09:09.816Z</time></trkpt><trkpt lat="45.0249267" lon="9.5244432"><ele>77.0</ele><time>2026-04-16T10:09:10.816Z</time></trkpt><trkpt lat="45.0248287" lon="9.524376"><ele>77.0</ele><time>2026-04-16T10:09:11.817Z</time></trkpt><trkpt lat="45.0247342" lon="9.5243098"><ele>77.0</ele><time>2026-04-16T10:09:12.817Z</time></trkpt><trkpt lat="45.0246398" lon="9.5242426"><ele>77.0</ele><time>2026-04-16T10:09:13.816Z</time></trkpt><trkpt lat="45.0245453" lon="9.5241798"><ele>77.0</ele><time>2026-04-16T10:09:14.816Z</time></trkpt><trkpt lat="45.0244502" lon="9.5241173"><ele>77.0</ele><time>2026-04-16T10:09:15.817Z</time></trkpt><trkpt lat="45.0243602" lon="9.5240543"><ele>77.0</ele><time>2026-04-16T10:09:16.817Z</time></trkpt><trkpt lat="45.0242709" lon="9.5239925"><ele>77.0</ele><time>2026-04-16T10:09:17.816Z</time></trkpt><trkpt lat="45.0241784" lon="9.5239309"><ele>77.0</ele><time>2026-04-16T10:09:18.817Z</time></trkpt><trkpt lat="45.0240852" lon="9.5238778"><ele>77.4</ele><time>2026-04-16T10:09:19.817Z</time></trkpt><trkpt lat="45.0239895" lon="9.5238317"><ele>77.80000000000001</ele><time>2026-04-16T10:09:20.818Z</time></trkpt><trkpt lat="45.0238853" lon="9.5237871"><ele>78.2</ele><time>2026-04-16T10:09:21.817Z</time></trkpt><trkpt lat="45.0237786" lon="9.5237389"><ele>78.60000000000001</ele><time>2026-04-16T10:09:22.817Z</time></trkpt><trkpt lat="45.0236714" lon="9.5236917"><ele>79.0</ele><time>2026-04-16T10:09:23.816Z</time></trkpt><trkpt lat="45.0235648" lon="9.5236428"><ele>79.2</ele><time>2026-04-16T10:09:24.817Z</time></trkpt><trkpt lat="45.0234604" lon="9.523599"><ele>79.4</ele><time>2026-04-16T10:09:25.817Z</time></trkpt><trkpt lat="45.0233568" lon="9.5235581"><ele>79.6</ele><time>2026-04-16T10:09:26.817Z</time></trkpt><trkpt lat="45.0232576" lon="9.5235143"><ele>79.8</ele><time>2026-04-16T10:09:27.817Z</time></trkpt><trkpt lat="45.0231614" lon="9.5234713"><ele>80.0</ele><time>2026-04-16T10:09:28.817Z</time></trkpt><trkpt lat="45.0230698" lon="9.5234301"><ele>80.16666666666667</ele><time>2026-04-16T10:09:29.817Z</time></trkpt><trkpt lat="45.0229858" lon="9.5233837"><ele>80.33333333333334</ele><time>2026-04-16T10:09:30.817Z</time></trkpt><trkpt lat="45.0229139" lon="9.5233311"><ele>80.5</ele><time>2026-04-16T10:09:31.817Z</time></trkpt><trkpt lat="45.0228558" lon="9.52327"><ele>80.66666666666667</ele><time>2026-04-16T10:09:32.817Z</time></trkpt><trkpt lat="45.0228048" lon="9.5232036"><ele>80.83333333333333</ele><time>2026-04-16T10:09:33.816Z</time></trkpt><trkpt lat="45.0227559" lon="9.5231204"><ele>81.0</ele><time>2026-04-16T10:09:34.817Z</time></trkpt><trkpt lat="45.0227063" lon="9.5230196"><ele>81.0</ele><time>2026-04-16T10:09:35.816Z</time></trkpt><trkpt lat="45.0226542" lon="9.5229011"><ele>81.0</ele><time>2026-04-16T10:09:36.816Z</time></trkpt><trkpt lat="45.0226003" lon="9.5227795"><ele>81.0</ele><time>2026-04-16T10:09:37.816Z</time></trkpt><trkpt lat="45.0225404" lon="9.5226453"><ele>81.0</ele><time>2026-04-16T10:09:38.817Z</time></trkpt><trkpt lat="45.0224787" lon="9.5225116"><ele>81.0</ele><time>2026-04-16T10:09:39.817Z</time></trkpt><trkpt lat="45.0224141" lon="9.5223727"><ele>80.75</ele><time>2026-04-16T10:09:40.818Z</time></trkpt><trkpt lat="45.0223507" lon="9.5222369"><ele>80.5</ele><time>2026-04-16T10:09:41.817Z</time></trkpt><trkpt lat="45.0222897" lon="9.5220996"><ele>80.25</ele><time>2026-04-16T10:09:42.816Z</time></trkpt><trkpt lat="45.0222329" lon="9.5219576"><ele>80.0</ele><time>2026-04-16T10:09:43.816Z</time></trkpt><trkpt lat="45.0221712" lon="9.5218124"><ele>80.0</ele><time>2026-04-16T10:09:44.816Z</time></trkpt><trkpt lat="45.0221096" lon="9.5216653"><ele>80.0</ele><time>2026-04-16T10:09:45.816Z</time></trkpt><trkpt lat="45.0220489" lon="9.5215236"><ele>80.0</ele><time>2026-04-16T10:09:46.816Z</time></trkpt><trkpt lat="45.0219907" lon="9.5213852"><ele>80.0</ele><time>2026-04-16T10:09:47.816Z</time></trkpt><trkpt lat="45.0219286" lon="9.5212535"><ele>80.2</ele><time>2026-04-16T10:09:48.816Z</time></trkpt><trkpt lat="45.0218609" lon="9.5211281"><ele>80.4</ele><time>2026-04-16T10:09:49.817Z</time></trkpt><trkpt lat="45.0217905" lon="9.5210079"><ele>80.6</ele><time>2026-04-16T10:09:50.816Z</time></trkpt><trkpt lat="45.0217251" lon="9.520883"><ele>80.8</ele><time>2026-04-16T10:09:51.817Z</time></trkpt><trkpt lat="45.0216674" lon="9.5207558"><ele>81.0</ele><time>2026-04-16T10:09:52.817Z</time></trkpt><trkpt lat="45.0216151" lon="9.5206264"><ele>81.0</ele><time>2026-04-16T10:09:53.817Z</time></trkpt><trkpt lat="45.0215627" lon="9.5205026"><ele>81.0</ele><time>2026-04-16T10:09:54.816Z</time></trkpt><trkpt lat="45.0215035" lon="9.5203889"><ele>81.0</ele><time>2026-04-16T10:09:55.817Z</time></trkpt><trkpt lat="45.0214326" lon="9.5202818"><ele>81.0</ele><time>2026-04-16T10:09:56.817Z</time></trkpt><trkpt lat="45.0213514" lon="9.5201831"><ele>81.0</ele><time>2026-04-16T10:09:57.817Z</time></trkpt><trkpt lat="45.0212665" lon="9.520087"><ele>81.0</ele><time>2026-04-16T10:09:58.816Z</time></trkpt><trkpt lat="45.0211784" lon="9.5199925"><ele>81.0</ele><time>2026-04-16T10:09:59.817Z</time></trkpt><trkpt lat="45.0210796" lon="9.5198953"><ele>81.0</ele><time>2026-04-16T10:10:00.818Z</time></trkpt><trkpt lat="45.020978" lon="9.5197934"><ele>81.0</ele><time>2026-04-16T10:10:01.817Z</time></trkpt><trkpt lat="45.0208718" lon="9.5196913"><ele>81.0</ele><time>2026-04-16T10:10:02.817Z</time></trkpt><trkpt lat="45.0207612" lon="9.5195933"><ele>81.0</ele><time>2026-04-16T10:10:03.816Z</time></trkpt><trkpt lat="45.0206508" lon="9.5194991"><ele>81.0</ele><time>2026-04-16T10:10:04.817Z</time></trkpt><trkpt lat="45.0205394" lon="9.5194131"><ele>81.0</ele><time>2026-04-16T10:10:05.817Z</time></trkpt><trkpt lat="45.0204273" lon="9.519331"><ele>81.0</ele><time>2026-04-16T10:10:06.816Z</time></trkpt><trkpt lat="45.0203161" lon="9.5192514"><ele>81.0</ele><time>2026-04-16T10:10:07.816Z</time></trkpt><trkpt lat="45.0202013" lon="9.5191713"><ele>81.0</ele><time>2026-04-16T10:10:08.817Z</time></trkpt><trkpt lat="45.0200893" lon="9.5190884"><ele>81.0</ele><time>2026-04-16T10:10:09.818Z</time></trkpt><trkpt lat="45.0199783" lon="9.5190082"><ele>81.0</ele><time>2026-04-16T10:10:10.817Z</time></trkpt><trkpt lat="45.0198655" lon="9.5189285"><ele>81.0</ele><time>2026-04-16T10:10:11.816Z</time></trkpt><trkpt lat="45.0197537" lon="9.5188517"><ele>81.0</ele><time>2026-04-16T10:10:12.816Z</time></trkpt><trkpt lat="45.0196432" lon="9.5187781"><ele>81.0</ele><time>2026-04-16T10:10:13.817Z</time></trkpt><trkpt lat="45.0195313" lon="9.5187068"><ele>81.0</ele><time>2026-04-16T10:10:14.818Z</time></trkpt><trkpt lat="45.0194182" lon="9.518639"><ele>81.0</ele><time>2026-04-16T10:10:15.816Z</time></trkpt><trkpt lat="45.0193077" lon="9.5185706"><ele>81.0</ele><time>2026-04-16T10:10:16.816Z</time></trkpt><trkpt lat="45.0192011" lon="9.5185093"><ele>81.0</ele><time>2026-04-16T10:10:17.816Z</time></trkpt><trkpt lat="45.0190943" lon="9.5184478"><ele>81.0</ele><time>2026-04-16T10:10:18.817Z</time></trkpt><trkpt lat="45.0189872" lon="9.5183887"><ele>81.0</ele><time>2026-04-16T10:10:19.817Z</time></trkpt><trkpt lat="45.0188816" lon="9.5183342"><ele>81.0</ele><time>2026-04-16T10:10:20.816Z</time></trkpt><trkpt lat="45.018779" lon="9.5182848"><ele>81.0</ele><time>2026-04-16T10:10:21.816Z</time></trkpt><trkpt lat="45.0186755" lon="9.5182368"><ele>81.0</ele><time>2026-04-16T10:10:22.817Z</time></trkpt><trkpt lat="45.0185715" lon="9.5181859"><ele>81.0</ele><time>2026-04-16T10:10:23.816Z</time></trkpt><trkpt lat="45.0184715" lon="9.518145"><ele>81.0</ele><time>2026-04-16T10:10:24.817Z</time></trkpt><trkpt lat="45.018377" lon="9.5181075"><ele>81.0</ele><time>2026-04-16T10:10:25.817Z</time></trkpt><trkpt lat="45.0182891" lon="9.5180698"><ele>81.0</ele><time>2026-04-16T10:10:26.818Z</time></trkpt><trkpt lat="45.0181969" lon="9.5180217"><ele>81.0</ele><time>2026-04-16T10:10:27.816Z</time></trkpt><trkpt lat="45.0181059" lon="9.517967"><ele>81.16666666666667</ele><time>2026-04-16T10:10:28.817Z</time></trkpt><trkpt lat="45.0180182" lon="9.5179139"><ele>81.33333333333333</ele><time>2026-04-16T10:10:29.817Z</time></trkpt><trkpt lat="45.0179349" lon="9.5178638"><ele>81.5</ele><time>2026-04-16T10:10:30.817Z</time></trkpt><trkpt lat="45.0178508" lon="9.517817"><ele>81.66666666666666</ele><time>2026-04-16T10:10:31.816Z</time></trkpt><trkpt lat="45.0177652" lon="9.5177799"><ele>81.83333333333333</ele><time>2026-04-16T10:10:32.817Z</time></trkpt><trkpt lat="45.0176851" lon="9.5177539"><ele>82.0</ele><time>2026-04-16T10:10:33.817Z</time></trkpt><trkpt lat="45.0176045" lon="9.5177409"><ele>82.39999999999999</ele><time>2026-04-16T10:10:34.818Z</time></trkpt><trkpt lat="45.0175164" lon="9.5177301"><ele>82.8</ele><time>2026-04-16T10:10:35.817Z</time></trkpt><trkpt lat="45.0174205" lon="9.517721"><ele>83.2</ele><time>2026-04-16T10:10:36.816Z</time></trkpt><trkpt lat="45.0173157" lon="9.5177187"><ele>83.6</ele><time>2026-04-16T10:10:37.816Z</time></trkpt><trkpt lat="45.0172136" lon="9.5177139"><ele>84.0</ele><time>2026-04-16T10:10:38.818Z</time></trkpt><trkpt lat="45.0171194" lon="9.5177102"><ele>84.16666666666667</ele><time>2026-04-16T10:10:39.817Z</time></trkpt><trkpt lat="45.0170339" lon="9.5177067"><ele>84.33333333333333</ele><time>2026-04-16T10:10:40.817Z</time></trkpt><trkpt lat="45.0169609" lon="9.5176999"><ele>84.5</ele><time>2026-04-16T10:10:41.817Z</time></trkpt><trkpt lat="45.0168434" lon="9.517673"><ele>84.66666666666666</ele><time>2026-04-16T10:10:43.816Z</time></trkpt><trkpt lat="45.0167558" lon="9.5176503"><ele>84.83333333333333</ele><time>2026-04-16T10:10:45.817Z</time></trkpt><trkpt lat="45.0166905" lon="9.5176328"><ele>85.0</ele><time>2026-04-16T10:10:48.816Z</time></trkpt><trkpt lat="45.0166311" lon="9.5175868"><ele>85.0</ele><time>2026-04-16T10:11:13.817Z</time></trkpt><trkpt lat="45.0165534" lon="9.5176538"><ele>85.0</ele><time>2026-04-16T10:11:15.816Z</time></trkpt><trkpt lat="45.0164691" lon="9.5178096"><ele>85.0</ele><time>2026-04-16T10:11:17.817Z</time></trkpt><trkpt lat="45.0164247" lon="9.517894"><ele>85.0</ele><time>2026-04-16T10:11:18.817Z</time></trkpt><trkpt lat="45.0163697" lon="9.5179911"><ele>85.0</ele><time>2026-04-16T10:11:19.816Z</time></trkpt><trkpt lat="45.0163167" lon="9.5180897"><ele>84.4</ele><time>2026-04-16T10:11:20.818Z</time></trkpt><trkpt lat="45.0162609" lon="9.5182009"><ele>83.8</ele><time>2026-04-16T10:11:21.817Z</time></trkpt><trkpt lat="45.0161994" lon="9.5183178"><ele>83.19999999999999</ele><time>2026-04-16T10:11:22.816Z</time></trkpt><trkpt lat="45.0161328" lon="9.5184461"><ele>82.6</ele><time>2026-04-16T10:11:23.817Z</time></trkpt><trkpt lat="45.0160607" lon="9.5185828"><ele>82.0</ele><time>2026-04-16T10:11:24.817Z</time></trkpt><trkpt lat="45.0159879" lon="9.518722"><ele>82.0</ele><time>2026-04-16T10:11:25.817Z</time></trkpt><trkpt lat="45.0159118" lon="9.5188613"><ele>82.0</ele><time>2026-04-16T10:11:26.816Z</time></trkpt><trkpt lat="45.0158363" lon="9.5189953"><ele>82.0</ele><time>2026-04-16T10:11:27.817Z</time></trkpt><trkpt lat="45.0157643" lon="9.5191331"><ele>82.0</ele><time>2026-04-16T10:11:28.816Z</time></trkpt><trkpt lat="45.015693" lon="9.519268"><ele>82.0</ele><time>2026-04-16T10:11:29.818Z</time></trkpt><trkpt lat="45.0156265" lon="9.5193984"><ele>82.0</ele><time>2026-04-16T10:11:30.816Z</time></trkpt><trkpt lat="45.0155613" lon="9.5195122"><ele>82.0</ele><time>2026-04-16T10:11:31.816Z</time></trkpt><trkpt lat="45.0154978" lon="9.5196216"><ele>82.0</ele><time>2026-04-16T10:11:32.817Z</time></trkpt><trkpt lat="45.0154371" lon="9.5197235"><ele>82.0</ele><time>2026-04-16T10:11:33.817Z</time></trkpt><trkpt lat="45.0153759" lon="9.5198292"><ele>82.19999999999999</ele><time>2026-04-16T10:11:34.817Z</time></trkpt><trkpt lat="45.0153159" lon="9.51994"><ele>82.4</ele><time>2026-04-16T10:11:35.816Z</time></trkpt><trkpt lat="45.0152568" lon="9.5200516"><ele>82.6</ele><time>2026-04-16T10:11:36.816Z</time></trkpt><trkpt lat="45.0151993" lon="9.5201659"><ele>82.80000000000001</ele><time>2026-04-16T10:11:37.818Z</time></trkpt><trkpt lat="45.0151401" lon="9.5202828"><ele>83.0</ele><time>2026-04-16T10:11:38.816Z</time></trkpt><trkpt lat="45.0150793" lon="9.5204034"><ele>83.0</ele><time>2026-04-16T10:11:39.817Z</time></trkpt><trkpt lat="45.0150257" lon="9.5205272"><ele>83.0</ele><time>2026-04-16T10:11:40.817Z</time></trkpt><trkpt lat="45.0149788" lon="9.5206504"><ele>83.0</ele><time>2026-04-16T10:11:41.816Z</time></trkpt><trkpt lat="45.014943" lon="9.5207734"><ele>83.0</ele><time>2026-04-16T10:11:42.818Z</time></trkpt><trkpt lat="45.0149186" lon="9.5208935"><ele>83.0</ele><time>2026-04-16T10:11:43.817Z</time></trkpt><trkpt lat="45.0149012" lon="9.5210086"><ele>82.85714285714285</ele><time>2026-04-16T10:11:44.817Z</time></trkpt><trkpt lat="45.0148907" lon="9.5211175"><ele>82.71428571428572</ele><time>2026-04-16T10:11:45.816Z</time></trkpt><trkpt lat="45.0148708" lon="9.5212135"><ele>82.57142857142857</ele><time>2026-04-16T10:11:46.816Z</time></trkpt><trkpt lat="45.0148328" lon="9.5212857"><ele>82.42857142857142</ele><time>2026-04-16T10:11:47.817Z</time></trkpt><trkpt lat="45.0147785" lon="9.5213393"><ele>82.28571428571428</ele><time>2026-04-16T10:11:48.817Z</time></trkpt><trkpt lat="45.0147085" lon="9.5213739"><ele>82.14285714285714</ele><time>2026-04-16T10:11:49.816Z</time></trkpt><trkpt lat="45.0146247" lon="9.5213845"><ele>82.0</ele><time>2026-04-16T10:11:50.817Z</time></trkpt><trkpt lat="45.0145259" lon="9.5213831"><ele>82.0</ele><time>2026-04-16T10:11:51.817Z</time></trkpt><trkpt lat="45.014423" lon="9.5213742"><ele>82.0</ele><time>2026-04-16T10:11:52.817Z</time></trkpt><trkpt lat="45.0143109" lon="9.5213669"><ele>82.0</ele><time>2026-04-16T10:11:53.816Z</time></trkpt><trkpt lat="45.0141915" lon="9.5213584"><ele>82.0</ele><time>2026-04-16T10:11:54.817Z</time></trkpt><trkpt lat="45.014057" lon="9.5213468"><ele>82.25</ele><time>2026-04-16T10:11:55.817Z</time></trkpt><trkpt lat="45.0139155" lon="9.5213371"><ele>82.5</ele><time>2026-04-16T10:11:56.818Z</time></trkpt><trkpt lat="45.0137669" lon="9.5213285"><ele>82.75</ele><time>2026-04-16T10:11:57.817Z</time></trkpt><trkpt lat="45.0136195" lon="9.5213161"><ele>83.0</ele><time>2026-04-16T10:11:58.817Z</time></trkpt><trkpt lat="45.0134677" lon="9.5213021"><ele>82.33333333333334</ele><time>2026-04-16T10:11:59.816Z</time></trkpt><trkpt lat="45.0133019" lon="9.5212914"><ele>81.66666666666667</ele><time>2026-04-16T10:12:00.816Z</time></trkpt><trkpt lat="45.0131312" lon="9.5212795"><ele>81.0</ele><time>2026-04-16T10:12:01.817Z</time></trkpt><trkpt lat="45.0129522" lon="9.5212683"><ele>81.0</ele><time>2026-04-16T10:12:02.817Z</time></trkpt><trkpt lat="45.0127675" lon="9.5212558"><ele>81.0</ele><time>2026-04-16T10:12:03.817Z</time></trkpt><trkpt lat="45.0125826" lon="9.5212416"><ele>81.0</ele><time>2026-04-16T10:12:04.817Z</time></trkpt><trkpt lat="45.012395" lon="9.5212256"><ele>82.0</ele><time>2026-04-16T10:12:05.817Z</time></trkpt><trkpt lat="45.0122059" lon="9.5212106"><ele>83.0</ele><time>2026-04-16T10:12:06.817Z</time></trkpt><trkpt lat="45.0120133" lon="9.5211967"><ele>84.0</ele><time>2026-04-16T10:12:07.817Z</time></trkpt><trkpt lat="45.0118165" lon="9.5211835"><ele>84.66666666666667</ele><time>2026-04-16T10:12:08.816Z</time></trkpt><trkpt lat="45.0116192" lon="9.5211713"><ele>85.33333333333334</ele><time>2026-04-16T10:12:09.817Z</time></trkpt><trkpt lat="45.0114203" lon="9.5211543"><ele>86.0</ele><time>2026-04-16T10:12:10.817Z</time></trkpt><trkpt lat="45.0112185" lon="9.5211387"><ele>86.0</ele><time>2026-04-16T10:12:11.817Z</time></trkpt><trkpt lat="45.0110185" lon="9.5211236"><ele>86.0</ele><time>2026-04-16T10:12:12.816Z</time></trkpt><trkpt lat="45.0108248" lon="9.5211085"><ele>86.0</ele><time>2026-04-16T10:12:13.817Z</time></trkpt><trkpt lat="45.0106326" lon="9.5210925"><ele>85.66666666666667</ele><time>2026-04-16T10:12:14.817Z</time></trkpt><trkpt lat="45.0104404" lon="9.5210772"><ele>85.33333333333333</ele><time>2026-04-16T10:12:15.817Z</time></trkpt><trkpt lat="45.0102501" lon="9.5210635"><ele>85.0</ele><time>2026-04-16T10:12:16.816Z</time></trkpt><trkpt lat="45.0100626" lon="9.5210498"><ele>85.66666666666666</ele><time>2026-04-16T10:12:17.817Z</time></trkpt><trkpt lat="45.0098792" lon="9.5210365"><ele>86.33333333333333</ele><time>2026-04-16T10:12:18.817Z</time></trkpt><trkpt lat="45.009696" lon="9.5210215"><ele>87.0</ele><time>2026-04-16T10:12:19.817Z</time></trkpt><trkpt lat="45.009514" lon="9.5210089"><ele>87.0</ele><time>2026-04-16T10:12:20.816Z</time></trkpt><trkpt lat="45.0093342" lon="9.5209973"><ele>87.0</ele><time>2026-04-16T10:12:21.817Z</time></trkpt><trkpt lat="45.0091544" lon="9.5209844"><ele>87.0</ele><time>2026-04-16T10:12:22.816Z</time></trkpt><trkpt lat="45.0089812" lon="9.5209708"><ele>87.0</ele><time>2026-04-16T10:12:23.817Z</time></trkpt><trkpt lat="45.0088173" lon="9.5209544"><ele>87.0</ele><time>2026-04-16T10:12:24.816Z</time></trkpt><trkpt lat="45.0086631" lon="9.5209432"><ele>87.0</ele><time>2026-04-16T10:12:25.817Z</time></trkpt><trkpt lat="45.0085225" lon="9.5209343"><ele>87.0</ele><time>2026-04-16T10:12:26.816Z</time></trkpt><trkpt lat="45.0083958" lon="9.5209261"><ele>87.0</ele><time>2026-04-16T10:12:27.816Z</time></trkpt><trkpt lat="45.0082823" lon="9.5209159"><ele>87.0</ele><time>2026-04-16T10:12:28.816Z</time></trkpt><trkpt lat="45.0081852" lon="9.5209069"><ele>87.0</ele><time>2026-04-16T10:12:29.817Z</time></trkpt><trkpt lat="45.0081005" lon="9.520898"><ele>87.0</ele><time>2026-04-16T10:12:30.817Z</time></trkpt><trkpt lat="45.0080218" lon="9.520889"><ele>86.8</ele><time>2026-04-16T10:12:31.817Z</time></trkpt><trkpt lat="45.0079417" lon="9.5208837"><ele>86.6</ele><time>2026-04-16T10:12:32.816Z</time></trkpt><trkpt lat="45.00785" lon="9.5208922"><ele>86.39999999999999</ele><time>2026-04-16T10:12:33.816Z</time></trkpt><trkpt lat="45.0077459" lon="9.5209119"><ele>86.19999999999999</ele><time>2026-04-16T10:12:34.817Z</time></trkpt><trkpt lat="45.0076345" lon="9.5209532"><ele>86.0</ele><time>2026-04-16T10:12:35.817Z</time></trkpt><trkpt lat="45.0075223" lon="9.5210179"><ele>86.0</ele><time>2026-04-16T10:12:36.816Z</time></trkpt><trkpt lat="45.0074041" lon="9.5211076"><ele>86.0</ele><time>2026-04-16T10:12:37.817Z</time></trkpt><trkpt lat="45.0072835" lon="9.521226"><ele>86.0</ele><time>2026-04-16T10:12:38.818Z</time></trkpt><trkpt lat="45.0071659" lon="9.5213652"><ele>86.0</ele><time>2026-04-16T10:12:39.817Z</time></trkpt><trkpt lat="45.0070542" lon="9.5215117"><ele>86.0</ele><time>2026-04-16T10:12:40.817Z</time></trkpt><trkpt lat="45.0069418" lon="9.5216618"><ele>86.0</ele><time>2026-04-16T10:12:41.816Z</time></trkpt><trkpt lat="45.006831" lon="9.5218122"><ele>86.0</ele><time>2026-04-16T10:12:42.816Z</time></trkpt><trkpt lat="45.0067201" lon="9.5219611"><ele>86.33333333333334</ele><time>2026-04-16T10:12:43.817Z</time></trkpt><trkpt lat="45.0066077" lon="9.5221103"><ele>86.66666666666667</ele><time>2026-04-16T10:12:44.817Z</time></trkpt><trkpt lat="45.0064945" lon="9.5222547"><ele>87.0</ele><time>2026-04-16T10:12:45.817Z</time></trkpt><trkpt lat="45.0063881" lon="9.5223938"><ele>87.0</ele><time>2026-04-16T10:12:46.817Z</time></trkpt><trkpt lat="45.0062894" lon="9.5225286"><ele>87.0</ele><time>2026-04-16T10:12:47.815Z</time></trkpt><trkpt lat="45.0061983" lon="9.5226564"><ele>87.0</ele><time>2026-04-16T10:12:48.815Z</time></trkpt><trkpt lat="45.0061044" lon="9.5227806"><ele>87.0</ele><time>2026-04-16T10:12:49.816Z</time></trkpt><trkpt lat="45.0060078" lon="9.5229075"><ele>87.0</ele><time>2026-04-16T10:12:50.815Z</time></trkpt><trkpt lat="45.0059061" lon="9.5230439"><ele>87.0</ele><time>2026-04-16T10:12:51.816Z</time></trkpt><trkpt lat="45.0058031" lon="9.5231842"><ele>87.0</ele><time>2026-04-16T10:12:52.816Z</time></trkpt><trkpt lat="45.0056968" lon="9.5233247"><ele>87.0</ele><time>2026-04-16T10:12:53.816Z</time></trkpt><trkpt lat="45.00559" lon="9.5234666"><ele>87.33333333333333</ele><time>2026-04-16T10:12:54.816Z</time></trkpt><trkpt lat="45.0054795" lon="9.5236102"><ele>87.66666666666666</ele><time>2026-04-16T10:12:55.815Z</time></trkpt><trkpt lat="45.0053705" lon="9.5237572"><ele>88.0</ele><time>2026-04-16T10:12:56.816Z</time></trkpt><trkpt lat="45.0052606" lon="9.5239058"><ele>88.33333333333333</ele><time>2026-04-16T10:12:57.816Z</time></trkpt><trkpt lat="45.0051493" lon="9.5240526"><ele>88.66666666666667</ele><time>2026-04-16T10:12:58.815Z</time></trkpt><trkpt lat="45.0050406" lon="9.5241974"><ele>89.0</ele><time>2026-04-16T10:12:59.815Z</time></trkpt><trkpt lat="45.0049321" lon="9.5243452"><ele>88.66666666666667</ele><time>2026-04-16T10:13:00.816Z</time></trkpt><trkpt lat="45.0048208" lon="9.5244916"><ele>88.33333333333333</ele><time>2026-04-16T10:13:01.816Z</time></trkpt><trkpt lat="45.0047092" lon="9.5246436"><ele>88.0</ele><time>2026-04-16T10:13:02.816Z</time></trkpt><trkpt lat="45.0045969" lon="9.5247923"><ele>88.0</ele><time>2026-04-16T10:13:03.815Z</time></trkpt><trkpt lat="45.0044832" lon="9.5249392"><ele>88.0</ele><time>2026-04-16T10:13:04.816Z</time></trkpt><trkpt lat="45.0043693" lon="9.5250918"><ele>88.0</ele><time>2026-04-16T10:13:05.816Z</time></trkpt><trkpt lat="45.004259" lon="9.5252439"><ele>88.0</ele><time>2026-04-16T10:13:06.817Z</time></trkpt><trkpt lat="45.0041445" lon="9.525396"><ele>88.0</ele><time>2026-04-16T10:13:07.815Z</time></trkpt><trkpt lat="45.0040261" lon="9.5255491"><ele>88.0</ele><time>2026-04-16T10:13:08.815Z</time></trkpt><trkpt lat="45.003909" lon="9.5257015"><ele>88.0</ele><time>2026-04-16T10:13:09.815Z</time></trkpt><trkpt lat="45.0037927" lon="9.5258543"><ele>88.0</ele><time>2026-04-16T10:13:10.816Z</time></trkpt><trkpt lat="45.0036754" lon="9.5260096"><ele>88.0</ele><time>2026-04-16T10:13:11.815Z</time></trkpt><trkpt lat="45.0035558" lon="9.5261703"><ele>87.66666666666666</ele><time>2026-04-16T10:13:12.817Z</time></trkpt><trkpt lat="45.003434" lon="9.5263314"><ele>87.33333333333333</ele><time>2026-04-16T10:13:13.816Z</time></trkpt><trkpt lat="45.0033091" lon="9.5264954"><ele>87.0</ele><time>2026-04-16T10:13:14.816Z</time></trkpt><trkpt lat="45.0031859" lon="9.5266589"><ele>86.66666666666667</ele><time>2026-04-16T10:13:15.816Z</time></trkpt><trkpt lat="45.0030605" lon="9.5268243"><ele>86.33333333333334</ele><time>2026-04-16T10:13:16.815Z</time></trkpt><trkpt lat="45.0029375" lon="9.5269886"><ele>86.0</ele><time>2026-04-16T10:13:17.816Z</time></trkpt><trkpt lat="45.0028138" lon="9.5271505"><ele>86.0</ele><time>2026-04-16T10:13:18.816Z</time></trkpt><trkpt lat="45.0026932" lon="9.5273093"><ele>86.0</ele><time>2026-04-16T10:13:19.817Z</time></trkpt><trkpt lat="45.0025773" lon="9.5274611"><ele>86.0</ele><time>2026-04-16T10:13:20.815Z</time></trkpt><trkpt lat="45.0024698" lon="9.527603"><ele>86.25</ele><time>2026-04-16T10:13:21.816Z</time></trkpt><trkpt lat="45.002366" lon="9.5277382"><ele>86.5</ele><time>2026-04-16T10:13:22.816Z</time></trkpt><trkpt lat="45.002265" lon="9.5278733"><ele>86.75</ele><time>2026-04-16T10:13:23.816Z</time></trkpt><trkpt lat="45.0021633" lon="9.5280107"><ele>87.0</ele><time>2026-04-16T10:13:24.816Z</time></trkpt><trkpt lat="45.0020541" lon="9.5281583"><ele>87.33333333333333</ele><time>2026-04-16T10:13:25.815Z</time></trkpt><trkpt lat="45.0019427" lon="9.5283035"><ele>87.66666666666666</ele><time>2026-04-16T10:13:26.816Z</time></trkpt><trkpt lat="45.0018298" lon="9.5284521"><ele>88.0</ele><time>2026-04-16T10:13:27.816Z</time></trkpt><trkpt lat="45.0017123" lon="9.5286036"><ele>87.0</ele><time>2026-04-16T10:13:28.815Z</time></trkpt><trkpt lat="45.0015913" lon="9.5287643"><ele>86.0</ele><time>2026-04-16T10:13:29.816Z</time></trkpt><trkpt lat="45.0014661" lon="9.5289347"><ele>85.0</ele><time>2026-04-16T10:13:30.815Z</time></trkpt><trkpt lat="45.0013455" lon="9.5290939"><ele>85.0</ele><time>2026-04-16T10:13:31.816Z</time></trkpt><trkpt lat="45.0012294" lon="9.5292484"><ele>85.0</ele><time>2026-04-16T10:13:32.816Z</time></trkpt><trkpt lat="45.0011197" lon="9.529397"><ele>85.0</ele><time>2026-04-16T10:13:33.816Z</time></trkpt><trkpt lat="45.0010137" lon="9.5295397"><ele>85.25</ele><time>2026-04-16T10:13:34.815Z</time></trkpt><trkpt lat="45.0009077" lon="9.5296786"><ele>85.5</ele><time>2026-04-16T10:13:35.816Z</time></trkpt><trkpt lat="45.0008024" lon="9.5298177"><ele>85.75</ele><time>2026-04-16T10:13:36.816Z</time></trkpt><trkpt lat="45.0007048" lon="9.5299525"><ele>86.0</ele><time>2026-04-16T10:13:37.815Z</time></trkpt><trkpt lat="45.0006106" lon="9.5300756"><ele>86.75</ele><time>2026-04-16T10:13:38.817Z</time></trkpt><trkpt lat="45.0005213" lon="9.5301917"><ele>87.5</ele><time>2026-04-16T10:13:39.816Z</time></trkpt><trkpt lat="45.0004366" lon="9.5303046"><ele>88.25</ele><time>2026-04-16T10:13:40.816Z</time></trkpt><trkpt lat="45.0003528" lon="9.5304233"><ele>89.0</ele><time>2026-04-16T10:13:41.817Z</time></trkpt><trkpt lat="45.0002728" lon="9.5305357"><ele>89.0</ele><time>2026-04-16T10:13:42.815Z</time></trkpt><trkpt lat="45.0001939" lon="9.530638"><ele>89.0</ele><time>2026-04-16T10:13:43.816Z</time></trkpt><trkpt lat="45.0001023" lon="9.5307283"><ele>89.0</ele><time>2026-04-16T10:13:44.815Z</time></trkpt><trkpt lat="45.0000047" lon="9.5308101"><ele>89.0</ele><time>2026-04-16T10:13:45.816Z</time></trkpt><trkpt lat="44.9998924" lon="9.5308785"><ele>89.0</ele><time>2026-04-16T10:13:46.815Z</time></trkpt><trkpt lat="44.999782" lon="9.5309366"><ele>89.0</ele><time>2026-04-16T10:13:47.816Z</time></trkpt><trkpt lat="44.9996621" lon="9.530993"><ele>89.0</ele><time>2026-04-16T10:13:48.815Z</time></trkpt><trkpt lat="44.9995394" lon="9.5310495"><ele>89.0</ele><time>2026-04-16T10:13:49.815Z</time></trkpt><trkpt lat="44.9994184" lon="9.5311054"><ele>89.0</ele><time>2026-04-16T10:13:50.816Z</time></trkpt><trkpt lat="44.9992995" lon="9.5311721"><ele>89.0</ele><time>2026-04-16T10:13:51.816Z</time></trkpt><trkpt lat="44.9991889" lon="9.5312475"><ele>89.0</ele><time>2026-04-16T10:13:52.816Z</time></trkpt><trkpt lat="44.9990907" lon="9.5313314"><ele>89.0</ele><time>2026-04-16T10:13:53.816Z</time></trkpt><trkpt lat="44.9989964" lon="9.5314134"><ele>89.6</ele><time>2026-04-16T10:13:54.816Z</time></trkpt><trkpt lat="44.9989058" lon="9.5314915"><ele>90.2</ele><time>2026-04-16T10:13:55.816Z</time></trkpt><trkpt lat="44.9988197" lon="9.531566"><ele>90.8</ele><time>2026-04-16T10:13:56.816Z</time></trkpt><trkpt lat="44.9987372" lon="9.5316364"><ele>91.39999999999999</ele><time>2026-04-16T10:13:57.816Z</time></trkpt><trkpt lat="44.9986508" lon="9.5316844"><ele>92.0</ele><time>2026-04-16T10:13:58.816Z</time></trkpt><trkpt lat="44.9985685" lon="9.5317132"><ele>92.0</ele><time>2026-04-16T10:13:59.815Z</time></trkpt><trkpt lat="44.9984964" lon="9.5317292"><ele>92.0</ele><time>2026-04-16T10:14:00.816Z</time></trkpt><trkpt lat="44.9984064" lon="9.5317335"><ele>92.0</ele><time>2026-04-16T10:14:02.815Z</time></trkpt><trkpt lat="44.9983452" lon="9.5316984"><ele>92.0</ele><time>2026-04-16T10:14:04.816Z</time></trkpt><trkpt lat="44.9982685" lon="9.5315997"><ele>92.0</ele><time>2026-04-16T10:14:06.816Z</time></trkpt><trkpt lat="44.9982243" lon="9.5315329"><ele>92.0</ele><time>2026-04-16T10:14:07.815Z</time></trkpt><trkpt lat="44.9981756" lon="9.5314644"><ele>91.8</ele><time>2026-04-16T10:14:08.816Z</time></trkpt><trkpt lat="44.9981214" lon="9.5313879"><ele>91.6</ele><time>2026-04-16T10:14:09.816Z</time></trkpt><trkpt lat="44.9980614" lon="9.5312967"><ele>91.39999999999999</ele><time>2026-04-16T10:14:10.816Z</time></trkpt><trkpt lat="44.9979924" lon="9.5311874"><ele>91.19999999999999</ele><time>2026-04-16T10:14:11.816Z</time></trkpt><trkpt lat="44.9979235" lon="9.5310686"><ele>91.0</ele><time>2026-04-16T10:14:12.816Z</time></trkpt><trkpt lat="44.9978533" lon="9.5309422"><ele>90.75</ele><time>2026-04-16T10:14:13.817Z</time></trkpt><trkpt lat="44.9977785" lon="9.530811"><ele>90.5</ele><time>2026-04-16T10:14:14.816Z</time></trkpt><trkpt lat="44.9977022" lon="9.5306764"><ele>90.25</ele><time>2026-04-16T10:14:15.815Z</time></trkpt><trkpt lat="44.9976251" lon="9.5305421"><ele>90.0</ele><time>2026-04-16T10:14:16.815Z</time></trkpt><trkpt lat="44.9975498" lon="9.5304075"><ele>90.25</ele><time>2026-04-16T10:14:17.816Z</time></trkpt><trkpt lat="44.9974782" lon="9.5302785"><ele>90.5</ele><time>2026-04-16T10:14:18.815Z</time></trkpt><trkpt lat="44.9974041" lon="9.5301477"><ele>90.75</ele><time>2026-04-16T10:14:19.815Z</time></trkpt><trkpt lat="44.9973398" lon="9.5300213"><ele>91.0</ele><time>2026-04-16T10:14:20.815Z</time></trkpt><trkpt lat="44.9972782" lon="9.5298941"><ele>91.0</ele><time>2026-04-16T10:14:21.816Z</time></trkpt><trkpt lat="44.9972207" lon="9.529767"><ele>91.0</ele><time>2026-04-16T10:14:22.816Z</time></trkpt><trkpt lat="44.9971599" lon="9.5296561"><ele>91.0</ele><time>2026-04-16T10:14:23.816Z</time></trkpt><trkpt lat="44.9970983" lon="9.5295487"><ele>91.0</ele><time>2026-04-16T10:14:24.816Z</time></trkpt><trkpt lat="44.9970434" lon="9.5294448"><ele>91.0</ele><time>2026-04-16T10:14:25.815Z</time></trkpt><trkpt lat="44.996993" lon="9.5293451"><ele>90.8</ele><time>2026-04-16T10:14:26.815Z</time></trkpt><trkpt lat="44.9969412" lon="9.5292526"><ele>90.6</ele><time>2026-04-16T10:14:27.816Z</time></trkpt><trkpt lat="44.9968873" lon="9.5291533"><ele>90.4</ele><time>2026-04-16T10:14:28.816Z</time></trkpt><trkpt lat="44.9968318" lon="9.5290479"><ele>90.2</ele><time>2026-04-16T10:14:29.815Z</time></trkpt><trkpt lat="44.9967772" lon="9.5289339"><ele>90.0</ele><time>2026-04-16T10:14:30.815Z</time></trkpt><trkpt lat="44.9967172" lon="9.5288133"><ele>90.0</ele><time>2026-04-16T10:14:31.815Z</time></trkpt><trkpt lat="44.9966517" lon="9.5286848"><ele>90.0</ele><time>2026-04-16T10:14:32.816Z</time></trkpt><trkpt lat="44.9965848" lon="9.528549"><ele>90.0</ele><time>2026-04-16T10:14:33.815Z</time></trkpt><trkpt lat="44.9965127" lon="9.5284023"><ele>90.0</ele><time>2026-04-16T10:14:34.815Z</time></trkpt><trkpt lat="44.996435" lon="9.5282483"><ele>90.0</ele><time>2026-04-16T10:14:35.816Z</time></trkpt><trkpt lat="44.9963552" lon="9.5280883"><ele>90.0</ele><time>2026-04-16T10:14:36.815Z</time></trkpt><trkpt lat="44.9962741" lon="9.527926"><ele>90.0</ele><time>2026-04-16T10:14:37.816Z</time></trkpt><trkpt lat="44.996195" lon="9.5277706"><ele>90.0</ele><time>2026-04-16T10:14:38.816Z</time></trkpt><trkpt lat="44.9961198" lon="9.5276216"><ele>90.0</ele><time>2026-04-16T10:14:39.815Z</time></trkpt><trkpt lat="44.9960498" lon="9.5274728"><ele>90.0</ele><time>2026-04-16T10:14:40.815Z</time></trkpt><trkpt lat="44.9959857" lon="9.5273307"><ele>90.0</ele><time>2026-04-16T10:14:41.816Z</time></trkpt><trkpt lat="44.9959247" lon="9.5271967"><ele>90.0</ele><time>2026-04-16T10:14:42.815Z</time></trkpt><trkpt lat="44.9958655" lon="9.5270722"><ele>90.4</ele><time>2026-04-16T10:14:43.816Z</time></trkpt><trkpt lat="44.9958064" lon="9.5269563"><ele>90.8</ele><time>2026-04-16T10:14:44.815Z</time></trkpt><trkpt lat="44.9957349" lon="9.5268642"><ele>91.19999999999999</ele><time>2026-04-16T10:14:45.816Z</time></trkpt><trkpt lat="44.9956562" lon="9.5267916"><ele>91.6</ele><time>2026-04-16T10:14:46.816Z</time></trkpt><trkpt lat="44.9955609" lon="9.5267562"><ele>92.0</ele><time>2026-04-16T10:14:47.815Z</time></trkpt><trkpt lat="44.9954487" lon="9.5267433"><ele>92.0</ele><time>2026-04-16T10:14:48.817Z</time></trkpt><trkpt lat="44.9953256" lon="9.5267462"><ele>92.0</ele><time>2026-04-16T10:14:49.816Z</time></trkpt><trkpt lat="44.9951986" lon="9.5267575"><ele>92.0</ele><time>2026-04-16T10:14:50.815Z</time></trkpt><trkpt lat="44.9950683" lon="9.5267647"><ele>92.0</ele><time>2026-04-16T10:14:51.815Z</time></trkpt><trkpt lat="44.9949395" lon="9.5267714"><ele>92.25</ele><time>2026-04-16T10:14:52.815Z</time></trkpt><trkpt lat="44.9948115" lon="9.5267818"><ele>92.5</ele><time>2026-04-16T10:14:53.815Z</time></trkpt><trkpt lat="44.9946841" lon="9.5267847"><ele>92.75</ele><time>2026-04-16T10:14:54.816Z</time></trkpt><trkpt lat="44.9945565" lon="9.5267755"><ele>93.0</ele><time>2026-04-16T10:14:55.815Z</time></trkpt><trkpt lat="44.9944231" lon="9.5267597"><ele>93.0</ele><time>2026-04-16T10:14:56.815Z</time></trkpt><trkpt lat="44.9942864" lon="9.5267449"><ele>93.0</ele><time>2026-04-16T10:14:57.815Z</time></trkpt><trkpt lat="44.9941569" lon="9.5267288"><ele>93.0</ele><time>2026-04-16T10:14:58.816Z</time></trkpt><trkpt lat="44.994038" lon="9.5267075"><ele>93.0</ele><time>2026-04-16T10:14:59.815Z</time></trkpt><trkpt lat="44.9939231" lon="9.5266854"><ele>93.5</ele><time>2026-04-16T10:15:00.816Z</time></trkpt><trkpt lat="44.9938097" lon="9.5266666"><ele>94.0</ele><time>2026-04-16T10:15:01.817Z</time></trkpt><trkpt lat="44.9936933" lon="9.5266417"><ele>94.5</ele><time>2026-04-16T10:15:02.816Z</time></trkpt><trkpt lat="44.9935782" lon="9.5266101"><ele>95.0</ele><time>2026-04-16T10:15:03.815Z</time></trkpt><trkpt lat="44.9934622" lon="9.5265763"><ele>95.0</ele><time>2026-04-16T10:15:04.817Z</time></trkpt><trkpt lat="44.9933486" lon="9.5265418"><ele>95.0</ele><time>2026-04-16T10:15:05.815Z</time></trkpt><trkpt lat="44.9932373" lon="9.5265065"><ele>95.0</ele><time>2026-04-16T10:15:06.816Z</time></trkpt><trkpt lat="44.9931256" lon="9.5264691"><ele>95.0</ele><time>2026-04-16T10:15:07.816Z</time></trkpt><trkpt lat="44.9930146" lon="9.526433"><ele>95.25</ele><time>2026-04-16T10:15:08.816Z</time></trkpt><trkpt lat="44.9929017" lon="9.5263977"><ele>95.5</ele><time>2026-04-16T10:15:09.816Z</time></trkpt><trkpt lat="44.9927867" lon="9.5263621"><ele>95.75</ele><time>2026-04-16T10:15:10.816Z</time></trkpt><trkpt lat="44.9926718" lon="9.5263278"><ele>96.0</ele><time>2026-04-16T10:15:11.816Z</time></trkpt><trkpt lat="44.9925583" lon="9.5262928"><ele>95.6</ele><time>2026-04-16T10:15:12.816Z</time></trkpt><trkpt lat="44.9924474" lon="9.5262582"><ele>95.19999999999999</ele><time>2026-04-16T10:15:13.816Z</time></trkpt><trkpt lat="44.9923426" lon="9.5262202"><ele>94.80000000000001</ele><time>2026-04-16T10:15:14.815Z</time></trkpt><trkpt lat="44.9922457" lon="9.5261759"><ele>94.4</ele><time>2026-04-16T10:15:15.817Z</time></trkpt><trkpt lat="44.9921553" lon="9.5261177"><ele>94.0</ele><time>2026-04-16T10:15:16.815Z</time></trkpt><trkpt lat="44.9920671" lon="9.5260432"><ele>93.80000000000001</ele><time>2026-04-16T10:15:17.815Z</time></trkpt><trkpt lat="44.9919821" lon="9.5259526"><ele>93.60000000000001</ele><time>2026-04-16T10:15:18.817Z</time></trkpt><trkpt lat="44.9918981" lon="9.5258532"><ele>93.4</ele><time>2026-04-16T10:15:19.816Z</time></trkpt><trkpt lat="44.9918157" lon="9.5257427"><ele>93.2</ele><time>2026-04-16T10:15:20.816Z</time></trkpt><trkpt lat="44.9917322" lon="9.5256261"><ele>93.0</ele><time>2026-04-16T10:15:21.816Z</time></trkpt><trkpt lat="44.9916458" lon="9.5255057"><ele>93.75</ele><time>2026-04-16T10:15:22.816Z</time></trkpt><trkpt lat="44.9915552" lon="9.5253762"><ele>94.5</ele><time>2026-04-16T10:15:23.817Z</time></trkpt><trkpt lat="44.9914599" lon="9.5252404"><ele>95.25</ele><time>2026-04-16T10:15:24.816Z</time></trkpt><trkpt lat="44.991358" lon="9.5250988"><ele>96.0</ele><time>2026-04-16T10:15:25.816Z</time></trkpt><trkpt lat="44.9912522" lon="9.5249544"><ele>96.0</ele><time>2026-04-16T10:15:26.816Z</time></trkpt><trkpt lat="44.9911513" lon="9.5248141"><ele>96.0</ele><time>2026-04-16T10:15:27.815Z</time></trkpt><trkpt lat="44.9910517" lon="9.5246728"><ele>96.0</ele><time>2026-04-16T10:15:28.816Z</time></trkpt><trkpt lat="44.9909553" lon="9.5245392"><ele>96.0</ele><time>2026-04-16T10:15:29.816Z</time></trkpt><trkpt lat="44.9908645" lon="9.5244111"><ele>96.0</ele><time>2026-04-16T10:15:30.816Z</time></trkpt><trkpt lat="44.9907744" lon="9.5242814"><ele>96.0</ele><time>2026-04-16T10:15:31.815Z</time></trkpt><trkpt lat="44.9906859" lon="9.5241494"><ele>96.0</ele><time>2026-04-16T10:15:32.815Z</time></trkpt><trkpt lat="44.9905982" lon="9.5240207"><ele>96.0</ele><time>2026-04-16T10:15:33.816Z</time></trkpt><trkpt lat="44.9905118" lon="9.5239027"><ele>96.0</ele><time>2026-04-16T10:15:34.816Z</time></trkpt><trkpt lat="44.9904285" lon="9.5237871"><ele>96.0</ele><time>2026-04-16T10:15:35.815Z</time></trkpt><trkpt lat="44.9903401" lon="9.5236801"><ele>96.0</ele><time>2026-04-16T10:15:36.816Z</time></trkpt><trkpt lat="44.9902414" lon="9.523583"><ele>96.0</ele><time>2026-04-16T10:15:37.816Z</time></trkpt><trkpt lat="44.9901223" lon="9.5234954"><ele>96.66666666666666</ele><time>2026-04-16T10:15:38.816Z</time></trkpt><trkpt lat="44.9899863" lon="9.5234146"><ele>97.33333333333333</ele><time>2026-04-16T10:15:39.815Z</time></trkpt><trkpt lat="44.9898364" lon="9.5233499"><ele>98.0</ele><time>2026-04-16T10:15:40.816Z</time></trkpt><trkpt lat="44.9896781" lon="9.5232931"><ele>98.0</ele><time>2026-04-16T10:15:41.815Z</time></trkpt><trkpt lat="44.9895144" lon="9.5232274"><ele>98.0</ele><time>2026-04-16T10:15:42.816Z</time></trkpt><trkpt lat="44.989345" lon="9.5231624"><ele>98.0</ele><time>2026-04-16T10:15:43.816Z</time></trkpt><trkpt lat="44.9891735" lon="9.5230968"><ele>97.66666666666666</ele><time>2026-04-16T10:15:44.815Z</time></trkpt><trkpt lat="44.9889985" lon="9.5230321"><ele>97.33333333333334</ele><time>2026-04-16T10:15:45.815Z</time></trkpt><trkpt lat="44.9888222" lon="9.5229633"><ele>97.0</ele><time>2026-04-16T10:15:46.815Z</time></trkpt><trkpt lat="44.9886426" lon="9.5228912"><ele>96.66666666666667</ele><time>2026-04-16T10:15:47.817Z</time></trkpt><trkpt lat="44.9884601" lon="9.5228161"><ele>96.33333333333334</ele><time>2026-04-16T10:15:48.815Z</time></trkpt><trkpt lat="44.988273" lon="9.5227354"><ele>96.0</ele><time>2026-04-16T10:15:49.815Z</time></trkpt><trkpt lat="44.9880814" lon="9.5226529"><ele>96.66666666666666</ele><time>2026-04-16T10:15:50.816Z</time></trkpt><trkpt lat="44.9878859" lon="9.5225794"><ele>97.33333333333333</ele><time>2026-04-16T10:15:51.816Z</time></trkpt><trkpt lat="44.9876861" lon="9.5225131"><ele>98.0</ele><time>2026-04-16T10:15:52.816Z</time></trkpt><trkpt lat="44.9874872" lon="9.5224589"><ele>98.0</ele><time>2026-04-16T10:15:53.816Z</time></trkpt><trkpt lat="44.9872928" lon="9.5224181"><ele>98.0</ele><time>2026-04-16T10:15:54.815Z</time></trkpt><trkpt lat="44.9871006" lon="9.5223801"><ele>98.0</ele><time>2026-04-16T10:15:55.815Z</time></trkpt><trkpt lat="44.9869094" lon="9.5223455"><ele>98.0</ele><time>2026-04-16T10:15:56.816Z</time></trkpt><trkpt lat="44.9867196" lon="9.5223156"><ele>98.0</ele><time>2026-04-16T10:15:57.815Z</time></trkpt><trkpt lat="44.986531" lon="9.5222911"><ele>98.0</ele><time>2026-04-16T10:15:58.816Z</time></trkpt><trkpt lat="44.9863451" lon="9.5222646"><ele>98.0</ele><time>2026-04-16T10:15:59.816Z</time></trkpt><trkpt lat="44.9861561" lon="9.5222359"><ele>98.0</ele><time>2026-04-16T10:16:00.816Z</time></trkpt><trkpt lat="44.9859646" lon="9.5222061"><ele>98.0</ele><time>2026-04-16T10:16:01.815Z</time></trkpt><trkpt lat="44.9857795" lon="9.5221755"><ele>98.0</ele><time>2026-04-16T10:16:02.816Z</time></trkpt><trkpt lat="44.9855981" lon="9.5221451"><ele>98.0</ele><time>2026-04-16T10:16:03.816Z</time></trkpt><trkpt lat="44.9854242" lon="9.5221106"><ele>98.0</ele><time>2026-04-16T10:16:04.815Z</time></trkpt><trkpt lat="44.9852576" lon="9.5220818"><ele>98.0</ele><time>2026-04-16T10:16:05.816Z</time></trkpt><trkpt lat="44.985094" lon="9.5220701"><ele>98.0</ele><time>2026-04-16T10:16:06.815Z</time></trkpt><trkpt lat="44.9849264" lon="9.5220809"><ele>98.0</ele><time>2026-04-16T10:16:07.816Z</time></trkpt><trkpt lat="44.9847556" lon="9.5221127"><ele>98.33333333333333</ele><time>2026-04-16T10:16:08.816Z</time></trkpt><trkpt lat="44.9845807" lon="9.5221587"><ele>98.66666666666666</ele><time>2026-04-16T10:16:09.816Z</time></trkpt><trkpt lat="44.9844045" lon="9.5222123"><ele>99.0</ele><time>2026-04-16T10:16:10.816Z</time></trkpt><trkpt lat="44.984228" lon="9.5222676"><ele>99.33333333333334</ele><time>2026-04-16T10:16:11.816Z</time></trkpt><trkpt lat="44.9840537" lon="9.5223134"><ele>99.66666666666667</ele><time>2026-04-16T10:16:12.815Z</time></trkpt><trkpt lat="44.9838796" lon="9.5223465"><ele>100.0</ele><time>2026-04-16T10:16:13.815Z</time></trkpt><trkpt lat="44.9837074" lon="9.5223724"><ele>100.0</ele><time>2026-04-16T10:16:14.815Z</time></trkpt><trkpt lat="44.9835352" lon="9.5223981"><ele>100.0</ele><time>2026-04-16T10:16:15.815Z</time></trkpt><trkpt lat="44.9833637" lon="9.5224173"><ele>100.0</ele><time>2026-04-16T10:16:16.816Z</time></trkpt><trkpt lat="44.9831934" lon="9.5224195"><ele>99.66666666666667</ele><time>2026-04-16T10:16:17.816Z</time></trkpt><trkpt lat="44.983029" lon="9.5224062"><ele>99.33333333333334</ele><time>2026-04-16T10:16:18.815Z</time></trkpt><trkpt lat="44.9828639" lon="9.522377"><ele>99.0</ele><time>2026-04-16T10:16:19.816Z</time></trkpt><trkpt lat="44.9827001" lon="9.5223374"><ele>99.0</ele><time>2026-04-16T10:16:20.817Z</time></trkpt><trkpt lat="44.9825441" lon="9.5222857"><ele>99.0</ele><time>2026-04-16T10:16:21.815Z</time></trkpt><trkpt lat="44.9823949" lon="9.5222262"><ele>99.0</ele><time>2026-04-16T10:16:22.816Z</time></trkpt><trkpt lat="44.9822512" lon="9.5221527"><ele>99.0</ele><time>2026-04-16T10:16:23.817Z</time></trkpt><trkpt lat="44.9821192" lon="9.5220706"><ele>99.0</ele><time>2026-04-16T10:16:24.815Z</time></trkpt><trkpt lat="44.9819902" lon="9.5219862"><ele>99.0</ele><time>2026-04-16T10:16:25.817Z</time></trkpt><trkpt lat="44.98186" lon="9.521901"><ele>99.0</ele><time>2026-04-16T10:16:26.816Z</time></trkpt><trkpt lat="44.9817264" lon="9.5218259"><ele>99.5</ele><time>2026-04-16T10:16:27.816Z</time></trkpt><trkpt lat="44.9815903" lon="9.5217758"><ele>100.0</ele><time>2026-04-16T10:16:28.815Z</time></trkpt><trkpt lat="44.9814493" lon="9.5217495"><ele>100.5</ele><time>2026-04-16T10:16:29.816Z</time></trkpt><trkpt lat="44.9813089" lon="9.5217536"><ele>101.0</ele><time>2026-04-16T10:16:30.815Z</time></trkpt><trkpt lat="44.9811735" lon="9.5217716"><ele>101.0</ele><time>2026-04-16T10:16:31.816Z</time></trkpt><trkpt lat="44.981035" lon="9.5218002"><ele>101.0</ele><time>2026-04-16T10:16:32.815Z</time></trkpt><trkpt lat="44.9808849" lon="9.5218344"><ele>101.0</ele><time>2026-04-16T10:16:33.816Z</time></trkpt><trkpt lat="44.9807292" lon="9.5218749"><ele>100.66666666666666</ele><time>2026-04-16T10:16:34.815Z</time></trkpt><trkpt lat="44.9805718" lon="9.5219217"><ele>100.33333333333334</ele><time>2026-04-16T10:16:35.816Z</time></trkpt><trkpt lat="44.9804143" lon="9.5219769"><ele>100.0</ele><time>2026-04-16T10:16:36.816Z</time></trkpt><trkpt lat="44.9802599" lon="9.5220495"><ele>100.66666666666667</ele><time>2026-04-16T10:16:37.816Z</time></trkpt><trkpt lat="44.9801116" lon="9.5221471"><ele>101.33333333333334</ele><time>2026-04-16T10:16:38.815Z</time></trkpt><trkpt lat="44.9799725" lon="9.5222533"><ele>102.0</ele><time>2026-04-16T10:16:39.815Z</time></trkpt><trkpt lat="44.979833" lon="9.5223438"><ele>102.0</ele><time>2026-04-16T10:16:40.816Z</time></trkpt><trkpt lat="44.9796876" lon="9.5224138"><ele>102.0</ele><time>2026-04-16T10:16:41.816Z</time></trkpt><trkpt lat="44.9795371" lon="9.5224634"><ele>102.0</ele><time>2026-04-16T10:16:42.816Z</time></trkpt><trkpt lat="44.9793797" lon="9.5224942"><ele>102.0</ele><time>2026-04-16T10:16:43.815Z</time></trkpt><trkpt lat="44.9792186" lon="9.522522"><ele>102.0</ele><time>2026-04-16T10:16:44.816Z</time></trkpt><trkpt lat="44.979064" lon="9.5225506"><ele>102.0</ele><time>2026-04-16T10:16:45.815Z</time></trkpt><trkpt lat="44.978917" lon="9.5225786"><ele>102.0</ele><time>2026-04-16T10:16:46.816Z</time></trkpt><trkpt lat="44.9787745" lon="9.5226051"><ele>102.0</ele><time>2026-04-16T10:16:47.817Z</time></trkpt><trkpt lat="44.9786267" lon="9.5226228"><ele>102.0</ele><time>2026-04-16T10:16:48.816Z</time></trkpt><trkpt lat="44.9784717" lon="9.5226246"><ele>102.0</ele><time>2026-04-16T10:16:49.816Z</time></trkpt><trkpt lat="44.9783109" lon="9.5226016"><ele>102.0</ele><time>2026-04-16T10:16:50.815Z</time></trkpt><trkpt lat="44.9781403" lon="9.5225582"><ele>102.0</ele><time>2026-04-16T10:16:51.815Z</time></trkpt><trkpt lat="44.9779602" lon="9.5225022"><ele>102.0</ele><time>2026-04-16T10:16:52.815Z</time></trkpt><trkpt lat="44.9777675" lon="9.5224452"><ele>102.0</ele><time>2026-04-16T10:16:53.816Z</time></trkpt><trkpt lat="44.9775643" lon="9.5223835"><ele>102.0</ele><time>2026-04-16T10:16:54.815Z</time></trkpt><trkpt lat="44.977364" lon="9.5223242"><ele>102.0</ele><time>2026-04-16T10:16:55.816Z</time></trkpt><trkpt lat="44.9771576" lon="9.5222573"><ele>102.33333333333334</ele><time>2026-04-16T10:16:56.817Z</time></trkpt><trkpt lat="44.9769443" lon="9.5221905"><ele>102.66666666666667</ele><time>2026-04-16T10:16:57.816Z</time></trkpt><trkpt lat="44.9767364" lon="9.5221267"><ele>103.0</ele><time>2026-04-16T10:16:58.815Z</time></trkpt><trkpt lat="44.9765318" lon="9.5220641"><ele>103.33333333333334</ele><time>2026-04-16T10:16:59.816Z</time></trkpt><trkpt lat="44.9763328" lon="9.5220035"><ele>103.66666666666666</ele><time>2026-04-16T10:17:00.817Z</time></trkpt><trkpt lat="44.9761427" lon="9.5219441"><ele>104.0</ele><time>2026-04-16T10:17:01.815Z</time></trkpt><trkpt lat="44.9759623" lon="9.5218879"><ele>104.33333333333333</ele><time>2026-04-16T10:17:02.816Z</time></trkpt><trkpt lat="44.9757905" lon="9.5218364"><ele>104.66666666666666</ele><time>2026-04-16T10:17:03.816Z</time></trkpt><trkpt lat="44.9756343" lon="9.5217872"><ele>105.0</ele><time>2026-04-16T10:17:04.816Z</time></trkpt><trkpt lat="44.9754909" lon="9.5217427"><ele>105.0</ele><time>2026-04-16T10:17:05.816Z</time></trkpt><trkpt lat="44.9753686" lon="9.5217053"><ele>105.0</ele><time>2026-04-16T10:17:06.815Z</time></trkpt><trkpt lat="44.9752718" lon="9.5216753"><ele>105.0</ele><time>2026-04-16T10:17:07.816Z</time></trkpt><trkpt lat="44.9751957" lon="9.5216527"><ele>105.0</ele><time>2026-04-16T10:17:08.815Z</time></trkpt><trkpt lat="44.9750922" lon="9.521627"><ele>105.0</ele><time>2026-04-16T10:17:10.816Z</time></trkpt><trkpt lat="44.9750257" lon="9.5216428"><ele>105.2</ele><time>2026-04-16T10:17:12.816Z</time></trkpt><trkpt lat="44.9749755" lon="9.5217664"><ele>105.4</ele><time>2026-04-16T10:17:14.816Z</time></trkpt><trkpt lat="44.9749573" lon="9.5218777"><ele>105.6</ele><time>2026-04-16T10:17:15.817Z</time></trkpt><trkpt lat="44.9749335" lon="9.5220166"><ele>105.8</ele><time>2026-04-16T10:17:16.816Z</time></trkpt><trkpt lat="44.9749093" lon="9.5221738"><ele>106.0</ele><time>2026-04-16T10:17:17.816Z</time></trkpt><trkpt lat="44.9748827" lon="9.5223599"><ele>107.33333333333334</ele><time>2026-04-16T10:17:18.816Z</time></trkpt><trkpt lat="44.9748568" lon="9.5225697"><ele>108.66666666666666</ele><time>2026-04-16T10:17:19.815Z</time></trkpt><trkpt lat="44.9748375" lon="9.5228044"><ele>110.0</ele><time>2026-04-16T10:17:20.816Z</time></trkpt><trkpt lat="44.9748191" lon="9.5230365"><ele>111.0</ele><time>2026-04-16T10:17:21.815Z</time></trkpt><trkpt lat="44.9747983" lon="9.5232825"><ele>112.0</ele><time>2026-04-16T10:17:22.815Z</time></trkpt><trkpt lat="44.9747764" lon="9.5235277"><ele>113.0</ele><time>2026-04-16T10:17:23.817Z</time></trkpt><trkpt lat="44.9747559" lon="9.5237493"><ele>114.0</ele><time>2026-04-16T10:17:24.815Z</time></trkpt><trkpt lat="44.9747362" lon="9.5239519"><ele>115.0</ele><time>2026-04-16T10:17:25.816Z</time></trkpt><trkpt lat="44.9747086" lon="9.5241327"><ele>116.0</ele><time>2026-04-16T10:17:26.815Z</time></trkpt><trkpt lat="44.9746693" lon="9.5242837"><ele>117.0</ele><time>2026-04-16T10:17:27.816Z</time></trkpt><trkpt lat="44.9746202" lon="9.5244055"><ele>117.0</ele><time>2026-04-16T10:17:28.816Z</time></trkpt><trkpt lat="44.9745676" lon="9.5245012"><ele>116.99999999999999</ele><time>2026-04-16T10:17:29.817Z</time></trkpt><trkpt lat="44.9745017" lon="9.5245665"><ele>116.99999999999999</ele><time>2026-04-16T10:17:30.815Z</time></trkpt><trkpt lat="44.9744227" lon="9.5245981"><ele>117.0</ele><time>2026-04-16T10:17:31.815Z</time></trkpt><trkpt lat="44.9743285" lon="9.5245955"><ele>117.0</ele><time>2026-04-16T10:17:32.816Z</time></trkpt><trkpt lat="44.9742171" lon="9.5245654"><ele>117.5</ele><time>2026-04-16T10:17:33.816Z</time></trkpt><trkpt lat="44.9740873" lon="9.5245247"><ele>118.0</ele><time>2026-04-16T10:17:34.816Z</time></trkpt><trkpt lat="44.9739443" lon="9.5244798"><ele>118.5</ele><time>2026-04-16T10:17:35.815Z</time></trkpt><trkpt lat="44.9738007" lon="9.5244336"><ele>119.0</ele><time>2026-04-16T10:17:36.817Z</time></trkpt><trkpt lat="44.9736475" lon="9.5243878"><ele>119.0</ele><time>2026-04-16T10:17:37.815Z</time></trkpt><trkpt lat="44.973491" lon="9.5243399"><ele>119.0</ele><time>2026-04-16T10:17:38.815Z</time></trkpt><trkpt lat="44.9733352" lon="9.5242907"><ele>119.0</ele><time>2026-04-16T10:17:39.816Z</time></trkpt><trkpt lat="44.9731788" lon="9.5242473"><ele>119.75</ele><time>2026-04-16T10:17:40.816Z</time></trkpt><trkpt lat="44.9730284" lon="9.5242106"><ele>120.5</ele><time>2026-04-16T10:17:41.815Z</time></trkpt><trkpt lat="44.9728809" lon="9.5241694"><ele>121.25</ele><time>2026-04-16T10:17:42.816Z</time></trkpt><trkpt lat="44.9727432" lon="9.5241274"><ele>122.0</ele><time>2026-04-16T10:17:43.815Z</time></trkpt><trkpt lat="44.9726092" lon="9.5240884"><ele>122.5</ele><time>2026-04-16T10:17:44.816Z</time></trkpt><trkpt lat="44.9724771" lon="9.5240505"><ele>123.0</ele><time>2026-04-16T10:17:45.815Z</time></trkpt><trkpt lat="44.9723475" lon="9.5240102"><ele>123.5</ele><time>2026-04-16T10:17:46.816Z</time></trkpt><trkpt lat="44.9722199" lon="9.52397"><ele>124.0</ele><time>2026-04-16T10:17:47.816Z</time></trkpt><trkpt lat="44.9720922" lon="9.523926"><ele>124.0</ele><time>2026-04-16T10:17:48.815Z</time></trkpt><trkpt lat="44.9719648" lon="9.5238764"><ele>124.0</ele><time>2026-04-16T10:17:49.815Z</time></trkpt><trkpt lat="44.9718374" lon="9.5238207"><ele>124.0</ele><time>2026-04-16T10:17:50.815Z</time></trkpt><trkpt lat="44.9717078" lon="9.5237626"><ele>124.0</ele><time>2026-04-16T10:17:51.816Z</time></trkpt><trkpt lat="44.9715789" lon="9.5237085"><ele>125.5</ele><time>2026-04-16T10:17:52.816Z</time></trkpt><trkpt lat="44.9714531" lon="9.5236537"><ele>127.0</ele><time>2026-04-16T10:17:53.817Z</time></trkpt><trkpt lat="44.9713294" lon="9.5236039"><ele>128.5</ele><time>2026-04-16T10:17:54.816Z</time></trkpt><trkpt lat="44.9712136" lon="9.5235542"><ele>130.0</ele><time>2026-04-16T10:17:55.816Z</time></trkpt><trkpt lat="44.9711039" lon="9.5235054"><ele>130.0</ele><time>2026-04-16T10:17:56.816Z</time></trkpt><trkpt lat="44.9709958" lon="9.5234625"><ele>130.0</ele><time>2026-04-16T10:17:57.816Z</time></trkpt><trkpt lat="44.9708884" lon="9.5234252"><ele>130.0</ele><time>2026-04-16T10:17:58.815Z</time></trkpt><trkpt lat="44.9707844" lon="9.5233915"><ele>130.0</ele><time>2026-04-16T10:17:59.816Z</time></trkpt><trkpt lat="44.970675" lon="9.5233562"><ele>130.0</ele><time>2026-04-16T10:18:00.815Z</time></trkpt><trkpt lat="44.9705609" lon="9.5233213"><ele>130.0</ele><time>2026-04-16T10:18:01.816Z</time></trkpt><trkpt lat="44.9704421" lon="9.5232902"><ele>130.0</ele><time>2026-04-16T10:18:02.815Z</time></trkpt><trkpt lat="44.9703134" lon="9.5232694"><ele>130.0</ele><time>2026-04-16T10:18:03.816Z</time></trkpt><trkpt lat="44.9701931" lon="9.5232598"><ele>130.0</ele><time>2026-04-16T10:18:04.817Z</time></trkpt><trkpt lat="44.9700829" lon="9.523253"><ele>130.66666666666669</ele><time>2026-04-16T10:18:05.816Z</time></trkpt><trkpt lat="44.9699924" lon="9.5232497"><ele>131.33333333333334</ele><time>2026-04-16T10:18:06.816Z</time></trkpt><trkpt lat="44.969917" lon="9.5232529"><ele>132.0</ele><time>2026-04-16T10:18:07.816Z</time></trkpt><trkpt lat="44.9698459" lon="9.5232656"><ele>132.66666666666666</ele><time>2026-04-16T10:18:08.815Z</time></trkpt><trkpt lat="44.9697714" lon="9.5232786"><ele>133.33333333333331</ele><time>2026-04-16T10:18:09.815Z</time></trkpt><trkpt lat="44.9696923" lon="9.523291"><ele>134.0</ele><time>2026-04-16T10:18:10.816Z</time></trkpt><trkpt lat="44.9696098" lon="9.5232993"><ele>134.0</ele><time>2026-04-16T10:18:11.816Z</time></trkpt><trkpt lat="44.9695282" lon="9.5232996"><ele>134.0</ele><time>2026-04-16T10:18:12.816Z</time></trkpt><trkpt lat="44.9694513" lon="9.5232903"><ele>134.0</ele><time>2026-04-16T10:18:13.815Z</time></trkpt><trkpt lat="44.9693805" lon="9.5232727"><ele>134.0</ele><time>2026-04-16T10:18:14.816Z</time></trkpt><trkpt lat="44.9692692" lon="9.5232394"><ele>134.0</ele><time>2026-04-16T10:18:16.815Z</time></trkpt><trkpt lat="44.9691979" lon="9.5232169"><ele>134.0</ele><time>2026-04-16T10:18:19.816Z</time></trkpt><trkpt lat="44.9692144" lon="9.5233046"><ele>134.0</ele><time>2026-04-16T10:18:27.816Z</time></trkpt><trkpt lat="44.9693442" lon="9.5233121"><ele>134.0</ele><time>2026-04-16T10:18:29.816Z</time></trkpt><trkpt lat="44.9694178" lon="9.5233213"><ele>134.0</ele><time>2026-04-16T10:18:30.816Z</time></trkpt><trkpt lat="44.969509" lon="9.5233312"><ele>134.0</ele><time>2026-04-16T10:18:31.816Z</time></trkpt><trkpt lat="44.9695957" lon="9.523332"><ele>134.0</ele><time>2026-04-16T10:18:32.816Z</time></trkpt><trkpt lat="44.969691" lon="9.5233295"><ele>134.0</ele><time>2026-04-16T10:18:33.815Z</time></trkpt><trkpt lat="44.9697958" lon="9.5233211"><ele>134.0</ele><time>2026-04-16T10:18:34.816Z</time></trkpt><trkpt lat="44.9699094" lon="9.52331"><ele>134.0</ele><time>2026-04-16T10:18:35.815Z</time></trkpt><trkpt lat="44.970023" lon="9.5233005"><ele>134.0</ele><time>2026-04-16T10:18:36.815Z</time></trkpt><trkpt lat="44.9701424" lon="9.5232981"><ele>133.2</ele><time>2026-04-16T10:18:37.816Z</time></trkpt><trkpt lat="44.9702567" lon="9.5233092"><ele>132.4</ele><time>2026-04-16T10:18:38.816Z</time></trkpt><trkpt lat="44.9703628" lon="9.5233232"><ele>131.6</ele><time>2026-04-16T10:18:39.816Z</time></trkpt><trkpt lat="44.9704626" lon="9.5233378"><ele>130.8</ele><time>2026-04-16T10:18:40.815Z</time></trkpt><trkpt lat="44.9705534" lon="9.5233573"><ele>130.0</ele><time>2026-04-16T10:18:41.815Z</time></trkpt><trkpt lat="44.9706269" lon="9.523382"><ele>130.0</ele><time>2026-04-16T10:18:42.816Z</time></trkpt><trkpt lat="44.9707013" lon="9.5234506"><ele>130.0</ele><time>2026-04-16T10:18:44.816Z</time></trkpt><trkpt lat="44.9707216" lon="9.5235522"><ele>130.0</ele><time>2026-04-16T10:18:46.816Z</time></trkpt><trkpt lat="44.970706" lon="9.5237125"><ele>130.0</ele><time>2026-04-16T10:18:48.816Z</time></trkpt><trkpt lat="44.9706955" lon="9.523809"><ele>130.0</ele><time>2026-04-16T10:18:49.817Z</time></trkpt><trkpt lat="44.9706873" lon="9.5239019"><ele>130.0</ele><time>2026-04-16T10:18:50.815Z</time></trkpt><trkpt lat="44.9706687" lon="9.5240698"><ele>129.66666666666669</ele><time>2026-04-16T10:18:52.816Z</time></trkpt><trkpt lat="44.9706482" lon="9.5242183"><ele>129.33333333333334</ele><time>2026-04-16T10:18:54.816Z</time></trkpt><trkpt lat="44.9706304" lon="9.5243571"><ele>129.0</ele><time>2026-04-16T10:18:56.815Z</time></trkpt><trkpt lat="44.9706132" lon="9.5244864"><ele>128.66666666666666</ele><time>2026-04-16T10:18:58.817Z</time></trkpt><trkpt lat="44.9706019" lon="9.5245917"><ele>128.33333333333331</ele><time>2026-04-16T10:19:01.815Z</time></trkpt><trkpt lat="44.9705829" lon="9.5246809"><ele>128.0</ele><time>2026-04-16T10:19:04.817Z</time></trkpt><trkpt lat="44.9705722" lon="9.524811"><ele>127.60000000000001</ele><time>2026-04-16T10:19:07.816Z</time></trkpt><trkpt lat="44.970559" lon="9.5249571"><ele>127.20000000000002</ele><time>2026-04-16T10:19:09.816Z</time></trkpt><trkpt lat="44.9705609" lon="9.5251334"><ele>126.8</ele><time>2026-04-16T10:19:11.816Z</time></trkpt><trkpt lat="44.970569" lon="9.5252428"><ele>126.4</ele><time>2026-04-16T10:19:12.816Z</time></trkpt><trkpt lat="44.9705853" lon="9.5253504"><ele>126.0</ele><time>2026-04-16T10:19:13.816Z</time></trkpt><trkpt lat="44.9706021" lon="9.5254576"><ele>125.33333333333333</ele><time>2026-04-16T10:19:14.816Z</time></trkpt><trkpt lat="44.9706175" lon="9.5255565"><ele>124.66666666666666</ele><time>2026-04-16T10:19:15.816Z</time></trkpt><trkpt lat="44.9706366" lon="9.5256646"><ele>124.0</ele><time>2026-04-16T10:19:16.816Z</time></trkpt><trkpt lat="44.9706535" lon="9.5257805"><ele>123.33333333333333</ele><time>2026-04-16T10:19:17.816Z</time></trkpt><trkpt lat="44.9706714" lon="9.5259016"><ele>122.66666666666666</ele><time>2026-04-16T10:19:18.817Z</time></trkpt><trkpt lat="44.9706908" lon="9.5260293"><ele>122.0</ele><time>2026-04-16T10:19:19.815Z</time></trkpt><trkpt lat="44.9707107" lon="9.5261574"><ele>121.0</ele><time>2026-04-16T10:19:20.815Z</time></trkpt><trkpt lat="44.9707264" lon="9.5262752"><ele>119.99999999999999</ele><time>2026-04-16T10:19:21.815Z</time></trkpt><trkpt lat="44.9707456" lon="9.5263909"><ele>118.99999999999999</ele><time>2026-04-16T10:19:22.815Z</time></trkpt><trkpt lat="44.9707654" lon="9.5265165"><ele>118.0</ele><time>2026-04-16T10:19:23.815Z</time></trkpt><trkpt lat="44.9707867" lon="9.5266499"><ele>117.0</ele><time>2026-04-16T10:19:24.816Z</time></trkpt><trkpt lat="44.9708121" lon="9.526782"><ele>117.0</ele><time>2026-04-16T10:19:25.816Z</time></trkpt><trkpt lat="44.9708338" lon="9.5269157"><ele>116.99999999999999</ele><time>2026-04-16T10:19:26.815Z</time></trkpt><trkpt lat="44.9708555" lon="9.5270503"><ele>116.99999999999999</ele><time>2026-04-16T10:19:27.815Z</time></trkpt><trkpt lat="44.9708733" lon="9.5271818"><ele>117.0</ele><time>2026-04-16T10:19:28.816Z</time></trkpt><trkpt lat="44.9708899" lon="9.5273132"><ele>117.0</ele><time>2026-04-16T10:19:29.816Z</time></trkpt><trkpt lat="44.9709033" lon="9.5274374"><ele>117.0</ele><time>2026-04-16T10:19:30.815Z</time></trkpt><trkpt lat="44.9709065" lon="9.5275623"><ele>116.99999999999999</ele><time>2026-04-16T10:19:31.815Z</time></trkpt><trkpt lat="44.9709004" lon="9.5276918"><ele>116.99999999999999</ele><time>2026-04-16T10:19:32.815Z</time></trkpt><trkpt lat="44.9708745" lon="9.5278277"><ele>117.0</ele><time>2026-04-16T10:19:33.816Z</time></trkpt><trkpt lat="44.970838" lon="9.5279616"><ele>117.0</ele><time>2026-04-16T10:19:34.815Z</time></trkpt><trkpt lat="44.9708002" lon="9.5280962"><ele>118.6</ele><time>2026-04-16T10:19:35.816Z</time></trkpt><trkpt lat="44.9707645" lon="9.5282288"><ele>120.19999999999999</ele><time>2026-04-16T10:19:36.816Z</time></trkpt><trkpt lat="44.97073" lon="9.5283584"><ele>121.8</ele><time>2026-04-16T10:19:37.816Z</time></trkpt><trkpt lat="44.9706952" lon="9.5284808"><ele>123.4</ele><time>2026-04-16T10:19:38.816Z</time></trkpt><trkpt lat="44.9706628" lon="9.5285903"><ele>125.0</ele><time>2026-04-16T10:19:39.816Z</time></trkpt><trkpt lat="44.9706272" lon="9.5287096"><ele>125.0</ele><time>2026-04-16T10:19:40.816Z</time></trkpt><trkpt lat="44.9705885" lon="9.5288449"><ele>125.0</ele><time>2026-04-16T10:19:41.816Z</time></trkpt><trkpt lat="44.9705464" lon="9.528984"><ele>125.0</ele><time>2026-04-16T10:19:42.815Z</time></trkpt><trkpt lat="44.9705037" lon="9.5291285"><ele>125.0</ele><time>2026-04-16T10:19:43.816Z</time></trkpt><trkpt lat="44.9704595" lon="9.5292797"><ele>125.0</ele><time>2026-04-16T10:19:44.816Z</time></trkpt><trkpt lat="44.9704173" lon="9.5294315"><ele>124.75</ele><time>2026-04-16T10:19:45.816Z</time></trkpt><trkpt lat="44.9703734" lon="9.5295821"><ele>124.5</ele><time>2026-04-16T10:19:46.816Z</time></trkpt><trkpt lat="44.9703304" lon="9.5297351"><ele>124.25</ele><time>2026-04-16T10:19:47.816Z</time></trkpt><trkpt lat="44.9702897" lon="9.529884"><ele>124.0</ele><time>2026-04-16T10:19:48.816Z</time></trkpt><trkpt lat="44.9702483" lon="9.5300358"><ele>124.0</ele><time>2026-04-16T10:19:49.815Z</time></trkpt><trkpt lat="44.9702049" lon="9.5301898"><ele>124.0</ele><time>2026-04-16T10:19:50.817Z</time></trkpt><trkpt lat="44.9701617" lon="9.5303467"><ele>124.0</ele><time>2026-04-16T10:19:51.817Z</time></trkpt><trkpt lat="44.970118" lon="9.5305055"><ele>124.0</ele><time>2026-04-16T10:19:52.816Z</time></trkpt><trkpt lat="44.9700752" lon="9.5306648"><ele>124.0</ele><time>2026-04-16T10:19:53.815Z</time></trkpt><trkpt lat="44.9700351" lon="9.5308167"><ele>124.0</ele><time>2026-04-16T10:19:54.815Z</time></trkpt><trkpt lat="44.9699963" lon="9.5309629"><ele>124.0</ele><time>2026-04-16T10:19:55.816Z</time></trkpt><trkpt lat="44.9699556" lon="9.531102"><ele>124.0</ele><time>2026-04-16T10:19:56.817Z</time></trkpt><trkpt lat="44.9699183" lon="9.5312394"><ele>124.0</ele><time>2026-04-16T10:19:57.815Z</time></trkpt><trkpt lat="44.9698826" lon="9.5313718"><ele>124.0</ele><time>2026-04-16T10:19:58.816Z</time></trkpt><trkpt lat="44.9698484" lon="9.5315029"><ele>124.0</ele><time>2026-04-16T10:19:59.816Z</time></trkpt><trkpt lat="44.9698153" lon="9.5316367"><ele>124.0</ele><time>2026-04-16T10:20:00.816Z</time></trkpt><trkpt lat="44.9697854" lon="9.5317693"><ele>124.0</ele><time>2026-04-16T10:20:01.816Z</time></trkpt><trkpt lat="44.9697513" lon="9.5319071"><ele>124.0</ele><time>2026-04-16T10:20:02.817Z</time></trkpt><trkpt lat="44.9697136" lon="9.5320421"><ele>123.80000000000001</ele><time>2026-04-16T10:20:03.816Z</time></trkpt><trkpt lat="44.9696772" lon="9.532173"><ele>123.60000000000001</ele><time>2026-04-16T10:20:04.817Z</time></trkpt><trkpt lat="44.9696428" lon="9.5323002"><ele>123.4</ele><time>2026-04-16T10:20:05.815Z</time></trkpt><trkpt lat="44.969611" lon="9.5324275"><ele>123.2</ele><time>2026-04-16T10:20:06.815Z</time></trkpt><trkpt lat="44.9695748" lon="9.5325619"><ele>123.0</ele><time>2026-04-16T10:20:07.815Z</time></trkpt><trkpt lat="44.9695378" lon="9.5327021"><ele>123.0</ele><time>2026-04-16T10:20:08.816Z</time></trkpt><trkpt lat="44.9694979" lon="9.5328432"><ele>123.00000000000001</ele><time>2026-04-16T10:20:09.815Z</time></trkpt><trkpt lat="44.9694581" lon="9.5329846"><ele>123.00000000000001</ele><time>2026-04-16T10:20:10.816Z</time></trkpt><trkpt lat="44.9694174" lon="9.5331235"><ele>123.0</ele><time>2026-04-16T10:20:11.816Z</time></trkpt><trkpt lat="44.9693778" lon="9.5332611"><ele>123.0</ele><time>2026-04-16T10:20:12.816Z</time></trkpt><trkpt lat="44.9693409" lon="9.5333981"><ele>122.4</ele><time>2026-04-16T10:20:13.815Z</time></trkpt><trkpt lat="44.9693069" lon="9.5335288"><ele>121.80000000000001</ele><time>2026-04-16T10:20:14.817Z</time></trkpt><trkpt lat="44.969274" lon="9.5336517"><ele>121.2</ele><time>2026-04-16T10:20:15.816Z</time></trkpt><trkpt lat="44.9692439" lon="9.5337675"><ele>120.6</ele><time>2026-04-16T10:20:16.815Z</time></trkpt><trkpt lat="44.969215" lon="9.5338607"><ele>120.0</ele><time>2026-04-16T10:20:17.816Z</time></trkpt><trkpt lat="44.969149" lon="9.5339698"><ele>120.0</ele><time>2026-04-16T10:20:19.817Z</time></trkpt><trkpt lat="44.969087" lon="9.5340016"><ele>120.0</ele><time>2026-04-16T10:20:21.817Z</time></trkpt><trkpt lat="44.9690251" lon="9.5339371"><ele>120.0</ele><time>2026-04-16T10:20:24.815Z</time></trkpt><trkpt lat="44.9690028" lon="9.533847"><ele>120.0</ele><time>2026-04-16T10:20:26.814Z</time></trkpt><trkpt lat="44.9689809" lon="9.5337589"><ele>120.0</ele><time>2026-04-16T10:20:29.815Z</time></trkpt><trkpt lat="44.9689062" lon="9.5336582"><ele>120.0</ele><time>2026-04-16T10:20:44.815Z</time></trkpt><trkpt lat="44.9688412" lon="9.5336001"><ele>120.6</ele><time>2026-04-16T10:20:45.814Z</time></trkpt><trkpt lat="44.9687672" lon="9.5335532"><ele>121.2</ele><time>2026-04-16T10:20:46.815Z</time></trkpt><trkpt lat="44.9686774" lon="9.5335151"><ele>121.80000000000001</ele><time>2026-04-16T10:20:47.815Z</time></trkpt><trkpt lat="44.9685839" lon="9.5334799"><ele>122.4</ele><time>2026-04-16T10:20:48.815Z</time></trkpt><trkpt lat="44.9684879" lon="9.5334337"><ele>123.0</ele><time>2026-04-16T10:20:49.815Z</time></trkpt><trkpt lat="44.9683871" lon="9.5333761"><ele>122.75</ele><time>2026-04-16T10:20:50.816Z</time></trkpt><trkpt lat="44.9682842" lon="9.533302"><ele>122.5</ele><time>2026-04-16T10:20:51.815Z</time></trkpt><trkpt lat="44.9681727" lon="9.5332234"><ele>122.25</ele><time>2026-04-16T10:20:52.814Z</time></trkpt><trkpt lat="44.9680575" lon="9.53314"><ele>122.0</ele><time>2026-04-16T10:20:53.814Z</time></trkpt><trkpt lat="44.9679372" lon="9.5330511"><ele>122.0</ele><time>2026-04-16T10:20:54.814Z</time></trkpt><trkpt lat="44.9678162" lon="9.5329576"><ele>122.0</ele><time>2026-04-16T10:20:55.815Z</time></trkpt><trkpt lat="44.9676908" lon="9.5328613"><ele>122.0</ele><time>2026-04-16T10:20:56.814Z</time></trkpt><trkpt lat="44.9675655" lon="9.5327606"><ele>122.0</ele><time>2026-04-16T10:20:57.815Z</time></trkpt><trkpt lat="44.9674466" lon="9.5326483"><ele>122.75</ele><time>2026-04-16T10:20:58.815Z</time></trkpt><trkpt lat="44.9673384" lon="9.5325341"><ele>123.5</ele><time>2026-04-16T10:20:59.814Z</time></trkpt><trkpt lat="44.9672327" lon="9.5324345"><ele>124.25</ele><time>2026-04-16T10:21:00.815Z</time></trkpt><trkpt lat="44.9671227" lon="9.5323599"><ele>125.0</ele><time>2026-04-16T10:21:01.814Z</time></trkpt><trkpt lat="44.9669998" lon="9.5323199"><ele>125.0</ele><time>2026-04-16T10:21:02.814Z</time></trkpt><trkpt lat="44.9668702" lon="9.5323156"><ele>125.0</ele><time>2026-04-16T10:21:03.815Z</time></trkpt><trkpt lat="44.9667347" lon="9.5323317"><ele>125.0</ele><time>2026-04-16T10:21:04.815Z</time></trkpt><trkpt lat="44.9666005" lon="9.5323513"><ele>125.0</ele><time>2026-04-16T10:21:05.815Z</time></trkpt><trkpt lat="44.9664672" lon="9.5323597"><ele>124.5</ele><time>2026-04-16T10:21:06.815Z</time></trkpt><trkpt lat="44.9663316" lon="9.5323503"><ele>124.0</ele><time>2026-04-16T10:21:07.814Z</time></trkpt><trkpt lat="44.9662028" lon="9.5323128"><ele>123.5</ele><time>2026-04-16T10:21:08.814Z</time></trkpt><trkpt lat="44.9660862" lon="9.5322593"><ele>123.0</ele><time>2026-04-16T10:21:09.815Z</time></trkpt><trkpt lat="44.9659709" lon="9.5322142"><ele>124.25</ele><time>2026-04-16T10:21:10.815Z</time></trkpt><trkpt lat="44.9658515" lon="9.5322014"><ele>125.5</ele><time>2026-04-16T10:21:11.815Z</time></trkpt><trkpt lat="44.9657257" lon="9.5322106"><ele>126.75</ele><time>2026-04-16T10:21:12.815Z</time></trkpt><trkpt lat="44.9655962" lon="9.5322423"><ele>128.0</ele><time>2026-04-16T10:21:13.814Z</time></trkpt><trkpt lat="44.9654613" lon="9.532285"><ele>128.0</ele><time>2026-04-16T10:21:14.814Z</time></trkpt><trkpt lat="44.9653301" lon="9.5323244"><ele>128.0</ele><time>2026-04-16T10:21:15.814Z</time></trkpt><trkpt lat="44.9651972" lon="9.5323467"><ele>128.0</ele><time>2026-04-16T10:21:16.816Z</time></trkpt><trkpt lat="44.9650597" lon="9.5323433"><ele>128.0</ele><time>2026-04-16T10:21:17.814Z</time></trkpt><trkpt lat="44.9649175" lon="9.5323215"><ele>130.33333333333331</ele><time>2026-04-16T10:21:18.814Z</time></trkpt><trkpt lat="44.9647704" lon="9.5322953"><ele>132.66666666666666</ele><time>2026-04-16T10:21:19.815Z</time></trkpt><trkpt lat="44.9646123" lon="9.5322679"><ele>135.0</ele><time>2026-04-16T10:21:20.815Z</time></trkpt><trkpt lat="44.9644508" lon="9.5322419"><ele>135.0</ele><time>2026-04-16T10:21:21.816Z</time></trkpt><trkpt lat="44.9642876" lon="9.5322143"><ele>135.0</ele><time>2026-04-16T10:21:22.815Z</time></trkpt><trkpt lat="44.964123" lon="9.5321847"><ele>135.0</ele><time>2026-04-16T10:21:23.814Z</time></trkpt><trkpt lat="44.9639609" lon="9.5321565"><ele>135.66666666666666</ele><time>2026-04-16T10:21:24.815Z</time></trkpt><trkpt lat="44.9637976" lon="9.5321275"><ele>136.33333333333331</ele><time>2026-04-16T10:21:25.814Z</time></trkpt><trkpt lat="44.9636292" lon="9.5320984"><ele>137.0</ele><time>2026-04-16T10:21:26.815Z</time></trkpt><trkpt lat="44.963461" lon="9.5320689"><ele>137.33333333333331</ele><time>2026-04-16T10:21:27.815Z</time></trkpt><trkpt lat="44.96329" lon="9.5320353"><ele>137.66666666666666</ele><time>2026-04-16T10:21:28.815Z</time></trkpt><trkpt lat="44.9631112" lon="9.5320052"><ele>138.0</ele><time>2026-04-16T10:21:29.815Z</time></trkpt><trkpt lat="44.9629286" lon="9.5319752"><ele>138.0</ele><time>2026-04-16T10:21:30.814Z</time></trkpt><trkpt lat="44.9627452" lon="9.5319436"><ele>138.0</ele><time>2026-04-16T10:21:31.815Z</time></trkpt><trkpt lat="44.9625696" lon="9.5319144"><ele>138.0</ele><time>2026-04-16T10:21:32.815Z</time></trkpt><trkpt lat="44.9623941" lon="9.5318849"><ele>138.66666666666666</ele><time>2026-04-16T10:21:33.815Z</time></trkpt><trkpt lat="44.9622179" lon="9.5318545"><ele>139.33333333333331</ele><time>2026-04-16T10:21:34.814Z</time></trkpt><trkpt lat="44.9620425" lon="9.5318212"><ele>140.0</ele><time>2026-04-16T10:21:35.815Z</time></trkpt><trkpt lat="44.9618632" lon="9.5317897"><ele>141.0</ele><time>2026-04-16T10:21:36.814Z</time></trkpt><trkpt lat="44.9616852" lon="9.5317564"><ele>142.0</ele><time>2026-04-16T10:21:37.815Z</time></trkpt><trkpt lat="44.9615051" lon="9.5317235"><ele>143.0</ele><time>2026-04-16T10:21:38.816Z</time></trkpt><trkpt lat="44.9613223" lon="9.5316919"><ele>143.0</ele><time>2026-04-16T10:21:39.814Z</time></trkpt><trkpt lat="44.9611364" lon="9.5316612"><ele>143.0</ele><time>2026-04-16T10:21:40.814Z</time></trkpt><trkpt lat="44.96095" lon="9.5316289"><ele>143.0</ele><time>2026-04-16T10:21:41.814Z</time></trkpt><trkpt lat="44.9607637" lon="9.5315959"><ele>143.33333333333331</ele><time>2026-04-16T10:21:42.815Z</time></trkpt><trkpt lat="44.9605763" lon="9.5315632"><ele>143.66666666666666</ele><time>2026-04-16T10:21:43.815Z</time></trkpt><trkpt lat="44.9603924" lon="9.5315296"><ele>144.0</ele><time>2026-04-16T10:21:44.814Z</time></trkpt><trkpt lat="44.960209" lon="9.5314957"><ele>144.66666666666666</ele><time>2026-04-16T10:21:45.816Z</time></trkpt><trkpt lat="44.9600267" lon="9.531462"><ele>145.33333333333331</ele><time>2026-04-16T10:21:46.815Z</time></trkpt><trkpt lat="44.9598445" lon="9.5314317"><ele>146.0</ele><time>2026-04-16T10:21:47.815Z</time></trkpt><trkpt lat="44.9596668" lon="9.5314"><ele>146.0</ele><time>2026-04-16T10:21:48.815Z</time></trkpt><trkpt lat="44.9594917" lon="9.531367"><ele>146.0</ele><time>2026-04-16T10:21:49.814Z</time></trkpt><trkpt lat="44.9593186" lon="9.5313359"><ele>146.0</ele><time>2026-04-16T10:21:50.815Z</time></trkpt><trkpt lat="44.9591474" lon="9.5313063"><ele>146.33333333333331</ele><time>2026-04-16T10:21:51.814Z</time></trkpt><trkpt lat="44.9589774" lon="9.531278"><ele>146.66666666666666</ele><time>2026-04-16T10:21:52.815Z</time></trkpt><trkpt lat="44.958815" lon="9.5312509"><ele>147.0</ele><time>2026-04-16T10:21:53.815Z</time></trkpt><trkpt lat="44.9586613" lon="9.5312268"><ele>146.75</ele><time>2026-04-16T10:21:54.815Z</time></trkpt><trkpt lat="44.9585162" lon="9.5312035"><ele>146.5</ele><time>2026-04-16T10:21:55.816Z</time></trkpt><trkpt lat="44.9583791" lon="9.5311776"><ele>146.25</ele><time>2026-04-16T10:21:56.815Z</time></trkpt><trkpt lat="44.958253" lon="9.5311483"><ele>146.0</ele><time>2026-04-16T10:21:57.816Z</time></trkpt><trkpt lat="44.9581246" lon="9.5311091"><ele>147.25</ele><time>2026-04-16T10:21:58.816Z</time></trkpt><trkpt lat="44.9579994" lon="9.5310565"><ele>148.5</ele><time>2026-04-16T10:21:59.815Z</time></trkpt><trkpt lat="44.9578727" lon="9.5309799"><ele>149.75</ele><time>2026-04-16T10:22:00.815Z</time></trkpt><trkpt lat="44.9577365" lon="9.530894"><ele>151.0</ele><time>2026-04-16T10:22:01.814Z</time></trkpt><trkpt lat="44.9575856" lon="9.5307998"><ele>150.0</ele><time>2026-04-16T10:22:02.815Z</time></trkpt><trkpt lat="44.9574209" lon="9.5306933"><ele>149.0</ele><time>2026-04-16T10:22:03.814Z</time></trkpt><trkpt lat="44.9572554" lon="9.5305852"><ele>148.0</ele><time>2026-04-16T10:22:04.814Z</time></trkpt><trkpt lat="44.9570883" lon="9.5304825"><ele>149.0</ele><time>2026-04-16T10:22:05.815Z</time></trkpt><trkpt lat="44.9569199" lon="9.5303728"><ele>150.0</ele><time>2026-04-16T10:22:06.814Z</time></trkpt><trkpt lat="44.9567588" lon="9.5302694"><ele>151.0</ele><time>2026-04-16T10:22:07.815Z</time></trkpt><trkpt lat="44.9566041" lon="9.5301703"><ele>151.0</ele><time>2026-04-16T10:22:08.815Z</time></trkpt><trkpt lat="44.9564539" lon="9.5300769"><ele>151.0</ele><time>2026-04-16T10:22:09.814Z</time></trkpt><trkpt lat="44.9563133" lon="9.5299881"><ele>151.0</ele><time>2026-04-16T10:22:10.814Z</time></trkpt><trkpt lat="44.9561774" lon="9.5299132"><ele>151.0</ele><time>2026-04-16T10:22:11.814Z</time></trkpt><trkpt lat="44.9560443" lon="9.5298619"><ele>151.0</ele><time>2026-04-16T10:22:12.816Z</time></trkpt><trkpt lat="44.9559096" lon="9.5298448"><ele>151.0</ele><time>2026-04-16T10:22:13.816Z</time></trkpt><trkpt lat="44.9557846" lon="9.5298582"><ele>151.0</ele><time>2026-04-16T10:22:14.815Z</time></trkpt><trkpt lat="44.9556602" lon="9.5298844"><ele>151.25</ele><time>2026-04-16T10:22:15.814Z</time></trkpt><trkpt lat="44.9555323" lon="9.5299064"><ele>151.5</ele><time>2026-04-16T10:22:16.815Z</time></trkpt><trkpt lat="44.9554028" lon="9.5299146"><ele>151.75</ele><time>2026-04-16T10:22:17.816Z</time></trkpt><trkpt lat="44.9552714" lon="9.5299074"><ele>152.0</ele><time>2026-04-16T10:22:18.815Z</time></trkpt><trkpt lat="44.95514" lon="9.5298847"><ele>153.0</ele><time>2026-04-16T10:22:19.815Z</time></trkpt><trkpt lat="44.9550142" lon="9.5298417"><ele>154.0</ele><time>2026-04-16T10:22:20.815Z</time></trkpt><trkpt lat="44.9549042" lon="9.5297726"><ele>155.0</ele><time>2026-04-16T10:22:21.814Z</time></trkpt><trkpt lat="44.9547927" lon="9.5296799"><ele>156.0</ele><time>2026-04-16T10:22:22.814Z</time></trkpt><trkpt lat="44.9546761" lon="9.5295708"><ele>156.66666666666666</ele><time>2026-04-16T10:22:23.814Z</time></trkpt><trkpt lat="44.9545473" lon="9.5294587"><ele>157.33333333333331</ele><time>2026-04-16T10:22:24.814Z</time></trkpt><trkpt lat="44.9544087" lon="9.5293434"><ele>158.0</ele><time>2026-04-16T10:22:25.815Z</time></trkpt><trkpt lat="44.9542667" lon="9.5292267"><ele>157.33333333333331</ele><time>2026-04-16T10:22:26.814Z</time></trkpt><trkpt lat="44.9541188" lon="9.529106"><ele>156.66666666666666</ele><time>2026-04-16T10:22:27.814Z</time></trkpt><trkpt lat="44.9539628" lon="9.5289827"><ele>156.0</ele><time>2026-04-16T10:22:28.815Z</time></trkpt><trkpt lat="44.9538071" lon="9.5288565"><ele>157.0</ele><time>2026-04-16T10:22:29.814Z</time></trkpt><trkpt lat="44.9536546" lon="9.5287257"><ele>158.0</ele><time>2026-04-16T10:22:30.815Z</time></trkpt><trkpt lat="44.9534968" lon="9.5285948"><ele>159.0</ele><time>2026-04-16T10:22:31.814Z</time></trkpt><trkpt lat="44.9533395" lon="9.5284638"><ele>159.0</ele><time>2026-04-16T10:22:32.815Z</time></trkpt><trkpt lat="44.9531828" lon="9.5283368"><ele>159.0</ele><time>2026-04-16T10:22:33.814Z</time></trkpt><trkpt lat="44.9530373" lon="9.5282143"><ele>159.0</ele><time>2026-04-16T10:22:34.815Z</time></trkpt><trkpt lat="44.9529004" lon="9.5281013"><ele>159.0</ele><time>2026-04-16T10:22:35.815Z</time></trkpt><trkpt lat="44.9527659" lon="9.5279951"><ele>159.0</ele><time>2026-04-16T10:22:36.815Z</time></trkpt><trkpt lat="44.9526345" lon="9.5278879"><ele>159.0</ele><time>2026-04-16T10:22:37.815Z</time></trkpt><trkpt lat="44.9525124" lon="9.5277757"><ele>159.66666666666666</ele><time>2026-04-16T10:22:38.815Z</time></trkpt><trkpt lat="44.9523983" lon="9.5276469"><ele>160.33333333333331</ele><time>2026-04-16T10:22:39.815Z</time></trkpt><trkpt lat="44.9522943" lon="9.527493"><ele>161.0</ele><time>2026-04-16T10:22:40.814Z</time></trkpt><trkpt lat="44.9521907" lon="9.5273142"><ele>161.0</ele><time>2026-04-16T10:22:41.815Z</time></trkpt><trkpt lat="44.9520894" lon="9.527116"><ele>161.0</ele><time>2026-04-16T10:22:42.814Z</time></trkpt><trkpt lat="44.9519879" lon="9.5269033"><ele>161.0</ele><time>2026-04-16T10:22:43.815Z</time></trkpt><trkpt lat="44.9518911" lon="9.5266865"><ele>161.33333333333331</ele><time>2026-04-16T10:22:44.815Z</time></trkpt><trkpt lat="44.9517954" lon="9.5264681"><ele>161.66666666666666</ele><time>2026-04-16T10:22:45.814Z</time></trkpt><trkpt lat="44.9517029" lon="9.5262628"><ele>162.0</ele><time>2026-04-16T10:22:46.814Z</time></trkpt><trkpt lat="44.9516181" lon="9.5260675"><ele>163.66666666666666</ele><time>2026-04-16T10:22:47.814Z</time></trkpt><trkpt lat="44.951537" lon="9.525885"><ele>165.33333333333331</ele><time>2026-04-16T10:22:48.815Z</time></trkpt><trkpt lat="44.9514592" lon="9.5257055"><ele>167.0</ele><time>2026-04-16T10:22:49.815Z</time></trkpt><trkpt lat="44.9513791" lon="9.5255261"><ele>167.66666666666666</ele><time>2026-04-16T10:22:50.814Z</time></trkpt><trkpt lat="44.9512943" lon="9.5253493"><ele>168.33333333333334</ele><time>2026-04-16T10:22:51.814Z</time></trkpt><trkpt lat="44.9512044" lon="9.525171"><ele>169.0</ele><time>2026-04-16T10:22:52.815Z</time></trkpt><trkpt lat="44.9511098" lon="9.5249916"><ele>169.0</ele><time>2026-04-16T10:22:53.815Z</time></trkpt><trkpt lat="44.951013" lon="9.5248157"><ele>169.0</ele><time>2026-04-16T10:22:54.814Z</time></trkpt><trkpt lat="44.9509174" lon="9.5246487"><ele>169.0</ele><time>2026-04-16T10:22:55.815Z</time></trkpt><trkpt lat="44.9508285" lon="9.5244899"><ele>169.5</ele><time>2026-04-16T10:22:56.814Z</time></trkpt><trkpt lat="44.9507447" lon="9.5243448"><ele>170.0</ele><time>2026-04-16T10:22:57.816Z</time></trkpt><trkpt lat="44.9506648" lon="9.5242081"><ele>170.5</ele><time>2026-04-16T10:22:58.815Z</time></trkpt><trkpt lat="44.9505901" lon="9.5240789"><ele>171.0</ele><time>2026-04-16T10:22:59.816Z</time></trkpt><trkpt lat="44.9505242" lon="9.5239587"><ele>171.0</ele><time>2026-04-16T10:23:00.815Z</time></trkpt><trkpt lat="44.9504622" lon="9.523845"><ele>171.0</ele><time>2026-04-16T10:23:01.814Z</time></trkpt><trkpt lat="44.9504041" lon="9.5237429"><ele>171.0</ele><time>2026-04-16T10:23:02.814Z</time></trkpt><trkpt lat="44.9503507" lon="9.5236582"><ele>171.0</ele><time>2026-04-16T10:23:03.814Z</time></trkpt><trkpt lat="44.9502835" lon="9.5235606"><ele>171.0</ele><time>2026-04-16T10:23:05.815Z</time></trkpt><trkpt lat="44.9502222" lon="9.5235175"><ele>171.0</ele><time>2026-04-16T10:23:09.815Z</time></trkpt><trkpt lat="44.9501803" lon="9.5236033"><ele>171.0</ele><time>2026-04-16T10:23:12.814Z</time></trkpt><trkpt lat="44.9502182" lon="9.5237664"><ele>171.0</ele><time>2026-04-16T10:23:14.816Z</time></trkpt><trkpt lat="44.9502242" lon="9.5238653"><ele>171.0</ele><time>2026-04-16T10:23:15.815Z</time></trkpt><trkpt lat="44.9502207" lon="9.5239851"><ele>171.0</ele><time>2026-04-16T10:23:16.815Z</time></trkpt><trkpt lat="44.9502008" lon="9.5241171"><ele>171.0</ele><time>2026-04-16T10:23:17.814Z</time></trkpt><trkpt lat="44.95017" lon="9.5242654"><ele>171.0</ele><time>2026-04-16T10:23:18.814Z</time></trkpt><trkpt lat="44.9501239" lon="9.5244169"><ele>171.0</ele><time>2026-04-16T10:23:19.815Z</time></trkpt><trkpt lat="44.9500689" lon="9.5245805"><ele>171.0</ele><time>2026-04-16T10:23:20.815Z</time></trkpt><trkpt lat="44.9500132" lon="9.5247566"><ele>171.0</ele><time>2026-04-16T10:23:21.815Z</time></trkpt><trkpt lat="44.9499554" lon="9.5249395"><ele>169.0</ele><time>2026-04-16T10:23:22.815Z</time></trkpt><trkpt lat="44.9498952" lon="9.5251297"><ele>167.0</ele><time>2026-04-16T10:23:23.815Z</time></trkpt><trkpt lat="44.9498339" lon="9.5253257"><ele>165.0</ele><time>2026-04-16T10:23:24.814Z</time></trkpt><trkpt lat="44.9497699" lon="9.525528"><ele>163.33333333333334</ele><time>2026-04-16T10:23:25.814Z</time></trkpt><trkpt lat="44.9497031" lon="9.5257289"><ele>161.66666666666669</ele><time>2026-04-16T10:23:26.814Z</time></trkpt><trkpt lat="44.9496384" lon="9.5259295"><ele>160.0</ele><time>2026-04-16T10:23:27.814Z</time></trkpt><trkpt lat="44.9495749" lon="9.5261273"><ele>158.33333333333334</ele><time>2026-04-16T10:23:28.815Z</time></trkpt><trkpt lat="44.9495118" lon="9.5263255"><ele>156.66666666666666</ele><time>2026-04-16T10:23:29.815Z</time></trkpt><trkpt lat="44.9494482" lon="9.5265245"><ele>155.0</ele><time>2026-04-16T10:23:30.816Z</time></trkpt><trkpt lat="44.9493837" lon="9.5267238"><ele>155.0</ele><time>2026-04-16T10:23:31.815Z</time></trkpt><trkpt lat="44.9493206" lon="9.5269164"><ele>155.0</ele><time>2026-04-16T10:23:32.815Z</time></trkpt><trkpt lat="44.9492576" lon="9.5271104"><ele>155.0</ele><time>2026-04-16T10:23:33.814Z</time></trkpt><trkpt lat="44.9491956" lon="9.5272978"><ele>155.0</ele><time>2026-04-16T10:23:34.815Z</time></trkpt><trkpt lat="44.9491356" lon="9.5274871"><ele>153.75</ele><time>2026-04-16T10:23:35.815Z</time></trkpt><trkpt lat="44.9490736" lon="9.5276774"><ele>152.5</ele><time>2026-04-16T10:23:36.815Z</time></trkpt><trkpt lat="44.9490103" lon="9.5278701"><ele>151.25</ele><time>2026-04-16T10:23:37.814Z</time></trkpt><trkpt lat="44.948949" lon="9.5280632"><ele>150.0</ele><time>2026-04-16T10:23:38.815Z</time></trkpt><trkpt lat="44.9488874" lon="9.5282568"><ele>149.5</ele><time>2026-04-16T10:23:39.815Z</time></trkpt><trkpt lat="44.9488263" lon="9.5284495"><ele>149.0</ele><time>2026-04-16T10:23:40.815Z</time></trkpt><trkpt lat="44.9487632" lon="9.528641"><ele>148.5</ele><time>2026-04-16T10:23:41.814Z</time></trkpt><trkpt lat="44.9486995" lon="9.5288331"><ele>148.0</ele><time>2026-04-16T10:23:42.814Z</time></trkpt><trkpt lat="44.9486412" lon="9.5290286"><ele>148.0</ele><time>2026-04-16T10:23:43.815Z</time></trkpt><trkpt lat="44.9485774" lon="9.5292283"><ele>148.0</ele><time>2026-04-16T10:23:44.815Z</time></trkpt><trkpt lat="44.9485089" lon="9.5294394"><ele>148.0</ele><time>2026-04-16T10:23:45.814Z</time></trkpt><trkpt lat="44.9484391" lon="9.5296591"><ele>148.66666666666669</ele><time>2026-04-16T10:23:46.814Z</time></trkpt><trkpt lat="44.948368" lon="9.5298822"><ele>149.33333333333334</ele><time>2026-04-16T10:23:47.815Z</time></trkpt><trkpt lat="44.9482956" lon="9.5301116"><ele>150.0</ele><time>2026-04-16T10:23:48.814Z</time></trkpt><trkpt lat="44.9482241" lon="9.5303438"><ele>150.0</ele><time>2026-04-16T10:23:49.814Z</time></trkpt><trkpt lat="44.9481528" lon="9.5305701"><ele>150.0</ele><time>2026-04-16T10:23:50.815Z</time></trkpt><trkpt lat="44.9480816" lon="9.5307908"><ele>150.0</ele><time>2026-04-16T10:23:51.815Z</time></trkpt><trkpt lat="44.9480114" lon="9.531006"><ele>150.0</ele><time>2026-04-16T10:23:52.815Z</time></trkpt><trkpt lat="44.9479424" lon="9.5312177"><ele>150.0</ele><time>2026-04-16T10:23:53.814Z</time></trkpt><trkpt lat="44.9478737" lon="9.5314264"><ele>150.0</ele><time>2026-04-16T10:23:54.815Z</time></trkpt><trkpt lat="44.9478068" lon="9.5316327"><ele>150.0</ele><time>2026-04-16T10:23:55.815Z</time></trkpt><trkpt lat="44.9477425" lon="9.531832"><ele>150.0</ele><time>2026-04-16T10:23:56.815Z</time></trkpt><trkpt lat="44.9476804" lon="9.5320261"><ele>150.0</ele><time>2026-04-16T10:23:57.815Z</time></trkpt><trkpt lat="44.9476213" lon="9.532214"><ele>150.25</ele><time>2026-04-16T10:23:58.816Z</time></trkpt><trkpt lat="44.9475625" lon="9.5323976"><ele>150.5</ele><time>2026-04-16T10:23:59.815Z</time></trkpt><trkpt lat="44.947507" lon="9.5325746"><ele>150.75</ele><time>2026-04-16T10:24:00.814Z</time></trkpt><trkpt lat="44.9474531" lon="9.532743"><ele>151.0</ele><time>2026-04-16T10:24:01.814Z</time></trkpt><trkpt lat="44.947401" lon="9.532915"><ele>151.75</ele><time>2026-04-16T10:24:02.815Z</time></trkpt><trkpt lat="44.9473554" lon="9.5330889"><ele>152.5</ele><time>2026-04-16T10:24:03.815Z</time></trkpt><trkpt lat="44.9473171" lon="9.5332618"><ele>153.25</ele><time>2026-04-16T10:24:04.815Z</time></trkpt><trkpt lat="44.947288" lon="9.533431"><ele>154.0</ele><time>2026-04-16T10:24:05.815Z</time></trkpt><trkpt lat="44.9472676" lon="9.5335928"><ele>154.4</ele><time>2026-04-16T10:24:06.816Z</time></trkpt><trkpt lat="44.9472551" lon="9.5337449"><ele>154.8</ele><time>2026-04-16T10:24:07.815Z</time></trkpt><trkpt lat="44.9472442" lon="9.533887"><ele>155.2</ele><time>2026-04-16T10:24:08.815Z</time></trkpt><trkpt lat="44.9472338" lon="9.5340156"><ele>155.6</ele><time>2026-04-16T10:24:09.814Z</time></trkpt><trkpt lat="44.947223" lon="9.5341334"><ele>156.0</ele><time>2026-04-16T10:24:10.815Z</time></trkpt><trkpt lat="44.9472138" lon="9.5342406"><ele>156.0</ele><time>2026-04-16T10:24:11.814Z</time></trkpt><trkpt lat="44.9471969" lon="9.5343367"><ele>156.0</ele><time>2026-04-16T10:24:12.815Z</time></trkpt><trkpt lat="44.9471516" lon="9.5344866"><ele>156.0</ele><time>2026-04-16T10:24:14.815Z</time></trkpt><trkpt lat="44.9470588" lon="9.5345572"><ele>156.0</ele><time>2026-04-16T10:24:16.814Z</time></trkpt><trkpt lat="44.946951" lon="9.534499"><ele>156.0</ele><time>2026-04-16T10:24:18.815Z</time></trkpt><trkpt lat="44.9468975" lon="9.534423"><ele>156.0</ele><time>2026-04-16T10:24:19.816Z</time></trkpt><trkpt lat="44.9468314" lon="9.5343267"><ele>156.0</ele><time>2026-04-16T10:24:20.815Z</time></trkpt><trkpt lat="44.9467504" lon="9.5342137"><ele>156.0</ele><time>2026-04-16T10:24:21.815Z</time></trkpt><trkpt lat="44.9466643" lon="9.5340919"><ele>156.0</ele><time>2026-04-16T10:24:22.814Z</time></trkpt><trkpt lat="44.9465715" lon="9.5339582"><ele>155.66666666666666</ele><time>2026-04-16T10:24:23.814Z</time></trkpt><trkpt lat="44.9464698" lon="9.5338133"><ele>155.33333333333331</ele><time>2026-04-16T10:24:24.816Z</time></trkpt><trkpt lat="44.9463618" lon="9.5336607"><ele>155.0</ele><time>2026-04-16T10:24:25.815Z</time></trkpt><trkpt lat="44.9462504" lon="9.5335036"><ele>154.66666666666666</ele><time>2026-04-16T10:24:26.814Z</time></trkpt><trkpt lat="44.94613" lon="9.5333417"><ele>154.33333333333334</ele><time>2026-04-16T10:24:27.814Z</time></trkpt><trkpt lat="44.9460011" lon="9.5331889"><ele>154.0</ele><time>2026-04-16T10:24:28.814Z</time></trkpt><trkpt lat="44.9458671" lon="9.5330393"><ele>154.66666666666669</ele><time>2026-04-16T10:24:29.814Z</time></trkpt><trkpt lat="44.9457313" lon="9.532893"><ele>155.33333333333334</ele><time>2026-04-16T10:24:30.815Z</time></trkpt><trkpt lat="44.945597" lon="9.5327428"><ele>156.0</ele><time>2026-04-16T10:24:31.815Z</time></trkpt><trkpt lat="44.9454674" lon="9.532587"><ele>156.0</ele><time>2026-04-16T10:24:32.816Z</time></trkpt><trkpt lat="44.9453421" lon="9.5324247"><ele>156.0</ele><time>2026-04-16T10:24:33.816Z</time></trkpt><trkpt lat="44.9452176" lon="9.532254"><ele>156.0</ele><time>2026-04-16T10:24:34.814Z</time></trkpt><trkpt lat="44.945093" lon="9.5320721"><ele>157.0</ele><time>2026-04-16T10:24:35.815Z</time></trkpt><trkpt lat="44.9449691" lon="9.5318811"><ele>158.0</ele><time>2026-04-16T10:24:36.815Z</time></trkpt><trkpt lat="44.9448468" lon="9.5316845"><ele>159.0</ele><time>2026-04-16T10:24:37.814Z</time></trkpt><trkpt lat="44.9447213" lon="9.5314867"><ele>159.0</ele><time>2026-04-16T10:24:38.815Z</time></trkpt><trkpt lat="44.9445938" lon="9.5312869"><ele>159.0</ele><time>2026-04-16T10:24:39.816Z</time></trkpt><trkpt lat="44.9444641" lon="9.5310907"><ele>159.0</ele><time>2026-04-16T10:24:40.814Z</time></trkpt><trkpt lat="44.944335" lon="9.5308914"><ele>158.66666666666666</ele><time>2026-04-16T10:24:41.814Z</time></trkpt><trkpt lat="44.9442069" lon="9.530692"><ele>158.33333333333331</ele><time>2026-04-16T10:24:42.814Z</time></trkpt><trkpt lat="44.9440804" lon="9.5304941"><ele>158.0</ele><time>2026-04-16T10:24:43.815Z</time></trkpt><trkpt lat="44.9439507" lon="9.5302965"><ele>158.0</ele><time>2026-04-16T10:24:44.814Z</time></trkpt><trkpt lat="44.9438216" lon="9.5301025"><ele>158.0</ele><time>2026-04-16T10:24:45.816Z</time></trkpt><trkpt lat="44.9436964" lon="9.5299128"><ele>158.0</ele><time>2026-04-16T10:24:46.815Z</time></trkpt><trkpt lat="44.9435758" lon="9.52973"><ele>157.66666666666666</ele><time>2026-04-16T10:24:47.815Z</time></trkpt><trkpt lat="44.9434609" lon="9.5295564"><ele>157.33333333333334</ele><time>2026-04-16T10:24:48.815Z</time></trkpt><trkpt lat="44.9433478" lon="9.5293873"><ele>157.0</ele><time>2026-04-16T10:24:49.811Z</time></trkpt><trkpt lat="44.9432344" lon="9.5292226"><ele>158.0</ele><time>2026-04-16T10:24:50.814Z</time></trkpt><trkpt lat="44.9431236" lon="9.5290601"><ele>159.0</ele><time>2026-04-16T10:24:51.815Z</time></trkpt><trkpt lat="44.9430125" lon="9.5289051"><ele>160.0</ele><time>2026-04-16T10:24:52.814Z</time></trkpt><trkpt lat="44.942903" lon="9.5287507"><ele>160.0</ele><time>2026-04-16T10:24:53.814Z</time></trkpt><trkpt lat="44.9427957" lon="9.5285946"><ele>160.0</ele><time>2026-04-16T10:24:54.814Z</time></trkpt><trkpt lat="44.9426903" lon="9.5284346"><ele>160.0</ele><time>2026-04-16T10:24:55.814Z</time></trkpt><trkpt lat="44.9425842" lon="9.5282787"><ele>161.0</ele><time>2026-04-16T10:24:56.816Z</time></trkpt><trkpt lat="44.9424735" lon="9.5281223"><ele>162.0</ele><time>2026-04-16T10:24:57.815Z</time></trkpt><trkpt lat="44.9423531" lon="9.5279708"><ele>163.0</ele><time>2026-04-16T10:24:58.815Z</time></trkpt><trkpt lat="44.9422193" lon="9.5278251"><ele>163.0</ele><time>2026-04-16T10:24:59.814Z</time></trkpt><trkpt lat="44.942078" lon="9.5276837"><ele>163.0</ele><time>2026-04-16T10:25:00.815Z</time></trkpt><trkpt lat="44.9419315" lon="9.5275396"><ele>163.0</ele><time>2026-04-16T10:25:01.815Z</time></trkpt><trkpt lat="44.9417837" lon="9.5273918"><ele>163.0</ele><time>2026-04-16T10:25:02.814Z</time></trkpt><trkpt lat="44.9416363" lon="9.5272472"><ele>163.0</ele><time>2026-04-16T10:25:03.814Z</time></trkpt><trkpt lat="44.9414866" lon="9.527103"><ele>163.0</ele><time>2026-04-16T10:25:04.814Z</time></trkpt><trkpt lat="44.9413411" lon="9.5269581"><ele>163.0</ele><time>2026-04-16T10:25:05.814Z</time></trkpt><trkpt lat="44.9411973" lon="9.5268189"><ele>163.0</ele><time>2026-04-16T10:25:06.815Z</time></trkpt><trkpt lat="44.941055" lon="9.5266825"><ele>163.0</ele><time>2026-04-16T10:25:07.815Z</time></trkpt><trkpt lat="44.9409171" lon="9.5265492"><ele>163.33333333333334</ele><time>2026-04-16T10:25:08.815Z</time></trkpt><trkpt lat="44.9407827" lon="9.5264168"><ele>163.66666666666666</ele><time>2026-04-16T10:25:09.814Z</time></trkpt><trkpt lat="44.9406485" lon="9.5262859"><ele>164.0</ele><time>2026-04-16T10:25:10.814Z</time></trkpt><trkpt lat="44.9405202" lon="9.5261606"><ele>164.0</ele><time>2026-04-16T10:25:11.814Z</time></trkpt><trkpt lat="44.9403918" lon="9.5260331"><ele>164.0</ele><time>2026-04-16T10:25:12.815Z</time></trkpt><trkpt lat="44.9402642" lon="9.5259081"><ele>164.0</ele><time>2026-04-16T10:25:13.815Z</time></trkpt><trkpt lat="44.9401426" lon="9.5257902"><ele>164.5</ele><time>2026-04-16T10:25:14.815Z</time></trkpt><trkpt lat="44.9400271" lon="9.5256791"><ele>165.0</ele><time>2026-04-16T10:25:15.815Z</time></trkpt><trkpt lat="44.9399104" lon="9.5255702"><ele>165.5</ele><time>2026-04-16T10:25:16.814Z</time></trkpt><trkpt lat="44.9397899" lon="9.5254648"><ele>166.0</ele><time>2026-04-16T10:25:17.814Z</time></trkpt><trkpt lat="44.9396595" lon="9.5253691"><ele>166.0</ele><time>2026-04-16T10:25:18.816Z</time></trkpt><trkpt lat="44.9395216" lon="9.5252979"><ele>166.0</ele><time>2026-04-16T10:25:19.815Z</time></trkpt><trkpt lat="44.9393799" lon="9.5252416"><ele>166.0</ele><time>2026-04-16T10:25:20.814Z</time></trkpt><trkpt lat="44.9392449" lon="9.5251865"><ele>166.0</ele><time>2026-04-16T10:25:21.815Z</time></trkpt><trkpt lat="44.9391257" lon="9.5251374"><ele>166.5</ele><time>2026-04-16T10:25:22.814Z</time></trkpt><trkpt lat="44.9390277" lon="9.5250983"><ele>167.0</ele><time>2026-04-16T10:25:23.815Z</time></trkpt><trkpt lat="44.9389513" lon="9.5250713"><ele>167.5</ele><time>2026-04-16T10:25:24.814Z</time></trkpt><trkpt lat="44.9388497" lon="9.5250674"><ele>168.0</ele><time>2026-04-16T10:25:26.815Z</time></trkpt><trkpt lat="44.9387942" lon="9.5251544"><ele>168.5</ele><time>2026-04-16T10:25:29.815Z</time></trkpt><trkpt lat="44.9387915" lon="9.525247"><ele>169.0</ele><time>2026-04-16T10:25:31.814Z</time></trkpt><trkpt lat="44.9388105" lon="9.5254092"><ele>169.28571428571428</ele><time>2026-04-16T10:25:33.814Z</time></trkpt><trkpt lat="44.9388194" lon="9.5255079"><ele>169.57142857142856</ele><time>2026-04-16T10:25:34.815Z</time></trkpt><trkpt lat="44.9388241" lon="9.5256136"><ele>169.85714285714283</ele><time>2026-04-16T10:25:35.814Z</time></trkpt><trkpt lat="44.9388216" lon="9.5257223"><ele>170.14285714285714</ele><time>2026-04-16T10:25:36.814Z</time></trkpt><trkpt lat="44.9388058" lon="9.525825"><ele>170.42857142857142</ele><time>2026-04-16T10:25:37.815Z</time></trkpt><trkpt lat="44.9387758" lon="9.5259182"><ele>170.7142857142857</ele><time>2026-04-16T10:25:38.815Z</time></trkpt><trkpt lat="44.9387411" lon="9.5260005"><ele>171.0</ele><time>2026-04-16T10:25:39.814Z</time></trkpt><trkpt lat="44.9387038" lon="9.5260737"><ele>171.0</ele><time>2026-04-16T10:25:40.814Z</time></trkpt><trkpt lat="44.9386607" lon="9.5261416"><ele>171.0</ele><time>2026-04-16T10:25:41.814Z</time></trkpt><trkpt lat="44.9386098" lon="9.5262128"><ele>171.0</ele><time>2026-04-16T10:25:42.815Z</time></trkpt><trkpt lat="44.9385557" lon="9.5262867"><ele>171.0</ele><time>2026-04-16T10:25:43.815Z</time></trkpt><trkpt lat="44.9384969" lon="9.5263641"><ele>171.0</ele><time>2026-04-16T10:25:44.815Z</time></trkpt><trkpt lat="44.9384309" lon="9.5264503"><ele>171.0</ele><time>2026-04-16T10:25:45.814Z</time></trkpt><trkpt lat="44.9383661" lon="9.5265329"><ele>174.0</ele><time>2026-04-16T10:25:46.814Z</time></trkpt><trkpt lat="44.9382977" lon="9.5266176"><ele>177.0</ele><time>2026-04-16T10:25:47.815Z</time></trkpt><trkpt lat="44.9382343" lon="9.5266967"><ele>180.0</ele><time>2026-04-16T10:25:48.815Z</time></trkpt><trkpt lat="44.9381687" lon="9.5267631"><ele>183.0</ele><time>2026-04-16T10:25:49.815Z</time></trkpt><trkpt lat="44.9381057" lon="9.5268271"><ele>186.0</ele><time>2026-04-16T10:25:50.815Z</time></trkpt><trkpt lat="44.9380482" lon="9.5268912"><ele>189.0</ele><time>2026-04-16T10:25:51.815Z</time></trkpt><trkpt lat="44.9379962" lon="9.5269519"><ele>189.0</ele><time>2026-04-16T10:25:52.814Z</time></trkpt><trkpt lat="44.9379431" lon="9.5270083"><ele>189.0</ele><time>2026-04-16T10:25:53.815Z</time></trkpt><trkpt lat="44.9378904" lon="9.5270631"><ele>189.0</ele><time>2026-04-16T10:25:54.815Z</time></trkpt><trkpt lat="44.9377982" lon="9.5271538"><ele>189.0</ele><time>2026-04-16T10:25:56.815Z</time></trkpt><trkpt lat="44.9377243" lon="9.5272166"><ele>189.0</ele><time>2026-04-16T10:25:58.815Z</time></trkpt><trkpt lat="44.9376508" lon="9.5272832"><ele>189.0</ele><time>2026-04-16T10:26:00.815Z</time></trkpt><trkpt lat="44.9375489" lon="9.5273523"><ele>192.39999999999998</ele><time>2026-04-16T10:26:02.814Z</time></trkpt><trkpt lat="44.937486" lon="9.5273897"><ele>195.8</ele><time>2026-04-16T10:26:03.814Z</time></trkpt><trkpt lat="44.9374218" lon="9.5274291"><ele>199.2</ele><time>2026-04-16T10:26:04.815Z</time></trkpt><trkpt lat="44.9373583" lon="9.527468"><ele>202.60000000000002</ele><time>2026-04-16T10:26:05.815Z</time></trkpt><trkpt lat="44.9372495" lon="9.5275396"><ele>206.0</ele><time>2026-04-16T10:26:07.815Z</time></trkpt><trkpt lat="44.9371314" lon="9.527603"><ele>206.0</ele><time>2026-04-16T10:26:09.815Z</time></trkpt><trkpt lat="44.9370688" lon="9.5276349"><ele>206.0</ele><time>2026-04-16T10:26:10.815Z</time></trkpt><trkpt lat="44.9370087" lon="9.5276627"><ele>206.0</ele><time>2026-04-16T10:26:11.814Z</time></trkpt><trkpt lat="44.9368989" lon="9.5277066"><ele>206.0</ele><time>2026-04-16T10:26:13.815Z</time></trkpt><trkpt lat="44.9367922" lon="9.5277448"><ele>206.0</ele><time>2026-04-16T10:26:15.815Z</time></trkpt><trkpt lat="44.936681" lon="9.5277892"><ele>205.8</ele><time>2026-04-16T10:26:17.815Z</time></trkpt><trkpt lat="44.9365678" lon="9.5278527"><ele>205.60000000000002</ele><time>2026-04-16T10:26:19.815Z</time></trkpt><trkpt lat="44.9365109" lon="9.5278935"><ele>205.4</ele><time>2026-04-16T10:26:20.814Z</time></trkpt><trkpt lat="44.9363995" lon="9.527973"><ele>205.2</ele><time>2026-04-16T10:26:22.815Z</time></trkpt><trkpt lat="44.936302" lon="9.5280546"><ele>205.0</ele><time>2026-04-16T10:26:24.814Z</time></trkpt><trkpt lat="44.9362032" lon="9.5281209"><ele>207.6</ele><time>2026-04-16T10:26:26.815Z</time></trkpt><trkpt lat="44.9361147" lon="9.5281951"><ele>210.2</ele><time>2026-04-16T10:26:28.815Z</time></trkpt><trkpt lat="44.9360212" lon="9.5282717"><ele>212.8</ele><time>2026-04-16T10:26:30.814Z</time></trkpt><trkpt lat="44.9359295" lon="9.5283595"><ele>215.4</ele><time>2026-04-16T10:26:32.814Z</time></trkpt><trkpt lat="44.9358385" lon="9.5284487"><ele>218.0</ele><time>2026-04-16T10:26:34.815Z</time></trkpt><trkpt lat="44.9357585" lon="9.528545"><ele>218.66666666666669</ele><time>2026-04-16T10:26:36.815Z</time></trkpt><trkpt lat="44.9356968" lon="9.5286474"><ele>219.33333333333334</ele><time>2026-04-16T10:26:38.814Z</time></trkpt><trkpt lat="44.9356312" lon="9.528716"><ele>220.0</ele><time>2026-04-16T10:26:40.814Z</time></trkpt><trkpt lat="44.9355659" lon="9.5287536"><ele>220.66666666666669</ele><time>2026-04-16T10:26:44.814Z</time></trkpt><trkpt lat="44.9354935" lon="9.5288242"><ele>221.33333333333334</ele><time>2026-04-16T10:26:47.815Z</time></trkpt><trkpt lat="44.9354193" lon="9.528901"><ele>222.0</ele><time>2026-04-16T10:26:49.815Z</time></trkpt><trkpt lat="44.9353175" lon="9.5289269"><ele>222.8</ele><time>2026-04-16T10:26:51.815Z</time></trkpt><trkpt lat="44.9352178" lon="9.5289574"><ele>223.6</ele><time>2026-04-16T10:26:53.815Z</time></trkpt><trkpt lat="44.9350999" lon="9.5289936"><ele>224.40000000000003</ele><time>2026-04-16T10:26:55.816Z</time></trkpt><trkpt lat="44.9349863" lon="9.5290267"><ele>225.20000000000002</ele><time>2026-04-16T10:26:57.814Z</time></trkpt><trkpt lat="44.9348908" lon="9.529053"><ele>226.0</ele><time>2026-04-16T10:26:59.814Z</time></trkpt><trkpt lat="44.934803" lon="9.5290787"><ele>226.60000000000002</ele><time>2026-04-16T10:27:01.815Z</time></trkpt><trkpt lat="44.9347306" lon="9.5290824"><ele>227.20000000000002</ele><time>2026-04-16T10:27:08.815Z</time></trkpt><trkpt lat="44.9346368" lon="9.5291148"><ele>227.79999999999998</ele><time>2026-04-16T10:27:11.815Z</time></trkpt><trkpt lat="44.9345369" lon="9.5291418"><ele>228.39999999999998</ele><time>2026-04-16T10:27:13.815Z</time></trkpt><trkpt lat="44.9344299" lon="9.5291778"><ele>229.0</ele><time>2026-04-16T10:27:15.814Z</time></trkpt><trkpt lat="44.9343297" lon="9.5292207"><ele>229.0</ele><time>2026-04-16T10:27:17.814Z</time></trkpt><trkpt lat="44.9342434" lon="9.5292631"><ele>228.99999999999997</ele><time>2026-04-16T10:27:19.815Z</time></trkpt><trkpt lat="44.9341476" lon="9.5293147"><ele>228.99999999999997</ele><time>2026-04-16T10:27:21.816Z</time></trkpt><trkpt lat="44.9340456" lon="9.5293727"><ele>229.0</ele><time>2026-04-16T10:27:23.815Z</time></trkpt><trkpt lat="44.9339495" lon="9.5294242"><ele>229.0</ele><time>2026-04-16T10:27:25.815Z</time></trkpt><trkpt lat="44.9338539" lon="9.5294789"><ele>229.75</ele><time>2026-04-16T10:27:27.816Z</time></trkpt><trkpt lat="44.9337551" lon="9.5295284"><ele>230.5</ele><time>2026-04-16T10:27:29.814Z</time></trkpt><trkpt lat="44.9336523" lon="9.5295659"><ele>231.25</ele><time>2026-04-16T10:27:31.815Z</time></trkpt><trkpt lat="44.9335357" lon="9.5295996"><ele>232.0</ele><time>2026-04-16T10:27:33.814Z</time></trkpt><trkpt lat="44.9334117" lon="9.5296191"><ele>234.75</ele><time>2026-04-16T10:27:35.814Z</time></trkpt><trkpt lat="44.933289" lon="9.529625"><ele>237.5</ele><time>2026-04-16T10:27:37.814Z</time></trkpt><trkpt lat="44.9331658" lon="9.5296261"><ele>240.25</ele><time>2026-04-16T10:27:39.815Z</time></trkpt><trkpt lat="44.9330458" lon="9.5296247"><ele>243.0</ele><time>2026-04-16T10:27:41.815Z</time></trkpt><trkpt lat="44.9329286" lon="9.5296406"><ele>243.0</ele><time>2026-04-16T10:27:43.815Z</time></trkpt><trkpt lat="44.9328216" lon="9.5296637"><ele>243.0</ele><time>2026-04-16T10:27:45.816Z</time></trkpt><trkpt lat="44.9327093" lon="9.529682"><ele>243.0</ele><time>2026-04-16T10:27:47.815Z</time></trkpt><trkpt lat="44.9326012" lon="9.5297008"><ele>243.0</ele><time>2026-04-16T10:27:49.815Z</time></trkpt><trkpt lat="44.9324997" lon="9.5297286"><ele>243.0</ele><time>2026-04-16T10:27:51.815Z</time></trkpt><trkpt lat="44.9324251" lon="9.5297603"><ele>244.57142857142856</ele><time>2026-04-16T10:27:53.815Z</time></trkpt><trkpt lat="44.9323632" lon="9.5298028"><ele>246.14285714285717</ele><time>2026-04-16T10:27:55.815Z</time></trkpt><trkpt lat="44.9323078" lon="9.5298642"><ele>247.71428571428572</ele><time>2026-04-16T10:27:57.814Z</time></trkpt><trkpt lat="44.9322636" lon="9.5299496"><ele>249.28571428571428</ele><time>2026-04-16T10:27:59.814Z</time></trkpt><trkpt lat="44.932249" lon="9.5300372"><ele>250.85714285714283</ele><time>2026-04-16T10:28:04.813Z</time></trkpt><trkpt lat="44.9322468" lon="9.5301644"><ele>252.42857142857144</ele><time>2026-04-16T10:28:07.813Z</time></trkpt><trkpt lat="44.9322486" lon="9.5302734"><ele>254.0</ele><time>2026-04-16T10:28:09.813Z</time></trkpt><trkpt lat="44.9322514" lon="9.5303946"><ele>254.66666666666669</ele><time>2026-04-16T10:28:11.814Z</time></trkpt><trkpt lat="44.9322518" lon="9.5305075"><ele>255.33333333333334</ele><time>2026-04-16T10:28:13.814Z</time></trkpt><trkpt lat="44.9322462" lon="9.5306286"><ele>256.0</ele><time>2026-04-16T10:28:15.813Z</time></trkpt><trkpt lat="44.9322365" lon="9.5307414"><ele>256.6666666666667</ele><time>2026-04-16T10:28:17.813Z</time></trkpt><trkpt lat="44.9322288" lon="9.5308303"><ele>257.3333333333333</ele><time>2026-04-16T10:28:19.814Z</time></trkpt><trkpt lat="44.9322197" lon="9.5309541"><ele>258.0</ele><time>2026-04-16T10:28:22.814Z</time></trkpt><trkpt lat="44.9322075" lon="9.5310648"><ele>258.0</ele><time>2026-04-16T10:28:25.813Z</time></trkpt><trkpt lat="44.9321884" lon="9.5311663"><ele>258.0</ele><time>2026-04-16T10:28:28.814Z</time></trkpt><trkpt lat="44.9321655" lon="9.5312985"><ele>258.0</ele><time>2026-04-16T10:28:31.815Z</time></trkpt><trkpt lat="44.9321455" lon="9.5313849"><ele>258.0</ele><time>2026-04-16T10:28:33.813Z</time></trkpt><trkpt lat="44.9321279" lon="9.5315037"><ele>258.0</ele><time>2026-04-16T10:28:36.813Z</time></trkpt><trkpt lat="44.9321002" lon="9.531608"><ele>258.0</ele><time>2026-04-16T10:28:38.813Z</time></trkpt><trkpt lat="44.9320708" lon="9.5316954"><ele>257.4</ele><time>2026-04-16T10:28:40.813Z</time></trkpt><trkpt lat="44.9320195" lon="9.53178"><ele>256.8</ele><time>2026-04-16T10:28:43.813Z</time></trkpt><trkpt lat="44.9319391" lon="9.5318424"><ele>256.2</ele><time>2026-04-16T10:28:46.813Z</time></trkpt><trkpt lat="44.931834" lon="9.5318883"><ele>255.6</ele><time>2026-04-16T10:28:48.814Z</time></trkpt><trkpt lat="44.931724" lon="9.5319234"><ele>255.0</ele><time>2026-04-16T10:28:50.813Z</time></trkpt><trkpt lat="44.9316164" lon="9.5319282"><ele>256.1666666666667</ele><time>2026-04-16T10:28:52.814Z</time></trkpt><trkpt lat="44.9315125" lon="9.5319344"><ele>257.3333333333333</ele><time>2026-04-16T10:28:54.813Z</time></trkpt><trkpt lat="44.93139" lon="9.5319654"><ele>258.5</ele><time>2026-04-16T10:28:56.813Z</time></trkpt><trkpt lat="44.9313263" lon="9.5319796"><ele>259.66666666666663</ele><time>2026-04-16T10:28:57.814Z</time></trkpt><trkpt lat="44.9312574" lon="9.5319946"><ele>260.8333333333333</ele><time>2026-04-16T10:28:58.813Z</time></trkpt><trkpt lat="44.931189" lon="9.5320082"><ele>262.0</ele><time>2026-04-16T10:28:59.813Z</time></trkpt><trkpt lat="44.9311174" lon="9.5320221"><ele>262.0</ele><time>2026-04-16T10:29:00.814Z</time></trkpt><trkpt lat="44.9310501" lon="9.5320368"><ele>262.0</ele><time>2026-04-16T10:29:01.813Z</time></trkpt><trkpt lat="44.9309877" lon="9.5320573"><ele>262.0</ele><time>2026-04-16T10:29:02.814Z</time></trkpt><trkpt lat="44.930928" lon="9.5320888"><ele>262.0</ele><time>2026-04-16T10:29:03.814Z</time></trkpt><trkpt lat="44.9308701" lon="9.5321313"><ele>262.0</ele><time>2026-04-16T10:29:04.814Z</time></trkpt><trkpt lat="44.9308113" lon="9.5321745"><ele>262.0</ele><time>2026-04-16T10:29:05.813Z</time></trkpt><trkpt lat="44.9307497" lon="9.5322189"><ele>262.0</ele><time>2026-04-16T10:29:06.813Z</time></trkpt><trkpt lat="44.9306922" lon="9.5322571"><ele>263.16666666666663</ele><time>2026-04-16T10:29:07.813Z</time></trkpt><trkpt lat="44.9306337" lon="9.532293"><ele>264.3333333333333</ele><time>2026-04-16T10:29:08.814Z</time></trkpt><trkpt lat="44.930573" lon="9.5323298"><ele>265.5</ele><time>2026-04-16T10:29:09.814Z</time></trkpt><trkpt lat="44.9305109" lon="9.532356"><ele>266.6666666666667</ele><time>2026-04-16T10:29:10.813Z</time></trkpt><trkpt lat="44.9303857" lon="9.5323803"><ele>267.83333333333337</ele><time>2026-04-16T10:29:12.814Z</time></trkpt><trkpt lat="44.930322" lon="9.5323858"><ele>269.0</ele><time>2026-04-16T10:29:13.812Z</time></trkpt><trkpt lat="44.9302551" lon="9.5323921"><ele>269.0</ele><time>2026-04-16T10:29:14.814Z</time></trkpt><trkpt lat="44.9301893" lon="9.5323985"><ele>269.0</ele><time>2026-04-16T10:29:15.813Z</time></trkpt><trkpt lat="44.9301249" lon="9.5324091"><ele>269.0</ele><time>2026-04-16T10:29:16.813Z</time></trkpt><trkpt lat="44.9300555" lon="9.5324193"><ele>269.0</ele><time>2026-04-16T10:29:17.814Z</time></trkpt><trkpt lat="44.9299837" lon="9.5324284"><ele>269.0</ele><time>2026-04-16T10:29:18.813Z</time></trkpt><trkpt lat="44.929914" lon="9.5324356"><ele>269.0</ele><time>2026-04-16T10:29:19.814Z</time></trkpt><trkpt lat="44.929843" lon="9.5324447"><ele>269.0</ele><time>2026-04-16T10:29:20.814Z</time></trkpt><trkpt lat="44.9297732" lon="9.532455"><ele>269.7142857142857</ele><time>2026-04-16T10:29:21.813Z</time></trkpt><trkpt lat="44.9297038" lon="9.5324663"><ele>270.42857142857144</ele><time>2026-04-16T10:29:22.814Z</time></trkpt><trkpt lat="44.9296359" lon="9.5324726"><ele>271.14285714285717</ele><time>2026-04-16T10:29:23.814Z</time></trkpt><trkpt lat="44.929567" lon="9.5324805"><ele>271.8571428571429</ele><time>2026-04-16T10:29:24.813Z</time></trkpt><trkpt lat="44.9294987" lon="9.5324905"><ele>272.57142857142856</ele><time>2026-04-16T10:29:25.813Z</time></trkpt><trkpt lat="44.9294326" lon="9.532499"><ele>273.28571428571433</ele><time>2026-04-16T10:29:26.813Z</time></trkpt><trkpt lat="44.9293646" lon="9.5325108"><ele>274.0</ele><time>2026-04-16T10:29:27.814Z</time></trkpt><trkpt lat="44.9292971" lon="9.532523"><ele>274.00000000000006</ele><time>2026-04-16T10:29:28.814Z</time></trkpt><trkpt lat="44.9292285" lon="9.5325332"><ele>274.0</ele><time>2026-04-16T10:29:29.814Z</time></trkpt><trkpt lat="44.929159" lon="9.5325437"><ele>274.0</ele><time>2026-04-16T10:29:30.813Z</time></trkpt><trkpt lat="44.9290874" lon="9.532547"><ele>274.0</ele><time>2026-04-16T10:29:31.814Z</time></trkpt><trkpt lat="44.9290128" lon="9.53255"><ele>274.0</ele><time>2026-04-16T10:29:32.814Z</time></trkpt><trkpt lat="44.928938" lon="9.5325604"><ele>274.00000000000006</ele><time>2026-04-16T10:29:33.814Z</time></trkpt><trkpt lat="44.9288597" lon="9.5325683"><ele>274.0</ele><time>2026-04-16T10:29:34.813Z</time></trkpt><trkpt lat="44.9287797" lon="9.5325788"><ele>275.3333333333333</ele><time>2026-04-16T10:29:35.813Z</time></trkpt><trkpt lat="44.9286979" lon="9.5325936"><ele>276.66666666666663</ele><time>2026-04-16T10:29:36.813Z</time></trkpt><trkpt lat="44.9286183" lon="9.5326061"><ele>278.0</ele><time>2026-04-16T10:29:37.814Z</time></trkpt><trkpt lat="44.9285362" lon="9.5326197"><ele>279.3333333333333</ele><time>2026-04-16T10:29:38.814Z</time></trkpt><trkpt lat="44.9284531" lon="9.5326311"><ele>280.6666666666667</ele><time>2026-04-16T10:29:39.815Z</time></trkpt><trkpt lat="44.928368" lon="9.5326409"><ele>282.0</ele><time>2026-04-16T10:29:40.813Z</time></trkpt><trkpt lat="44.9282874" lon="9.532654"><ele>283.0</ele><time>2026-04-16T10:29:41.813Z</time></trkpt><trkpt lat="44.928209" lon="9.5326661"><ele>284.0</ele><time>2026-04-16T10:29:42.814Z</time></trkpt><trkpt lat="44.9281314" lon="9.5326817"><ele>285.0</ele><time>2026-04-16T10:29:43.814Z</time></trkpt><trkpt lat="44.9280565" lon="9.5327034"><ele>286.0</ele><time>2026-04-16T10:29:44.815Z</time></trkpt><trkpt lat="44.9279887" lon="9.5327373"><ele>287.0</ele><time>2026-04-16T10:29:45.814Z</time></trkpt><trkpt lat="44.9279296" lon="9.5327864"><ele>288.0</ele><time>2026-04-16T10:29:46.814Z</time></trkpt><trkpt lat="44.9278795" lon="9.5328501"><ele>289.0</ele><time>2026-04-16T10:29:47.813Z</time></trkpt><trkpt lat="44.9278367" lon="9.5329213"><ele>289.7142857142857</ele><time>2026-04-16T10:29:48.813Z</time></trkpt><trkpt lat="44.927796" lon="9.532996"><ele>290.42857142857144</ele><time>2026-04-16T10:29:49.813Z</time></trkpt><trkpt lat="44.9277531" lon="9.5330696"><ele>291.1428571428571</ele><time>2026-04-16T10:29:50.813Z</time></trkpt><trkpt lat="44.9277067" lon="9.5331337"><ele>291.8571428571429</ele><time>2026-04-16T10:29:51.815Z</time></trkpt><trkpt lat="44.9276638" lon="9.5332032"><ele>292.57142857142856</ele><time>2026-04-16T10:29:52.814Z</time></trkpt><trkpt lat="44.9276212" lon="9.5332736"><ele>293.2857142857143</ele><time>2026-04-16T10:29:53.813Z</time></trkpt><trkpt lat="44.9275799" lon="9.5333442"><ele>294.0</ele><time>2026-04-16T10:29:54.814Z</time></trkpt><trkpt lat="44.9275357" lon="9.5334149"><ele>295.8333333333333</ele><time>2026-04-16T10:29:55.814Z</time></trkpt><trkpt lat="44.927488" lon="9.5334826"><ele>297.6666666666667</ele><time>2026-04-16T10:29:56.815Z</time></trkpt><trkpt lat="44.9274407" lon="9.5335536"><ele>299.5</ele><time>2026-04-16T10:29:57.814Z</time></trkpt><trkpt lat="44.9273947" lon="9.5336282"><ele>301.33333333333337</ele><time>2026-04-16T10:29:58.814Z</time></trkpt><trkpt lat="44.9273325" lon="9.5337522"><ele>303.1666666666667</ele><time>2026-04-16T10:30:00.814Z</time></trkpt><trkpt lat="44.9272891" lon="9.5339056"><ele>305.0</ele><time>2026-04-16T10:30:02.813Z</time></trkpt><trkpt lat="44.9272698" lon="9.5339935"><ele>305.0</ele><time>2026-04-16T10:30:03.813Z</time></trkpt><trkpt lat="44.9272481" lon="9.5340813"><ele>305.0</ele><time>2026-04-16T10:30:04.813Z</time></trkpt><trkpt lat="44.9272229" lon="9.5341809"><ele>305.0</ele><time>2026-04-16T10:30:05.813Z</time></trkpt><trkpt lat="44.9272001" lon="9.5342846"><ele>305.0</ele><time>2026-04-16T10:30:06.815Z</time></trkpt><trkpt lat="44.9271784" lon="9.5343948"><ele>305.0</ele><time>2026-04-16T10:30:07.814Z</time></trkpt><trkpt lat="44.9271495" lon="9.5345024"><ele>305.0</ele><time>2026-04-16T10:30:08.813Z</time></trkpt><trkpt lat="44.9271128" lon="9.534609"><ele>305.0</ele><time>2026-04-16T10:30:09.814Z</time></trkpt><trkpt lat="44.9270712" lon="9.534717"><ele>305.0</ele><time>2026-04-16T10:30:10.814Z</time></trkpt><trkpt lat="44.9270274" lon="9.5348328"><ele>305.0</ele><time>2026-04-16T10:30:11.814Z</time></trkpt><trkpt lat="44.9269767" lon="9.5349534"><ele>305.0</ele><time>2026-04-16T10:30:12.814Z</time></trkpt><trkpt lat="44.9269194" lon="9.5350804"><ele>305.0</ele><time>2026-04-16T10:30:13.814Z</time></trkpt><trkpt lat="44.9268629" lon="9.5352031"><ele>305.0</ele><time>2026-04-16T10:30:14.814Z</time></trkpt><trkpt lat="44.9268077" lon="9.5353342"><ele>305.0</ele><time>2026-04-16T10:30:15.814Z</time></trkpt><trkpt lat="44.926761" lon="9.5354728"><ele>305.0</ele><time>2026-04-16T10:30:16.814Z</time></trkpt><trkpt lat="44.9267225" lon="9.5356148"><ele>305.0</ele><time>2026-04-16T10:30:17.814Z</time></trkpt><trkpt lat="44.9266861" lon="9.5357568"><ele>305.0</ele><time>2026-04-16T10:30:18.814Z</time></trkpt><trkpt lat="44.9266446" lon="9.535891"><ele>307.2</ele><time>2026-04-16T10:30:19.814Z</time></trkpt><trkpt lat="44.9265872" lon="9.5360095"><ele>309.4</ele><time>2026-04-16T10:30:20.814Z</time></trkpt><trkpt lat="44.9265218" lon="9.5361089"><ele>311.6</ele><time>2026-04-16T10:30:21.813Z</time></trkpt><trkpt lat="44.9264548" lon="9.5362057"><ele>313.8</ele><time>2026-04-16T10:30:22.814Z</time></trkpt><trkpt lat="44.9263922" lon="9.5363078"><ele>316.0</ele><time>2026-04-16T10:30:23.813Z</time></trkpt><trkpt lat="44.9263382" lon="9.5364174"><ele>317.16666666666663</ele><time>2026-04-16T10:30:24.814Z</time></trkpt><trkpt lat="44.9262947" lon="9.5365219"><ele>318.3333333333333</ele><time>2026-04-16T10:30:25.814Z</time></trkpt><trkpt lat="44.9262549" lon="9.5366258"><ele>319.5</ele><time>2026-04-16T10:30:26.814Z</time></trkpt><trkpt lat="44.9262117" lon="9.5367263"><ele>320.6666666666667</ele><time>2026-04-16T10:30:27.813Z</time></trkpt><trkpt lat="44.926163" lon="9.5368222"><ele>321.83333333333337</ele><time>2026-04-16T10:30:28.814Z</time></trkpt><trkpt lat="44.9261072" lon="9.5368996"><ele>323.0</ele><time>2026-04-16T10:30:29.814Z</time></trkpt><trkpt lat="44.9260463" lon="9.5369617"><ele>323.0</ele><time>2026-04-16T10:30:30.815Z</time></trkpt><trkpt lat="44.9259776" lon="9.5370117"><ele>323.0</ele><time>2026-04-16T10:30:31.814Z</time></trkpt><trkpt lat="44.9259081" lon="9.5370528"><ele>323.0</ele><time>2026-04-16T10:30:32.814Z</time></trkpt><trkpt lat="44.9258383" lon="9.5370847"><ele>323.0</ele><time>2026-04-16T10:30:33.813Z</time></trkpt><trkpt lat="44.9257739" lon="9.5371139"><ele>323.0</ele><time>2026-04-16T10:30:34.815Z</time></trkpt><trkpt lat="44.9256668" lon="9.5371717"><ele>323.0</ele><time>2026-04-16T10:30:36.814Z</time></trkpt><trkpt lat="44.9255529" lon="9.5371884"><ele>324.5</ele><time>2026-04-16T10:30:38.814Z</time></trkpt><trkpt lat="44.925489" lon="9.5371672"><ele>326.0</ele><time>2026-04-16T10:30:39.813Z</time></trkpt><trkpt lat="44.9254228" lon="9.5371282"><ele>327.5</ele><time>2026-04-16T10:30:40.814Z</time></trkpt><trkpt lat="44.92535" lon="9.5370759"><ele>329.0</ele><time>2026-04-16T10:30:41.814Z</time></trkpt><trkpt lat="44.9252691" lon="9.5370083"><ele>330.5</ele><time>2026-04-16T10:30:42.814Z</time></trkpt><trkpt lat="44.9251877" lon="9.536934"><ele>332.0</ele><time>2026-04-16T10:30:43.815Z</time></trkpt><trkpt lat="44.9251036" lon="9.536852"><ele>333.6</ele><time>2026-04-16T10:30:44.814Z</time></trkpt><trkpt lat="44.9250181" lon="9.5367597"><ele>335.20000000000005</ele><time>2026-04-16T10:30:45.815Z</time></trkpt><trkpt lat="44.9249233" lon="9.5366893"><ele>336.8</ele><time>2026-04-16T10:30:46.814Z</time></trkpt><trkpt lat="44.9248172" lon="9.5366515"><ele>338.4</ele><time>2026-04-16T10:30:47.813Z</time></trkpt><trkpt lat="44.9247047" lon="9.5366253"><ele>340.0</ele><time>2026-04-16T10:30:48.814Z</time></trkpt><trkpt lat="44.9245861" lon="9.5366078"><ele>340.0</ele><time>2026-04-16T10:30:49.814Z</time></trkpt><trkpt lat="44.9244714" lon="9.536591"><ele>340.0</ele><time>2026-04-16T10:30:50.813Z</time></trkpt><trkpt lat="44.9243614" lon="9.5365628"><ele>340.0</ele><time>2026-04-16T10:30:51.814Z</time></trkpt><trkpt lat="44.9242646" lon="9.5365266"><ele>340.0</ele><time>2026-04-16T10:30:52.813Z</time></trkpt><trkpt lat="44.9241854" lon="9.5364927"><ele>340.0</ele><time>2026-04-16T10:30:53.813Z</time></trkpt><trkpt lat="44.9241214" lon="9.5364625"><ele>341.2857142857143</ele><time>2026-04-16T10:30:54.813Z</time></trkpt><trkpt lat="44.924051" lon="9.5364377"><ele>342.57142857142856</ele><time>2026-04-16T10:30:55.814Z</time></trkpt><trkpt lat="44.9239767" lon="9.5364252"><ele>343.85714285714283</ele><time>2026-04-16T10:30:56.814Z</time></trkpt><trkpt lat="44.9239017" lon="9.5364309"><ele>345.1428571428571</ele><time>2026-04-16T10:30:57.813Z</time></trkpt><trkpt lat="44.9238368" lon="9.5364562"><ele>346.42857142857144</ele><time>2026-04-16T10:30:58.813Z</time></trkpt><trkpt lat="44.9237815" lon="9.5365035"><ele>347.71428571428567</ele><time>2026-04-16T10:30:59.814Z</time></trkpt><trkpt lat="44.923741" lon="9.5365794"><ele>349.0</ele><time>2026-04-16T10:31:00.815Z</time></trkpt><trkpt lat="44.9237081" lon="9.5366744"><ele>349.0</ele><time>2026-04-16T10:31:01.814Z</time></trkpt><trkpt lat="44.9236752" lon="9.5367898"><ele>349.0</ele><time>2026-04-16T10:31:02.813Z</time></trkpt><trkpt lat="44.9236377" lon="9.5369149"><ele>349.0</ele><time>2026-04-16T10:31:03.813Z</time></trkpt><trkpt lat="44.9235945" lon="9.5370406"><ele>349.0</ele><time>2026-04-16T10:31:04.814Z</time></trkpt><trkpt lat="44.9235473" lon="9.5371646"><ele>349.0</ele><time>2026-04-16T10:31:05.814Z</time></trkpt><trkpt lat="44.9234996" lon="9.5372827"><ele>349.66666666666663</ele><time>2026-04-16T10:31:06.814Z</time></trkpt><trkpt lat="44.9234464" lon="9.5373911"><ele>350.3333333333333</ele><time>2026-04-16T10:31:07.813Z</time></trkpt><trkpt lat="44.9233843" lon="9.5374838"><ele>351.0</ele><time>2026-04-16T10:31:08.814Z</time></trkpt><trkpt lat="44.923323" lon="9.5375692"><ele>351.6666666666667</ele><time>2026-04-16T10:31:09.813Z</time></trkpt><trkpt lat="44.9232553" lon="9.5376422"><ele>352.33333333333337</ele><time>2026-04-16T10:31:10.814Z</time></trkpt><trkpt lat="44.9231859" lon="9.5377003"><ele>353.0</ele><time>2026-04-16T10:31:11.814Z</time></trkpt><trkpt lat="44.9231166" lon="9.5377268"><ele>353.0</ele><time>2026-04-16T10:31:12.813Z</time></trkpt><trkpt lat="44.923039" lon="9.5377277"><ele>353.0</ele><time>2026-04-16T10:31:13.813Z</time></trkpt><trkpt lat="44.9229593" lon="9.5377204"><ele>353.0</ele><time>2026-04-16T10:31:14.815Z</time></trkpt><trkpt lat="44.9228754" lon="9.5377118"><ele>353.0</ele><time>2026-04-16T10:31:15.813Z</time></trkpt><trkpt lat="44.9227854" lon="9.5376981"><ele>353.0</ele><time>2026-04-16T10:31:16.814Z</time></trkpt><trkpt lat="44.9226924" lon="9.5376851"><ele>353.0</ele><time>2026-04-16T10:31:17.814Z</time></trkpt><trkpt lat="44.9226033" lon="9.537684"><ele>354.4</ele><time>2026-04-16T10:31:18.813Z</time></trkpt><trkpt lat="44.9225164" lon="9.5376944"><ele>355.79999999999995</ele><time>2026-04-16T10:31:19.813Z</time></trkpt><trkpt lat="44.9224312" lon="9.5377145"><ele>357.2</ele><time>2026-04-16T10:31:20.813Z</time></trkpt><trkpt lat="44.9223428" lon="9.537735"><ele>358.6</ele><time>2026-04-16T10:31:21.813Z</time></trkpt><trkpt lat="44.9222544" lon="9.5377615"><ele>360.0</ele><time>2026-04-16T10:31:22.814Z</time></trkpt><trkpt lat="44.9221619" lon="9.537801"><ele>360.0</ele><time>2026-04-16T10:31:23.813Z</time></trkpt><trkpt lat="44.9220721" lon="9.5378626"><ele>360.0</ele><time>2026-04-16T10:31:24.814Z</time></trkpt><trkpt lat="44.9219755" lon="9.5379392"><ele>360.0</ele><time>2026-04-16T10:31:25.813Z</time></trkpt><trkpt lat="44.9218698" lon="9.5380203"><ele>360.0</ele><time>2026-04-16T10:31:26.813Z</time></trkpt><trkpt lat="44.9217611" lon="9.538103"><ele>361.0</ele><time>2026-04-16T10:31:27.815Z</time></trkpt><trkpt lat="44.921645" lon="9.5381929"><ele>362.0</ele><time>2026-04-16T10:31:28.815Z</time></trkpt><trkpt lat="44.9215241" lon="9.5382797"><ele>363.0</ele><time>2026-04-16T10:31:29.813Z</time></trkpt><trkpt lat="44.9214036" lon="9.5383703"><ele>364.0</ele><time>2026-04-16T10:31:30.814Z</time></trkpt><trkpt lat="44.9212877" lon="9.5384487"><ele>364.0</ele><time>2026-04-16T10:31:31.814Z</time></trkpt><trkpt lat="44.9211756" lon="9.5385163"><ele>364.0</ele><time>2026-04-16T10:31:32.814Z</time></trkpt><trkpt lat="44.9210678" lon="9.5385798"><ele>364.0</ele><time>2026-04-16T10:31:33.814Z</time></trkpt><trkpt lat="44.9209634" lon="9.5386417"><ele>364.0</ele><time>2026-04-16T10:31:34.814Z</time></trkpt><trkpt lat="44.9208584" lon="9.538698"><ele>363.5</ele><time>2026-04-16T10:31:35.814Z</time></trkpt><trkpt lat="44.9207457" lon="9.5387487"><ele>363.0</ele><time>2026-04-16T10:31:36.814Z</time></trkpt><trkpt lat="44.9206302" lon="9.5387926"><ele>362.5</ele><time>2026-04-16T10:31:37.814Z</time></trkpt><trkpt lat="44.9205137" lon="9.5388476"><ele>362.0</ele><time>2026-04-16T10:31:38.813Z</time></trkpt><trkpt lat="44.920397" lon="9.5389098"><ele>362.0</ele><time>2026-04-16T10:31:39.814Z</time></trkpt><trkpt lat="44.9202781" lon="9.5389747"><ele>362.0</ele><time>2026-04-16T10:31:40.815Z</time></trkpt><trkpt lat="44.920163" lon="9.5390435"><ele>362.0</ele><time>2026-04-16T10:31:41.814Z</time></trkpt><trkpt lat="44.9200502" lon="9.5391137"><ele>362.0</ele><time>2026-04-16T10:31:42.814Z</time></trkpt><trkpt lat="44.9199405" lon="9.5391819"><ele>364.20000000000005</ele><time>2026-04-16T10:31:43.814Z</time></trkpt><trkpt lat="44.9198362" lon="9.5392454"><ele>366.4</ele><time>2026-04-16T10:31:44.813Z</time></trkpt><trkpt lat="44.9197411" lon="9.5393052"><ele>368.6</ele><time>2026-04-16T10:31:45.813Z</time></trkpt><trkpt lat="44.9196608" lon="9.5393506"><ele>370.79999999999995</ele><time>2026-04-16T10:31:46.813Z</time></trkpt><trkpt lat="44.9195823" lon="9.5393828"><ele>373.0</ele><time>2026-04-16T10:31:47.814Z</time></trkpt><trkpt lat="44.9195051" lon="9.5393891"><ele>373.0</ele><time>2026-04-16T10:31:48.813Z</time></trkpt><trkpt lat="44.9194265" lon="9.5393701"><ele>373.0</ele><time>2026-04-16T10:31:49.813Z</time></trkpt><trkpt lat="44.9193495" lon="9.5393317"><ele>373.0</ele><time>2026-04-16T10:31:50.814Z</time></trkpt><trkpt lat="44.9192782" lon="9.5392923"><ele>373.0</ele><time>2026-04-16T10:31:51.813Z</time></trkpt><trkpt lat="44.9191961" lon="9.5392484"><ele>373.0</ele><time>2026-04-16T10:31:53.814Z</time></trkpt><trkpt lat="44.9191111" lon="9.5392584"><ele>373.0</ele><time>2026-04-16T10:32:32.814Z</time></trkpt><trkpt lat="44.9190461" lon="9.5393489"><ele>374.8333333333333</ele><time>2026-04-16T10:32:34.814Z</time></trkpt><trkpt lat="44.9189823" lon="9.5394748"><ele>376.66666666666663</ele><time>2026-04-16T10:32:36.814Z</time></trkpt><trkpt lat="44.9189014" lon="9.5396053"><ele>378.5</ele><time>2026-04-16T10:32:38.814Z</time></trkpt><trkpt lat="44.9188516" lon="9.5396688"><ele>380.3333333333333</ele><time>2026-04-16T10:32:39.814Z</time></trkpt><trkpt lat="44.9187939" lon="9.5397332"><ele>382.1666666666667</ele><time>2026-04-16T10:32:40.813Z</time></trkpt><trkpt lat="44.9187354" lon="9.5397962"><ele>384.0</ele><time>2026-04-16T10:32:41.814Z</time></trkpt><trkpt lat="44.9186781" lon="9.5398602"><ele>384.1428571428571</ele><time>2026-04-16T10:32:42.814Z</time></trkpt><trkpt lat="44.9186211" lon="9.5399231"><ele>384.2857142857143</ele><time>2026-04-16T10:32:43.813Z</time></trkpt><trkpt lat="44.9185651" lon="9.5399822"><ele>384.42857142857144</ele><time>2026-04-16T10:32:44.814Z</time></trkpt><trkpt lat="44.9185094" lon="9.5400419"><ele>384.57142857142856</ele><time>2026-04-16T10:32:45.814Z</time></trkpt><trkpt lat="44.918455" lon="9.5401027"><ele>384.7142857142857</ele><time>2026-04-16T10:32:46.814Z</time></trkpt><trkpt lat="44.9184003" lon="9.5401606"><ele>384.85714285714283</ele><time>2026-04-16T10:32:47.813Z</time></trkpt><trkpt lat="44.9183442" lon="9.5402141"><ele>385.0</ele><time>2026-04-16T10:32:48.814Z</time></trkpt><trkpt lat="44.9182901" lon="9.5402612"><ele>386.7142857142857</ele><time>2026-04-16T10:32:49.814Z</time></trkpt><trkpt lat="44.918235" lon="9.5403073"><ele>388.42857142857144</ele><time>2026-04-16T10:32:50.814Z</time></trkpt><trkpt lat="44.9181781" lon="9.5403532"><ele>390.1428571428571</ele><time>2026-04-16T10:32:51.813Z</time></trkpt><trkpt lat="44.9181201" lon="9.5403988"><ele>391.8571428571429</ele><time>2026-04-16T10:32:52.814Z</time></trkpt><trkpt lat="44.9180613" lon="9.5404375"><ele>393.57142857142856</ele><time>2026-04-16T10:32:53.813Z</time></trkpt><trkpt lat="44.9179992" lon="9.5404726"><ele>395.2857142857143</ele><time>2026-04-16T10:32:54.814Z</time></trkpt><trkpt lat="44.9179345" lon="9.5405115"><ele>397.0</ele><time>2026-04-16T10:32:55.814Z</time></trkpt><trkpt lat="44.9178705" lon="9.5405482"><ele>397.0</ele><time>2026-04-16T10:32:56.815Z</time></trkpt><trkpt lat="44.9178097" lon="9.5405819"><ele>397.0</ele><time>2026-04-16T10:32:57.813Z</time></trkpt><trkpt lat="44.9177422" lon="9.5406131"><ele>397.0</ele><time>2026-04-16T10:32:58.814Z</time></trkpt><trkpt lat="44.9176794" lon="9.5406398"><ele>397.0</ele><time>2026-04-16T10:32:59.814Z</time></trkpt><trkpt lat="44.9176172" lon="9.5406813"><ele>397.0</ele><time>2026-04-16T10:33:00.813Z</time></trkpt><trkpt lat="44.9175535" lon="9.5407193"><ele>397.0</ele><time>2026-04-16T10:33:01.814Z</time></trkpt><trkpt lat="44.9174938" lon="9.5407618"><ele>397.0</ele><time>2026-04-16T10:33:02.814Z</time></trkpt><trkpt lat="44.9174371" lon="9.5408051"><ele>402.5</ele><time>2026-04-16T10:33:03.814Z</time></trkpt><trkpt lat="44.9173387" lon="9.5408737"><ele>408.0</ele><time>2026-04-16T10:33:05.814Z</time></trkpt><trkpt lat="44.9172347" lon="9.5409338"><ele>413.5</ele><time>2026-04-16T10:33:07.814Z</time></trkpt><trkpt lat="44.9171189" lon="9.5409944"><ele>419.0</ele><time>2026-04-16T10:33:09.813Z</time></trkpt><trkpt lat="44.9170159" lon="9.5410773"><ele>418.99999999999994</ele><time>2026-04-16T10:33:11.814Z</time></trkpt><trkpt lat="44.9169563" lon="9.5411336"><ele>419.0</ele><time>2026-04-16T10:33:12.813Z</time></trkpt><trkpt lat="44.9168981" lon="9.5411895"><ele>419.0</ele><time>2026-04-16T10:33:13.814Z</time></trkpt><trkpt lat="44.9168415" lon="9.5412493"><ele>419.0</ele><time>2026-04-16T10:33:14.815Z</time></trkpt><trkpt lat="44.9167887" lon="9.5413091"><ele>419.0</ele><time>2026-04-16T10:33:15.814Z</time></trkpt><trkpt lat="44.9167352" lon="9.5413707"><ele>418.99999999999994</ele><time>2026-04-16T10:33:16.815Z</time></trkpt><trkpt lat="44.9166846" lon="9.5414245"><ele>419.0</ele><time>2026-04-16T10:33:17.814Z</time></trkpt><trkpt lat="44.9165996" lon="9.5415015"><ele>419.99999999999994</ele><time>2026-04-16T10:33:19.813Z</time></trkpt><trkpt lat="44.9165308" lon="9.5415203"><ele>421.0</ele><time>2026-04-16T10:33:21.813Z</time></trkpt><trkpt lat="44.9164547" lon="9.5414919"><ele>422.0</ele><time>2026-04-16T10:33:23.813Z</time></trkpt><trkpt lat="44.9163619" lon="9.5414582"><ele>423.0</ele><time>2026-04-16T10:33:25.814Z</time></trkpt><trkpt lat="44.9162496" lon="9.5414189"><ele>423.99999999999994</ele><time>2026-04-16T10:33:27.815Z</time></trkpt><trkpt lat="44.9161857" lon="9.5413992"><ele>425.0</ele><time>2026-04-16T10:33:28.814Z</time></trkpt><trkpt lat="44.9160694" lon="9.5413724"><ele>425.0</ele><time>2026-04-16T10:33:30.814Z</time></trkpt><trkpt lat="44.9159573" lon="9.5413496"><ele>425.0</ele><time>2026-04-16T10:33:32.814Z</time></trkpt><trkpt lat="44.9158956" lon="9.5413319"><ele>425.0</ele><time>2026-04-16T10:33:33.814Z</time></trkpt><trkpt lat="44.9157728" lon="9.5413212"><ele>425.0</ele><time>2026-04-16T10:33:35.814Z</time></trkpt><trkpt lat="44.9156553" lon="9.5412894"><ele>425.0</ele><time>2026-04-16T10:33:37.814Z</time></trkpt><trkpt lat="44.9155463" lon="9.541259"><ele>427.2</ele><time>2026-04-16T10:33:39.813Z</time></trkpt><trkpt lat="44.9154293" lon="9.5412304"><ele>429.4</ele><time>2026-04-16T10:33:41.813Z</time></trkpt><trkpt lat="44.915319" lon="9.5411975"><ele>431.6</ele><time>2026-04-16T10:33:43.814Z</time></trkpt><trkpt lat="44.9152277" lon="9.5411711"><ele>433.8</ele><time>2026-04-16T10:33:45.814Z</time></trkpt><trkpt lat="44.9151521" lon="9.5411464"><ele>436.0</ele><time>2026-04-16T10:33:47.813Z</time></trkpt><trkpt lat="44.9150755" lon="9.5411344"><ele>437.83333333333337</ele><time>2026-04-16T10:34:13.814Z</time></trkpt><trkpt lat="44.9150086" lon="9.5411055"><ele>439.6666666666667</ele><time>2026-04-16T10:34:15.814Z</time></trkpt><trkpt lat="44.9149053" lon="9.541063"><ele>441.5</ele><time>2026-04-16T10:34:17.813Z</time></trkpt><trkpt lat="44.9147881" lon="9.5410334"><ele>443.33333333333337</ele><time>2026-04-16T10:34:19.813Z</time></trkpt><trkpt lat="44.9147229" lon="9.5410231"><ele>445.1666666666667</ele><time>2026-04-16T10:34:20.814Z</time></trkpt><trkpt lat="44.9146593" lon="9.541021"><ele>447.0</ele><time>2026-04-16T10:34:21.814Z</time></trkpt><trkpt lat="44.9145438" lon="9.5410237"><ele>447.0</ele><time>2026-04-16T10:34:23.814Z</time></trkpt><trkpt lat="44.914425" lon="9.5410623"><ele>447.00000000000006</ele><time>2026-04-16T10:34:25.813Z</time></trkpt><trkpt lat="44.9143511" lon="9.5410826"><ele>447.00000000000006</ele><time>2026-04-16T10:34:27.814Z</time></trkpt><trkpt lat="44.914287" lon="9.5411034"><ele>447.0</ele><time>2026-04-16T10:34:45.814Z</time></trkpt><trkpt lat="44.9141876" lon="9.5411096"><ele>447.0</ele><time>2026-04-16T10:34:47.814Z</time></trkpt><trkpt lat="44.9140726" lon="9.5411291"><ele>448.5</ele><time>2026-04-16T10:34:49.814Z</time></trkpt><trkpt lat="44.9139554" lon="9.5411526"><ele>450.0</ele><time>2026-04-16T10:34:51.813Z</time></trkpt><trkpt lat="44.9138483" lon="9.5411736"><ele>451.5</ele><time>2026-04-16T10:34:53.813Z</time></trkpt><trkpt lat="44.9137763" lon="9.5411736"><ele>453.0</ele><time>2026-04-16T10:34:55.813Z</time></trkpt><trkpt lat="44.9137176" lon="9.5411383"><ele>454.5</ele><time>2026-04-16T10:35:05.812Z</time></trkpt><trkpt lat="44.9137898" lon="9.5411775"><ele>456.0</ele><time>2026-04-16T10:35:28.812Z</time></trkpt><trkpt lat="44.9138794" lon="9.5411752"><ele>456.0</ele><time>2026-04-16T10:35:31.812Z</time></trkpt><trkpt lat="44.9139424" lon="9.5411613"><ele>456.0</ele><time>2026-04-16T10:35:33.812Z</time></trkpt><trkpt lat="44.9140277" lon="9.5411501"><ele>456.0</ele><time>2026-04-16T10:35:36.813Z</time></trkpt><trkpt lat="44.9141153" lon="9.5411413"><ele>456.0</ele><time>2026-04-16T10:35:39.813Z</time></trkpt><trkpt lat="44.9141997" lon="9.541126"><ele>456.0</ele><time>2026-04-16T10:35:42.813Z</time></trkpt><trkpt lat="44.9142744" lon="9.5411159"><ele>456.0</ele><time>2026-04-16T10:35:45.812Z</time></trkpt><trkpt lat="44.9142403" lon="9.5412063"><ele>456.0</ele><time>2026-04-16T10:35:58.812Z</time></trkpt><trkpt lat="44.9141803" lon="9.541285"><ele>456.0</ele><time>2026-04-16T10:36:00.813Z</time></trkpt><trkpt lat="44.914133" lon="9.5413844"><ele>456.0</ele><time>2026-04-16T10:36:02.813Z</time></trkpt><trkpt lat="44.9140818" lon="9.5414874"><ele>456.0</ele><time>2026-04-16T10:36:04.812Z</time></trkpt><trkpt lat="44.9140323" lon="9.5416054"><ele>456.0</ele><time>2026-04-16T10:36:06.813Z</time></trkpt><trkpt lat="44.9139944" lon="9.5417012"><ele>456.0</ele><time>2026-04-16T10:36:08.812Z</time></trkpt><trkpt lat="44.9139663" lon="9.5417874"><ele>456.0</ele><time>2026-04-16T10:36:10.813Z</time></trkpt><trkpt lat="44.9139357" lon="9.5418801"><ele>456.0</ele><time>2026-04-16T10:36:12.812Z</time></trkpt><trkpt lat="44.913905" lon="9.5419978"><ele>456.0</ele><time>2026-04-16T10:36:16.813Z</time></trkpt><trkpt lat="44.9138862" lon="9.5421148"><ele>456.0</ele><time>2026-04-16T10:36:18.813Z</time></trkpt><trkpt lat="44.9138762" lon="9.5422209"><ele>456.0</ele><time>2026-04-16T10:36:20.813Z</time></trkpt><trkpt lat="44.913871" lon="9.5423409"><ele>456.0</ele><time>2026-04-16T10:36:23.813Z</time></trkpt><trkpt lat="44.9138683" lon="9.5424468"><ele>455.6666666666667</ele><time>2026-04-16T10:36:26.813Z</time></trkpt><trkpt lat="44.9138647" lon="9.5425362"><ele>455.33333333333337</ele><time>2026-04-16T10:36:29.813Z</time></trkpt><trkpt lat="44.9138729" lon="9.5426738"><ele>455.0</ele><time>2026-04-16T10:36:32.812Z</time></trkpt><trkpt lat="44.9138929" lon="9.5427892"><ele>454.6666666666667</ele><time>2026-04-16T10:36:34.812Z</time></trkpt><trkpt lat="44.9139176" lon="9.542905"><ele>454.33333333333337</ele><time>2026-04-16T10:36:36.813Z</time></trkpt><trkpt lat="44.9139448" lon="9.5430233"><ele>454.0</ele><time>2026-04-16T10:36:38.813Z</time></trkpt><trkpt lat="44.9139662" lon="9.543146"><ele>454.00000000000006</ele><time>2026-04-16T10:36:40.813Z</time></trkpt><trkpt lat="44.9139919" lon="9.5432617"><ele>454.0</ele><time>2026-04-16T10:36:42.814Z</time></trkpt><trkpt lat="44.9140194" lon="9.5433774"><ele>454.0</ele><time>2026-04-16T10:36:44.812Z</time></trkpt><trkpt lat="44.9140516" lon="9.5434985"><ele>454.0</ele><time>2026-04-16T10:36:46.813Z</time></trkpt><trkpt lat="44.9140721" lon="9.5436085"><ele>454.00000000000006</ele><time>2026-04-16T10:36:48.813Z</time></trkpt><trkpt lat="44.9140764" lon="9.5437051"><ele>454.0</ele><time>2026-04-16T10:36:50.812Z</time></trkpt><trkpt lat="44.9140559" lon="9.5438238"><ele>454.1666666666667</ele><time>2026-04-16T10:36:53.812Z</time></trkpt><trkpt lat="44.9140196" lon="9.5439414"><ele>454.33333333333337</ele><time>2026-04-16T10:36:56.813Z</time></trkpt><trkpt lat="44.9139971" lon="9.5440271"><ele>454.5</ele><time>2026-04-16T10:36:58.813Z</time></trkpt><trkpt lat="44.9139784" lon="9.5441363"><ele>454.66666666666663</ele><time>2026-04-16T10:37:00.812Z</time></trkpt><trkpt lat="44.9139698" lon="9.5442582"><ele>454.8333333333333</ele><time>2026-04-16T10:37:02.813Z</time></trkpt><trkpt lat="44.9139725" lon="9.5443583"><ele>455.0</ele><time>2026-04-16T10:37:04.813Z</time></trkpt><trkpt lat="44.9139753" lon="9.5444668"><ele>455.49999999999994</ele><time>2026-04-16T10:37:07.812Z</time></trkpt><trkpt lat="44.9139705" lon="9.5445601"><ele>456.0</ele><time>2026-04-16T10:37:09.812Z</time></trkpt><trkpt lat="44.9139646" lon="9.5446749"><ele>456.5</ele><time>2026-04-16T10:37:11.813Z</time></trkpt><trkpt lat="44.9139619" lon="9.5447995"><ele>457.0</ele><time>2026-04-16T10:37:13.813Z</time></trkpt><trkpt lat="44.9139652" lon="9.5449185"><ele>457.49999999999994</ele><time>2026-04-16T10:37:16.813Z</time></trkpt><trkpt lat="44.9139556" lon="9.5450237"><ele>458.0</ele><time>2026-04-16T10:37:19.813Z</time></trkpt><trkpt lat="44.9139205" lon="9.5451129"><ele>457.99999999999994</ele><time>2026-04-16T10:37:23.814Z</time></trkpt><trkpt lat="44.9138428" lon="9.5451649"><ele>458.0</ele><time>2026-04-16T10:37:26.813Z</time></trkpt><trkpt lat="44.9137814" lon="9.5451959"><ele>458.0</ele><time>2026-04-16T10:37:28.813Z</time></trkpt><trkpt lat="44.9136979" lon="9.54523"><ele>458.0</ele><time>2026-04-16T10:37:31.814Z</time></trkpt><trkpt lat="44.9136368" lon="9.5452568"><ele>457.99999999999994</ele><time>2026-04-16T10:37:33.812Z</time></trkpt><trkpt lat="44.9135498" lon="9.5452999"><ele>458.0</ele><time>2026-04-16T10:37:36.812Z</time></trkpt><trkpt lat="44.9134855" lon="9.5453332"><ele>458.0</ele><time>2026-04-16T10:37:38.812Z</time></trkpt><trkpt lat="44.913417" lon="9.5453668"><ele>458.0</ele><time>2026-04-16T10:37:40.813Z</time></trkpt><trkpt lat="44.9133396" lon="9.5454027"><ele>458.0</ele><time>2026-04-16T10:37:42.812Z</time></trkpt><trkpt lat="44.9132736" lon="9.5454354"><ele>458.0</ele><time>2026-04-16T10:37:44.812Z</time></trkpt><trkpt lat="44.9132095" lon="9.5454669"><ele>458.0</ele><time>2026-04-16T10:37:46.814Z</time></trkpt><trkpt lat="44.9131491" lon="9.5454971"><ele>458.0</ele><time>2026-04-16T10:37:48.813Z</time></trkpt><trkpt lat="44.9130792" lon="9.5455341"><ele>458.0</ele><time>2026-04-16T10:37:50.813Z</time></trkpt><trkpt lat="44.9130211" lon="9.5455687"><ele>457.3333333333333</ele><time>2026-04-16T10:37:52.812Z</time></trkpt><trkpt lat="44.912937" lon="9.5456028"><ele>456.66666666666663</ele><time>2026-04-16T10:37:55.814Z</time></trkpt><trkpt lat="44.9128703" lon="9.5456306"><ele>456.0</ele><time>2026-04-16T10:37:57.812Z</time></trkpt><trkpt lat="44.9128047" lon="9.5456513"><ele>455.33333333333337</ele><time>2026-04-16T10:37:59.814Z</time></trkpt><trkpt lat="44.9127206" lon="9.54568"><ele>454.6666666666667</ele><time>2026-04-16T10:38:01.813Z</time></trkpt><trkpt lat="44.9126274" lon="9.5457303"><ele>454.0</ele><time>2026-04-16T10:38:03.812Z</time></trkpt><trkpt lat="44.9125395" lon="9.5457833"><ele>454.0</ele><time>2026-04-16T10:38:05.812Z</time></trkpt><trkpt lat="44.9124545" lon="9.545829"><ele>454.0</ele><time>2026-04-16T10:38:07.813Z</time></trkpt><trkpt lat="44.9123628" lon="9.5458728"><ele>454.0</ele><time>2026-04-16T10:38:09.812Z</time></trkpt><trkpt lat="44.9122687" lon="9.5459071"><ele>454.0</ele><time>2026-04-16T10:38:11.812Z</time></trkpt><trkpt lat="44.9121736" lon="9.5459354"><ele>454.0</ele><time>2026-04-16T10:38:13.812Z</time></trkpt><trkpt lat="44.9120775" lon="9.5459666"><ele>454.0</ele><time>2026-04-16T10:38:15.812Z</time></trkpt><trkpt lat="44.91198" lon="9.5460005"><ele>454.0</ele><time>2026-04-16T10:38:17.812Z</time></trkpt><trkpt lat="44.9118791" lon="9.5460476"><ele>454.0</ele><time>2026-04-16T10:38:19.812Z</time></trkpt><trkpt lat="44.9117721" lon="9.5460775"><ele>454.0</ele><time>2026-04-16T10:38:21.813Z</time></trkpt><trkpt lat="44.9116679" lon="9.5461024"><ele>454.0</ele><time>2026-04-16T10:38:23.813Z</time></trkpt><trkpt lat="44.9115756" lon="9.5461569"><ele>453.79999999999995</ele><time>2026-04-16T10:38:25.812Z</time></trkpt><trkpt lat="44.911501" lon="9.5462254"><ele>453.59999999999997</ele><time>2026-04-16T10:38:27.813Z</time></trkpt><trkpt lat="44.9114359" lon="9.5462791"><ele>453.4</ele><time>2026-04-16T10:38:45.813Z</time></trkpt><trkpt lat="44.9113394" lon="9.5463641"><ele>453.2</ele><time>2026-04-16T10:38:48.812Z</time></trkpt><trkpt lat="44.9112323" lon="9.5464346"><ele>453.0</ele><time>2026-04-16T10:38:50.813Z</time></trkpt><trkpt lat="44.9111184" lon="9.5465023"><ele>453.0</ele><time>2026-04-16T10:38:52.813Z</time></trkpt><trkpt lat="44.9110185" lon="9.5465695"><ele>452.99999999999994</ele><time>2026-04-16T10:38:54.812Z</time></trkpt><trkpt lat="44.9109303" lon="9.5466324"><ele>452.99999999999994</ele><time>2026-04-16T10:38:56.813Z</time></trkpt><trkpt lat="44.9108543" lon="9.5466818"><ele>453.0</ele><time>2026-04-16T10:38:58.813Z</time></trkpt><trkpt lat="44.9107431" lon="9.5467511"><ele>453.0</ele><time>2026-04-16T10:39:00.812Z</time></trkpt><trkpt lat="44.910675" lon="9.546792"><ele>452.6666666666667</ele><time>2026-04-16T10:39:01.814Z</time></trkpt><trkpt lat="44.9106008" lon="9.5468321"><ele>452.33333333333337</ele><time>2026-04-16T10:39:02.813Z</time></trkpt><trkpt lat="44.9105242" lon="9.5468729"><ele>452.0</ele><time>2026-04-16T10:39:03.812Z</time></trkpt><trkpt lat="44.9104458" lon="9.5469158"><ele>451.6666666666667</ele><time>2026-04-16T10:39:04.813Z</time></trkpt><trkpt lat="44.9103652" lon="9.5469588"><ele>451.33333333333337</ele><time>2026-04-16T10:39:05.813Z</time></trkpt><trkpt lat="44.9102826" lon="9.5470032"><ele>451.0</ele><time>2026-04-16T10:39:06.813Z</time></trkpt><trkpt lat="44.9102011" lon="9.5470482"><ele>451.00000000000006</ele><time>2026-04-16T10:39:07.812Z</time></trkpt><trkpt lat="44.9101192" lon="9.5470918"><ele>451.0</ele><time>2026-04-16T10:39:08.813Z</time></trkpt><trkpt lat="44.9100385" lon="9.5471375"><ele>451.0</ele><time>2026-04-16T10:39:09.812Z</time></trkpt><trkpt lat="44.9099572" lon="9.5471832"><ele>451.0</ele><time>2026-04-16T10:39:10.813Z</time></trkpt><trkpt lat="44.9098745" lon="9.5472356"><ele>451.00000000000006</ele><time>2026-04-16T10:39:11.812Z</time></trkpt><trkpt lat="44.9097933" lon="9.5472881"><ele>451.0</ele><time>2026-04-16T10:39:12.813Z</time></trkpt><trkpt lat="44.9097116" lon="9.5473412"><ele>451.50000000000006</ele><time>2026-04-16T10:39:13.812Z</time></trkpt><trkpt lat="44.9096325" lon="9.5473965"><ele>452.0</ele><time>2026-04-16T10:39:14.812Z</time></trkpt><trkpt lat="44.9095613" lon="9.5474518"><ele>452.5</ele><time>2026-04-16T10:39:15.812Z</time></trkpt><trkpt lat="44.9094964" lon="9.54751"><ele>453.0</ele><time>2026-04-16T10:39:16.813Z</time></trkpt><trkpt lat="44.9094322" lon="9.5475806"><ele>453.50000000000006</ele><time>2026-04-16T10:39:17.814Z</time></trkpt><trkpt lat="44.9093717" lon="9.5476598"><ele>454.0</ele><time>2026-04-16T10:39:18.813Z</time></trkpt><trkpt lat="44.9093105" lon="9.5477413"><ele>454.0</ele><time>2026-04-16T10:39:19.814Z</time></trkpt><trkpt lat="44.9092556" lon="9.5478235"><ele>454.00000000000006</ele><time>2026-04-16T10:39:20.813Z</time></trkpt><trkpt lat="44.9092051" lon="9.5479044"><ele>454.0</ele><time>2026-04-16T10:39:21.813Z</time></trkpt><trkpt lat="44.9091574" lon="9.5479892"><ele>454.0</ele><time>2026-04-16T10:39:22.813Z</time></trkpt><trkpt lat="44.9091262" lon="9.5480819"><ele>454.00000000000006</ele><time>2026-04-16T10:39:23.813Z</time></trkpt><trkpt lat="44.909106" lon="9.5481784"><ele>454.0</ele><time>2026-04-16T10:39:24.813Z</time></trkpt><trkpt lat="44.9090964" lon="9.5482786"><ele>454.0</ele><time>2026-04-16T10:39:25.813Z</time></trkpt><trkpt lat="44.9090853" lon="9.5483744"><ele>453.8571428571429</ele><time>2026-04-16T10:39:26.813Z</time></trkpt><trkpt lat="44.9090634" lon="9.548467"><ele>453.7142857142858</ele><time>2026-04-16T10:39:27.812Z</time></trkpt><trkpt lat="44.90903" lon="9.5485653"><ele>453.57142857142856</ele><time>2026-04-16T10:39:28.813Z</time></trkpt><trkpt lat="44.9089995" lon="9.5486581"><ele>453.42857142857144</ele><time>2026-04-16T10:39:29.812Z</time></trkpt><trkpt lat="44.9089674" lon="9.5487442"><ele>453.2857142857143</ele><time>2026-04-16T10:39:30.813Z</time></trkpt><trkpt lat="44.9089324" lon="9.5488252"><ele>453.1428571428571</ele><time>2026-04-16T10:39:31.813Z</time></trkpt><trkpt lat="44.9088996" lon="9.5489033"><ele>452.99999999999994</ele><time>2026-04-16T10:39:32.813Z</time></trkpt><trkpt lat="44.9088689" lon="9.5489907"><ele>452.99999999999994</ele><time>2026-04-16T10:39:33.813Z</time></trkpt><trkpt lat="44.90884" lon="9.5490819"><ele>453.0</ele><time>2026-04-16T10:39:34.812Z</time></trkpt><trkpt lat="44.9088113" lon="9.5491798"><ele>452.99999999999994</ele><time>2026-04-16T10:39:35.812Z</time></trkpt><trkpt lat="44.9087789" lon="9.5492745"><ele>452.99999999999994</ele><time>2026-04-16T10:39:36.812Z</time></trkpt><trkpt lat="44.9087389" lon="9.5493647"><ele>453.0</ele><time>2026-04-16T10:39:37.812Z</time></trkpt><trkpt lat="44.9086997" lon="9.5494494"><ele>452.99999999999994</ele><time>2026-04-16T10:39:38.813Z</time></trkpt><trkpt lat="44.9086552" lon="9.5495355"><ele>452.99999999999994</ele><time>2026-04-16T10:39:39.813Z</time></trkpt><trkpt lat="44.9086121" lon="9.5496261"><ele>451.1666666666667</ele><time>2026-04-16T10:39:40.812Z</time></trkpt><trkpt lat="44.9085726" lon="9.5497223"><ele>449.33333333333337</ele><time>2026-04-16T10:39:41.813Z</time></trkpt><trkpt lat="44.9085302" lon="9.5498189"><ele>447.5</ele><time>2026-04-16T10:39:42.813Z</time></trkpt><trkpt lat="44.9084884" lon="9.5499125"><ele>445.6666666666667</ele><time>2026-04-16T10:39:43.812Z</time></trkpt><trkpt lat="44.9084471" lon="9.5499961"><ele>443.83333333333337</ele><time>2026-04-16T10:39:44.812Z</time></trkpt><trkpt lat="44.9084102" lon="9.5500753"><ele>442.0</ele><time>2026-04-16T10:39:45.813Z</time></trkpt><trkpt lat="44.9083491" lon="9.5502277"><ele>444.33333333333337</ele><time>2026-04-16T10:39:47.812Z</time></trkpt><trkpt lat="44.9082861" lon="9.5503845"><ele>446.6666666666667</ele><time>2026-04-16T10:39:49.812Z</time></trkpt><trkpt lat="44.9082505" lon="9.5504703"><ele>449.0</ele><time>2026-04-16T10:39:50.813Z</time></trkpt><trkpt lat="44.9082194" lon="9.550567"><ele>451.33333333333337</ele><time>2026-04-16T10:39:51.813Z</time></trkpt><trkpt lat="44.9081931" lon="9.5506696"><ele>453.6666666666667</ele><time>2026-04-16T10:39:52.813Z</time></trkpt><trkpt lat="44.9081842" lon="9.5507779"><ele>456.0</ele><time>2026-04-16T10:39:53.812Z</time></trkpt><trkpt lat="44.9081801" lon="9.550893"><ele>456.0</ele><time>2026-04-16T10:39:54.813Z</time></trkpt><trkpt lat="44.908172" lon="9.5510133"><ele>456.0</ele><time>2026-04-16T10:39:55.813Z</time></trkpt><trkpt lat="44.9081599" lon="9.5511404"><ele>456.0</ele><time>2026-04-16T10:39:56.813Z</time></trkpt><trkpt lat="44.908138" lon="9.5512698"><ele>456.0</ele><time>2026-04-16T10:39:57.813Z</time></trkpt><trkpt lat="44.9081118" lon="9.5514007"><ele>456.0</ele><time>2026-04-16T10:39:58.812Z</time></trkpt><trkpt lat="44.9080827" lon="9.551534"><ele>455.0</ele><time>2026-04-16T10:39:59.814Z</time></trkpt><trkpt lat="44.9080554" lon="9.5516565"><ele>454.0</ele><time>2026-04-16T10:40:00.812Z</time></trkpt><trkpt lat="44.9080265" lon="9.5517695"><ele>453.0</ele><time>2026-04-16T10:40:01.812Z</time></trkpt><trkpt lat="44.9079942" lon="9.5518728"><ele>452.0</ele><time>2026-04-16T10:40:02.812Z</time></trkpt><trkpt lat="44.9079562" lon="9.5519606"><ele>451.0</ele><time>2026-04-16T10:40:03.813Z</time></trkpt><trkpt lat="44.9079111" lon="9.5520283"><ele>450.0</ele><time>2026-04-16T10:40:04.813Z</time></trkpt><trkpt lat="44.9078069" lon="9.5521104"><ele>449.0</ele><time>2026-04-16T10:40:06.813Z</time></trkpt><trkpt lat="44.9076846" lon="9.5521722"><ele>448.0</ele><time>2026-04-16T10:40:08.812Z</time></trkpt><trkpt lat="44.9076231" lon="9.55221"><ele>447.0</ele><time>2026-04-16T10:40:09.813Z</time></trkpt><trkpt lat="44.907513" lon="9.5522772"><ele>446.0</ele><time>2026-04-16T10:40:11.813Z</time></trkpt><trkpt lat="44.907418" lon="9.5523774"><ele>445.0</ele><time>2026-04-16T10:40:13.812Z</time></trkpt><trkpt lat="44.9073329" lon="9.5525071"><ele>445.14285714285717</ele><time>2026-04-16T10:40:15.813Z</time></trkpt><trkpt lat="44.9072833" lon="9.5525687"><ele>445.2857142857143</ele><time>2026-04-16T10:40:16.813Z</time></trkpt><trkpt lat="44.9072308" lon="9.5526314"><ele>445.42857142857144</ele><time>2026-04-16T10:40:17.813Z</time></trkpt><trkpt lat="44.9071684" lon="9.5526847"><ele>445.57142857142856</ele><time>2026-04-16T10:40:18.813Z</time></trkpt><trkpt lat="44.9070972" lon="9.5527259"><ele>445.71428571428567</ele><time>2026-04-16T10:40:19.813Z</time></trkpt><trkpt lat="44.9070275" lon="9.5527719"><ele>445.85714285714283</ele><time>2026-04-16T10:40:20.814Z</time></trkpt><trkpt lat="44.9069623" lon="9.5528251"><ele>446.0</ele><time>2026-04-16T10:40:21.813Z</time></trkpt><trkpt lat="44.906903" lon="9.5528931"><ele>445.99999999999994</ele><time>2026-04-16T10:40:22.812Z</time></trkpt><trkpt lat="44.9068502" lon="9.5529747"><ele>446.0</ele><time>2026-04-16T10:40:23.813Z</time></trkpt><trkpt lat="44.9067993" lon="9.5530566"><ele>446.0</ele><time>2026-04-16T10:40:24.812Z</time></trkpt><trkpt lat="44.9067391" lon="9.5531288"><ele>446.0</ele><time>2026-04-16T10:40:25.813Z</time></trkpt><trkpt lat="44.9066711" lon="9.5531861"><ele>445.99999999999994</ele><time>2026-04-16T10:40:26.814Z</time></trkpt><trkpt lat="44.9066011" lon="9.5532425"><ele>446.0</ele><time>2026-04-16T10:40:27.813Z</time></trkpt><trkpt lat="44.9065265" lon="9.5532995"><ele>446.99999999999994</ele><time>2026-04-16T10:40:28.813Z</time></trkpt><trkpt lat="44.90645" lon="9.5533551"><ele>448.0</ele><time>2026-04-16T10:40:29.812Z</time></trkpt><trkpt lat="44.9063724" lon="9.5534103"><ele>449.0</ele><time>2026-04-16T10:40:30.813Z</time></trkpt><trkpt lat="44.9062915" lon="9.5534527"><ele>450.0</ele><time>2026-04-16T10:40:31.813Z</time></trkpt><trkpt lat="44.9062093" lon="9.5534857"><ele>450.99999999999994</ele><time>2026-04-16T10:40:32.812Z</time></trkpt><trkpt lat="44.906131" lon="9.5535111"><ele>452.0</ele><time>2026-04-16T10:40:33.813Z</time></trkpt><trkpt lat="44.9060586" lon="9.553534"><ele>452.0</ele><time>2026-04-16T10:40:34.813Z</time></trkpt><trkpt lat="44.9059964" lon="9.5535564"><ele>452.00000000000006</ele><time>2026-04-16T10:40:35.813Z</time></trkpt><trkpt lat="44.9058953" lon="9.5535976"><ele>452.00000000000006</ele><time>2026-04-16T10:40:37.813Z</time></trkpt><trkpt lat="44.9058009" lon="9.5536254"><ele>452.0</ele><time>2026-04-16T10:40:39.813Z</time></trkpt><trkpt lat="44.9056805" lon="9.5536044"><ele>452.0</ele><time>2026-04-16T10:40:41.813Z</time></trkpt><trkpt lat="44.905609" lon="9.5535738"><ele>451.6</ele><time>2026-04-16T10:40:42.812Z</time></trkpt><trkpt lat="44.9055284" lon="9.5535478"><ele>451.20000000000005</ele><time>2026-04-16T10:40:43.812Z</time></trkpt><trkpt lat="44.9054406" lon="9.5535197"><ele>450.8</ele><time>2026-04-16T10:40:44.812Z</time></trkpt><trkpt lat="44.9053466" lon="9.5534927"><ele>450.4</ele><time>2026-04-16T10:40:45.813Z</time></trkpt><trkpt lat="44.9052485" lon="9.5534766"><ele>450.0</ele><time>2026-04-16T10:40:46.813Z</time></trkpt><trkpt lat="44.9051544" lon="9.5535001"><ele>450.0</ele><time>2026-04-16T10:40:47.812Z</time></trkpt><trkpt lat="44.9050812" lon="9.5535484"><ele>450.0</ele><time>2026-04-16T10:40:48.813Z</time></trkpt><trkpt lat="44.9050191" lon="9.553624"><ele>450.0</ele><time>2026-04-16T10:40:49.814Z</time></trkpt><trkpt lat="44.9049635" lon="9.5537268"><ele>450.0</ele><time>2026-04-16T10:40:50.813Z</time></trkpt><trkpt lat="44.9049042" lon="9.5538359"><ele>450.0</ele><time>2026-04-16T10:40:51.813Z</time></trkpt><trkpt lat="44.9048364" lon="9.5539399"><ele>449.5</ele><time>2026-04-16T10:40:52.812Z</time></trkpt><trkpt lat="44.9047566" lon="9.554042"><ele>449.0</ele><time>2026-04-16T10:40:53.812Z</time></trkpt><trkpt lat="44.9046682" lon="9.5541472"><ele>448.5</ele><time>2026-04-16T10:40:54.813Z</time></trkpt><trkpt lat="44.9045772" lon="9.5542508"><ele>448.0</ele><time>2026-04-16T10:40:55.812Z</time></trkpt><trkpt lat="44.9044866" lon="9.5543519"><ele>448.0</ele><time>2026-04-16T10:40:56.813Z</time></trkpt><trkpt lat="44.9044003" lon="9.5544408"><ele>447.99999999999994</ele><time>2026-04-16T10:40:57.814Z</time></trkpt><trkpt lat="44.9043159" lon="9.5545244"><ele>447.99999999999994</ele><time>2026-04-16T10:40:58.813Z</time></trkpt><trkpt lat="44.9042426" lon="9.5545941"><ele>448.0</ele><time>2026-04-16T10:40:59.813Z</time></trkpt><trkpt lat="44.9041724" lon="9.5546641"><ele>448.0</ele><time>2026-04-16T10:41:00.813Z</time></trkpt><trkpt lat="44.9040956" lon="9.5547201"><ele>449.83333333333337</ele><time>2026-04-16T10:41:01.812Z</time></trkpt><trkpt lat="44.9040182" lon="9.5547563"><ele>451.6666666666667</ele><time>2026-04-16T10:41:02.813Z</time></trkpt><trkpt lat="44.9039349" lon="9.5547744"><ele>453.5</ele><time>2026-04-16T10:41:03.813Z</time></trkpt><trkpt lat="44.9038546" lon="9.5547898"><ele>455.33333333333337</ele><time>2026-04-16T10:41:04.813Z</time></trkpt><trkpt lat="44.9037787" lon="9.5547946"><ele>457.1666666666667</ele><time>2026-04-16T10:41:05.813Z</time></trkpt><trkpt lat="44.9037114" lon="9.5547961"><ele>459.0</ele><time>2026-04-16T10:41:06.813Z</time></trkpt><trkpt lat="44.9036212" lon="9.5547841"><ele>459.0</ele><time>2026-04-16T10:41:08.813Z</time></trkpt><trkpt lat="44.9035827" lon="9.554647"><ele>459.0</ele><time>2026-04-16T10:41:11.813Z</time></trkpt><trkpt lat="44.9035842" lon="9.5544682"><ele>459.0</ele><time>2026-04-16T10:41:13.812Z</time></trkpt><trkpt lat="44.9035342" lon="9.5543108"><ele>459.0</ele><time>2026-04-16T10:41:15.811Z</time></trkpt><trkpt lat="44.9034869" lon="9.5542401"><ele>459.0</ele><time>2026-04-16T10:41:16.812Z</time></trkpt><trkpt lat="44.9034255" lon="9.554174"><ele>460.5</ele><time>2026-04-16T10:41:17.813Z</time></trkpt><trkpt lat="44.9033518" lon="9.5541067"><ele>462.0</ele><time>2026-04-16T10:41:18.812Z</time></trkpt><trkpt lat="44.9032768" lon="9.5540373"><ele>463.5</ele><time>2026-04-16T10:41:19.812Z</time></trkpt><trkpt lat="44.9032016" lon="9.5539672"><ele>465.0</ele><time>2026-04-16T10:41:20.812Z</time></trkpt><trkpt lat="44.9031347" lon="9.5538912"><ele>466.5</ele><time>2026-04-16T10:41:21.811Z</time></trkpt><trkpt lat="44.9030708" lon="9.5538142"><ele>468.0</ele><time>2026-04-16T10:41:22.811Z</time></trkpt><trkpt lat="44.9030186" lon="9.5537336"><ele>470.0</ele><time>2026-04-16T10:41:23.812Z</time></trkpt><trkpt lat="44.9029759" lon="9.5536384"><ele>472.0</ele><time>2026-04-16T10:41:24.811Z</time></trkpt><trkpt lat="44.9029386" lon="9.5535313"><ele>474.0</ele><time>2026-04-16T10:41:25.812Z</time></trkpt><trkpt lat="44.9029016" lon="9.5534186"><ele>476.0</ele><time>2026-04-16T10:41:26.812Z</time></trkpt><trkpt lat="44.9028599" lon="9.5533002"><ele>478.0</ele><time>2026-04-16T10:41:27.812Z</time></trkpt><trkpt lat="44.9028163" lon="9.5531833"><ele>480.0</ele><time>2026-04-16T10:41:28.813Z</time></trkpt><trkpt lat="44.9027763" lon="9.5530572"><ele>480.0</ele><time>2026-04-16T10:41:29.813Z</time></trkpt><trkpt lat="44.9027355" lon="9.5529288"><ele>480.0</ele><time>2026-04-16T10:41:30.811Z</time></trkpt><trkpt lat="44.9026975" lon="9.5527949"><ele>480.0</ele><time>2026-04-16T10:41:31.811Z</time></trkpt><trkpt lat="44.9026617" lon="9.5526594"><ele>480.0</ele><time>2026-04-16T10:41:32.812Z</time></trkpt><trkpt lat="44.9026279" lon="9.552527"><ele>480.0</ele><time>2026-04-16T10:41:33.812Z</time></trkpt><trkpt lat="44.9025898" lon="9.5524047"><ele>479.2</ele><time>2026-04-16T10:41:34.811Z</time></trkpt><trkpt lat="44.9025468" lon="9.5522835"><ele>478.4</ele><time>2026-04-16T10:41:35.812Z</time></trkpt><trkpt lat="44.9024929" lon="9.5521596"><ele>477.6</ele><time>2026-04-16T10:41:36.812Z</time></trkpt><trkpt lat="44.9024306" lon="9.5520241"><ele>476.8</ele><time>2026-04-16T10:41:37.813Z</time></trkpt><trkpt lat="44.9023608" lon="9.5518801"><ele>476.0</ele><time>2026-04-16T10:41:38.812Z</time></trkpt><trkpt lat="44.902288" lon="9.5517303"><ele>478.0</ele><time>2026-04-16T10:41:39.811Z</time></trkpt><trkpt lat="44.9022121" lon="9.5515787"><ele>480.0</ele><time>2026-04-16T10:41:40.813Z</time></trkpt><trkpt lat="44.9021324" lon="9.5514313"><ele>482.0</ele><time>2026-04-16T10:41:41.812Z</time></trkpt><trkpt lat="44.9020502" lon="9.5512907"><ele>484.0</ele><time>2026-04-16T10:41:42.813Z</time></trkpt><trkpt lat="44.9019608" lon="9.5511546"><ele>483.5</ele><time>2026-04-16T10:41:43.811Z</time></trkpt><trkpt lat="44.9018669" lon="9.5510186"><ele>483.0</ele><time>2026-04-16T10:41:44.812Z</time></trkpt><trkpt lat="44.9017778" lon="9.5508822"><ele>482.5</ele><time>2026-04-16T10:41:45.812Z</time></trkpt><trkpt lat="44.9016895" lon="9.5507422"><ele>482.0</ele><time>2026-04-16T10:41:46.811Z</time></trkpt><trkpt lat="44.9016039" lon="9.5505912"><ele>482.0</ele><time>2026-04-16T10:41:47.812Z</time></trkpt><trkpt lat="44.9015155" lon="9.5504445"><ele>482.0</ele><time>2026-04-16T10:41:48.811Z</time></trkpt><trkpt lat="44.901433" lon="9.5503066"><ele>482.0</ele><time>2026-04-16T10:41:49.812Z</time></trkpt><trkpt lat="44.9013513" lon="9.5501725"><ele>482.0</ele><time>2026-04-16T10:41:50.811Z</time></trkpt><trkpt lat="44.901268" lon="9.5500448"><ele>483.40000000000003</ele><time>2026-04-16T10:41:51.812Z</time></trkpt><trkpt lat="44.901187" lon="9.5499208"><ele>484.80000000000007</ele><time>2026-04-16T10:41:52.811Z</time></trkpt><trkpt lat="44.901119" lon="9.5498045"><ele>486.2</ele><time>2026-04-16T10:41:53.812Z</time></trkpt><trkpt lat="44.9010629" lon="9.5496998"><ele>487.6</ele><time>2026-04-16T10:41:54.812Z</time></trkpt><trkpt lat="44.9010212" lon="9.5496046"><ele>489.0</ele><time>2026-04-16T10:41:55.811Z</time></trkpt><trkpt lat="44.9010013" lon="9.5495183"><ele>490.6</ele><time>2026-04-16T10:41:56.811Z</time></trkpt><trkpt lat="44.9010172" lon="9.5493856"><ele>492.2</ele><time>2026-04-16T10:41:58.812Z</time></trkpt><trkpt lat="44.9010494" lon="9.5492843"><ele>493.80000000000007</ele><time>2026-04-16T10:42:00.813Z</time></trkpt><trkpt lat="44.9010513" lon="9.5491488"><ele>495.40000000000003</ele><time>2026-04-16T10:42:03.812Z</time></trkpt><trkpt lat="44.9010443" lon="9.549016"><ele>497.0</ele><time>2026-04-16T10:42:05.813Z</time></trkpt><trkpt lat="44.9010564" lon="9.5488559"><ele>496.99999999999994</ele><time>2026-04-16T10:42:07.812Z</time></trkpt><trkpt lat="44.9010618" lon="9.5487648"><ele>497.0</ele><time>2026-04-16T10:42:08.811Z</time></trkpt><trkpt lat="44.901071" lon="9.5486667"><ele>497.0</ele><time>2026-04-16T10:42:09.811Z</time></trkpt><trkpt lat="44.9010815" lon="9.5485608"><ele>497.0</ele><time>2026-04-16T10:42:10.812Z</time></trkpt><trkpt lat="44.9010917" lon="9.5484684"><ele>496.99999999999994</ele><time>2026-04-16T10:42:11.812Z</time></trkpt><trkpt lat="44.9011091" lon="9.5483097"><ele>497.0</ele><time>2026-04-16T10:42:13.811Z</time></trkpt><trkpt lat="44.9011198" lon="9.5481783"><ele>496.99999999999994</ele><time>2026-04-16T10:42:15.812Z</time></trkpt><trkpt lat="44.9011328" lon="9.5480599"><ele>497.0</ele><time>2026-04-16T10:42:17.811Z</time></trkpt><trkpt lat="44.9011438" lon="9.5479541"><ele>497.0</ele><time>2026-04-16T10:42:19.812Z</time></trkpt><trkpt lat="44.9011603" lon="9.5478528"><ele>497.0</ele><time>2026-04-16T10:42:21.812Z</time></trkpt><trkpt lat="44.9011868" lon="9.5477573"><ele>496.99999999999994</ele><time>2026-04-16T10:42:23.812Z</time></trkpt><trkpt lat="44.9012294" lon="9.5476562"><ele>497.0</ele><time>2026-04-16T10:42:26.812Z</time></trkpt><trkpt lat="44.9012523" lon="9.5475666"><ele>495.66666666666663</ele><time>2026-04-16T10:42:44.812Z</time></trkpt><trkpt lat="44.9012884" lon="9.5474191"><ele>494.3333333333333</ele><time>2026-04-16T10:42:47.812Z</time></trkpt><trkpt lat="44.9012938" lon="9.5473185"><ele>493.0</ele><time>2026-04-16T10:42:48.812Z</time></trkpt><trkpt lat="44.9012939" lon="9.5472195"><ele>491.66666666666663</ele><time>2026-04-16T10:42:49.812Z</time></trkpt><trkpt lat="44.9012968" lon="9.5471117"><ele>490.3333333333333</ele><time>2026-04-16T10:42:50.812Z</time></trkpt><trkpt lat="44.9013003" lon="9.5470064"><ele>489.0</ele><time>2026-04-16T10:42:51.812Z</time></trkpt><trkpt lat="44.9013065" lon="9.5469122"><ele>487.4</ele><time>2026-04-16T10:42:52.811Z</time></trkpt><trkpt lat="44.9013274" lon="9.5467665"><ele>485.79999999999995</ele><time>2026-04-16T10:42:54.812Z</time></trkpt><trkpt lat="44.9013582" lon="9.5466151"><ele>484.20000000000005</ele><time>2026-04-16T10:42:56.812Z</time></trkpt><trkpt lat="44.9013958" lon="9.5464818"><ele>482.6</ele><time>2026-04-16T10:42:58.811Z</time></trkpt><trkpt lat="44.9014233" lon="9.5464011"><ele>481.0</ele><time>2026-04-16T10:42:59.811Z</time></trkpt><trkpt lat="44.9014571" lon="9.5463066"><ele>480.83333333333337</ele><time>2026-04-16T10:43:00.812Z</time></trkpt><trkpt lat="44.901492" lon="9.5462022"><ele>480.6666666666667</ele><time>2026-04-16T10:43:01.811Z</time></trkpt><trkpt lat="44.9015211" lon="9.5461027"><ele>480.5</ele><time>2026-04-16T10:43:02.811Z</time></trkpt><trkpt lat="44.9015425" lon="9.5460186"><ele>480.33333333333337</ele><time>2026-04-16T10:43:03.811Z</time></trkpt><trkpt lat="44.9015711" lon="9.5459129"><ele>480.1666666666667</ele><time>2026-04-16T10:43:05.811Z</time></trkpt><trkpt lat="44.9015217" lon="9.5460268"><ele>480.0</ele><time>2026-04-16T10:43:27.811Z</time></trkpt><trkpt lat="44.9015068" lon="9.5461279"><ele>480.1666666666667</ele><time>2026-04-16T10:43:28.812Z</time></trkpt><trkpt lat="44.9014737" lon="9.5462326"><ele>480.33333333333337</ele><time>2026-04-16T10:43:29.811Z</time></trkpt><trkpt lat="44.901433" lon="9.5463489"><ele>480.5</ele><time>2026-04-16T10:43:30.812Z</time></trkpt><trkpt lat="44.9013898" lon="9.5464669"><ele>480.6666666666667</ele><time>2026-04-16T10:43:31.811Z</time></trkpt><trkpt lat="44.9013523" lon="9.5465879"><ele>480.83333333333337</ele><time>2026-04-16T10:43:32.812Z</time></trkpt><trkpt lat="44.9013232" lon="9.5467041"><ele>481.0</ele><time>2026-04-16T10:43:33.811Z</time></trkpt><trkpt lat="44.9013057" lon="9.5468335"><ele>481.0</ele><time>2026-04-16T10:43:34.812Z</time></trkpt><trkpt lat="44.9012949" lon="9.5469811"><ele>481.0</ele><time>2026-04-16T10:43:35.811Z</time></trkpt><trkpt lat="44.901291" lon="9.5471334"><ele>481.0</ele><time>2026-04-16T10:43:36.812Z</time></trkpt><trkpt lat="44.9012893" lon="9.5472856"><ele>481.0</ele><time>2026-04-16T10:43:37.811Z</time></trkpt><trkpt lat="44.9012759" lon="9.5474292"><ele>481.0</ele><time>2026-04-16T10:43:38.811Z</time></trkpt><trkpt lat="44.9012417" lon="9.5475595"><ele>482.6</ele><time>2026-04-16T10:43:39.812Z</time></trkpt><trkpt lat="44.901194" lon="9.5476885"><ele>484.20000000000005</ele><time>2026-04-16T10:43:40.811Z</time></trkpt><trkpt lat="44.9011517" lon="9.5478184"><ele>485.79999999999995</ele><time>2026-04-16T10:43:41.812Z</time></trkpt><trkpt lat="44.9011288" lon="9.5479538"><ele>487.4</ele><time>2026-04-16T10:43:42.811Z</time></trkpt><trkpt lat="44.9011143" lon="9.5480916"><ele>489.0</ele><time>2026-04-16T10:43:43.811Z</time></trkpt><trkpt lat="44.9011031" lon="9.5482361"><ele>490.6</ele><time>2026-04-16T10:43:44.811Z</time></trkpt><trkpt lat="44.9010887" lon="9.5483935"><ele>492.2</ele><time>2026-04-16T10:43:45.811Z</time></trkpt><trkpt lat="44.901073" lon="9.5485518"><ele>493.80000000000007</ele><time>2026-04-16T10:43:46.812Z</time></trkpt><trkpt lat="44.9010604" lon="9.5487014"><ele>495.40000000000003</ele><time>2026-04-16T10:43:47.812Z</time></trkpt><trkpt lat="44.9010499" lon="9.5488439"><ele>497.0</ele><time>2026-04-16T10:43:48.812Z</time></trkpt><trkpt lat="44.9010414" lon="9.5489649"><ele>496.99999999999994</ele><time>2026-04-16T10:43:49.811Z</time></trkpt><trkpt lat="44.9010345" lon="9.5490729"><ele>497.0</ele><time>2026-04-16T10:43:50.812Z</time></trkpt><trkpt lat="44.9010324" lon="9.5491647"><ele>497.0</ele><time>2026-04-16T10:43:51.813Z</time></trkpt><trkpt lat="44.9010584" lon="9.5493011"><ele>497.0</ele><time>2026-04-16T10:43:53.811Z</time></trkpt><trkpt lat="44.9011153" lon="9.549354"><ele>496.99999999999994</ele><time>2026-04-16T10:43:55.811Z</time></trkpt><trkpt lat="44.9012113" lon="9.5493841"><ele>497.0</ele><time>2026-04-16T10:43:57.812Z</time></trkpt><trkpt lat="44.9012846" lon="9.5493855"><ele>496.99999999999994</ele><time>2026-04-16T10:43:58.811Z</time></trkpt><trkpt lat="44.9013571" lon="9.5493711"><ele>497.0</ele><time>2026-04-16T10:43:59.812Z</time></trkpt><trkpt lat="44.9014279" lon="9.5493337"><ele>497.0</ele><time>2026-04-16T10:44:00.812Z</time></trkpt><trkpt lat="44.901496" lon="9.5492753"><ele>497.0</ele><time>2026-04-16T10:44:01.812Z</time></trkpt><trkpt lat="44.9015646" lon="9.5491942"><ele>496.99999999999994</ele><time>2026-04-16T10:44:02.812Z</time></trkpt><trkpt lat="44.9016315" lon="9.5490965"><ele>497.0</ele><time>2026-04-16T10:44:03.812Z</time></trkpt><trkpt lat="44.9016973" lon="9.5489963"><ele>498.20000000000005</ele><time>2026-04-16T10:44:04.811Z</time></trkpt><trkpt lat="44.9017703" lon="9.5488961"><ele>499.40000000000003</ele><time>2026-04-16T10:44:05.812Z</time></trkpt><trkpt lat="44.9018498" lon="9.548805"><ele>500.59999999999997</ele><time>2026-04-16T10:44:06.812Z</time></trkpt><trkpt lat="44.901936" lon="9.5487234"><ele>501.79999999999995</ele><time>2026-04-16T10:44:07.812Z</time></trkpt><trkpt lat="44.902036" lon="9.548659"><ele>503.0</ele><time>2026-04-16T10:44:08.811Z</time></trkpt><trkpt lat="44.9021474" lon="9.5486099"><ele>503.75</ele><time>2026-04-16T10:44:09.812Z</time></trkpt><trkpt lat="44.9022634" lon="9.5485734"><ele>504.5</ele><time>2026-04-16T10:44:10.812Z</time></trkpt><trkpt lat="44.9023804" lon="9.5485473"><ele>505.25</ele><time>2026-04-16T10:44:11.812Z</time></trkpt><trkpt lat="44.9024966" lon="9.5485351"><ele>506.0</ele><time>2026-04-16T10:44:12.811Z</time></trkpt><trkpt lat="44.9026109" lon="9.5485398"><ele>507.6</ele><time>2026-04-16T10:44:13.812Z</time></trkpt><trkpt lat="44.9027203" lon="9.5485686"><ele>509.20000000000005</ele><time>2026-04-16T10:44:14.812Z</time></trkpt><trkpt lat="44.9028237" lon="9.5486152"><ele>510.79999999999995</ele><time>2026-04-16T10:44:15.813Z</time></trkpt><trkpt lat="44.9029224" lon="9.5486633"><ele>512.4</ele><time>2026-04-16T10:44:16.811Z</time></trkpt><trkpt lat="44.9030148" lon="9.5486722"><ele>514.0</ele><time>2026-04-16T10:44:17.812Z</time></trkpt><trkpt lat="44.9031085" lon="9.5486523"><ele>514.0</ele><time>2026-04-16T10:44:18.811Z</time></trkpt><trkpt lat="44.9032044" lon="9.5486206"><ele>514.0</ele><time>2026-04-16T10:44:19.811Z</time></trkpt><trkpt lat="44.9032975" lon="9.5485854"><ele>514.0</ele><time>2026-04-16T10:44:20.811Z</time></trkpt><trkpt lat="44.9033763" lon="9.5485595"><ele>514.0</ele><time>2026-04-16T10:44:21.812Z</time></trkpt><trkpt lat="44.9034418" lon="9.5485499"><ele>514.0</ele><time>2026-04-16T10:44:22.811Z</time></trkpt><trkpt lat="44.9035147" lon="9.548625"><ele>514.0</ele><time>2026-04-16T10:44:24.812Z</time></trkpt><trkpt lat="44.9035094" lon="9.5487579"><ele>516.8333333333334</ele><time>2026-04-16T10:44:26.812Z</time></trkpt><trkpt lat="44.9034947" lon="9.5488485"><ele>519.6666666666667</ele><time>2026-04-16T10:44:27.813Z</time></trkpt><trkpt lat="44.9035017" lon="9.5489528"><ele>522.5</ele><time>2026-04-16T10:44:28.812Z</time></trkpt><trkpt lat="44.9035344" lon="9.5490448"><ele>525.3333333333334</ele><time>2026-04-16T10:44:29.812Z</time></trkpt><trkpt lat="44.9035895" lon="9.5491158"><ele>528.1666666666666</ele><time>2026-04-16T10:44:30.811Z</time></trkpt><trkpt lat="44.9036596" lon="9.5491837"><ele>531.0</ele><time>2026-04-16T10:44:31.812Z</time></trkpt><trkpt lat="44.903731" lon="9.5492611"><ele>531.0</ele><time>2026-04-16T10:44:32.812Z</time></trkpt><trkpt lat="44.9037993" lon="9.549344"><ele>531.0</ele><time>2026-04-16T10:44:33.813Z</time></trkpt><trkpt lat="44.903865" lon="9.5494176"><ele>531.0</ele><time>2026-04-16T10:44:34.811Z</time></trkpt><trkpt lat="44.9039267" lon="9.549452"><ele>531.0</ele><time>2026-04-16T10:44:35.812Z</time></trkpt><trkpt lat="44.9039995" lon="9.5494655"><ele>531.0</ele><time>2026-04-16T10:44:36.812Z</time></trkpt><trkpt lat="44.9040786" lon="9.54947"><ele>531.0</ele><time>2026-04-16T10:44:37.811Z</time></trkpt><trkpt lat="44.9041538" lon="9.5494997"><ele>530.5</ele><time>2026-04-16T10:44:38.812Z</time></trkpt><trkpt lat="44.904225" lon="9.5495557"><ele>530.0</ele><time>2026-04-16T10:44:39.811Z</time></trkpt><trkpt lat="44.9042942" lon="9.5496283"><ele>529.5</ele><time>2026-04-16T10:44:40.811Z</time></trkpt><trkpt lat="44.904366" lon="9.5496958"><ele>529.0</ele><time>2026-04-16T10:44:41.812Z</time></trkpt><trkpt lat="44.9044416" lon="9.5497499"><ele>528.5</ele><time>2026-04-16T10:44:42.812Z</time></trkpt><trkpt lat="44.9045231" lon="9.5497778"><ele>528.0</ele><time>2026-04-16T10:44:43.812Z</time></trkpt><trkpt lat="44.9045976" lon="9.5497704"><ele>528.0</ele><time>2026-04-16T10:44:44.812Z</time></trkpt><trkpt lat="44.9046609" lon="9.5497276"><ele>528.0</ele><time>2026-04-16T10:44:45.811Z</time></trkpt><trkpt lat="44.9047253" lon="9.5496548"><ele>528.0</ele><time>2026-04-16T10:44:46.811Z</time></trkpt><trkpt lat="44.9047922" lon="9.5495498"><ele>528.0</ele><time>2026-04-16T10:44:47.812Z</time></trkpt><trkpt lat="44.9048558" lon="9.5494416"><ele>528.0</ele><time>2026-04-16T10:44:48.811Z</time></trkpt><trkpt lat="44.9049271" lon="9.5493317"><ele>530.25</ele><time>2026-04-16T10:44:49.812Z</time></trkpt><trkpt lat="44.9050087" lon="9.5492131"><ele>532.5</ele><time>2026-04-16T10:44:50.812Z</time></trkpt><trkpt lat="44.9050881" lon="9.5490947"><ele>534.75</ele><time>2026-04-16T10:44:51.812Z</time></trkpt><trkpt lat="44.9051629" lon="9.5489693"><ele>537.0</ele><time>2026-04-16T10:44:52.812Z</time></trkpt><trkpt lat="44.9052244" lon="9.5488286"><ele>539.25</ele><time>2026-04-16T10:44:53.813Z</time></trkpt><trkpt lat="44.9052773" lon="9.5486797"><ele>541.5</ele><time>2026-04-16T10:44:54.811Z</time></trkpt><trkpt lat="44.9053271" lon="9.5485279"><ele>543.75</ele><time>2026-04-16T10:44:55.812Z</time></trkpt><trkpt lat="44.9053766" lon="9.5483877"><ele>546.0</ele><time>2026-04-16T10:44:56.812Z</time></trkpt><trkpt lat="44.9054285" lon="9.5482619"><ele>546.0</ele><time>2026-04-16T10:44:57.813Z</time></trkpt><trkpt lat="44.9054732" lon="9.5481364"><ele>546.0</ele><time>2026-04-16T10:44:58.813Z</time></trkpt><trkpt lat="44.9054952" lon="9.5480197"><ele>546.0</ele><time>2026-04-16T10:44:59.812Z</time></trkpt><trkpt lat="44.9055029" lon="9.5479083"><ele>546.0</ele><time>2026-04-16T10:45:00.811Z</time></trkpt><trkpt lat="44.9055035" lon="9.54779"><ele>546.0</ele><time>2026-04-16T10:45:01.811Z</time></trkpt><trkpt lat="44.9055046" lon="9.547674"><ele>546.0</ele><time>2026-04-16T10:45:02.812Z</time></trkpt><trkpt lat="44.9055091" lon="9.5475571"><ele>545.8333333333334</ele><time>2026-04-16T10:45:03.812Z</time></trkpt><trkpt lat="44.9055229" lon="9.5474466"><ele>545.6666666666666</ele><time>2026-04-16T10:45:04.812Z</time></trkpt><trkpt lat="44.9055496" lon="9.5473441"><ele>545.5</ele><time>2026-04-16T10:45:05.811Z</time></trkpt><trkpt lat="44.9055851" lon="9.547241"><ele>545.3333333333333</ele><time>2026-04-16T10:45:06.811Z</time></trkpt><trkpt lat="44.9056266" lon="9.5471301"><ele>545.1666666666666</ele><time>2026-04-16T10:45:07.812Z</time></trkpt><trkpt lat="44.9056738" lon="9.5470103"><ele>545.0</ele><time>2026-04-16T10:45:08.812Z</time></trkpt><trkpt lat="44.9057213" lon="9.5468846"><ele>544.4</ele><time>2026-04-16T10:45:09.811Z</time></trkpt><trkpt lat="44.9057615" lon="9.5467581"><ele>543.8</ele><time>2026-04-16T10:45:10.811Z</time></trkpt><trkpt lat="44.9057873" lon="9.5466282"><ele>543.2</ele><time>2026-04-16T10:45:11.812Z</time></trkpt><trkpt lat="44.9057981" lon="9.5464867"><ele>542.6</ele><time>2026-04-16T10:45:12.812Z</time></trkpt><trkpt lat="44.9057983" lon="9.5463346"><ele>542.0</ele><time>2026-04-16T10:45:13.812Z</time></trkpt><trkpt lat="44.9057924" lon="9.5461622"><ele>542.0</ele><time>2026-04-16T10:45:14.812Z</time></trkpt><trkpt lat="44.9057796" lon="9.5459809"><ele>542.0</ele><time>2026-04-16T10:45:15.812Z</time></trkpt><trkpt lat="44.9057623" lon="9.5457978"><ele>542.0</ele><time>2026-04-16T10:45:16.812Z</time></trkpt><trkpt lat="44.9057484" lon="9.5456284"><ele>542.0</ele><time>2026-04-16T10:45:17.812Z</time></trkpt><trkpt lat="44.9057486" lon="9.5454719"><ele>542.8000000000001</ele><time>2026-04-16T10:45:18.812Z</time></trkpt><trkpt lat="44.9057622" lon="9.5453243"><ele>543.6</ele><time>2026-04-16T10:45:19.812Z</time></trkpt><trkpt lat="44.9057875" lon="9.5451795"><ele>544.4000000000001</ele><time>2026-04-16T10:45:20.811Z</time></trkpt><trkpt lat="44.9057998" lon="9.5450286"><ele>545.2</ele><time>2026-04-16T10:45:21.811Z</time></trkpt><trkpt lat="44.9058039" lon="9.5448752"><ele>546.0</ele><time>2026-04-16T10:45:22.812Z</time></trkpt><trkpt lat="44.905806" lon="9.5447231"><ele>546.0</ele><time>2026-04-16T10:45:23.811Z</time></trkpt><trkpt lat="44.9058099" lon="9.5445681"><ele>546.0</ele><time>2026-04-16T10:45:24.811Z</time></trkpt><trkpt lat="44.905821" lon="9.5444304"><ele>546.0</ele><time>2026-04-16T10:45:25.812Z</time></trkpt><trkpt lat="44.9058384" lon="9.5443124"><ele>546.0</ele><time>2026-04-16T10:45:26.812Z</time></trkpt><trkpt lat="44.9058618" lon="9.5442077"><ele>546.0</ele><time>2026-04-16T10:45:27.813Z</time></trkpt><trkpt lat="44.9058974" lon="9.5441124"><ele>546.0</ele><time>2026-04-16T10:45:28.812Z</time></trkpt><trkpt lat="44.9059296" lon="9.5440172"><ele>544.5</ele><time>2026-04-16T10:45:29.812Z</time></trkpt><trkpt lat="44.9059601" lon="9.5439166"><ele>543.0</ele><time>2026-04-16T10:45:30.811Z</time></trkpt><trkpt lat="44.9059875" lon="9.5438209"><ele>541.5</ele><time>2026-04-16T10:45:31.812Z</time></trkpt><trkpt lat="44.9060133" lon="9.5437178"><ele>540.0</ele><time>2026-04-16T10:45:32.812Z</time></trkpt><trkpt lat="44.9060421" lon="9.5436136"><ele>538.5</ele><time>2026-04-16T10:45:33.813Z</time></trkpt><trkpt lat="44.9060692" lon="9.5434984"><ele>537.0</ele><time>2026-04-16T10:45:34.812Z</time></trkpt><trkpt lat="44.9060992" lon="9.5433732"><ele>537.0</ele><time>2026-04-16T10:45:35.811Z</time></trkpt><trkpt lat="44.9061294" lon="9.5432365"><ele>537.0</ele><time>2026-04-16T10:45:36.812Z</time></trkpt><trkpt lat="44.9061651" lon="9.5430975"><ele>537.0</ele><time>2026-04-16T10:45:37.812Z</time></trkpt><trkpt lat="44.9062071" lon="9.5429581"><ele>537.0</ele><time>2026-04-16T10:45:38.812Z</time></trkpt><trkpt lat="44.9062563" lon="9.5428164"><ele>537.0</ele><time>2026-04-16T10:45:39.812Z</time></trkpt><trkpt lat="44.906309" lon="9.5426746"><ele>538.25</ele><time>2026-04-16T10:45:40.812Z</time></trkpt><trkpt lat="44.906359" lon="9.5425299"><ele>539.5</ele><time>2026-04-16T10:45:41.811Z</time></trkpt><trkpt lat="44.9064052" lon="9.5423782"><ele>540.75</ele><time>2026-04-16T10:45:42.812Z</time></trkpt><trkpt lat="44.9064488" lon="9.5422257"><ele>542.0</ele><time>2026-04-16T10:45:43.812Z</time></trkpt><trkpt lat="44.9064915" lon="9.5420828"><ele>542.6</ele><time>2026-04-16T10:45:44.811Z</time></trkpt><trkpt lat="44.9065289" lon="9.5419478"><ele>543.2</ele><time>2026-04-16T10:45:45.811Z</time></trkpt><trkpt lat="44.9065632" lon="9.541812"><ele>543.8</ele><time>2026-04-16T10:45:46.811Z</time></trkpt><trkpt lat="44.9066016" lon="9.5416768"><ele>544.4</ele><time>2026-04-16T10:45:47.812Z</time></trkpt><trkpt lat="44.9066449" lon="9.5415481"><ele>545.0</ele><time>2026-04-16T10:45:48.812Z</time></trkpt><trkpt lat="44.90668" lon="9.5414289"><ele>545.0</ele><time>2026-04-16T10:45:49.811Z</time></trkpt><trkpt lat="44.9066959" lon="9.5413087"><ele>545.0</ele><time>2026-04-16T10:45:50.811Z</time></trkpt><trkpt lat="44.9066953" lon="9.5411767"><ele>545.0</ele><time>2026-04-16T10:45:51.812Z</time></trkpt><trkpt lat="44.9066802" lon="9.5410299"><ele>545.0</ele><time>2026-04-16T10:45:52.811Z</time></trkpt><trkpt lat="44.9066622" lon="9.5408713"><ele>545.0</ele><time>2026-04-16T10:45:53.812Z</time></trkpt><trkpt lat="44.9066376" lon="9.5407033"><ele>546.2</ele><time>2026-04-16T10:45:54.811Z</time></trkpt><trkpt lat="44.9066079" lon="9.5405326"><ele>547.4</ele><time>2026-04-16T10:45:55.812Z</time></trkpt><trkpt lat="44.906576" lon="9.5403688"><ele>548.6</ele><time>2026-04-16T10:45:56.812Z</time></trkpt><trkpt lat="44.9065422" lon="9.5402258"><ele>549.8</ele><time>2026-04-16T10:45:57.812Z</time></trkpt><trkpt lat="44.9065071" lon="9.5401024"><ele>551.0</ele><time>2026-04-16T10:45:58.811Z</time></trkpt><trkpt lat="44.9064699" lon="9.5399898"><ele>552.1666666666666</ele><time>2026-04-16T10:45:59.811Z</time></trkpt><trkpt lat="44.9064305" lon="9.5398835"><ele>553.3333333333333</ele><time>2026-04-16T10:46:00.812Z</time></trkpt><trkpt lat="44.9063913" lon="9.5397763"><ele>554.5</ele><time>2026-04-16T10:46:01.811Z</time></trkpt><trkpt lat="44.9063514" lon="9.5396618"><ele>555.6666666666666</ele><time>2026-04-16T10:46:02.813Z</time></trkpt><trkpt lat="44.906313" lon="9.5395458"><ele>556.8333333333334</ele><time>2026-04-16T10:46:03.812Z</time></trkpt><trkpt lat="44.9062765" lon="9.5394346"><ele>558.0</ele><time>2026-04-16T10:46:04.812Z</time></trkpt><trkpt lat="44.906245" lon="9.5393344"><ele>558.0</ele><time>2026-04-16T10:46:05.811Z</time></trkpt><trkpt lat="44.9062211" lon="9.5392144"><ele>558.0</ele><time>2026-04-16T10:46:07.812Z</time></trkpt><trkpt lat="44.9062448" lon="9.5391216"><ele>558.0</ele><time>2026-04-16T10:46:10.813Z</time></trkpt><trkpt lat="44.9062261" lon="9.5390078"><ele>558.0</ele><time>2026-04-16T10:46:20.812Z</time></trkpt><trkpt lat="44.9061914" lon="9.5389324"><ele>558.0</ele><time>2026-04-16T10:46:23.811Z</time></trkpt><trkpt lat="44.9062354" lon="9.5390013"><ele>558.0</ele><time>2026-04-16T10:52:17.812Z</time></trkpt></trkseg><trkseg><trkpt lat="44.9460786" lon="9.5207077"><ele>188.0</ele><time>2026-04-16T12:46:07.793Z</time></trkpt><trkpt lat="44.9460381" lon="9.5206288"><ele>188.0</ele><time>2026-04-16T12:47:01.794Z</time></trkpt><trkpt lat="44.9461265" lon="9.5206388"><ele>188.0</ele><time>2026-04-16T12:47:05.795Z</time></trkpt><trkpt lat="44.9462136" lon="9.5207384"><ele>188.0</ele><time>2026-04-16T12:47:07.793Z</time></trkpt><trkpt lat="44.9463145" lon="9.5207951"><ele>188.0</ele><time>2026-04-16T12:47:09.794Z</time></trkpt><trkpt lat="44.9464234" lon="9.5208234"><ele>188.0</ele><time>2026-04-16T12:47:11.793Z</time></trkpt><trkpt lat="44.9464853" lon="9.5208429"><ele>188.0</ele><time>2026-04-16T12:47:12.794Z</time></trkpt><trkpt lat="44.9466066" lon="9.5209074"><ele>188.0</ele><time>2026-04-16T12:47:14.793Z</time></trkpt><trkpt lat="44.9466799" lon="9.5209493"><ele>188.0</ele><time>2026-04-16T12:47:15.793Z</time></trkpt><trkpt lat="44.9467563" lon="9.5209881"><ele>188.0</ele><time>2026-04-16T12:47:16.793Z</time></trkpt><trkpt lat="44.9468387" lon="9.5210322"><ele>188.0</ele><time>2026-04-16T12:47:17.793Z</time></trkpt><trkpt lat="44.9469298" lon="9.5210629"><ele>187.60000000000002</ele><time>2026-04-16T12:47:18.794Z</time></trkpt><trkpt lat="44.9470216" lon="9.5210781"><ele>187.20000000000002</ele><time>2026-04-16T12:47:19.794Z</time></trkpt><trkpt lat="44.9471032" lon="9.5210755"><ele>186.8</ele><time>2026-04-16T12:47:20.795Z</time></trkpt><trkpt lat="44.9471734" lon="9.5210616"><ele>186.4</ele><time>2026-04-16T12:47:21.794Z</time></trkpt><trkpt lat="44.9472833" lon="9.5210027"><ele>186.0</ele><time>2026-04-16T12:47:23.794Z</time></trkpt><trkpt lat="44.9473761" lon="9.5208931"><ele>186.0</ele><time>2026-04-16T12:47:25.793Z</time></trkpt><trkpt lat="44.9474404" lon="9.5207839"><ele>186.0</ele><time>2026-04-16T12:47:27.794Z</time></trkpt><trkpt lat="44.9474869" lon="9.5207"><ele>186.0</ele><time>2026-04-16T12:47:29.794Z</time></trkpt><trkpt lat="44.9475446" lon="9.5206253"><ele>186.0</ele><time>2026-04-16T12:47:31.794Z</time></trkpt><trkpt lat="44.9476254" lon="9.5206063"><ele>186.0</ele><time>2026-04-16T12:47:33.793Z</time></trkpt><trkpt lat="44.94775" lon="9.5206691"><ele>185.60000000000002</ele><time>2026-04-16T12:47:35.793Z</time></trkpt><trkpt lat="44.9478279" lon="9.5207198"><ele>185.2</ele><time>2026-04-16T12:47:36.795Z</time></trkpt><trkpt lat="44.9479103" lon="9.5207751"><ele>184.8</ele><time>2026-04-16T12:47:37.795Z</time></trkpt><trkpt lat="44.9479922" lon="9.5208287"><ele>184.39999999999998</ele><time>2026-04-16T12:47:38.793Z</time></trkpt><trkpt lat="44.9480818" lon="9.5208888"><ele>184.0</ele><time>2026-04-16T12:47:39.793Z</time></trkpt><trkpt lat="44.9481728" lon="9.5209476"><ele>184.0</ele><time>2026-04-16T12:47:40.794Z</time></trkpt><trkpt lat="44.9482678" lon="9.5210071"><ele>184.0</ele><time>2026-04-16T12:47:41.794Z</time></trkpt><trkpt lat="44.9483646" lon="9.5210727"><ele>184.0</ele><time>2026-04-16T12:47:42.793Z</time></trkpt><trkpt lat="44.9484563" lon="9.5211405"><ele>184.0</ele><time>2026-04-16T12:47:43.795Z</time></trkpt><trkpt lat="44.9485433" lon="9.5211985"><ele>184.0</ele><time>2026-04-16T12:47:44.793Z</time></trkpt><trkpt lat="44.9486271" lon="9.5212587"><ele>183.39999999999998</ele><time>2026-04-16T12:47:45.794Z</time></trkpt><trkpt lat="44.9487147" lon="9.5213179"><ele>182.8</ele><time>2026-04-16T12:47:46.794Z</time></trkpt><trkpt lat="44.948799" lon="9.5213804"><ele>182.2</ele><time>2026-04-16T12:47:47.793Z</time></trkpt><trkpt lat="44.9488797" lon="9.5214397"><ele>181.60000000000002</ele><time>2026-04-16T12:47:48.795Z</time></trkpt><trkpt lat="44.9489571" lon="9.5214946"><ele>181.0</ele><time>2026-04-16T12:47:49.794Z</time></trkpt><trkpt lat="44.949028" lon="9.5215499"><ele>181.0</ele><time>2026-04-16T12:47:50.793Z</time></trkpt><trkpt lat="44.9490972" lon="9.5216138"><ele>181.0</ele><time>2026-04-16T12:47:51.793Z</time></trkpt><trkpt lat="44.9491678" lon="9.5216928"><ele>181.0</ele><time>2026-04-16T12:47:52.793Z</time></trkpt><trkpt lat="44.9492388" lon="9.5217899"><ele>181.0</ele><time>2026-04-16T12:47:53.795Z</time></trkpt><trkpt lat="44.9493095" lon="9.5219034"><ele>181.0</ele><time>2026-04-16T12:47:54.793Z</time></trkpt><trkpt lat="44.9493852" lon="9.5220244"><ele>180.5</ele><time>2026-04-16T12:47:55.794Z</time></trkpt><trkpt lat="44.9494648" lon="9.5221625"><ele>180.0</ele><time>2026-04-16T12:47:56.794Z</time></trkpt><trkpt lat="44.9495506" lon="9.5223056"><ele>179.5</ele><time>2026-04-16T12:47:57.793Z</time></trkpt><trkpt lat="44.9496384" lon="9.52246"><ele>179.0</ele><time>2026-04-16T12:47:58.793Z</time></trkpt><trkpt lat="44.9497243" lon="9.5226098"><ele>179.0</ele><time>2026-04-16T12:47:59.794Z</time></trkpt><trkpt lat="44.9498105" lon="9.5227659"><ele>179.0</ele><time>2026-04-16T12:48:00.794Z</time></trkpt><trkpt lat="44.949896" lon="9.5229143"><ele>179.0</ele><time>2026-04-16T12:48:01.794Z</time></trkpt><trkpt lat="44.9499804" lon="9.5230572"><ele>179.0</ele><time>2026-04-16T12:48:02.793Z</time></trkpt><trkpt lat="44.9500564" lon="9.523198"><ele>177.0</ele><time>2026-04-16T12:48:03.794Z</time></trkpt><trkpt lat="44.9501193" lon="9.5233457"><ele>175.0</ele><time>2026-04-16T12:48:04.793Z</time></trkpt><trkpt lat="44.9501678" lon="9.5235001"><ele>173.0</ele><time>2026-04-16T12:48:05.794Z</time></trkpt><trkpt lat="44.9501994" lon="9.5236595"><ele>171.0</ele><time>2026-04-16T12:48:06.794Z</time></trkpt><trkpt lat="44.9502156" lon="9.5238267"><ele>171.0</ele><time>2026-04-16T12:48:07.793Z</time></trkpt><trkpt lat="44.9502113" lon="9.5240043"><ele>171.0</ele><time>2026-04-16T12:48:08.793Z</time></trkpt><trkpt lat="44.9501843" lon="9.5241856"><ele>171.0</ele><time>2026-04-16T12:48:09.793Z</time></trkpt><trkpt lat="44.9501358" lon="9.5243751"><ele>171.0</ele><time>2026-04-16T12:48:10.792Z</time></trkpt><trkpt lat="44.9500734" lon="9.5245792"><ele>169.0</ele><time>2026-04-16T12:48:11.793Z</time></trkpt><trkpt lat="44.9500082" lon="9.524785"><ele>167.0</ele><time>2026-04-16T12:48:12.792Z</time></trkpt><trkpt lat="44.949941" lon="9.5249981"><ele>165.0</ele><time>2026-04-16T12:48:13.793Z</time></trkpt><trkpt lat="44.9498696" lon="9.525222"><ele>163.33333333333334</ele><time>2026-04-16T12:48:14.793Z</time></trkpt><trkpt lat="44.9497965" lon="9.5254535"><ele>161.66666666666669</ele><time>2026-04-16T12:48:15.793Z</time></trkpt><trkpt lat="44.9497239" lon="9.5256777"><ele>160.0</ele><time>2026-04-16T12:48:16.793Z</time></trkpt><trkpt lat="44.9496526" lon="9.5258964"><ele>160.0</ele><time>2026-04-16T12:48:17.793Z</time></trkpt><trkpt lat="44.9495842" lon="9.5261152"><ele>160.0</ele><time>2026-04-16T12:48:18.793Z</time></trkpt><trkpt lat="44.9495132" lon="9.526344"><ele>160.0</ele><time>2026-04-16T12:48:19.793Z</time></trkpt><trkpt lat="44.9494383" lon="9.5265798"><ele>158.33333333333334</ele><time>2026-04-16T12:48:20.792Z</time></trkpt><trkpt lat="44.9493591" lon="9.5268217"><ele>156.66666666666666</ele><time>2026-04-16T12:48:21.793Z</time></trkpt><trkpt lat="44.9492811" lon="9.5270674"><ele>155.0</ele><time>2026-04-16T12:48:22.793Z</time></trkpt><trkpt lat="44.9491991" lon="9.5273195"><ele>153.33333333333331</ele><time>2026-04-16T12:48:23.793Z</time></trkpt><trkpt lat="44.9491166" lon="9.527574"><ele>151.66666666666666</ele><time>2026-04-16T12:48:24.793Z</time></trkpt><trkpt lat="44.949034" lon="9.5278329"><ele>150.0</ele><time>2026-04-16T12:48:25.792Z</time></trkpt><trkpt lat="44.948949" lon="9.5280969"><ele>149.33333333333334</ele><time>2026-04-16T12:48:26.793Z</time></trkpt><trkpt lat="44.9488597" lon="9.5283575"><ele>148.66666666666669</ele><time>2026-04-16T12:48:27.792Z</time></trkpt><trkpt lat="44.9487718" lon="9.5286188"><ele>148.0</ele><time>2026-04-16T12:48:28.793Z</time></trkpt><trkpt lat="44.9486845" lon="9.5288815"><ele>148.0</ele><time>2026-04-16T12:48:29.793Z</time></trkpt><trkpt lat="44.9485995" lon="9.5291446"><ele>148.0</ele><time>2026-04-16T12:48:30.792Z</time></trkpt><trkpt lat="44.948516" lon="9.5294094"><ele>148.0</ele><time>2026-04-16T12:48:31.793Z</time></trkpt><trkpt lat="44.9484315" lon="9.5296749"><ele>148.66666666666669</ele><time>2026-04-16T12:48:32.792Z</time></trkpt><trkpt lat="44.9483488" lon="9.5299395"><ele>149.33333333333334</ele><time>2026-04-16T12:48:33.793Z</time></trkpt><trkpt lat="44.9482672" lon="9.5302041"><ele>150.0</ele><time>2026-04-16T12:48:34.793Z</time></trkpt><trkpt lat="44.9481858" lon="9.5304709"><ele>150.0</ele><time>2026-04-16T12:48:35.793Z</time></trkpt><trkpt lat="44.9481015" lon="9.5307361"><ele>150.0</ele><time>2026-04-16T12:48:36.793Z</time></trkpt><trkpt lat="44.9480186" lon="9.5309985"><ele>150.0</ele><time>2026-04-16T12:48:37.793Z</time></trkpt><trkpt lat="44.9479342" lon="9.5312601"><ele>150.0</ele><time>2026-04-16T12:48:38.793Z</time></trkpt><trkpt lat="44.9478499" lon="9.5315225"><ele>150.0</ele><time>2026-04-16T12:48:39.792Z</time></trkpt><trkpt lat="44.947767" lon="9.5317793"><ele>150.0</ele><time>2026-04-16T12:48:40.793Z</time></trkpt><trkpt lat="44.9476872" lon="9.5320258"><ele>150.33333333333334</ele><time>2026-04-16T12:48:41.793Z</time></trkpt><trkpt lat="44.9476125" lon="9.532259"><ele>150.66666666666669</ele><time>2026-04-16T12:48:42.792Z</time></trkpt><trkpt lat="44.9475436" lon="9.5324787"><ele>151.0</ele><time>2026-04-16T12:48:43.793Z</time></trkpt><trkpt lat="44.9474804" lon="9.5326898"><ele>151.75</ele><time>2026-04-16T12:48:44.794Z</time></trkpt><trkpt lat="44.9474232" lon="9.5328924"><ele>152.5</ele><time>2026-04-16T12:48:45.792Z</time></trkpt><trkpt lat="44.9473717" lon="9.5330856"><ele>153.25</ele><time>2026-04-16T12:48:46.793Z</time></trkpt><trkpt lat="44.9473245" lon="9.5332729"><ele>154.0</ele><time>2026-04-16T12:48:47.793Z</time></trkpt><trkpt lat="44.947295" lon="9.5334526"><ele>154.0</ele><time>2026-04-16T12:48:48.792Z</time></trkpt><trkpt lat="44.9472767" lon="9.5336248"><ele>154.0</ele><time>2026-04-16T12:48:49.792Z</time></trkpt><trkpt lat="44.9472617" lon="9.5337828"><ele>154.0</ele><time>2026-04-16T12:48:50.792Z</time></trkpt><trkpt lat="44.9472497" lon="9.5339301"><ele>154.0</ele><time>2026-04-16T12:48:51.793Z</time></trkpt><trkpt lat="44.9472326" lon="9.5340635"><ele>154.0</ele><time>2026-04-16T12:48:52.792Z</time></trkpt><trkpt lat="44.9472136" lon="9.5341927"><ele>154.33333333333334</ele><time>2026-04-16T12:48:53.794Z</time></trkpt><trkpt lat="44.947197" lon="9.5343116"><ele>154.66666666666669</ele><time>2026-04-16T12:48:54.792Z</time></trkpt><trkpt lat="44.947176" lon="9.534415"><ele>155.0</ele><time>2026-04-16T12:48:55.792Z</time></trkpt><trkpt lat="44.9471055" lon="9.5345465"><ele>155.33333333333334</ele><time>2026-04-16T12:48:57.793Z</time></trkpt><trkpt lat="44.9470001" lon="9.5345458"><ele>155.66666666666666</ele><time>2026-04-16T12:48:59.793Z</time></trkpt><trkpt lat="44.9469441" lon="9.5344989"><ele>156.0</ele><time>2026-04-16T12:49:00.794Z</time></trkpt><trkpt lat="44.9468871" lon="9.5344173"><ele>156.0</ele><time>2026-04-16T12:49:01.793Z</time></trkpt><trkpt lat="44.9468204" lon="9.5343154"><ele>156.0</ele><time>2026-04-16T12:49:02.793Z</time></trkpt><trkpt lat="44.9467442" lon="9.5341999"><ele>156.0</ele><time>2026-04-16T12:49:03.792Z</time></trkpt><trkpt lat="44.9466577" lon="9.5340751"><ele>156.0</ele><time>2026-04-16T12:49:04.792Z</time></trkpt><trkpt lat="44.9465615" lon="9.533946"><ele>155.75</ele><time>2026-04-16T12:49:05.792Z</time></trkpt><trkpt lat="44.9464578" lon="9.5338089"><ele>155.5</ele><time>2026-04-16T12:49:06.793Z</time></trkpt><trkpt lat="44.9463508" lon="9.5336623"><ele>155.25</ele><time>2026-04-16T12:49:07.792Z</time></trkpt><trkpt lat="44.9462434" lon="9.5335115"><ele>155.0</ele><time>2026-04-16T12:49:08.793Z</time></trkpt><trkpt lat="44.946131" lon="9.5333562"><ele>154.66666666666666</ele><time>2026-04-16T12:49:09.793Z</time></trkpt><trkpt lat="44.9460109" lon="9.5332022"><ele>154.33333333333334</ele><time>2026-04-16T12:49:10.793Z</time></trkpt><trkpt lat="44.9458801" lon="9.5330478"><ele>154.0</ele><time>2026-04-16T12:49:11.793Z</time></trkpt><trkpt lat="44.9457423" lon="9.532898"><ele>154.66666666666669</ele><time>2026-04-16T12:49:12.792Z</time></trkpt><trkpt lat="44.9456029" lon="9.5327422"><ele>155.33333333333334</ele><time>2026-04-16T12:49:13.794Z</time></trkpt><trkpt lat="44.9454621" lon="9.5325731"><ele>156.0</ele><time>2026-04-16T12:49:14.794Z</time></trkpt><trkpt lat="44.9453176" lon="9.5323896"><ele>156.0</ele><time>2026-04-16T12:49:15.793Z</time></trkpt><trkpt lat="44.9451728" lon="9.5321877"><ele>156.0</ele><time>2026-04-16T12:49:16.792Z</time></trkpt><trkpt lat="44.9450224" lon="9.5319662"><ele>156.0</ele><time>2026-04-16T12:49:17.793Z</time></trkpt><trkpt lat="44.9448674" lon="9.5317284"><ele>156.0</ele><time>2026-04-16T12:49:18.792Z</time></trkpt><trkpt lat="44.9447176" lon="9.5314902"><ele>156.0</ele><time>2026-04-16T12:49:19.792Z</time></trkpt><trkpt lat="44.9445724" lon="9.5312598"><ele>156.0</ele><time>2026-04-16T12:49:20.792Z</time></trkpt><trkpt lat="44.9444255" lon="9.5310298"><ele>156.0</ele><time>2026-04-16T12:49:21.793Z</time></trkpt><trkpt lat="44.9442792" lon="9.5308015"><ele>156.0</ele><time>2026-04-16T12:49:22.792Z</time></trkpt><trkpt lat="44.9441361" lon="9.5305791"><ele>156.0</ele><time>2026-04-16T12:49:23.793Z</time></trkpt><trkpt lat="44.9439935" lon="9.5303587"><ele>156.66666666666666</ele><time>2026-04-16T12:49:24.793Z</time></trkpt><trkpt lat="44.94385" lon="9.53014"><ele>157.33333333333331</ele><time>2026-04-16T12:49:25.793Z</time></trkpt><trkpt lat="44.9437115" lon="9.5299297"><ele>158.0</ele><time>2026-04-16T12:49:26.793Z</time></trkpt><trkpt lat="44.9435748" lon="9.5297271"><ele>157.66666666666666</ele><time>2026-04-16T12:49:27.792Z</time></trkpt><trkpt lat="44.9434431" lon="9.5295312"><ele>157.33333333333334</ele><time>2026-04-16T12:49:28.793Z</time></trkpt><trkpt lat="44.9433157" lon="9.5293447"><ele>157.0</ele><time>2026-04-16T12:49:29.793Z</time></trkpt><trkpt lat="44.9431937" lon="9.5291701"><ele>158.0</ele><time>2026-04-16T12:49:30.793Z</time></trkpt><trkpt lat="44.9430766" lon="9.5290032"><ele>159.0</ele><time>2026-04-16T12:49:31.792Z</time></trkpt><trkpt lat="44.9429647" lon="9.5288406"><ele>160.0</ele><time>2026-04-16T12:49:32.793Z</time></trkpt><trkpt lat="44.942855" lon="9.5286809"><ele>160.0</ele><time>2026-04-16T12:49:33.792Z</time></trkpt><trkpt lat="44.942748" lon="9.5285173"><ele>160.0</ele><time>2026-04-16T12:49:34.792Z</time></trkpt><trkpt lat="44.9426392" lon="9.5283594"><ele>160.0</ele><time>2026-04-16T12:49:35.792Z</time></trkpt><trkpt lat="44.9425331" lon="9.5282124"><ele>161.0</ele><time>2026-04-16T12:49:36.792Z</time></trkpt><trkpt lat="44.9424259" lon="9.5280662"><ele>162.0</ele><time>2026-04-16T12:49:37.793Z</time></trkpt><trkpt lat="44.9423097" lon="9.5279249"><ele>163.0</ele><time>2026-04-16T12:49:38.793Z</time></trkpt><trkpt lat="44.9421786" lon="9.5277821"><ele>163.0</ele><time>2026-04-16T12:49:39.793Z</time></trkpt><trkpt lat="44.9420311" lon="9.5276389"><ele>163.0</ele><time>2026-04-16T12:49:40.792Z</time></trkpt><trkpt lat="44.9418723" lon="9.5274889"><ele>163.0</ele><time>2026-04-16T12:49:41.793Z</time></trkpt><trkpt lat="44.9417083" lon="9.5273238"><ele>163.0</ele><time>2026-04-16T12:49:42.793Z</time></trkpt><trkpt lat="44.9415403" lon="9.5271579"><ele>163.0</ele><time>2026-04-16T12:49:43.793Z</time></trkpt><trkpt lat="44.9413641" lon="9.5269852"><ele>163.0</ele><time>2026-04-16T12:49:44.793Z</time></trkpt><trkpt lat="44.9411786" lon="9.5268023"><ele>163.0</ele><time>2026-04-16T12:49:45.792Z</time></trkpt><trkpt lat="44.9409906" lon="9.5266184"><ele>163.0</ele><time>2026-04-16T12:49:46.792Z</time></trkpt><trkpt lat="44.9408069" lon="9.5264373"><ele>163.33333333333334</ele><time>2026-04-16T12:49:47.793Z</time></trkpt><trkpt lat="44.9406294" lon="9.526263"><ele>163.66666666666666</ele><time>2026-04-16T12:49:48.793Z</time></trkpt><trkpt lat="44.9404595" lon="9.5260937"><ele>164.0</ele><time>2026-04-16T12:49:49.793Z</time></trkpt><trkpt lat="44.9402925" lon="9.5259265"><ele>164.0</ele><time>2026-04-16T12:49:50.792Z</time></trkpt><trkpt lat="44.9401252" lon="9.5257624"><ele>164.0</ele><time>2026-04-16T12:49:51.792Z</time></trkpt><trkpt lat="44.9399588" lon="9.5256047"><ele>164.0</ele><time>2026-04-16T12:49:52.793Z</time></trkpt><trkpt lat="44.939789" lon="9.5254619"><ele>164.66666666666666</ele><time>2026-04-16T12:49:53.792Z</time></trkpt><trkpt lat="44.9396074" lon="9.5253485"><ele>165.33333333333334</ele><time>2026-04-16T12:49:54.793Z</time></trkpt><trkpt lat="44.9394171" lon="9.5252588"><ele>166.0</ele><time>2026-04-16T12:49:55.793Z</time></trkpt><trkpt lat="44.9392333" lon="9.5251845"><ele>166.75</ele><time>2026-04-16T12:49:56.793Z</time></trkpt><trkpt lat="44.939075" lon="9.5251192"><ele>167.5</ele><time>2026-04-16T12:49:57.793Z</time></trkpt><trkpt lat="44.9389588" lon="9.5250697"><ele>168.25</ele><time>2026-04-16T12:49:58.793Z</time></trkpt><trkpt lat="44.9388829" lon="9.5250383"><ele>169.0</ele><time>2026-04-16T12:49:59.792Z</time></trkpt><trkpt lat="44.9387992" lon="9.5250629"><ele>169.0</ele><time>2026-04-16T12:50:01.792Z</time></trkpt><trkpt lat="44.9387963" lon="9.525162"><ele>169.0</ele><time>2026-04-16T12:50:03.792Z</time></trkpt><trkpt lat="44.9388138" lon="9.5253667"><ele>169.0</ele><time>2026-04-16T12:50:05.793Z</time></trkpt><trkpt lat="44.9388259" lon="9.5254984"><ele>169.0</ele><time>2026-04-16T12:50:06.792Z</time></trkpt><trkpt lat="44.9388274" lon="9.525636"><ele>169.0</ele><time>2026-04-16T12:50:07.793Z</time></trkpt><trkpt lat="44.9388147" lon="9.5257763"><ele>169.39999999999998</ele><time>2026-04-16T12:50:08.792Z</time></trkpt><trkpt lat="44.9387841" lon="9.5259004"><ele>169.8</ele><time>2026-04-16T12:50:09.793Z</time></trkpt><trkpt lat="44.9387367" lon="9.5260108"><ele>170.2</ele><time>2026-04-16T12:50:10.792Z</time></trkpt><trkpt lat="44.9386761" lon="9.5261141"><ele>170.60000000000002</ele><time>2026-04-16T12:50:11.793Z</time></trkpt><trkpt lat="44.9386064" lon="9.5262168"><ele>171.0</ele><time>2026-04-16T12:50:12.793Z</time></trkpt><trkpt lat="44.9385303" lon="9.5263205"><ele>172.25</ele><time>2026-04-16T12:50:13.793Z</time></trkpt><trkpt lat="44.9384491" lon="9.526431"><ele>173.5</ele><time>2026-04-16T12:50:14.792Z</time></trkpt><trkpt lat="44.9383556" lon="9.5265492"><ele>174.75</ele><time>2026-04-16T12:50:15.793Z</time></trkpt><trkpt lat="44.9382607" lon="9.5266662"><ele>176.0</ele><time>2026-04-16T12:50:16.793Z</time></trkpt><trkpt lat="44.9381733" lon="9.5267689"><ele>178.16666666666666</ele><time>2026-04-16T12:50:17.792Z</time></trkpt><trkpt lat="44.938094" lon="9.5268612"><ele>180.33333333333331</ele><time>2026-04-16T12:50:18.793Z</time></trkpt><trkpt lat="44.9380256" lon="9.526939"><ele>182.5</ele><time>2026-04-16T12:50:19.792Z</time></trkpt><trkpt lat="44.93796" lon="9.5270126"><ele>184.66666666666666</ele><time>2026-04-16T12:50:20.793Z</time></trkpt><trkpt lat="44.937898" lon="9.5270782"><ele>186.83333333333334</ele><time>2026-04-16T12:50:21.793Z</time></trkpt><trkpt lat="44.9378333" lon="9.5271474"><ele>189.0</ele><time>2026-04-16T12:50:22.792Z</time></trkpt><trkpt lat="44.9377644" lon="9.5272079"><ele>190.66666666666666</ele><time>2026-04-16T12:50:23.792Z</time></trkpt><trkpt lat="44.9376861" lon="9.5272522"><ele>192.33333333333331</ele><time>2026-04-16T12:50:24.793Z</time></trkpt><trkpt lat="44.9376119" lon="9.5273068"><ele>194.0</ele><time>2026-04-16T12:50:25.792Z</time></trkpt><trkpt lat="44.9375325" lon="9.5273606"><ele>195.66666666666666</ele><time>2026-04-16T12:50:26.793Z</time></trkpt><trkpt lat="44.9374513" lon="9.5274185"><ele>197.33333333333331</ele><time>2026-04-16T12:50:27.793Z</time></trkpt><trkpt lat="44.9373682" lon="9.5274792"><ele>199.0</ele><time>2026-04-16T12:50:28.792Z</time></trkpt><trkpt lat="44.9372827" lon="9.5275351"><ele>200.39999999999998</ele><time>2026-04-16T12:50:29.792Z</time></trkpt><trkpt lat="44.9371963" lon="9.5275867"><ele>201.8</ele><time>2026-04-16T12:50:30.793Z</time></trkpt><trkpt lat="44.9371074" lon="9.5276366"><ele>203.2</ele><time>2026-04-16T12:50:31.793Z</time></trkpt><trkpt lat="44.9370181" lon="9.527678"><ele>204.60000000000002</ele><time>2026-04-16T12:50:32.793Z</time></trkpt><trkpt lat="44.9369244" lon="9.5277083"><ele>206.0</ele><time>2026-04-16T12:50:33.792Z</time></trkpt><trkpt lat="44.9368331" lon="9.527737"><ele>206.0</ele><time>2026-04-16T12:50:34.793Z</time></trkpt><trkpt lat="44.9367463" lon="9.52777"><ele>206.0</ele><time>2026-04-16T12:50:35.793Z</time></trkpt><trkpt lat="44.9366606" lon="9.5278068"><ele>206.0</ele><time>2026-04-16T12:50:36.793Z</time></trkpt><trkpt lat="44.9365806" lon="9.5278493"><ele>206.0</ele><time>2026-04-16T12:50:37.793Z</time></trkpt><trkpt lat="44.9365008" lon="9.5279036"><ele>206.0</ele><time>2026-04-16T12:50:38.794Z</time></trkpt><trkpt lat="44.9364174" lon="9.5279714"><ele>208.4</ele><time>2026-04-16T12:50:39.792Z</time></trkpt><trkpt lat="44.9363306" lon="9.5280446"><ele>210.8</ele><time>2026-04-16T12:50:40.793Z</time></trkpt><trkpt lat="44.9362463" lon="9.5281112"><ele>213.20000000000002</ele><time>2026-04-16T12:50:41.792Z</time></trkpt><trkpt lat="44.9361685" lon="9.5281678"><ele>215.60000000000002</ele><time>2026-04-16T12:50:42.793Z</time></trkpt><trkpt lat="44.9360915" lon="9.5282244"><ele>218.0</ele><time>2026-04-16T12:50:43.792Z</time></trkpt><trkpt lat="44.936016" lon="9.5282919"><ele>218.00000000000003</ele><time>2026-04-16T12:50:44.794Z</time></trkpt><trkpt lat="44.9359416" lon="9.5283583"><ele>218.0</ele><time>2026-04-16T12:50:45.793Z</time></trkpt><trkpt lat="44.9358703" lon="9.5284205"><ele>218.0</ele><time>2026-04-16T12:50:46.793Z</time></trkpt><trkpt lat="44.9358037" lon="9.5284877"><ele>218.0</ele><time>2026-04-16T12:50:47.792Z</time></trkpt><trkpt lat="44.9357424" lon="9.5285644"><ele>218.00000000000003</ele><time>2026-04-16T12:50:48.793Z</time></trkpt><trkpt lat="44.9356931" lon="9.5286414"><ele>218.0</ele><time>2026-04-16T12:50:49.792Z</time></trkpt><trkpt lat="44.9356052" lon="9.5287418"><ele>219.60000000000002</ele><time>2026-04-16T12:50:51.792Z</time></trkpt><trkpt lat="44.9354988" lon="9.5288305"><ele>221.20000000000002</ele><time>2026-04-16T12:50:53.792Z</time></trkpt><trkpt lat="44.9353907" lon="9.5289075"><ele>222.8</ele><time>2026-04-16T12:50:55.792Z</time></trkpt><trkpt lat="44.9353183" lon="9.5289298"><ele>224.4</ele><time>2026-04-16T12:50:56.792Z</time></trkpt><trkpt lat="44.935237" lon="9.5289542"><ele>226.0</ele><time>2026-04-16T12:50:57.792Z</time></trkpt><trkpt lat="44.9351516" lon="9.5289812"><ele>225.99999999999997</ele><time>2026-04-16T12:50:58.794Z</time></trkpt><trkpt lat="44.9350706" lon="9.529008"><ele>226.0</ele><time>2026-04-16T12:50:59.793Z</time></trkpt><trkpt lat="44.934989" lon="9.5290293"><ele>226.0</ele><time>2026-04-16T12:51:00.792Z</time></trkpt><trkpt lat="44.9349127" lon="9.5290505"><ele>226.0</ele><time>2026-04-16T12:51:01.793Z</time></trkpt><trkpt lat="44.9348476" lon="9.5290686"><ele>225.99999999999997</ele><time>2026-04-16T12:51:02.792Z</time></trkpt><trkpt lat="44.9347513" lon="9.5290924"><ele>226.0</ele><time>2026-04-16T12:51:04.792Z</time></trkpt><trkpt lat="44.934682" lon="9.5290871"><ele>226.49999999999997</ele><time>2026-04-16T12:51:09.792Z</time></trkpt><trkpt lat="44.9345745" lon="9.529131"><ele>227.0</ele><time>2026-04-16T12:51:12.793Z</time></trkpt><trkpt lat="44.93451" lon="9.5291506"><ele>227.5</ele><time>2026-04-16T12:51:13.792Z</time></trkpt><trkpt lat="44.9344382" lon="9.5291744"><ele>228.0</ele><time>2026-04-16T12:51:14.793Z</time></trkpt><trkpt lat="44.9343691" lon="9.5291999"><ele>228.49999999999997</ele><time>2026-04-16T12:51:15.792Z</time></trkpt><trkpt lat="44.9343013" lon="9.529232"><ele>229.0</ele><time>2026-04-16T12:51:16.793Z</time></trkpt><trkpt lat="44.934239" lon="9.5292627"><ele>229.42857142857142</ele><time>2026-04-16T12:51:17.792Z</time></trkpt><trkpt lat="44.9341774" lon="9.5292958"><ele>229.8571428571429</ele><time>2026-04-16T12:51:18.793Z</time></trkpt><trkpt lat="44.9341168" lon="9.5293317"><ele>230.2857142857143</ele><time>2026-04-16T12:51:19.792Z</time></trkpt><trkpt lat="44.9340562" lon="9.5293693"><ele>230.71428571428572</ele><time>2026-04-16T12:51:20.793Z</time></trkpt><trkpt lat="44.9339947" lon="9.5294024"><ele>231.14285714285717</ele><time>2026-04-16T12:51:21.793Z</time></trkpt><trkpt lat="44.9339345" lon="9.5294367"><ele>231.5714285714286</ele><time>2026-04-16T12:51:22.792Z</time></trkpt><trkpt lat="44.9338728" lon="9.5294681"><ele>232.00000000000003</ele><time>2026-04-16T12:51:23.793Z</time></trkpt><trkpt lat="44.9338103" lon="9.5295005"><ele>232.00000000000003</ele><time>2026-04-16T12:51:24.793Z</time></trkpt><trkpt lat="44.9337496" lon="9.5295298"><ele>232.0</ele><time>2026-04-16T12:51:25.792Z</time></trkpt><trkpt lat="44.9336881" lon="9.5295548"><ele>232.00000000000003</ele><time>2026-04-16T12:51:26.793Z</time></trkpt><trkpt lat="44.9336267" lon="9.5295762"><ele>232.00000000000003</ele><time>2026-04-16T12:51:27.793Z</time></trkpt><trkpt lat="44.93356" lon="9.5295947"><ele>232.0</ele><time>2026-04-16T12:51:28.792Z</time></trkpt><trkpt lat="44.93349" lon="9.5296112"><ele>232.00000000000003</ele><time>2026-04-16T12:51:29.794Z</time></trkpt><trkpt lat="44.9334179" lon="9.5296223"><ele>232.00000000000003</ele><time>2026-04-16T12:51:30.793Z</time></trkpt><trkpt lat="44.9333455" lon="9.529626"><ele>233.83333333333331</ele><time>2026-04-16T12:51:31.793Z</time></trkpt><trkpt lat="44.9332791" lon="9.5296259"><ele>235.66666666666666</ele><time>2026-04-16T12:51:32.792Z</time></trkpt><trkpt lat="44.9332132" lon="9.5296247"><ele>237.5</ele><time>2026-04-16T12:51:33.792Z</time></trkpt><trkpt lat="44.9331472" lon="9.5296249"><ele>239.33333333333331</ele><time>2026-04-16T12:51:34.793Z</time></trkpt><trkpt lat="44.9330409" lon="9.5296356"><ele>241.16666666666666</ele><time>2026-04-16T12:51:36.792Z</time></trkpt><trkpt lat="44.9329761" lon="9.5296488"><ele>243.0</ele><time>2026-04-16T12:51:38.793Z</time></trkpt><trkpt lat="44.9328692" lon="9.5296754"><ele>243.0</ele><time>2026-04-16T12:51:40.793Z</time></trkpt><trkpt lat="44.9328019" lon="9.5296835"><ele>243.0</ele><time>2026-04-16T12:51:41.792Z</time></trkpt><trkpt lat="44.9327324" lon="9.5296955"><ele>243.0</ele><time>2026-04-16T12:51:42.792Z</time></trkpt><trkpt lat="44.9326646" lon="9.5297141"><ele>243.0</ele><time>2026-04-16T12:51:43.792Z</time></trkpt><trkpt lat="44.932595" lon="9.5297261"><ele>243.0</ele><time>2026-04-16T12:51:44.792Z</time></trkpt><trkpt lat="44.9325324" lon="9.5297415"><ele>243.0</ele><time>2026-04-16T12:51:45.793Z</time></trkpt><trkpt lat="44.9324354" lon="9.52977"><ele>243.0</ele><time>2026-04-16T12:51:47.792Z</time></trkpt><trkpt lat="44.932374" lon="9.5298009"><ele>244.83333333333334</ele><time>2026-04-16T12:51:49.793Z</time></trkpt><trkpt lat="44.9323161" lon="9.5298554"><ele>246.66666666666669</ele><time>2026-04-16T12:51:51.793Z</time></trkpt><trkpt lat="44.9322612" lon="9.5299456"><ele>248.5</ele><time>2026-04-16T12:51:53.792Z</time></trkpt><trkpt lat="44.9322359" lon="9.5300546"><ele>250.33333333333334</ele><time>2026-04-16T12:51:55.793Z</time></trkpt><trkpt lat="44.9322265" lon="9.5301455"><ele>252.16666666666669</ele><time>2026-04-16T12:52:00.793Z</time></trkpt><trkpt lat="44.9322284" lon="9.5303106"><ele>254.0</ele><time>2026-04-16T12:52:03.794Z</time></trkpt><trkpt lat="44.9322404" lon="9.5304793"><ele>254.66666666666669</ele><time>2026-04-16T12:52:05.793Z</time></trkpt><trkpt lat="44.932241" lon="9.530604"><ele>255.33333333333334</ele><time>2026-04-16T12:52:07.793Z</time></trkpt><trkpt lat="44.9322296" lon="9.5307121"><ele>256.0</ele><time>2026-04-16T12:52:09.793Z</time></trkpt><trkpt lat="44.9322231" lon="9.5308137"><ele>256.6666666666667</ele><time>2026-04-16T12:52:11.794Z</time></trkpt><trkpt lat="44.932218" lon="9.5309378"><ele>257.3333333333333</ele><time>2026-04-16T12:52:14.792Z</time></trkpt><trkpt lat="44.9322151" lon="9.5310267"><ele>258.0</ele><time>2026-04-16T12:52:25.793Z</time></trkpt><trkpt lat="44.932204" lon="9.5311191"><ele>257.5</ele><time>2026-04-16T12:52:27.792Z</time></trkpt><trkpt lat="44.9321876" lon="9.5312347"><ele>257.0</ele><time>2026-04-16T12:52:29.792Z</time></trkpt><trkpt lat="44.9321654" lon="9.5313441"><ele>256.5</ele><time>2026-04-16T12:52:31.793Z</time></trkpt><trkpt lat="44.9321488" lon="9.5314509"><ele>256.0</ele><time>2026-04-16T12:52:33.792Z</time></trkpt><trkpt lat="44.9321226" lon="9.531567"><ele>255.5</ele><time>2026-04-16T12:52:35.793Z</time></trkpt><trkpt lat="44.9320891" lon="9.5316816"><ele>255.0</ele><time>2026-04-16T12:52:37.793Z</time></trkpt><trkpt lat="44.9320493" lon="9.5317642"><ele>255.0</ele><time>2026-04-16T12:52:39.794Z</time></trkpt><trkpt lat="44.9319719" lon="9.5318448"><ele>255.0</ele><time>2026-04-16T12:52:42.792Z</time></trkpt><trkpt lat="44.9318644" lon="9.531893"><ele>255.0</ele><time>2026-04-16T12:52:44.793Z</time></trkpt><trkpt lat="44.9318007" lon="9.5319182"><ele>255.0</ele><time>2026-04-16T12:52:45.793Z</time></trkpt><trkpt lat="44.9316887" lon="9.5319322"><ele>255.0</ele><time>2026-04-16T12:52:47.793Z</time></trkpt><trkpt lat="44.9315659" lon="9.5319327"><ele>256.0</ele><time>2026-04-16T12:52:49.792Z</time></trkpt><trkpt lat="44.9314996" lon="9.5319441"><ele>257.0</ele><time>2026-04-16T12:52:50.792Z</time></trkpt><trkpt lat="44.9314348" lon="9.5319603"><ele>258.0</ele><time>2026-04-16T12:52:51.792Z</time></trkpt><trkpt lat="44.9313648" lon="9.5319746"><ele>259.0</ele><time>2026-04-16T12:52:52.792Z</time></trkpt><trkpt lat="44.9312893" lon="9.5319894"><ele>260.0</ele><time>2026-04-16T12:52:53.793Z</time></trkpt><trkpt lat="44.9312152" lon="9.5320052"><ele>261.0</ele><time>2026-04-16T12:52:54.793Z</time></trkpt><trkpt lat="44.9311413" lon="9.5320234"><ele>262.0</ele><time>2026-04-16T12:52:55.792Z</time></trkpt><trkpt lat="44.9310633" lon="9.5320422"><ele>261.5</ele><time>2026-04-16T12:52:56.793Z</time></trkpt><trkpt lat="44.9309911" lon="9.5320679"><ele>261.0</ele><time>2026-04-16T12:52:57.793Z</time></trkpt><trkpt lat="44.9309242" lon="9.532107"><ele>260.5</ele><time>2026-04-16T12:52:58.793Z</time></trkpt><trkpt lat="44.9308557" lon="9.5321525"><ele>260.0</ele><time>2026-04-16T12:52:59.793Z</time></trkpt><trkpt lat="44.9307857" lon="9.5322017"><ele>259.5</ele><time>2026-04-16T12:53:00.793Z</time></trkpt><trkpt lat="44.9307128" lon="9.5322524"><ele>259.0</ele><time>2026-04-16T12:53:01.793Z</time></trkpt><trkpt lat="44.9306382" lon="9.5323007"><ele>260.66666666666663</ele><time>2026-04-16T12:53:02.792Z</time></trkpt><trkpt lat="44.9305623" lon="9.5323393"><ele>262.3333333333333</ele><time>2026-04-16T12:53:03.793Z</time></trkpt><trkpt lat="44.9304876" lon="9.5323708"><ele>264.0</ele><time>2026-04-16T12:53:04.793Z</time></trkpt><trkpt lat="44.9304116" lon="9.5323938"><ele>265.6666666666667</ele><time>2026-04-16T12:53:05.794Z</time></trkpt><trkpt lat="44.9303368" lon="9.5324102"><ele>267.33333333333337</ele><time>2026-04-16T12:53:06.793Z</time></trkpt><trkpt lat="44.9302382" lon="9.5324205"><ele>269.0</ele><time>2026-04-16T12:53:07.792Z</time></trkpt><trkpt lat="44.9301302" lon="9.5324308"><ele>270.25</ele><time>2026-04-16T12:53:08.793Z</time></trkpt><trkpt lat="44.9300101" lon="9.5324489"><ele>271.5</ele><time>2026-04-16T12:53:09.793Z</time></trkpt><trkpt lat="44.9298843" lon="9.5324687"><ele>272.75</ele><time>2026-04-16T12:53:10.792Z</time></trkpt><trkpt lat="44.9297667" lon="9.5324823"><ele>274.0</ele><time>2026-04-16T12:53:11.793Z</time></trkpt><trkpt lat="44.9296481" lon="9.5324983"><ele>274.0</ele><time>2026-04-16T12:53:12.793Z</time></trkpt><trkpt lat="44.9295275" lon="9.5325161"><ele>274.0</ele><time>2026-04-16T12:53:13.793Z</time></trkpt><trkpt lat="44.9294139" lon="9.5325327"><ele>274.0</ele><time>2026-04-16T12:53:14.793Z</time></trkpt><trkpt lat="44.9293073" lon="9.5325458"><ele>274.0</ele><time>2026-04-16T12:53:15.791Z</time></trkpt><trkpt lat="44.9292163" lon="9.5325531"><ele>274.0</ele><time>2026-04-16T12:53:16.791Z</time></trkpt><trkpt lat="44.9291175" lon="9.5325655"><ele>276.0</ele><time>2026-04-16T12:53:17.793Z</time></trkpt><trkpt lat="44.9290063" lon="9.5325769"><ele>278.0</ele><time>2026-04-16T12:53:18.791Z</time></trkpt><trkpt lat="44.928892" lon="9.5325905"><ele>280.0</ele><time>2026-04-16T12:53:19.791Z</time></trkpt><trkpt lat="44.9287743" lon="9.5326088"><ele>282.0</ele><time>2026-04-16T12:53:20.791Z</time></trkpt><trkpt lat="44.9286695" lon="9.5326238"><ele>282.0</ele><time>2026-04-16T12:53:21.791Z</time></trkpt><trkpt lat="44.9285724" lon="9.532637"><ele>282.0</ele><time>2026-04-16T12:53:22.791Z</time></trkpt><trkpt lat="44.9284734" lon="9.5326504"><ele>282.0</ele><time>2026-04-16T12:53:23.791Z</time></trkpt><trkpt lat="44.9283757" lon="9.5326656"><ele>282.0</ele><time>2026-04-16T12:53:24.792Z</time></trkpt><trkpt lat="44.928279" lon="9.5326809"><ele>282.0</ele><time>2026-04-16T12:53:25.791Z</time></trkpt><trkpt lat="44.9281936" lon="9.5326949"><ele>283.1666666666667</ele><time>2026-04-16T12:53:26.792Z</time></trkpt><trkpt lat="44.9281191" lon="9.5327114"><ele>284.3333333333333</ele><time>2026-04-16T12:53:27.792Z</time></trkpt><trkpt lat="44.9280459" lon="9.5327362"><ele>285.5</ele><time>2026-04-16T12:53:28.792Z</time></trkpt><trkpt lat="44.9279824" lon="9.5327695"><ele>286.66666666666663</ele><time>2026-04-16T12:53:29.793Z</time></trkpt><trkpt lat="44.927928" lon="9.53282"><ele>287.8333333333333</ele><time>2026-04-16T12:53:30.792Z</time></trkpt><trkpt lat="44.9278714" lon="9.5328984"><ele>289.0</ele><time>2026-04-16T12:53:31.791Z</time></trkpt><trkpt lat="44.9278125" lon="9.5329972"><ele>290.0</ele><time>2026-04-16T12:53:32.792Z</time></trkpt><trkpt lat="44.9277479" lon="9.5330992"><ele>291.0</ele><time>2026-04-16T12:53:33.792Z</time></trkpt><trkpt lat="44.927681" lon="9.5332045"><ele>292.0</ele><time>2026-04-16T12:53:34.793Z</time></trkpt><trkpt lat="44.9276142" lon="9.5333117"><ele>293.0</ele><time>2026-04-16T12:53:35.792Z</time></trkpt><trkpt lat="44.9275447" lon="9.5334235"><ele>294.0</ele><time>2026-04-16T12:53:36.792Z</time></trkpt><trkpt lat="44.9274788" lon="9.5335292"><ele>295.8333333333333</ele><time>2026-04-16T12:53:37.792Z</time></trkpt><trkpt lat="44.9274205" lon="9.5336248"><ele>297.6666666666667</ele><time>2026-04-16T12:53:38.792Z</time></trkpt><trkpt lat="44.9273679" lon="9.5337088"><ele>299.5</ele><time>2026-04-16T12:53:39.792Z</time></trkpt><trkpt lat="44.9273295" lon="9.5337845"><ele>301.33333333333337</ele><time>2026-04-16T12:53:40.792Z</time></trkpt><trkpt lat="44.9272949" lon="9.5339014"><ele>303.1666666666667</ele><time>2026-04-16T12:53:42.791Z</time></trkpt><trkpt lat="44.9272763" lon="9.5339923"><ele>305.0</ele><time>2026-04-16T12:53:44.792Z</time></trkpt><trkpt lat="44.927261" lon="9.5340798"><ele>305.0</ele><time>2026-04-16T12:53:48.791Z</time></trkpt><trkpt lat="44.9272242" lon="9.5341869"><ele>305.0</ele><time>2026-04-16T12:53:59.791Z</time></trkpt><trkpt lat="44.927185" lon="9.5343774"><ele>305.0</ele><time>2026-04-16T12:54:01.792Z</time></trkpt><trkpt lat="44.9271508" lon="9.5344961"><ele>305.0</ele><time>2026-04-16T12:54:02.792Z</time></trkpt><trkpt lat="44.92711" lon="9.5346178"><ele>305.0</ele><time>2026-04-16T12:54:03.792Z</time></trkpt><trkpt lat="44.927063" lon="9.5347463"><ele>305.0</ele><time>2026-04-16T12:54:04.792Z</time></trkpt><trkpt lat="44.9270069" lon="9.5348812"><ele>305.0</ele><time>2026-04-16T12:54:05.792Z</time></trkpt><trkpt lat="44.9269476" lon="9.5350135"><ele>305.0</ele><time>2026-04-16T12:54:06.791Z</time></trkpt><trkpt lat="44.9268861" lon="9.535153"><ele>305.0</ele><time>2026-04-16T12:54:07.791Z</time></trkpt><trkpt lat="44.9268313" lon="9.5352944"><ele>305.6</ele><time>2026-04-16T12:54:08.792Z</time></trkpt><trkpt lat="44.9267777" lon="9.5354416"><ele>306.2</ele><time>2026-04-16T12:54:09.793Z</time></trkpt><trkpt lat="44.9267315" lon="9.5355904"><ele>306.8</ele><time>2026-04-16T12:54:10.792Z</time></trkpt><trkpt lat="44.9266945" lon="9.5357337"><ele>307.4</ele><time>2026-04-16T12:54:11.792Z</time></trkpt><trkpt lat="44.9266593" lon="9.5358619"><ele>308.0</ele><time>2026-04-16T12:54:12.792Z</time></trkpt><trkpt lat="44.9266112" lon="9.5359807"><ele>309.6</ele><time>2026-04-16T12:54:13.791Z</time></trkpt><trkpt lat="44.9265471" lon="9.5360865"><ele>311.20000000000005</ele><time>2026-04-16T12:54:14.792Z</time></trkpt><trkpt lat="44.9264785" lon="9.5361925"><ele>312.8</ele><time>2026-04-16T12:54:15.791Z</time></trkpt><trkpt lat="44.9264106" lon="9.5363052"><ele>314.40000000000003</ele><time>2026-04-16T12:54:16.793Z</time></trkpt><trkpt lat="44.9263501" lon="9.5364292"><ele>316.0</ele><time>2026-04-16T12:54:17.791Z</time></trkpt><trkpt lat="44.9262957" lon="9.5365567"><ele>317.4</ele><time>2026-04-16T12:54:18.791Z</time></trkpt><trkpt lat="44.9262421" lon="9.5366803"><ele>318.8</ele><time>2026-04-16T12:54:19.792Z</time></trkpt><trkpt lat="44.9261825" lon="9.5367883"><ele>320.2</ele><time>2026-04-16T12:54:20.793Z</time></trkpt><trkpt lat="44.926119" lon="9.5368803"><ele>321.59999999999997</ele><time>2026-04-16T12:54:21.793Z</time></trkpt><trkpt lat="44.9260477" lon="9.5369597"><ele>323.0</ele><time>2026-04-16T12:54:22.792Z</time></trkpt><trkpt lat="44.9259634" lon="9.5370275"><ele>324.5</ele><time>2026-04-16T12:54:23.792Z</time></trkpt><trkpt lat="44.9258704" lon="9.5370852"><ele>326.0</ele><time>2026-04-16T12:54:24.792Z</time></trkpt><trkpt lat="44.9257833" lon="9.5371292"><ele>327.5</ele><time>2026-04-16T12:54:25.792Z</time></trkpt><trkpt lat="44.9257068" lon="9.5371635"><ele>329.0</ele><time>2026-04-16T12:54:26.791Z</time></trkpt><trkpt lat="44.9256414" lon="9.5371883"><ele>330.5</ele><time>2026-04-16T12:54:27.791Z</time></trkpt><trkpt lat="44.9255722" lon="9.5371944"><ele>332.0</ele><time>2026-04-16T12:54:28.792Z</time></trkpt><trkpt lat="44.925496" lon="9.5371808"><ele>332.0</ele><time>2026-04-16T12:54:29.792Z</time></trkpt><trkpt lat="44.9254062" lon="9.5371378"><ele>332.0</ele><time>2026-04-16T12:54:30.791Z</time></trkpt><trkpt lat="44.9253196" lon="9.5370735"><ele>332.0</ele><time>2026-04-16T12:54:31.792Z</time></trkpt><trkpt lat="44.9252324" lon="9.5369882"><ele>332.0</ele><time>2026-04-16T12:54:32.792Z</time></trkpt><trkpt lat="44.9251428" lon="9.536893"><ele>332.0</ele><time>2026-04-16T12:54:33.791Z</time></trkpt><trkpt lat="44.9250446" lon="9.5367984"><ele>334.0</ele><time>2026-04-16T12:54:34.791Z</time></trkpt><trkpt lat="44.9249378" lon="9.5367222"><ele>336.0</ele><time>2026-04-16T12:54:35.792Z</time></trkpt><trkpt lat="44.9248237" lon="9.5366669"><ele>338.0</ele><time>2026-04-16T12:54:36.792Z</time></trkpt><trkpt lat="44.9246988" lon="9.5366311"><ele>340.0</ele><time>2026-04-16T12:54:37.792Z</time></trkpt><trkpt lat="44.9245705" lon="9.5366095"><ele>340.0</ele><time>2026-04-16T12:54:38.792Z</time></trkpt><trkpt lat="44.9244436" lon="9.5365896"><ele>340.0</ele><time>2026-04-16T12:54:39.792Z</time></trkpt><trkpt lat="44.9243272" lon="9.5365573"><ele>340.0</ele><time>2026-04-16T12:54:40.791Z</time></trkpt><trkpt lat="44.9242172" lon="9.5365157"><ele>340.0</ele><time>2026-04-16T12:54:41.792Z</time></trkpt><trkpt lat="44.9241163" lon="9.5364735"><ele>341.5</ele><time>2026-04-16T12:54:42.793Z</time></trkpt><trkpt lat="44.9240186" lon="9.5364518"><ele>343.0</ele><time>2026-04-16T12:54:43.792Z</time></trkpt><trkpt lat="44.9239286" lon="9.5364453"><ele>344.5</ele><time>2026-04-16T12:54:44.793Z</time></trkpt><trkpt lat="44.9238502" lon="9.5364626"><ele>346.0</ele><time>2026-04-16T12:54:45.791Z</time></trkpt><trkpt lat="44.9237899" lon="9.5365084"><ele>347.5</ele><time>2026-04-16T12:54:46.791Z</time></trkpt><trkpt lat="44.9237466" lon="9.5365912"><ele>349.0</ele><time>2026-04-16T12:54:47.792Z</time></trkpt><trkpt lat="44.9237091" lon="9.5367072"><ele>349.0</ele><time>2026-04-16T12:54:48.791Z</time></trkpt><trkpt lat="44.9236696" lon="9.536842"><ele>349.0</ele><time>2026-04-16T12:54:49.792Z</time></trkpt><trkpt lat="44.9236245" lon="9.536979"><ele>349.0</ele><time>2026-04-16T12:54:50.792Z</time></trkpt><trkpt lat="44.9235732" lon="9.5371102"><ele>349.0</ele><time>2026-04-16T12:54:51.792Z</time></trkpt><trkpt lat="44.9235194" lon="9.53724"><ele>349.0</ele><time>2026-04-16T12:54:52.791Z</time></trkpt><trkpt lat="44.9234596" lon="9.5373669"><ele>349.66666666666663</ele><time>2026-04-16T12:54:53.791Z</time></trkpt><trkpt lat="44.9233938" lon="9.5374839"><ele>350.3333333333333</ele><time>2026-04-16T12:54:54.792Z</time></trkpt><trkpt lat="44.9233219" lon="9.5375865"><ele>351.0</ele><time>2026-04-16T12:54:55.792Z</time></trkpt><trkpt lat="44.9232505" lon="9.5376598"><ele>351.6666666666667</ele><time>2026-04-16T12:54:56.793Z</time></trkpt><trkpt lat="44.9231784" lon="9.5377142"><ele>352.33333333333337</ele><time>2026-04-16T12:54:57.792Z</time></trkpt><trkpt lat="44.9231131" lon="9.5377436"><ele>353.0</ele><time>2026-04-16T12:54:58.792Z</time></trkpt><trkpt lat="44.9230366" lon="9.5377542"><ele>353.0</ele><time>2026-04-16T12:54:59.792Z</time></trkpt><trkpt lat="44.9229457" lon="9.5377412"><ele>353.0</ele><time>2026-04-16T12:55:00.792Z</time></trkpt><trkpt lat="44.922846" lon="9.5377155"><ele>353.0</ele><time>2026-04-16T12:55:01.792Z</time></trkpt><trkpt lat="44.9227381" lon="9.5376866"><ele>353.0</ele><time>2026-04-16T12:55:02.791Z</time></trkpt><trkpt lat="44.9226303" lon="9.5376808"><ele>353.0</ele><time>2026-04-16T12:55:03.793Z</time></trkpt><trkpt lat="44.9225155" lon="9.5376986"><ele>354.4</ele><time>2026-04-16T12:55:04.792Z</time></trkpt><trkpt lat="44.9224085" lon="9.5377272"><ele>355.79999999999995</ele><time>2026-04-16T12:55:05.792Z</time></trkpt><trkpt lat="44.9223113" lon="9.5377515"><ele>357.2</ele><time>2026-04-16T12:55:06.791Z</time></trkpt><trkpt lat="44.9222205" lon="9.5377806"><ele>358.6</ele><time>2026-04-16T12:55:07.792Z</time></trkpt><trkpt lat="44.9221303" lon="9.5378342"><ele>360.0</ele><time>2026-04-16T12:55:08.791Z</time></trkpt><trkpt lat="44.922032" lon="9.5379098"><ele>361.0</ele><time>2026-04-16T12:55:09.791Z</time></trkpt><trkpt lat="44.9219236" lon="9.5379989"><ele>362.0</ele><time>2026-04-16T12:55:10.792Z</time></trkpt><trkpt lat="44.9218067" lon="9.5380894"><ele>363.0</ele><time>2026-04-16T12:55:11.792Z</time></trkpt><trkpt lat="44.9216822" lon="9.538185"><ele>364.0</ele><time>2026-04-16T12:55:12.792Z</time></trkpt><trkpt lat="44.921546" lon="9.53828"><ele>364.0</ele><time>2026-04-16T12:55:13.792Z</time></trkpt><trkpt lat="44.9214153" lon="9.5383751"><ele>364.0</ele><time>2026-04-16T12:55:14.791Z</time></trkpt><trkpt lat="44.9212917" lon="9.5384596"><ele>364.0</ele><time>2026-04-16T12:55:15.792Z</time></trkpt><trkpt lat="44.9211742" lon="9.5385362"><ele>364.0</ele><time>2026-04-16T12:55:16.792Z</time></trkpt><trkpt lat="44.9210648" lon="9.5386026"><ele>364.0</ele><time>2026-04-16T12:55:17.791Z</time></trkpt><trkpt lat="44.920964" lon="9.5386594"><ele>364.0</ele><time>2026-04-16T12:55:18.791Z</time></trkpt><trkpt lat="44.9208725" lon="9.5387057"><ele>364.0</ele><time>2026-04-16T12:55:19.792Z</time></trkpt><trkpt lat="44.9207848" lon="9.5387436"><ele>364.0</ele><time>2026-04-16T12:55:20.792Z</time></trkpt><trkpt lat="44.9206926" lon="9.5387757"><ele>364.0</ele><time>2026-04-16T12:55:21.791Z</time></trkpt><trkpt lat="44.9205982" lon="9.5388168"><ele>363.6</ele><time>2026-04-16T12:55:22.792Z</time></trkpt><trkpt lat="44.9204983" lon="9.5388665"><ele>363.2</ele><time>2026-04-16T12:55:23.791Z</time></trkpt><trkpt lat="44.9203918" lon="9.5389223"><ele>362.8</ele><time>2026-04-16T12:55:24.792Z</time></trkpt><trkpt lat="44.9202849" lon="9.5389834"><ele>362.40000000000003</ele><time>2026-04-16T12:55:25.792Z</time></trkpt><trkpt lat="44.9201814" lon="9.5390455"><ele>362.0</ele><time>2026-04-16T12:55:26.793Z</time></trkpt><trkpt lat="44.9200852" lon="9.5391042"><ele>363.83333333333337</ele><time>2026-04-16T12:55:27.791Z</time></trkpt><trkpt lat="44.9200013" lon="9.5391563"><ele>365.6666666666667</ele><time>2026-04-16T12:55:28.791Z</time></trkpt><trkpt lat="44.9199192" lon="9.539204"><ele>367.5</ele><time>2026-04-16T12:55:29.791Z</time></trkpt><trkpt lat="44.9198415" lon="9.5392492"><ele>369.3333333333333</ele><time>2026-04-16T12:55:30.791Z</time></trkpt><trkpt lat="44.9197684" lon="9.5392973"><ele>371.16666666666663</ele><time>2026-04-16T12:55:31.792Z</time></trkpt><trkpt lat="44.9196988" lon="9.539342"><ele>373.0</ele><time>2026-04-16T12:55:32.792Z</time></trkpt><trkpt lat="44.9196308" lon="9.5393779"><ele>373.0</ele><time>2026-04-16T12:55:33.791Z</time></trkpt><trkpt lat="44.9195602" lon="9.5393987"><ele>373.0</ele><time>2026-04-16T12:55:34.792Z</time></trkpt><trkpt lat="44.9194895" lon="9.5393904"><ele>373.0</ele><time>2026-04-16T12:55:35.793Z</time></trkpt><trkpt lat="44.9194186" lon="9.5393667"><ele>373.0</ele><time>2026-04-16T12:55:36.791Z</time></trkpt><trkpt lat="44.9193501" lon="9.5393374"><ele>373.0</ele><time>2026-04-16T12:55:37.792Z</time></trkpt><trkpt lat="44.9192829" lon="9.5393037"><ele>373.0</ele><time>2026-04-16T12:55:38.791Z</time></trkpt><trkpt lat="44.9192142" lon="9.5392773"><ele>373.0</ele><time>2026-04-16T12:55:39.792Z</time></trkpt><trkpt lat="44.919149" lon="9.539274"><ele>375.2</ele><time>2026-04-16T12:55:40.792Z</time></trkpt><trkpt lat="44.9190522" lon="9.5393569"><ele>377.4</ele><time>2026-04-16T12:55:42.792Z</time></trkpt><trkpt lat="44.9189709" lon="9.539491"><ele>379.59999999999997</ele><time>2026-04-16T12:55:44.792Z</time></trkpt><trkpt lat="44.9189259" lon="9.5395689"><ele>381.79999999999995</ele><time>2026-04-16T12:55:45.792Z</time></trkpt><trkpt lat="44.9188751" lon="9.539644"><ele>384.0</ele><time>2026-04-16T12:55:46.791Z</time></trkpt><trkpt lat="44.9188172" lon="9.5397166"><ele>384.2</ele><time>2026-04-16T12:55:47.793Z</time></trkpt><trkpt lat="44.9187537" lon="9.5397908"><ele>384.4</ele><time>2026-04-16T12:55:48.792Z</time></trkpt><trkpt lat="44.9186856" lon="9.5398643"><ele>384.6</ele><time>2026-04-16T12:55:49.792Z</time></trkpt><trkpt lat="44.9186143" lon="9.539944"><ele>384.8</ele><time>2026-04-16T12:55:50.791Z</time></trkpt><trkpt lat="44.9185381" lon="9.5400268"><ele>385.0</ele><time>2026-04-16T12:55:51.792Z</time></trkpt><trkpt lat="44.9184617" lon="9.5401071"><ele>387.00000000000006</ele><time>2026-04-16T12:55:52.791Z</time></trkpt><trkpt lat="44.9183871" lon="9.5401826"><ele>389.0</ele><time>2026-04-16T12:55:53.791Z</time></trkpt><trkpt lat="44.9183181" lon="9.5402439"><ele>391.0</ele><time>2026-04-16T12:55:54.792Z</time></trkpt><trkpt lat="44.9182526" lon="9.5403023"><ele>393.0</ele><time>2026-04-16T12:55:55.791Z</time></trkpt><trkpt lat="44.9181892" lon="9.5403554"><ele>395.00000000000006</ele><time>2026-04-16T12:55:56.792Z</time></trkpt><trkpt lat="44.9181177" lon="9.5404003"><ele>397.0</ele><time>2026-04-16T12:55:57.791Z</time></trkpt><trkpt lat="44.9180484" lon="9.5404415"><ele>397.00000000000006</ele><time>2026-04-16T12:55:58.791Z</time></trkpt><trkpt lat="44.9179777" lon="9.5404737"><ele>397.0</ele><time>2026-04-16T12:55:59.791Z</time></trkpt><trkpt lat="44.9179108" lon="9.5405184"><ele>397.0</ele><time>2026-04-16T12:56:00.792Z</time></trkpt><trkpt lat="44.9178387" lon="9.5405563"><ele>397.0</ele><time>2026-04-16T12:56:01.792Z</time></trkpt><trkpt lat="44.9177662" lon="9.5405963"><ele>397.00000000000006</ele><time>2026-04-16T12:56:02.792Z</time></trkpt><trkpt lat="44.9176919" lon="9.5406429"><ele>397.0</ele><time>2026-04-16T12:56:03.792Z</time></trkpt><trkpt lat="44.9176205" lon="9.5406892"><ele>400.6666666666667</ele><time>2026-04-16T12:56:04.792Z</time></trkpt><trkpt lat="44.9175504" lon="9.540736"><ele>404.33333333333337</ele><time>2026-04-16T12:56:05.792Z</time></trkpt><trkpt lat="44.9174894" lon="9.5407797"><ele>408.0</ele><time>2026-04-16T12:56:06.792Z</time></trkpt><trkpt lat="44.9174319" lon="9.5408188"><ele>411.66666666666663</ele><time>2026-04-16T12:56:07.792Z</time></trkpt><trkpt lat="44.9173731" lon="9.5408574"><ele>415.3333333333333</ele><time>2026-04-16T12:56:08.791Z</time></trkpt><trkpt lat="44.9172704" lon="9.5409197"><ele>419.0</ele><time>2026-04-16T12:56:10.791Z</time></trkpt><trkpt lat="44.9171589" lon="9.540972"><ele>418.99999999999994</ele><time>2026-04-16T12:56:12.791Z</time></trkpt><trkpt lat="44.917049" lon="9.5410691"><ele>419.0</ele><time>2026-04-16T12:56:14.792Z</time></trkpt><trkpt lat="44.9169843" lon="9.5411248"><ele>419.0</ele><time>2026-04-16T12:56:15.791Z</time></trkpt><trkpt lat="44.916918" lon="9.5411885"><ele>419.0</ele><time>2026-04-16T12:56:16.792Z</time></trkpt><trkpt lat="44.9168578" lon="9.5412488"><ele>418.99999999999994</ele><time>2026-04-16T12:56:17.791Z</time></trkpt><trkpt lat="44.916805" lon="9.5413073"><ele>419.0</ele><time>2026-04-16T12:56:18.792Z</time></trkpt><trkpt lat="44.9167576" lon="9.5413711"><ele>420.2</ele><time>2026-04-16T12:56:19.792Z</time></trkpt><trkpt lat="44.9166641" lon="9.5414695"><ele>421.4</ele><time>2026-04-16T12:56:21.792Z</time></trkpt><trkpt lat="44.9165874" lon="9.541523"><ele>422.6</ele><time>2026-04-16T12:56:23.792Z</time></trkpt><trkpt lat="44.9165089" lon="9.5415271"><ele>423.8</ele><time>2026-04-16T12:56:25.792Z</time></trkpt><trkpt lat="44.9164034" lon="9.5414808"><ele>425.0</ele><time>2026-04-16T12:56:27.791Z</time></trkpt><trkpt lat="44.916338" lon="9.5414549"><ele>425.0</ele><time>2026-04-16T12:56:28.792Z</time></trkpt><trkpt lat="44.9162673" lon="9.5414271"><ele>425.0</ele><time>2026-04-16T12:56:29.792Z</time></trkpt><trkpt lat="44.9161942" lon="9.5414035"><ele>425.0</ele><time>2026-04-16T12:56:30.792Z</time></trkpt><trkpt lat="44.91613" lon="9.5413874"><ele>425.0</ele><time>2026-04-16T12:56:31.792Z</time></trkpt><trkpt lat="44.9160669" lon="9.5413774"><ele>425.0</ele><time>2026-04-16T12:56:32.792Z</time></trkpt><trkpt lat="44.9160015" lon="9.5413648"><ele>425.0</ele><time>2026-04-16T12:56:33.791Z</time></trkpt><trkpt lat="44.9159304" lon="9.5413465"><ele>425.0</ele><time>2026-04-16T12:56:34.791Z</time></trkpt><trkpt lat="44.9158567" lon="9.5413302"><ele>426.8333333333333</ele><time>2026-04-16T12:56:35.791Z</time></trkpt><trkpt lat="44.9157839" lon="9.5413202"><ele>428.66666666666663</ele><time>2026-04-16T12:56:36.791Z</time></trkpt><trkpt lat="44.915662" lon="9.5413033"><ele>430.5</ele><time>2026-04-16T12:56:38.791Z</time></trkpt><trkpt lat="44.9155948" lon="9.5412792"><ele>432.33333333333337</ele><time>2026-04-16T12:56:39.793Z</time></trkpt><trkpt lat="44.9155236" lon="9.5412551"><ele>434.1666666666667</ele><time>2026-04-16T12:56:40.792Z</time></trkpt><trkpt lat="44.9154429" lon="9.5412344"><ele>436.0</ele><time>2026-04-16T12:56:41.792Z</time></trkpt><trkpt lat="44.915357" lon="9.5412113"><ele>436.33333333333337</ele><time>2026-04-16T12:56:42.792Z</time></trkpt><trkpt lat="44.9152708" lon="9.5411881"><ele>436.6666666666667</ele><time>2026-04-16T12:56:43.792Z</time></trkpt><trkpt lat="44.915184" lon="9.5411629"><ele>437.0</ele><time>2026-04-16T12:56:44.792Z</time></trkpt><trkpt lat="44.9150964" lon="9.5411338"><ele>437.33333333333337</ele><time>2026-04-16T12:56:45.792Z</time></trkpt><trkpt lat="44.915013" lon="9.5411089"><ele>437.6666666666667</ele><time>2026-04-16T12:56:46.792Z</time></trkpt><trkpt lat="44.9149359" lon="9.5410855"><ele>438.0</ele><time>2026-04-16T12:56:47.792Z</time></trkpt><trkpt lat="44.9148599" lon="9.5410602"><ele>439.5</ele><time>2026-04-16T12:56:48.792Z</time></trkpt><trkpt lat="44.9147804" lon="9.5410398"><ele>441.0</ele><time>2026-04-16T12:56:49.791Z</time></trkpt><trkpt lat="44.9147007" lon="9.5410333"><ele>442.5</ele><time>2026-04-16T12:56:50.792Z</time></trkpt><trkpt lat="44.9146228" lon="9.5410319"><ele>444.0</ele><time>2026-04-16T12:56:51.793Z</time></trkpt><trkpt lat="44.9145473" lon="9.541034"><ele>445.5</ele><time>2026-04-16T12:56:52.792Z</time></trkpt><trkpt lat="44.9144753" lon="9.5410496"><ele>447.0</ele><time>2026-04-16T12:56:53.791Z</time></trkpt><trkpt lat="44.9144043" lon="9.5410759"><ele>446.99999999999994</ele><time>2026-04-16T12:56:54.792Z</time></trkpt><trkpt lat="44.9143321" lon="9.5410988"><ele>447.0</ele><time>2026-04-16T12:56:55.791Z</time></trkpt><trkpt lat="44.9142617" lon="9.541114"><ele>447.0</ele><time>2026-04-16T12:56:56.791Z</time></trkpt><trkpt lat="44.9141935" lon="9.5411188"><ele>447.0</ele><time>2026-04-16T12:56:57.792Z</time></trkpt><trkpt lat="44.9141234" lon="9.5411255"><ele>447.0</ele><time>2026-04-16T12:56:58.793Z</time></trkpt><trkpt lat="44.9140515" lon="9.5411393"><ele>446.99999999999994</ele><time>2026-04-16T12:56:59.791Z</time></trkpt><trkpt lat="44.9139838" lon="9.5411587"><ele>447.0</ele><time>2026-04-16T12:57:00.791Z</time></trkpt><trkpt lat="44.9138858" lon="9.5411719"><ele>448.2857142857142</ele><time>2026-04-16T12:57:02.792Z</time></trkpt><trkpt lat="44.913818" lon="9.5411841"><ele>449.57142857142856</ele><time>2026-04-16T12:57:38.791Z</time></trkpt><trkpt lat="44.9137526" lon="9.5411732"><ele>450.85714285714283</ele><time>2026-04-16T12:57:40.792Z</time></trkpt><trkpt lat="44.9138235" lon="9.5411917"><ele>452.1428571428571</ele><time>2026-04-16T12:58:05.791Z</time></trkpt><trkpt lat="44.913891" lon="9.5411796"><ele>453.4285714285714</ele><time>2026-04-16T12:58:07.792Z</time></trkpt><trkpt lat="44.9139616" lon="9.541161"><ele>454.71428571428567</ele><time>2026-04-16T12:58:09.791Z</time></trkpt><trkpt lat="44.9140334" lon="9.5411508"><ele>456.0</ele><time>2026-04-16T12:58:11.791Z</time></trkpt><trkpt lat="44.9141105" lon="9.5411406"><ele>456.0</ele><time>2026-04-16T12:58:13.791Z</time></trkpt><trkpt lat="44.9141787" lon="9.5411269"><ele>456.0</ele><time>2026-04-16T12:58:15.792Z</time></trkpt><trkpt lat="44.9142651" lon="9.5411148"><ele>456.0</ele><time>2026-04-16T12:58:18.791Z</time></trkpt><trkpt lat="44.9142526" lon="9.5412024"><ele>456.0</ele><time>2026-04-16T12:58:30.792Z</time></trkpt><trkpt lat="44.9141919" lon="9.5412737"><ele>456.0</ele><time>2026-04-16T12:58:50.79Z</time></trkpt><trkpt lat="44.9141284" lon="9.541397"><ele>456.0</ele><time>2026-04-16T12:58:52.791Z</time></trkpt><trkpt lat="44.914093" lon="9.5414737"><ele>456.0</ele><time>2026-04-16T12:58:53.79Z</time></trkpt><trkpt lat="44.9140609" lon="9.5415555"><ele>456.0</ele><time>2026-04-16T12:58:54.791Z</time></trkpt><trkpt lat="44.9140075" lon="9.5416979"><ele>456.0</ele><time>2026-04-16T12:58:56.79Z</time></trkpt><trkpt lat="44.913968" lon="9.541817"><ele>456.0</ele><time>2026-04-16T12:58:58.79Z</time></trkpt><trkpt lat="44.913931" lon="9.5419479"><ele>456.0</ele><time>2026-04-16T12:59:00.791Z</time></trkpt><trkpt lat="44.9138995" lon="9.5420704"><ele>455.1666666666667</ele><time>2026-04-16T12:59:02.791Z</time></trkpt><trkpt lat="44.9138842" lon="9.5422134"><ele>454.33333333333337</ele><time>2026-04-16T12:59:04.791Z</time></trkpt><trkpt lat="44.9138784" lon="9.5423249"><ele>453.5</ele><time>2026-04-16T12:59:06.791Z</time></trkpt><trkpt lat="44.9138729" lon="9.5424336"><ele>452.6666666666667</ele><time>2026-04-16T12:59:09.79Z</time></trkpt><trkpt lat="44.9138731" lon="9.5425447"><ele>451.83333333333337</ele><time>2026-04-16T12:59:12.79Z</time></trkpt><trkpt lat="44.9138795" lon="9.5426598"><ele>451.0</ele><time>2026-04-16T12:59:14.79Z</time></trkpt><trkpt lat="44.9138907" lon="9.5427589"><ele>451.0</ele><time>2026-04-16T12:59:16.791Z</time></trkpt><trkpt lat="44.9139125" lon="9.5428672"><ele>451.0</ele><time>2026-04-16T12:59:19.79Z</time></trkpt><trkpt lat="44.9139364" lon="9.5429973"><ele>451.0</ele><time>2026-04-16T12:59:21.791Z</time></trkpt><trkpt lat="44.9139632" lon="9.5431424"><ele>451.0</ele><time>2026-04-16T12:59:23.79Z</time></trkpt><trkpt lat="44.9139955" lon="9.5432881"><ele>451.0</ele><time>2026-04-16T12:59:25.791Z</time></trkpt><trkpt lat="44.9140316" lon="9.543437"><ele>451.50000000000006</ele><time>2026-04-16T12:59:27.791Z</time></trkpt><trkpt lat="44.9140632" lon="9.5435738"><ele>452.0</ele><time>2026-04-16T12:59:29.791Z</time></trkpt><trkpt lat="44.9140685" lon="9.5436838"><ele>452.5</ele><time>2026-04-16T12:59:31.79Z</time></trkpt><trkpt lat="44.9140561" lon="9.5437944"><ele>453.0</ele><time>2026-04-16T12:59:33.791Z</time></trkpt><trkpt lat="44.9140266" lon="9.5439245"><ele>453.50000000000006</ele><time>2026-04-16T12:59:35.791Z</time></trkpt><trkpt lat="44.9140008" lon="9.5440416"><ele>454.0</ele><time>2026-04-16T12:59:37.791Z</time></trkpt><trkpt lat="44.9139815" lon="9.5441666"><ele>454.2</ele><time>2026-04-16T12:59:39.791Z</time></trkpt><trkpt lat="44.9139722" lon="9.5443171"><ele>454.4</ele><time>2026-04-16T12:59:41.791Z</time></trkpt><trkpt lat="44.9139777" lon="9.5444558"><ele>454.6</ele><time>2026-04-16T12:59:43.791Z</time></trkpt><trkpt lat="44.9139697" lon="9.5446115"><ele>454.8</ele><time>2026-04-16T12:59:45.791Z</time></trkpt><trkpt lat="44.9139659" lon="9.5447799"><ele>455.0</ele><time>2026-04-16T12:59:47.79Z</time></trkpt><trkpt lat="44.9139656" lon="9.5448962"><ele>455.49999999999994</ele><time>2026-04-16T12:59:49.791Z</time></trkpt><trkpt lat="44.9139568" lon="9.5450041"><ele>456.0</ele><time>2026-04-16T12:59:51.791Z</time></trkpt><trkpt lat="44.9139317" lon="9.5450998"><ele>456.5</ele><time>2026-04-16T12:59:53.791Z</time></trkpt><trkpt lat="44.9138806" lon="9.5451539"><ele>457.0</ele><time>2026-04-16T12:59:55.791Z</time></trkpt><trkpt lat="44.9137948" lon="9.5452026"><ele>457.49999999999994</ele><time>2026-04-16T12:59:57.791Z</time></trkpt><trkpt lat="44.9137016" lon="9.5452441"><ele>458.0</ele><time>2026-04-16T12:59:59.791Z</time></trkpt><trkpt lat="44.9136034" lon="9.5452848"><ele>457.99999999999994</ele><time>2026-04-16T13:00:01.791Z</time></trkpt><trkpt lat="44.9135076" lon="9.5453305"><ele>458.0</ele><time>2026-04-16T13:00:03.791Z</time></trkpt><trkpt lat="44.9134196" lon="9.5453702"><ele>458.0</ele><time>2026-04-16T13:00:05.791Z</time></trkpt><trkpt lat="44.9133391" lon="9.5454159"><ele>458.0</ele><time>2026-04-16T13:00:07.79Z</time></trkpt><trkpt lat="44.9132669" lon="9.5454536"><ele>457.99999999999994</ele><time>2026-04-16T13:00:09.791Z</time></trkpt><trkpt lat="44.9132042" lon="9.5454842"><ele>458.0</ele><time>2026-04-16T13:00:11.79Z</time></trkpt><trkpt lat="44.9131242" lon="9.5455232"><ele>456.99999999999994</ele><time>2026-04-16T13:00:14.79Z</time></trkpt><trkpt lat="44.9130573" lon="9.5455593"><ele>456.0</ele><time>2026-04-16T13:00:16.79Z</time></trkpt><trkpt lat="44.9129974" lon="9.5455926"><ele>455.0</ele><time>2026-04-16T13:00:18.791Z</time></trkpt><trkpt lat="44.9129095" lon="9.5456243"><ele>454.0</ele><time>2026-04-16T13:00:20.792Z</time></trkpt><trkpt lat="44.9128147" lon="9.5456597"><ele>452.99999999999994</ele><time>2026-04-16T13:00:22.79Z</time></trkpt><trkpt lat="44.9127216" lon="9.5456908"><ele>452.0</ele><time>2026-04-16T13:00:24.79Z</time></trkpt><trkpt lat="44.9126134" lon="9.5457456"><ele>452.40000000000003</ele><time>2026-04-16T13:00:26.792Z</time></trkpt><trkpt lat="44.912555" lon="9.5457791"><ele>452.80000000000007</ele><time>2026-04-16T13:00:27.79Z</time></trkpt><trkpt lat="44.9124572" lon="9.5458378"><ele>453.2</ele><time>2026-04-16T13:00:29.792Z</time></trkpt><trkpt lat="44.9123615" lon="9.5458761"><ele>453.6</ele><time>2026-04-16T13:00:31.791Z</time></trkpt><trkpt lat="44.9122521" lon="9.5459143"><ele>454.0</ele><time>2026-04-16T13:00:33.79Z</time></trkpt><trkpt lat="44.9121442" lon="9.5459495"><ele>454.00000000000006</ele><time>2026-04-16T13:00:35.79Z</time></trkpt><trkpt lat="44.9120301" lon="9.5459922"><ele>454.0</ele><time>2026-04-16T13:00:37.791Z</time></trkpt><trkpt lat="44.9119652" lon="9.546019"><ele>454.0</ele><time>2026-04-16T13:00:38.79Z</time></trkpt><trkpt lat="44.9119007" lon="9.5460464"><ele>454.0</ele><time>2026-04-16T13:00:39.79Z</time></trkpt><trkpt lat="44.9118347" lon="9.5460683"><ele>454.00000000000006</ele><time>2026-04-16T13:00:40.791Z</time></trkpt><trkpt lat="44.9117672" lon="9.5460828"><ele>454.0</ele><time>2026-04-16T13:00:41.791Z</time></trkpt><trkpt lat="44.9117021" lon="9.5460984"><ele>453.79999999999995</ele><time>2026-04-16T13:00:42.791Z</time></trkpt><trkpt lat="44.9116387" lon="9.5461253"><ele>453.59999999999997</ele><time>2026-04-16T13:00:43.79Z</time></trkpt><trkpt lat="44.9115294" lon="9.5462119"><ele>453.4</ele><time>2026-04-16T13:00:45.791Z</time></trkpt><trkpt lat="44.9114608" lon="9.5462753"><ele>453.2</ele><time>2026-04-16T13:00:46.79Z</time></trkpt><trkpt lat="44.9113813" lon="9.5463329"><ele>453.0</ele><time>2026-04-16T13:00:47.79Z</time></trkpt><trkpt lat="44.9112893" lon="9.546389"><ele>453.0</ele><time>2026-04-16T13:00:48.791Z</time></trkpt><trkpt lat="44.9111889" lon="9.5464451"><ele>452.99999999999994</ele><time>2026-04-16T13:00:49.791Z</time></trkpt><trkpt lat="44.911088" lon="9.5465051"><ele>452.99999999999994</ele><time>2026-04-16T13:00:50.791Z</time></trkpt><trkpt lat="44.9109928" lon="9.5465698"><ele>453.0</ele><time>2026-04-16T13:00:51.791Z</time></trkpt><trkpt lat="44.9109018" lon="9.5466336"><ele>453.0</ele><time>2026-04-16T13:00:52.79Z</time></trkpt><trkpt lat="44.9108095" lon="9.5466957"><ele>454.25</ele><time>2026-04-16T13:00:53.79Z</time></trkpt><trkpt lat="44.9107092" lon="9.5467575"><ele>455.5</ele><time>2026-04-16T13:00:54.791Z</time></trkpt><trkpt lat="44.9105951" lon="9.5468231"><ele>456.75</ele><time>2026-04-16T13:00:55.791Z</time></trkpt><trkpt lat="44.9104723" lon="9.5468911"><ele>458.0</ele><time>2026-04-16T13:00:56.791Z</time></trkpt><trkpt lat="44.9103502" lon="9.5469584"><ele>458.0</ele><time>2026-04-16T13:00:57.791Z</time></trkpt><trkpt lat="44.9102257" lon="9.5470295"><ele>458.0</ele><time>2026-04-16T13:00:58.791Z</time></trkpt><trkpt lat="44.9100991" lon="9.5471052"><ele>458.0</ele><time>2026-04-16T13:00:59.791Z</time></trkpt><trkpt lat="44.9099705" lon="9.5471863"><ele>458.0</ele><time>2026-04-16T13:01:00.79Z</time></trkpt><trkpt lat="44.9098434" lon="9.5472644"><ele>457.0</ele><time>2026-04-16T13:01:01.79Z</time></trkpt><trkpt lat="44.9097231" lon="9.5473419"><ele>456.0</ele><time>2026-04-16T13:01:02.791Z</time></trkpt><trkpt lat="44.9096155" lon="9.5474215"><ele>455.0</ele><time>2026-04-16T13:01:03.791Z</time></trkpt><trkpt lat="44.9095249" lon="9.5475035"><ele>454.0</ele><time>2026-04-16T13:01:04.79Z</time></trkpt><trkpt lat="44.9094409" lon="9.5475929"><ele>454.0</ele><time>2026-04-16T13:01:05.79Z</time></trkpt><trkpt lat="44.9093661" lon="9.5476883"><ele>454.0</ele><time>2026-04-16T13:01:06.791Z</time></trkpt><trkpt lat="44.9092869" lon="9.5477954"><ele>454.0</ele><time>2026-04-16T13:01:07.791Z</time></trkpt><trkpt lat="44.9092184" lon="9.5478926"><ele>454.0</ele><time>2026-04-16T13:01:08.79Z</time></trkpt><trkpt lat="44.9091623" lon="9.5479944"><ele>454.0</ele><time>2026-04-16T13:01:09.79Z</time></trkpt><trkpt lat="44.9091252" lon="9.5480984"><ele>453.83333333333337</ele><time>2026-04-16T13:01:10.792Z</time></trkpt><trkpt lat="44.9091031" lon="9.5482066"><ele>453.6666666666667</ele><time>2026-04-16T13:01:11.792Z</time></trkpt><trkpt lat="44.9090896" lon="9.5483216"><ele>453.5</ele><time>2026-04-16T13:01:12.792Z</time></trkpt><trkpt lat="44.9090713" lon="9.5484381"><ele>453.33333333333337</ele><time>2026-04-16T13:01:13.791Z</time></trkpt><trkpt lat="44.9090396" lon="9.5485556"><ele>453.1666666666667</ele><time>2026-04-16T13:01:14.79Z</time></trkpt><trkpt lat="44.9089941" lon="9.548678"><ele>453.0</ele><time>2026-04-16T13:01:15.791Z</time></trkpt><trkpt lat="44.9089451" lon="9.5488054"><ele>453.0</ele><time>2026-04-16T13:01:16.791Z</time></trkpt><trkpt lat="44.9088944" lon="9.5489379"><ele>452.99999999999994</ele><time>2026-04-16T13:01:17.792Z</time></trkpt><trkpt lat="44.9088481" lon="9.5490753"><ele>452.99999999999994</ele><time>2026-04-16T13:01:18.79Z</time></trkpt><trkpt lat="44.9088019" lon="9.5492152"><ele>453.0</ele><time>2026-04-16T13:01:19.791Z</time></trkpt><trkpt lat="44.9087477" lon="9.5493539"><ele>453.0</ele><time>2026-04-16T13:01:20.79Z</time></trkpt><trkpt lat="44.9086868" lon="9.5494922"><ele>450.25</ele><time>2026-04-16T13:01:21.791Z</time></trkpt><trkpt lat="44.908623" lon="9.5496325"><ele>447.5</ele><time>2026-04-16T13:01:22.791Z</time></trkpt><trkpt lat="44.9085572" lon="9.5497749"><ele>444.75</ele><time>2026-04-16T13:01:23.791Z</time></trkpt><trkpt lat="44.9084915" lon="9.5499184"><ele>442.0</ele><time>2026-04-16T13:01:24.792Z</time></trkpt><trkpt lat="44.9084314" lon="9.5500537"><ele>444.8</ele><time>2026-04-16T13:01:25.791Z</time></trkpt><trkpt lat="44.9083779" lon="9.5501837"><ele>447.6</ele><time>2026-04-16T13:01:26.79Z</time></trkpt><trkpt lat="44.9083295" lon="9.5503002"><ele>450.40000000000003</ele><time>2026-04-16T13:01:27.791Z</time></trkpt><trkpt lat="44.9082756" lon="9.5503996"><ele>453.20000000000005</ele><time>2026-04-16T13:01:28.79Z</time></trkpt><trkpt lat="44.9082342" lon="9.5505092"><ele>456.0</ele><time>2026-04-16T13:01:29.791Z</time></trkpt><trkpt lat="44.9082012" lon="9.5506179"><ele>456.0</ele><time>2026-04-16T13:01:30.791Z</time></trkpt><trkpt lat="44.9081818" lon="9.5507277"><ele>456.0</ele><time>2026-04-16T13:01:31.79Z</time></trkpt><trkpt lat="44.9081736" lon="9.5508496"><ele>456.0</ele><time>2026-04-16T13:01:32.791Z</time></trkpt><trkpt lat="44.9081659" lon="9.5509826"><ele>456.0</ele><time>2026-04-16T13:01:33.791Z</time></trkpt><trkpt lat="44.9081534" lon="9.5511259"><ele>456.0</ele><time>2026-04-16T13:01:34.792Z</time></trkpt><trkpt lat="44.9081316" lon="9.5512756"><ele>454.8</ele><time>2026-04-16T13:01:35.79Z</time></trkpt><trkpt lat="44.908102" lon="9.5514333"><ele>453.6</ele><time>2026-04-16T13:01:36.791Z</time></trkpt><trkpt lat="44.9080684" lon="9.5515947"><ele>452.4</ele><time>2026-04-16T13:01:37.791Z</time></trkpt><trkpt lat="44.9080345" lon="9.5517405"><ele>451.2</ele><time>2026-04-16T13:01:38.79Z</time></trkpt><trkpt lat="44.9079998" lon="9.5518642"><ele>450.0</ele><time>2026-04-16T13:01:39.791Z</time></trkpt><trkpt lat="44.9079584" lon="9.551962"><ele>450.0</ele><time>2026-04-16T13:01:40.791Z</time></trkpt><trkpt lat="44.9079112" lon="9.552032"><ele>450.0</ele><time>2026-04-16T13:01:41.791Z</time></trkpt><trkpt lat="44.9077969" lon="9.552117"><ele>450.0</ele><time>2026-04-16T13:01:43.791Z</time></trkpt><trkpt lat="44.907725" lon="9.5521612"><ele>450.0</ele><time>2026-04-16T13:01:44.791Z</time></trkpt><trkpt lat="44.9076546" lon="9.5522015"><ele>450.0</ele><time>2026-04-16T13:01:45.79Z</time></trkpt><trkpt lat="44.9075892" lon="9.5522394"><ele>450.0</ele><time>2026-04-16T13:01:46.79Z</time></trkpt><trkpt lat="44.9075282" lon="9.552283"><ele>451.3333333333333</ele><time>2026-04-16T13:01:47.791Z</time></trkpt><trkpt lat="44.90747" lon="9.5523381"><ele>452.66666666666663</ele><time>2026-04-16T13:01:48.79Z</time></trkpt><trkpt lat="44.9074115" lon="9.5524052"><ele>454.0</ele><time>2026-04-16T13:01:49.792Z</time></trkpt><trkpt lat="44.9073564" lon="9.5524843"><ele>455.3333333333333</ele><time>2026-04-16T13:01:50.791Z</time></trkpt><trkpt lat="44.9072954" lon="9.5525636"><ele>456.66666666666663</ele><time>2026-04-16T13:01:51.791Z</time></trkpt><trkpt lat="44.9072282" lon="9.5526341"><ele>458.0</ele><time>2026-04-16T13:01:52.791Z</time></trkpt><trkpt lat="44.9071583" lon="9.5526937"><ele>457.99999999999994</ele><time>2026-04-16T13:01:53.79Z</time></trkpt><trkpt lat="44.9070859" lon="9.5527431"><ele>458.0</ele><time>2026-04-16T13:01:54.791Z</time></trkpt><trkpt lat="44.9070147" lon="9.552791"><ele>458.0</ele><time>2026-04-16T13:01:55.791Z</time></trkpt><trkpt lat="44.9069506" lon="9.5528523"><ele>458.0</ele><time>2026-04-16T13:01:56.79Z</time></trkpt><trkpt lat="44.9068917" lon="9.5529241"><ele>457.99999999999994</ele><time>2026-04-16T13:01:57.791Z</time></trkpt><trkpt lat="44.9068339" lon="9.5530041"><ele>458.0</ele><time>2026-04-16T13:01:58.791Z</time></trkpt><trkpt lat="44.9067761" lon="9.5530848"><ele>456.79999999999995</ele><time>2026-04-16T13:01:59.791Z</time></trkpt><trkpt lat="44.9067108" lon="9.5531544"><ele>455.59999999999997</ele><time>2026-04-16T13:02:00.791Z</time></trkpt><trkpt lat="44.9066332" lon="9.5532191"><ele>454.40000000000003</ele><time>2026-04-16T13:02:01.791Z</time></trkpt><trkpt lat="44.9065464" lon="9.5532824"><ele>453.20000000000005</ele><time>2026-04-16T13:02:02.791Z</time></trkpt><trkpt lat="44.9064583" lon="9.5533507"><ele>452.0</ele><time>2026-04-16T13:02:03.791Z</time></trkpt><trkpt lat="44.9063681" lon="9.5534126"><ele>451.99999999999994</ele><time>2026-04-16T13:02:04.791Z</time></trkpt><trkpt lat="44.90628" lon="9.5534625"><ele>452.0</ele><time>2026-04-16T13:02:05.79Z</time></trkpt><trkpt lat="44.9061932" lon="9.5534938"><ele>452.0</ele><time>2026-04-16T13:02:06.792Z</time></trkpt><trkpt lat="44.9061124" lon="9.5535168"><ele>452.0</ele><time>2026-04-16T13:02:07.79Z</time></trkpt><trkpt lat="44.9060372" lon="9.5535389"><ele>451.99999999999994</ele><time>2026-04-16T13:02:08.791Z</time></trkpt><trkpt lat="44.9059675" lon="9.5535649"><ele>452.0</ele><time>2026-04-16T13:02:09.79Z</time></trkpt><trkpt lat="44.9059055" lon="9.5535928"><ele>451.6</ele><time>2026-04-16T13:02:10.791Z</time></trkpt><trkpt lat="44.905786" lon="9.5536276"><ele>451.20000000000005</ele><time>2026-04-16T13:02:12.79Z</time></trkpt><trkpt lat="44.9057181" lon="9.553624"><ele>450.8</ele><time>2026-04-16T13:02:13.79Z</time></trkpt><trkpt lat="44.9056426" lon="9.5535946"><ele>450.4</ele><time>2026-04-16T13:02:14.792Z</time></trkpt><trkpt lat="44.9055512" lon="9.5535552"><ele>450.0</ele><time>2026-04-16T13:02:15.791Z</time></trkpt><trkpt lat="44.9054512" lon="9.5535212"><ele>450.0</ele><time>2026-04-16T13:02:16.791Z</time></trkpt><trkpt lat="44.9053448" lon="9.5534945"><ele>450.0</ele><time>2026-04-16T13:02:17.791Z</time></trkpt><trkpt lat="44.9052325" lon="9.5534871"><ele>450.0</ele><time>2026-04-16T13:02:18.79Z</time></trkpt><trkpt lat="44.9051318" lon="9.5535201"><ele>450.0</ele><time>2026-04-16T13:02:19.791Z</time></trkpt><trkpt lat="44.9050536" lon="9.5535878"><ele>450.0</ele><time>2026-04-16T13:02:20.791Z</time></trkpt><trkpt lat="44.9049915" lon="9.5536822"><ele>449.5</ele><time>2026-04-16T13:02:21.791Z</time></trkpt><trkpt lat="44.9049285" lon="9.5537998"><ele>449.0</ele><time>2026-04-16T13:02:22.79Z</time></trkpt><trkpt lat="44.904856" lon="9.5539208"><ele>448.5</ele><time>2026-04-16T13:02:23.791Z</time></trkpt><trkpt lat="44.9047655" lon="9.5540366"><ele>448.0</ele><time>2026-04-16T13:02:24.79Z</time></trkpt><trkpt lat="44.9046676" lon="9.5541549"><ele>448.0</ele><time>2026-04-16T13:02:25.791Z</time></trkpt><trkpt lat="44.904567" lon="9.5542722"><ele>448.0</ele><time>2026-04-16T13:02:26.791Z</time></trkpt><trkpt lat="44.9044615" lon="9.5543875"><ele>448.0</ele><time>2026-04-16T13:02:27.79Z</time></trkpt><trkpt lat="44.9043551" lon="9.5544966"><ele>448.0</ele><time>2026-04-16T13:02:28.79Z</time></trkpt><trkpt lat="44.9042529" lon="9.5545966"><ele>450.2</ele><time>2026-04-16T13:02:29.79Z</time></trkpt><trkpt lat="44.9041615" lon="9.554684"><ele>452.4</ele><time>2026-04-16T13:02:30.79Z</time></trkpt><trkpt lat="44.9040707" lon="9.5547392"><ele>454.59999999999997</ele><time>2026-04-16T13:02:31.792Z</time></trkpt><trkpt lat="44.9039774" lon="9.5547709"><ele>456.79999999999995</ele><time>2026-04-16T13:02:32.791Z</time></trkpt><trkpt lat="44.9038821" lon="9.5547888"><ele>459.0</ele><time>2026-04-16T13:02:33.791Z</time></trkpt><trkpt lat="44.903791" lon="9.5547965"><ele>459.0</ele><time>2026-04-16T13:02:34.791Z</time></trkpt><trkpt lat="44.9037099" lon="9.5547996"><ele>459.0</ele><time>2026-04-16T13:02:35.792Z</time></trkpt><trkpt lat="44.903646" lon="9.5547956"><ele>459.0</ele><time>2026-04-16T13:02:36.791Z</time></trkpt><trkpt lat="44.9035834" lon="9.5547163"><ele>459.0</ele><time>2026-04-16T13:02:38.792Z</time></trkpt><trkpt lat="44.9035807" lon="9.5545355"><ele>459.0</ele><time>2026-04-16T13:02:40.79Z</time></trkpt><trkpt lat="44.9035677" lon="9.5544343"><ele>459.0</ele><time>2026-04-16T13:02:41.792Z</time></trkpt><trkpt lat="44.9035323" lon="9.5543346"><ele>460.79999999999995</ele><time>2026-04-16T13:02:42.791Z</time></trkpt><trkpt lat="44.9034813" lon="9.5542375"><ele>462.59999999999997</ele><time>2026-04-16T13:02:43.792Z</time></trkpt><trkpt lat="44.9033999" lon="9.5541491"><ele>464.4</ele><time>2026-04-16T13:02:44.79Z</time></trkpt><trkpt lat="44.9033081" lon="9.5540624"><ele>466.2</ele><time>2026-04-16T13:02:45.792Z</time></trkpt><trkpt lat="44.9032066" lon="9.5539647"><ele>468.0</ele><time>2026-04-16T13:02:46.79Z</time></trkpt><trkpt lat="44.9031155" lon="9.5538714"><ele>468.0</ele><time>2026-04-16T13:02:47.791Z</time></trkpt><trkpt lat="44.9030438" lon="9.5537727"><ele>467.99999999999994</ele><time>2026-04-16T13:02:48.792Z</time></trkpt><trkpt lat="44.9029885" lon="9.5536603"><ele>467.99999999999994</ele><time>2026-04-16T13:02:49.79Z</time></trkpt><trkpt lat="44.9029439" lon="9.5535305"><ele>468.0</ele><time>2026-04-16T13:02:50.79Z</time></trkpt><trkpt lat="44.9028894" lon="9.5533832"><ele>468.0</ele><time>2026-04-16T13:02:51.791Z</time></trkpt><trkpt lat="44.902838" lon="9.5532301"><ele>471.0</ele><time>2026-04-16T13:02:52.791Z</time></trkpt><trkpt lat="44.9027832" lon="9.5530734"><ele>474.0</ele><time>2026-04-16T13:02:53.79Z</time></trkpt><trkpt lat="44.9027306" lon="9.5529102"><ele>477.0</ele><time>2026-04-16T13:02:54.79Z</time></trkpt><trkpt lat="44.9026835" lon="9.5527446"><ele>480.0</ele><time>2026-04-16T13:02:55.792Z</time></trkpt><trkpt lat="44.9026393" lon="9.5525783"><ele>479.0</ele><time>2026-04-16T13:02:56.791Z</time></trkpt><trkpt lat="44.9025914" lon="9.5524175"><ele>478.0</ele><time>2026-04-16T13:02:57.792Z</time></trkpt><trkpt lat="44.9025271" lon="9.5522551"><ele>477.0</ele><time>2026-04-16T13:02:58.791Z</time></trkpt><trkpt lat="44.9024492" lon="9.5520838"><ele>476.0</ele><time>2026-04-16T13:02:59.79Z</time></trkpt><trkpt lat="44.9023661" lon="9.5519108"><ele>478.66666666666663</ele><time>2026-04-16T13:03:00.79Z</time></trkpt><trkpt lat="44.9022796" lon="9.5517328"><ele>481.33333333333337</ele><time>2026-04-16T13:03:01.791Z</time></trkpt><trkpt lat="44.9021922" lon="9.551555"><ele>484.0</ele><time>2026-04-16T13:03:02.79Z</time></trkpt><trkpt lat="44.9021012" lon="9.5513857"><ele>484.0</ele><time>2026-04-16T13:03:03.791Z</time></trkpt><trkpt lat="44.9020022" lon="9.5512281"><ele>484.0</ele><time>2026-04-16T13:03:04.79Z</time></trkpt><trkpt lat="44.9018999" lon="9.5510694"><ele>484.0</ele><time>2026-04-16T13:03:05.792Z</time></trkpt><trkpt lat="44.9017948" lon="9.5509072"><ele>483.33333333333337</ele><time>2026-04-16T13:03:06.792Z</time></trkpt><trkpt lat="44.9016912" lon="9.5507415"><ele>482.66666666666663</ele><time>2026-04-16T13:03:07.791Z</time></trkpt><trkpt lat="44.9015899" lon="9.5505625"><ele>482.0</ele><time>2026-04-16T13:03:08.791Z</time></trkpt><trkpt lat="44.9014858" lon="9.5503885"><ele>483.75</ele><time>2026-04-16T13:03:09.792Z</time></trkpt><trkpt lat="44.9013863" lon="9.5502294"><ele>485.5</ele><time>2026-04-16T13:03:10.791Z</time></trkpt><trkpt lat="44.9012905" lon="9.5500778"><ele>487.25</ele><time>2026-04-16T13:03:11.791Z</time></trkpt><trkpt lat="44.9012018" lon="9.5499404"><ele>489.0</ele><time>2026-04-16T13:03:12.79Z</time></trkpt><trkpt lat="44.9011268" lon="9.5498223"><ele>489.0</ele><time>2026-04-16T13:03:13.791Z</time></trkpt><trkpt lat="44.901069" lon="9.5497155"><ele>489.0</ele><time>2026-04-16T13:03:14.791Z</time></trkpt><trkpt lat="44.9010278" lon="9.5496135"><ele>489.0</ele><time>2026-04-16T13:03:15.791Z</time></trkpt><trkpt lat="44.9010083" lon="9.5495272"><ele>489.0</ele><time>2026-04-16T13:03:16.79Z</time></trkpt><trkpt lat="44.9010305" lon="9.5493806"><ele>489.0</ele><time>2026-04-16T13:03:18.791Z</time></trkpt><trkpt lat="44.9011112" lon="9.549352"><ele>489.0</ele><time>2026-04-16T13:03:20.791Z</time></trkpt><trkpt lat="44.9012348" lon="9.5493882"><ele>490.6</ele><time>2026-04-16T13:03:22.791Z</time></trkpt><trkpt lat="44.9013169" lon="9.5493841"><ele>492.2</ele><time>2026-04-16T13:03:23.791Z</time></trkpt><trkpt lat="44.9013975" lon="9.5493517"><ele>493.80000000000007</ele><time>2026-04-16T13:03:24.791Z</time></trkpt><trkpt lat="44.9014794" lon="9.5492831"><ele>495.40000000000003</ele><time>2026-04-16T13:03:25.791Z</time></trkpt><trkpt lat="44.9015634" lon="9.5491875"><ele>497.0</ele><time>2026-04-16T13:03:26.792Z</time></trkpt><trkpt lat="44.9016444" lon="9.549064"><ele>497.0</ele><time>2026-04-16T13:03:27.791Z</time></trkpt><trkpt lat="44.9017254" lon="9.548948"><ele>497.0</ele><time>2026-04-16T13:03:28.791Z</time></trkpt><trkpt lat="44.9018178" lon="9.5488396"><ele>497.0</ele><time>2026-04-16T13:03:29.791Z</time></trkpt><trkpt lat="44.9019217" lon="9.5487389"><ele>497.0</ele><time>2026-04-16T13:03:30.79Z</time></trkpt><trkpt lat="44.9020298" lon="9.5486622"><ele>499.25</ele><time>2026-04-16T13:03:31.791Z</time></trkpt><trkpt lat="44.9021442" lon="9.5486104"><ele>501.5</ele><time>2026-04-16T13:03:32.79Z</time></trkpt><trkpt lat="44.9022595" lon="9.5485739"><ele>503.75</ele><time>2026-04-16T13:03:33.791Z</time></trkpt><trkpt lat="44.9023792" lon="9.5485495"><ele>506.0</ele><time>2026-04-16T13:03:34.791Z</time></trkpt><trkpt lat="44.9024998" lon="9.5485374"><ele>508.0</ele><time>2026-04-16T13:03:35.79Z</time></trkpt><trkpt lat="44.9026201" lon="9.5485469"><ele>510.0</ele><time>2026-04-16T13:03:36.792Z</time></trkpt><trkpt lat="44.9027349" lon="9.5485824"><ele>512.0</ele><time>2026-04-16T13:03:37.792Z</time></trkpt><trkpt lat="44.9028408" lon="9.5486314"><ele>514.0</ele><time>2026-04-16T13:03:38.792Z</time></trkpt><trkpt lat="44.9029419" lon="9.5486696"><ele>514.0</ele><time>2026-04-16T13:03:39.79Z</time></trkpt><trkpt lat="44.9030407" lon="9.5486712"><ele>514.0</ele><time>2026-04-16T13:03:40.791Z</time></trkpt><trkpt lat="44.9031469" lon="9.548644"><ele>514.0</ele><time>2026-04-16T13:03:41.791Z</time></trkpt><trkpt lat="44.9032466" lon="9.5486083"><ele>514.0</ele><time>2026-04-16T13:03:42.791Z</time></trkpt><trkpt lat="44.9033317" lon="9.5485781"><ele>514.0</ele><time>2026-04-16T13:03:43.791Z</time></trkpt><trkpt lat="44.9034028" lon="9.5485511"><ele>516.0</ele><time>2026-04-16T13:03:44.79Z</time></trkpt><trkpt lat="44.9035006" lon="9.5486039"><ele>518.0</ele><time>2026-04-16T13:03:46.79Z</time></trkpt><trkpt lat="44.9035039" lon="9.5487704"><ele>520.0</ele><time>2026-04-16T13:03:48.792Z</time></trkpt><trkpt lat="44.903492" lon="9.5488833"><ele>522.0</ele><time>2026-04-16T13:03:49.791Z</time></trkpt><trkpt lat="44.9035059" lon="9.5489872"><ele>524.0</ele><time>2026-04-16T13:03:50.792Z</time></trkpt><trkpt lat="44.9035478" lon="9.5490754"><ele>525.4</ele><time>2026-04-16T13:03:51.791Z</time></trkpt><trkpt lat="44.9036123" lon="9.5491467"><ele>526.8</ele><time>2026-04-16T13:03:52.79Z</time></trkpt><trkpt lat="44.9036994" lon="9.5492285"><ele>528.2</ele><time>2026-04-16T13:03:53.791Z</time></trkpt><trkpt lat="44.9037768" lon="9.5493265"><ele>529.6</ele><time>2026-04-16T13:03:54.79Z</time></trkpt><trkpt lat="44.9038508" lon="9.5494143"><ele>531.0</ele><time>2026-04-16T13:03:55.79Z</time></trkpt><trkpt lat="44.9039252" lon="9.5494541"><ele>531.0</ele><time>2026-04-16T13:03:56.791Z</time></trkpt><trkpt lat="44.9040095" lon="9.5494669"><ele>531.0</ele><time>2026-04-16T13:03:57.792Z</time></trkpt><trkpt lat="44.9040915" lon="9.5494722"><ele>531.0</ele><time>2026-04-16T13:03:58.79Z</time></trkpt><trkpt lat="44.9041657" lon="9.5495092"><ele>531.0</ele><time>2026-04-16T13:03:59.791Z</time></trkpt><trkpt lat="44.9042431" lon="9.5495772"><ele>531.0</ele><time>2026-04-16T13:04:00.79Z</time></trkpt><trkpt lat="44.9043216" lon="9.5496641"><ele>531.0</ele><time>2026-04-16T13:04:01.79Z</time></trkpt><trkpt lat="44.9043981" lon="9.5497291"><ele>530.5</ele><time>2026-04-16T13:04:02.791Z</time></trkpt><trkpt lat="44.9044777" lon="9.5497733"><ele>530.0</ele><time>2026-04-16T13:04:03.79Z</time></trkpt><trkpt lat="44.9045586" lon="9.5497827"><ele>529.5</ele><time>2026-04-16T13:04:04.79Z</time></trkpt><trkpt lat="44.9046315" lon="9.5497557"><ele>529.0</ele><time>2026-04-16T13:04:05.79Z</time></trkpt><trkpt lat="44.9046981" lon="9.5496928"><ele>528.5</ele><time>2026-04-16T13:04:06.791Z</time></trkpt><trkpt lat="44.9047639" lon="9.549597"><ele>528.0</ele><time>2026-04-16T13:04:07.791Z</time></trkpt><trkpt lat="44.9048318" lon="9.5494864"><ele>530.25</ele><time>2026-04-16T13:04:08.79Z</time></trkpt><trkpt lat="44.9049145" lon="9.5493626"><ele>532.5</ele><time>2026-04-16T13:04:09.792Z</time></trkpt><trkpt lat="44.9050017" lon="9.5492354"><ele>534.75</ele><time>2026-04-16T13:04:10.791Z</time></trkpt><trkpt lat="44.9050864" lon="9.549108"><ele>537.0</ele><time>2026-04-16T13:04:11.791Z</time></trkpt><trkpt lat="44.9051624" lon="9.5489804"><ele>537.0</ele><time>2026-04-16T13:04:12.791Z</time></trkpt><trkpt lat="44.9052293" lon="9.5488283"><ele>537.0</ele><time>2026-04-16T13:04:13.791Z</time></trkpt><trkpt lat="44.9052866" lon="9.548663"><ele>537.0</ele><time>2026-04-16T13:04:14.79Z</time></trkpt><trkpt lat="44.9053381" lon="9.548501"><ele>537.0</ele><time>2026-04-16T13:04:15.79Z</time></trkpt><trkpt lat="44.9053891" lon="9.5483585"><ele>538.6</ele><time>2026-04-16T13:04:16.79Z</time></trkpt><trkpt lat="44.9054392" lon="9.5482319"><ele>540.2</ele><time>2026-04-16T13:04:17.79Z</time></trkpt><trkpt lat="44.905476" lon="9.5481102"><ele>541.8</ele><time>2026-04-16T13:04:18.789Z</time></trkpt><trkpt lat="44.9054964" lon="9.5479799"><ele>543.4</ele><time>2026-04-16T13:04:19.79Z</time></trkpt><trkpt lat="44.9054991" lon="9.547837"><ele>545.0</ele><time>2026-04-16T13:04:20.79Z</time></trkpt><trkpt lat="44.9054977" lon="9.5476979"><ele>545.0</ele><time>2026-04-16T13:04:21.789Z</time></trkpt><trkpt lat="44.9055071" lon="9.5475634"><ele>545.0</ele><time>2026-04-16T13:04:22.79Z</time></trkpt><trkpt lat="44.905525" lon="9.5474347"><ele>545.0</ele><time>2026-04-16T13:04:23.79Z</time></trkpt><trkpt lat="44.9055609" lon="9.5473109"><ele>545.0</ele><time>2026-04-16T13:04:24.791Z</time></trkpt><trkpt lat="44.9056061" lon="9.5471787"><ele>545.0</ele><time>2026-04-16T13:04:25.789Z</time></trkpt><trkpt lat="44.9056604" lon="9.5470442"><ele>544.0</ele><time>2026-04-16T13:04:26.789Z</time></trkpt><trkpt lat="44.9057145" lon="9.5469138"><ele>543.0</ele><time>2026-04-16T13:04:27.789Z</time></trkpt><trkpt lat="44.9057578" lon="9.5467866"><ele>542.0</ele><time>2026-04-16T13:04:28.789Z</time></trkpt><trkpt lat="44.9057863" lon="9.5466509"><ele>541.0</ele><time>2026-04-16T13:04:29.79Z</time></trkpt><trkpt lat="44.9057973" lon="9.5464981"><ele>540.0</ele><time>2026-04-16T13:04:30.789Z</time></trkpt><trkpt lat="44.9057963" lon="9.5463262"><ele>540.5</ele><time>2026-04-16T13:04:31.79Z</time></trkpt><trkpt lat="44.9057889" lon="9.5461338"><ele>541.0</ele><time>2026-04-16T13:04:32.79Z</time></trkpt><trkpt lat="44.9057752" lon="9.5459362"><ele>541.5</ele><time>2026-04-16T13:04:33.791Z</time></trkpt><trkpt lat="44.9057567" lon="9.545745"><ele>542.0</ele><time>2026-04-16T13:04:34.79Z</time></trkpt><trkpt lat="44.9057444" lon="9.5455664"><ele>542.0</ele><time>2026-04-16T13:04:35.791Z</time></trkpt><trkpt lat="44.905752" lon="9.5453974"><ele>542.0</ele><time>2026-04-16T13:04:36.79Z</time></trkpt><trkpt lat="44.9057745" lon="9.545219"><ele>542.0</ele><time>2026-04-16T13:04:37.79Z</time></trkpt><trkpt lat="44.9057887" lon="9.5450315"><ele>542.0</ele><time>2026-04-16T13:04:38.79Z</time></trkpt><trkpt lat="44.9057943" lon="9.5448363"><ele>542.8000000000001</ele><time>2026-04-16T13:04:39.79Z</time></trkpt><trkpt lat="44.9058003" lon="9.5446502"><ele>543.6</ele><time>2026-04-16T13:04:40.79Z</time></trkpt><trkpt lat="44.9058084" lon="9.5444868"><ele>544.4000000000001</ele><time>2026-04-16T13:04:41.789Z</time></trkpt><trkpt lat="44.9058281" lon="9.5443498"><ele>545.2</ele><time>2026-04-16T13:04:42.79Z</time></trkpt><trkpt lat="44.9058603" lon="9.5442232"><ele>546.0</ele><time>2026-04-16T13:04:43.79Z</time></trkpt><trkpt lat="44.9059058" lon="9.5440898"><ele>543.75</ele><time>2026-04-16T13:04:44.789Z</time></trkpt><trkpt lat="44.9059563" lon="9.5439493"><ele>541.5</ele><time>2026-04-16T13:04:45.79Z</time></trkpt><trkpt lat="44.9060013" lon="9.5438004"><ele>539.25</ele><time>2026-04-16T13:04:46.789Z</time></trkpt><trkpt lat="44.9060411" lon="9.5436358"><ele>537.0</ele><time>2026-04-16T13:04:47.79Z</time></trkpt><trkpt lat="44.9060816" lon="9.5434623"><ele>537.0</ele><time>2026-04-16T13:04:48.791Z</time></trkpt><trkpt lat="44.9061264" lon="9.5432814"><ele>537.0</ele><time>2026-04-16T13:04:49.79Z</time></trkpt><trkpt lat="44.9061752" lon="9.5430908"><ele>537.0</ele><time>2026-04-16T13:04:50.79Z</time></trkpt><trkpt lat="44.90624" lon="9.542893"><ele>537.0</ele><time>2026-04-16T13:04:51.789Z</time></trkpt><trkpt lat="44.9063095" lon="9.5426943"><ele>538.6666666666666</ele><time>2026-04-16T13:04:52.79Z</time></trkpt><trkpt lat="44.906377" lon="9.5424847"><ele>540.3333333333333</ele><time>2026-04-16T13:04:53.79Z</time></trkpt><trkpt lat="44.9064379" lon="9.5422753"><ele>542.0</ele><time>2026-04-16T13:04:54.79Z</time></trkpt><trkpt lat="44.9064946" lon="9.5420726"><ele>542.75</ele><time>2026-04-16T13:04:55.791Z</time></trkpt><trkpt lat="44.9065488" lon="9.5418796"><ele>543.5</ele><time>2026-04-16T13:04:56.789Z</time></trkpt><trkpt lat="44.9065993" lon="9.5417035"><ele>544.25</ele><time>2026-04-16T13:04:57.789Z</time></trkpt><trkpt lat="44.9066509" lon="9.5415494"><ele>545.0</ele><time>2026-04-16T13:04:58.789Z</time></trkpt><trkpt lat="44.9066884" lon="9.5414056"><ele>545.0</ele><time>2026-04-16T13:04:59.789Z</time></trkpt><trkpt lat="44.9067027" lon="9.541274"><ele>545.0</ele><time>2026-04-16T13:05:00.789Z</time></trkpt><trkpt lat="44.9066966" lon="9.5411357"><ele>545.0</ele><time>2026-04-16T13:05:01.79Z</time></trkpt><trkpt lat="44.9066753" lon="9.5409746"><ele>545.0</ele><time>2026-04-16T13:05:02.791Z</time></trkpt><trkpt lat="44.9066472" lon="9.5407915"><ele>545.0</ele><time>2026-04-16T13:05:03.79Z</time></trkpt><trkpt lat="44.9066186" lon="9.5406047"><ele>546.5</ele><time>2026-04-16T13:05:04.79Z</time></trkpt><trkpt lat="44.9065862" lon="9.5404195"><ele>548.0</ele><time>2026-04-16T13:05:05.79Z</time></trkpt><trkpt lat="44.9065503" lon="9.5402465"><ele>549.5</ele><time>2026-04-16T13:05:06.79Z</time></trkpt><trkpt lat="44.9065079" lon="9.5400985"><ele>551.0</ele><time>2026-04-16T13:05:07.79Z</time></trkpt><trkpt lat="44.9064603" lon="9.5399669"><ele>552.75</ele><time>2026-04-16T13:05:08.79Z</time></trkpt><trkpt lat="44.9064104" lon="9.5398313"><ele>554.5</ele><time>2026-04-16T13:05:09.791Z</time></trkpt><trkpt lat="44.9063612" lon="9.5396792"><ele>556.25</ele><time>2026-04-16T13:05:10.791Z</time></trkpt><trkpt lat="44.9063089" lon="9.5395207"><ele>558.0</ele><time>2026-04-16T13:05:11.789Z</time></trkpt><trkpt lat="44.9062533" lon="9.5393501"><ele>558.0</ele><time>2026-04-16T13:05:12.789Z</time></trkpt><trkpt lat="44.906191" lon="9.5391701"><ele>558.0</ele><time>2026-04-16T13:05:13.789Z</time></trkpt><trkpt lat="44.9061269" lon="9.5389857"><ele>558.0</ele><time>2026-04-16T13:05:14.79Z</time></trkpt><trkpt lat="44.906061" lon="9.5387949"><ele>558.0</ele><time>2026-04-16T13:05:15.789Z</time></trkpt><trkpt lat="44.9059904" lon="9.5385994"><ele>557.0</ele><time>2026-04-16T13:05:16.789Z</time></trkpt><trkpt lat="44.9059148" lon="9.5383976"><ele>556.0</ele><time>2026-04-16T13:05:17.791Z</time></trkpt><trkpt lat="44.9058367" lon="9.5381944"><ele>555.0</ele><time>2026-04-16T13:05:18.79Z</time></trkpt><trkpt lat="44.9057611" lon="9.5380005"><ele>554.6666666666666</ele><time>2026-04-16T13:05:19.789Z</time></trkpt><trkpt lat="44.9056947" lon="9.5378077"><ele>554.3333333333333</ele><time>2026-04-16T13:05:20.79Z</time></trkpt><trkpt lat="44.9056353" lon="9.5376088"><ele>554.0</ele><time>2026-04-16T13:05:21.789Z</time></trkpt><trkpt lat="44.9055828" lon="9.5374008"><ele>554.0</ele><time>2026-04-16T13:05:22.791Z</time></trkpt><trkpt lat="44.9055333" lon="9.5371947"><ele>554.0</ele><time>2026-04-16T13:05:23.789Z</time></trkpt><trkpt lat="44.9054849" lon="9.5370048"><ele>554.0</ele><time>2026-04-16T13:05:24.79Z</time></trkpt><trkpt lat="44.9054354" lon="9.5368292"><ele>554.0</ele><time>2026-04-16T13:05:25.79Z</time></trkpt><trkpt lat="44.9053732" lon="9.5366519"><ele>551.6666666666666</ele><time>2026-04-16T13:05:26.789Z</time></trkpt><trkpt lat="44.9052987" lon="9.5364669"><ele>549.3333333333334</ele><time>2026-04-16T13:05:27.789Z</time></trkpt><trkpt lat="44.9052186" lon="9.5362751"><ele>547.0</ele><time>2026-04-16T13:05:28.789Z</time></trkpt><trkpt lat="44.905134" lon="9.5360788"><ele>548.6666666666667</ele><time>2026-04-16T13:05:29.79Z</time></trkpt><trkpt lat="44.9050512" lon="9.535879"><ele>550.3333333333334</ele><time>2026-04-16T13:05:30.789Z</time></trkpt><trkpt lat="44.9049747" lon="9.535683"><ele>552.0</ele><time>2026-04-16T13:05:31.789Z</time></trkpt><trkpt lat="44.9049105" lon="9.5354886"><ele>552.5</ele><time>2026-04-16T13:05:32.789Z</time></trkpt><trkpt lat="44.9048652" lon="9.5352919"><ele>553.0</ele><time>2026-04-16T13:05:33.789Z</time></trkpt><trkpt lat="44.9048421" lon="9.5350988"><ele>553.5</ele><time>2026-04-16T13:05:34.79Z</time></trkpt><trkpt lat="44.9048258" lon="9.5349061"><ele>554.0</ele><time>2026-04-16T13:05:35.791Z</time></trkpt><trkpt lat="44.9047951" lon="9.5347129"><ele>553.5</ele><time>2026-04-16T13:05:36.79Z</time></trkpt><trkpt lat="44.904759" lon="9.5345146"><ele>553.0</ele><time>2026-04-16T13:05:37.79Z</time></trkpt><trkpt lat="44.904718" lon="9.5343164"><ele>552.5</ele><time>2026-04-16T13:05:38.789Z</time></trkpt><trkpt lat="44.9046713" lon="9.5341256"><ele>552.0</ele><time>2026-04-16T13:05:39.79Z</time></trkpt><trkpt lat="44.9046213" lon="9.5339377"><ele>552.0</ele><time>2026-04-16T13:05:40.791Z</time></trkpt><trkpt lat="44.9045647" lon="9.5337546"><ele>552.0</ele><time>2026-04-16T13:05:41.79Z</time></trkpt><trkpt lat="44.9045046" lon="9.5335816"><ele>552.0</ele><time>2026-04-16T13:05:42.789Z</time></trkpt><trkpt lat="44.90445" lon="9.5334064"><ele>552.0</ele><time>2026-04-16T13:05:43.79Z</time></trkpt><trkpt lat="44.9044058" lon="9.5332217"><ele>550.0</ele><time>2026-04-16T13:05:44.791Z</time></trkpt><trkpt lat="44.9043674" lon="9.5330327"><ele>548.0</ele><time>2026-04-16T13:05:45.789Z</time></trkpt><trkpt lat="44.9043183" lon="9.5328406"><ele>546.0</ele><time>2026-04-16T13:05:46.79Z</time></trkpt><trkpt lat="44.9042567" lon="9.532645"><ele>544.0</ele><time>2026-04-16T13:05:47.789Z</time></trkpt><trkpt lat="44.9041857" lon="9.5324435"><ele>543.6666666666667</ele><time>2026-04-16T13:05:48.789Z</time></trkpt><trkpt lat="44.9041119" lon="9.5322369"><ele>543.3333333333334</ele><time>2026-04-16T13:05:49.79Z</time></trkpt><trkpt lat="44.9040406" lon="9.5320307"><ele>543.0</ele><time>2026-04-16T13:05:50.79Z</time></trkpt><trkpt lat="44.9039728" lon="9.5318293"><ele>541.0</ele><time>2026-04-16T13:05:51.789Z</time></trkpt><trkpt lat="44.9039103" lon="9.5316309"><ele>539.0</ele><time>2026-04-16T13:05:52.79Z</time></trkpt><trkpt lat="44.9038519" lon="9.5314394"><ele>537.0</ele><time>2026-04-16T13:05:53.789Z</time></trkpt><trkpt lat="44.9037982" lon="9.5312495"><ele>535.0</ele><time>2026-04-16T13:05:54.791Z</time></trkpt><trkpt lat="44.9037471" lon="9.5310688"><ele>533.5</ele><time>2026-04-16T13:05:55.789Z</time></trkpt><trkpt lat="44.9037116" lon="9.5308897"><ele>532.0</ele><time>2026-04-16T13:05:56.789Z</time></trkpt><trkpt lat="44.9036898" lon="9.5307109"><ele>530.5</ele><time>2026-04-16T13:05:57.791Z</time></trkpt><trkpt lat="44.9036838" lon="9.5305382"><ele>529.0</ele><time>2026-04-16T13:05:58.789Z</time></trkpt><trkpt lat="44.9036976" lon="9.5303684"><ele>529.0</ele><time>2026-04-16T13:05:59.791Z</time></trkpt><trkpt lat="44.9037365" lon="9.5302163"><ele>529.0</ele><time>2026-04-16T13:06:00.79Z</time></trkpt><trkpt lat="44.9037909" lon="9.5300846"><ele>529.0</ele><time>2026-04-16T13:06:01.789Z</time></trkpt><trkpt lat="44.9038589" lon="9.5299726"><ele>529.0</ele><time>2026-04-16T13:06:02.79Z</time></trkpt><trkpt lat="44.903918" lon="9.5298588"><ele>529.0</ele><time>2026-04-16T13:06:03.789Z</time></trkpt><trkpt lat="44.9039481" lon="9.5297399"><ele>529.0</ele><time>2026-04-16T13:06:04.79Z</time></trkpt><trkpt lat="44.9039655" lon="9.5296269"><ele>529.0</ele><time>2026-04-16T13:06:05.79Z</time></trkpt><trkpt lat="44.9039736" lon="9.5295323"><ele>529.0</ele><time>2026-04-16T13:06:06.79Z</time></trkpt><trkpt lat="44.9039875" lon="9.5293764"><ele>529.0</ele><time>2026-04-16T13:06:08.79Z</time></trkpt><trkpt lat="44.903982" lon="9.5292472"><ele>529.0</ele><time>2026-04-16T13:06:10.789Z</time></trkpt><trkpt lat="44.9039677" lon="9.5291588"><ele>529.0</ele><time>2026-04-16T13:06:11.791Z</time></trkpt><trkpt lat="44.9039494" lon="9.5290446"><ele>529.6</ele><time>2026-04-16T13:06:12.79Z</time></trkpt><trkpt lat="44.9039222" lon="9.5289226"><ele>530.2</ele><time>2026-04-16T13:06:13.791Z</time></trkpt><trkpt lat="44.9038896" lon="9.528786"><ele>530.8000000000001</ele><time>2026-04-16T13:06:14.79Z</time></trkpt><trkpt lat="44.9038518" lon="9.5286489"><ele>531.4</ele><time>2026-04-16T13:06:15.789Z</time></trkpt><trkpt lat="44.9038053" lon="9.5285212"><ele>532.0</ele><time>2026-04-16T13:06:16.79Z</time></trkpt><trkpt lat="44.9037449" lon="9.5284052"><ele>532.0</ele><time>2026-04-16T13:06:17.791Z</time></trkpt><trkpt lat="44.9036708" lon="9.5283025"><ele>532.0</ele><time>2026-04-16T13:06:18.79Z</time></trkpt><trkpt lat="44.9035783" lon="9.5282119"><ele>532.0</ele><time>2026-04-16T13:06:19.791Z</time></trkpt><trkpt lat="44.9034748" lon="9.5281259"><ele>532.0</ele><time>2026-04-16T13:06:20.791Z</time></trkpt><trkpt lat="44.9033724" lon="9.5280307"><ele>530.25</ele><time>2026-04-16T13:06:21.789Z</time></trkpt><trkpt lat="44.9032745" lon="9.5279205"><ele>528.5</ele><time>2026-04-16T13:06:22.789Z</time></trkpt><trkpt lat="44.9031857" lon="9.5277933"><ele>526.75</ele><time>2026-04-16T13:06:23.79Z</time></trkpt><trkpt lat="44.9031058" lon="9.527648"><ele>525.0</ele><time>2026-04-16T13:06:24.79Z</time></trkpt><trkpt lat="44.9030332" lon="9.5274826"><ele>524.0</ele><time>2026-04-16T13:06:25.789Z</time></trkpt><trkpt lat="44.9029603" lon="9.527309"><ele>523.0</ele><time>2026-04-16T13:06:26.791Z</time></trkpt><trkpt lat="44.9028855" lon="9.5271524"><ele>522.0</ele><time>2026-04-16T13:06:27.79Z</time></trkpt><trkpt lat="44.9028159" lon="9.527016"><ele>521.0</ele><time>2026-04-16T13:06:28.79Z</time></trkpt><trkpt lat="44.9027649" lon="9.5268934"><ele>520.0</ele><time>2026-04-16T13:06:29.79Z</time></trkpt><trkpt lat="44.9027305" lon="9.5267736"><ele>519.0</ele><time>2026-04-16T13:06:30.789Z</time></trkpt><trkpt lat="44.9027048" lon="9.5266367"><ele>518.0</ele><time>2026-04-16T13:06:31.79Z</time></trkpt><trkpt lat="44.9026767" lon="9.5264853"><ele>517.0</ele><time>2026-04-16T13:06:32.79Z</time></trkpt><trkpt lat="44.9026531" lon="9.5263205"><ele>516.0</ele><time>2026-04-16T13:06:33.789Z</time></trkpt><trkpt lat="44.9026369" lon="9.5261484"><ele>515.4</ele><time>2026-04-16T13:06:34.79Z</time></trkpt><trkpt lat="44.902627" lon="9.5259839"><ele>514.8</ele><time>2026-04-16T13:06:35.789Z</time></trkpt><trkpt lat="44.9026292" lon="9.5258263"><ele>514.1999999999999</ele><time>2026-04-16T13:06:36.79Z</time></trkpt><trkpt lat="44.9026568" lon="9.5256822"><ele>513.6</ele><time>2026-04-16T13:06:37.79Z</time></trkpt><trkpt lat="44.9027011" lon="9.5255488"><ele>513.0</ele><time>2026-04-16T13:06:38.789Z</time></trkpt><trkpt lat="44.9027446" lon="9.5254161"><ele>514.4</ele><time>2026-04-16T13:06:39.789Z</time></trkpt><trkpt lat="44.9027687" lon="9.5252858"><ele>515.8</ele><time>2026-04-16T13:06:40.79Z</time></trkpt><trkpt lat="44.9027772" lon="9.5251569"><ele>517.2</ele><time>2026-04-16T13:06:41.79Z</time></trkpt><trkpt lat="44.9027711" lon="9.5250192"><ele>518.6</ele><time>2026-04-16T13:06:42.789Z</time></trkpt><trkpt lat="44.9027637" lon="9.5248659"><ele>520.0</ele><time>2026-04-16T13:06:43.79Z</time></trkpt><trkpt lat="44.9027669" lon="9.5247038"><ele>522.0</ele><time>2026-04-16T13:06:44.79Z</time></trkpt><trkpt lat="44.9027825" lon="9.5245397"><ele>524.0</ele><time>2026-04-16T13:06:45.789Z</time></trkpt><trkpt lat="44.9028064" lon="9.5243738"><ele>526.0</ele><time>2026-04-16T13:06:46.789Z</time></trkpt><trkpt lat="44.9028394" lon="9.5242073"><ele>528.0</ele><time>2026-04-16T13:06:47.791Z</time></trkpt><trkpt lat="44.9028896" lon="9.5240448"><ele>528.0</ele><time>2026-04-16T13:06:48.791Z</time></trkpt><trkpt lat="44.9029509" lon="9.523883"><ele>528.0</ele><time>2026-04-16T13:06:49.789Z</time></trkpt><trkpt lat="44.9030049" lon="9.5237126"><ele>528.0</ele><time>2026-04-16T13:06:50.789Z</time></trkpt><trkpt lat="44.9030529" lon="9.5235283"><ele>528.0</ele><time>2026-04-16T13:06:51.79Z</time></trkpt><trkpt lat="44.9030961" lon="9.5233401"><ele>531.0</ele><time>2026-04-16T13:06:52.79Z</time></trkpt><trkpt lat="44.9031352" lon="9.5231604"><ele>534.0</ele><time>2026-04-16T13:06:53.789Z</time></trkpt><trkpt lat="44.9031636" lon="9.522985"><ele>537.0</ele><time>2026-04-16T13:06:54.79Z</time></trkpt><trkpt lat="44.9031814" lon="9.522816"><ele>540.0</ele><time>2026-04-16T13:06:55.789Z</time></trkpt><trkpt lat="44.9031913" lon="9.5226483"><ele>540.25</ele><time>2026-04-16T13:06:56.789Z</time></trkpt><trkpt lat="44.9032032" lon="9.5224697"><ele>540.5</ele><time>2026-04-16T13:06:57.79Z</time></trkpt><trkpt lat="44.9032125" lon="9.5222842"><ele>540.75</ele><time>2026-04-16T13:06:58.789Z</time></trkpt><trkpt lat="44.9032127" lon="9.5220904"><ele>541.0</ele><time>2026-04-16T13:06:59.789Z</time></trkpt><trkpt lat="44.9032062" lon="9.5218919"><ele>541.0</ele><time>2026-04-16T13:07:00.789Z</time></trkpt><trkpt lat="44.9031972" lon="9.5216976"><ele>541.0</ele><time>2026-04-16T13:07:01.791Z</time></trkpt><trkpt lat="44.9031824" lon="9.5215104"><ele>541.0</ele><time>2026-04-16T13:07:02.79Z</time></trkpt><trkpt lat="44.9031661" lon="9.5213345"><ele>541.0</ele><time>2026-04-16T13:07:03.79Z</time></trkpt><trkpt lat="44.9031511" lon="9.5211647"><ele>540.5</ele><time>2026-04-16T13:07:04.79Z</time></trkpt><trkpt lat="44.903145" lon="9.5210006"><ele>540.0</ele><time>2026-04-16T13:07:05.789Z</time></trkpt><trkpt lat="44.9031561" lon="9.5208406"><ele>539.5</ele><time>2026-04-16T13:07:06.79Z</time></trkpt><trkpt lat="44.9031691" lon="9.5206782"><ele>539.0</ele><time>2026-04-16T13:07:07.79Z</time></trkpt><trkpt lat="44.9031774" lon="9.5205094"><ele>538.75</ele><time>2026-04-16T13:07:08.79Z</time></trkpt><trkpt lat="44.9031837" lon="9.520331"><ele>538.5</ele><time>2026-04-16T13:07:09.79Z</time></trkpt><trkpt lat="44.9031891" lon="9.5201537"><ele>538.25</ele><time>2026-04-16T13:07:10.79Z</time></trkpt><trkpt lat="44.9031956" lon="9.5199795"><ele>538.0</ele><time>2026-04-16T13:07:11.789Z</time></trkpt><trkpt lat="44.9031947" lon="9.5198084"><ele>538.0</ele><time>2026-04-16T13:07:12.789Z</time></trkpt><trkpt lat="44.9031906" lon="9.5196333"><ele>538.0</ele><time>2026-04-16T13:07:13.79Z</time></trkpt><trkpt lat="44.9031864" lon="9.5194569"><ele>538.0</ele><time>2026-04-16T13:07:14.79Z</time></trkpt><trkpt lat="44.903186" lon="9.51928"><ele>538.0</ele><time>2026-04-16T13:07:15.789Z</time></trkpt><trkpt lat="44.9031922" lon="9.5191053"><ele>537.5</ele><time>2026-04-16T13:07:16.79Z</time></trkpt><trkpt lat="44.9031898" lon="9.5189351"><ele>537.0</ele><time>2026-04-16T13:07:17.789Z</time></trkpt><trkpt lat="44.903174" lon="9.5187645"><ele>536.5</ele><time>2026-04-16T13:07:18.791Z</time></trkpt><trkpt lat="44.9031518" lon="9.5185991"><ele>536.0</ele><time>2026-04-16T13:07:19.79Z</time></trkpt><trkpt lat="44.9031233" lon="9.5184372"><ele>533.5</ele><time>2026-04-16T13:07:20.79Z</time></trkpt><trkpt lat="44.903091" lon="9.5182862"><ele>531.0</ele><time>2026-04-16T13:07:21.789Z</time></trkpt><trkpt lat="44.9030428" lon="9.5181393"><ele>528.5</ele><time>2026-04-16T13:07:22.791Z</time></trkpt><trkpt lat="44.9029753" lon="9.5179949"><ele>526.0</ele><time>2026-04-16T13:07:23.79Z</time></trkpt><trkpt lat="44.9028919" lon="9.5178651"><ele>524.25</ele><time>2026-04-16T13:07:24.791Z</time></trkpt><trkpt lat="44.9027882" lon="9.5177512"><ele>522.5</ele><time>2026-04-16T13:07:25.789Z</time></trkpt><trkpt lat="44.9026662" lon="9.5176402"><ele>520.75</ele><time>2026-04-16T13:07:26.789Z</time></trkpt><trkpt lat="44.9025407" lon="9.5175186"><ele>519.0</ele><time>2026-04-16T13:07:27.79Z</time></trkpt><trkpt lat="44.9024275" lon="9.5173797"><ele>523.0</ele><time>2026-04-16T13:07:28.789Z</time></trkpt><trkpt lat="44.9023155" lon="9.5172376"><ele>527.0</ele><time>2026-04-16T13:07:29.79Z</time></trkpt><trkpt lat="44.9022019" lon="9.5171101"><ele>531.0</ele><time>2026-04-16T13:07:30.789Z</time></trkpt><trkpt lat="44.9020911" lon="9.516997"><ele>535.0</ele><time>2026-04-16T13:07:31.79Z</time></trkpt><trkpt lat="44.9019839" lon="9.5168969"><ele>535.25</ele><time>2026-04-16T13:07:32.791Z</time></trkpt><trkpt lat="44.901876" lon="9.5168091"><ele>535.5</ele><time>2026-04-16T13:07:33.79Z</time></trkpt><trkpt lat="44.9017715" lon="9.5167245"><ele>535.75</ele><time>2026-04-16T13:07:34.791Z</time></trkpt><trkpt lat="44.9016834" lon="9.51663"><ele>536.0</ele><time>2026-04-16T13:07:35.789Z</time></trkpt><trkpt lat="44.901615" lon="9.5165257"><ele>537.3333333333333</ele><time>2026-04-16T13:07:36.79Z</time></trkpt><trkpt lat="44.901568" lon="9.516431"><ele>538.6666666666666</ele><time>2026-04-16T13:07:37.79Z</time></trkpt><trkpt lat="44.9015157" lon="9.516346"><ele>540.0</ele><time>2026-04-16T13:07:39.789Z</time></trkpt><trkpt lat="44.901412" lon="9.5163808"><ele>541.3333333333334</ele><time>2026-04-16T13:07:42.791Z</time></trkpt><trkpt lat="44.9013523" lon="9.5164254"><ele>542.6666666666667</ele><time>2026-04-16T13:07:43.79Z</time></trkpt><trkpt lat="44.9012779" lon="9.5164739"><ele>544.0</ele><time>2026-04-16T13:07:44.789Z</time></trkpt><trkpt lat="44.9011885" lon="9.5165185"><ele>544.0</ele><time>2026-04-16T13:07:45.79Z</time></trkpt><trkpt lat="44.9010849" lon="9.5165643"><ele>544.0</ele><time>2026-04-16T13:07:46.789Z</time></trkpt><trkpt lat="44.9009772" lon="9.5166197"><ele>544.0</ele><time>2026-04-16T13:07:47.789Z</time></trkpt><trkpt lat="44.900876" lon="9.516685"><ele>544.0</ele><time>2026-04-16T13:07:48.791Z</time></trkpt><trkpt lat="44.9007754" lon="9.5167602"><ele>544.0</ele><time>2026-04-16T13:07:49.79Z</time></trkpt><trkpt lat="44.9006756" lon="9.5168364"><ele>544.4</ele><time>2026-04-16T13:07:50.791Z</time></trkpt><trkpt lat="44.9005788" lon="9.5169061"><ele>544.8</ele><time>2026-04-16T13:07:51.79Z</time></trkpt><trkpt lat="44.9004839" lon="9.5169694"><ele>545.2</ele><time>2026-04-16T13:07:52.79Z</time></trkpt><trkpt lat="44.9003902" lon="9.5170199"><ele>545.6</ele><time>2026-04-16T13:07:53.79Z</time></trkpt><trkpt lat="44.900294" lon="9.5170498"><ele>546.0</ele><time>2026-04-16T13:07:54.79Z</time></trkpt><trkpt lat="44.900202" lon="9.517045"><ele>546.0</ele><time>2026-04-16T13:07:55.79Z</time></trkpt><trkpt lat="44.9001173" lon="9.5169978"><ele>546.0</ele><time>2026-04-16T13:07:56.79Z</time></trkpt><trkpt lat="44.9000333" lon="9.5169254"><ele>546.0</ele><time>2026-04-16T13:07:57.79Z</time></trkpt><trkpt lat="44.8999396" lon="9.5168349"><ele>546.0</ele><time>2026-04-16T13:07:58.789Z</time></trkpt><trkpt lat="44.8998295" lon="9.5167372"><ele>546.0</ele><time>2026-04-16T13:07:59.79Z</time></trkpt><trkpt lat="44.8997036" lon="9.5166435"><ele>546.0</ele><time>2026-04-16T13:08:00.79Z</time></trkpt><trkpt lat="44.89957" lon="9.5165449"><ele>546.0</ele><time>2026-04-16T13:08:01.791Z</time></trkpt><trkpt lat="44.8994353" lon="9.516443"><ele>546.0</ele><time>2026-04-16T13:08:02.789Z</time></trkpt><trkpt lat="44.8993057" lon="9.516342"><ele>543.0</ele><time>2026-04-16T13:08:03.789Z</time></trkpt><trkpt lat="44.8991773" lon="9.5162455"><ele>540.0</ele><time>2026-04-16T13:08:04.79Z</time></trkpt><trkpt lat="44.8990569" lon="9.5161507"><ele>537.0</ele><time>2026-04-16T13:08:05.79Z</time></trkpt><trkpt lat="44.8989418" lon="9.5160658"><ele>534.0</ele><time>2026-04-16T13:08:06.79Z</time></trkpt><trkpt lat="44.8988345" lon="9.5160101"><ele>534.0</ele><time>2026-04-16T13:08:07.79Z</time></trkpt><trkpt lat="44.89873" lon="9.5159878"><ele>534.0</ele><time>2026-04-16T13:08:08.789Z</time></trkpt><trkpt lat="44.8986257" lon="9.5160019"><ele>534.0</ele><time>2026-04-16T13:08:09.791Z</time></trkpt><trkpt lat="44.8985163" lon="9.5160497"><ele>534.0</ele><time>2026-04-16T13:08:10.789Z</time></trkpt><trkpt lat="44.8983944" lon="9.5161182"><ele>533.5</ele><time>2026-04-16T13:08:11.791Z</time></trkpt><trkpt lat="44.8982717" lon="9.5161903"><ele>533.0</ele><time>2026-04-16T13:08:12.79Z</time></trkpt><trkpt lat="44.8981597" lon="9.5162934"><ele>532.5</ele><time>2026-04-16T13:08:13.791Z</time></trkpt><trkpt lat="44.8980589" lon="9.5164004"><ele>532.0</ele><time>2026-04-16T13:08:14.789Z</time></trkpt><trkpt lat="44.8979779" lon="9.5165124"><ele>532.0</ele><time>2026-04-16T13:08:15.79Z</time></trkpt><trkpt lat="44.8979154" lon="9.5166222"><ele>532.0</ele><time>2026-04-16T13:08:16.791Z</time></trkpt><trkpt lat="44.8978537" lon="9.5166987"><ele>532.0</ele><time>2026-04-16T13:08:17.791Z</time></trkpt><trkpt lat="44.8977859" lon="9.5167432"><ele>532.0</ele><time>2026-04-16T13:08:18.79Z</time></trkpt><trkpt lat="44.8977164" lon="9.5167574"><ele>532.0</ele><time>2026-04-16T13:08:19.789Z</time></trkpt><trkpt lat="44.8976362" lon="9.5167516"><ele>532.0</ele><time>2026-04-16T13:08:20.789Z</time></trkpt><trkpt lat="44.8975542" lon="9.5167286"><ele>533.8000000000001</ele><time>2026-04-16T13:08:21.79Z</time></trkpt><trkpt lat="44.897478" lon="9.5166939"><ele>535.6</ele><time>2026-04-16T13:08:22.79Z</time></trkpt><trkpt lat="44.8973891" lon="9.5166258"><ele>537.4000000000001</ele><time>2026-04-16T13:08:23.79Z</time></trkpt><trkpt lat="44.8972972" lon="9.516532"><ele>539.2</ele><time>2026-04-16T13:08:24.79Z</time></trkpt><trkpt lat="44.8971904" lon="9.5164388"><ele>541.0</ele><time>2026-04-16T13:08:25.789Z</time></trkpt><trkpt lat="44.8970788" lon="9.5163594"><ele>541.0</ele><time>2026-04-16T13:08:26.791Z</time></trkpt><trkpt lat="44.8969656" lon="9.5163025"><ele>541.0</ele><time>2026-04-16T13:08:27.79Z</time></trkpt><trkpt lat="44.8968442" lon="9.5162726"><ele>541.0</ele><time>2026-04-16T13:08:28.789Z</time></trkpt><trkpt lat="44.8967165" lon="9.516276"><ele>541.0</ele><time>2026-04-16T13:08:29.789Z</time></trkpt><trkpt lat="44.8965785" lon="9.5163099"><ele>538.5</ele><time>2026-04-16T13:08:30.79Z</time></trkpt><trkpt lat="44.8964388" lon="9.5163516"><ele>536.0</ele><time>2026-04-16T13:08:31.79Z</time></trkpt><trkpt lat="44.8963081" lon="9.5163944"><ele>533.5</ele><time>2026-04-16T13:08:32.789Z</time></trkpt><trkpt lat="44.896187" lon="9.5164397"><ele>531.0</ele><time>2026-04-16T13:08:33.79Z</time></trkpt><trkpt lat="44.896076" lon="9.5164806"><ele>531.0</ele><time>2026-04-16T13:08:34.789Z</time></trkpt><trkpt lat="44.8959707" lon="9.5165157"><ele>531.0</ele><time>2026-04-16T13:08:35.789Z</time></trkpt><trkpt lat="44.8958624" lon="9.516537"><ele>531.0</ele><time>2026-04-16T13:08:36.789Z</time></trkpt><trkpt lat="44.8957551" lon="9.5165515"><ele>531.0</ele><time>2026-04-16T13:08:37.791Z</time></trkpt><trkpt lat="44.895659" lon="9.5165596"><ele>531.0</ele><time>2026-04-16T13:08:38.789Z</time></trkpt><trkpt lat="44.8955706" lon="9.5165652"><ele>531.5</ele><time>2026-04-16T13:08:39.789Z</time></trkpt><trkpt lat="44.8954905" lon="9.5165613"><ele>532.0</ele><time>2026-04-16T13:08:40.789Z</time></trkpt><trkpt lat="44.8954151" lon="9.5165546"><ele>532.5</ele><time>2026-04-16T13:08:41.789Z</time></trkpt><trkpt lat="44.8953443" lon="9.5165474"><ele>533.0</ele><time>2026-04-16T13:08:42.789Z</time></trkpt><trkpt lat="44.895277" lon="9.5165413"><ele>533.5</ele><time>2026-04-16T13:08:43.79Z</time></trkpt><trkpt lat="44.8951663" lon="9.5165206"><ele>534.0</ele><time>2026-04-16T13:08:45.789Z</time></trkpt><trkpt lat="44.895101" lon="9.5164967"><ele>534.0</ele><time>2026-04-16T13:08:47.79Z</time></trkpt><trkpt lat="44.895037" lon="9.5165031"><ele>534.0</ele><time>2026-04-16T13:08:57.789Z</time></trkpt><trkpt lat="44.8950952" lon="9.5165468"><ele>534.0</ele><time>2026-04-16T13:09:02.789Z</time></trkpt><trkpt lat="44.8951582" lon="9.5165427"><ele>534.0</ele><time>2026-04-16T13:09:04.791Z</time></trkpt><trkpt lat="44.8952815" lon="9.5165568"><ele>534.0</ele><time>2026-04-16T13:09:06.789Z</time></trkpt><trkpt lat="44.8953574" lon="9.5165668"><ele>534.0</ele><time>2026-04-16T13:09:07.79Z</time></trkpt><trkpt lat="44.8954465" lon="9.5165781"><ele>534.0</ele><time>2026-04-16T13:09:08.789Z</time></trkpt><trkpt lat="44.8955405" lon="9.5165851"><ele>534.0</ele><time>2026-04-16T13:09:09.79Z</time></trkpt><trkpt lat="44.8956433" lon="9.5165862"><ele>534.0</ele><time>2026-04-16T13:09:10.79Z</time></trkpt><trkpt lat="44.8957441" lon="9.516581"><ele>534.0</ele><time>2026-04-16T13:09:11.79Z</time></trkpt><trkpt lat="44.8958417" lon="9.5165657"><ele>534.0</ele><time>2026-04-16T13:09:12.79Z</time></trkpt><trkpt lat="44.8959336" lon="9.5165466"><ele>533.5</ele><time>2026-04-16T13:09:13.79Z</time></trkpt><trkpt lat="44.896016" lon="9.5165234"><ele>533.0</ele><time>2026-04-16T13:09:14.79Z</time></trkpt><trkpt lat="44.8960891" lon="9.5165037"><ele>532.5</ele><time>2026-04-16T13:09:15.79Z</time></trkpt><trkpt lat="44.8961882" lon="9.5164594"><ele>532.0</ele><time>2026-04-16T13:09:17.791Z</time></trkpt><trkpt lat="44.8962552" lon="9.516486"><ele>531.5</ele><time>2026-04-16T13:09:20.79Z</time></trkpt><trkpt lat="44.8962301" lon="9.5166245"><ele>531.0</ele><time>2026-04-16T13:09:24.789Z</time></trkpt><trkpt lat="44.8961779" lon="9.5167681"><ele>531.0</ele><time>2026-04-16T13:11:04.79Z</time></trkpt><trkpt lat="44.8961477" lon="9.5168526"><ele>531.0</ele><time>2026-04-16T13:11:05.789Z</time></trkpt><trkpt lat="44.8961203" lon="9.5169578"><ele>531.0</ele><time>2026-04-16T13:11:06.789Z</time></trkpt><trkpt lat="44.8960958" lon="9.5170656"><ele>531.0</ele><time>2026-04-16T13:11:07.79Z</time></trkpt><trkpt lat="44.8960747" lon="9.5171847"><ele>531.0</ele><time>2026-04-16T13:11:08.789Z</time></trkpt><trkpt lat="44.8960644" lon="9.5173114"><ele>531.0</ele><time>2026-04-16T13:11:09.789Z</time></trkpt><trkpt lat="44.8960668" lon="9.5174351"><ele>530.0</ele><time>2026-04-16T13:11:10.79Z</time></trkpt><trkpt lat="44.8960755" lon="9.5175455"><ele>529.0</ele><time>2026-04-16T13:11:11.79Z</time></trkpt><trkpt lat="44.8960858" lon="9.5176435"><ele>528.0</ele><time>2026-04-16T13:11:12.79Z</time></trkpt><trkpt lat="44.896069" lon="9.5177879"><ele>527.0</ele><time>2026-04-16T13:11:14.789Z</time></trkpt><trkpt lat="44.8960062" lon="9.5179371"><ele>526.0</ele><time>2026-04-16T13:11:16.789Z</time></trkpt><trkpt lat="44.8959566" lon="9.5180109"><ele>525.0</ele><time>2026-04-16T13:11:17.79Z</time></trkpt><trkpt lat="44.8959025" lon="9.5180807"><ele>524.4285714285714</ele><time>2026-04-16T13:11:18.79Z</time></trkpt><trkpt lat="44.8958514" lon="9.5181511"><ele>523.8571428571429</ele><time>2026-04-16T13:11:19.79Z</time></trkpt><trkpt lat="44.8958023" lon="9.5182245"><ele>523.2857142857142</ele><time>2026-04-16T13:11:20.79Z</time></trkpt><trkpt lat="44.8957541" lon="9.5182933"><ele>522.7142857142858</ele><time>2026-04-16T13:11:21.79Z</time></trkpt><trkpt lat="44.8957068" lon="9.5183604"><ele>522.1428571428571</ele><time>2026-04-16T13:11:22.788Z</time></trkpt><trkpt lat="44.8956606" lon="9.5184211"><ele>521.5714285714286</ele><time>2026-04-16T13:11:23.789Z</time></trkpt><trkpt lat="44.8956102" lon="9.5184763"><ele>521.0</ele><time>2026-04-16T13:11:24.789Z</time></trkpt><trkpt lat="44.8955014" lon="9.5185525"><ele>521.0</ele><time>2026-04-16T13:11:26.788Z</time></trkpt><trkpt lat="44.8954339" lon="9.5185821"><ele>521.0</ele><time>2026-04-16T13:11:27.788Z</time></trkpt><trkpt lat="44.8953658" lon="9.518616"><ele>521.0</ele><time>2026-04-16T13:11:28.788Z</time></trkpt><trkpt lat="44.895299" lon="9.5186633"><ele>521.0</ele><time>2026-04-16T13:11:29.789Z</time></trkpt><trkpt lat="44.8952414" lon="9.5187207"><ele>521.0</ele><time>2026-04-16T13:11:30.788Z</time></trkpt><trkpt lat="44.895187" lon="9.5187759"><ele>521.0</ele><time>2026-04-16T13:11:31.789Z</time></trkpt><trkpt lat="44.8950862" lon="9.5188604"><ele>518.6666666666666</ele><time>2026-04-16T13:11:33.789Z</time></trkpt><trkpt lat="44.8949746" lon="9.518898"><ele>516.3333333333333</ele><time>2026-04-16T13:11:35.789Z</time></trkpt><trkpt lat="44.8948526" lon="9.5188782"><ele>514.0</ele><time>2026-04-16T13:11:37.789Z</time></trkpt><trkpt lat="44.8947897" lon="9.5188488"><ele>511.66666666666663</ele><time>2026-04-16T13:11:38.789Z</time></trkpt><trkpt lat="44.8947309" lon="9.5188101"><ele>509.3333333333333</ele><time>2026-04-16T13:11:39.789Z</time></trkpt><trkpt lat="44.8946682" lon="9.5187762"><ele>507.0</ele><time>2026-04-16T13:11:40.789Z</time></trkpt><trkpt lat="44.8946019" lon="9.518744"><ele>507.0</ele><time>2026-04-16T13:11:41.788Z</time></trkpt><trkpt lat="44.8945405" lon="9.5187124"><ele>507.0</ele><time>2026-04-16T13:11:42.789Z</time></trkpt><trkpt lat="44.8944808" lon="9.5186813"><ele>507.0</ele><time>2026-04-16T13:11:43.789Z</time></trkpt><trkpt lat="44.8943652" lon="9.5186146"><ele>507.0</ele><time>2026-04-16T13:11:45.789Z</time></trkpt><trkpt lat="44.8943064" lon="9.5185823"><ele>507.0</ele><time>2026-04-16T13:11:46.789Z</time></trkpt><trkpt lat="44.8942124" lon="9.518533"><ele>507.0</ele><time>2026-04-16T13:11:48.789Z</time></trkpt><trkpt lat="44.8941485" lon="9.5185356"><ele>507.0</ele><time>2026-04-16T13:11:51.788Z</time></trkpt><trkpt lat="44.8940843" lon="9.5184607"><ele>507.00000000000006</ele><time>2026-04-16T13:11:58.789Z</time></trkpt><trkpt lat="44.8940449" lon="9.5183458"><ele>507.00000000000006</ele><time>2026-04-16T13:12:00.79Z</time></trkpt><trkpt lat="44.8939633" lon="9.5181953"><ele>507.0</ele><time>2026-04-16T13:12:02.789Z</time></trkpt><trkpt lat="44.893917" lon="9.5181157"><ele>507.0</ele><time>2026-04-16T13:12:03.788Z</time></trkpt><trkpt lat="44.8938665" lon="9.5180444"><ele>507.0</ele><time>2026-04-16T13:12:04.789Z</time></trkpt><trkpt lat="44.8938142" lon="9.5179862"><ele>507.00000000000006</ele><time>2026-04-16T13:12:05.788Z</time></trkpt><trkpt lat="44.893704" lon="9.5179293"><ele>507.00000000000006</ele><time>2026-04-16T13:12:07.788Z</time></trkpt><trkpt lat="44.8936006" lon="9.5179207"><ele>507.0</ele><time>2026-04-16T13:12:09.788Z</time></trkpt><trkpt lat="44.8934867" lon="9.5179689"><ele>507.0</ele><time>2026-04-16T13:12:11.788Z</time></trkpt><trkpt lat="44.8934243" lon="9.5180107"><ele>505.0</ele><time>2026-04-16T13:12:12.789Z</time></trkpt><trkpt lat="44.8933669" lon="9.5180555"><ele>503.00000000000006</ele><time>2026-04-16T13:12:13.789Z</time></trkpt><trkpt lat="44.8932643" lon="9.5181388"><ele>501.00000000000006</ele><time>2026-04-16T13:12:15.789Z</time></trkpt><trkpt lat="44.8931623" lon="9.5182143"><ele>499.0</ele><time>2026-04-16T13:12:17.789Z</time></trkpt><trkpt lat="44.8930597" lon="9.5182679"><ele>497.0</ele><time>2026-04-16T13:12:19.788Z</time></trkpt><trkpt lat="44.8929475" lon="9.5182979"><ele>496.99999999999994</ele><time>2026-04-16T13:12:21.788Z</time></trkpt><trkpt lat="44.892825" lon="9.5183321"><ele>497.0</ele><time>2026-04-16T13:12:23.789Z</time></trkpt><trkpt lat="44.8927602" lon="9.5183545"><ele>497.0</ele><time>2026-04-16T13:12:24.789Z</time></trkpt><trkpt lat="44.892691" lon="9.518379"><ele>497.0</ele><time>2026-04-16T13:12:25.789Z</time></trkpt><trkpt lat="44.892627" lon="9.5184084"><ele>496.99999999999994</ele><time>2026-04-16T13:12:26.788Z</time></trkpt><trkpt lat="44.8925575" lon="9.5184323"><ele>497.0</ele><time>2026-04-16T13:12:27.789Z</time></trkpt><trkpt lat="44.8924867" lon="9.5184598"><ele>496.1428571428571</ele><time>2026-04-16T13:12:28.788Z</time></trkpt><trkpt lat="44.8924201" lon="9.5184894"><ele>495.2857142857143</ele><time>2026-04-16T13:12:29.789Z</time></trkpt><trkpt lat="44.8923527" lon="9.518523"><ele>494.42857142857144</ele><time>2026-04-16T13:12:30.788Z</time></trkpt><trkpt lat="44.8922825" lon="9.518557"><ele>493.57142857142856</ele><time>2026-04-16T13:12:31.789Z</time></trkpt><trkpt lat="44.8922135" lon="9.5185916"><ele>492.71428571428567</ele><time>2026-04-16T13:12:32.789Z</time></trkpt><trkpt lat="44.8921484" lon="9.5186243"><ele>491.85714285714283</ele><time>2026-04-16T13:12:33.79Z</time></trkpt><trkpt lat="44.8920848" lon="9.5186508"><ele>491.0</ele><time>2026-04-16T13:12:34.788Z</time></trkpt><trkpt lat="44.8920196" lon="9.5186781"><ele>490.99999999999994</ele><time>2026-04-16T13:12:35.788Z</time></trkpt><trkpt lat="44.8919567" lon="9.5187105"><ele>491.0</ele><time>2026-04-16T13:12:36.788Z</time></trkpt><trkpt lat="44.8918959" lon="9.518747"><ele>491.0</ele><time>2026-04-16T13:12:37.788Z</time></trkpt><trkpt lat="44.8918377" lon="9.5187864"><ele>491.0</ele><time>2026-04-16T13:12:38.79Z</time></trkpt><trkpt lat="44.8917784" lon="9.5188352"><ele>490.99999999999994</ele><time>2026-04-16T13:12:39.79Z</time></trkpt><trkpt lat="44.8917265" lon="9.5188869"><ele>491.0</ele><time>2026-04-16T13:12:40.79Z</time></trkpt><trkpt lat="44.8916217" lon="9.5189768"><ele>488.8</ele><time>2026-04-16T13:12:42.789Z</time></trkpt><trkpt lat="44.8915128" lon="9.5190561"><ele>486.6</ele><time>2026-04-16T13:12:44.79Z</time></trkpt><trkpt lat="44.8914058" lon="9.5191706"><ele>484.4</ele><time>2026-04-16T13:12:46.79Z</time></trkpt><trkpt lat="44.891355" lon="9.5192376"><ele>482.2</ele><time>2026-04-16T13:12:47.789Z</time></trkpt><trkpt lat="44.8913087" lon="9.5193117"><ele>480.0</ele><time>2026-04-16T13:12:48.788Z</time></trkpt><trkpt lat="44.8912684" lon="9.5193914"><ele>480.0</ele><time>2026-04-16T13:12:49.789Z</time></trkpt><trkpt lat="44.8912325" lon="9.5194705"><ele>480.0</ele><time>2026-04-16T13:12:50.789Z</time></trkpt><trkpt lat="44.8911937" lon="9.5195513"><ele>480.0</ele><time>2026-04-16T13:12:51.79Z</time></trkpt><trkpt lat="44.8911478" lon="9.5196294"><ele>480.0</ele><time>2026-04-16T13:12:52.789Z</time></trkpt><trkpt lat="44.8910973" lon="9.5196992"><ele>480.0</ele><time>2026-04-16T13:12:53.79Z</time></trkpt><trkpt lat="44.8910435" lon="9.5197679"><ele>480.0</ele><time>2026-04-16T13:12:54.788Z</time></trkpt><trkpt lat="44.8909995" lon="9.5198446"><ele>480.0</ele><time>2026-04-16T13:12:55.789Z</time></trkpt><trkpt lat="44.8909664" lon="9.5199276"><ele>478.7142857142857</ele><time>2026-04-16T13:12:56.788Z</time></trkpt><trkpt lat="44.8909419" lon="9.5200126"><ele>477.42857142857144</ele><time>2026-04-16T13:12:57.789Z</time></trkpt><trkpt lat="44.8909196" lon="9.5201003"><ele>476.14285714285717</ele><time>2026-04-16T13:12:58.788Z</time></trkpt><trkpt lat="44.8909003" lon="9.5201894"><ele>474.8571428571429</ele><time>2026-04-16T13:12:59.79Z</time></trkpt><trkpt lat="44.8908798" lon="9.5202805"><ele>473.57142857142856</ele><time>2026-04-16T13:13:00.788Z</time></trkpt><trkpt lat="44.8908517" lon="9.5203671"><ele>472.28571428571433</ele><time>2026-04-16T13:13:01.789Z</time></trkpt><trkpt lat="44.8908136" lon="9.5204441"><ele>471.00000000000006</ele><time>2026-04-16T13:13:02.788Z</time></trkpt><trkpt lat="44.8907705" lon="9.5205191"><ele>468.6666666666667</ele><time>2026-04-16T13:13:03.789Z</time></trkpt><trkpt lat="44.8907232" lon="9.520582"><ele>466.33333333333337</ele><time>2026-04-16T13:13:04.789Z</time></trkpt><trkpt lat="44.8906718" lon="9.5206435"><ele>464.0</ele><time>2026-04-16T13:13:05.789Z</time></trkpt><trkpt lat="44.8905635" lon="9.5207164"><ele>461.6666666666667</ele><time>2026-04-16T13:13:07.789Z</time></trkpt><trkpt lat="44.8905" lon="9.5207424"><ele>459.33333333333337</ele><time>2026-04-16T13:13:08.788Z</time></trkpt><trkpt lat="44.8904312" lon="9.5207636"><ele>457.0</ele><time>2026-04-16T13:13:09.79Z</time></trkpt><trkpt lat="44.8903599" lon="9.5207801"><ele>457.00000000000006</ele><time>2026-04-16T13:13:10.788Z</time></trkpt><trkpt lat="44.8902864" lon="9.5207881"><ele>457.0</ele><time>2026-04-16T13:13:11.789Z</time></trkpt><trkpt lat="44.8902119" lon="9.5208026"><ele>457.0</ele><time>2026-04-16T13:13:12.789Z</time></trkpt><trkpt lat="44.8901359" lon="9.5208214"><ele>457.0</ele><time>2026-04-16T13:13:13.79Z</time></trkpt><trkpt lat="44.8900606" lon="9.5208478"><ele>457.00000000000006</ele><time>2026-04-16T13:13:14.789Z</time></trkpt><trkpt lat="44.8899845" lon="9.5208817"><ele>457.0</ele><time>2026-04-16T13:13:15.79Z</time></trkpt><trkpt lat="44.8899108" lon="9.5209167"><ele>457.00000000000006</ele><time>2026-04-16T13:13:16.788Z</time></trkpt><trkpt lat="44.8898377" lon="9.52095"><ele>457.0</ele><time>2026-04-16T13:13:17.789Z</time></trkpt><trkpt lat="44.8897695" lon="9.5209908"><ele>457.0</ele><time>2026-04-16T13:13:18.788Z</time></trkpt><trkpt lat="44.8897037" lon="9.5210384"><ele>457.0</ele><time>2026-04-16T13:13:19.79Z</time></trkpt><trkpt lat="44.8896436" lon="9.5210877"><ele>457.00000000000006</ele><time>2026-04-16T13:13:20.788Z</time></trkpt><trkpt lat="44.8895853" lon="9.5211318"><ele>457.0</ele><time>2026-04-16T13:13:21.788Z</time></trkpt><trkpt lat="44.8894762" lon="9.5211759"><ele>457.0</ele><time>2026-04-16T13:13:23.789Z</time></trkpt><trkpt lat="44.8893558" lon="9.5211631"><ele>457.0</ele><time>2026-04-16T13:13:25.789Z</time></trkpt><trkpt lat="44.8892504" lon="9.5210979"><ele>457.0</ele><time>2026-04-16T13:13:27.789Z</time></trkpt><trkpt lat="44.8961779" lon="9.5167681"><ele>468.33333333333337</ele><time>2026-04-16T13:11:04.79Z</time></trkpt><trkpt lat="44.8961477" lon="9.5168526"><ele>479.6666666666667</ele><time>2026-04-16T13:11:05.789Z</time></trkpt><trkpt lat="44.8961203" lon="9.5169578"><ele>491.0</ele><time>2026-04-16T13:11:06.789Z</time></trkpt><trkpt lat="44.8960958" lon="9.5170656"><ele>502.33333333333337</ele><time>2026-04-16T13:11:07.79Z</time></trkpt><trkpt lat="44.8960747" lon="9.5171847"><ele>513.6666666666666</ele><time>2026-04-16T13:11:08.789Z</time></trkpt><trkpt lat="44.8960644" lon="9.5173114"><ele>525.0</ele><time>2026-04-16T13:11:09.789Z</time></trkpt><trkpt lat="44.8960668" lon="9.5174351"><ele>525.0</ele><time>2026-04-16T13:11:10.79Z</time></trkpt><trkpt lat="44.8960755" lon="9.5175455"><ele>525.0</ele><time>2026-04-16T13:11:11.79Z</time></trkpt><trkpt lat="44.8960858" lon="9.5176435"><ele>525.0</ele><time>2026-04-16T13:11:12.79Z</time></trkpt><trkpt lat="44.896069" lon="9.5177879"><ele>525.0</ele><time>2026-04-16T13:11:14.789Z</time></trkpt><trkpt lat="44.8960062" lon="9.5179371"><ele>525.0</ele><time>2026-04-16T13:11:16.789Z</time></trkpt><trkpt lat="44.8959566" lon="9.5180109"><ele>525.0</ele><time>2026-04-16T13:11:17.79Z</time></trkpt><trkpt lat="44.8959025" lon="9.5180807"><ele>524.4285714285714</ele><time>2026-04-16T13:11:18.79Z</time></trkpt><trkpt lat="44.8958514" lon="9.5181511"><ele>523.8571428571429</ele><time>2026-04-16T13:11:19.79Z</time></trkpt><trkpt lat="44.8958023" lon="9.5182245"><ele>523.2857142857142</ele><time>2026-04-16T13:11:20.79Z</time></trkpt><trkpt lat="44.8957541" lon="9.5182933"><ele>522.7142857142858</ele><time>2026-04-16T13:11:21.79Z</time></trkpt><trkpt lat="44.8957068" lon="9.5183604"><ele>522.1428571428571</ele><time>2026-04-16T13:11:22.788Z</time></trkpt><trkpt lat="44.8956606" lon="9.5184211"><ele>521.5714285714286</ele><time>2026-04-16T13:11:23.789Z</time></trkpt><trkpt lat="44.8956102" lon="9.5184763"><ele>521.0</ele><time>2026-04-16T13:11:24.789Z</time></trkpt><trkpt lat="44.8955014" lon="9.5185525"><ele>521.0</ele><time>2026-04-16T13:11:26.788Z</time></trkpt><trkpt lat="44.8954339" lon="9.5185821"><ele>521.0</ele><time>2026-04-16T13:11:27.788Z</time></trkpt><trkpt lat="44.8953658" lon="9.518616"><ele>521.0</ele><time>2026-04-16T13:11:28.788Z</time></trkpt><trkpt lat="44.895299" lon="9.5186633"><ele>521.0</ele><time>2026-04-16T13:11:29.789Z</time></trkpt><trkpt lat="44.8952414" lon="9.5187207"><ele>521.0</ele><time>2026-04-16T13:11:30.788Z</time></trkpt><trkpt lat="44.895187" lon="9.5187759"><ele>521.0</ele><time>2026-04-16T13:11:31.789Z</time></trkpt><trkpt lat="44.8950862" lon="9.5188604"><ele>518.6666666666666</ele><time>2026-04-16T13:11:33.789Z</time></trkpt><trkpt lat="44.8949746" lon="9.518898"><ele>516.3333333333333</ele><time>2026-04-16T13:11:35.789Z</time></trkpt><trkpt lat="44.8948526" lon="9.5188782"><ele>514.0</ele><time>2026-04-16T13:11:37.789Z</time></trkpt><trkpt lat="44.8947897" lon="9.5188488"><ele>511.66666666666663</ele><time>2026-04-16T13:11:38.789Z</time></trkpt><trkpt lat="44.8947309" lon="9.5188101"><ele>509.3333333333333</ele><time>2026-04-16T13:11:39.789Z</time></trkpt><trkpt lat="44.8946682" lon="9.5187762"><ele>507.0</ele><time>2026-04-16T13:11:40.789Z</time></trkpt><trkpt lat="44.8946019" lon="9.518744"><ele>507.0</ele><time>2026-04-16T13:11:41.788Z</time></trkpt><trkpt lat="44.8945405" lon="9.5187124"><ele>507.0</ele><time>2026-04-16T13:11:42.789Z</time></trkpt><trkpt lat="44.8944808" lon="9.5186813"><ele>507.0</ele><time>2026-04-16T13:11:43.789Z</time></trkpt><trkpt lat="44.8943652" lon="9.5186146"><ele>507.0</ele><time>2026-04-16T13:11:45.789Z</time></trkpt><trkpt lat="44.8943064" lon="9.5185823"><ele>507.0</ele><time>2026-04-16T13:11:46.789Z</time></trkpt><trkpt lat="44.8942124" lon="9.518533"><ele>507.0</ele><time>2026-04-16T13:11:48.789Z</time></trkpt><trkpt lat="44.8941485" lon="9.5185356"><ele>507.0</ele><time>2026-04-16T13:11:51.788Z</time></trkpt><trkpt lat="44.8940843" lon="9.5184607"><ele>507.00000000000006</ele><time>2026-04-16T13:11:58.789Z</time></trkpt><trkpt lat="44.8940449" lon="9.5183458"><ele>507.00000000000006</ele><time>2026-04-16T13:12:00.79Z</time></trkpt><trkpt lat="44.8939633" lon="9.5181953"><ele>507.0</ele><time>2026-04-16T13:12:02.789Z</time></trkpt><trkpt lat="44.893917" lon="9.5181157"><ele>507.0</ele><time>2026-04-16T13:12:03.788Z</time></trkpt><trkpt lat="44.8938665" lon="9.5180444"><ele>507.0</ele><time>2026-04-16T13:12:04.789Z</time></trkpt><trkpt lat="44.8938142" lon="9.5179862"><ele>507.00000000000006</ele><time>2026-04-16T13:12:05.788Z</time></trkpt><trkpt lat="44.893704" lon="9.5179293"><ele>507.00000000000006</ele><time>2026-04-16T13:12:07.788Z</time></trkpt><trkpt lat="44.8936006" lon="9.5179207"><ele>507.0</ele><time>2026-04-16T13:12:09.788Z</time></trkpt><trkpt lat="44.8934867" lon="9.5179689"><ele>507.0</ele><time>2026-04-16T13:12:11.788Z</time></trkpt><trkpt lat="44.8934243" lon="9.5180107"><ele>505.0</ele><time>2026-04-16T13:12:12.789Z</time></trkpt><trkpt lat="44.8933669" lon="9.5180555"><ele>503.00000000000006</ele><time>2026-04-16T13:12:13.789Z</time></trkpt><trkpt lat="44.8932643" lon="9.5181388"><ele>501.00000000000006</ele><time>2026-04-16T13:12:15.789Z</time></trkpt><trkpt lat="44.8931623" lon="9.5182143"><ele>499.0</ele><time>2026-04-16T13:12:17.789Z</time></trkpt><trkpt lat="44.8930597" lon="9.5182679"><ele>497.0</ele><time>2026-04-16T13:12:19.788Z</time></trkpt><trkpt lat="44.8929475" lon="9.5182979"><ele>496.99999999999994</ele><time>2026-04-16T13:12:21.788Z</time></trkpt><trkpt lat="44.892825" lon="9.5183321"><ele>497.0</ele><time>2026-04-16T13:12:23.789Z</time></trkpt><trkpt lat="44.8927602" lon="9.5183545"><ele>497.0</ele><time>2026-04-16T13:12:24.789Z</time></trkpt><trkpt lat="44.892691" lon="9.518379"><ele>497.0</ele><time>2026-04-16T13:12:25.789Z</time></trkpt><trkpt lat="44.892627" lon="9.5184084"><ele>496.99999999999994</ele><time>2026-04-16T13:12:26.788Z</time></trkpt><trkpt lat="44.8925575" lon="9.5184323"><ele>497.0</ele><time>2026-04-16T13:12:27.789Z</time></trkpt><trkpt lat="44.8924867" lon="9.5184598"><ele>496.1428571428571</ele><time>2026-04-16T13:12:28.788Z</time></trkpt><trkpt lat="44.8924201" lon="9.5184894"><ele>495.2857142857143</ele><time>2026-04-16T13:12:29.789Z</time></trkpt><trkpt lat="44.8923527" lon="9.518523"><ele>494.42857142857144</ele><time>2026-04-16T13:12:30.788Z</time></trkpt><trkpt lat="44.8922825" lon="9.518557"><ele>493.57142857142856</ele><time>2026-04-16T13:12:31.789Z</time></trkpt><trkpt lat="44.8922135" lon="9.5185916"><ele>492.71428571428567</ele><time>2026-04-16T13:12:32.789Z</time></trkpt><trkpt lat="44.8921484" lon="9.5186243"><ele>491.85714285714283</ele><time>2026-04-16T13:12:33.79Z</time></trkpt><trkpt lat="44.8920848" lon="9.5186508"><ele>491.0</ele><time>2026-04-16T13:12:34.788Z</time></trkpt><trkpt lat="44.8920196" lon="9.5186781"><ele>490.99999999999994</ele><time>2026-04-16T13:12:35.788Z</time></trkpt><trkpt lat="44.8919567" lon="9.5187105"><ele>491.0</ele><time>2026-04-16T13:12:36.788Z</time></trkpt><trkpt lat="44.8918959" lon="9.518747"><ele>491.0</ele><time>2026-04-16T13:12:37.788Z</time></trkpt><trkpt lat="44.8918377" lon="9.5187864"><ele>491.0</ele><time>2026-04-16T13:12:38.79Z</time></trkpt><trkpt lat="44.8917784" lon="9.5188352"><ele>490.99999999999994</ele><time>2026-04-16T13:12:39.79Z</time></trkpt><trkpt lat="44.8917265" lon="9.5188869"><ele>491.0</ele><time>2026-04-16T13:12:40.79Z</time></trkpt><trkpt lat="44.8916217" lon="9.5189768"><ele>488.8</ele><time>2026-04-16T13:12:42.789Z</time></trkpt><trkpt lat="44.8915128" lon="9.5190561"><ele>486.6</ele><time>2026-04-16T13:12:44.79Z</time></trkpt><trkpt lat="44.8914058" lon="9.5191706"><ele>484.4</ele><time>2026-04-16T13:12:46.79Z</time></trkpt><trkpt lat="44.891355" lon="9.5192376"><ele>482.2</ele><time>2026-04-16T13:12:47.789Z</time></trkpt><trkpt lat="44.8913087" lon="9.5193117"><ele>480.0</ele><time>2026-04-16T13:12:48.788Z</time></trkpt><trkpt lat="44.8912684" lon="9.5193914"><ele>480.0</ele><time>2026-04-16T13:12:49.789Z</time></trkpt><trkpt lat="44.8912325" lon="9.5194705"><ele>480.0</ele><time>2026-04-16T13:12:50.789Z</time></trkpt><trkpt lat="44.8911937" lon="9.5195513"><ele>480.0</ele><time>2026-04-16T13:12:51.79Z</time></trkpt><trkpt lat="44.8911478" lon="9.5196294"><ele>480.0</ele><time>2026-04-16T13:12:52.789Z</time></trkpt><trkpt lat="44.8910973" lon="9.5196992"><ele>480.0</ele><time>2026-04-16T13:12:53.79Z</time></trkpt><trkpt lat="44.8910435" lon="9.5197679"><ele>480.0</ele><time>2026-04-16T13:12:54.788Z</time></trkpt><trkpt lat="44.8909995" lon="9.5198446"><ele>480.0</ele><time>2026-04-16T13:12:55.789Z</time></trkpt><trkpt lat="44.8909664" lon="9.5199276"><ele>478.7142857142857</ele><time>2026-04-16T13:12:56.788Z</time></trkpt><trkpt lat="44.8909419" lon="9.5200126"><ele>477.42857142857144</ele><time>2026-04-16T13:12:57.789Z</time></trkpt><trkpt lat="44.8909196" lon="9.5201003"><ele>476.14285714285717</ele><time>2026-04-16T13:12:58.788Z</time></trkpt><trkpt lat="44.8909003" lon="9.5201894"><ele>474.8571428571429</ele><time>2026-04-16T13:12:59.79Z</time></trkpt><trkpt lat="44.8908798" lon="9.5202805"><ele>473.57142857142856</ele><time>2026-04-16T13:13:00.788Z</time></trkpt><trkpt lat="44.8908517" lon="9.5203671"><ele>472.28571428571433</ele><time>2026-04-16T13:13:01.789Z</time></trkpt><trkpt lat="44.8908136" lon="9.5204441"><ele>471.00000000000006</ele><time>2026-04-16T13:13:02.788Z</time></trkpt><trkpt lat="44.8907705" lon="9.5205191"><ele>468.6666666666667</ele><time>2026-04-16T13:13:03.789Z</time></trkpt><trkpt lat="44.8907232" lon="9.520582"><ele>466.33333333333337</ele><time>2026-04-16T13:13:04.789Z</time></trkpt><trkpt lat="44.8906718" lon="9.5206435"><ele>464.0</ele><time>2026-04-16T13:13:05.789Z</time></trkpt><trkpt lat="44.8905635" lon="9.5207164"><ele>461.6666666666667</ele><time>2026-04-16T13:13:07.789Z</time></trkpt><trkpt lat="44.8905" lon="9.5207424"><ele>459.33333333333337</ele><time>2026-04-16T13:13:08.788Z</time></trkpt><trkpt lat="44.8904312" lon="9.5207636"><ele>457.0</ele><time>2026-04-16T13:13:09.79Z</time></trkpt><trkpt lat="44.8903599" lon="9.5207801"><ele>457.00000000000006</ele><time>2026-04-16T13:13:10.788Z</time></trkpt><trkpt lat="44.8902864" lon="9.5207881"><ele>457.0</ele><time>2026-04-16T13:13:11.789Z</time></trkpt><trkpt lat="44.8902119" lon="9.5208026"><ele>457.0</ele><time>2026-04-16T13:13:12.789Z</time></trkpt><trkpt lat="44.8901359" lon="9.5208214"><ele>457.0</ele><time>2026-04-16T13:13:13.79Z</time></trkpt><trkpt lat="44.8900606" lon="9.5208478"><ele>457.00000000000006</ele><time>2026-04-16T13:13:14.789Z</time></trkpt><trkpt lat="44.8899845" lon="9.5208817"><ele>457.0</ele><time>2026-04-16T13:13:15.79Z</time></trkpt><trkpt lat="44.8899108" lon="9.5209167"><ele>457.00000000000006</ele><time>2026-04-16T13:13:16.788Z</time></trkpt><trkpt lat="44.8898377" lon="9.52095"><ele>457.0</ele><time>2026-04-16T13:13:17.789Z</time></trkpt><trkpt lat="44.8897695" lon="9.5209908"><ele>457.0</ele><time>2026-04-16T13:13:18.788Z</time></trkpt><trkpt lat="44.8897037" lon="9.5210384"><ele>457.0</ele><time>2026-04-16T13:13:19.79Z</time></trkpt><trkpt lat="44.8896436" lon="9.5210877"><ele>457.00000000000006</ele><time>2026-04-16T13:13:20.788Z</time></trkpt><trkpt lat="44.8895853" lon="9.5211318"><ele>457.0</ele><time>2026-04-16T13:13:21.788Z</time></trkpt><trkpt lat="44.8894762" lon="9.5211759"><ele>457.0</ele><time>2026-04-16T13:13:23.789Z</time></trkpt><trkpt lat="44.8893558" lon="9.5211631"><ele>457.00000000000006</ele><time>2026-04-16T13:13:25.789Z</time></trkpt><trkpt lat="44.8892504" lon="9.5210979"><ele>457.00000000000006</ele><time>2026-04-16T13:13:27.789Z</time></trkpt><trkpt lat="44.8891782" lon="9.5211032"><ele>457.0</ele><time>2026-04-16T13:13:29.788Z</time></trkpt><trkpt lat="44.889155" lon="9.5211873"><ele>457.0</ele><time>2026-04-16T13:13:31.788Z</time></trkpt><trkpt lat="44.8891859" lon="9.5212878"><ele>453.6666666666667</ele><time>2026-04-16T13:13:33.789Z</time></trkpt><trkpt lat="44.8892409" lon="9.5213594"><ele>450.33333333333337</ele><time>2026-04-16T13:13:35.788Z</time></trkpt><trkpt lat="44.8893076" lon="9.5213919"><ele>447.0</ele><time>2026-04-16T13:13:37.789Z</time></trkpt><trkpt lat="44.889434" lon="9.521441"><ele>443.66666666666663</ele><time>2026-04-16T13:13:39.789Z</time></trkpt><trkpt lat="44.8895008" lon="9.5214652"><ele>440.3333333333333</ele><time>2026-04-16T13:13:40.788Z</time></trkpt><trkpt lat="44.8895642" lon="9.5214959"><ele>437.0</ele><time>2026-04-16T13:13:41.788Z</time></trkpt><trkpt lat="44.8896249" lon="9.5215394"><ele>436.99999999999994</ele><time>2026-04-16T13:13:42.789Z</time></trkpt><trkpt lat="44.8896905" lon="9.5215972"><ele>437.0</ele><time>2026-04-16T13:13:43.789Z</time></trkpt><trkpt lat="44.8897488" lon="9.5216694"><ele>437.0</ele><time>2026-04-16T13:13:44.789Z</time></trkpt><trkpt lat="44.8898069" lon="9.5217611"><ele>437.0</ele><time>2026-04-16T13:13:45.788Z</time></trkpt><trkpt lat="44.889853" lon="9.5218551"><ele>436.99999999999994</ele><time>2026-04-16T13:13:46.789Z</time></trkpt><trkpt lat="44.8899031" lon="9.5219416"><ele>437.0</ele><time>2026-04-16T13:13:47.789Z</time></trkpt><trkpt lat="44.8899541" lon="9.5220178"><ele>435.0</ele><time>2026-04-16T13:13:48.788Z</time></trkpt><trkpt lat="44.8900027" lon="9.5220889"><ele>433.0</ele><time>2026-04-16T13:13:49.788Z</time></trkpt><trkpt lat="44.8900514" lon="9.5221588"><ele>431.0</ele><time>2026-04-16T13:13:50.789Z</time></trkpt><trkpt lat="44.8901055" lon="9.5222183"><ele>429.0</ele><time>2026-04-16T13:13:51.788Z</time></trkpt><trkpt lat="44.8901632" lon="9.5222676"><ele>427.0</ele><time>2026-04-16T13:13:52.789Z</time></trkpt><trkpt lat="44.8902241" lon="9.5223159"><ele>425.0</ele><time>2026-04-16T13:13:53.789Z</time></trkpt><trkpt lat="44.8902834" lon="9.5223548"><ele>423.0</ele><time>2026-04-16T13:13:54.789Z</time></trkpt><trkpt lat="44.8903463" lon="9.5223835"><ele>423.0</ele><time>2026-04-16T13:13:55.789Z</time></trkpt><trkpt lat="44.8904197" lon="9.5224037"><ele>423.0</ele><time>2026-04-16T13:13:56.788Z</time></trkpt><trkpt lat="44.890504" lon="9.5224173"><ele>423.0</ele><time>2026-04-16T13:13:57.789Z</time></trkpt><trkpt lat="44.8905859" lon="9.5224295"><ele>423.0</ele><time>2026-04-16T13:13:58.789Z</time></trkpt><trkpt lat="44.8906621" lon="9.5224412"><ele>423.0</ele><time>2026-04-16T13:13:59.788Z</time></trkpt><trkpt lat="44.8907346" lon="9.5224534"><ele>423.0</ele><time>2026-04-16T13:14:00.789Z</time></trkpt><trkpt lat="44.8908037" lon="9.5224722"><ele>423.0</ele><time>2026-04-16T13:14:01.788Z</time></trkpt><trkpt lat="44.8908705" lon="9.5224956"><ele>423.0</ele><time>2026-04-16T13:14:02.788Z</time></trkpt><trkpt lat="44.8909762" lon="9.5225517"><ele>423.0</ele><time>2026-04-16T13:14:04.789Z</time></trkpt><trkpt lat="44.89106" lon="9.5226408"><ele>423.0</ele><time>2026-04-16T13:14:06.789Z</time></trkpt><trkpt lat="44.8911008" lon="9.5227501"><ele>423.0</ele><time>2026-04-16T13:14:08.789Z</time></trkpt><trkpt lat="44.8910904" lon="9.5228413"><ele>423.0</ele><time>2026-04-16T13:14:10.789Z</time></trkpt><trkpt lat="44.891024" lon="9.5228946"><ele>423.0</ele><time>2026-04-16T13:14:12.789Z</time></trkpt><trkpt lat="44.8909449" lon="9.5228761"><ele>423.0</ele><time>2026-04-16T13:14:14.789Z</time></trkpt><trkpt lat="44.8908415" lon="9.5228141"><ele>423.0</ele><time>2026-04-16T13:14:16.789Z</time></trkpt><trkpt lat="44.8907237" lon="9.522762"><ele>423.0</ele><time>2026-04-16T13:14:18.788Z</time></trkpt><trkpt lat="44.8906058" lon="9.5227529"><ele>423.0</ele><time>2026-04-16T13:14:20.788Z</time></trkpt><trkpt lat="44.8904895" lon="9.5228137"><ele>423.0</ele><time>2026-04-16T13:14:22.788Z</time></trkpt><trkpt lat="44.8904347" lon="9.5228613"><ele>423.0</ele><time>2026-04-16T13:14:23.789Z</time></trkpt><trkpt lat="44.890382" lon="9.5229185"><ele>423.0</ele><time>2026-04-16T13:14:24.788Z</time></trkpt><trkpt lat="44.890329" lon="9.5229802"><ele>423.0</ele><time>2026-04-16T13:14:25.789Z</time></trkpt><trkpt lat="44.8902704" lon="9.5230419"><ele>423.0</ele><time>2026-04-16T13:14:26.789Z</time></trkpt><trkpt lat="44.8902107" lon="9.5231058"><ele>423.0</ele><time>2026-04-16T13:14:27.79Z</time></trkpt><trkpt lat="44.8901509" lon="9.5231626"><ele>423.0</ele><time>2026-04-16T13:14:28.789Z</time></trkpt><trkpt lat="44.8900855" lon="9.5232132"><ele>420.7142857142857</ele><time>2026-04-16T13:14:29.788Z</time></trkpt><trkpt lat="44.8900205" lon="9.5232581"><ele>418.42857142857144</ele><time>2026-04-16T13:14:30.789Z</time></trkpt><trkpt lat="44.8899529" lon="9.5232969"><ele>416.14285714285717</ele><time>2026-04-16T13:14:31.789Z</time></trkpt><trkpt lat="44.8898853" lon="9.5233338"><ele>413.8571428571429</ele><time>2026-04-16T13:14:32.788Z</time></trkpt><trkpt lat="44.8898178" lon="9.5233663"><ele>411.57142857142856</ele><time>2026-04-16T13:14:33.79Z</time></trkpt><trkpt lat="44.889752" lon="9.5233977"><ele>409.28571428571433</ele><time>2026-04-16T13:14:34.789Z</time></trkpt><trkpt lat="44.8896861" lon="9.5234257"><ele>407.0</ele><time>2026-04-16T13:14:35.789Z</time></trkpt><trkpt lat="44.8896176" lon="9.5234423"><ele>406.99999999999994</ele><time>2026-04-16T13:14:36.788Z</time></trkpt><trkpt lat="44.8895486" lon="9.5234414"><ele>407.0</ele><time>2026-04-16T13:14:37.788Z</time></trkpt><trkpt lat="44.88947" lon="9.5234318"><ele>407.0</ele><time>2026-04-16T13:14:38.789Z</time></trkpt><trkpt lat="44.889385" lon="9.5234253"><ele>407.0</ele><time>2026-04-16T13:14:39.789Z</time></trkpt><trkpt lat="44.8893043" lon="9.5234263"><ele>406.99999999999994</ele><time>2026-04-16T13:14:40.79Z</time></trkpt><trkpt lat="44.8892313" lon="9.5234307"><ele>407.0</ele><time>2026-04-16T13:14:41.789Z</time></trkpt><trkpt lat="44.8891666" lon="9.5234414"><ele>406.75</ele><time>2026-04-16T13:14:42.789Z</time></trkpt><trkpt lat="44.889052" lon="9.5234825"><ele>406.5</ele><time>2026-04-16T13:14:44.788Z</time></trkpt><trkpt lat="44.8889624" lon="9.5235814"><ele>406.25</ele><time>2026-04-16T13:14:46.789Z</time></trkpt><trkpt lat="44.8888862" lon="9.5237106"><ele>406.0</ele><time>2026-04-16T13:14:48.788Z</time></trkpt><trkpt lat="44.8887927" lon="9.5237746"><ele>406.0</ele><time>2026-04-16T13:14:50.788Z</time></trkpt><trkpt lat="44.8886895" lon="9.5237564"><ele>406.0</ele><time>2026-04-16T13:14:52.789Z</time></trkpt><trkpt lat="44.8886026" lon="9.5237246"><ele>406.0</ele><time>2026-04-16T13:14:54.788Z</time></trkpt><trkpt lat="44.8885286" lon="9.5237128"><ele>406.0</ele><time>2026-04-16T13:14:56.789Z</time></trkpt><trkpt lat="44.8884401" lon="9.523751"><ele>406.0</ele><time>2026-04-16T13:14:58.789Z</time></trkpt><trkpt lat="44.8883904" lon="9.523857"><ele>404.20000000000005</ele><time>2026-04-16T13:15:00.789Z</time></trkpt><trkpt lat="44.8883904" lon="9.5240019"><ele>402.40000000000003</ele><time>2026-04-16T13:15:02.788Z</time></trkpt><trkpt lat="44.8884203" lon="9.5241454"><ele>400.6</ele><time>2026-04-16T13:15:04.788Z</time></trkpt><trkpt lat="44.8884523" lon="9.5242277"><ele>398.8</ele><time>2026-04-16T13:15:05.789Z</time></trkpt><trkpt lat="44.8884914" lon="9.5243131"><ele>397.0</ele><time>2026-04-16T13:15:06.79Z</time></trkpt><trkpt lat="44.8885404" lon="9.5244493"><ele>395.40000000000003</ele><time>2026-04-16T13:15:08.788Z</time></trkpt><trkpt lat="44.8885416" lon="9.5245593"><ele>393.8</ele><time>2026-04-16T13:15:10.789Z</time></trkpt><trkpt lat="44.8884959" lon="9.5246605"><ele>392.2</ele><time>2026-04-16T13:15:12.789Z</time></trkpt><trkpt lat="44.8884209" lon="9.5247747"><ele>390.6</ele><time>2026-04-16T13:15:14.789Z</time></trkpt><trkpt lat="44.8883951" lon="9.5249179"><ele>389.0</ele><time>2026-04-16T13:15:16.788Z</time></trkpt><trkpt lat="44.8884186" lon="9.5250983"><ele>386.3333333333333</ele><time>2026-04-16T13:15:18.788Z</time></trkpt><trkpt lat="44.8884536" lon="9.5251894"><ele>383.66666666666663</ele><time>2026-04-16T13:15:19.789Z</time></trkpt><trkpt lat="44.8885046" lon="9.525279"><ele>381.0</ele><time>2026-04-16T13:15:20.788Z</time></trkpt><trkpt lat="44.8885606" lon="9.5253588"><ele>378.3333333333333</ele><time>2026-04-16T13:15:21.788Z</time></trkpt><trkpt lat="44.8886132" lon="9.5254253"><ele>375.66666666666663</ele><time>2026-04-16T13:15:22.789Z</time></trkpt><trkpt lat="44.8886911" lon="9.525534"><ele>373.0</ele><time>2026-04-16T13:15:24.789Z</time></trkpt><trkpt lat="44.8887152" lon="9.5256541"><ele>371.16666666666663</ele><time>2026-04-16T13:15:26.788Z</time></trkpt><trkpt lat="44.8886827" lon="9.5257971"><ele>369.3333333333333</ele><time>2026-04-16T13:15:28.789Z</time></trkpt><trkpt lat="44.8886432" lon="9.5258787"><ele>367.5</ele><time>2026-04-16T13:15:29.789Z</time></trkpt><trkpt lat="44.8885991" lon="9.5259557"><ele>365.6666666666667</ele><time>2026-04-16T13:15:30.789Z</time></trkpt><trkpt lat="44.8885685" lon="9.5260362"><ele>363.83333333333337</ele><time>2026-04-16T13:15:31.788Z</time></trkpt><trkpt lat="44.8885438" lon="9.5261928"><ele>362.0</ele><time>2026-04-16T13:15:33.788Z</time></trkpt><trkpt lat="44.8885851" lon="9.5263699"><ele>360.8</ele><time>2026-04-16T13:15:35.789Z</time></trkpt><trkpt lat="44.8886275" lon="9.5264728"><ele>359.6</ele><time>2026-04-16T13:15:36.789Z</time></trkpt><trkpt lat="44.8886635" lon="9.5265612"><ele>358.40000000000003</ele><time>2026-04-16T13:15:37.789Z</time></trkpt><trkpt lat="44.8887" lon="9.5267096"><ele>357.20000000000005</ele><time>2026-04-16T13:15:39.789Z</time></trkpt><trkpt lat="44.8886878" lon="9.5268467"><ele>356.0</ele><time>2026-04-16T13:15:41.789Z</time></trkpt><trkpt lat="44.8886267" lon="9.5269931"><ele>354.33333333333337</ele><time>2026-04-16T13:15:43.788Z</time></trkpt><trkpt lat="44.8885773" lon="9.5270841"><ele>352.6666666666667</ele><time>2026-04-16T13:15:44.788Z</time></trkpt><trkpt lat="44.8885215" lon="9.5271844"><ele>351.0</ele><time>2026-04-16T13:15:45.789Z</time></trkpt><trkpt lat="44.8884655" lon="9.5272837"><ele>349.3333333333333</ele><time>2026-04-16T13:15:46.789Z</time></trkpt><trkpt lat="44.888414" lon="9.5273837"><ele>347.66666666666663</ele><time>2026-04-16T13:15:47.788Z</time></trkpt><trkpt lat="44.8883638" lon="9.5274847"><ele>346.0</ele><time>2026-04-16T13:15:48.788Z</time></trkpt><trkpt lat="44.8883177" lon="9.5275841"><ele>348.16666666666663</ele><time>2026-04-16T13:15:49.79Z</time></trkpt><trkpt lat="44.8882756" lon="9.5276942"><ele>350.3333333333333</ele><time>2026-04-16T13:15:50.79Z</time></trkpt><trkpt lat="44.8882387" lon="9.5278139"><ele>352.5</ele><time>2026-04-16T13:15:51.79Z</time></trkpt><trkpt lat="44.8882005" lon="9.5279346"><ele>354.6666666666667</ele><time>2026-04-16T13:15:52.789Z</time></trkpt><trkpt lat="44.8881641" lon="9.5280526"><ele>356.83333333333337</ele><time>2026-04-16T13:15:53.789Z</time></trkpt><trkpt lat="44.8881311" lon="9.5281602"><ele>359.0</ele><time>2026-04-16T13:15:54.788Z</time></trkpt><trkpt lat="44.8880991" lon="9.5282578"><ele>359.0</ele><time>2026-04-16T13:15:55.789Z</time></trkpt><trkpt lat="44.8880694" lon="9.5283446"><ele>359.0</ele><time>2026-04-16T13:15:56.789Z</time></trkpt><trkpt lat="44.8880026" lon="9.528469"><ele>359.0</ele><time>2026-04-16T13:15:58.788Z</time></trkpt><trkpt lat="44.8879318" lon="9.5285367"><ele>359.0</ele><time>2026-04-16T13:16:00.788Z</time></trkpt><trkpt lat="44.8878482" lon="9.528547"><ele>359.0</ele><time>2026-04-16T13:16:02.789Z</time></trkpt><trkpt lat="44.8877835" lon="9.5285446"><ele>359.0</ele><time>2026-04-16T13:16:03.789Z</time></trkpt><trkpt lat="44.8877137" lon="9.5285376"><ele>359.0</ele><time>2026-04-16T13:16:04.788Z</time></trkpt><trkpt lat="44.8876355" lon="9.5285317"><ele>359.0</ele><time>2026-04-16T13:16:05.789Z</time></trkpt><trkpt lat="44.887556" lon="9.5285365"><ele>359.0</ele><time>2026-04-16T13:16:06.789Z</time></trkpt><trkpt lat="44.88747" lon="9.5285478"><ele>359.0</ele><time>2026-04-16T13:16:07.789Z</time></trkpt><trkpt lat="44.8873806" lon="9.5285968"><ele>359.0</ele><time>2026-04-16T13:16:08.79Z</time></trkpt><trkpt lat="44.8872811" lon="9.528659"><ele>359.0</ele><time>2026-04-16T13:16:09.787Z</time></trkpt><trkpt lat="44.887179" lon="9.5287296"><ele>359.0</ele><time>2026-04-16T13:16:10.787Z</time></trkpt><trkpt lat="44.8870836" lon="9.5287904"><ele>359.0</ele><time>2026-04-16T13:16:11.788Z</time></trkpt><trkpt lat="44.8869946" lon="9.5288445"><ele>359.0</ele><time>2026-04-16T13:16:12.788Z</time></trkpt><trkpt lat="44.8869104" lon="9.5288936"><ele>359.0</ele><time>2026-04-16T13:16:13.787Z</time></trkpt><trkpt lat="44.8868337" lon="9.5289321"><ele>359.0</ele><time>2026-04-16T13:16:14.787Z</time></trkpt><trkpt lat="44.886754" lon="9.5289547"><ele>360.6</ele><time>2026-04-16T13:16:15.788Z</time></trkpt><trkpt lat="44.8866672" lon="9.5289633"><ele>362.2</ele><time>2026-04-16T13:16:16.788Z</time></trkpt><trkpt lat="44.8865764" lon="9.5289613"><ele>363.8</ele><time>2026-04-16T13:16:17.789Z</time></trkpt><trkpt lat="44.886483" lon="9.5289487"><ele>365.40000000000003</ele><time>2026-04-16T13:16:18.789Z</time></trkpt><trkpt lat="44.8863842" lon="9.5289315"><ele>367.0</ele><time>2026-04-16T13:16:19.788Z</time></trkpt><trkpt lat="44.8862829" lon="9.5289132"><ele>367.0</ele><time>2026-04-16T13:16:20.788Z</time></trkpt><trkpt lat="44.8861829" lon="9.5288978"><ele>367.0</ele><time>2026-04-16T13:16:21.789Z</time></trkpt><trkpt lat="44.8860887" lon="9.5288865"><ele>367.0</ele><time>2026-04-16T13:16:22.788Z</time></trkpt><trkpt lat="44.8859994" lon="9.5288749"><ele>367.0</ele><time>2026-04-16T13:16:23.788Z</time></trkpt><trkpt lat="44.8859121" lon="9.5288664"><ele>367.0</ele><time>2026-04-16T13:16:24.787Z</time></trkpt><trkpt lat="44.8858355" lon="9.5288692"><ele>367.0</ele><time>2026-04-16T13:16:25.788Z</time></trkpt><trkpt lat="44.8857709" lon="9.5288886"><ele>369.6</ele><time>2026-04-16T13:16:26.787Z</time></trkpt><trkpt lat="44.8856814" lon="9.528985"><ele>372.20000000000005</ele><time>2026-04-16T13:16:28.788Z</time></trkpt><trkpt lat="44.8856492" lon="9.5291659"><ele>374.8</ele><time>2026-04-16T13:16:30.789Z</time></trkpt><trkpt lat="44.8856403" lon="9.5292846"><ele>377.4</ele><time>2026-04-16T13:16:31.788Z</time></trkpt><trkpt lat="44.8856192" lon="9.5293997"><ele>380.0</ele><time>2026-04-16T13:16:32.788Z</time></trkpt><trkpt lat="44.885586" lon="9.5295115"><ele>377.6666666666667</ele><time>2026-04-16T13:16:33.789Z</time></trkpt><trkpt lat="44.8855388" lon="9.5296201"><ele>375.33333333333337</ele><time>2026-04-16T13:16:34.789Z</time></trkpt><trkpt lat="44.8854844" lon="9.5297121"><ele>373.0</ele><time>2026-04-16T13:16:35.789Z</time></trkpt><trkpt lat="44.8854237" lon="9.5298061"><ele>370.6666666666667</ele><time>2026-04-16T13:16:36.787Z</time></trkpt><trkpt lat="44.8853556" lon="9.5299021"><ele>368.3333333333333</ele><time>2026-04-16T13:16:37.788Z</time></trkpt><trkpt lat="44.8852907" lon="9.5299771"><ele>366.0</ele><time>2026-04-16T13:16:38.788Z</time></trkpt><trkpt lat="44.8852161" lon="9.5300416"><ele>366.0</ele><time>2026-04-16T13:16:39.788Z</time></trkpt><trkpt lat="44.8851346" lon="9.5300982"><ele>366.0</ele><time>2026-04-16T13:16:40.787Z</time></trkpt><trkpt lat="44.8850441" lon="9.5301494"><ele>366.0</ele><time>2026-04-16T13:16:41.788Z</time></trkpt><trkpt lat="44.8849429" lon="9.5301939"><ele>366.0</ele><time>2026-04-16T13:16:42.787Z</time></trkpt><trkpt lat="44.8848427" lon="9.5302233"><ele>366.0</ele><time>2026-04-16T13:16:43.787Z</time></trkpt><trkpt lat="44.884754" lon="9.530241"><ele>369.8</ele><time>2026-04-16T13:16:44.787Z</time></trkpt><trkpt lat="44.884656" lon="9.5302569"><ele>373.6</ele><time>2026-04-16T13:16:45.788Z</time></trkpt><trkpt lat="44.8845532" lon="9.530268"><ele>377.4</ele><time>2026-04-16T13:16:46.787Z</time></trkpt><trkpt lat="44.8844468" lon="9.5302755"><ele>381.2</ele><time>2026-04-16T13:16:47.787Z</time></trkpt><trkpt lat="44.8843463" lon="9.5302834"><ele>385.0</ele><time>2026-04-16T13:16:48.788Z</time></trkpt><trkpt lat="44.8842509" lon="9.530287"><ele>386.6</ele><time>2026-04-16T13:16:49.788Z</time></trkpt><trkpt lat="44.8841504" lon="9.5302923"><ele>388.2</ele><time>2026-04-16T13:16:50.787Z</time></trkpt><trkpt lat="44.8840447" lon="9.5303121"><ele>389.79999999999995</ele><time>2026-04-16T13:16:51.788Z</time></trkpt><trkpt lat="44.8839439" lon="9.5303379"><ele>391.4</ele><time>2026-04-16T13:16:52.787Z</time></trkpt><trkpt lat="44.8838388" lon="9.5303596"><ele>393.0</ele><time>2026-04-16T13:16:53.787Z</time></trkpt><trkpt lat="44.8837287" lon="9.5303766"><ele>393.0</ele><time>2026-04-16T13:16:54.788Z</time></trkpt><trkpt lat="44.8836131" lon="9.5303888"><ele>393.0</ele><time>2026-04-16T13:16:55.788Z</time></trkpt><trkpt lat="44.8835026" lon="9.5304029"><ele>393.0</ele><time>2026-04-16T13:16:56.788Z</time></trkpt><trkpt lat="44.8833902" lon="9.5304158"><ele>393.0</ele><time>2026-04-16T13:16:57.788Z</time></trkpt><trkpt lat="44.8832847" lon="9.5304203"><ele>393.0</ele><time>2026-04-16T13:16:58.788Z</time></trkpt><trkpt lat="44.8831868" lon="9.5304072"><ele>392.75</ele><time>2026-04-16T13:16:59.787Z</time></trkpt><trkpt lat="44.883069" lon="9.5303946"><ele>392.5</ele><time>2026-04-16T13:17:00.788Z</time></trkpt><trkpt lat="44.882948" lon="9.5303814"><ele>392.25</ele><time>2026-04-16T13:17:01.788Z</time></trkpt><trkpt lat="44.8828346" lon="9.5303652"><ele>392.0</ele><time>2026-04-16T13:17:02.788Z</time></trkpt><trkpt lat="44.8827333" lon="9.5303481"><ele>392.0</ele><time>2026-04-16T13:17:03.787Z</time></trkpt><trkpt lat="44.8826417" lon="9.530344"><ele>392.0</ele><time>2026-04-16T13:17:04.787Z</time></trkpt><trkpt lat="44.8825514" lon="9.5303632"><ele>392.0</ele><time>2026-04-16T13:17:05.787Z</time></trkpt><trkpt lat="44.8824444" lon="9.5303982"><ele>392.0</ele><time>2026-04-16T13:17:06.788Z</time></trkpt><trkpt lat="44.8823403" lon="9.5304405"><ele>392.0</ele><time>2026-04-16T13:17:07.788Z</time></trkpt><trkpt lat="44.8822473" lon="9.5304844"><ele>390.8333333333333</ele><time>2026-04-16T13:17:08.788Z</time></trkpt><trkpt lat="44.8821678" lon="9.5305371"><ele>389.66666666666663</ele><time>2026-04-16T13:17:09.787Z</time></trkpt><trkpt lat="44.8821014" lon="9.5306024"><ele>388.5</ele><time>2026-04-16T13:17:10.788Z</time></trkpt><trkpt lat="44.8820513" lon="9.5306764"><ele>387.33333333333337</ele><time>2026-04-16T13:17:11.788Z</time></trkpt><trkpt lat="44.8820137" lon="9.5307643"><ele>386.1666666666667</ele><time>2026-04-16T13:17:12.788Z</time></trkpt><trkpt lat="44.8819957" lon="9.5308652"><ele>385.0</ele><time>2026-04-16T13:17:13.788Z</time></trkpt><trkpt lat="44.8819866" lon="9.5309691"><ele>385.00000000000006</ele><time>2026-04-16T13:17:14.788Z</time></trkpt><trkpt lat="44.881938" lon="9.5311066"><ele>385.0</ele><time>2026-04-16T13:17:16.789Z</time></trkpt><trkpt lat="44.8818584" lon="9.5312149"><ele>385.0</ele><time>2026-04-16T13:17:18.788Z</time></trkpt><trkpt lat="44.8818103" lon="9.5312984"><ele>385.0</ele><time>2026-04-16T13:17:19.787Z</time></trkpt><trkpt lat="44.8817651" lon="9.5313903"><ele>385.00000000000006</ele><time>2026-04-16T13:17:20.788Z</time></trkpt><trkpt lat="44.8817224" lon="9.531466"><ele>385.0</ele><time>2026-04-16T13:17:21.788Z</time></trkpt><trkpt lat="44.881675" lon="9.5315306"><ele>385.50000000000006</ele><time>2026-04-16T13:17:23.788Z</time></trkpt><trkpt lat="44.8815898" lon="9.531514"><ele>386.0</ele><time>2026-04-16T13:17:36.788Z</time></trkpt><trkpt lat="44.8815063" lon="9.5314872"><ele>386.5</ele><time>2026-04-16T13:17:39.787Z</time></trkpt><trkpt lat="44.881497" lon="9.5313833"><ele>387.0</ele><time>2026-04-16T13:17:42.788Z</time></trkpt><trkpt lat="44.8815338" lon="9.5313063"><ele>387.50000000000006</ele><time>2026-04-16T13:17:44.788Z</time></trkpt><trkpt lat="44.8816118" lon="9.5312036"><ele>388.0</ele><time>2026-04-16T13:17:46.788Z</time></trkpt><trkpt lat="44.8816915" lon="9.5310591"><ele>387.57142857142856</ele><time>2026-04-16T13:17:48.788Z</time></trkpt><trkpt lat="44.8817246" lon="9.5309774"><ele>387.14285714285717</ele><time>2026-04-16T13:17:49.787Z</time></trkpt><trkpt lat="44.8817497" lon="9.5308835"><ele>386.7142857142857</ele><time>2026-04-16T13:17:50.787Z</time></trkpt><trkpt lat="44.881765" lon="9.5307796"><ele>386.2857142857143</ele><time>2026-04-16T13:17:51.788Z</time></trkpt><trkpt lat="44.8817696" lon="9.5306669"><ele>385.8571428571429</ele><time>2026-04-16T13:17:52.788Z</time></trkpt><trkpt lat="44.8817708" lon="9.5305569"><ele>385.42857142857144</ele><time>2026-04-16T13:17:53.788Z</time></trkpt><trkpt lat="44.8817761" lon="9.5304528"><ele>385.0</ele><time>2026-04-16T13:17:54.787Z</time></trkpt><trkpt lat="44.8817993" lon="9.5303571"><ele>387.6</ele><time>2026-04-16T13:17:55.787Z</time></trkpt><trkpt lat="44.8818346" lon="9.5302509"><ele>390.2</ele><time>2026-04-16T13:17:56.787Z</time></trkpt><trkpt lat="44.8818758" lon="9.530147"><ele>392.79999999999995</ele><time>2026-04-16T13:17:57.787Z</time></trkpt><trkpt lat="44.8819227" lon="9.5300382"><ele>395.4</ele><time>2026-04-16T13:17:58.787Z</time></trkpt><trkpt lat="44.8819748" lon="9.5299209"><ele>398.0</ele><time>2026-04-16T13:17:59.787Z</time></trkpt><trkpt lat="44.8820317" lon="9.529804"><ele>398.0</ele><time>2026-04-16T13:18:00.788Z</time></trkpt><trkpt lat="44.8820897" lon="9.5296773"><ele>398.0</ele><time>2026-04-16T13:18:01.788Z</time></trkpt><trkpt lat="44.8821445" lon="9.5295451"><ele>398.0</ele><time>2026-04-16T13:18:02.788Z</time></trkpt><trkpt lat="44.8821981" lon="9.52941"><ele>398.0</ele><time>2026-04-16T13:18:03.788Z</time></trkpt><trkpt lat="44.882252" lon="9.5292756"><ele>398.0</ele><time>2026-04-16T13:18:04.788Z</time></trkpt><trkpt lat="44.8823058" lon="9.5291518"><ele>400.59999999999997</ele><time>2026-04-16T13:18:05.788Z</time></trkpt><trkpt lat="44.8823659" lon="9.5290406"><ele>403.2</ele><time>2026-04-16T13:18:06.788Z</time></trkpt><trkpt lat="44.8824424" lon="9.528934"><ele>405.8</ele><time>2026-04-16T13:18:07.788Z</time></trkpt><trkpt lat="44.8825257" lon="9.5288347"><ele>408.4</ele><time>2026-04-16T13:18:08.788Z</time></trkpt><trkpt lat="44.8826033" lon="9.528743"><ele>411.0</ele><time>2026-04-16T13:18:09.788Z</time></trkpt><trkpt lat="44.8826744" lon="9.5286503"><ele>414.4</ele><time>2026-04-16T13:18:10.788Z</time></trkpt><trkpt lat="44.8827397" lon="9.5285542"><ele>417.8</ele><time>2026-04-16T13:18:11.787Z</time></trkpt><trkpt lat="44.8828024" lon="9.5284473"><ele>421.19999999999993</ele><time>2026-04-16T13:18:12.787Z</time></trkpt><trkpt lat="44.8828635" lon="9.5283307"><ele>424.59999999999997</ele><time>2026-04-16T13:18:13.788Z</time></trkpt><trkpt lat="44.8829257" lon="9.5282054"><ele>428.0</ele><time>2026-04-16T13:18:14.788Z</time></trkpt><trkpt lat="44.8829906" lon="9.5280773"><ele>428.0</ele><time>2026-04-16T13:18:15.788Z</time></trkpt><trkpt lat="44.8830605" lon="9.5279529"><ele>427.99999999999994</ele><time>2026-04-16T13:18:16.788Z</time></trkpt><trkpt lat="44.8831347" lon="9.5278344"><ele>427.99999999999994</ele><time>2026-04-16T13:18:17.787Z</time></trkpt><trkpt lat="44.8832129" lon="9.527727"><ele>428.0</ele><time>2026-04-16T13:18:18.788Z</time></trkpt><trkpt lat="44.8832935" lon="9.527626"><ele>428.0</ele><time>2026-04-16T13:18:19.787Z</time></trkpt><trkpt lat="44.8833757" lon="9.527536"><ele>428.99999999999994</ele><time>2026-04-16T13:18:20.789Z</time></trkpt><trkpt lat="44.8834562" lon="9.5274605"><ele>430.0</ele><time>2026-04-16T13:18:21.787Z</time></trkpt><trkpt lat="44.8835206" lon="9.5274068"><ele>431.0</ele><time>2026-04-16T13:18:22.788Z</time></trkpt><trkpt lat="44.8836093" lon="9.5272944"><ele>432.0</ele><time>2026-04-16T13:18:24.787Z</time></trkpt><trkpt lat="44.8836385" lon="9.5272153"><ele>432.99999999999994</ele><time>2026-04-16T13:18:25.788Z</time></trkpt><trkpt lat="44.8836568" lon="9.5271215"><ele>434.0</ele><time>2026-04-16T13:18:26.788Z</time></trkpt><trkpt lat="44.8836654" lon="9.5270042"><ele>434.79999999999995</ele><time>2026-04-16T13:18:27.789Z</time></trkpt><trkpt lat="44.8836666" lon="9.5268608"><ele>435.59999999999997</ele><time>2026-04-16T13:18:28.788Z</time></trkpt><trkpt lat="44.8836747" lon="9.5267266"><ele>436.4</ele><time>2026-04-16T13:18:29.788Z</time></trkpt><trkpt lat="44.8836974" lon="9.5265914"><ele>437.2</ele><time>2026-04-16T13:18:30.788Z</time></trkpt><trkpt lat="44.8837359" lon="9.5264484"><ele>438.0</ele><time>2026-04-16T13:18:31.789Z</time></trkpt><trkpt lat="44.8837824" lon="9.526316"><ele>440.79999999999995</ele><time>2026-04-16T13:18:32.787Z</time></trkpt><trkpt lat="44.8838339" lon="9.526192"><ele>443.59999999999997</ele><time>2026-04-16T13:18:33.788Z</time></trkpt><trkpt lat="44.8838935" lon="9.5260792"><ele>446.40000000000003</ele><time>2026-04-16T13:18:34.788Z</time></trkpt><trkpt lat="44.8839605" lon="9.5259795"><ele>449.20000000000005</ele><time>2026-04-16T13:18:35.787Z</time></trkpt><trkpt lat="44.884028" lon="9.5258945"><ele>452.0</ele><time>2026-04-16T13:18:36.788Z</time></trkpt><trkpt lat="44.8840964" lon="9.525802"><ele>451.99999999999994</ele><time>2026-04-16T13:18:37.788Z</time></trkpt><trkpt lat="44.8841591" lon="9.5257112"><ele>452.0</ele><time>2026-04-16T13:18:38.788Z</time></trkpt><trkpt lat="44.8842189" lon="9.5256269"><ele>452.0</ele><time>2026-04-16T13:18:39.787Z</time></trkpt><trkpt lat="44.8842698" lon="9.5255378"><ele>452.0</ele><time>2026-04-16T13:18:40.787Z</time></trkpt><trkpt lat="44.8843115" lon="9.5254459"><ele>451.99999999999994</ele><time>2026-04-16T13:18:41.788Z</time></trkpt><trkpt lat="44.8843437" lon="9.5253416"><ele>452.0</ele><time>2026-04-16T13:18:42.788Z</time></trkpt><trkpt lat="44.8843624" lon="9.525236"><ele>453.16666666666663</ele><time>2026-04-16T13:18:43.787Z</time></trkpt><trkpt lat="44.8843713" lon="9.5251257"><ele>454.3333333333333</ele><time>2026-04-16T13:18:44.789Z</time></trkpt><trkpt lat="44.8843744" lon="9.5250178"><ele>455.5</ele><time>2026-04-16T13:18:45.788Z</time></trkpt><trkpt lat="44.8843818" lon="9.5249213"><ele>456.66666666666663</ele><time>2026-04-16T13:18:46.789Z</time></trkpt><trkpt lat="44.8844059" lon="9.524828"><ele>457.8333333333333</ele><time>2026-04-16T13:18:47.788Z</time></trkpt><trkpt lat="44.8844411" lon="9.5247292"><ele>459.0</ele><time>2026-04-16T13:18:48.788Z</time></trkpt><trkpt lat="44.8844848" lon="9.5246319"><ele>460.6</ele><time>2026-04-16T13:18:49.788Z</time></trkpt><trkpt lat="44.8845403" lon="9.5245054"><ele>462.2</ele><time>2026-04-16T13:18:50.788Z</time></trkpt><trkpt lat="44.8845967" lon="9.5243729"><ele>463.80000000000007</ele><time>2026-04-16T13:18:51.787Z</time></trkpt><trkpt lat="44.8846512" lon="9.5242367"><ele>465.40000000000003</ele><time>2026-04-16T13:18:52.788Z</time></trkpt><trkpt lat="44.8846994" lon="9.5241038"><ele>467.0</ele><time>2026-04-16T13:18:53.788Z</time></trkpt><trkpt lat="44.884745" lon="9.5239847"><ele>467.0</ele><time>2026-04-16T13:18:54.787Z</time></trkpt><trkpt lat="44.8847974" lon="9.523867"><ele>467.00000000000006</ele><time>2026-04-16T13:18:55.788Z</time></trkpt><trkpt lat="44.8848561" lon="9.5237549"><ele>467.00000000000006</ele><time>2026-04-16T13:18:56.787Z</time></trkpt><trkpt lat="44.8849118" lon="9.5236395"><ele>467.0</ele><time>2026-04-16T13:18:57.788Z</time></trkpt><trkpt lat="44.8849651" lon="9.5235213"><ele>467.0</ele><time>2026-04-16T13:18:58.788Z</time></trkpt><trkpt lat="44.885015" lon="9.5233963"><ele>468.0</ele><time>2026-04-16T13:18:59.788Z</time></trkpt><trkpt lat="44.885061" lon="9.5232593"><ele>469.0</ele><time>2026-04-16T13:19:00.789Z</time></trkpt><trkpt lat="44.8851147" lon="9.5231191"><ele>470.0</ele><time>2026-04-16T13:19:01.788Z</time></trkpt><trkpt lat="44.8851746" lon="9.522977"><ele>471.0</ele><time>2026-04-16T13:19:02.789Z</time></trkpt><trkpt lat="44.8852401" lon="9.522835"><ele>471.0</ele><time>2026-04-16T13:19:03.788Z</time></trkpt><trkpt lat="44.8853062" lon="9.5226912"><ele>471.0</ele><time>2026-04-16T13:19:04.788Z</time></trkpt><trkpt lat="44.8853701" lon="9.5225618"><ele>471.0</ele><time>2026-04-16T13:19:05.789Z</time></trkpt><trkpt lat="44.8854287" lon="9.5224418"><ele>471.0</ele><time>2026-04-16T13:19:06.788Z</time></trkpt><trkpt lat="44.8854807" lon="9.5223369"><ele>471.0</ele><time>2026-04-16T13:19:07.788Z</time></trkpt><trkpt lat="44.8855325" lon="9.5222288"><ele>471.00000000000006</ele><time>2026-04-16T13:19:08.788Z</time></trkpt><trkpt lat="44.8855703" lon="9.5221367"><ele>471.0</ele><time>2026-04-16T13:19:09.788Z</time></trkpt><trkpt lat="44.8855942" lon="9.5220526"><ele>471.00000000000006</ele><time>2026-04-16T13:19:10.789Z</time></trkpt><trkpt lat="44.8856073" lon="9.5219637"><ele>471.00000000000006</ele><time>2026-04-16T13:19:11.787Z</time></trkpt><trkpt lat="44.8856042" lon="9.5218685"><ele>471.0</ele><time>2026-04-16T13:19:12.788Z</time></trkpt><trkpt lat="44.8855862" lon="9.5217608"><ele>471.00000000000006</ele><time>2026-04-16T13:19:13.788Z</time></trkpt><trkpt lat="44.8855568" lon="9.521658"><ele>471.00000000000006</ele><time>2026-04-16T13:19:14.789Z</time></trkpt><trkpt lat="44.8855304" lon="9.5215548"><ele>472.8333333333333</ele><time>2026-04-16T13:19:15.788Z</time></trkpt><trkpt lat="44.885518" lon="9.521461"><ele>474.66666666666663</ele><time>2026-04-16T13:19:16.788Z</time></trkpt><trkpt lat="44.8855151" lon="9.5213493"><ele>476.5</ele><time>2026-04-16T13:19:17.787Z</time></trkpt><trkpt lat="44.8855181" lon="9.5212236"><ele>478.3333333333333</ele><time>2026-04-16T13:19:18.788Z</time></trkpt><trkpt lat="44.8855228" lon="9.5210919"><ele>480.16666666666663</ele><time>2026-04-16T13:19:19.787Z</time></trkpt><trkpt lat="44.8855298" lon="9.5209635"><ele>482.0</ele><time>2026-04-16T13:19:20.788Z</time></trkpt><trkpt lat="44.8855401" lon="9.5208348"><ele>483.8333333333333</ele><time>2026-04-16T13:19:21.787Z</time></trkpt><trkpt lat="44.8855556" lon="9.5207126"><ele>485.66666666666663</ele><time>2026-04-16T13:19:22.788Z</time></trkpt><trkpt lat="44.8855747" lon="9.5205887"><ele>487.5</ele><time>2026-04-16T13:19:23.789Z</time></trkpt><trkpt lat="44.885596" lon="9.5204713"><ele>489.33333333333337</ele><time>2026-04-16T13:19:24.788Z</time></trkpt><trkpt lat="44.8856245" lon="9.5203614"><ele>491.1666666666667</ele><time>2026-04-16T13:19:25.787Z</time></trkpt><trkpt lat="44.8856497" lon="9.5202651"><ele>493.0</ele><time>2026-04-16T13:19:26.788Z</time></trkpt><trkpt lat="44.8856714" lon="9.5201781"><ele>494.83333333333337</ele><time>2026-04-16T13:19:27.788Z</time></trkpt><trkpt lat="44.8856707" lon="9.5200275"><ele>496.6666666666667</ele><time>2026-04-16T13:19:29.788Z</time></trkpt><trkpt lat="44.8856354" lon="9.51995"><ele>498.5</ele><time>2026-04-16T13:19:30.788Z</time></trkpt><trkpt lat="44.8855784" lon="9.5198723"><ele>500.33333333333337</ele><time>2026-04-16T13:19:31.788Z</time></trkpt><trkpt lat="44.8855193" lon="9.5198015"><ele>502.1666666666667</ele><time>2026-04-16T13:19:32.787Z</time></trkpt><trkpt lat="44.8854592" lon="9.5197279"><ele>504.0</ele><time>2026-04-16T13:19:33.787Z</time></trkpt><trkpt lat="44.8854077" lon="9.5196581"><ele>506.79999999999995</ele><time>2026-04-16T13:19:34.788Z</time></trkpt><trkpt lat="44.8853735" lon="9.5195573"><ele>509.59999999999997</ele><time>2026-04-16T13:19:36.787Z</time></trkpt><trkpt lat="44.8854018" lon="9.5194574"><ele>512.4</ele><time>2026-04-16T13:19:38.787Z</time></trkpt><trkpt lat="44.8855159" lon="9.5193754"><ele>515.1999999999999</ele><time>2026-04-16T13:19:40.787Z</time></trkpt><trkpt lat="44.8855848" lon="9.5192704"><ele>518.0</ele><time>2026-04-16T13:19:42.788Z</time></trkpt><trkpt lat="44.8856232" lon="9.5191519"><ele>518.0</ele><time>2026-04-16T13:19:44.788Z</time></trkpt><trkpt lat="44.8855974" lon="9.519002"><ele>518.0</ele><time>2026-04-16T13:19:46.787Z</time></trkpt><trkpt lat="44.8855706" lon="9.5189004"><ele>518.0</ele><time>2026-04-16T13:19:47.787Z</time></trkpt><trkpt lat="44.885541" lon="9.5187939"><ele>518.0</ele><time>2026-04-16T13:19:48.788Z</time></trkpt><trkpt lat="44.8854991" lon="9.5186778"><ele>518.0</ele><time>2026-04-16T13:19:49.787Z</time></trkpt><trkpt lat="44.8854567" lon="9.5185609"><ele>519.6666666666666</ele><time>2026-04-16T13:19:50.789Z</time></trkpt><trkpt lat="44.8854231" lon="9.5184441"><ele>521.3333333333333</ele><time>2026-04-16T13:19:51.788Z</time></trkpt><trkpt lat="44.8853977" lon="9.5183333"><ele>523.0</ele><time>2026-04-16T13:19:52.788Z</time></trkpt><trkpt lat="44.8853802" lon="9.5182368"><ele>524.6666666666666</ele><time>2026-04-16T13:19:53.789Z</time></trkpt><trkpt lat="44.8853669" lon="9.5181453"><ele>526.3333333333334</ele><time>2026-04-16T13:19:54.787Z</time></trkpt><trkpt lat="44.8853508" lon="9.5180576"><ele>528.0</ele><time>2026-04-16T13:19:55.787Z</time></trkpt><trkpt lat="44.8853247" lon="9.5179087"><ele>530.0</ele><time>2026-04-16T13:19:57.788Z</time></trkpt><trkpt lat="44.885314" lon="9.5177504"><ele>532.0</ele><time>2026-04-16T13:19:59.787Z</time></trkpt><trkpt lat="44.8853197" lon="9.5176367"><ele>534.0</ele><time>2026-04-16T13:20:00.788Z</time></trkpt><trkpt lat="44.8853215" lon="9.5175185"><ele>536.0</ele><time>2026-04-16T13:20:01.788Z</time></trkpt><trkpt lat="44.8853154" lon="9.5174173"><ele>538.0</ele><time>2026-04-16T13:20:02.787Z</time></trkpt><trkpt lat="44.8853287" lon="9.5172764"><ele>538.0</ele><time>2026-04-16T13:20:04.787Z</time></trkpt><trkpt lat="44.8853852" lon="9.5171716"><ele>538.0</ele><time>2026-04-16T13:20:06.788Z</time></trkpt><trkpt lat="44.8854434" lon="9.517127"><ele>538.0</ele><time>2026-04-16T13:20:07.788Z</time></trkpt><trkpt lat="44.8854974" lon="9.5170758"><ele>538.0</ele><time>2026-04-16T13:20:08.787Z</time></trkpt><trkpt lat="44.8855445" lon="9.5170076"><ele>538.0</ele><time>2026-04-16T13:20:09.788Z</time></trkpt><trkpt lat="44.8855832" lon="9.5169214"><ele>538.0</ele><time>2026-04-16T13:20:10.787Z</time></trkpt><trkpt lat="44.8856153" lon="9.516819"><ele>538.0</ele><time>2026-04-16T13:20:11.788Z</time></trkpt><trkpt lat="44.8856413" lon="9.5167155"><ele>539.5</ele><time>2026-04-16T13:20:12.787Z</time></trkpt><trkpt lat="44.8856666" lon="9.5165969"><ele>541.0</ele><time>2026-04-16T13:20:13.789Z</time></trkpt><trkpt lat="44.8856993" lon="9.5164936"><ele>542.5</ele><time>2026-04-16T13:20:14.788Z</time></trkpt><trkpt lat="44.8857446" lon="9.5164054"><ele>544.0</ele><time>2026-04-16T13:20:15.788Z</time></trkpt><trkpt lat="44.885799" lon="9.5163237"><ele>545.5</ele><time>2026-04-16T13:20:16.788Z</time></trkpt><trkpt lat="44.8858654" lon="9.516247"><ele>547.0</ele><time>2026-04-16T13:20:17.787Z</time></trkpt><trkpt lat="44.8859332" lon="9.5161882"><ele>548.0</ele><time>2026-04-16T13:20:18.789Z</time></trkpt><trkpt lat="44.8859946" lon="9.5161532"><ele>549.0</ele><time>2026-04-16T13:20:19.788Z</time></trkpt><trkpt lat="44.8861184" lon="9.5161065"><ele>550.0</ele><time>2026-04-16T13:20:21.788Z</time></trkpt><trkpt lat="44.88618" lon="9.5160759"><ele>551.0</ele><time>2026-04-16T13:20:22.788Z</time></trkpt><trkpt lat="44.8862466" lon="9.5160396"><ele>552.0</ele><time>2026-04-16T13:20:23.788Z</time></trkpt><trkpt lat="44.8863141" lon="9.5160027"><ele>553.0</ele><time>2026-04-16T13:20:24.787Z</time></trkpt><trkpt lat="44.8863821" lon="9.5159733"><ele>553.0</ele><time>2026-04-16T13:20:25.788Z</time></trkpt><trkpt lat="44.8864475" lon="9.5159534"><ele>553.0</ele><time>2026-04-16T13:20:26.788Z</time></trkpt><trkpt lat="44.886511" lon="9.5159525"><ele>553.0</ele><time>2026-04-16T13:20:27.788Z</time></trkpt><trkpt lat="44.8865733" lon="9.5159712"><ele>553.0</ele><time>2026-04-16T13:20:28.788Z</time></trkpt><trkpt lat="44.8866432" lon="9.5159989"><ele>553.0</ele><time>2026-04-16T13:20:29.789Z</time></trkpt><trkpt lat="44.8867128" lon="9.5160116"><ele>553.0</ele><time>2026-04-16T13:20:30.788Z</time></trkpt><trkpt lat="44.8867809" lon="9.5160095"><ele>553.0</ele><time>2026-04-16T13:20:31.788Z</time></trkpt><trkpt lat="44.8868481" lon="9.5159959"><ele>552.5</ele><time>2026-04-16T13:20:32.789Z</time></trkpt><trkpt lat="44.8869137" lon="9.5159615"><ele>552.0</ele><time>2026-04-16T13:20:33.787Z</time></trkpt><trkpt lat="44.8869882" lon="9.5159103"><ele>551.5</ele><time>2026-04-16T13:20:34.787Z</time></trkpt><trkpt lat="44.8870678" lon="9.5158663"><ele>551.0</ele><time>2026-04-16T13:20:35.788Z</time></trkpt><trkpt lat="44.8871574" lon="9.5158444"><ele>550.5</ele><time>2026-04-16T13:20:36.788Z</time></trkpt><trkpt lat="44.8872588" lon="9.515827"><ele>550.0</ele><time>2026-04-16T13:20:37.788Z</time></trkpt><trkpt lat="44.8873626" lon="9.5158103"><ele>550.0</ele><time>2026-04-16T13:20:38.789Z</time></trkpt><trkpt lat="44.8874543" lon="9.5157919"><ele>550.0</ele><time>2026-04-16T13:20:39.787Z</time></trkpt><trkpt lat="44.8875338" lon="9.5157755"><ele>550.0</ele><time>2026-04-16T13:20:40.787Z</time></trkpt><trkpt lat="44.887602" lon="9.515756"><ele>550.0</ele><time>2026-04-16T13:20:41.789Z</time></trkpt><trkpt lat="44.8876975" lon="9.515694"><ele>550.0</ele><time>2026-04-16T13:20:43.788Z</time></trkpt><trkpt lat="44.8877277" lon="9.5156071"><ele>550.0</ele><time>2026-04-16T13:20:46.788Z</time></trkpt><trkpt lat="44.8876787" lon="9.5155409"><ele>548.6</ele><time>2026-04-16T13:21:11.787Z</time></trkpt><trkpt lat="44.887623" lon="9.5154329"><ele>547.2</ele><time>2026-04-16T13:21:12.787Z</time></trkpt><trkpt lat="44.8875682" lon="9.5153247"><ele>545.8</ele><time>2026-04-16T13:21:13.788Z</time></trkpt><trkpt lat="44.8875121" lon="9.5152097"><ele>544.4</ele><time>2026-04-16T13:21:14.788Z</time></trkpt><trkpt lat="44.8874537" lon="9.5150899"><ele>543.0</ele><time>2026-04-16T13:21:15.787Z</time></trkpt><trkpt lat="44.8873995" lon="9.5149746"><ele>545.8</ele><time>2026-04-16T13:21:16.788Z</time></trkpt><trkpt lat="44.8873538" lon="9.5148599"><ele>548.5999999999999</ele><time>2026-04-16T13:21:17.788Z</time></trkpt><trkpt lat="44.8873188" lon="9.5147393"><ele>551.4000000000001</ele><time>2026-04-16T13:21:18.788Z</time></trkpt><trkpt lat="44.8872878" lon="9.5146054"><ele>554.2</ele><time>2026-04-16T13:21:19.788Z</time></trkpt><trkpt lat="44.8872634" lon="9.5144635"><ele>557.0</ele><time>2026-04-16T13:21:20.788Z</time></trkpt><trkpt lat="44.8872495" lon="9.5143167"><ele>557.4</ele><time>2026-04-16T13:21:21.787Z</time></trkpt><trkpt lat="44.8872482" lon="9.5141696"><ele>557.8000000000001</ele><time>2026-04-16T13:21:22.787Z</time></trkpt><trkpt lat="44.8872477" lon="9.5140238"><ele>558.2</ele><time>2026-04-16T13:21:23.787Z</time></trkpt><trkpt lat="44.8872326" lon="9.5138756"><ele>558.6</ele><time>2026-04-16T13:21:24.788Z</time></trkpt><trkpt lat="44.8872046" lon="9.5137266"><ele>559.0</ele><time>2026-04-16T13:21:25.787Z</time></trkpt><trkpt lat="44.8871693" lon="9.5135705"><ele>559.0</ele><time>2026-04-16T13:21:26.788Z</time></trkpt><trkpt lat="44.8871343" lon="9.5134039"><ele>559.0</ele><time>2026-04-16T13:21:27.789Z</time></trkpt><trkpt lat="44.8871091" lon="9.5132218"><ele>559.0</ele><time>2026-04-16T13:21:28.787Z</time></trkpt><trkpt lat="44.8871015" lon="9.5130268"><ele>559.0</ele><time>2026-04-16T13:21:29.788Z</time></trkpt><trkpt lat="44.8871014" lon="9.512834"><ele>560.25</ele><time>2026-04-16T13:21:30.787Z</time></trkpt><trkpt lat="44.8870913" lon="9.5126523"><ele>561.5</ele><time>2026-04-16T13:21:31.788Z</time></trkpt><trkpt lat="44.8870656" lon="9.5124836"><ele>562.75</ele><time>2026-04-16T13:21:32.788Z</time></trkpt><trkpt lat="44.8870325" lon="9.5123203"><ele>564.0</ele><time>2026-04-16T13:21:33.788Z</time></trkpt><trkpt lat="44.8870041" lon="9.5121649"><ele>565.0</ele><time>2026-04-16T13:21:34.787Z</time></trkpt><trkpt lat="44.8870037" lon="9.5120155"><ele>566.0</ele><time>2026-04-16T13:21:35.789Z</time></trkpt><trkpt lat="44.8870321" lon="9.5118672"><ele>567.0</ele><time>2026-04-16T13:21:36.787Z</time></trkpt><trkpt lat="44.8870823" lon="9.5117261"><ele>568.0</ele><time>2026-04-16T13:21:37.787Z</time></trkpt><trkpt lat="44.887142" lon="9.5116018"><ele>569.0</ele><time>2026-04-16T13:21:38.787Z</time></trkpt><trkpt lat="44.8871897" lon="9.511492"><ele>569.0</ele><time>2026-04-16T13:21:39.773Z</time></trkpt><trkpt lat="44.8872145" lon="9.511387"><ele>569.0</ele><time>2026-04-16T13:21:40.778Z</time></trkpt><trkpt lat="44.8872155" lon="9.5112742"><ele>569.0</ele><time>2026-04-16T13:21:41.773Z</time></trkpt><trkpt lat="44.887194" lon="9.5111618"><ele>569.0</ele><time>2026-04-16T13:21:42.775Z</time></trkpt><trkpt lat="44.8871557" lon="9.5110459"><ele>569.0</ele><time>2026-04-16T13:21:43.787Z</time></trkpt><trkpt lat="44.8871029" lon="9.5109248"><ele>569.0</ele><time>2026-04-16T13:21:44.787Z</time></trkpt><trkpt lat="44.8870359" lon="9.5108083"><ele>569.6</ele><time>2026-04-16T13:21:45.786Z</time></trkpt><trkpt lat="44.8869581" lon="9.5107009"><ele>570.2</ele><time>2026-04-16T13:21:46.787Z</time></trkpt><trkpt lat="44.8868687" lon="9.5106191"><ele>570.8000000000001</ele><time>2026-04-16T13:21:47.787Z</time></trkpt><trkpt lat="44.8867684" lon="9.5105562"><ele>571.4</ele><time>2026-04-16T13:21:48.786Z</time></trkpt><trkpt lat="44.8866627" lon="9.5105235"><ele>572.0</ele><time>2026-04-16T13:21:49.787Z</time></trkpt><trkpt lat="44.8865521" lon="9.5105055"><ele>577.0</ele><time>2026-04-16T13:21:50.787Z</time></trkpt><trkpt lat="44.8864371" lon="9.5105138"><ele>582.0</ele><time>2026-04-16T13:21:51.786Z</time></trkpt><trkpt lat="44.8863168" lon="9.5105552"><ele>587.0</ele><time>2026-04-16T13:21:52.787Z</time></trkpt><trkpt lat="44.8861839" lon="9.5106151"><ele>592.0</ele><time>2026-04-16T13:21:53.786Z</time></trkpt><trkpt lat="44.8860438" lon="9.5106793"><ele>592.0</ele><time>2026-04-16T13:21:54.786Z</time></trkpt><trkpt lat="44.8859049" lon="9.5107367"><ele>592.0</ele><time>2026-04-16T13:21:55.787Z</time></trkpt><trkpt lat="44.8857693" lon="9.5107869"><ele>592.0</ele><time>2026-04-16T13:21:56.786Z</time></trkpt><trkpt lat="44.8856337" lon="9.5108281"><ele>592.0</ele><time>2026-04-16T13:21:57.788Z</time></trkpt><trkpt lat="44.8854967" lon="9.5108464"><ele>592.0</ele><time>2026-04-16T13:21:58.786Z</time></trkpt><trkpt lat="44.8853622" lon="9.5108352"><ele>592.0</ele><time>2026-04-16T13:21:59.786Z</time></trkpt><trkpt lat="44.8852291" lon="9.5108228"><ele>592.0</ele><time>2026-04-16T13:22:00.787Z</time></trkpt><trkpt lat="44.8851054" lon="9.5108313"><ele>592.0</ele><time>2026-04-16T13:22:01.786Z</time></trkpt><trkpt lat="44.8849792" lon="9.5108393"><ele>591.5</ele><time>2026-04-16T13:22:02.787Z</time></trkpt><trkpt lat="44.8848487" lon="9.5108325"><ele>591.0</ele><time>2026-04-16T13:22:03.787Z</time></trkpt><trkpt lat="44.8847175" lon="9.5108003"><ele>590.5</ele><time>2026-04-16T13:22:04.787Z</time></trkpt><trkpt lat="44.8845915" lon="9.5107423"><ele>590.0</ele><time>2026-04-16T13:22:05.786Z</time></trkpt><trkpt lat="44.8844669" lon="9.5106878"><ele>590.0</ele><time>2026-04-16T13:22:06.787Z</time></trkpt><trkpt lat="44.884335" lon="9.5106571"><ele>590.0</ele><time>2026-04-16T13:22:07.787Z</time></trkpt><trkpt lat="44.8841977" lon="9.5106583"><ele>590.0</ele><time>2026-04-16T13:22:08.787Z</time></trkpt><trkpt lat="44.8840488" lon="9.5106762"><ele>590.0</ele><time>2026-04-16T13:22:09.787Z</time></trkpt><trkpt lat="44.8838991" lon="9.5106904"><ele>589.0</ele><time>2026-04-16T13:22:10.787Z</time></trkpt><trkpt lat="44.883758" lon="9.5106881"><ele>588.0</ele><time>2026-04-16T13:22:11.787Z</time></trkpt><trkpt lat="44.8836194" lon="9.5106597"><ele>587.0</ele><time>2026-04-16T13:22:12.787Z</time></trkpt><trkpt lat="44.8834859" lon="9.5106128"><ele>586.0</ele><time>2026-04-16T13:22:13.786Z</time></trkpt><trkpt lat="44.8833575" lon="9.5105453"><ele>584.25</ele><time>2026-04-16T13:22:14.787Z</time></trkpt><trkpt lat="44.8832359" lon="9.5104594"><ele>582.5</ele><time>2026-04-16T13:22:15.787Z</time></trkpt><trkpt lat="44.8831215" lon="9.5103764"><ele>580.75</ele><time>2026-04-16T13:22:16.787Z</time></trkpt><trkpt lat="44.8830099" lon="9.5103135"><ele>579.0</ele><time>2026-04-16T13:22:17.787Z</time></trkpt><trkpt lat="44.8828953" lon="9.510273"><ele>579.0</ele><time>2026-04-16T13:22:18.787Z</time></trkpt><trkpt lat="44.8827735" lon="9.5102476"><ele>579.0</ele><time>2026-04-16T13:22:19.786Z</time></trkpt><trkpt lat="44.8826442" lon="9.5102307"><ele>579.0</ele><time>2026-04-16T13:22:20.787Z</time></trkpt><trkpt lat="44.8825126" lon="9.5102093"><ele>579.0</ele><time>2026-04-16T13:22:21.787Z</time></trkpt><trkpt lat="44.8823871" lon="9.5101828"><ele>579.0</ele><time>2026-04-16T13:22:22.787Z</time></trkpt><trkpt lat="44.8822714" lon="9.5101509"><ele>579.0</ele><time>2026-04-16T13:22:23.786Z</time></trkpt><trkpt lat="44.8821593" lon="9.5101387"><ele>579.0</ele><time>2026-04-16T13:22:24.787Z</time></trkpt><trkpt lat="44.8820536" lon="9.5101671"><ele>579.0</ele><time>2026-04-16T13:22:25.786Z</time></trkpt><trkpt lat="44.8819579" lon="9.5102171"><ele>579.0</ele><time>2026-04-16T13:22:26.786Z</time></trkpt><trkpt lat="44.881858" lon="9.5102928"><ele>581.0</ele><time>2026-04-16T13:22:27.787Z</time></trkpt><trkpt lat="44.8817519" lon="9.5103695"><ele>583.0</ele><time>2026-04-16T13:22:28.786Z</time></trkpt><trkpt lat="44.8816416" lon="9.5104382"><ele>585.0</ele><time>2026-04-16T13:22:29.787Z</time></trkpt><trkpt lat="44.8815341" lon="9.5105185"><ele>587.0</ele><time>2026-04-16T13:22:30.787Z</time></trkpt><trkpt lat="44.8814374" lon="9.5106185"><ele>587.0</ele><time>2026-04-16T13:22:31.786Z</time></trkpt><trkpt lat="44.881353" lon="9.5107409"><ele>587.0</ele><time>2026-04-16T13:22:32.787Z</time></trkpt><trkpt lat="44.8812855" lon="9.5108852"><ele>587.0</ele><time>2026-04-16T13:22:33.787Z</time></trkpt><trkpt lat="44.8812307" lon="9.511037"><ele>587.0</ele><time>2026-04-16T13:22:34.787Z</time></trkpt><trkpt lat="44.8811748" lon="9.5111717"><ele>586.3333333333333</ele><time>2026-04-16T13:22:35.787Z</time></trkpt><trkpt lat="44.8811195" lon="9.5112772"><ele>585.6666666666666</ele><time>2026-04-16T13:22:36.788Z</time></trkpt><trkpt lat="44.8810618" lon="9.5113613"><ele>585.0</ele><time>2026-04-16T13:22:37.787Z</time></trkpt><trkpt lat="44.8810009" lon="9.5114202"><ele>584.3333333333334</ele><time>2026-04-16T13:22:38.786Z</time></trkpt><trkpt lat="44.8809315" lon="9.5114499"><ele>583.6666666666667</ele><time>2026-04-16T13:22:39.786Z</time></trkpt><trkpt lat="44.8808623" lon="9.5114453"><ele>583.0</ele><time>2026-04-16T13:22:40.786Z</time></trkpt><trkpt lat="44.880804" lon="9.5113872"><ele>585.0</ele><time>2026-04-16T13:22:41.787Z</time></trkpt><trkpt lat="44.8807544" lon="9.5113067"><ele>587.0</ele><time>2026-04-16T13:22:42.788Z</time></trkpt><trkpt lat="44.8807123" lon="9.5112026"><ele>589.0</ele><time>2026-04-16T13:22:43.788Z</time></trkpt><trkpt lat="44.8806878" lon="9.5110693"><ele>591.0</ele><time>2026-04-16T13:22:44.786Z</time></trkpt><trkpt lat="44.8806609" lon="9.5109465"><ele>593.0</ele><time>2026-04-16T13:22:45.787Z</time></trkpt><trkpt lat="44.8806288" lon="9.5108355"><ele>595.0</ele><time>2026-04-16T13:22:46.788Z</time></trkpt><trkpt lat="44.8805854" lon="9.5107444"><ele>596.6</ele><time>2026-04-16T13:22:47.787Z</time></trkpt><trkpt lat="44.8805325" lon="9.5106725"><ele>598.2</ele><time>2026-04-16T13:22:48.786Z</time></trkpt><trkpt lat="44.8804683" lon="9.5106021"><ele>599.8</ele><time>2026-04-16T13:22:49.787Z</time></trkpt><trkpt lat="44.8803882" lon="9.5105507"><ele>601.4</ele><time>2026-04-16T13:22:50.787Z</time></trkpt><trkpt lat="44.8802918" lon="9.5104946"><ele>603.0</ele><time>2026-04-16T13:22:51.786Z</time></trkpt><trkpt lat="44.8801808" lon="9.5104314"><ele>606.75</ele><time>2026-04-16T13:22:52.787Z</time></trkpt><trkpt lat="44.8800626" lon="9.5103725"><ele>610.5</ele><time>2026-04-16T13:22:53.786Z</time></trkpt><trkpt lat="44.879943" lon="9.5103193"><ele>614.25</ele><time>2026-04-16T13:22:54.787Z</time></trkpt><trkpt lat="44.8798269" lon="9.510272"><ele>618.0</ele><time>2026-04-16T13:22:55.787Z</time></trkpt><trkpt lat="44.8797184" lon="9.5102177"><ele>618.0</ele><time>2026-04-16T13:22:56.786Z</time></trkpt><trkpt lat="44.8796139" lon="9.5101476"><ele>618.0</ele><time>2026-04-16T13:22:57.786Z</time></trkpt><trkpt lat="44.8795106" lon="9.5100687"><ele>618.0</ele><time>2026-04-16T13:22:58.788Z</time></trkpt><trkpt lat="44.8794163" lon="9.5100093"><ele>618.0</ele><time>2026-04-16T13:22:59.786Z</time></trkpt><trkpt lat="44.8793152" lon="9.5099808"><ele>618.0</ele><time>2026-04-16T13:23:00.787Z</time></trkpt><trkpt lat="44.8792106" lon="9.5099871"><ele>617.25</ele><time>2026-04-16T13:23:01.786Z</time></trkpt><trkpt lat="44.8790893" lon="9.510024"><ele>616.5</ele><time>2026-04-16T13:23:02.787Z</time></trkpt><trkpt lat="44.8789553" lon="9.5100696"><ele>615.75</ele><time>2026-04-16T13:23:03.787Z</time></trkpt><trkpt lat="44.8788211" lon="9.5101176"><ele>615.0</ele><time>2026-04-16T13:23:04.787Z</time></trkpt><trkpt lat="44.8787008" lon="9.5101535"><ele>615.0</ele><time>2026-04-16T13:23:05.787Z</time></trkpt><trkpt lat="44.8785866" lon="9.5101685"><ele>615.0</ele><time>2026-04-16T13:23:06.787Z</time></trkpt><trkpt lat="44.8784779" lon="9.5101654"><ele>615.0</ele><time>2026-04-16T13:23:07.787Z</time></trkpt><trkpt lat="44.8783833" lon="9.5101523"><ele>615.0</ele><time>2026-04-16T13:23:08.786Z</time></trkpt><trkpt lat="44.8783052" lon="9.5101362"><ele>615.0</ele><time>2026-04-16T13:23:09.787Z</time></trkpt><trkpt lat="44.8782425" lon="9.5100943"><ele>615.1666666666666</ele><time>2026-04-16T13:23:10.786Z</time></trkpt><trkpt lat="44.8782018" lon="9.510025"><ele>615.3333333333334</ele><time>2026-04-16T13:23:11.788Z</time></trkpt><trkpt lat="44.8781828" lon="9.5099364"><ele>615.5</ele><time>2026-04-16T13:23:12.787Z</time></trkpt><trkpt lat="44.8781844" lon="9.5098259"><ele>615.6666666666667</ele><time>2026-04-16T13:23:13.787Z</time></trkpt><trkpt lat="44.8782013" lon="9.5097039"><ele>615.8333333333334</ele><time>2026-04-16T13:23:14.787Z</time></trkpt><trkpt lat="44.8782311" lon="9.5095826"><ele>616.0</ele><time>2026-04-16T13:23:15.787Z</time></trkpt><trkpt lat="44.8782748" lon="9.5094858"><ele>616.6</ele><time>2026-04-16T13:23:16.787Z</time></trkpt><trkpt lat="44.8783401" lon="9.5094122"><ele>617.2</ele><time>2026-04-16T13:23:17.786Z</time></trkpt><trkpt lat="44.8784194" lon="9.5093497"><ele>617.8</ele><time>2026-04-16T13:23:18.786Z</time></trkpt><trkpt lat="44.8784871" lon="9.5092593"><ele>618.4</ele><time>2026-04-16T13:23:19.786Z</time></trkpt><trkpt lat="44.8785385" lon="9.5091451"><ele>619.0</ele><time>2026-04-16T13:23:20.786Z</time></trkpt><trkpt lat="44.8785728" lon="9.5090145"><ele>622.4</ele><time>2026-04-16T13:23:21.786Z</time></trkpt><trkpt lat="44.87859" lon="9.5088594"><ele>625.8</ele><time>2026-04-16T13:23:22.787Z</time></trkpt><trkpt lat="44.878596" lon="9.5086922"><ele>629.2</ele><time>2026-04-16T13:23:23.787Z</time></trkpt><trkpt lat="44.8785978" lon="9.5085432"><ele>632.6</ele><time>2026-04-16T13:23:24.788Z</time></trkpt><trkpt lat="44.8785971" lon="9.5083873"><ele>636.0</ele><time>2026-04-16T13:23:25.786Z</time></trkpt><trkpt lat="44.878592" lon="9.5082306"><ele>635.8</ele><time>2026-04-16T13:23:26.788Z</time></trkpt><trkpt lat="44.8785813" lon="9.5080774"><ele>635.6</ele><time>2026-04-16T13:23:27.786Z</time></trkpt><trkpt lat="44.8785663" lon="9.5079271"><ele>635.4</ele><time>2026-04-16T13:23:28.786Z</time></trkpt><trkpt lat="44.878551" lon="9.5077853"><ele>635.2</ele><time>2026-04-16T13:23:29.787Z</time></trkpt><trkpt lat="44.8785416" lon="9.5076652"><ele>635.0</ele><time>2026-04-16T13:23:30.786Z</time></trkpt><trkpt lat="44.8785254" lon="9.5075367"><ele>635.0</ele><time>2026-04-16T13:23:31.786Z</time></trkpt><trkpt lat="44.8785044" lon="9.5074035"><ele>635.0</ele><time>2026-04-16T13:23:32.787Z</time></trkpt><trkpt lat="44.8784797" lon="9.5072637"><ele>635.0</ele><time>2026-04-16T13:23:33.787Z</time></trkpt><trkpt lat="44.8784528" lon="9.5071238"><ele>635.0</ele><time>2026-04-16T13:23:34.786Z</time></trkpt><trkpt lat="44.878421" lon="9.5069918"><ele>635.0</ele><time>2026-04-16T13:23:35.787Z</time></trkpt><trkpt lat="44.8783805" lon="9.5068809"><ele>633.6</ele><time>2026-04-16T13:23:36.786Z</time></trkpt><trkpt lat="44.8783287" lon="9.5067872"><ele>632.2</ele><time>2026-04-16T13:23:37.786Z</time></trkpt><trkpt lat="44.8782612" lon="9.5066942"><ele>630.8</ele><time>2026-04-16T13:23:38.787Z</time></trkpt><trkpt lat="44.8781892" lon="9.5065949"><ele>629.4</ele><time>2026-04-16T13:23:39.787Z</time></trkpt><trkpt lat="44.8781275" lon="9.506484"><ele>628.0</ele><time>2026-04-16T13:23:40.787Z</time></trkpt><trkpt lat="44.8780766" lon="9.5063582"><ele>627.1999999999999</ele><time>2026-04-16T13:23:41.787Z</time></trkpt><trkpt lat="44.8780393" lon="9.5062257"><ele>626.4</ele><time>2026-04-16T13:23:42.787Z</time></trkpt><trkpt lat="44.8780078" lon="9.5060813"><ele>625.5999999999999</ele><time>2026-04-16T13:23:43.787Z</time></trkpt><trkpt lat="44.8779872" lon="9.505937"><ele>624.8</ele><time>2026-04-16T13:23:44.787Z</time></trkpt><trkpt lat="44.8779786" lon="9.5057862"><ele>624.0</ele><time>2026-04-16T13:23:45.786Z</time></trkpt><trkpt lat="44.8779734" lon="9.5056322"><ele>624.0</ele><time>2026-04-16T13:23:46.787Z</time></trkpt><trkpt lat="44.8779673" lon="9.5054874"><ele>624.0</ele><time>2026-04-16T13:23:47.787Z</time></trkpt><trkpt lat="44.8779609" lon="9.5053551"><ele>624.0</ele><time>2026-04-16T13:23:48.787Z</time></trkpt><trkpt lat="44.8779559" lon="9.5052384"><ele>624.0</ele><time>2026-04-16T13:23:49.786Z</time></trkpt><trkpt lat="44.8779604" lon="9.5051172"><ele>624.0</ele><time>2026-04-16T13:23:50.786Z</time></trkpt><trkpt lat="44.8779731" lon="9.5049821"><ele>624.0</ele><time>2026-04-16T13:23:51.786Z</time></trkpt><trkpt lat="44.8779898" lon="9.5048437"><ele>624.0</ele><time>2026-04-16T13:23:52.786Z</time></trkpt><trkpt lat="44.87801" lon="9.5047055"><ele>624.0</ele><time>2026-04-16T13:23:53.787Z</time></trkpt><trkpt lat="44.878033" lon="9.5045688"><ele>624.0</ele><time>2026-04-16T13:23:54.788Z</time></trkpt><trkpt lat="44.8780564" lon="9.5044354"><ele>624.0</ele><time>2026-04-16T13:23:55.787Z</time></trkpt><trkpt lat="44.8780843" lon="9.5043057"><ele>624.6</ele><time>2026-04-16T13:23:56.787Z</time></trkpt><trkpt lat="44.8781191" lon="9.5041817"><ele>625.2</ele><time>2026-04-16T13:23:57.786Z</time></trkpt><trkpt lat="44.8781613" lon="9.5040557"><ele>625.8000000000001</ele><time>2026-04-16T13:23:58.787Z</time></trkpt><trkpt lat="44.8782059" lon="9.5039252"><ele>626.4</ele><time>2026-04-16T13:23:59.786Z</time></trkpt><trkpt lat="44.878251" lon="9.5037903"><ele>627.0</ele><time>2026-04-16T13:24:00.788Z</time></trkpt><trkpt lat="44.8782974" lon="9.5036502"><ele>627.4</ele><time>2026-04-16T13:24:01.788Z</time></trkpt><trkpt lat="44.8783428" lon="9.5035087"><ele>627.8000000000001</ele><time>2026-04-16T13:24:02.787Z</time></trkpt><trkpt lat="44.8783739" lon="9.503369"><ele>628.2</ele><time>2026-04-16T13:24:03.787Z</time></trkpt><trkpt lat="44.8783927" lon="9.5032295"><ele>628.6</ele><time>2026-04-16T13:24:04.787Z</time></trkpt><trkpt lat="44.8783978" lon="9.5030915"><ele>629.0</ele><time>2026-04-16T13:24:05.786Z</time></trkpt><trkpt lat="44.8784014" lon="9.5029559"><ele>628.8</ele><time>2026-04-16T13:24:06.786Z</time></trkpt><trkpt lat="44.8784094" lon="9.5028257"><ele>628.5999999999999</ele><time>2026-04-16T13:24:07.787Z</time></trkpt><trkpt lat="44.8784314" lon="9.5026983"><ele>628.4</ele><time>2026-04-16T13:24:08.786Z</time></trkpt><trkpt lat="44.8784657" lon="9.502567"><ele>628.1999999999999</ele><time>2026-04-16T13:24:09.786Z</time></trkpt><trkpt lat="44.8784999" lon="9.5024223"><ele>628.0</ele><time>2026-04-16T13:24:10.787Z</time></trkpt><trkpt lat="44.8785322" lon="9.5022656"><ele>628.0</ele><time>2026-04-16T13:24:11.787Z</time></trkpt><trkpt lat="44.8785612" lon="9.5021053"><ele>628.0</ele><time>2026-04-16T13:24:12.786Z</time></trkpt><trkpt lat="44.8785883" lon="9.5019369"><ele>628.0</ele><time>2026-04-16T13:24:13.787Z</time></trkpt><trkpt lat="44.8786152" lon="9.5017642"><ele>628.0</ele><time>2026-04-16T13:24:14.787Z</time></trkpt><trkpt lat="44.8786488" lon="9.5015948"><ele>627.75</ele><time>2026-04-16T13:24:15.787Z</time></trkpt><trkpt lat="44.8786898" lon="9.5014216"><ele>627.5</ele><time>2026-04-16T13:24:16.786Z</time></trkpt><trkpt lat="44.8787385" lon="9.5012515"><ele>627.25</ele><time>2026-04-16T13:24:17.787Z</time></trkpt><trkpt lat="44.8787848" lon="9.5010793"><ele>627.0</ele><time>2026-04-16T13:24:18.787Z</time></trkpt><trkpt lat="44.8788269" lon="9.5009092"><ele>627.0</ele><time>2026-04-16T13:24:19.786Z</time></trkpt><trkpt lat="44.8788666" lon="9.5007436"><ele>627.0</ele><time>2026-04-16T13:24:20.787Z</time></trkpt><trkpt lat="44.8789107" lon="9.5005865"><ele>627.0</ele><time>2026-04-16T13:24:21.787Z</time></trkpt><trkpt lat="44.8789527" lon="9.5004316"><ele>627.0</ele><time>2026-04-16T13:24:22.787Z</time></trkpt><trkpt lat="44.8789913" lon="9.5002801"><ele>626.2</ele><time>2026-04-16T13:24:23.787Z</time></trkpt><trkpt lat="44.8790205" lon="9.5001222"><ele>625.4000000000001</ele><time>2026-04-16T13:24:24.787Z</time></trkpt><trkpt lat="44.8790362" lon="9.4999695"><ele>624.5999999999999</ele><time>2026-04-16T13:24:25.786Z</time></trkpt><trkpt lat="44.8790341" lon="9.4998184"><ele>623.8</ele><time>2026-04-16T13:24:26.787Z</time></trkpt><trkpt lat="44.8790223" lon="9.499663"><ele>623.0</ele><time>2026-04-16T13:24:27.786Z</time></trkpt><trkpt lat="44.8790082" lon="9.4995095"><ele>621.5</ele><time>2026-04-16T13:24:28.786Z</time></trkpt><trkpt lat="44.8789938" lon="9.4993577"><ele>620.0</ele><time>2026-04-16T13:24:29.787Z</time></trkpt><trkpt lat="44.8789804" lon="9.4992019"><ele>618.5</ele><time>2026-04-16T13:24:30.786Z</time></trkpt><trkpt lat="44.8789705" lon="9.4990354"><ele>617.0</ele><time>2026-04-16T13:24:31.786Z</time></trkpt><trkpt lat="44.878958" lon="9.4988618"><ele>616.0</ele><time>2026-04-16T13:24:32.787Z</time></trkpt><trkpt lat="44.8789455" lon="9.4986885"><ele>615.0</ele><time>2026-04-16T13:24:33.786Z</time></trkpt><trkpt lat="44.8789376" lon="9.4985144"><ele>614.0</ele><time>2026-04-16T13:24:34.787Z</time></trkpt><trkpt lat="44.878933" lon="9.4983397"><ele>613.0</ele><time>2026-04-16T13:24:35.786Z</time></trkpt><trkpt lat="44.8789351" lon="9.4981661"><ele>613.0</ele><time>2026-04-16T13:24:36.787Z</time></trkpt><trkpt lat="44.878946" lon="9.4979949"><ele>613.0</ele><time>2026-04-16T13:24:37.786Z</time></trkpt><trkpt lat="44.8789606" lon="9.4978274"><ele>613.0</ele><time>2026-04-16T13:24:38.786Z</time></trkpt><trkpt lat="44.8789792" lon="9.4976641"><ele>613.0</ele><time>2026-04-16T13:24:39.787Z</time></trkpt><trkpt lat="44.8790026" lon="9.4975077"><ele>612.5</ele><time>2026-04-16T13:24:40.786Z</time></trkpt><trkpt lat="44.8790276" lon="9.4973734"><ele>612.0</ele><time>2026-04-16T13:24:41.787Z</time></trkpt><trkpt lat="44.8790593" lon="9.4972565"><ele>611.5</ele><time>2026-04-16T13:24:42.787Z</time></trkpt><trkpt lat="44.8791052" lon="9.4971549"><ele>611.0</ele><time>2026-04-16T13:24:43.787Z</time></trkpt><trkpt lat="44.8791523" lon="9.4970693"><ele>610.5</ele><time>2026-04-16T13:24:44.787Z</time></trkpt><trkpt lat="44.8791904" lon="9.4969953"><ele>610.0</ele><time>2026-04-16T13:24:45.788Z</time></trkpt><trkpt lat="44.8791844" lon="9.4968346"><ele>608.0</ele><time>2026-04-16T13:24:47.787Z</time></trkpt><trkpt lat="44.8791467" lon="9.4967568"><ele>606.0</ele><time>2026-04-16T13:24:48.787Z</time></trkpt><trkpt lat="44.8790957" lon="9.4966672"><ele>604.0</ele><time>2026-04-16T13:24:49.786Z</time></trkpt><trkpt lat="44.8790338" lon="9.4965637"><ele>602.0</ele><time>2026-04-16T13:24:50.786Z</time></trkpt><trkpt lat="44.878968" lon="9.4964512"><ele>600.0</ele><time>2026-04-16T13:24:51.787Z</time></trkpt><trkpt lat="44.8788941" lon="9.4963289"><ele>595.0</ele><time>2026-04-16T13:24:52.787Z</time></trkpt><trkpt lat="44.8788133" lon="9.49621"><ele>590.0</ele><time>2026-04-16T13:24:53.787Z</time></trkpt><trkpt lat="44.8787285" lon="9.4960923"><ele>585.0</ele><time>2026-04-16T13:24:54.787Z</time></trkpt><trkpt lat="44.8786417" lon="9.4959776"><ele>580.0</ele><time>2026-04-16T13:24:55.786Z</time></trkpt><trkpt lat="44.8785598" lon="9.4958527"><ele>580.0</ele><time>2026-04-16T13:24:56.786Z</time></trkpt><trkpt lat="44.8784852" lon="9.4957272"><ele>580.0</ele><time>2026-04-16T13:24:57.787Z</time></trkpt><trkpt lat="44.8784151" lon="9.4956097"><ele>580.0</ele><time>2026-04-16T13:24:58.786Z</time></trkpt><trkpt lat="44.878341" lon="9.4955113"><ele>580.0</ele><time>2026-04-16T13:24:59.787Z</time></trkpt><trkpt lat="44.8782584" lon="9.4954275"><ele>580.0</ele><time>2026-04-16T13:25:00.787Z</time></trkpt><trkpt lat="44.8781706" lon="9.4953589"><ele>578.0</ele><time>2026-04-16T13:25:01.786Z</time></trkpt><trkpt lat="44.8780736" lon="9.4952948"><ele>576.0</ele><time>2026-04-16T13:25:02.787Z</time></trkpt><trkpt lat="44.8779696" lon="9.4952306"><ele>574.0</ele><time>2026-04-16T13:25:03.786Z</time></trkpt><trkpt lat="44.8778609" lon="9.4951645"><ele>572.0</ele><time>2026-04-16T13:25:04.786Z</time></trkpt><trkpt lat="44.8777472" lon="9.4950975"><ele>572.0</ele><time>2026-04-16T13:25:05.786Z</time></trkpt><trkpt lat="44.8776335" lon="9.4950306"><ele>572.0</ele><time>2026-04-16T13:25:06.786Z</time></trkpt><trkpt lat="44.8775306" lon="9.4949657"><ele>572.0</ele><time>2026-04-16T13:25:07.788Z</time></trkpt><trkpt lat="44.8774375" lon="9.4948941"><ele>572.0</ele><time>2026-04-16T13:25:08.786Z</time></trkpt><trkpt lat="44.8773523" lon="9.4948049"><ele>572.0</ele><time>2026-04-16T13:25:09.786Z</time></trkpt><trkpt lat="44.8772806" lon="9.4946928"><ele>569.0</ele><time>2026-04-16T13:25:10.786Z</time></trkpt><trkpt lat="44.8772087" lon="9.4945584"><ele>566.0</ele><time>2026-04-16T13:25:11.787Z</time></trkpt><trkpt lat="44.8771407" lon="9.4944193"><ele>563.0</ele><time>2026-04-16T13:25:12.786Z</time></trkpt><trkpt lat="44.8770753" lon="9.4942803"><ele>560.0</ele><time>2026-04-16T13:25:13.787Z</time></trkpt><trkpt lat="44.8770164" lon="9.4941383"><ele>560.0</ele><time>2026-04-16T13:25:14.787Z</time></trkpt><trkpt lat="44.8769679" lon="9.4939897"><ele>560.0</ele><time>2026-04-16T13:25:15.786Z</time></trkpt><trkpt lat="44.876928" lon="9.4938381"><ele>560.0</ele><time>2026-04-16T13:25:16.786Z</time></trkpt><trkpt lat="44.8769059" lon="9.4936804"><ele>560.0</ele><time>2026-04-16T13:25:17.787Z</time></trkpt><trkpt lat="44.8769017" lon="9.4935187"><ele>556.5</ele><time>2026-04-16T13:25:18.787Z</time></trkpt><trkpt lat="44.8769083" lon="9.493347"><ele>553.0</ele><time>2026-04-16T13:25:19.787Z</time></trkpt><trkpt lat="44.8769312" lon="9.4931663"><ele>549.5</ele><time>2026-04-16T13:25:20.786Z</time></trkpt><trkpt lat="44.8769621" lon="9.492981"><ele>546.0</ele><time>2026-04-16T13:25:21.786Z</time></trkpt><trkpt lat="44.8769948" lon="9.4928011"><ele>546.0</ele><time>2026-04-16T13:25:22.786Z</time></trkpt><trkpt lat="44.8770254" lon="9.4926263"><ele>546.0</ele><time>2026-04-16T13:25:23.787Z</time></trkpt><trkpt lat="44.8770405" lon="9.4924549"><ele>546.0</ele><time>2026-04-16T13:25:24.786Z</time></trkpt><trkpt lat="44.877043" lon="9.492283"><ele>546.0</ele><time>2026-04-16T13:25:25.787Z</time></trkpt><trkpt lat="44.8770367" lon="9.4921097"><ele>545.75</ele><time>2026-04-16T13:25:26.787Z</time></trkpt><trkpt lat="44.8770324" lon="9.4919433"><ele>545.5</ele><time>2026-04-16T13:25:27.787Z</time></trkpt><trkpt lat="44.8770324" lon="9.4917797"><ele>545.25</ele><time>2026-04-16T13:25:28.786Z</time></trkpt><trkpt lat="44.8770412" lon="9.49161"><ele>545.0</ele><time>2026-04-16T13:25:29.787Z</time></trkpt><trkpt lat="44.8770448" lon="9.491438"><ele>545.0</ele><time>2026-04-16T13:25:30.787Z</time></trkpt><trkpt lat="44.8770355" lon="9.4912681"><ele>545.0</ele><time>2026-04-16T13:25:31.786Z</time></trkpt><trkpt lat="44.8770215" lon="9.4911064"><ele>545.0</ele><time>2026-04-16T13:25:32.786Z</time></trkpt><trkpt lat="44.8770233" lon="9.4909567"><ele>545.0</ele><time>2026-04-16T13:25:33.786Z</time></trkpt><trkpt lat="44.8770451" lon="9.4908092"><ele>545.0</ele><time>2026-04-16T13:25:34.786Z</time></trkpt><trkpt lat="44.8770862" lon="9.4906702"><ele>545.8</ele><time>2026-04-16T13:25:35.787Z</time></trkpt><trkpt lat="44.8771504" lon="9.490539"><ele>546.6</ele><time>2026-04-16T13:25:36.787Z</time></trkpt><trkpt lat="44.8772211" lon="9.4904221"><ele>547.4</ele><time>2026-04-16T13:25:37.787Z</time></trkpt><trkpt lat="44.8772916" lon="9.4903121"><ele>548.2</ele><time>2026-04-16T13:25:38.786Z</time></trkpt><trkpt lat="44.8773419" lon="9.4902097"><ele>549.0</ele><time>2026-04-16T13:25:39.787Z</time></trkpt><trkpt lat="44.8773715" lon="9.4900991"><ele>549.8</ele><time>2026-04-16T13:25:40.787Z</time></trkpt><trkpt lat="44.8773784" lon="9.4899779"><ele>550.5999999999999</ele><time>2026-04-16T13:25:41.787Z</time></trkpt><trkpt lat="44.8773597" lon="9.4898609"><ele>551.4</ele><time>2026-04-16T13:25:42.786Z</time></trkpt><trkpt lat="44.8773216" lon="9.4897323"><ele>552.1999999999999</ele><time>2026-04-16T13:25:43.786Z</time></trkpt><trkpt lat="44.8772706" lon="9.4895998"><ele>553.0</ele><time>2026-04-16T13:25:44.787Z</time></trkpt><trkpt lat="44.8772165" lon="9.4894626"><ele>553.0</ele><time>2026-04-16T13:25:45.788Z</time></trkpt><trkpt lat="44.8771563" lon="9.4893107"><ele>553.0</ele><time>2026-04-16T13:25:46.787Z</time></trkpt><trkpt lat="44.8770945" lon="9.4891469"><ele>553.0</ele><time>2026-04-16T13:25:47.787Z</time></trkpt><trkpt lat="44.8770352" lon="9.4889843"><ele>553.0</ele><time>2026-04-16T13:25:48.788Z</time></trkpt><trkpt lat="44.87698" lon="9.4888218"><ele>550.75</ele><time>2026-04-16T13:25:49.787Z</time></trkpt><trkpt lat="44.8769259" lon="9.4886635"><ele>548.5</ele><time>2026-04-16T13:25:50.787Z</time></trkpt><trkpt lat="44.876875" lon="9.4885108"><ele>546.25</ele><time>2026-04-16T13:25:51.787Z</time></trkpt><trkpt lat="44.8768308" lon="9.4883635"><ele>544.0</ele><time>2026-04-16T13:25:52.786Z</time></trkpt><trkpt lat="44.8767896" lon="9.4882216"><ele>545.4</ele><time>2026-04-16T13:25:53.786Z</time></trkpt><trkpt lat="44.8767584" lon="9.4880892"><ele>546.8</ele><time>2026-04-16T13:25:54.786Z</time></trkpt><trkpt lat="44.876737" lon="9.4879545"><ele>548.2</ele><time>2026-04-16T13:25:55.787Z</time></trkpt><trkpt lat="44.8767283" lon="9.48781"><ele>549.6</ele><time>2026-04-16T13:25:56.786Z</time></trkpt><trkpt lat="44.8767189" lon="9.4876558"><ele>551.0</ele><time>2026-04-16T13:25:57.786Z</time></trkpt><trkpt lat="44.8766987" lon="9.4874932"><ele>551.0</ele><time>2026-04-16T13:25:58.787Z</time></trkpt><trkpt lat="44.8766705" lon="9.4873292"><ele>551.0</ele><time>2026-04-16T13:25:59.787Z</time></trkpt><trkpt lat="44.8766282" lon="9.4871687"><ele>551.0</ele><time>2026-04-16T13:26:00.787Z</time></trkpt><trkpt lat="44.876581" lon="9.4870132"><ele>551.0</ele><time>2026-04-16T13:26:01.787Z</time></trkpt><trkpt lat="44.8765329" lon="9.4868644"><ele>551.4</ele><time>2026-04-16T13:26:02.786Z</time></trkpt><trkpt lat="44.8764854" lon="9.4867316"><ele>551.8</ele><time>2026-04-16T13:26:03.786Z</time></trkpt><trkpt lat="44.8764339" lon="9.486603"><ele>552.1999999999999</ele><time>2026-04-16T13:26:04.787Z</time></trkpt><trkpt lat="44.876382" lon="9.486482"><ele>552.6</ele><time>2026-04-16T13:26:05.787Z</time></trkpt><trkpt lat="44.8763193" lon="9.486362"><ele>553.0</ele><time>2026-04-16T13:26:06.786Z</time></trkpt><trkpt lat="44.8762506" lon="9.4862441"><ele>554.0</ele><time>2026-04-16T13:26:07.787Z</time></trkpt><trkpt lat="44.8761808" lon="9.4861279"><ele>555.0</ele><time>2026-04-16T13:26:08.787Z</time></trkpt><trkpt lat="44.8761121" lon="9.4860217"><ele>556.0</ele><time>2026-04-16T13:26:09.786Z</time></trkpt><trkpt lat="44.8760482" lon="9.485926"><ele>557.0</ele><time>2026-04-16T13:26:10.787Z</time></trkpt><trkpt lat="44.8759925" lon="9.4858388"><ele>558.0</ele><time>2026-04-16T13:26:11.787Z</time></trkpt><trkpt lat="44.8759465" lon="9.4857548"><ele>557.3333333333334</ele><time>2026-04-16T13:26:12.787Z</time></trkpt><trkpt lat="44.8758933" lon="9.4856005"><ele>556.6666666666666</ele><time>2026-04-16T13:26:14.787Z</time></trkpt><trkpt lat="44.8758718" lon="9.4855132"><ele>556.0</ele><time>2026-04-16T13:26:15.786Z</time></trkpt><trkpt lat="44.8758511" lon="9.4854192"><ele>555.3333333333333</ele><time>2026-04-16T13:26:16.787Z</time></trkpt><trkpt lat="44.8758333" lon="9.4853305"><ele>554.6666666666666</ele><time>2026-04-16T13:26:17.787Z</time></trkpt><trkpt lat="44.8758145" lon="9.4852449"><ele>554.0</ele><time>2026-04-16T13:26:18.786Z</time></trkpt><trkpt lat="44.875776" lon="9.4850846"><ele>554.0</ele><time>2026-04-16T13:26:20.786Z</time></trkpt><trkpt lat="44.875752" lon="9.4850022"><ele>554.0</ele><time>2026-04-16T13:26:21.788Z</time></trkpt><trkpt lat="44.875722" lon="9.4849231"><ele>554.0</ele><time>2026-04-16T13:26:22.787Z</time></trkpt><trkpt lat="44.8756944" lon="9.484843"><ele>554.0</ele><time>2026-04-16T13:26:23.786Z</time></trkpt><trkpt lat="44.8756472" lon="9.4846778"><ele>554.0</ele><time>2026-04-16T13:26:25.786Z</time></trkpt><trkpt lat="44.87562" lon="9.4845914"><ele>554.0</ele><time>2026-04-16T13:26:26.786Z</time></trkpt><trkpt lat="44.8755892" lon="9.4844986"><ele>554.6</ele><time>2026-04-16T13:26:27.786Z</time></trkpt><trkpt lat="44.8755603" lon="9.4843947"><ele>555.2</ele><time>2026-04-16T13:26:28.786Z</time></trkpt><trkpt lat="44.8755324" lon="9.4842775"><ele>555.8000000000001</ele><time>2026-04-16T13:26:29.786Z</time></trkpt><trkpt lat="44.8755038" lon="9.484146"><ele>556.4</ele><time>2026-04-16T13:26:30.787Z</time></trkpt><trkpt lat="44.8754751" lon="9.4840007"><ele>557.0</ele><time>2026-04-16T13:26:31.786Z</time></trkpt><trkpt lat="44.8754478" lon="9.4838501"><ele>555.25</ele><time>2026-04-16T13:26:32.787Z</time></trkpt><trkpt lat="44.8754225" lon="9.4836891"><ele>553.5</ele><time>2026-04-16T13:26:33.786Z</time></trkpt><trkpt lat="44.8753998" lon="9.4835236"><ele>551.75</ele><time>2026-04-16T13:26:34.786Z</time></trkpt><trkpt lat="44.8753775" lon="9.4833583"><ele>550.0</ele><time>2026-04-16T13:26:35.788Z</time></trkpt><trkpt lat="44.8753523" lon="9.4832015"><ele>550.0</ele><time>2026-04-16T13:26:36.787Z</time></trkpt><trkpt lat="44.875331" lon="9.483053"><ele>550.0</ele><time>2026-04-16T13:26:37.787Z</time></trkpt><trkpt lat="44.8753124" lon="9.4829094"><ele>550.0</ele><time>2026-04-16T13:26:38.786Z</time></trkpt><trkpt lat="44.8752918" lon="9.4827743"><ele>550.0</ele><time>2026-04-16T13:26:39.786Z</time></trkpt><trkpt lat="44.8752584" lon="9.4826473"><ele>550.0</ele><time>2026-04-16T13:26:40.786Z</time></trkpt><trkpt lat="44.8752108" lon="9.482531"><ele>549.6</ele><time>2026-04-16T13:26:41.787Z</time></trkpt><trkpt lat="44.8751495" lon="9.4824259"><ele>549.2</ele><time>2026-04-16T13:26:42.788Z</time></trkpt><trkpt lat="44.8750786" lon="9.4823292"><ele>548.8</ele><time>2026-04-16T13:26:43.786Z</time></trkpt><trkpt lat="44.8750039" lon="9.4822395"><ele>548.4</ele><time>2026-04-16T13:26:44.787Z</time></trkpt><trkpt lat="44.8749218" lon="9.4821596"><ele>548.0</ele><time>2026-04-16T13:26:45.788Z</time></trkpt><trkpt lat="44.8748295" lon="9.4820935"><ele>548.0</ele><time>2026-04-16T13:26:46.787Z</time></trkpt><trkpt lat="44.8747277" lon="9.4820492"><ele>548.0</ele><time>2026-04-16T13:26:47.786Z</time></trkpt><trkpt lat="44.8746221" lon="9.4820255"><ele>548.0</ele><time>2026-04-16T13:26:48.787Z</time></trkpt><trkpt lat="44.8745133" lon="9.482003"><ele>548.0</ele><time>2026-04-16T13:26:49.787Z</time></trkpt><trkpt lat="44.8744069" lon="9.4819763"><ele>548.0</ele><time>2026-04-16T13:26:50.788Z</time></trkpt><trkpt lat="44.8743058" lon="9.4819283"><ele>546.4</ele><time>2026-04-16T13:26:51.786Z</time></trkpt><trkpt lat="44.8742103" lon="9.4818584"><ele>544.8</ele><time>2026-04-16T13:26:52.786Z</time></trkpt><trkpt lat="44.8741182" lon="9.4817786"><ele>543.2</ele><time>2026-04-16T13:26:53.787Z</time></trkpt><trkpt lat="44.8740261" lon="9.4816937"><ele>541.6</ele><time>2026-04-16T13:26:54.787Z</time></trkpt><trkpt lat="44.8739322" lon="9.4816059"><ele>540.0</ele><time>2026-04-16T13:26:55.787Z</time></trkpt><trkpt lat="44.8738391" lon="9.4815159"><ele>540.0</ele><time>2026-04-16T13:26:56.787Z</time></trkpt><trkpt lat="44.873747" lon="9.4814279"><ele>540.0</ele><time>2026-04-16T13:26:57.786Z</time></trkpt><trkpt lat="44.8736566" lon="9.4813374"><ele>540.0</ele><time>2026-04-16T13:26:58.787Z</time></trkpt><trkpt lat="44.8735699" lon="9.4812446"><ele>540.0</ele><time>2026-04-16T13:26:59.787Z</time></trkpt><trkpt lat="44.8734892" lon="9.4811496"><ele>540.0</ele><time>2026-04-16T13:27:00.786Z</time></trkpt><trkpt lat="44.8734177" lon="9.4810487"><ele>537.2</ele><time>2026-04-16T13:27:01.787Z</time></trkpt><trkpt lat="44.8733515" lon="9.4809332"><ele>534.4</ele><time>2026-04-16T13:27:02.787Z</time></trkpt><trkpt lat="44.8732895" lon="9.4808094"><ele>531.6</ele><time>2026-04-16T13:27:03.788Z</time></trkpt><trkpt lat="44.8732311" lon="9.4806828"><ele>528.8</ele><time>2026-04-16T13:27:04.786Z</time></trkpt><trkpt lat="44.8731757" lon="9.4805564"><ele>526.0</ele><time>2026-04-16T13:27:05.786Z</time></trkpt><trkpt lat="44.8731244" lon="9.4804314"><ele>524.6666666666667</ele><time>2026-04-16T13:27:06.787Z</time></trkpt><trkpt lat="44.8730749" lon="9.480312"><ele>523.3333333333334</ele><time>2026-04-16T13:27:07.786Z</time></trkpt><trkpt lat="44.8730291" lon="9.4801959"><ele>522.0</ele><time>2026-04-16T13:27:08.788Z</time></trkpt><trkpt lat="44.872988" lon="9.4800865"><ele>520.6666666666666</ele><time>2026-04-16T13:27:09.786Z</time></trkpt><trkpt lat="44.8729557" lon="9.4799852"><ele>519.3333333333333</ele><time>2026-04-16T13:27:10.787Z</time></trkpt><trkpt lat="44.872934" lon="9.4798857"><ele>518.0</ele><time>2026-04-16T13:27:11.787Z</time></trkpt><trkpt lat="44.8729236" lon="9.4797866"><ele>518.0</ele><time>2026-04-16T13:27:12.786Z</time></trkpt><trkpt lat="44.872916" lon="9.4796767"><ele>518.0</ele><time>2026-04-16T13:27:13.788Z</time></trkpt><trkpt lat="44.8729093" lon="9.4795586"><ele>518.0</ele><time>2026-04-16T13:27:14.787Z</time></trkpt><trkpt lat="44.8729001" lon="9.4794366"><ele>518.0</ele><time>2026-04-16T13:27:15.787Z</time></trkpt><trkpt lat="44.8728876" lon="9.4793161"><ele>518.0</ele><time>2026-04-16T13:27:16.786Z</time></trkpt><trkpt lat="44.8728698" lon="9.4791926"><ele>518.0</ele><time>2026-04-16T13:27:17.786Z</time></trkpt><trkpt lat="44.8728464" lon="9.4790703"><ele>517.1999999999999</ele><time>2026-04-16T13:27:18.786Z</time></trkpt><trkpt lat="44.87282" lon="9.4789431"><ele>516.4</ele><time>2026-04-16T13:27:19.786Z</time></trkpt><trkpt lat="44.8728018" lon="9.4788078"><ele>515.5999999999999</ele><time>2026-04-16T13:27:20.786Z</time></trkpt><trkpt lat="44.8727909" lon="9.4786685"><ele>514.8</ele><time>2026-04-16T13:27:21.787Z</time></trkpt><trkpt lat="44.8727909" lon="9.4785229"><ele>514.0</ele><time>2026-04-16T13:27:22.787Z</time></trkpt><trkpt lat="44.872793" lon="9.4783848"><ele>513.6666666666667</ele><time>2026-04-16T13:27:23.786Z</time></trkpt><trkpt lat="44.8727831" lon="9.4782591"><ele>513.3333333333334</ele><time>2026-04-16T13:27:24.787Z</time></trkpt><trkpt lat="44.8727658" lon="9.4781399"><ele>513.0</ele><time>2026-04-16T13:27:25.787Z</time></trkpt><trkpt lat="44.8727511" lon="9.4780223"><ele>512.6666666666666</ele><time>2026-04-16T13:27:26.787Z</time></trkpt><trkpt lat="44.8727254" lon="9.4779051"><ele>512.3333333333333</ele><time>2026-04-16T13:27:27.786Z</time></trkpt><trkpt lat="44.8726884" lon="9.4777885"><ele>512.0</ele><time>2026-04-16T13:27:28.787Z</time></trkpt><trkpt lat="44.8726414" lon="9.4776731"><ele>517.0</ele><time>2026-04-16T13:27:29.786Z</time></trkpt><trkpt lat="44.8725929" lon="9.4775541"><ele>522.0</ele><time>2026-04-16T13:27:30.787Z</time></trkpt><trkpt lat="44.8725456" lon="9.4774338"><ele>527.0</ele><time>2026-04-16T13:27:31.786Z</time></trkpt><trkpt lat="44.8725032" lon="9.4773264"><ele>532.0</ele><time>2026-04-16T13:27:32.786Z</time></trkpt><trkpt lat="44.8724666" lon="9.4772534"><ele>537.0</ele><time>2026-04-16T13:27:33.786Z</time></trkpt><trkpt lat="44.8723843" lon="9.4771792"><ele>542.0</ele><time>2026-04-16T13:27:35.787Z</time></trkpt><trkpt lat="44.8722727" lon="9.4771469"><ele>540.4285714285714</ele><time>2026-04-16T13:27:37.787Z</time></trkpt><trkpt lat="44.8721856" lon="9.4770937"><ele>538.8571428571429</ele><time>2026-04-16T13:27:39.787Z</time></trkpt><trkpt lat="44.8721332" lon="9.4770424"><ele>537.2857142857143</ele><time>2026-04-16T13:27:40.786Z</time></trkpt><trkpt lat="44.8720796" lon="9.4769818"><ele>535.7142857142858</ele><time>2026-04-16T13:27:41.787Z</time></trkpt><trkpt lat="44.8720237" lon="9.4769231"><ele>534.1428571428572</ele><time>2026-04-16T13:27:42.787Z</time></trkpt><trkpt lat="44.8719678" lon="9.476862"><ele>532.5714285714286</ele><time>2026-04-16T13:27:43.786Z</time></trkpt><trkpt lat="44.8719161" lon="9.4768089"><ele>531.0</ele><time>2026-04-16T13:27:44.788Z</time></trkpt><trkpt lat="44.8718468" lon="9.4767055"><ele>531.0</ele><time>2026-04-16T13:27:46.787Z</time></trkpt><trkpt lat="44.8717974" lon="9.4765685"><ele>531.0</ele><time>2026-04-16T13:27:48.787Z</time></trkpt><trkpt lat="44.8717677" lon="9.4764038"><ele>531.0</ele><time>2026-04-16T13:27:50.786Z</time></trkpt><trkpt lat="44.8717337" lon="9.4762544"><ele>531.0</ele><time>2026-04-16T13:27:52.787Z</time></trkpt><trkpt lat="44.8717059" lon="9.4761645"><ele>531.0</ele><time>2026-04-16T13:27:53.786Z</time></trkpt><trkpt lat="44.8716724" lon="9.4760596"><ele>531.4</ele><time>2026-04-16T13:27:54.787Z</time></trkpt><trkpt lat="44.8716328" lon="9.4759419"><ele>531.8</ele><time>2026-04-16T13:27:55.787Z</time></trkpt><trkpt lat="44.87159" lon="9.4758214"><ele>532.1999999999999</ele><time>2026-04-16T13:27:56.786Z</time></trkpt><trkpt lat="44.8715458" lon="9.4756918"><ele>532.6</ele><time>2026-04-16T13:27:57.786Z</time></trkpt><trkpt lat="44.8715035" lon="9.4755605"><ele>533.0</ele><time>2026-04-16T13:27:58.786Z</time></trkpt><trkpt lat="44.8714664" lon="9.4754277"><ele>533.0</ele><time>2026-04-16T13:27:59.786Z</time></trkpt><trkpt lat="44.8714355" lon="9.4753024"><ele>533.0</ele><time>2026-04-16T13:28:00.787Z</time></trkpt><trkpt lat="44.8714079" lon="9.4751882"><ele>533.0</ele><time>2026-04-16T13:28:01.786Z</time></trkpt><trkpt lat="44.871377" lon="9.4750768"><ele>533.0</ele><time>2026-04-16T13:28:02.787Z</time></trkpt><trkpt lat="44.8713394" lon="9.4749612"><ele>533.0</ele><time>2026-04-16T13:28:03.788Z</time></trkpt><trkpt lat="44.8712991" lon="9.4748458"><ele>533.0</ele><time>2026-04-16T13:28:04.788Z</time></trkpt><trkpt lat="44.8712525" lon="9.4747315"><ele>533.0</ele><time>2026-04-16T13:28:05.786Z</time></trkpt><trkpt lat="44.8712008" lon="9.4746199"><ele>533.0</ele><time>2026-04-16T13:28:06.787Z</time></trkpt><trkpt lat="44.8711546" lon="9.4745044"><ele>533.0</ele><time>2026-04-16T13:28:07.787Z</time></trkpt><trkpt lat="44.8711166" lon="9.4743792"><ele>533.0</ele><time>2026-04-16T13:28:08.787Z</time></trkpt><trkpt lat="44.8710899" lon="9.474251"><ele>533.0</ele><time>2026-04-16T13:28:09.787Z</time></trkpt><trkpt lat="44.8710819" lon="9.4741229"><ele>532.6666666666666</ele><time>2026-04-16T13:28:10.786Z</time></trkpt><trkpt lat="44.8710895" lon="9.4739899"><ele>532.3333333333333</ele><time>2026-04-16T13:28:11.786Z</time></trkpt><trkpt lat="44.8711076" lon="9.4738592"><ele>532.0</ele><time>2026-04-16T13:28:12.787Z</time></trkpt><trkpt lat="44.8711172" lon="9.4737501"><ele>531.6666666666666</ele><time>2026-04-16T13:28:13.785Z</time></trkpt><trkpt lat="44.8711174" lon="9.4736551"><ele>531.3333333333334</ele><time>2026-04-16T13:28:14.785Z</time></trkpt><trkpt lat="44.8711041" lon="9.4735594"><ele>531.0</ele><time>2026-04-16T13:28:15.785Z</time></trkpt><trkpt lat="44.8710782" lon="9.4734599"><ele>530.0</ele><time>2026-04-16T13:28:16.785Z</time></trkpt><trkpt lat="44.8710367" lon="9.4733539"><ele>529.0</ele><time>2026-04-16T13:28:17.786Z</time></trkpt><trkpt lat="44.8709818" lon="9.473249"><ele>528.0</ele><time>2026-04-16T13:28:18.785Z</time></trkpt><trkpt lat="44.8709214" lon="9.4731511"><ele>527.0</ele><time>2026-04-16T13:28:19.785Z</time></trkpt><trkpt lat="44.8708591" lon="9.4730568"><ele>526.0</ele><time>2026-04-16T13:28:20.786Z</time></trkpt><trkpt lat="44.8707991" lon="9.4729643"><ele>527.3333333333334</ele><time>2026-04-16T13:28:21.785Z</time></trkpt><trkpt lat="44.8707432" lon="9.4728723"><ele>528.6666666666667</ele><time>2026-04-16T13:28:22.786Z</time></trkpt><trkpt lat="44.8706952" lon="9.4727824"><ele>530.0</ele><time>2026-04-16T13:28:23.785Z</time></trkpt><trkpt lat="44.8706531" lon="9.4726986"><ele>531.3333333333334</ele><time>2026-04-16T13:28:24.786Z</time></trkpt><trkpt lat="44.8706149" lon="9.4726263"><ele>532.6666666666666</ele><time>2026-04-16T13:28:25.786Z</time></trkpt><trkpt lat="44.8705498" lon="9.4725332"><ele>534.0</ele><time>2026-04-16T13:28:27.785Z</time></trkpt><trkpt lat="44.8704996" lon="9.4724654"><ele>534.0</ele><time>2026-04-16T13:28:30.786Z</time></trkpt><trkpt lat="44.8704019" lon="9.4724284"><ele>534.0</ele><time>2026-04-16T13:29:53.786Z</time></trkpt><trkpt lat="44.8703136" lon="9.4723853"><ele>534.0</ele><time>2026-04-16T13:29:55.764Z</time></trkpt><trkpt lat="44.8702276" lon="9.4723046"><ele>534.0</ele><time>2026-04-16T13:29:57.786Z</time></trkpt><trkpt lat="44.8701591" lon="9.4722464"><ele>534.0</ele><time>2026-04-16T13:29:59.785Z</time></trkpt><trkpt lat="44.8701014" lon="9.4721998"><ele>534.0</ele><time>2026-04-16T13:30:01.785Z</time></trkpt><trkpt lat="44.8700291" lon="9.4721461"><ele>534.8</ele><time>2026-04-16T13:30:04.785Z</time></trkpt><trkpt lat="44.8699478" lon="9.472084"><ele>535.5999999999999</ele><time>2026-04-16T13:30:07.785Z</time></trkpt><trkpt lat="44.869893" lon="9.4720157"><ele>536.4</ele><time>2026-04-16T13:30:09.785Z</time></trkpt><trkpt lat="44.869831" lon="9.4719109"><ele>537.1999999999999</ele><time>2026-04-16T13:30:11.786Z</time></trkpt><trkpt lat="44.8697692" lon="9.4718017"><ele>538.0</ele><time>2026-04-16T13:30:13.786Z</time></trkpt><trkpt lat="44.8697069" lon="9.4716895"><ele>538.0</ele><time>2026-04-16T13:30:15.785Z</time></trkpt><trkpt lat="44.8696308" lon="9.4715537"><ele>538.0</ele><time>2026-04-16T13:30:17.785Z</time></trkpt><trkpt lat="44.8695929" lon="9.4714747"><ele>538.0</ele><time>2026-04-16T13:30:18.786Z</time></trkpt><trkpt lat="44.869564" lon="9.4713875"><ele>538.0</ele><time>2026-04-16T13:30:19.786Z</time></trkpt><trkpt lat="44.8695404" lon="9.4712917"><ele>538.0</ele><time>2026-04-16T13:30:20.785Z</time></trkpt><trkpt lat="44.8695253" lon="9.4711921"><ele>538.0</ele><time>2026-04-16T13:30:21.785Z</time></trkpt><trkpt lat="44.8695217" lon="9.4710948"><ele>537.7142857142858</ele><time>2026-04-16T13:30:22.787Z</time></trkpt><trkpt lat="44.8695226" lon="9.4709979"><ele>537.4285714285714</ele><time>2026-04-16T13:30:23.786Z</time></trkpt><trkpt lat="44.8695241" lon="9.4709005"><ele>537.1428571428571</ele><time>2026-04-16T13:30:24.786Z</time></trkpt><trkpt lat="44.869519" lon="9.4708033"><ele>536.8571428571429</ele><time>2026-04-16T13:30:25.786Z</time></trkpt><trkpt lat="44.8695063" lon="9.4707032"><ele>536.5714285714286</ele><time>2026-04-16T13:30:26.785Z</time></trkpt><trkpt lat="44.8694915" lon="9.4705991"><ele>536.2857142857143</ele><time>2026-04-16T13:30:27.786Z</time></trkpt><trkpt lat="44.8694834" lon="9.470491"><ele>536.0</ele><time>2026-04-16T13:30:28.786Z</time></trkpt><trkpt lat="44.86948" lon="9.4703867"><ele>537.0</ele><time>2026-04-16T13:30:29.785Z</time></trkpt><trkpt lat="44.8694714" lon="9.470291"><ele>538.0</ele><time>2026-04-16T13:30:30.785Z</time></trkpt><trkpt lat="44.8694554" lon="9.4701995"><ele>539.0</ele><time>2026-04-16T13:30:31.786Z</time></trkpt><trkpt lat="44.8694331" lon="9.4701078"><ele>540.0</ele><time>2026-04-16T13:30:32.785Z</time></trkpt><trkpt lat="44.8694072" lon="9.4700179"><ele>541.0</ele><time>2026-04-16T13:30:33.785Z</time></trkpt><trkpt lat="44.8693803" lon="9.469929"><ele>542.0</ele><time>2026-04-16T13:30:34.785Z</time></trkpt><trkpt lat="44.869352" lon="9.4698403"><ele>543.0</ele><time>2026-04-16T13:30:35.786Z</time></trkpt><trkpt lat="44.8693198" lon="9.4697562"><ele>543.0</ele><time>2026-04-16T13:30:36.786Z</time></trkpt><trkpt lat="44.8692881" lon="9.4696729"><ele>543.0</ele><time>2026-04-16T13:30:37.786Z</time></trkpt><trkpt lat="44.8692599" lon="9.4695856"><ele>543.0</ele><time>2026-04-16T13:30:38.786Z</time></trkpt><trkpt lat="44.8692375" lon="9.4695024"><ele>543.0</ele><time>2026-04-16T13:30:39.786Z</time></trkpt><trkpt lat="44.8692077" lon="9.4693519"><ele>543.0</ele><time>2026-04-16T13:30:41.787Z</time></trkpt><trkpt lat="44.8692066" lon="9.469239"><ele>543.0</ele><time>2026-04-16T13:30:43.785Z</time></trkpt><trkpt lat="44.8692438" lon="9.4691385"><ele>545.3333333333334</ele><time>2026-04-16T13:30:46.786Z</time></trkpt><trkpt lat="44.8693162" lon="9.4690383"><ele>547.6666666666666</ele><time>2026-04-16T13:30:58.786Z</time></trkpt><trkpt lat="44.8694259" lon="9.4689483"><ele>550.0</ele><time>2026-04-16T13:31:00.785Z</time></trkpt><trkpt lat="44.8694881" lon="9.4688978"><ele>552.3333333333333</ele><time>2026-04-16T13:31:01.786Z</time></trkpt><trkpt lat="44.8695522" lon="9.4688447"><ele>554.6666666666666</ele><time>2026-04-16T13:31:02.785Z</time></trkpt><trkpt lat="44.8696157" lon="9.4687967"><ele>557.0</ele><time>2026-04-16T13:31:03.786Z</time></trkpt><trkpt lat="44.8696834" lon="9.4687536"><ele>559.3333333333333</ele><time>2026-04-16T13:31:04.786Z</time></trkpt><trkpt lat="44.869752" lon="9.4687099"><ele>561.6666666666666</ele><time>2026-04-16T13:31:05.786Z</time></trkpt><trkpt lat="44.8698202" lon="9.468662"><ele>564.0</ele><time>2026-04-16T13:31:06.785Z</time></trkpt><trkpt lat="44.8698906" lon="9.4686027"><ele>566.3333333333334</ele><time>2026-04-16T13:31:07.785Z</time></trkpt><trkpt lat="44.8699567" lon="9.4685303"><ele>568.6666666666667</ele><time>2026-04-16T13:31:08.786Z</time></trkpt><trkpt lat="44.8700231" lon="9.4684486"><ele>571.0</ele><time>2026-04-16T13:31:09.786Z</time></trkpt><trkpt lat="44.870088" lon="9.4683683"><ele>570.0</ele><time>2026-04-16T13:31:10.786Z</time></trkpt><trkpt lat="44.8701539" lon="9.468295"><ele>569.0</ele><time>2026-04-16T13:31:11.786Z</time></trkpt><trkpt lat="44.8702182" lon="9.468229"><ele>568.0</ele><time>2026-04-16T13:31:12.785Z</time></trkpt><trkpt lat="44.8702825" lon="9.4681639"><ele>567.0</ele><time>2026-04-16T13:31:13.786Z</time></trkpt><trkpt lat="44.8703378" lon="9.4680986"><ele>566.0</ele><time>2026-04-16T13:31:14.786Z</time></trkpt><trkpt lat="44.870391" lon="9.4679834"><ele>565.0</ele><time>2026-04-16T13:31:16.786Z</time></trkpt><trkpt lat="44.8703774" lon="9.4678742"><ele>563.8</ele><time>2026-04-16T13:31:18.786Z</time></trkpt><trkpt lat="44.8703277" lon="9.4677866"><ele>562.6</ele><time>2026-04-16T13:31:20.785Z</time></trkpt><trkpt lat="44.8702788" lon="9.4677046"><ele>561.4</ele><time>2026-04-16T13:31:30.786Z</time></trkpt><trkpt lat="44.8702718" lon="9.4675918"><ele>560.2</ele><time>2026-04-16T13:31:32.785Z</time></trkpt><trkpt lat="44.870256" lon="9.4674455"><ele>559.0</ele><time>2026-04-16T13:31:34.785Z</time></trkpt><trkpt lat="44.8702099" lon="9.4672993"><ele>559.0</ele><time>2026-04-16T13:31:36.786Z</time></trkpt><trkpt lat="44.8701489" lon="9.4671439"><ele>559.0</ele><time>2026-04-16T13:31:38.786Z</time></trkpt><trkpt lat="44.8701136" lon="9.467061"><ele>559.0</ele><time>2026-04-16T13:31:39.786Z</time></trkpt><trkpt lat="44.8700812" lon="9.4669786"><ele>559.0</ele><time>2026-04-16T13:31:40.787Z</time></trkpt><trkpt lat="44.8700465" lon="9.4668958"><ele>559.0</ele><time>2026-04-16T13:31:41.786Z</time></trkpt><trkpt lat="44.8700119" lon="9.4668121"><ele>559.0</ele><time>2026-04-16T13:31:42.785Z</time></trkpt><trkpt lat="44.8699745" lon="9.4667242"><ele>561.5</ele><time>2026-04-16T13:31:43.786Z</time></trkpt><trkpt lat="44.8699437" lon="9.4666303"><ele>564.0</ele><time>2026-04-16T13:31:44.785Z</time></trkpt><trkpt lat="44.8699202" lon="9.4665327"><ele>566.5</ele><time>2026-04-16T13:31:45.787Z</time></trkpt><trkpt lat="44.8699039" lon="9.466427"><ele>569.0</ele><time>2026-04-16T13:31:46.785Z</time></trkpt><trkpt lat="44.8698867" lon="9.4663205"><ele>571.5</ele><time>2026-04-16T13:31:47.786Z</time></trkpt><trkpt lat="44.8698689" lon="9.4662075"><ele>574.0</ele><time>2026-04-16T13:31:48.786Z</time></trkpt><trkpt lat="44.8698441" lon="9.4660958"><ele>574.0</ele><time>2026-04-16T13:31:49.786Z</time></trkpt><trkpt lat="44.8698163" lon="9.4659889"><ele>574.0</ele><time>2026-04-16T13:31:50.786Z</time></trkpt><trkpt lat="44.8697907" lon="9.4658868"><ele>574.0</ele><time>2026-04-16T13:31:51.787Z</time></trkpt><trkpt lat="44.8697649" lon="9.4657873"><ele>574.0</ele><time>2026-04-16T13:31:52.786Z</time></trkpt><trkpt lat="44.8697361" lon="9.465691"><ele>574.0</ele><time>2026-04-16T13:31:53.786Z</time></trkpt><trkpt lat="44.8697079" lon="9.465597"><ele>574.0</ele><time>2026-04-16T13:31:54.786Z</time></trkpt><trkpt lat="44.8696813" lon="9.4654999"><ele>573.5714285714286</ele><time>2026-04-16T13:31:55.785Z</time></trkpt><trkpt lat="44.8696525" lon="9.4654038"><ele>573.1428571428571</ele><time>2026-04-16T13:31:56.786Z</time></trkpt><trkpt lat="44.869624" lon="9.4653111"><ele>572.7142857142858</ele><time>2026-04-16T13:31:57.786Z</time></trkpt><trkpt lat="44.8695976" lon="9.4652185"><ele>572.2857142857142</ele><time>2026-04-16T13:31:58.786Z</time></trkpt><trkpt lat="44.869583" lon="9.4651214"><ele>571.8571428571429</ele><time>2026-04-16T13:31:59.786Z</time></trkpt><trkpt lat="44.8695818" lon="9.4650195"><ele>571.4285714285714</ele><time>2026-04-16T13:32:00.785Z</time></trkpt><trkpt lat="44.8695853" lon="9.4649184"><ele>571.0</ele><time>2026-04-16T13:32:01.786Z</time></trkpt><trkpt lat="44.869576" lon="9.4648263"><ele>571.0</ele><time>2026-04-16T13:32:02.786Z</time></trkpt><trkpt lat="44.8695586" lon="9.4647373"><ele>571.0</ele><time>2026-04-16T13:32:03.786Z</time></trkpt><trkpt lat="44.8695335" lon="9.4646386"><ele>571.0</ele><time>2026-04-16T13:32:04.786Z</time></trkpt><trkpt lat="44.8695102" lon="9.4645338"><ele>571.0</ele><time>2026-04-16T13:32:05.786Z</time></trkpt><trkpt lat="44.8694848" lon="9.4644221"><ele>571.0</ele><time>2026-04-16T13:32:06.785Z</time></trkpt><trkpt lat="44.8694652" lon="9.4643067"><ele>571.0</ele><time>2026-04-16T13:32:07.785Z</time></trkpt><trkpt lat="44.8694519" lon="9.4641931"><ele>571.5</ele><time>2026-04-16T13:32:08.787Z</time></trkpt><trkpt lat="44.869445" lon="9.4640878"><ele>572.0</ele><time>2026-04-16T13:32:09.786Z</time></trkpt><trkpt lat="44.869454" lon="9.4639925"><ele>572.5</ele><time>2026-04-16T13:32:10.786Z</time></trkpt><trkpt lat="44.8695114" lon="9.4638402"><ele>573.0</ele><time>2026-04-16T13:32:12.785Z</time></trkpt><trkpt lat="44.8695491" lon="9.4637686"><ele>573.5</ele><time>2026-04-16T13:32:13.785Z</time></trkpt><trkpt lat="44.8695947" lon="9.4637043"><ele>574.0</ele><time>2026-04-16T13:32:14.786Z</time></trkpt><trkpt lat="44.8696488" lon="9.4636477"><ele>574.3333333333334</ele><time>2026-04-16T13:32:15.785Z</time></trkpt><trkpt lat="44.8697091" lon="9.4636041"><ele>574.6666666666667</ele><time>2026-04-16T13:32:16.786Z</time></trkpt><trkpt lat="44.8697716" lon="9.4635706"><ele>575.0</ele><time>2026-04-16T13:32:17.786Z</time></trkpt><trkpt lat="44.8698709" lon="9.4635022"><ele>575.3333333333334</ele><time>2026-04-16T13:32:19.786Z</time></trkpt><trkpt lat="44.8699173" lon="9.4634214"><ele>575.6666666666666</ele><time>2026-04-16T13:32:21.786Z</time></trkpt><trkpt lat="44.8698849" lon="9.4633131"><ele>576.0</ele><time>2026-04-16T13:32:24.785Z</time></trkpt><trkpt lat="44.8698093" lon="9.4632353"><ele>576.0</ele><time>2026-04-16T13:32:26.786Z</time></trkpt><trkpt lat="44.8697118" lon="9.4631447"><ele>576.0</ele><time>2026-04-16T13:32:28.785Z</time></trkpt><trkpt lat="44.8696257" lon="9.4630398"><ele>576.0</ele><time>2026-04-16T13:32:30.786Z</time></trkpt><trkpt lat="44.869551" lon="9.4629282"><ele>576.0</ele><time>2026-04-16T13:32:32.785Z</time></trkpt><trkpt lat="44.8694883" lon="9.4628058"><ele>576.0</ele><time>2026-04-16T13:32:34.785Z</time></trkpt><trkpt lat="44.869468" lon="9.4626742"><ele>574.3333333333334</ele><time>2026-04-16T13:32:36.785Z</time></trkpt><trkpt lat="44.8694855" lon="9.4625337"><ele>572.6666666666666</ele><time>2026-04-16T13:32:38.786Z</time></trkpt><trkpt lat="44.8694969" lon="9.4624428"><ele>571.0</ele><time>2026-04-16T13:32:39.786Z</time></trkpt><trkpt lat="44.8695081" lon="9.4623307"><ele>569.3333333333333</ele><time>2026-04-16T13:32:40.785Z</time></trkpt><trkpt lat="44.869516" lon="9.4622179"><ele>567.6666666666666</ele><time>2026-04-16T13:32:41.785Z</time></trkpt><trkpt lat="44.8695231" lon="9.4621006"><ele>566.0</ele><time>2026-04-16T13:32:42.786Z</time></trkpt><trkpt lat="44.8695256" lon="9.4619869"><ele>565.5</ele><time>2026-04-16T13:32:43.786Z</time></trkpt><trkpt lat="44.8695264" lon="9.4618686"><ele>565.0</ele><time>2026-04-16T13:32:44.785Z</time></trkpt><trkpt lat="44.8695277" lon="9.4617573"><ele>564.5</ele><time>2026-04-16T13:32:45.785Z</time></trkpt><trkpt lat="44.8695322" lon="9.4616544"><ele>564.0</ele><time>2026-04-16T13:32:46.785Z</time></trkpt><trkpt lat="44.8695105" lon="9.4615057"><ele>563.5</ele><time>2026-04-16T13:32:48.785Z</time></trkpt><trkpt lat="44.8694381" lon="9.4614084"><ele>563.0</ele><time>2026-04-16T13:32:50.786Z</time></trkpt><trkpt lat="44.8693688" lon="9.4613641"><ele>563.0</ele><time>2026-04-16T13:32:51.785Z</time></trkpt><trkpt lat="44.8692984" lon="9.4613157"><ele>563.0</ele><time>2026-04-16T13:32:52.785Z</time></trkpt><trkpt lat="44.8692383" lon="9.4612588"><ele>563.0</ele><time>2026-04-16T13:32:53.786Z</time></trkpt><trkpt lat="44.8691801" lon="9.4612067"><ele>563.0</ele><time>2026-04-16T13:32:54.786Z</time></trkpt><trkpt lat="44.8691301" lon="9.4611348"><ele>563.0</ele><time>2026-04-16T13:32:55.785Z</time></trkpt><trkpt lat="44.8690814" lon="9.4610586"><ele>563.0</ele><time>2026-04-16T13:32:56.785Z</time></trkpt><trkpt lat="44.8690375" lon="9.4609673"><ele>563.0</ele><time>2026-04-16T13:32:57.785Z</time></trkpt><trkpt lat="44.8689995" lon="9.4608689"><ele>566.1666666666666</ele><time>2026-04-16T13:32:58.786Z</time></trkpt><trkpt lat="44.8689598" lon="9.4607612"><ele>569.3333333333333</ele><time>2026-04-16T13:32:59.786Z</time></trkpt><trkpt lat="44.8689229" lon="9.4606477"><ele>572.5</ele><time>2026-04-16T13:33:00.785Z</time></trkpt><trkpt lat="44.8688867" lon="9.4605265"><ele>575.6666666666666</ele><time>2026-04-16T13:33:01.786Z</time></trkpt><trkpt lat="44.8688591" lon="9.460398"><ele>578.8333333333334</ele><time>2026-04-16T13:33:02.785Z</time></trkpt><trkpt lat="44.8688482" lon="9.4602878"><ele>582.0</ele><time>2026-04-16T13:33:03.786Z</time></trkpt><trkpt lat="44.8688524" lon="9.4601714"><ele>582.0</ele><time>2026-04-16T13:33:04.786Z</time></trkpt><trkpt lat="44.8688591" lon="9.4600611"><ele>582.0</ele><time>2026-04-16T13:33:05.786Z</time></trkpt><trkpt lat="44.8688278" lon="9.4598944"><ele>582.0</ele><time>2026-04-16T13:33:07.786Z</time></trkpt><trkpt lat="44.8687917" lon="9.4598126"><ele>582.0</ele><time>2026-04-16T13:33:08.787Z</time></trkpt><trkpt lat="44.8687478" lon="9.4597221"><ele>582.0</ele><time>2026-04-16T13:33:09.786Z</time></trkpt><trkpt lat="44.8686967" lon="9.4596252"><ele>582.0</ele><time>2026-04-16T13:33:10.786Z</time></trkpt><trkpt lat="44.8686422" lon="9.4595369"><ele>582.3333333333334</ele><time>2026-04-16T13:33:11.785Z</time></trkpt><trkpt lat="44.8685837" lon="9.4594667"><ele>582.6666666666666</ele><time>2026-04-16T13:33:12.786Z</time></trkpt><trkpt lat="44.8685272" lon="9.4594234"><ele>583.0</ele><time>2026-04-16T13:33:13.785Z</time></trkpt><trkpt lat="44.8684659" lon="9.4593821"><ele>583.3333333333333</ele><time>2026-04-16T13:33:14.785Z</time></trkpt><trkpt lat="44.8683884" lon="9.4593493"><ele>583.6666666666666</ele><time>2026-04-16T13:33:15.787Z</time></trkpt><trkpt lat="44.8683138" lon="9.4593323"><ele>584.0</ele><time>2026-04-16T13:33:16.787Z</time></trkpt><trkpt lat="44.868211" lon="9.4592833"><ele>587.5</ele><time>2026-04-16T13:33:18.787Z</time></trkpt><trkpt lat="44.8681745" lon="9.4591832"><ele>591.0</ele><time>2026-04-16T13:33:20.785Z</time></trkpt><trkpt lat="44.8682261" lon="9.4590405"><ele>594.5</ele><time>2026-04-16T13:33:22.785Z</time></trkpt><trkpt lat="44.868262" lon="9.4589581"><ele>598.0</ele><time>2026-04-16T13:33:23.786Z</time></trkpt><trkpt lat="44.8683102" lon="9.4588722"><ele>601.5</ele><time>2026-04-16T13:33:24.785Z</time></trkpt><trkpt lat="44.8683613" lon="9.4587878"><ele>605.0</ele><time>2026-04-16T13:33:25.786Z</time></trkpt><trkpt lat="44.868407" lon="9.4587067"><ele>602.8571428571429</ele><time>2026-04-16T13:33:26.785Z</time></trkpt><trkpt lat="44.8684431" lon="9.4586195"><ele>600.7142857142858</ele><time>2026-04-16T13:33:27.787Z</time></trkpt><trkpt lat="44.8684659" lon="9.4585184"><ele>598.5714285714287</ele><time>2026-04-16T13:33:28.785Z</time></trkpt><trkpt lat="44.8684708" lon="9.4584127"><ele>596.4285714285714</ele><time>2026-04-16T13:33:29.785Z</time></trkpt><trkpt lat="44.8684772" lon="9.4583104"><ele>594.2857142857143</ele><time>2026-04-16T13:33:30.786Z</time></trkpt><trkpt lat="44.8685056" lon="9.4582219"><ele>592.1428571428572</ele><time>2026-04-16T13:33:31.786Z</time></trkpt><trkpt lat="44.8685511" lon="9.4581495"><ele>590.0</ele><time>2026-04-16T13:33:32.786Z</time></trkpt><trkpt lat="44.8686055" lon="9.4580878"><ele>591.0</ele><time>2026-04-16T13:33:33.786Z</time></trkpt><trkpt lat="44.8686803" lon="9.4579483"><ele>592.0</ele><time>2026-04-16T13:33:35.786Z</time></trkpt><trkpt lat="44.8686968" lon="9.4578601"><ele>593.0</ele><time>2026-04-16T13:33:36.786Z</time></trkpt><trkpt lat="44.8687013" lon="9.4577617"><ele>594.0</ele><time>2026-04-16T13:33:37.786Z</time></trkpt><trkpt lat="44.8687069" lon="9.4576537"><ele>595.0</ele><time>2026-04-16T13:33:38.785Z</time></trkpt><trkpt lat="44.8687347" lon="9.4575553"><ele>596.0</ele><time>2026-04-16T13:33:39.785Z</time></trkpt><trkpt lat="44.8687721" lon="9.4574655"><ele>596.0</ele><time>2026-04-16T13:33:40.786Z</time></trkpt><trkpt lat="44.8688061" lon="9.4573683"><ele>596.0</ele><time>2026-04-16T13:33:41.785Z</time></trkpt><trkpt lat="44.8688312" lon="9.4572627"><ele>596.0</ele><time>2026-04-16T13:33:42.785Z</time></trkpt><trkpt lat="44.8688604" lon="9.457152"><ele>596.0</ele><time>2026-04-16T13:33:43.786Z</time></trkpt><trkpt lat="44.8688949" lon="9.4570594"><ele>596.0</ele><time>2026-04-16T13:33:44.787Z</time></trkpt><trkpt lat="44.8689348" lon="9.4569695"><ele>596.0</ele><time>2026-04-16T13:33:45.786Z</time></trkpt><trkpt lat="44.86899" lon="9.4568855"><ele>595.1428571428571</ele><time>2026-04-16T13:33:46.786Z</time></trkpt><trkpt lat="44.8690469" lon="9.4568283"><ele>594.2857142857142</ele><time>2026-04-16T13:33:47.787Z</time></trkpt><trkpt lat="44.8691042" lon="9.456779"><ele>593.4285714285714</ele><time>2026-04-16T13:33:48.786Z</time></trkpt><trkpt lat="44.8691522" lon="9.456718"><ele>592.5714285714286</ele><time>2026-04-16T13:33:49.786Z</time></trkpt><trkpt lat="44.8691946" lon="9.4566438"><ele>591.7142857142858</ele><time>2026-04-16T13:33:50.786Z</time></trkpt><trkpt lat="44.869234" lon="9.4565546"><ele>590.8571428571429</ele><time>2026-04-16T13:33:51.787Z</time></trkpt><trkpt lat="44.8692619" lon="9.4564639"><ele>590.0</ele><time>2026-04-16T13:33:52.787Z</time></trkpt><trkpt lat="44.8692789" lon="9.4563705"><ele>591.1428571428572</ele><time>2026-04-16T13:33:53.787Z</time></trkpt><trkpt lat="44.8692954" lon="9.4562744"><ele>592.2857142857143</ele><time>2026-04-16T13:33:54.786Z</time></trkpt><trkpt lat="44.8693109" lon="9.4561717"><ele>593.4285714285714</ele><time>2026-04-16T13:33:55.787Z</time></trkpt><trkpt lat="44.8693234" lon="9.4560683"><ele>594.5714285714287</ele><time>2026-04-16T13:33:56.786Z</time></trkpt><trkpt lat="44.8693297" lon="9.4559634"><ele>595.7142857142858</ele><time>2026-04-16T13:33:57.786Z</time></trkpt><trkpt lat="44.8693339" lon="9.4558599"><ele>596.8571428571429</ele><time>2026-04-16T13:33:58.785Z</time></trkpt><trkpt lat="44.8693359" lon="9.4557582"><ele>598.0</ele><time>2026-04-16T13:33:59.785Z</time></trkpt><trkpt lat="44.8693348" lon="9.4556589"><ele>598.0</ele><time>2026-04-16T13:34:00.786Z</time></trkpt><trkpt lat="44.8693292" lon="9.4555554"><ele>598.0</ele><time>2026-04-16T13:34:01.786Z</time></trkpt><trkpt lat="44.869325" lon="9.455453"><ele>598.0</ele><time>2026-04-16T13:34:02.786Z</time></trkpt><trkpt lat="44.8693267" lon="9.45535"><ele>598.0</ele><time>2026-04-16T13:34:03.786Z</time></trkpt><trkpt lat="44.8693422" lon="9.4552563"><ele>598.0</ele><time>2026-04-16T13:34:04.786Z</time></trkpt><trkpt lat="44.8694128" lon="9.455116"><ele>598.0</ele><time>2026-04-16T13:34:06.786Z</time></trkpt><trkpt lat="44.8694684" lon="9.4550574"><ele>600.5</ele><time>2026-04-16T13:34:07.786Z</time></trkpt><trkpt lat="44.8695341" lon="9.4550083"><ele>603.0</ele><time>2026-04-16T13:34:08.786Z</time></trkpt><trkpt lat="44.8695956" lon="9.4549533"><ele>605.5</ele><time>2026-04-16T13:34:09.786Z</time></trkpt><trkpt lat="44.8696511" lon="9.454888"><ele>608.0</ele><time>2026-04-16T13:34:10.786Z</time></trkpt><trkpt lat="44.8697055" lon="9.454808"><ele>610.5</ele><time>2026-04-16T13:34:11.786Z</time></trkpt><trkpt lat="44.8697611" lon="9.4547284"><ele>613.0</ele><time>2026-04-16T13:34:12.786Z</time></trkpt><trkpt lat="44.869822" lon="9.4546677"><ele>613.0</ele><time>2026-04-16T13:34:13.785Z</time></trkpt><trkpt lat="44.869885" lon="9.4546302"><ele>613.0</ele><time>2026-04-16T13:34:14.785Z</time></trkpt><trkpt lat="44.8699448" lon="9.4545976"><ele>613.0</ele><time>2026-04-16T13:34:15.785Z</time></trkpt><trkpt lat="44.8700123" lon="9.4545115"><ele>613.0</ele><time>2026-04-16T13:34:17.784Z</time></trkpt><trkpt lat="44.8700306" lon="9.4544056"><ele>613.0</ele><time>2026-04-16T13:34:19.785Z</time></trkpt><trkpt lat="44.8700207" lon="9.4542534"><ele>613.0</ele><time>2026-04-16T13:34:21.784Z</time></trkpt><trkpt lat="44.8700263" lon="9.4540727"><ele>612.0</ele><time>2026-04-16T13:34:23.784Z</time></trkpt><trkpt lat="44.8700383" lon="9.4539821"><ele>611.0</ele><time>2026-04-16T13:34:24.785Z</time></trkpt><trkpt lat="44.8700591" lon="9.4538879"><ele>610.0</ele><time>2026-04-16T13:34:25.784Z</time></trkpt><trkpt lat="44.8700829" lon="9.4537976"><ele>609.0</ele><time>2026-04-16T13:34:26.785Z</time></trkpt><trkpt lat="44.8701154" lon="9.4536326"><ele>608.0</ele><time>2026-04-16T13:34:28.785Z</time></trkpt><trkpt lat="44.8700932" lon="9.4534658"><ele>607.0</ele><time>2026-04-16T13:34:30.784Z</time></trkpt><trkpt lat="44.8700637" lon="9.4533731"><ele>610.1666666666667</ele><time>2026-04-16T13:34:31.786Z</time></trkpt><trkpt lat="44.8700345" lon="9.4532737"><ele>613.3333333333334</ele><time>2026-04-16T13:34:32.784Z</time></trkpt><trkpt lat="44.8700105" lon="9.4531855"><ele>616.5</ele><time>2026-04-16T13:34:33.785Z</time></trkpt><trkpt lat="44.8699831" lon="9.4531041"><ele>619.6666666666666</ele><time>2026-04-16T13:34:34.784Z</time></trkpt><trkpt lat="44.8698995" lon="9.4529783"><ele>622.8333333333333</ele><time>2026-04-16T13:34:36.786Z</time></trkpt><trkpt lat="44.8698421" lon="9.4529123"><ele>626.0</ele><time>2026-04-16T13:34:37.785Z</time></trkpt><trkpt lat="44.86978" lon="9.452846"><ele>626.0</ele><time>2026-04-16T13:34:38.785Z</time></trkpt><trkpt lat="44.8697227" lon="9.4527747"><ele>626.0</ele><time>2026-04-16T13:34:39.784Z</time></trkpt><trkpt lat="44.869664" lon="9.4527004"><ele>626.0</ele><time>2026-04-16T13:34:40.786Z</time></trkpt><trkpt lat="44.8696" lon="9.4526169"><ele>626.0</ele><time>2026-04-16T13:34:41.785Z</time></trkpt><trkpt lat="44.8695295" lon="9.4525256"><ele>626.0</ele><time>2026-04-16T13:34:42.785Z</time></trkpt><trkpt lat="44.869463" lon="9.452439"><ele>626.0</ele><time>2026-04-16T13:34:43.785Z</time></trkpt><trkpt lat="44.8693997" lon="9.4523487"><ele>626.0</ele><time>2026-04-16T13:34:44.784Z</time></trkpt><trkpt lat="44.8693408" lon="9.4522501"><ele>626.0</ele><time>2026-04-16T13:34:45.785Z</time></trkpt><trkpt lat="44.8692893" lon="9.4521385"><ele>626.0</ele><time>2026-04-16T13:34:46.785Z</time></trkpt><trkpt lat="44.8692344" lon="9.4520243"><ele>626.0</ele><time>2026-04-16T13:34:47.784Z</time></trkpt><trkpt lat="44.8691751" lon="9.4519115"><ele>626.0</ele><time>2026-04-16T13:34:48.785Z</time></trkpt><trkpt lat="44.8691177" lon="9.4518084"><ele>625.6666666666666</ele><time>2026-04-16T13:34:49.785Z</time></trkpt><trkpt lat="44.8690671" lon="9.4517057"><ele>625.3333333333333</ele><time>2026-04-16T13:34:50.785Z</time></trkpt><trkpt lat="44.8690304" lon="9.4516"><ele>625.0</ele><time>2026-04-16T13:34:51.784Z</time></trkpt><trkpt lat="44.8690096" lon="9.4514967"><ele>624.6666666666666</ele><time>2026-04-16T13:34:52.785Z</time></trkpt><trkpt lat="44.8689958" lon="9.4514046"><ele>624.3333333333334</ele><time>2026-04-16T13:34:53.785Z</time></trkpt><trkpt lat="44.8689531" lon="9.4512625"><ele>624.0</ele><time>2026-04-16T13:34:55.785Z</time></trkpt><trkpt lat="44.8688644" lon="9.4511405"><ele>624.0</ele><time>2026-04-16T13:34:57.784Z</time></trkpt><trkpt lat="44.8688003" lon="9.4510803"><ele>624.0</ele><time>2026-04-16T13:34:58.785Z</time></trkpt><trkpt lat="44.8687288" lon="9.4510168"><ele>624.0</ele><time>2026-04-16T13:34:59.784Z</time></trkpt><trkpt lat="44.8686515" lon="9.4509538"><ele>624.0</ele><time>2026-04-16T13:35:00.784Z</time></trkpt><trkpt lat="44.8685769" lon="9.4508902"><ele>624.0</ele><time>2026-04-16T13:35:01.785Z</time></trkpt><trkpt lat="44.868508" lon="9.4508407"><ele>624.0</ele><time>2026-04-16T13:35:02.784Z</time></trkpt><trkpt lat="44.8684442" lon="9.4508089"><ele>625.6666666666666</ele><time>2026-04-16T13:35:03.785Z</time></trkpt><trkpt lat="44.8683586" lon="9.4507308"><ele>627.3333333333334</ele><time>2026-04-16T13:35:05.784Z</time></trkpt><trkpt lat="44.8683269" lon="9.4505768"><ele>629.0</ele><time>2026-04-16T13:35:07.785Z</time></trkpt><trkpt lat="44.868329" lon="9.450477"><ele>630.6666666666667</ele><time>2026-04-16T13:35:08.785Z</time></trkpt><trkpt lat="44.8683307" lon="9.450366"><ele>632.3333333333334</ele><time>2026-04-16T13:35:09.785Z</time></trkpt><trkpt lat="44.8683236" lon="9.4502547"><ele>634.0</ele><time>2026-04-16T13:35:10.785Z</time></trkpt><trkpt lat="44.8683107" lon="9.4501569"><ele>634.0</ele><time>2026-04-16T13:35:11.784Z</time></trkpt><trkpt lat="44.8682625" lon="9.4499923"><ele>634.0</ele><time>2026-04-16T13:35:13.784Z</time></trkpt><trkpt lat="44.8682204" lon="9.4499075"><ele>634.0</ele><time>2026-04-16T13:35:14.784Z</time></trkpt><trkpt lat="44.8681683" lon="9.4498253"><ele>634.0</ele><time>2026-04-16T13:35:15.785Z</time></trkpt><trkpt lat="44.8681114" lon="9.4497526"><ele>634.0</ele><time>2026-04-16T13:35:16.784Z</time></trkpt><trkpt lat="44.8680519" lon="9.4496898"><ele>634.0</ele><time>2026-04-16T13:35:17.785Z</time></trkpt><trkpt lat="44.8679846" lon="9.4496312"><ele>633.3333333333334</ele><time>2026-04-16T13:35:18.785Z</time></trkpt><trkpt lat="44.8679139" lon="9.4495763"><ele>632.6666666666667</ele><time>2026-04-16T13:35:19.784Z</time></trkpt><trkpt lat="44.8678471" lon="9.4495261"><ele>632.0</ele><time>2026-04-16T13:35:20.785Z</time></trkpt><trkpt lat="44.8677804" lon="9.449471"><ele>631.3333333333334</ele><time>2026-04-16T13:35:21.785Z</time></trkpt><trkpt lat="44.8677214" lon="9.4494134"><ele>630.6666666666666</ele><time>2026-04-16T13:35:22.784Z</time></trkpt><trkpt lat="44.8676717" lon="9.4493583"><ele>630.0</ele><time>2026-04-16T13:35:23.784Z</time></trkpt><trkpt lat="44.8675841" lon="9.4492897"><ele>632.4</ele><time>2026-04-16T13:35:25.785Z</time></trkpt><trkpt lat="44.8675165" lon="9.4493205"><ele>634.8</ele><time>2026-04-16T13:35:27.785Z</time></trkpt><trkpt lat="44.8674758" lon="9.4494274"><ele>637.2</ele><time>2026-04-16T13:35:29.785Z</time></trkpt><trkpt lat="44.8674308" lon="9.449558"><ele>639.6</ele><time>2026-04-16T13:35:31.786Z</time></trkpt><trkpt lat="44.8673637" lon="9.4496903"><ele>642.0</ele><time>2026-04-16T13:35:33.785Z</time></trkpt><trkpt lat="44.8673119" lon="9.4498428"><ele>642.6666666666666</ele><time>2026-04-16T13:35:35.786Z</time></trkpt><trkpt lat="44.8672822" lon="9.4499313"><ele>643.3333333333334</ele><time>2026-04-16T13:35:36.785Z</time></trkpt><trkpt lat="44.8672479" lon="9.4500298"><ele>644.0</ele><time>2026-04-16T13:35:37.785Z</time></trkpt><trkpt lat="44.8672125" lon="9.4501315"><ele>644.6666666666667</ele><time>2026-04-16T13:35:38.784Z</time></trkpt><trkpt lat="44.8671775" lon="9.4502349"><ele>645.3333333333334</ele><time>2026-04-16T13:35:39.785Z</time></trkpt><trkpt lat="44.86714" lon="9.4503446"><ele>646.0</ele><time>2026-04-16T13:35:40.784Z</time></trkpt><trkpt lat="44.8671028" lon="9.4504584"><ele>646.8333333333334</ele><time>2026-04-16T13:35:41.784Z</time></trkpt><trkpt lat="44.8670692" lon="9.4505727"><ele>647.6666666666667</ele><time>2026-04-16T13:35:42.786Z</time></trkpt><trkpt lat="44.8670354" lon="9.450683"><ele>648.5</ele><time>2026-04-16T13:35:43.785Z</time></trkpt><trkpt lat="44.8670026" lon="9.4507891"><ele>649.3333333333334</ele><time>2026-04-16T13:35:44.784Z</time></trkpt><trkpt lat="44.8669729" lon="9.4508931"><ele>650.1666666666666</ele><time>2026-04-16T13:35:45.785Z</time></trkpt><trkpt lat="44.8669415" lon="9.450994"><ele>651.0</ele><time>2026-04-16T13:35:46.785Z</time></trkpt><trkpt lat="44.866908" lon="9.4510929"><ele>651.0</ele><time>2026-04-16T13:35:47.786Z</time></trkpt><trkpt lat="44.8668701" lon="9.4511865"><ele>651.0</ele><time>2026-04-16T13:35:48.785Z</time></trkpt><trkpt lat="44.8668263" lon="9.4512739"><ele>651.0</ele><time>2026-04-16T13:35:49.784Z</time></trkpt><trkpt lat="44.8667793" lon="9.4513575"><ele>651.0</ele><time>2026-04-16T13:35:50.784Z</time></trkpt><trkpt lat="44.8667293" lon="9.4514408"><ele>651.0</ele><time>2026-04-16T13:35:51.785Z</time></trkpt><trkpt lat="44.8666782" lon="9.4515263"><ele>651.0</ele><time>2026-04-16T13:35:52.785Z</time></trkpt><trkpt lat="44.8666254" lon="9.4516116"><ele>653.5</ele><time>2026-04-16T13:35:53.784Z</time></trkpt><trkpt lat="44.8665695" lon="9.4516932"><ele>656.0</ele><time>2026-04-16T13:35:54.785Z</time></trkpt><trkpt lat="44.8665117" lon="9.4517725"><ele>658.5</ele><time>2026-04-16T13:35:55.785Z</time></trkpt><trkpt lat="44.8664537" lon="9.4518547"><ele>661.0</ele><time>2026-04-16T13:35:56.784Z</time></trkpt><trkpt lat="44.8663954" lon="9.4519386"><ele>663.5</ele><time>2026-04-16T13:35:57.785Z</time></trkpt><trkpt lat="44.8663416" lon="9.4520242"><ele>666.0</ele><time>2026-04-16T13:35:58.785Z</time></trkpt><trkpt lat="44.8662934" lon="9.4521101"><ele>667.8333333333334</ele><time>2026-04-16T13:35:59.784Z</time></trkpt><trkpt lat="44.8662479" lon="9.4521986"><ele>669.6666666666666</ele><time>2026-04-16T13:36:00.785Z</time></trkpt><trkpt lat="44.8662005" lon="9.4522835"><ele>671.5</ele><time>2026-04-16T13:36:01.785Z</time></trkpt><trkpt lat="44.8661424" lon="9.4523532"><ele>673.3333333333333</ele><time>2026-04-16T13:36:02.785Z</time></trkpt><trkpt lat="44.8660744" lon="9.4523995"><ele>675.1666666666666</ele><time>2026-04-16T13:36:03.785Z</time></trkpt><trkpt lat="44.8660025" lon="9.4524372"><ele>677.0</ele><time>2026-04-16T13:36:04.784Z</time></trkpt><trkpt lat="44.8659277" lon="9.4524751"><ele>678.4000000000001</ele><time>2026-04-16T13:36:05.785Z</time></trkpt><trkpt lat="44.8658512" lon="9.4525157"><ele>679.8000000000001</ele><time>2026-04-16T13:36:06.784Z</time></trkpt><trkpt lat="44.8657677" lon="9.4525548"><ele>681.2</ele><time>2026-04-16T13:36:07.785Z</time></trkpt><trkpt lat="44.8656783" lon="9.4525946"><ele>682.6</ele><time>2026-04-16T13:36:08.785Z</time></trkpt><trkpt lat="44.8655863" lon="9.452633"><ele>684.0</ele><time>2026-04-16T13:36:09.785Z</time></trkpt><trkpt lat="44.8654985" lon="9.4526707"><ele>684.0</ele><time>2026-04-16T13:36:10.784Z</time></trkpt><trkpt lat="44.8654184" lon="9.4527107"><ele>684.0</ele><time>2026-04-16T13:36:11.785Z</time></trkpt><trkpt lat="44.8653467" lon="9.4527624"><ele>684.0</ele><time>2026-04-16T13:36:12.785Z</time></trkpt><trkpt lat="44.8652772" lon="9.452826"><ele>684.0</ele><time>2026-04-16T13:36:13.785Z</time></trkpt><trkpt lat="44.8652085" lon="9.452904"><ele>684.0</ele><time>2026-04-16T13:36:14.784Z</time></trkpt><trkpt lat="44.8651436" lon="9.4529914"><ele>684.0</ele><time>2026-04-16T13:36:15.785Z</time></trkpt><trkpt lat="44.8650835" lon="9.4530801"><ele>686.3333333333334</ele><time>2026-04-16T13:36:16.785Z</time></trkpt><trkpt lat="44.8650237" lon="9.453163"><ele>688.6666666666666</ele><time>2026-04-16T13:36:17.785Z</time></trkpt><trkpt lat="44.864961" lon="9.4532377"><ele>691.0</ele><time>2026-04-16T13:36:18.785Z</time></trkpt><trkpt lat="44.8648956" lon="9.4533035"><ele>693.3333333333333</ele><time>2026-04-16T13:36:19.784Z</time></trkpt><trkpt lat="44.8648283" lon="9.4533597"><ele>695.6666666666666</ele><time>2026-04-16T13:36:20.785Z</time></trkpt><trkpt lat="44.8647612" lon="9.4533997"><ele>698.0</ele><time>2026-04-16T13:36:21.784Z</time></trkpt><trkpt lat="44.8646985" lon="9.4534313"><ele>698.0</ele><time>2026-04-16T13:36:22.784Z</time></trkpt><trkpt lat="44.8646024" lon="9.4534899"><ele>698.0</ele><time>2026-04-16T13:36:24.786Z</time></trkpt><trkpt lat="44.8645204" lon="9.4535889"><ele>698.0</ele><time>2026-04-16T13:36:26.785Z</time></trkpt><trkpt lat="44.8644276" lon="9.4537162"><ele>698.0</ele><time>2026-04-16T13:36:28.785Z</time></trkpt><trkpt lat="44.864374" lon="9.4537853"><ele>698.0</ele><time>2026-04-16T13:36:29.785Z</time></trkpt><trkpt lat="44.8643189" lon="9.4538508"><ele>701.0</ele><time>2026-04-16T13:36:30.785Z</time></trkpt><trkpt lat="44.8642637" lon="9.4539097"><ele>704.0</ele><time>2026-04-16T13:36:31.785Z</time></trkpt><trkpt lat="44.864208" lon="9.4539627"><ele>707.0</ele><time>2026-04-16T13:36:32.785Z</time></trkpt><trkpt lat="44.8641553" lon="9.4540141"><ele>710.0</ele><time>2026-04-16T13:36:33.785Z</time></trkpt><trkpt lat="44.864043" lon="9.4540949"><ele>713.0</ele><time>2026-04-16T13:36:35.786Z</time></trkpt><trkpt lat="44.8639788" lon="9.4541315"><ele>716.0</ele><time>2026-04-16T13:36:36.785Z</time></trkpt><trkpt lat="44.8639111" lon="9.4541785"><ele>716.0000000000001</ele><time>2026-04-16T13:36:37.785Z</time></trkpt><trkpt lat="44.8638446" lon="9.4542314"><ele>716.0</ele><time>2026-04-16T13:36:38.784Z</time></trkpt><trkpt lat="44.8637801" lon="9.4542838"><ele>716.0</ele><time>2026-04-16T13:36:39.785Z</time></trkpt><trkpt lat="44.8637226" lon="9.4543403"><ele>716.0</ele><time>2026-04-16T13:36:40.784Z</time></trkpt><trkpt lat="44.863664" lon="9.4543988"><ele>716.0</ele><time>2026-04-16T13:36:41.785Z</time></trkpt><trkpt lat="44.863599" lon="9.4544516"><ele>716.0000000000001</ele><time>2026-04-16T13:36:42.785Z</time></trkpt><trkpt lat="44.8635276" lon="9.4544939"><ele>716.0</ele><time>2026-04-16T13:36:43.784Z</time></trkpt><trkpt lat="44.8634564" lon="9.4545402"><ele>715.3333333333333</ele><time>2026-04-16T13:36:44.785Z</time></trkpt><trkpt lat="44.8633844" lon="9.4545899"><ele>714.6666666666666</ele><time>2026-04-16T13:36:45.785Z</time></trkpt><trkpt lat="44.8633108" lon="9.4546469"><ele>714.0</ele><time>2026-04-16T13:36:46.785Z</time></trkpt><trkpt lat="44.8632392" lon="9.4547134"><ele>713.3333333333334</ele><time>2026-04-16T13:36:47.785Z</time></trkpt><trkpt lat="44.8631666" lon="9.4547828"><ele>712.6666666666667</ele><time>2026-04-16T13:36:48.785Z</time></trkpt><trkpt lat="44.8630979" lon="9.454854"><ele>712.0</ele><time>2026-04-16T13:36:49.785Z</time></trkpt><trkpt lat="44.8630365" lon="9.4549271"><ele>714.6666666666667</ele><time>2026-04-16T13:36:50.785Z</time></trkpt><trkpt lat="44.8629874" lon="9.4550059"><ele>717.3333333333334</ele><time>2026-04-16T13:36:51.784Z</time></trkpt><trkpt lat="44.8629456" lon="9.4550911"><ele>720.0</ele><time>2026-04-16T13:36:52.784Z</time></trkpt><trkpt lat="44.8629039" lon="9.4551795"><ele>722.6666666666666</ele><time>2026-04-16T13:36:53.785Z</time></trkpt><trkpt lat="44.8628622" lon="9.455274"><ele>725.3333333333333</ele><time>2026-04-16T13:36:54.785Z</time></trkpt><trkpt lat="44.8628179" lon="9.4553688"><ele>728.0</ele><time>2026-04-16T13:36:55.784Z</time></trkpt><trkpt lat="44.8627692" lon="9.4554601"><ele>729.0</ele><time>2026-04-16T13:36:56.784Z</time></trkpt><trkpt lat="44.8627121" lon="9.4555448"><ele>730.0</ele><time>2026-04-16T13:36:57.785Z</time></trkpt><trkpt lat="44.8626477" lon="9.4556114"><ele>731.0</ele><time>2026-04-16T13:36:58.785Z</time></trkpt><trkpt lat="44.8625755" lon="9.4556575"><ele>732.0</ele><time>2026-04-16T13:36:59.785Z</time></trkpt><trkpt lat="44.8624958" lon="9.4556898"><ele>733.0</ele><time>2026-04-16T13:37:00.785Z</time></trkpt><trkpt lat="44.8624098" lon="9.4557134"><ele>734.0</ele><time>2026-04-16T13:37:01.784Z</time></trkpt><trkpt lat="44.8623233" lon="9.4557395"><ele>735.1666666666666</ele><time>2026-04-16T13:37:02.784Z</time></trkpt><trkpt lat="44.8622492" lon="9.4557835"><ele>736.3333333333333</ele><time>2026-04-16T13:37:03.785Z</time></trkpt><trkpt lat="44.8621826" lon="9.4558457"><ele>737.5</ele><time>2026-04-16T13:37:04.785Z</time></trkpt><trkpt lat="44.8621241" lon="9.4559263"><ele>738.6666666666666</ele><time>2026-04-16T13:37:05.784Z</time></trkpt><trkpt lat="44.8620714" lon="9.4560226"><ele>739.8333333333334</ele><time>2026-04-16T13:37:06.785Z</time></trkpt><trkpt lat="44.8620245" lon="9.4561256"><ele>741.0</ele><time>2026-04-16T13:37:07.784Z</time></trkpt><trkpt lat="44.8619769" lon="9.4562262"><ele>741.0</ele><time>2026-04-16T13:37:08.784Z</time></trkpt><trkpt lat="44.8619303" lon="9.4563141"><ele>741.0</ele><time>2026-04-16T13:37:09.785Z</time></trkpt><trkpt lat="44.8618809" lon="9.4563847"><ele>741.0</ele><time>2026-04-16T13:37:10.784Z</time></trkpt><trkpt lat="44.8618204" lon="9.4564356"><ele>741.0</ele><time>2026-04-16T13:37:11.784Z</time></trkpt><trkpt lat="44.8617468" lon="9.4564621"><ele>741.0</ele><time>2026-04-16T13:37:12.785Z</time></trkpt><trkpt lat="44.8616629" lon="9.4564606"><ele>741.0</ele><time>2026-04-16T13:37:13.785Z</time></trkpt><trkpt lat="44.861573" lon="9.4564341"><ele>741.0</ele><time>2026-04-16T13:37:14.785Z</time></trkpt><trkpt lat="44.8614854" lon="9.4563927"><ele>741.0</ele><time>2026-04-16T13:37:15.785Z</time></trkpt><trkpt lat="44.8613996" lon="9.4563713"><ele>741.0</ele><time>2026-04-16T13:37:16.785Z</time></trkpt><trkpt lat="44.8613167" lon="9.4563728"><ele>741.0</ele><time>2026-04-16T13:37:17.785Z</time></trkpt><trkpt lat="44.8612409" lon="9.4563785"><ele>741.0</ele><time>2026-04-16T13:37:18.784Z</time></trkpt><trkpt lat="44.8611725" lon="9.4563712"><ele>741.0</ele><time>2026-04-16T13:37:19.785Z</time></trkpt><trkpt lat="44.8610801" lon="9.4563373"><ele>741.0</ele><time>2026-04-16T13:37:21.786Z</time></trkpt><trkpt lat="44.8610115" lon="9.4563569"><ele>741.0</ele><time>2026-04-16T13:37:24.785Z</time></trkpt><trkpt lat="44.8609489" lon="9.456407"><ele>741.0</ele><time>2026-04-16T13:37:26.785Z</time></trkpt><trkpt lat="44.860846" lon="9.4564755"><ele>741.0</ele><time>2026-04-16T13:37:28.784Z</time></trkpt><trkpt lat="44.8607871" lon="9.4565094"><ele>741.0</ele><time>2026-04-16T13:37:29.785Z</time></trkpt><trkpt lat="44.860727" lon="9.4565433"><ele>741.0</ele><time>2026-04-16T13:37:30.785Z</time></trkpt><trkpt lat="44.8606653" lon="9.4565788"><ele>741.0</ele><time>2026-04-16T13:37:31.784Z</time></trkpt><trkpt lat="44.8606014" lon="9.4566109"><ele>741.0</ele><time>2026-04-16T13:37:32.785Z</time></trkpt><trkpt lat="44.8605357" lon="9.4566381"><ele>741.0</ele><time>2026-04-16T13:37:33.784Z</time></trkpt><trkpt lat="44.8604677" lon="9.4566648"><ele>741.0</ele><time>2026-04-16T13:37:34.785Z</time></trkpt><trkpt lat="44.8603985" lon="9.4566989"><ele>741.0</ele><time>2026-04-16T13:37:35.784Z</time></trkpt><trkpt lat="44.8603321" lon="9.4567374"><ele>741.0</ele><time>2026-04-16T13:37:36.784Z</time></trkpt><trkpt lat="44.860268" lon="9.4567749"><ele>741.0</ele><time>2026-04-16T13:37:37.784Z</time></trkpt><trkpt lat="44.8601992" lon="9.4568062"><ele>741.0</ele><time>2026-04-16T13:37:38.785Z</time></trkpt><trkpt lat="44.860128" lon="9.45683"><ele>741.0</ele><time>2026-04-16T13:37:39.785Z</time></trkpt><trkpt lat="44.8600597" lon="9.4568477"><ele>741.0</ele><time>2026-04-16T13:37:40.784Z</time></trkpt><trkpt lat="44.8599957" lon="9.4568813"><ele>741.0</ele><time>2026-04-16T13:37:41.785Z</time></trkpt><trkpt lat="44.8599357" lon="9.4569319"><ele>741.0</ele><time>2026-04-16T13:37:42.785Z</time></trkpt><trkpt lat="44.8598753" lon="9.4569949"><ele>741.0</ele><time>2026-04-16T13:37:43.784Z</time></trkpt><trkpt lat="44.8598145" lon="9.4570496"><ele>741.0</ele><time>2026-04-16T13:37:44.785Z</time></trkpt><trkpt lat="44.8597537" lon="9.4571026"><ele>739.0</ele><time>2026-04-16T13:37:45.785Z</time></trkpt><trkpt lat="44.8596948" lon="9.4571519"><ele>737.0</ele><time>2026-04-16T13:37:46.784Z</time></trkpt><trkpt lat="44.8596374" lon="9.4572005"><ele>735.0</ele><time>2026-04-16T13:37:47.786Z</time></trkpt><trkpt lat="44.8595848" lon="9.4572527"><ele>733.0</ele><time>2026-04-16T13:37:48.784Z</time></trkpt><trkpt lat="44.8594904" lon="9.4573833"><ele>731.0</ele><time>2026-04-16T13:37:50.785Z</time></trkpt><trkpt lat="44.8594448" lon="9.4574602"><ele>729.0</ele><time>2026-04-16T13:37:51.785Z</time></trkpt><trkpt lat="44.8594047" lon="9.457536"><ele>729.0</ele><time>2026-04-16T13:37:52.784Z</time></trkpt><trkpt lat="44.859369" lon="9.4576098"><ele>729.0</ele><time>2026-04-16T13:37:53.785Z</time></trkpt><trkpt lat="44.8593008" lon="9.4577469"><ele>729.0</ele><time>2026-04-16T13:37:55.785Z</time></trkpt><trkpt lat="44.8592253" lon="9.4578628"><ele>729.0</ele><time>2026-04-16T13:37:57.784Z</time></trkpt><trkpt lat="44.8591298" lon="9.4579672"><ele>729.0</ele><time>2026-04-16T13:37:59.784Z</time></trkpt><trkpt lat="44.8590195" lon="9.4580591"><ele>728.1666666666666</ele><time>2026-04-16T13:38:01.784Z</time></trkpt><trkpt lat="44.8589607" lon="9.4581119"><ele>727.3333333333334</ele><time>2026-04-16T13:38:02.785Z</time></trkpt><trkpt lat="44.8589064" lon="9.458169"><ele>726.5</ele><time>2026-04-16T13:38:03.785Z</time></trkpt><trkpt lat="44.8588578" lon="9.45823"><ele>725.6666666666667</ele><time>2026-04-16T13:38:04.785Z</time></trkpt><trkpt lat="44.8587705" lon="9.4583594"><ele>724.8333333333334</ele><time>2026-04-16T13:38:06.786Z</time></trkpt><trkpt lat="44.8587274" lon="9.4584296"><ele>724.0</ele><time>2026-04-16T13:38:07.784Z</time></trkpt><trkpt lat="44.8586838" lon="9.4584988"><ele>724.0</ele><time>2026-04-16T13:38:08.784Z</time></trkpt><trkpt lat="44.8586372" lon="9.4585691"><ele>724.0</ele><time>2026-04-16T13:38:09.784Z</time></trkpt><trkpt lat="44.8585899" lon="9.4586427"><ele>724.0</ele><time>2026-04-16T13:38:10.786Z</time></trkpt><trkpt lat="44.8585438" lon="9.4587148"><ele>724.0</ele><time>2026-04-16T13:38:11.786Z</time></trkpt><trkpt lat="44.8584997" lon="9.4587842"><ele>724.0</ele><time>2026-04-16T13:38:12.785Z</time></trkpt><trkpt lat="44.8584563" lon="9.4588526"><ele>724.0</ele><time>2026-04-16T13:38:13.785Z</time></trkpt><trkpt lat="44.8584159" lon="9.4589209"><ele>724.0</ele><time>2026-04-16T13:38:14.786Z</time></trkpt><trkpt lat="44.8583371" lon="9.4590621"><ele>722.4000000000001</ele><time>2026-04-16T13:38:16.785Z</time></trkpt><trkpt lat="44.8582675" lon="9.4592007"><ele>720.8</ele><time>2026-04-16T13:38:18.785Z</time></trkpt><trkpt lat="44.858212" lon="9.4593305"><ele>719.2</ele><time>2026-04-16T13:38:20.784Z</time></trkpt><trkpt lat="44.8581502" lon="9.4594582"><ele>717.5999999999999</ele><time>2026-04-16T13:38:22.786Z</time></trkpt><trkpt lat="44.858104" lon="9.4595276"><ele>716.0</ele><time>2026-04-16T13:38:23.785Z</time></trkpt><trkpt lat="44.8580494" lon="9.4595917"><ele>714.0000000000001</ele><time>2026-04-16T13:38:24.784Z</time></trkpt><trkpt lat="44.8579896" lon="9.4596542"><ele>712.0</ele><time>2026-04-16T13:38:25.785Z</time></trkpt><trkpt lat="44.8579306" lon="9.4597107"><ele>710.0</ele><time>2026-04-16T13:38:26.785Z</time></trkpt><trkpt lat="44.8578738" lon="9.4597675"><ele>708.0</ele><time>2026-04-16T13:38:27.784Z</time></trkpt><trkpt lat="44.85782" lon="9.4598269"><ele>706.0</ele><time>2026-04-16T13:38:28.784Z</time></trkpt><trkpt lat="44.8577659" lon="9.4598846"><ele>704.0000000000001</ele><time>2026-04-16T13:38:29.786Z</time></trkpt><trkpt lat="44.8577059" lon="9.459945"><ele>702.0</ele><time>2026-04-16T13:38:30.785Z</time></trkpt><trkpt lat="44.8576426" lon="9.4600056"><ele>703.2</ele><time>2026-04-16T13:38:31.784Z</time></trkpt><trkpt lat="44.8575775" lon="9.4600605"><ele>704.4000000000001</ele><time>2026-04-16T13:38:32.786Z</time></trkpt><trkpt lat="44.8575162" lon="9.4601158"><ele>705.5999999999999</ele><time>2026-04-16T13:38:33.786Z</time></trkpt><trkpt lat="44.8574575" lon="9.4601737"><ele>706.8</ele><time>2026-04-16T13:38:34.785Z</time></trkpt><trkpt lat="44.8573641" lon="9.4602857"><ele>708.0</ele><time>2026-04-16T13:38:36.785Z</time></trkpt><trkpt lat="44.8572803" lon="9.4603991"><ele>705.2</ele><time>2026-04-16T13:38:38.784Z</time></trkpt><trkpt lat="44.8572181" lon="9.4605306"><ele>702.4</ele><time>2026-04-16T13:38:40.785Z</time></trkpt><trkpt lat="44.8571787" lon="9.4606663"><ele>699.6</ele><time>2026-04-16T13:38:42.785Z</time></trkpt><trkpt lat="44.8571478" lon="9.4607902"><ele>696.8000000000001</ele><time>2026-04-16T13:38:44.785Z</time></trkpt><trkpt lat="44.8571135" lon="9.4608979"><ele>694.0</ele><time>2026-04-16T13:38:46.785Z</time></trkpt><trkpt lat="44.8570794" lon="9.4610088"><ele>694.0</ele><time>2026-04-16T13:38:48.785Z</time></trkpt><trkpt lat="44.8570281" lon="9.4611221"><ele>694.0</ele><time>2026-04-16T13:38:50.785Z</time></trkpt><trkpt lat="44.8569752" lon="9.4612542"><ele>694.0</ele><time>2026-04-16T13:38:52.785Z</time></trkpt><trkpt lat="44.8569328" lon="9.461381"><ele>694.0</ele><time>2026-04-16T13:38:54.785Z</time></trkpt><trkpt lat="44.8568788" lon="9.4615235"><ele>694.0</ele><time>2026-04-16T13:38:56.785Z</time></trkpt><trkpt lat="44.8568484" lon="9.4616038"><ele>692.3333333333334</ele><time>2026-04-16T13:38:57.784Z</time></trkpt><trkpt lat="44.8568183" lon="9.4616895"><ele>690.6666666666667</ele><time>2026-04-16T13:38:58.785Z</time></trkpt><trkpt lat="44.8567904" lon="9.4617737"><ele>689.0</ele><time>2026-04-16T13:38:59.784Z</time></trkpt><trkpt lat="44.8567604" lon="9.4618543"><ele>687.3333333333334</ele><time>2026-04-16T13:39:00.784Z</time></trkpt><trkpt lat="44.8566927" lon="9.4620019"><ele>685.6666666666666</ele><time>2026-04-16T13:39:02.785Z</time></trkpt><trkpt lat="44.8566522" lon="9.4620746"><ele>684.0</ele><time>2026-04-16T13:39:03.785Z</time></trkpt><trkpt lat="44.8566157" lon="9.4621474"><ele>682.6666666666666</ele><time>2026-04-16T13:39:04.784Z</time></trkpt><trkpt lat="44.8565644" lon="9.4622803"><ele>681.3333333333334</ele><time>2026-04-16T13:39:06.785Z</time></trkpt><trkpt lat="44.8565399" lon="9.4624087"><ele>680.0</ele><time>2026-04-16T13:39:08.784Z</time></trkpt><trkpt lat="44.856519" lon="9.462509"><ele>678.6666666666667</ele><time>2026-04-16T13:39:10.785Z</time></trkpt><trkpt lat="44.8565021" lon="9.4626172"><ele>677.3333333333334</ele><time>2026-04-16T13:39:12.785Z</time></trkpt><trkpt lat="44.8564875" lon="9.4627331"><ele>676.0</ele><time>2026-04-16T13:39:14.784Z</time></trkpt><trkpt lat="44.8564584" lon="9.4628345"><ele>676.0</ele><time>2026-04-16T13:39:17.784Z</time></trkpt><trkpt lat="44.8563834" lon="9.4627765"><ele>676.0</ele><time>2026-04-16T13:39:21.784Z</time></trkpt><trkpt lat="44.856326" lon="9.4626226"><ele>676.0</ele><time>2026-04-16T13:39:23.784Z</time></trkpt><trkpt lat="44.8562918" lon="9.4625424"><ele>676.0</ele><time>2026-04-16T13:39:24.786Z</time></trkpt><trkpt lat="44.8562456" lon="9.4624481"><ele>676.0</ele><time>2026-04-16T13:39:25.785Z</time></trkpt><trkpt lat="44.8561987" lon="9.4623539"><ele>676.0</ele><time>2026-04-16T13:39:26.784Z</time></trkpt><trkpt lat="44.8561501" lon="9.4622543"><ele>676.0</ele><time>2026-04-16T13:39:27.784Z</time></trkpt><trkpt lat="44.8561039" lon="9.4621567"><ele>676.0</ele><time>2026-04-16T13:39:28.785Z</time></trkpt><trkpt lat="44.8560548" lon="9.4620565"><ele>676.0</ele><time>2026-04-16T13:39:29.784Z</time></trkpt><trkpt lat="44.856004" lon="9.4619562"><ele>676.0</ele><time>2026-04-16T13:39:30.785Z</time></trkpt><trkpt lat="44.8559464" lon="9.4618494"><ele>676.0</ele><time>2026-04-16T13:39:31.784Z</time></trkpt><trkpt lat="44.855881" lon="9.4617392"><ele>676.25</ele><time>2026-04-16T13:39:32.785Z</time></trkpt><trkpt lat="44.8558088" lon="9.4616215"><ele>676.5</ele><time>2026-04-16T13:39:33.784Z</time></trkpt><trkpt lat="44.8557349" lon="9.4614989"><ele>676.75</ele><time>2026-04-16T13:39:34.785Z</time></trkpt><trkpt lat="44.8556604" lon="9.4613717"><ele>677.0</ele><time>2026-04-16T13:39:35.785Z</time></trkpt><trkpt lat="44.8555827" lon="9.4612393"><ele>679.0</ele><time>2026-04-16T13:39:36.784Z</time></trkpt><trkpt lat="44.8555037" lon="9.4611106"><ele>681.0</ele><time>2026-04-16T13:39:37.785Z</time></trkpt><trkpt lat="44.8554196" lon="9.4609893"><ele>683.0</ele><time>2026-04-16T13:39:38.785Z</time></trkpt><trkpt lat="44.855334" lon="9.4608733"><ele>685.0</ele><time>2026-04-16T13:39:39.785Z</time></trkpt><trkpt lat="44.8552507" lon="9.4607616"><ele>685.0</ele><time>2026-04-16T13:39:40.786Z</time></trkpt><trkpt lat="44.8551724" lon="9.460645"><ele>685.0</ele><time>2026-04-16T13:39:41.785Z</time></trkpt><trkpt lat="44.8551089" lon="9.4605184"><ele>685.0</ele><time>2026-04-16T13:39:42.784Z</time></trkpt><trkpt lat="44.8550468" lon="9.4603909"><ele>685.0</ele><time>2026-04-16T13:39:43.785Z</time></trkpt><trkpt lat="44.8549769" lon="9.4602754"><ele>685.0</ele><time>2026-04-16T13:39:44.785Z</time></trkpt><trkpt lat="44.8549019" lon="9.4601677"><ele>684.4</ele><time>2026-04-16T13:39:45.785Z</time></trkpt><trkpt lat="44.8548368" lon="9.4600615"><ele>683.8</ele><time>2026-04-16T13:39:46.785Z</time></trkpt><trkpt lat="44.8547806" lon="9.4599592"><ele>683.2</ele><time>2026-04-16T13:39:47.786Z</time></trkpt><trkpt lat="44.8547095" lon="9.459873"><ele>682.6</ele><time>2026-04-16T13:39:48.785Z</time></trkpt><trkpt lat="44.8546269" lon="9.4598214"><ele>682.0</ele><time>2026-04-16T13:39:49.785Z</time></trkpt><trkpt lat="44.8545332" lon="9.4597963"><ele>682.0</ele><time>2026-04-16T13:39:50.785Z</time></trkpt><trkpt lat="44.8544318" lon="9.4597629"><ele>682.0</ele><time>2026-04-16T13:39:51.784Z</time></trkpt><trkpt lat="44.8543186" lon="9.4597176"><ele>682.0</ele><time>2026-04-16T13:39:52.784Z</time></trkpt><trkpt lat="44.8542071" lon="9.4596749"><ele>682.0</ele><time>2026-04-16T13:39:53.786Z</time></trkpt><trkpt lat="44.854098" lon="9.4596353"><ele>683.8</ele><time>2026-04-16T13:39:54.784Z</time></trkpt><trkpt lat="44.8539975" lon="9.4595958"><ele>685.6</ele><time>2026-04-16T13:39:55.786Z</time></trkpt><trkpt lat="44.8539083" lon="9.4595406"><ele>687.4</ele><time>2026-04-16T13:39:56.785Z</time></trkpt><trkpt lat="44.8538332" lon="9.4594577"><ele>689.1999999999999</ele><time>2026-04-16T13:39:57.785Z</time></trkpt><trkpt lat="44.8537786" lon="9.4593481"><ele>691.0</ele><time>2026-04-16T13:39:58.785Z</time></trkpt><trkpt lat="44.8537294" lon="9.4592142"><ele>691.0</ele><time>2026-04-16T13:39:59.785Z</time></trkpt><trkpt lat="44.8536777" lon="9.4590772"><ele>691.0</ele><time>2026-04-16T13:40:00.785Z</time></trkpt><trkpt lat="44.8536117" lon="9.4589444"><ele>691.0</ele><time>2026-04-16T13:40:01.784Z</time></trkpt><trkpt lat="44.8535296" lon="9.4588269"><ele>691.0</ele><time>2026-04-16T13:40:02.785Z</time></trkpt><trkpt lat="44.8534329" lon="9.4587322"><ele>690.0</ele><time>2026-04-16T13:40:03.784Z</time></trkpt><trkpt lat="44.8533173" lon="9.4586589"><ele>689.0</ele><time>2026-04-16T13:40:04.784Z</time></trkpt><trkpt lat="44.8531917" lon="9.4585889"><ele>688.0</ele><time>2026-04-16T13:40:05.784Z</time></trkpt><trkpt lat="44.8530668" lon="9.4585157"><ele>687.0</ele><time>2026-04-16T13:40:06.784Z</time></trkpt><trkpt lat="44.8529475" lon="9.45844"><ele>687.0</ele><time>2026-04-16T13:40:07.784Z</time></trkpt><trkpt lat="44.852837" lon="9.4583639"><ele>687.0</ele><time>2026-04-16T13:40:08.785Z</time></trkpt><trkpt lat="44.8527248" lon="9.4582902"><ele>687.0</ele><time>2026-04-16T13:40:09.785Z</time></trkpt><trkpt lat="44.8526109" lon="9.4582267"><ele>687.0</ele><time>2026-04-16T13:40:10.786Z</time></trkpt><trkpt lat="44.8524974" lon="9.4581711"><ele>687.25</ele><time>2026-04-16T13:40:11.785Z</time></trkpt><trkpt lat="44.8523845" lon="9.4581051"><ele>687.5</ele><time>2026-04-16T13:40:12.783Z</time></trkpt><trkpt lat="44.8522757" lon="9.4580129"><ele>687.75</ele><time>2026-04-16T13:40:13.784Z</time></trkpt><trkpt lat="44.8521726" lon="9.4579101"><ele>688.0</ele><time>2026-04-16T13:40:14.784Z</time></trkpt><trkpt lat="44.8520753" lon="9.4577987"><ele>688.0</ele><time>2026-04-16T13:40:15.784Z</time></trkpt><trkpt lat="44.851985" lon="9.4576705"><ele>688.0</ele><time>2026-04-16T13:40:16.784Z</time></trkpt><trkpt lat="44.8519089" lon="9.4575309"><ele>688.0</ele><time>2026-04-16T13:40:17.784Z</time></trkpt><trkpt lat="44.8518421" lon="9.4573774"><ele>688.0</ele><time>2026-04-16T13:40:18.784Z</time></trkpt><trkpt lat="44.8517761" lon="9.457216"><ele>686.0</ele><time>2026-04-16T13:40:19.784Z</time></trkpt><trkpt lat="44.8517089" lon="9.4570612"><ele>684.0</ele><time>2026-04-16T13:40:20.784Z</time></trkpt><trkpt lat="44.8516365" lon="9.4569113"><ele>682.0</ele><time>2026-04-16T13:40:21.784Z</time></trkpt><trkpt lat="44.8515543" lon="9.4567739"><ele>680.0</ele><time>2026-04-16T13:40:22.783Z</time></trkpt><trkpt lat="44.8514593" lon="9.4566493"><ele>680.0</ele><time>2026-04-16T13:40:23.784Z</time></trkpt><trkpt lat="44.8513518" lon="9.4565402"><ele>680.0</ele><time>2026-04-16T13:40:24.785Z</time></trkpt><trkpt lat="44.8512353" lon="9.4564441"><ele>680.0</ele><time>2026-04-16T13:40:25.784Z</time></trkpt><trkpt lat="44.8511122" lon="9.4563648"><ele>680.0</ele><time>2026-04-16T13:40:26.783Z</time></trkpt><trkpt lat="44.8509943" lon="9.456298"><ele>679.8</ele><time>2026-04-16T13:40:27.784Z</time></trkpt><trkpt lat="44.8508878" lon="9.4562341"><ele>679.6</ele><time>2026-04-16T13:40:28.784Z</time></trkpt><trkpt lat="44.850795" lon="9.4561736"><ele>679.4000000000001</ele><time>2026-04-16T13:40:29.784Z</time></trkpt><trkpt lat="44.8507215" lon="9.4561248"><ele>679.2</ele><time>2026-04-16T13:40:30.784Z</time></trkpt><trkpt lat="44.8506271" lon="9.4560862"><ele>679.0</ele><time>2026-04-16T13:40:32.784Z</time></trkpt><trkpt lat="44.8505356" lon="9.4561325"><ele>679.0</ele><time>2026-04-16T13:40:34.785Z</time></trkpt><trkpt lat="44.8504873" lon="9.4561929"><ele>679.0</ele><time>2026-04-16T13:40:35.784Z</time></trkpt><trkpt lat="44.8504357" lon="9.4562632"><ele>679.0</ele><time>2026-04-16T13:40:36.783Z</time></trkpt><trkpt lat="44.8503776" lon="9.4563385"><ele>679.0</ele><time>2026-04-16T13:40:37.783Z</time></trkpt><trkpt lat="44.8503207" lon="9.4564125"><ele>679.0</ele><time>2026-04-16T13:40:38.784Z</time></trkpt><trkpt lat="44.8502685" lon="9.4564814"><ele>679.0</ele><time>2026-04-16T13:40:39.784Z</time></trkpt><trkpt lat="44.8502201" lon="9.4565483"><ele>679.0</ele><time>2026-04-16T13:40:40.784Z</time></trkpt><trkpt lat="44.8501739" lon="9.45662"><ele>678.0</ele><time>2026-04-16T13:40:41.784Z</time></trkpt><trkpt lat="44.8501267" lon="9.4566865"><ele>677.0</ele><time>2026-04-16T13:40:42.784Z</time></trkpt><trkpt lat="44.8500359" lon="9.4568107"><ele>676.0</ele><time>2026-04-16T13:40:44.783Z</time></trkpt><trkpt lat="44.8499921" lon="9.4568756"><ele>675.0</ele><time>2026-04-16T13:40:45.784Z</time></trkpt><trkpt lat="44.8499475" lon="9.4569492"><ele>674.0</ele><time>2026-04-16T13:40:46.784Z</time></trkpt><trkpt lat="44.8499028" lon="9.457034"><ele>673.0</ele><time>2026-04-16T13:40:47.784Z</time></trkpt><trkpt lat="44.8498592" lon="9.4571285"><ele>673.0</ele><time>2026-04-16T13:40:48.783Z</time></trkpt><trkpt lat="44.8498187" lon="9.4572345"><ele>673.0</ele><time>2026-04-16T13:40:49.783Z</time></trkpt><trkpt lat="44.8497812" lon="9.457351"><ele>673.0</ele><time>2026-04-16T13:40:50.783Z</time></trkpt><trkpt lat="44.8497438" lon="9.4574676"><ele>673.0</ele><time>2026-04-16T13:40:51.783Z</time></trkpt><trkpt lat="44.8497103" lon="9.4575852"><ele>673.0</ele><time>2026-04-16T13:40:52.784Z</time></trkpt><trkpt lat="44.8496815" lon="9.4577021"><ele>673.0</ele><time>2026-04-16T13:40:53.783Z</time></trkpt><trkpt lat="44.8496579" lon="9.4578206"><ele>673.0</ele><time>2026-04-16T13:40:54.784Z</time></trkpt><trkpt lat="44.8496305" lon="9.4579363"><ele>673.0</ele><time>2026-04-16T13:40:55.783Z</time></trkpt><trkpt lat="44.8495904" lon="9.4580524"><ele>673.0</ele><time>2026-04-16T13:40:56.784Z</time></trkpt><trkpt lat="44.8495421" lon="9.4581665"><ele>673.0</ele><time>2026-04-16T13:40:57.784Z</time></trkpt><trkpt lat="44.849481" lon="9.4582803"><ele>673.0</ele><time>2026-04-16T13:40:58.784Z</time></trkpt><trkpt lat="44.8494131" lon="9.4583977"><ele>672.4</ele><time>2026-04-16T13:40:59.785Z</time></trkpt><trkpt lat="44.8493427" lon="9.4585158"><ele>671.8</ele><time>2026-04-16T13:41:00.783Z</time></trkpt><trkpt lat="44.8492717" lon="9.4586337"><ele>671.2</ele><time>2026-04-16T13:41:01.784Z</time></trkpt><trkpt lat="44.8492005" lon="9.4587528"><ele>670.6</ele><time>2026-04-16T13:41:02.783Z</time></trkpt><trkpt lat="44.8491295" lon="9.4588773"><ele>670.0</ele><time>2026-04-16T13:41:03.783Z</time></trkpt><trkpt lat="44.8490611" lon="9.4590016"><ele>669.25</ele><time>2026-04-16T13:41:04.784Z</time></trkpt><trkpt lat="44.8489977" lon="9.4591322"><ele>668.5</ele><time>2026-04-16T13:41:05.785Z</time></trkpt><trkpt lat="44.8489355" lon="9.4592715"><ele>667.75</ele><time>2026-04-16T13:41:06.783Z</time></trkpt><trkpt lat="44.8488818" lon="9.4594255"><ele>667.0</ele><time>2026-04-16T13:41:07.784Z</time></trkpt><trkpt lat="44.8488389" lon="9.4595893"><ele>666.0</ele><time>2026-04-16T13:41:08.784Z</time></trkpt><trkpt lat="44.8488087" lon="9.4597605"><ele>665.0</ele><time>2026-04-16T13:41:09.784Z</time></trkpt><trkpt lat="44.8487917" lon="9.4599376"><ele>664.0</ele><time>2026-04-16T13:41:10.784Z</time></trkpt><trkpt lat="44.8487819" lon="9.4601149"><ele>663.0</ele><time>2026-04-16T13:41:11.784Z</time></trkpt><trkpt lat="44.8487721" lon="9.4602966"><ele>661.75</ele><time>2026-04-16T13:41:12.785Z</time></trkpt><trkpt lat="44.8487532" lon="9.4604789"><ele>660.5</ele><time>2026-04-16T13:41:13.784Z</time></trkpt><trkpt lat="44.8487227" lon="9.4606621"><ele>659.25</ele><time>2026-04-16T13:41:14.784Z</time></trkpt><trkpt lat="44.8486857" lon="9.4608477"><ele>658.0</ele><time>2026-04-16T13:41:15.784Z</time></trkpt><trkpt lat="44.8486486" lon="9.4610378"><ele>658.0</ele><time>2026-04-16T13:41:16.783Z</time></trkpt><trkpt lat="44.8486153" lon="9.4612322"><ele>658.0</ele><time>2026-04-16T13:41:17.784Z</time></trkpt><trkpt lat="44.8485835" lon="9.4614311"><ele>658.0</ele><time>2026-04-16T13:41:18.783Z</time></trkpt><trkpt lat="44.8485506" lon="9.4616356"><ele>658.0</ele><time>2026-04-16T13:41:19.784Z</time></trkpt><trkpt lat="44.8485177" lon="9.4618507"><ele>657.3333333333334</ele><time>2026-04-16T13:41:20.785Z</time></trkpt><trkpt lat="44.8484867" lon="9.4620682"><ele>656.6666666666666</ele><time>2026-04-16T13:41:21.783Z</time></trkpt><trkpt lat="44.8484561" lon="9.4622826"><ele>656.0</ele><time>2026-04-16T13:41:22.784Z</time></trkpt><trkpt lat="44.848426" lon="9.462495"><ele>657.5</ele><time>2026-04-16T13:41:23.785Z</time></trkpt><trkpt lat="44.8483963" lon="9.4627038"><ele>659.0</ele><time>2026-04-16T13:41:24.785Z</time></trkpt><trkpt lat="44.8483655" lon="9.4629067"><ele>660.5</ele><time>2026-04-16T13:41:25.784Z</time></trkpt><trkpt lat="44.8483207" lon="9.463089"><ele>662.0</ele><time>2026-04-16T13:41:26.784Z</time></trkpt><trkpt lat="44.8482632" lon="9.4632491"><ele>662.5</ele><time>2026-04-16T13:41:27.783Z</time></trkpt><trkpt lat="44.8481951" lon="9.4633953"><ele>663.0</ele><time>2026-04-16T13:41:28.783Z</time></trkpt><trkpt lat="44.848117" lon="9.4635416"><ele>663.5</ele><time>2026-04-16T13:41:29.784Z</time></trkpt><trkpt lat="44.8480388" lon="9.4636945"><ele>664.0</ele><time>2026-04-16T13:41:30.784Z</time></trkpt><trkpt lat="44.8479635" lon="9.4638571"><ele>662.25</ele><time>2026-04-16T13:41:31.785Z</time></trkpt><trkpt lat="44.8478882" lon="9.4640244"><ele>660.5</ele><time>2026-04-16T13:41:32.783Z</time></trkpt><trkpt lat="44.8478181" lon="9.4642026"><ele>658.75</ele><time>2026-04-16T13:41:33.785Z</time></trkpt><trkpt lat="44.8477516" lon="9.4643883"><ele>657.0</ele><time>2026-04-16T13:41:34.784Z</time></trkpt><trkpt lat="44.8476849" lon="9.4645762"><ele>659.3333333333334</ele><time>2026-04-16T13:41:35.784Z</time></trkpt><trkpt lat="44.8476226" lon="9.4647713"><ele>661.6666666666667</ele><time>2026-04-16T13:41:36.783Z</time></trkpt><trkpt lat="44.8475672" lon="9.4649683"><ele>664.0</ele><time>2026-04-16T13:41:37.784Z</time></trkpt><trkpt lat="44.8475199" lon="9.4651687"><ele>664.0</ele><time>2026-04-16T13:41:38.784Z</time></trkpt><trkpt lat="44.8474792" lon="9.465366"><ele>664.0</ele><time>2026-04-16T13:41:39.783Z</time></trkpt><trkpt lat="44.8474508" lon="9.4655674"><ele>664.0</ele><time>2026-04-16T13:41:40.783Z</time></trkpt><trkpt lat="44.8474351" lon="9.4657722"><ele>664.0</ele><time>2026-04-16T13:41:41.783Z</time></trkpt><trkpt lat="44.8474278" lon="9.4659769"><ele>665.25</ele><time>2026-04-16T13:41:42.784Z</time></trkpt><trkpt lat="44.8474242" lon="9.466176"><ele>666.5</ele><time>2026-04-16T13:41:43.785Z</time></trkpt><trkpt lat="44.8474194" lon="9.4663609"><ele>667.75</ele><time>2026-04-16T13:41:44.784Z</time></trkpt><trkpt lat="44.8474085" lon="9.4665285"><ele>669.0</ele><time>2026-04-16T13:41:45.785Z</time></trkpt><trkpt lat="44.8473857" lon="9.466681"><ele>669.6</ele><time>2026-04-16T13:41:46.783Z</time></trkpt><trkpt lat="44.8473459" lon="9.4668208"><ele>670.2</ele><time>2026-04-16T13:41:47.783Z</time></trkpt><trkpt lat="44.8473014" lon="9.4669485"><ele>670.8000000000001</ele><time>2026-04-16T13:41:48.784Z</time></trkpt><trkpt lat="44.847268" lon="9.46708"><ele>671.4000000000001</ele><time>2026-04-16T13:41:49.785Z</time></trkpt><trkpt lat="44.8472528" lon="9.4672192"><ele>672.0</ele><time>2026-04-16T13:41:50.785Z</time></trkpt><trkpt lat="44.8472564" lon="9.4673639"><ele>672.0</ele><time>2026-04-16T13:41:51.784Z</time></trkpt><trkpt lat="44.8472719" lon="9.4675193"><ele>672.0</ele><time>2026-04-16T13:41:52.784Z</time></trkpt><trkpt lat="44.8472983" lon="9.467688"><ele>672.0</ele><time>2026-04-16T13:41:53.784Z</time></trkpt><trkpt lat="44.8473316" lon="9.4678659"><ele>672.0</ele><time>2026-04-16T13:41:54.784Z</time></trkpt><trkpt lat="44.8473666" lon="9.4680472"><ele>672.5</ele><time>2026-04-16T13:41:55.784Z</time></trkpt><trkpt lat="44.8474046" lon="9.468237"><ele>673.0</ele><time>2026-04-16T13:41:56.784Z</time></trkpt><trkpt lat="44.8474473" lon="9.4684293"><ele>673.5</ele><time>2026-04-16T13:41:57.783Z</time></trkpt><trkpt lat="44.8474923" lon="9.4686205"><ele>674.0</ele><time>2026-04-16T13:41:58.783Z</time></trkpt><trkpt lat="44.8475444" lon="9.4688131"><ele>676.0</ele><time>2026-04-16T13:41:59.783Z</time></trkpt><trkpt lat="44.8476006" lon="9.4690002"><ele>678.0</ele><time>2026-04-16T13:42:00.784Z</time></trkpt><trkpt lat="44.847656" lon="9.4691805"><ele>680.0</ele><time>2026-04-16T13:42:01.783Z</time></trkpt><trkpt lat="44.8477125" lon="9.4693492"><ele>682.0</ele><time>2026-04-16T13:42:02.785Z</time></trkpt><trkpt lat="44.8477708" lon="9.4695136"><ele>679.25</ele><time>2026-04-16T13:42:03.783Z</time></trkpt><trkpt lat="44.8478239" lon="9.4696758"><ele>676.5</ele><time>2026-04-16T13:42:04.784Z</time></trkpt><trkpt lat="44.8478788" lon="9.4698327"><ele>673.75</ele><time>2026-04-16T13:42:05.783Z</time></trkpt><trkpt lat="44.8479454" lon="9.4699801"><ele>671.0</ele><time>2026-04-16T13:42:06.783Z</time></trkpt><trkpt lat="44.8480281" lon="9.4701124"><ele>671.0</ele><time>2026-04-16T13:42:07.784Z</time></trkpt><trkpt lat="44.8481153" lon="9.4702216"><ele>671.0</ele><time>2026-04-16T13:42:08.784Z</time></trkpt><trkpt lat="44.8482001" lon="9.4703189"><ele>671.0</ele><time>2026-04-16T13:42:09.784Z</time></trkpt><trkpt lat="44.8482881" lon="9.4704166"><ele>671.0</ele><time>2026-04-16T13:42:10.783Z</time></trkpt><trkpt lat="44.8483682" lon="9.4705294"><ele>672.4</ele><time>2026-04-16T13:42:11.783Z</time></trkpt><trkpt lat="44.8484405" lon="9.4706513"><ele>673.8</ele><time>2026-04-16T13:42:12.783Z</time></trkpt><trkpt lat="44.8485069" lon="9.4707722"><ele>675.1999999999999</ele><time>2026-04-16T13:42:13.785Z</time></trkpt><trkpt lat="44.8485668" lon="9.4708957"><ele>676.5999999999999</ele><time>2026-04-16T13:42:14.783Z</time></trkpt><trkpt lat="44.8486098" lon="9.4710175"><ele>678.0</ele><time>2026-04-16T13:42:15.783Z</time></trkpt><trkpt lat="44.8486345" lon="9.4711458"><ele>674.75</ele><time>2026-04-16T13:42:16.784Z</time></trkpt><trkpt lat="44.8486422" lon="9.47129"><ele>671.5</ele><time>2026-04-16T13:42:17.784Z</time></trkpt><trkpt lat="44.8486404" lon="9.4714486"><ele>668.25</ele><time>2026-04-16T13:42:18.784Z</time></trkpt><trkpt lat="44.8486334" lon="9.471619"><ele>665.0</ele><time>2026-04-16T13:42:19.784Z</time></trkpt><trkpt lat="44.8486226" lon="9.4717849"><ele>665.0</ele><time>2026-04-16T13:42:20.784Z</time></trkpt><trkpt lat="44.8486136" lon="9.4719489"><ele>665.0</ele><time>2026-04-16T13:42:21.784Z</time></trkpt><trkpt lat="44.8486086" lon="9.4721064"><ele>665.0</ele><time>2026-04-16T13:42:22.783Z</time></trkpt><trkpt lat="44.8486145" lon="9.4722641"><ele>665.0</ele><time>2026-04-16T13:42:23.783Z</time></trkpt><trkpt lat="44.8486339" lon="9.4724169"><ele>664.4</ele><time>2026-04-16T13:42:24.784Z</time></trkpt><trkpt lat="44.84866" lon="9.4725668"><ele>663.8</ele><time>2026-04-16T13:42:25.784Z</time></trkpt><trkpt lat="44.848688" lon="9.4727087"><ele>663.2</ele><time>2026-04-16T13:42:26.784Z</time></trkpt><trkpt lat="44.848716" lon="9.472845"><ele>662.6</ele><time>2026-04-16T13:42:27.784Z</time></trkpt><trkpt lat="44.8487504" lon="9.4729682"><ele>662.0</ele><time>2026-04-16T13:42:28.783Z</time></trkpt><trkpt lat="44.8487907" lon="9.4730796"><ele>661.5714285714286</ele><time>2026-04-16T13:42:29.784Z</time></trkpt><trkpt lat="44.8488365" lon="9.4731664"><ele>661.1428571428571</ele><time>2026-04-16T13:42:30.784Z</time></trkpt><trkpt lat="44.8488936" lon="9.4732268"><ele>660.7142857142858</ele><time>2026-04-16T13:42:31.784Z</time></trkpt><trkpt lat="44.8489538" lon="9.4732676"><ele>660.2857142857142</ele><time>2026-04-16T13:42:32.783Z</time></trkpt><trkpt lat="44.8490153" lon="9.4732995"><ele>659.8571428571428</ele><time>2026-04-16T13:42:33.784Z</time></trkpt><trkpt lat="44.8490816" lon="9.4733288"><ele>659.4285714285714</ele><time>2026-04-16T13:42:34.784Z</time></trkpt><trkpt lat="44.849154" lon="9.4733537"><ele>659.0</ele><time>2026-04-16T13:42:35.784Z</time></trkpt><trkpt lat="44.8492308" lon="9.4733778"><ele>656.3333333333333</ele><time>2026-04-16T13:42:36.784Z</time></trkpt><trkpt lat="44.849312" lon="9.4734023"><ele>653.6666666666666</ele><time>2026-04-16T13:42:37.784Z</time></trkpt><trkpt lat="44.8493939" lon="9.4734303"><ele>651.0</ele><time>2026-04-16T13:42:38.784Z</time></trkpt><trkpt lat="44.8494757" lon="9.4734666"><ele>648.3333333333334</ele><time>2026-04-16T13:42:39.784Z</time></trkpt><trkpt lat="44.8495531" lon="9.4735188"><ele>645.6666666666667</ele><time>2026-04-16T13:42:40.783Z</time></trkpt><trkpt lat="44.8496199" lon="9.4735998"><ele>643.0</ele><time>2026-04-16T13:42:41.784Z</time></trkpt><trkpt lat="44.8496698" lon="9.4736968"><ele>643.4285714285714</ele><time>2026-04-16T13:42:42.784Z</time></trkpt><trkpt lat="44.8496982" lon="9.4738092"><ele>643.8571428571429</ele><time>2026-04-16T13:42:43.784Z</time></trkpt><trkpt lat="44.849696" lon="9.473918"><ele>644.2857142857143</ele><time>2026-04-16T13:42:44.783Z</time></trkpt><trkpt lat="44.8496783" lon="9.4740191"><ele>644.7142857142858</ele><time>2026-04-16T13:42:45.784Z</time></trkpt><trkpt lat="44.8496753" lon="9.4741184"><ele>645.1428571428571</ele><time>2026-04-16T13:42:46.784Z</time></trkpt><trkpt lat="44.8497058" lon="9.4742028"><ele>645.5714285714287</ele><time>2026-04-16T13:42:47.784Z</time></trkpt><trkpt lat="44.8497573" lon="9.4742618"><ele>646.0</ele><time>2026-04-16T13:42:48.784Z</time></trkpt><trkpt lat="44.8498753" lon="9.4742476"><ele>646.0</ele><time>2026-04-16T13:42:50.784Z</time></trkpt><trkpt lat="44.8499628" lon="9.4741215"><ele>646.0</ele><time>2026-04-16T13:42:52.784Z</time></trkpt><trkpt lat="44.8500047" lon="9.474044"><ele>646.0</ele><time>2026-04-16T13:42:53.785Z</time></trkpt><trkpt lat="44.8500635" lon="9.4739941"><ele>646.0</ele><time>2026-04-16T13:42:54.784Z</time></trkpt><trkpt lat="44.8501291" lon="9.4739865"><ele>646.0</ele><time>2026-04-16T13:42:55.784Z</time></trkpt><trkpt lat="44.8501881" lon="9.4740241"><ele>646.0</ele><time>2026-04-16T13:42:56.784Z</time></trkpt><trkpt lat="44.8502336" lon="9.474174"><ele>646.0</ele><time>2026-04-16T13:42:58.784Z</time></trkpt><trkpt lat="44.8501779" lon="9.4743191"><ele>646.0</ele><time>2026-04-16T13:43:00.783Z</time></trkpt><trkpt lat="44.8501216" lon="9.4743725"><ele>646.0</ele><time>2026-04-16T13:43:01.784Z</time></trkpt><trkpt lat="44.8500542" lon="9.4744217"><ele>646.0</ele><time>2026-04-16T13:43:02.784Z</time></trkpt><trkpt lat="44.8499778" lon="9.4744793"><ele>646.0</ele><time>2026-04-16T13:43:03.784Z</time></trkpt><trkpt lat="44.8498966" lon="9.4745401"><ele>646.0</ele><time>2026-04-16T13:43:04.785Z</time></trkpt><trkpt lat="44.8498165" lon="9.474608"><ele>642.4</ele><time>2026-04-16T13:43:05.784Z</time></trkpt><trkpt lat="44.849738" lon="9.4746743"><ele>638.8</ele><time>2026-04-16T13:43:06.783Z</time></trkpt><trkpt lat="44.849661" lon="9.47474"><ele>635.1999999999999</ele><time>2026-04-16T13:43:07.784Z</time></trkpt><trkpt lat="44.8495837" lon="9.4747984"><ele>631.5999999999999</ele><time>2026-04-16T13:43:08.783Z</time></trkpt><trkpt lat="44.8495007" lon="9.4748492"><ele>628.0</ele><time>2026-04-16T13:43:09.784Z</time></trkpt><trkpt lat="44.8494121" lon="9.4748839"><ele>628.0</ele><time>2026-04-16T13:43:10.783Z</time></trkpt><trkpt lat="44.849318" lon="9.4749012"><ele>628.0</ele><time>2026-04-16T13:43:11.783Z</time></trkpt><trkpt lat="44.8492219" lon="9.4749104"><ele>628.0</ele><time>2026-04-16T13:43:12.784Z</time></trkpt><trkpt lat="44.849124" lon="9.474927"><ele>628.0</ele><time>2026-04-16T13:43:13.784Z</time></trkpt><trkpt lat="44.8490304" lon="9.474959"><ele>628.0</ele><time>2026-04-16T13:43:14.784Z</time></trkpt><trkpt lat="44.8489467" lon="9.4750125"><ele>630.0</ele><time>2026-04-16T13:43:15.784Z</time></trkpt><trkpt lat="44.8488691" lon="9.4750806"><ele>632.0</ele><time>2026-04-16T13:43:16.784Z</time></trkpt><trkpt lat="44.8487969" lon="9.4751599"><ele>634.0</ele><time>2026-04-16T13:43:17.785Z</time></trkpt><trkpt lat="44.8487232" lon="9.4752356"><ele>636.0</ele><time>2026-04-16T13:43:18.783Z</time></trkpt><trkpt lat="44.848643" lon="9.4753083"><ele>638.0</ele><time>2026-04-16T13:43:19.784Z</time></trkpt><trkpt lat="44.84856" lon="9.4753814"><ele>636.0</ele><time>2026-04-16T13:43:20.784Z</time></trkpt><trkpt lat="44.8484794" lon="9.4754631"><ele>634.0</ele><time>2026-04-16T13:43:21.784Z</time></trkpt><trkpt lat="44.8484046" lon="9.4755657"><ele>632.0</ele><time>2026-04-16T13:43:22.785Z</time></trkpt><trkpt lat="44.8483429" lon="9.4756829"><ele>630.0</ele><time>2026-04-16T13:43:23.783Z</time></trkpt><trkpt lat="44.8482839" lon="9.4758106"><ele>628.0</ele><time>2026-04-16T13:43:24.784Z</time></trkpt><trkpt lat="44.8482227" lon="9.4759394"><ele>628.0</ele><time>2026-04-16T13:43:25.784Z</time></trkpt><trkpt lat="44.8481638" lon="9.4760667"><ele>628.0</ele><time>2026-04-16T13:43:26.784Z</time></trkpt><trkpt lat="44.8481121" lon="9.4761999"><ele>628.0</ele><time>2026-04-16T13:43:27.783Z</time></trkpt><trkpt lat="44.8480736" lon="9.4763439"><ele>628.0</ele><time>2026-04-16T13:43:28.784Z</time></trkpt><trkpt lat="44.8480465" lon="9.4764928"><ele>628.0</ele><time>2026-04-16T13:43:29.783Z</time></trkpt><trkpt lat="44.8480225" lon="9.4766512"><ele>626.0</ele><time>2026-04-16T13:43:30.784Z</time></trkpt><trkpt lat="44.8479924" lon="9.4768079"><ele>624.0</ele><time>2026-04-16T13:43:31.783Z</time></trkpt><trkpt lat="44.8479608" lon="9.476961"><ele>622.0</ele><time>2026-04-16T13:43:32.784Z</time></trkpt><trkpt lat="44.8479276" lon="9.4771114"><ele>620.0</ele><time>2026-04-16T13:43:33.785Z</time></trkpt><trkpt lat="44.847903" lon="9.4772599"><ele>618.0</ele><time>2026-04-16T13:43:34.785Z</time></trkpt><trkpt lat="44.8478919" lon="9.477413"><ele>616.6</ele><time>2026-04-16T13:43:35.783Z</time></trkpt><trkpt lat="44.847897" lon="9.4775611"><ele>615.1999999999999</ele><time>2026-04-16T13:43:36.784Z</time></trkpt><trkpt lat="44.8479187" lon="9.4777132"><ele>613.8</ele><time>2026-04-16T13:43:37.784Z</time></trkpt><trkpt lat="44.8479458" lon="9.4778684"><ele>612.4</ele><time>2026-04-16T13:43:38.785Z</time></trkpt><trkpt lat="44.8479747" lon="9.4780276"><ele>611.0</ele><time>2026-04-16T13:43:39.784Z</time></trkpt><trkpt lat="44.8480022" lon="9.478191"><ele>610.25</ele><time>2026-04-16T13:43:40.784Z</time></trkpt><trkpt lat="44.8480292" lon="9.478359"><ele>609.5</ele><time>2026-04-16T13:43:41.783Z</time></trkpt><trkpt lat="44.8480548" lon="9.4785237"><ele>608.75</ele><time>2026-04-16T13:43:42.784Z</time></trkpt><trkpt lat="44.8480844" lon="9.4786902"><ele>608.0</ele><time>2026-04-16T13:43:43.784Z</time></trkpt><trkpt lat="44.8481144" lon="9.4788549"><ele>607.25</ele><time>2026-04-16T13:43:44.784Z</time></trkpt><trkpt lat="44.8481452" lon="9.4790181"><ele>606.5</ele><time>2026-04-16T13:43:45.783Z</time></trkpt><trkpt lat="44.8481755" lon="9.4791746"><ele>605.75</ele><time>2026-04-16T13:43:46.783Z</time></trkpt><trkpt lat="44.8481919" lon="9.47933"><ele>605.0</ele><time>2026-04-16T13:43:47.785Z</time></trkpt><trkpt lat="44.8481895" lon="9.4794822"><ele>603.2</ele><time>2026-04-16T13:43:48.783Z</time></trkpt><trkpt lat="44.848157" lon="9.4796197"><ele>601.4</ele><time>2026-04-16T13:43:49.783Z</time></trkpt><trkpt lat="44.8481015" lon="9.4797376"><ele>599.6</ele><time>2026-04-16T13:43:50.783Z</time></trkpt><trkpt lat="44.8480337" lon="9.4798357"><ele>597.8</ele><time>2026-04-16T13:43:51.784Z</time></trkpt><trkpt lat="44.8479699" lon="9.4799357"><ele>596.0</ele><time>2026-04-16T13:43:52.784Z</time></trkpt><trkpt lat="44.8479208" lon="9.480045"><ele>596.0</ele><time>2026-04-16T13:43:53.785Z</time></trkpt><trkpt lat="44.8478993" lon="9.4801596"><ele>596.0</ele><time>2026-04-16T13:43:54.784Z</time></trkpt><trkpt lat="44.8479118" lon="9.4802547"><ele>596.0</ele><time>2026-04-16T13:43:55.784Z</time></trkpt><trkpt lat="44.8479539" lon="9.4803228"><ele>596.0</ele><time>2026-04-16T13:43:56.783Z</time></trkpt><trkpt lat="44.8480136" lon="9.480362"><ele>596.0</ele><time>2026-04-16T13:43:57.783Z</time></trkpt><trkpt lat="44.8481382" lon="9.4803486"><ele>596.0</ele><time>2026-04-16T13:43:59.783Z</time></trkpt><trkpt lat="44.8482098" lon="9.4803116"><ele>596.0</ele><time>2026-04-16T13:44:00.783Z</time></trkpt><trkpt lat="44.8482854" lon="9.480261"><ele>596.0</ele><time>2026-04-16T13:44:01.784Z</time></trkpt><trkpt lat="44.848361" lon="9.4801999"><ele>596.0</ele><time>2026-04-16T13:44:02.784Z</time></trkpt><trkpt lat="44.8484343" lon="9.4801321"><ele>596.0</ele><time>2026-04-16T13:44:03.785Z</time></trkpt><trkpt lat="44.8485141" lon="9.4800546"><ele>596.0</ele><time>2026-04-16T13:44:04.784Z</time></trkpt><trkpt lat="44.8485931" lon="9.4799631"><ele>594.4</ele><time>2026-04-16T13:44:05.783Z</time></trkpt><trkpt lat="44.8486718" lon="9.4798621"><ele>592.8</ele><time>2026-04-16T13:44:06.783Z</time></trkpt><trkpt lat="44.8487454" lon="9.4797584"><ele>591.1999999999999</ele><time>2026-04-16T13:44:07.783Z</time></trkpt><trkpt lat="44.8488154" lon="9.4796554"><ele>589.6</ele><time>2026-04-16T13:44:08.784Z</time></trkpt><trkpt lat="44.8488848" lon="9.4795539"><ele>588.0</ele><time>2026-04-16T13:44:09.784Z</time></trkpt><trkpt lat="44.8489504" lon="9.4794507"><ele>588.0</ele><time>2026-04-16T13:44:10.784Z</time></trkpt><trkpt lat="44.8490155" lon="9.479345"><ele>588.0</ele><time>2026-04-16T13:44:11.784Z</time></trkpt><trkpt lat="44.8490841" lon="9.479234"><ele>588.0</ele><time>2026-04-16T13:44:12.784Z</time></trkpt><trkpt lat="44.8491535" lon="9.4791225"><ele>588.0</ele><time>2026-04-16T13:44:13.784Z</time></trkpt><trkpt lat="44.849221" lon="9.4790107"><ele>588.0</ele><time>2026-04-16T13:44:14.783Z</time></trkpt><trkpt lat="44.8492893" lon="9.4789005"><ele>585.1999999999999</ele><time>2026-04-16T13:44:15.784Z</time></trkpt><trkpt lat="44.8493484" lon="9.4787853"><ele>582.4</ele><time>2026-04-16T13:44:16.784Z</time></trkpt><trkpt lat="44.8493948" lon="9.4786639"><ele>579.5999999999999</ele><time>2026-04-16T13:44:17.784Z</time></trkpt><trkpt lat="44.8494339" lon="9.4785328"><ele>576.8</ele><time>2026-04-16T13:44:18.785Z</time></trkpt><trkpt lat="44.8494695" lon="9.4783958"><ele>574.0</ele><time>2026-04-16T13:44:19.784Z</time></trkpt><trkpt lat="44.8495046" lon="9.4782668"><ele>574.0</ele><time>2026-04-16T13:44:20.784Z</time></trkpt><trkpt lat="44.8495398" lon="9.4781552"><ele>574.0</ele><time>2026-04-16T13:44:21.784Z</time></trkpt><trkpt lat="44.8495801" lon="9.4780683"><ele>574.0</ele><time>2026-04-16T13:44:22.784Z</time></trkpt><trkpt lat="44.8496394" lon="9.478019"><ele>574.0</ele><time>2026-04-16T13:44:23.784Z</time></trkpt><trkpt lat="44.8497047" lon="9.4780047"><ele>574.0</ele><time>2026-04-16T13:44:24.785Z</time></trkpt><trkpt lat="44.8497665" lon="9.4780344"><ele>574.0</ele><time>2026-04-16T13:44:25.783Z</time></trkpt><trkpt lat="44.8498138" lon="9.4780971"><ele>574.0</ele><time>2026-04-16T13:44:26.783Z</time></trkpt><trkpt lat="44.8498536" lon="9.4781877"><ele>574.0</ele><time>2026-04-16T13:44:27.784Z</time></trkpt><trkpt lat="44.8498851" lon="9.4783073"><ele>574.0</ele><time>2026-04-16T13:44:28.784Z</time></trkpt><trkpt lat="44.849913" lon="9.4784428"><ele>574.0</ele><time>2026-04-16T13:44:29.784Z</time></trkpt><trkpt lat="44.8499435" lon="9.4785863"><ele>574.0</ele><time>2026-04-16T13:44:30.783Z</time></trkpt><trkpt lat="44.8499724" lon="9.4787258"><ele>574.0</ele><time>2026-04-16T13:44:31.783Z</time></trkpt><trkpt lat="44.8499958" lon="9.4788639"><ele>573.6</ele><time>2026-04-16T13:44:32.783Z</time></trkpt><trkpt lat="44.8500075" lon="9.4790013"><ele>573.2</ele><time>2026-04-16T13:44:33.784Z</time></trkpt><trkpt lat="44.8500002" lon="9.4791357"><ele>572.8000000000001</ele><time>2026-04-16T13:44:34.785Z</time></trkpt><trkpt lat="44.849969" lon="9.4792583"><ele>572.4</ele><time>2026-04-16T13:44:35.783Z</time></trkpt><trkpt lat="44.8499195" lon="9.479376"><ele>572.0</ele><time>2026-04-16T13:44:36.783Z</time></trkpt><trkpt lat="44.8498682" lon="9.4794843"><ele>572.0</ele><time>2026-04-16T13:44:37.783Z</time></trkpt><trkpt lat="44.8498192" lon="9.4795915"><ele>572.0</ele><time>2026-04-16T13:44:38.784Z</time></trkpt><trkpt lat="44.8497828" lon="9.4797049"><ele>572.0</ele><time>2026-04-16T13:44:39.784Z</time></trkpt><trkpt lat="44.849772" lon="9.479821"><ele>572.0</ele><time>2026-04-16T13:44:40.784Z</time></trkpt><trkpt lat="44.8497892" lon="9.4799231"><ele>572.0</ele><time>2026-04-16T13:44:41.784Z</time></trkpt><trkpt lat="44.8498291" lon="9.4799975"><ele>572.0</ele><time>2026-04-16T13:44:42.783Z</time></trkpt><trkpt lat="44.8499377" lon="9.4800509"><ele>569.4</ele><time>2026-04-16T13:44:44.784Z</time></trkpt><trkpt lat="44.8500547" lon="9.4800097"><ele>566.8000000000001</ele><time>2026-04-16T13:44:46.783Z</time></trkpt><trkpt lat="44.8501135" lon="9.479969"><ele>564.2</ele><time>2026-04-16T13:44:47.784Z</time></trkpt><trkpt lat="44.8502104" lon="9.479889"><ele>561.6</ele><time>2026-04-16T13:44:49.784Z</time></trkpt><trkpt lat="44.8502836" lon="9.4798244"><ele>559.0</ele><time>2026-04-16T13:44:51.784Z</time></trkpt><trkpt lat="44.8503694" lon="9.4797278"><ele>558.4</ele><time>2026-04-16T13:44:54.783Z</time></trkpt><trkpt lat="44.8504817" lon="9.4796214"><ele>557.8</ele><time>2026-04-16T13:44:56.784Z</time></trkpt><trkpt lat="44.8505395" lon="9.4795696"><ele>557.2</ele><time>2026-04-16T13:44:57.784Z</time></trkpt><trkpt lat="44.8506261" lon="9.4794869"><ele>556.6</ele><time>2026-04-16T13:44:59.784Z</time></trkpt><trkpt lat="44.8506914" lon="9.47946"><ele>556.0</ele><time>2026-04-16T13:45:01.783Z</time></trkpt><trkpt lat="44.8507535" lon="9.4794045"><ele>556.0</ele><time>2026-04-16T13:45:05.783Z</time></trkpt><trkpt lat="44.8506817" lon="9.4793812"><ele>556.0</ele><time>2026-04-16T13:45:10.783Z</time></trkpt><trkpt lat="44.8506349" lon="9.4794444"><ele>556.0</ele><time>2026-04-16T13:45:11.785Z</time></trkpt><trkpt lat="44.850577" lon="9.4795016"><ele>556.0</ele><time>2026-04-16T13:45:12.784Z</time></trkpt><trkpt lat="44.8505083" lon="9.4795695"><ele>556.0</ele><time>2026-04-16T13:45:13.783Z</time></trkpt><trkpt lat="44.8504289" lon="9.4796453"><ele>556.0</ele><time>2026-04-16T13:45:14.783Z</time></trkpt><trkpt lat="44.8503473" lon="9.4797271"><ele>556.5</ele><time>2026-04-16T13:45:15.785Z</time></trkpt><trkpt lat="44.8502654" lon="9.4798069"><ele>557.0</ele><time>2026-04-16T13:45:16.784Z</time></trkpt><trkpt lat="44.8501913" lon="9.4798766"><ele>557.5</ele><time>2026-04-16T13:45:17.784Z</time></trkpt><trkpt lat="44.850125" lon="9.4799336"><ele>558.0</ele><time>2026-04-16T13:45:18.783Z</time></trkpt><trkpt lat="44.8500675" lon="9.4799802"><ele>558.5</ele><time>2026-04-16T13:45:19.784Z</time></trkpt><trkpt lat="44.8499687" lon="9.4800371"><ele>559.0</ele><time>2026-04-16T13:45:21.784Z</time></trkpt><trkpt lat="44.8498841" lon="9.4801091"><ele>559.0</ele><time>2026-04-16T13:45:23.783Z</time></trkpt><trkpt lat="44.8498142" lon="9.4802149"><ele>559.0</ele><time>2026-04-16T13:45:25.783Z</time></trkpt><trkpt lat="44.8497514" lon="9.4803403"><ele>559.0</ele><time>2026-04-16T13:45:27.783Z</time></trkpt><trkpt lat="44.8497006" lon="9.4804593"><ele>559.0</ele><time>2026-04-16T13:45:29.784Z</time></trkpt><trkpt lat="44.8496706" lon="9.4805566"><ele>559.0</ele><time>2026-04-16T13:45:31.784Z</time></trkpt><trkpt lat="44.8496332" lon="9.48064"><ele>559.8</ele><time>2026-04-16T13:45:34.784Z</time></trkpt><trkpt lat="44.8495942" lon="9.4807224"><ele>560.5999999999999</ele><time>2026-04-16T13:45:37.784Z</time></trkpt><trkpt lat="44.8495015" lon="9.4807512"><ele>561.4</ele><time>2026-04-16T13:45:41.784Z</time></trkpt><trkpt lat="44.8493986" lon="9.4807541"><ele>562.1999999999999</ele><time>2026-04-16T13:45:43.784Z</time></trkpt><trkpt lat="44.8492974" lon="9.48078"><ele>563.0</ele><time>2026-04-16T13:45:45.783Z</time></trkpt><trkpt lat="44.8492068" lon="9.4808463"><ele>563.0</ele><time>2026-04-16T13:45:47.784Z</time></trkpt><trkpt lat="44.8491579" lon="9.4809354"><ele>563.0</ele><time>2026-04-16T13:45:49.783Z</time></trkpt><trkpt lat="44.8491294" lon="9.4810298"><ele>563.0</ele><time>2026-04-16T13:45:51.785Z</time></trkpt><trkpt lat="44.8491011" lon="9.4811191"><ele>563.0</ele><time>2026-04-16T13:45:53.784Z</time></trkpt><trkpt lat="44.8490536" lon="9.4812018"><ele>563.0</ele><time>2026-04-16T13:45:55.783Z</time></trkpt><trkpt lat="44.8489844" lon="9.4812866"><ele>563.0</ele><time>2026-04-16T13:45:57.783Z</time></trkpt><trkpt lat="44.8489162" lon="9.4813872"><ele>561.0</ele><time>2026-04-16T13:45:59.784Z</time></trkpt><trkpt lat="44.8488656" lon="9.4815033"><ele>559.0</ele><time>2026-04-16T13:46:01.783Z</time></trkpt><trkpt lat="44.8488346" lon="9.4816194"><ele>557.0</ele><time>2026-04-16T13:46:03.785Z</time></trkpt><trkpt lat="44.8488099" lon="9.4817288"><ele>555.0</ele><time>2026-04-16T13:46:05.784Z</time></trkpt><trkpt lat="44.848787" lon="9.4818266"><ele>553.0</ele><time>2026-04-16T13:46:07.782Z</time></trkpt><trkpt lat="44.8487712" lon="9.4819388"><ele>551.0</ele><time>2026-04-16T13:46:09.782Z</time></trkpt><trkpt lat="44.8487707" lon="9.4820421"><ele>549.0</ele><time>2026-04-16T13:46:11.782Z</time></trkpt><trkpt lat="44.8487773" lon="9.4821617"><ele>547.0</ele><time>2026-04-16T13:46:13.783Z</time></trkpt><trkpt lat="44.8487706" lon="9.4822758"><ele>545.0</ele><time>2026-04-16T13:46:15.784Z</time></trkpt><trkpt lat="44.8487513" lon="9.4824109"><ele>543.0</ele><time>2026-04-16T13:46:17.782Z</time></trkpt><trkpt lat="44.84874" lon="9.4825505"><ele>541.0</ele><time>2026-04-16T13:46:19.783Z</time></trkpt><trkpt lat="44.8487207" lon="9.4827155"><ele>541.0</ele><time>2026-04-16T13:46:21.782Z</time></trkpt><trkpt lat="44.8487018" lon="9.4828729"><ele>541.0</ele><time>2026-04-16T13:46:23.782Z</time></trkpt><trkpt lat="44.8486904" lon="9.4829622"><ele>541.0</ele><time>2026-04-16T13:46:24.783Z</time></trkpt><trkpt lat="44.8486661" lon="9.4831302"><ele>541.0</ele><time>2026-04-16T13:46:26.783Z</time></trkpt><trkpt lat="44.8486537" lon="9.4832202"><ele>541.0</ele><time>2026-04-16T13:46:27.782Z</time></trkpt><trkpt lat="44.8486464" lon="9.4833136"><ele>541.0</ele><time>2026-04-16T13:46:28.782Z</time></trkpt><trkpt lat="44.8486353" lon="9.4834013"><ele>540.6</ele><time>2026-04-16T13:46:29.782Z</time></trkpt><trkpt lat="44.848623" lon="9.4834892"><ele>540.2</ele><time>2026-04-16T13:46:30.783Z</time></trkpt><trkpt lat="44.8486057" lon="9.4836532"><ele>539.8</ele><time>2026-04-16T13:46:32.783Z</time></trkpt><trkpt lat="44.8486474" lon="9.4838197"><ele>539.4</ele><time>2026-04-16T13:46:34.784Z</time></trkpt><trkpt lat="44.8486828" lon="9.4839473"><ele>539.0</ele><time>2026-04-16T13:46:36.782Z</time></trkpt><trkpt lat="44.8487041" lon="9.4840579"><ele>539.0</ele><time>2026-04-16T13:46:38.783Z</time></trkpt><trkpt lat="44.848702" lon="9.4841706"><ele>539.0</ele><time>2026-04-16T13:46:40.783Z</time></trkpt><trkpt lat="44.8487197" lon="9.4843154"><ele>539.0</ele><time>2026-04-16T13:46:42.783Z</time></trkpt><trkpt lat="44.8487427" lon="9.4843996"><ele>539.0</ele><time>2026-04-16T13:46:43.782Z</time></trkpt><trkpt lat="44.8487757" lon="9.4844848"><ele>539.0</ele><time>2026-04-16T13:46:44.783Z</time></trkpt><trkpt lat="44.8488097" lon="9.4845673"><ele>539.0</ele><time>2026-04-16T13:46:45.783Z</time></trkpt><trkpt lat="44.8488416" lon="9.4846547"><ele>538.7142857142857</ele><time>2026-04-16T13:46:46.782Z</time></trkpt><trkpt lat="44.8488665" lon="9.4847435"><ele>538.4285714285714</ele><time>2026-04-16T13:46:47.783Z</time></trkpt><trkpt lat="44.8488838" lon="9.4848335"><ele>538.1428571428571</ele><time>2026-04-16T13:46:48.783Z</time></trkpt><trkpt lat="44.8488961" lon="9.4849317"><ele>537.8571428571429</ele><time>2026-04-16T13:46:49.782Z</time></trkpt><trkpt lat="44.8489117" lon="9.4850341"><ele>537.5714285714286</ele><time>2026-04-16T13:46:50.783Z</time></trkpt><trkpt lat="44.8489306" lon="9.4851401"><ele>537.2857142857142</ele><time>2026-04-16T13:46:51.782Z</time></trkpt><trkpt lat="44.8489535" lon="9.4852444"><ele>537.0</ele><time>2026-04-16T13:46:52.784Z</time></trkpt><trkpt lat="44.8489817" lon="9.4853359"><ele>537.0</ele><time>2026-04-16T13:46:53.783Z</time></trkpt><trkpt lat="44.8490098" lon="9.485421"><ele>537.0</ele><time>2026-04-16T13:46:54.784Z</time></trkpt><trkpt lat="44.8490684" lon="9.4855508"><ele>537.0</ele><time>2026-04-16T13:46:56.783Z</time></trkpt><trkpt lat="44.8491013" lon="9.4856327"><ele>537.0</ele><time>2026-04-16T13:46:59.783Z</time></trkpt><trkpt lat="44.8491121" lon="9.4857648"><ele>537.0</ele><time>2026-04-16T13:47:12.783Z</time></trkpt><trkpt lat="44.8491427" lon="9.4858822"><ele>537.0</ele><time>2026-04-16T13:47:14.782Z</time></trkpt><trkpt lat="44.8492048" lon="9.4859749"><ele>537.0</ele><time>2026-04-16T13:47:16.783Z</time></trkpt><trkpt lat="44.8492706" lon="9.486068"><ele>537.0</ele><time>2026-04-16T13:47:18.783Z</time></trkpt><trkpt lat="44.8493204" lon="9.486154"><ele>537.0</ele><time>2026-04-16T13:47:20.783Z</time></trkpt><trkpt lat="44.8493658" lon="9.4862321"><ele>537.0</ele><time>2026-04-16T13:47:22.784Z</time></trkpt><trkpt lat="44.84943" lon="9.4863086"><ele>537.0</ele><time>2026-04-16T13:47:25.783Z</time></trkpt><trkpt lat="44.849465" lon="9.4863904"><ele>537.0</ele><time>2026-04-16T13:47:28.783Z</time></trkpt><trkpt lat="44.849459" lon="9.4864811"><ele>535.6666666666666</ele><time>2026-04-16T13:47:31.784Z</time></trkpt><trkpt lat="44.8494094" lon="9.4865452"><ele>534.3333333333334</ele><time>2026-04-16T13:47:34.783Z</time></trkpt><trkpt lat="44.8493304" lon="9.4865606"><ele>533.0</ele><time>2026-04-16T13:47:37.782Z</time></trkpt><trkpt lat="44.8492523" lon="9.4865458"><ele>531.6666666666667</ele><time>2026-04-16T13:47:40.783Z</time></trkpt><trkpt lat="44.8491798" lon="9.4865201"><ele>530.3333333333334</ele><time>2026-04-16T13:47:43.782Z</time></trkpt><trkpt lat="44.8491034" lon="9.4864799"><ele>529.0</ele><time>2026-04-16T13:47:45.783Z</time></trkpt><trkpt lat="44.8490175" lon="9.4864343"><ele>529.0</ele><time>2026-04-16T13:47:47.782Z</time></trkpt><trkpt lat="44.8489343" lon="9.4863994"><ele>529.0</ele><time>2026-04-16T13:47:49.783Z</time></trkpt><trkpt lat="44.8488563" lon="9.4863694"><ele>529.0</ele><time>2026-04-16T13:47:51.783Z</time></trkpt><trkpt lat="44.8487795" lon="9.4863627"><ele>529.0</ele><time>2026-04-16T13:47:53.783Z</time></trkpt><trkpt lat="44.8486972" lon="9.4863985"><ele>529.0</ele><time>2026-04-16T13:47:55.782Z</time></trkpt><trkpt lat="44.8486203" lon="9.486495"><ele>529.0</ele><time>2026-04-16T13:47:57.783Z</time></trkpt><trkpt lat="44.8485311" lon="9.4865955"><ele>526.25</ele><time>2026-04-16T13:47:59.783Z</time></trkpt><trkpt lat="44.8484394" lon="9.4867018"><ele>523.5</ele><time>2026-04-16T13:48:01.783Z</time></trkpt><trkpt lat="44.8483482" lon="9.4868105"><ele>520.75</ele><time>2026-04-16T13:48:03.782Z</time></trkpt><trkpt lat="44.8482611" lon="9.4869247"><ele>518.0</ele><time>2026-04-16T13:48:05.783Z</time></trkpt><trkpt lat="44.8481781" lon="9.487033"><ele>516.3333333333333</ele><time>2026-04-16T13:48:07.783Z</time></trkpt><trkpt lat="44.8481304" lon="9.4870999"><ele>514.6666666666666</ele><time>2026-04-16T13:48:08.782Z</time></trkpt><trkpt lat="44.848084" lon="9.4871621"><ele>513.0</ele><time>2026-04-16T13:48:09.783Z</time></trkpt><trkpt lat="44.8480358" lon="9.4872212"><ele>511.33333333333337</ele><time>2026-04-16T13:48:10.783Z</time></trkpt><trkpt lat="44.8479856" lon="9.4872807"><ele>509.6666666666667</ele><time>2026-04-16T13:48:11.782Z</time></trkpt><trkpt lat="44.8478826" lon="9.4874042"><ele>508.0</ele><time>2026-04-16T13:48:13.783Z</time></trkpt><trkpt lat="44.8478261" lon="9.4874732"><ele>508.0</ele><time>2026-04-16T13:48:14.784Z</time></trkpt><trkpt lat="44.8477749" lon="9.4875355"><ele>508.0</ele><time>2026-04-16T13:48:15.782Z</time></trkpt><trkpt lat="44.8477249" lon="9.4875981"><ele>508.0</ele><time>2026-04-16T13:48:16.783Z</time></trkpt><trkpt lat="44.8476794" lon="9.4876645"><ele>508.0</ele><time>2026-04-16T13:48:17.782Z</time></trkpt><trkpt lat="44.8476327" lon="9.4877345"><ele>508.0</ele><time>2026-04-16T13:48:18.782Z</time></trkpt><trkpt lat="44.8475871" lon="9.4877994"><ele>508.0</ele><time>2026-04-16T13:48:19.783Z</time></trkpt><trkpt lat="44.8475234" lon="9.4879159"><ele>508.0</ele><time>2026-04-16T13:48:21.782Z</time></trkpt><trkpt lat="44.8475413" lon="9.4880494"><ele>507.6666666666667</ele><time>2026-04-16T13:48:23.783Z</time></trkpt><trkpt lat="44.8476054" lon="9.4881743"><ele>507.33333333333337</ele><time>2026-04-16T13:48:25.783Z</time></trkpt><trkpt lat="44.8476742" lon="9.4883223"><ele>507.0</ele><time>2026-04-16T13:48:27.784Z</time></trkpt><trkpt lat="44.8476908" lon="9.4884113"><ele>506.66666666666663</ele><time>2026-04-16T13:48:28.782Z</time></trkpt><trkpt lat="44.8477003" lon="9.4885126"><ele>506.3333333333333</ele><time>2026-04-16T13:48:29.782Z</time></trkpt><trkpt lat="44.8477131" lon="9.4886081"><ele>506.0</ele><time>2026-04-16T13:48:30.783Z</time></trkpt><trkpt lat="44.8477351" lon="9.4887387"><ele>504.49999999999994</ele><time>2026-04-16T13:48:32.783Z</time></trkpt><trkpt lat="44.8477666" lon="9.488822"><ele>503.0</ele><time>2026-04-16T13:48:35.783Z</time></trkpt><trkpt lat="44.8478465" lon="9.4888505"><ele>501.5</ele><time>2026-04-16T13:48:39.783Z</time></trkpt><trkpt lat="44.8478902" lon="9.4887549"><ele>500.0</ele><time>2026-04-16T13:48:42.783Z</time></trkpt><trkpt lat="44.8479392" lon="9.4886245"><ele>498.49999999999994</ele><time>2026-04-16T13:48:44.783Z</time></trkpt><trkpt lat="44.8480098" lon="9.4885005"><ele>497.0</ele><time>2026-04-16T13:48:46.783Z</time></trkpt><trkpt lat="44.8480821" lon="9.4883972"><ele>496.99999999999994</ele><time>2026-04-16T13:48:48.783Z</time></trkpt><trkpt lat="44.8481599" lon="9.4883423"><ele>497.0</ele><time>2026-04-16T13:48:50.784Z</time></trkpt><trkpt lat="44.8482368" lon="9.4883493"><ele>497.0</ele><time>2026-04-16T13:48:52.784Z</time></trkpt><trkpt lat="44.8483132" lon="9.4883882"><ele>497.0</ele><time>2026-04-16T13:48:54.783Z</time></trkpt><trkpt lat="44.8483842" lon="9.4884334"><ele>496.99999999999994</ele><time>2026-04-16T13:48:56.783Z</time></trkpt><trkpt lat="44.848459" lon="9.4884975"><ele>497.0</ele><time>2026-04-16T13:48:58.783Z</time></trkpt><trkpt lat="44.8485438" lon="9.4885755"><ele>495.99999999999994</ele><time>2026-04-16T13:49:00.782Z</time></trkpt><trkpt lat="44.8486367" lon="9.4886798"><ele>495.0</ele><time>2026-04-16T13:49:02.783Z</time></trkpt><trkpt lat="44.8487309" lon="9.4887854"><ele>494.0</ele><time>2026-04-16T13:49:04.782Z</time></trkpt><trkpt lat="44.8487854" lon="9.4888323"><ele>493.0</ele><time>2026-04-16T13:49:05.783Z</time></trkpt><trkpt lat="44.8488393" lon="9.4888788"><ele>491.99999999999994</ele><time>2026-04-16T13:49:06.782Z</time></trkpt><trkpt lat="44.8488945" lon="9.4889239"><ele>491.0</ele><time>2026-04-16T13:49:07.782Z</time></trkpt><trkpt lat="44.8489509" lon="9.4889637"><ele>489.66666666666663</ele><time>2026-04-16T13:49:08.783Z</time></trkpt><trkpt lat="44.8490108" lon="9.489003"><ele>488.3333333333333</ele><time>2026-04-16T13:49:09.783Z</time></trkpt><trkpt lat="44.8490717" lon="9.489037"><ele>487.0</ele><time>2026-04-16T13:49:10.783Z</time></trkpt><trkpt lat="44.8491302" lon="9.4890702"><ele>485.66666666666663</ele><time>2026-04-16T13:49:11.782Z</time></trkpt><trkpt lat="44.8491895" lon="9.4891026"><ele>484.3333333333333</ele><time>2026-04-16T13:49:12.783Z</time></trkpt><trkpt lat="44.8492967" lon="9.4891687"><ele>483.0</ele><time>2026-04-16T13:49:14.783Z</time></trkpt><trkpt lat="44.8493912" lon="9.4892468"><ele>483.0</ele><time>2026-04-16T13:49:16.783Z</time></trkpt><trkpt lat="44.8494643" lon="9.4893038"><ele>483.0</ele><time>2026-04-16T13:49:18.783Z</time></trkpt><trkpt lat="44.849518" lon="9.4893617"><ele>483.0</ele><time>2026-04-16T13:49:21.782Z</time></trkpt><trkpt lat="44.8495749" lon="9.4894585"><ele>483.0</ele><time>2026-04-16T13:49:24.782Z</time></trkpt><trkpt lat="44.8495511" lon="9.4895447"><ele>483.0</ele><time>2026-04-16T13:49:26.784Z</time></trkpt><trkpt lat="44.8494823" lon="9.4896109"><ele>483.0</ele><time>2026-04-16T13:49:28.783Z</time></trkpt><trkpt lat="44.8493856" lon="9.4896437"><ele>480.1666666666667</ele><time>2026-04-16T13:49:30.784Z</time></trkpt><trkpt lat="44.8493228" lon="9.4897275"><ele>477.33333333333337</ele><time>2026-04-16T13:49:32.783Z</time></trkpt><trkpt lat="44.8492987" lon="9.4898438"><ele>474.5</ele><time>2026-04-16T13:49:34.783Z</time></trkpt><trkpt lat="44.8493216" lon="9.4899559"><ele>471.6666666666667</ele><time>2026-04-16T13:49:36.783Z</time></trkpt><trkpt lat="44.8493689" lon="9.4900312"><ele>468.83333333333337</ele><time>2026-04-16T13:49:38.783Z</time></trkpt><trkpt lat="44.849424" lon="9.4900822"><ele>466.0</ele><time>2026-04-16T13:49:40.783Z</time></trkpt><trkpt lat="44.8494886" lon="9.4901161"><ele>466.0</ele><time>2026-04-16T13:49:42.783Z</time></trkpt><trkpt lat="44.8495593" lon="9.4901493"><ele>466.0</ele><time>2026-04-16T13:49:44.784Z</time></trkpt><trkpt lat="44.8496302" lon="9.4901844"><ele>466.0</ele><time>2026-04-16T13:49:46.783Z</time></trkpt><trkpt lat="44.8496967" lon="9.4902161"><ele>466.0</ele><time>2026-04-16T13:49:48.783Z</time></trkpt><trkpt lat="44.8497727" lon="9.4902419"><ele>466.0</ele><time>2026-04-16T13:49:50.784Z</time></trkpt><trkpt lat="44.8498403" lon="9.4902313"><ele>466.0</ele><time>2026-04-16T13:49:52.783Z</time></trkpt><trkpt lat="44.849916" lon="9.4902282"><ele>466.0</ele><time>2026-04-16T13:49:54.784Z</time></trkpt><trkpt lat="44.8499964" lon="9.4902303"><ele>466.0</ele><time>2026-04-16T13:49:56.783Z</time></trkpt><trkpt lat="44.8500746" lon="9.4902326"><ele>466.0</ele><time>2026-04-16T13:49:58.782Z</time></trkpt><trkpt lat="44.8501446" lon="9.4902435"><ele>466.0</ele><time>2026-04-16T13:50:00.783Z</time></trkpt><trkpt lat="44.8502295" lon="9.4902833"><ele>466.0</ele><time>2026-04-16T13:50:03.783Z</time></trkpt><trkpt lat="44.8502922" lon="9.490294"><ele>466.0</ele><time>2026-04-16T13:50:05.783Z</time></trkpt><trkpt lat="44.8503524" lon="9.490321"><ele>466.0</ele><time>2026-04-16T13:50:07.789Z</time></trkpt><trkpt lat="44.8504247" lon="9.490324"><ele>466.0</ele><time>2026-04-16T13:50:09.668Z</time></trkpt><trkpt lat="44.8505369" lon="9.4903419"><ele>466.6</ele><time>2026-04-16T13:50:11.783Z</time></trkpt><trkpt lat="44.8506492" lon="9.4903543"><ele>467.20000000000005</ele><time>2026-04-16T13:50:13.782Z</time></trkpt><trkpt lat="44.8507677" lon="9.4903768"><ele>467.79999999999995</ele><time>2026-04-16T13:50:15.783Z</time></trkpt><trkpt lat="44.8508685" lon="9.4904301"><ele>468.4</ele><time>2026-04-16T13:50:17.782Z</time></trkpt><trkpt lat="44.8509565" lon="9.4904915"><ele>469.0</ele><time>2026-04-16T13:50:19.783Z</time></trkpt><trkpt lat="44.8510336" lon="9.4905605"><ele>464.1666666666667</ele><time>2026-04-16T13:50:21.783Z</time></trkpt><trkpt lat="44.8510973" lon="9.4906345"><ele>459.33333333333337</ele><time>2026-04-16T13:50:23.783Z</time></trkpt><trkpt lat="44.8511482" lon="9.4907215"><ele>454.5</ele><time>2026-04-16T13:50:25.782Z</time></trkpt><trkpt lat="44.8512052" lon="9.4908036"><ele>449.66666666666663</ele><time>2026-04-16T13:50:27.784Z</time></trkpt><trkpt lat="44.8512773" lon="9.4908874"><ele>444.8333333333333</ele><time>2026-04-16T13:50:29.782Z</time></trkpt><trkpt lat="44.85135" lon="9.4909653"><ele>440.0</ele><time>2026-04-16T13:50:31.783Z</time></trkpt><trkpt lat="44.8514265" lon="9.4910337"><ele>440.0</ele><time>2026-04-16T13:50:33.783Z</time></trkpt><trkpt lat="44.8514998" lon="9.4910939"><ele>440.0</ele><time>2026-04-16T13:50:35.782Z</time></trkpt><trkpt lat="44.8515773" lon="9.4911444"><ele>440.0</ele><time>2026-04-16T13:50:37.782Z</time></trkpt><trkpt lat="44.8516723" lon="9.491223"><ele>440.0</ele><time>2026-04-16T13:50:39.783Z</time></trkpt><trkpt lat="44.8517595" lon="9.491322"><ele>440.0</ele><time>2026-04-16T13:50:41.782Z</time></trkpt><trkpt lat="44.8518458" lon="9.4914164"><ele>437.4</ele><time>2026-04-16T13:50:43.783Z</time></trkpt><trkpt lat="44.8519314" lon="9.4915051"><ele>434.8</ele><time>2026-04-16T13:50:45.783Z</time></trkpt><trkpt lat="44.8520186" lon="9.4915928"><ele>432.20000000000005</ele><time>2026-04-16T13:50:47.783Z</time></trkpt><trkpt lat="44.8521027" lon="9.4916669"><ele>429.6</ele><time>2026-04-16T13:50:49.784Z</time></trkpt><trkpt lat="44.8521909" lon="9.4917421"><ele>427.0</ele><time>2026-04-16T13:50:51.782Z</time></trkpt><trkpt lat="44.8522874" lon="9.4918194"><ele>427.0</ele><time>2026-04-16T13:50:53.782Z</time></trkpt><trkpt lat="44.8523855" lon="9.4918964"><ele>427.00000000000006</ele><time>2026-04-16T13:50:55.783Z</time></trkpt><trkpt lat="44.8524792" lon="9.4919828"><ele>427.00000000000006</ele><time>2026-04-16T13:50:57.782Z</time></trkpt><trkpt lat="44.8525692" lon="9.4920692"><ele>427.0</ele><time>2026-04-16T13:50:59.782Z</time></trkpt><trkpt lat="44.852653" lon="9.4921608"><ele>427.0</ele><time>2026-04-16T13:51:01.783Z</time></trkpt><trkpt lat="44.85273" lon="9.4922547"><ele>424.00000000000006</ele><time>2026-04-16T13:51:03.783Z</time></trkpt><trkpt lat="44.8527902" lon="9.4923387"><ele>421.0</ele><time>2026-04-16T13:51:05.781Z</time></trkpt><trkpt lat="44.8528407" lon="9.4924196"><ele>418.0</ele><time>2026-04-16T13:51:07.782Z</time></trkpt><trkpt lat="44.8528775" lon="9.4924965"><ele>415.0</ele><time>2026-04-16T13:51:09.781Z</time></trkpt><trkpt lat="44.8528881" lon="9.4926149"><ele>412.00000000000006</ele><time>2026-04-16T13:51:12.782Z</time></trkpt><trkpt lat="44.8528655" lon="9.4927257"><ele>409.0</ele><time>2026-04-16T13:51:15.782Z</time></trkpt><trkpt lat="44.8528286" lon="9.4928434"><ele>406.83333333333337</ele><time>2026-04-16T13:51:18.782Z</time></trkpt><trkpt lat="44.8528025" lon="9.4929459"><ele>404.6666666666667</ele><time>2026-04-16T13:51:20.782Z</time></trkpt><trkpt lat="44.8527708" lon="9.4930517"><ele>402.5</ele><time>2026-04-16T13:51:22.782Z</time></trkpt><trkpt lat="44.8527495" lon="9.4931674"><ele>400.33333333333337</ele><time>2026-04-16T13:51:24.782Z</time></trkpt><trkpt lat="44.8527506" lon="9.4932774"><ele>398.1666666666667</ele><time>2026-04-16T13:51:26.782Z</time></trkpt><trkpt lat="44.8527687" lon="9.4933785"><ele>396.0</ele><time>2026-04-16T13:51:28.781Z</time></trkpt><trkpt lat="44.8527869" lon="9.4935109"><ele>396.0</ele><time>2026-04-16T13:51:30.781Z</time></trkpt><trkpt lat="44.8527918" lon="9.4935996"><ele>396.0</ele><time>2026-04-16T13:51:31.781Z</time></trkpt><trkpt lat="44.852791" lon="9.493772"><ele>396.0</ele><time>2026-04-16T13:51:33.782Z</time></trkpt><trkpt lat="44.8528038" lon="9.4939306"><ele>396.0</ele><time>2026-04-16T13:51:35.782Z</time></trkpt><trkpt lat="44.8528205" lon="9.4940685"><ele>396.0</ele><time>2026-04-16T13:51:37.782Z</time></trkpt><trkpt lat="44.8528451" lon="9.4941738"><ele>395.1666666666667</ele><time>2026-04-16T13:51:39.781Z</time></trkpt><trkpt lat="44.8528812" lon="9.4942823"><ele>394.33333333333337</ele><time>2026-04-16T13:51:41.781Z</time></trkpt><trkpt lat="44.8529333" lon="9.4944095"><ele>393.5</ele><time>2026-04-16T13:51:43.782Z</time></trkpt><trkpt lat="44.8529862" lon="9.4945637"><ele>392.6666666666667</ele><time>2026-04-16T13:51:45.782Z</time></trkpt><trkpt lat="44.8530135" lon="9.4946475"><ele>391.83333333333337</ele><time>2026-04-16T13:51:46.782Z</time></trkpt><trkpt lat="44.8530396" lon="9.4947285"><ele>391.0</ele><time>2026-04-16T13:51:47.782Z</time></trkpt><trkpt lat="44.8530948" lon="9.4948696"><ele>390.8</ele><time>2026-04-16T13:51:49.781Z</time></trkpt><trkpt lat="44.8531534" lon="9.4949753"><ele>390.6</ele><time>2026-04-16T13:51:51.782Z</time></trkpt><trkpt lat="44.8532191" lon="9.4950915"><ele>390.4</ele><time>2026-04-16T13:51:53.782Z</time></trkpt><trkpt lat="44.853298" lon="9.4951976"><ele>390.2</ele><time>2026-04-16T13:51:55.782Z</time></trkpt><trkpt lat="44.853394" lon="9.4952784"><ele>390.0</ele><time>2026-04-16T13:51:57.782Z</time></trkpt><trkpt lat="44.8534819" lon="9.4953591"><ele>387.8333333333333</ele><time>2026-04-16T13:51:59.782Z</time></trkpt><trkpt lat="44.8535825" lon="9.4954591"><ele>385.6666666666667</ele><time>2026-04-16T13:52:01.782Z</time></trkpt><trkpt lat="44.8536399" lon="9.4955057"><ele>383.5</ele><time>2026-04-16T13:52:02.783Z</time></trkpt><trkpt lat="44.8537436" lon="9.4956099"><ele>381.33333333333337</ele><time>2026-04-16T13:52:04.781Z</time></trkpt><trkpt lat="44.8537971" lon="9.4956692"><ele>379.1666666666667</ele><time>2026-04-16T13:52:05.783Z</time></trkpt><trkpt lat="44.8538463" lon="9.4957271"><ele>377.0</ele><time>2026-04-16T13:52:06.783Z</time></trkpt><trkpt lat="44.8539425" lon="9.4958181"><ele>377.0</ele><time>2026-04-16T13:52:08.782Z</time></trkpt><trkpt lat="44.8540378" lon="9.4958524"><ele>377.0</ele><time>2026-04-16T13:52:10.782Z</time></trkpt><trkpt lat="44.8541511" lon="9.495892"><ele>377.0</ele><time>2026-04-16T13:52:12.782Z</time></trkpt><trkpt lat="44.8542194" lon="9.4959203"><ele>377.0</ele><time>2026-04-16T13:52:13.781Z</time></trkpt><trkpt lat="44.8542895" lon="9.495943"><ele>377.0</ele><time>2026-04-16T13:52:14.783Z</time></trkpt><trkpt lat="44.8543582" lon="9.49597"><ele>377.0</ele><time>2026-04-16T13:52:15.782Z</time></trkpt><trkpt lat="44.8544206" lon="9.496008"><ele>374.6</ele><time>2026-04-16T13:52:16.782Z</time></trkpt><trkpt lat="44.85448" lon="9.4960432"><ele>372.20000000000005</ele><time>2026-04-16T13:52:17.782Z</time></trkpt><trkpt lat="44.854567" lon="9.4961203"><ele>369.8</ele><time>2026-04-16T13:52:19.782Z</time></trkpt><trkpt lat="44.8546137" lon="9.4962383"><ele>367.4</ele><time>2026-04-16T13:52:21.782Z</time></trkpt><trkpt lat="44.8546452" lon="9.496371"><ele>365.0</ele><time>2026-04-16T13:52:23.782Z</time></trkpt><trkpt lat="44.8546585" lon="9.4965209"><ele>364.28571428571433</ele><time>2026-04-16T13:52:25.783Z</time></trkpt><trkpt lat="44.8546511" lon="9.496615"><ele>363.57142857142856</ele><time>2026-04-16T13:52:26.782Z</time></trkpt><trkpt lat="44.8546356" lon="9.4967171"><ele>362.8571428571429</ele><time>2026-04-16T13:52:27.782Z</time></trkpt><trkpt lat="44.8546153" lon="9.4968247"><ele>362.14285714285717</ele><time>2026-04-16T13:52:28.782Z</time></trkpt><trkpt lat="44.8545978" lon="9.4969384"><ele>361.42857142857144</ele><time>2026-04-16T13:52:29.781Z</time></trkpt><trkpt lat="44.8545853" lon="9.4970458"><ele>360.7142857142857</ele><time>2026-04-16T13:52:30.782Z</time></trkpt><trkpt lat="44.8545802" lon="9.4971417"><ele>360.0</ele><time>2026-04-16T13:52:31.782Z</time></trkpt><trkpt lat="44.8545896" lon="9.4972354"><ele>359.6666666666667</ele><time>2026-04-16T13:52:32.782Z</time></trkpt><trkpt lat="44.8546105" lon="9.4973371"><ele>359.3333333333333</ele><time>2026-04-16T13:52:33.781Z</time></trkpt><trkpt lat="44.8546341" lon="9.4974386"><ele>359.0</ele><time>2026-04-16T13:52:34.782Z</time></trkpt><trkpt lat="44.8546542" lon="9.4975315"><ele>358.66666666666663</ele><time>2026-04-16T13:52:35.782Z</time></trkpt><trkpt lat="44.8546721" lon="9.4976173"><ele>358.3333333333333</ele><time>2026-04-16T13:52:36.781Z</time></trkpt><trkpt lat="44.8547139" lon="9.4977781"><ele>358.0</ele><time>2026-04-16T13:52:38.783Z</time></trkpt><trkpt lat="44.8547496" lon="9.4979312"><ele>356.8571428571429</ele><time>2026-04-16T13:52:40.781Z</time></trkpt><trkpt lat="44.8548118" lon="9.4980782"><ele>355.7142857142857</ele><time>2026-04-16T13:52:42.781Z</time></trkpt><trkpt lat="44.8548542" lon="9.4981461"><ele>354.57142857142856</ele><time>2026-04-16T13:52:43.781Z</time></trkpt><trkpt lat="44.8548918" lon="9.4982182"><ele>353.42857142857144</ele><time>2026-04-16T13:52:44.783Z</time></trkpt><trkpt lat="44.8549211" lon="9.4982986"><ele>352.2857142857143</ele><time>2026-04-16T13:52:45.782Z</time></trkpt><trkpt lat="44.854942" lon="9.4983839"><ele>351.14285714285717</ele><time>2026-04-16T13:52:46.781Z</time></trkpt><trkpt lat="44.8549589" lon="9.4984709"><ele>350.0</ele><time>2026-04-16T13:52:47.782Z</time></trkpt><trkpt lat="44.8549742" lon="9.4985575"><ele>350.0</ele><time>2026-04-16T13:52:48.782Z</time></trkpt><trkpt lat="44.8549999" lon="9.4987267"><ele>350.0</ele><time>2026-04-16T13:52:50.781Z</time></trkpt><trkpt lat="44.8549821" lon="9.4988815"><ele>350.0</ele><time>2026-04-16T13:52:52.782Z</time></trkpt><trkpt lat="44.8549044" lon="9.4989853"><ele>350.0</ele><time>2026-04-16T13:52:54.782Z</time></trkpt><trkpt lat="44.8548448" lon="9.4990181"><ele>350.0</ele><time>2026-04-16T13:52:55.782Z</time></trkpt><trkpt lat="44.8547718" lon="9.4990442"><ele>348.83333333333337</ele><time>2026-04-16T13:52:56.781Z</time></trkpt><trkpt lat="44.8546896" lon="9.4990657"><ele>347.6666666666667</ele><time>2026-04-16T13:52:57.781Z</time></trkpt><trkpt lat="44.8546027" lon="9.4990834"><ele>346.5</ele><time>2026-04-16T13:52:58.783Z</time></trkpt><trkpt lat="44.8545198" lon="9.4990942"><ele>345.3333333333333</ele><time>2026-04-16T13:52:59.782Z</time></trkpt><trkpt lat="44.8544443" lon="9.4990973"><ele>344.16666666666663</ele><time>2026-04-16T13:53:00.782Z</time></trkpt><trkpt lat="44.8543765" lon="9.4990964"><ele>343.0</ele><time>2026-04-16T13:53:01.781Z</time></trkpt><trkpt lat="44.8543119" lon="9.4990901"><ele>343.16666666666663</ele><time>2026-04-16T13:53:02.782Z</time></trkpt><trkpt lat="44.8542429" lon="9.4990714"><ele>343.3333333333333</ele><time>2026-04-16T13:53:03.782Z</time></trkpt><trkpt lat="44.8541716" lon="9.4990424"><ele>343.5</ele><time>2026-04-16T13:53:04.781Z</time></trkpt><trkpt lat="44.854096" lon="9.4990061"><ele>343.6666666666667</ele><time>2026-04-16T13:53:05.782Z</time></trkpt><trkpt lat="44.8540176" lon="9.4989665"><ele>343.83333333333337</ele><time>2026-04-16T13:53:06.781Z</time></trkpt><trkpt lat="44.8539423" lon="9.4989273"><ele>344.0</ele><time>2026-04-16T13:53:07.781Z</time></trkpt><trkpt lat="44.8538688" lon="9.4988899"><ele>344.0</ele><time>2026-04-16T13:53:08.781Z</time></trkpt><trkpt lat="44.8537919" lon="9.4988531"><ele>344.0</ele><time>2026-04-16T13:53:09.782Z</time></trkpt><trkpt lat="44.853721" lon="9.498814"><ele>344.0</ele><time>2026-04-16T13:53:10.781Z</time></trkpt><trkpt lat="44.8536591" lon="9.4987764"><ele>344.0</ele><time>2026-04-16T13:53:11.782Z</time></trkpt><trkpt lat="44.8535524" lon="9.498691"><ele>344.0</ele><time>2026-04-16T13:53:13.783Z</time></trkpt><trkpt lat="44.853496" lon="9.4986343"><ele>344.0</ele><time>2026-04-16T13:53:14.782Z</time></trkpt><trkpt lat="44.853434" lon="9.4985709"><ele>343.83333333333337</ele><time>2026-04-16T13:53:15.781Z</time></trkpt><trkpt lat="44.8533703" lon="9.4985128"><ele>343.6666666666667</ele><time>2026-04-16T13:53:16.782Z</time></trkpt><trkpt lat="44.8533039" lon="9.4984637"><ele>343.5</ele><time>2026-04-16T13:53:17.781Z</time></trkpt><trkpt lat="44.8532324" lon="9.4984228"><ele>343.3333333333333</ele><time>2026-04-16T13:53:18.782Z</time></trkpt><trkpt lat="44.8531565" lon="9.4983902"><ele>343.16666666666663</ele><time>2026-04-16T13:53:19.781Z</time></trkpt><trkpt lat="44.8530767" lon="9.4983641"><ele>343.0</ele><time>2026-04-16T13:53:20.781Z</time></trkpt><trkpt lat="44.8529955" lon="9.4983398"><ele>343.0</ele><time>2026-04-16T13:53:21.781Z</time></trkpt><trkpt lat="44.8529155" lon="9.4983211"><ele>343.0</ele><time>2026-04-16T13:53:22.782Z</time></trkpt><trkpt lat="44.852836" lon="9.4983132"><ele>343.0</ele><time>2026-04-16T13:53:23.783Z</time></trkpt><trkpt lat="44.8527583" lon="9.4983166"><ele>343.0</ele><time>2026-04-16T13:53:24.781Z</time></trkpt><trkpt lat="44.8526839" lon="9.4983402"><ele>343.0</ele><time>2026-04-16T13:53:25.782Z</time></trkpt><trkpt lat="44.8526128" lon="9.4983662"><ele>343.0</ele><time>2026-04-16T13:53:26.782Z</time></trkpt><trkpt lat="44.8525436" lon="9.4984068"><ele>342.2</ele><time>2026-04-16T13:53:27.782Z</time></trkpt><trkpt lat="44.8524755" lon="9.4984646"><ele>341.4</ele><time>2026-04-16T13:53:28.782Z</time></trkpt><trkpt lat="44.8524082" lon="9.498544"><ele>340.59999999999997</ele><time>2026-04-16T13:53:29.782Z</time></trkpt><trkpt lat="44.8523392" lon="9.4986272"><ele>339.79999999999995</ele><time>2026-04-16T13:53:30.781Z</time></trkpt><trkpt lat="44.8522592" lon="9.4987067"><ele>339.0</ele><time>2026-04-16T13:53:31.782Z</time></trkpt><trkpt lat="44.8521779" lon="9.4987824"><ele>337.6666666666667</ele><time>2026-04-16T13:53:32.782Z</time></trkpt><trkpt lat="44.8521046" lon="9.4988637"><ele>336.3333333333333</ele><time>2026-04-16T13:53:33.781Z</time></trkpt><trkpt lat="44.8520374" lon="9.4989447"><ele>335.0</ele><time>2026-04-16T13:53:34.782Z</time></trkpt><trkpt lat="44.8519698" lon="9.4990206"><ele>333.66666666666663</ele><time>2026-04-16T13:53:35.781Z</time></trkpt><trkpt lat="44.8519079" lon="9.4991035"><ele>332.3333333333333</ele><time>2026-04-16T13:53:36.781Z</time></trkpt><trkpt lat="44.8518485" lon="9.499188"><ele>331.0</ele><time>2026-04-16T13:53:37.782Z</time></trkpt><trkpt lat="44.851798" lon="9.4992795"><ele>331.6</ele><time>2026-04-16T13:53:38.781Z</time></trkpt><trkpt lat="44.8517585" lon="9.4993864"><ele>332.20000000000005</ele><time>2026-04-16T13:53:39.782Z</time></trkpt><trkpt lat="44.8517396" lon="9.4995041"><ele>332.79999999999995</ele><time>2026-04-16T13:53:40.782Z</time></trkpt><trkpt lat="44.8517379" lon="9.4996329"><ele>333.4</ele><time>2026-04-16T13:53:41.782Z</time></trkpt><trkpt lat="44.8517395" lon="9.4997703"><ele>334.0</ele><time>2026-04-16T13:53:42.781Z</time></trkpt><trkpt lat="44.8517386" lon="9.4999159"><ele>334.0</ele><time>2026-04-16T13:53:43.781Z</time></trkpt><trkpt lat="44.8517321" lon="9.5000678"><ele>334.0</ele><time>2026-04-16T13:53:44.781Z</time></trkpt><trkpt lat="44.8517278" lon="9.5002169"><ele>334.0</ele><time>2026-04-16T13:53:45.781Z</time></trkpt><trkpt lat="44.85172" lon="9.5003672"><ele>334.0</ele><time>2026-04-16T13:53:46.782Z</time></trkpt><trkpt lat="44.8517036" lon="9.5005247"><ele>334.0</ele><time>2026-04-16T13:53:47.782Z</time></trkpt><trkpt lat="44.8516819" lon="9.5006722"><ele>333.79999999999995</ele><time>2026-04-16T13:53:48.781Z</time></trkpt><trkpt lat="44.851655" lon="9.5008062"><ele>333.59999999999997</ele><time>2026-04-16T13:53:49.781Z</time></trkpt><trkpt lat="44.8516316" lon="9.5009407"><ele>333.4</ele><time>2026-04-16T13:53:50.782Z</time></trkpt><trkpt lat="44.8516187" lon="9.5010753"><ele>333.2</ele><time>2026-04-16T13:53:51.781Z</time></trkpt><trkpt lat="44.8516146" lon="9.5012128"><ele>333.0</ele><time>2026-04-16T13:53:52.782Z</time></trkpt><trkpt lat="44.8516189" lon="9.5013471"><ele>333.5</ele><time>2026-04-16T13:53:53.782Z</time></trkpt><trkpt lat="44.8516214" lon="9.5014815"><ele>334.0</ele><time>2026-04-16T13:53:54.781Z</time></trkpt><trkpt lat="44.8516224" lon="9.5016015"><ele>334.5</ele><time>2026-04-16T13:53:55.781Z</time></trkpt><trkpt lat="44.8516357" lon="9.5017128"><ele>335.0</ele><time>2026-04-16T13:53:56.781Z</time></trkpt><trkpt lat="44.8516603" lon="9.5018168"><ele>335.5</ele><time>2026-04-16T13:53:57.782Z</time></trkpt><trkpt lat="44.8516896" lon="9.5019166"><ele>336.0</ele><time>2026-04-16T13:53:58.782Z</time></trkpt><trkpt lat="44.8517217" lon="9.5020274"><ele>337.0</ele><time>2026-04-16T13:53:59.782Z</time></trkpt><trkpt lat="44.8517503" lon="9.5021518"><ele>338.0</ele><time>2026-04-16T13:54:00.782Z</time></trkpt><trkpt lat="44.8517812" lon="9.5022797"><ele>339.0</ele><time>2026-04-16T13:54:01.782Z</time></trkpt><trkpt lat="44.8518111" lon="9.5023999"><ele>340.0</ele><time>2026-04-16T13:54:02.782Z</time></trkpt><trkpt lat="44.8518311" lon="9.5025041"><ele>341.0</ele><time>2026-04-16T13:54:03.781Z</time></trkpt><trkpt lat="44.8518385" lon="9.5026001"><ele>342.0</ele><time>2026-04-16T13:54:04.781Z</time></trkpt><trkpt lat="44.851836" lon="9.5027043"><ele>342.0</ele><time>2026-04-16T13:54:05.781Z</time></trkpt><trkpt lat="44.8518248" lon="9.5028139"><ele>342.0</ele><time>2026-04-16T13:54:06.782Z</time></trkpt><trkpt lat="44.851806" lon="9.5029244"><ele>342.0</ele><time>2026-04-16T13:54:07.782Z</time></trkpt><trkpt lat="44.8517842" lon="9.5030372"><ele>342.0</ele><time>2026-04-16T13:54:08.783Z</time></trkpt><trkpt lat="44.8517593" lon="9.5031479"><ele>342.0</ele><time>2026-04-16T13:54:09.781Z</time></trkpt><trkpt lat="44.8517257" lon="9.5032609"><ele>342.0</ele><time>2026-04-16T13:54:10.781Z</time></trkpt><trkpt lat="44.8516858" lon="9.5033772"><ele>342.0</ele><time>2026-04-16T13:54:11.781Z</time></trkpt><trkpt lat="44.8516469" lon="9.5034962"><ele>342.0</ele><time>2026-04-16T13:54:12.783Z</time></trkpt><trkpt lat="44.851612" lon="9.5036149"><ele>342.0</ele><time>2026-04-16T13:54:13.781Z</time></trkpt><trkpt lat="44.8515775" lon="9.5037365"><ele>342.0</ele><time>2026-04-16T13:54:14.781Z</time></trkpt><trkpt lat="44.851545" lon="9.5038499"><ele>342.0</ele><time>2026-04-16T13:54:15.781Z</time></trkpt><trkpt lat="44.8515168" lon="9.5039621"><ele>342.0</ele><time>2026-04-16T13:54:16.782Z</time></trkpt><trkpt lat="44.851484" lon="9.5040509"><ele>341.6</ele><time>2026-04-16T13:54:17.782Z</time></trkpt><trkpt lat="44.8513927" lon="9.5041559"><ele>341.20000000000005</ele><time>2026-04-16T13:54:19.782Z</time></trkpt><trkpt lat="44.85133" lon="9.5041828"><ele>340.8</ele><time>2026-04-16T13:54:20.781Z</time></trkpt><trkpt lat="44.8512439" lon="9.5042075"><ele>340.4</ele><time>2026-04-16T13:54:21.782Z</time></trkpt><trkpt lat="44.8511553" lon="9.5042434"><ele>340.0</ele><time>2026-04-16T13:54:22.782Z</time></trkpt><trkpt lat="44.8510667" lon="9.5042914"><ele>340.0</ele><time>2026-04-16T13:54:23.782Z</time></trkpt><trkpt lat="44.8509838" lon="9.5043566"><ele>340.0</ele><time>2026-04-16T13:54:24.783Z</time></trkpt><trkpt lat="44.850896" lon="9.5044353"><ele>340.0</ele><time>2026-04-16T13:54:25.782Z</time></trkpt><trkpt lat="44.8508072" lon="9.5045293"><ele>340.0</ele><time>2026-04-16T13:54:26.782Z</time></trkpt><trkpt lat="44.8507121" lon="9.5046423"><ele>340.0</ele><time>2026-04-16T13:54:27.781Z</time></trkpt><trkpt lat="44.8506165" lon="9.504764"><ele>339.25</ele><time>2026-04-16T13:54:28.781Z</time></trkpt><trkpt lat="44.8505178" lon="9.5048929"><ele>338.5</ele><time>2026-04-16T13:54:29.781Z</time></trkpt><trkpt lat="44.8504182" lon="9.5050183"><ele>337.75</ele><time>2026-04-16T13:54:30.782Z</time></trkpt><trkpt lat="44.8503183" lon="9.5051375"><ele>337.0</ele><time>2026-04-16T13:54:31.782Z</time></trkpt><trkpt lat="44.850218" lon="9.5052438"><ele>339.20000000000005</ele><time>2026-04-16T13:54:32.781Z</time></trkpt><trkpt lat="44.8501214" lon="9.5053434"><ele>341.4</ele><time>2026-04-16T13:54:33.782Z</time></trkpt><trkpt lat="44.8500322" lon="9.5054378"><ele>343.6</ele><time>2026-04-16T13:54:34.782Z</time></trkpt><trkpt lat="44.8499446" lon="9.5055344"><ele>345.79999999999995</ele><time>2026-04-16T13:54:35.782Z</time></trkpt><trkpt lat="44.8498611" lon="9.5056203"><ele>348.0</ele><time>2026-04-16T13:54:36.782Z</time></trkpt><trkpt lat="44.849777" lon="9.5057042"><ele>348.79999999999995</ele><time>2026-04-16T13:54:37.781Z</time></trkpt><trkpt lat="44.8496938" lon="9.5057922"><ele>349.6</ele><time>2026-04-16T13:54:38.782Z</time></trkpt><trkpt lat="44.8496155" lon="9.5058907"><ele>350.4</ele><time>2026-04-16T13:54:39.781Z</time></trkpt><trkpt lat="44.8495499" lon="9.5060031"><ele>351.20000000000005</ele><time>2026-04-16T13:54:40.782Z</time></trkpt><trkpt lat="44.8495017" lon="9.5061227"><ele>352.0</ele><time>2026-04-16T13:54:41.782Z</time></trkpt><trkpt lat="44.8494643" lon="9.506238"><ele>353.66666666666663</ele><time>2026-04-16T13:54:42.782Z</time></trkpt><trkpt lat="44.8494234" lon="9.506357"><ele>355.3333333333333</ele><time>2026-04-16T13:54:43.783Z</time></trkpt><trkpt lat="44.8493772" lon="9.506471"><ele>357.0</ele><time>2026-04-16T13:54:44.782Z</time></trkpt><trkpt lat="44.8493278" lon="9.5065773"><ele>358.6666666666667</ele><time>2026-04-16T13:54:45.782Z</time></trkpt><trkpt lat="44.8492753" lon="9.5066743"><ele>360.33333333333337</ele><time>2026-04-16T13:54:46.783Z</time></trkpt><trkpt lat="44.8492276" lon="9.5067498"><ele>362.0</ele><time>2026-04-16T13:54:47.783Z</time></trkpt><trkpt lat="44.8491298" lon="9.5068566"><ele>363.6</ele><time>2026-04-16T13:54:49.782Z</time></trkpt><trkpt lat="44.8490418" lon="9.5069243"><ele>365.20000000000005</ele><time>2026-04-16T13:54:51.781Z</time></trkpt><trkpt lat="44.8489919" lon="9.5068542"><ele>366.8</ele><time>2026-04-16T13:54:54.782Z</time></trkpt><trkpt lat="44.8489546" lon="9.5067311"><ele>368.4</ele><time>2026-04-16T13:54:56.782Z</time></trkpt><trkpt lat="44.848891" lon="9.5065703"><ele>370.0</ele><time>2026-04-16T13:54:58.781Z</time></trkpt><trkpt lat="44.8488492" lon="9.5064865"><ele>370.0</ele><time>2026-04-16T13:54:59.781Z</time></trkpt><trkpt lat="44.8488028" lon="9.5064044"><ele>370.0</ele><time>2026-04-16T13:55:00.782Z</time></trkpt><trkpt lat="44.8487538" lon="9.5063279"><ele>370.0</ele><time>2026-04-16T13:55:01.781Z</time></trkpt><trkpt lat="44.8487093" lon="9.5062555"><ele>370.0</ele><time>2026-04-16T13:55:02.782Z</time></trkpt><trkpt lat="44.8486448" lon="9.5061082"><ele>370.0</ele><time>2026-04-16T13:55:04.781Z</time></trkpt><trkpt lat="44.8486206" lon="9.5060254"><ele>370.0</ele><time>2026-04-16T13:55:05.782Z</time></trkpt><trkpt lat="44.848601" lon="9.5059389"><ele>369.3333333333333</ele><time>2026-04-16T13:55:06.781Z</time></trkpt><trkpt lat="44.8485928" lon="9.5058505"><ele>368.66666666666663</ele><time>2026-04-16T13:55:07.782Z</time></trkpt><trkpt lat="44.8485655" lon="9.5056774"><ele>368.0</ele><time>2026-04-16T13:55:09.781Z</time></trkpt><trkpt lat="44.848549" lon="9.5055904"><ele>367.3333333333333</ele><time>2026-04-16T13:55:10.782Z</time></trkpt><trkpt lat="44.8485223" lon="9.5054655"><ele>366.6666666666667</ele><time>2026-04-16T13:55:12.781Z</time></trkpt><trkpt lat="44.8485027" lon="9.5053738"><ele>366.0</ele><time>2026-04-16T13:55:19.781Z</time></trkpt><trkpt lat="44.848475" lon="9.5052769"><ele>367.57142857142856</ele><time>2026-04-16T13:55:25.782Z</time></trkpt><trkpt lat="44.8484485" lon="9.5051784"><ele>369.14285714285717</ele><time>2026-04-16T13:55:32.782Z</time></trkpt><trkpt lat="44.8484201" lon="9.5050861"><ele>370.71428571428567</ele><time>2026-04-16T13:55:35.781Z</time></trkpt><trkpt lat="44.8483953" lon="9.5049962"><ele>372.2857142857143</ele><time>2026-04-16T13:55:39.782Z</time></trkpt><trkpt lat="44.8483609" lon="9.504891"><ele>373.85714285714283</ele><time>2026-04-16T13:55:45.782Z</time></trkpt><trkpt lat="44.8483335" lon="9.5048067"><ele>375.4285714285714</ele><time>2026-04-16T13:55:48.782Z</time></trkpt><trkpt lat="44.8483014" lon="9.5047131"><ele>377.0</ele><time>2026-04-16T13:55:51.781Z</time></trkpt><trkpt lat="44.848273" lon="9.5046218"><ele>376.57142857142856</ele><time>2026-04-16T13:55:54.78Z</time></trkpt><trkpt lat="44.8482407" lon="9.5045136"><ele>376.1428571428571</ele><time>2026-04-16T13:55:57.781Z</time></trkpt><trkpt lat="44.8482223" lon="9.504409"><ele>375.71428571428567</ele><time>2026-04-16T13:56:03.78Z</time></trkpt><trkpt lat="44.8482042" lon="9.5043147"><ele>375.2857142857143</ele><time>2026-04-16T13:56:22.78Z</time></trkpt><trkpt lat="44.8481961" lon="9.5042245"><ele>374.8571428571429</ele><time>2026-04-16T13:56:31.781Z</time></trkpt><trkpt lat="44.8481821" lon="9.5041368"><ele>374.4285714285714</ele><time>2026-04-16T13:56:34.78Z</time></trkpt><trkpt lat="44.8481677" lon="9.504024"><ele>374.0</ele><time>2026-04-16T13:56:38.781Z</time></trkpt><trkpt lat="44.8481556" lon="9.5039136"><ele>374.0</ele><time>2026-04-16T13:56:47.781Z</time></trkpt><trkpt lat="44.848147" lon="9.5038036"><ele>374.0</ele><time>2026-04-16T13:56:50.781Z</time></trkpt><trkpt lat="44.8481412" lon="9.5036944"><ele>374.0</ele><time>2026-04-16T13:56:52.782Z</time></trkpt><trkpt lat="44.8481415" lon="9.5035758"><ele>374.0</ele><time>2026-04-16T13:56:54.781Z</time></trkpt><trkpt lat="44.8481469" lon="9.5034622"><ele>374.0</ele><time>2026-04-16T13:56:56.78Z</time></trkpt><trkpt lat="44.8481651" lon="9.5033672"><ele>374.0</ele><time>2026-04-16T13:56:58.78Z</time></trkpt><trkpt lat="44.8481946" lon="9.5032795"><ele>373.85714285714283</ele><time>2026-04-16T13:57:00.78Z</time></trkpt><trkpt lat="44.8482231" lon="9.5031994"><ele>373.7142857142857</ele><time>2026-04-16T13:57:06.782Z</time></trkpt><trkpt lat="44.848258" lon="9.5031244"><ele>373.57142857142856</ele><time>2026-04-16T13:57:17.781Z</time></trkpt><trkpt lat="44.8482908" lon="9.5030437"><ele>373.42857142857144</ele><time>2026-04-16T13:57:26.781Z</time></trkpt><trkpt lat="44.8483268" lon="9.5029624"><ele>373.28571428571433</ele><time>2026-04-16T13:57:33.782Z</time></trkpt><trkpt lat="44.8483748" lon="9.5028608"><ele>373.14285714285717</ele><time>2026-04-16T13:57:36.781Z</time></trkpt><trkpt lat="44.8484103" lon="9.5027655"><ele>373.0</ele><time>2026-04-16T13:57:40.782Z</time></trkpt><trkpt lat="44.8484343" lon="9.5026749"><ele>373.0</ele><time>2026-04-16T13:57:42.781Z</time></trkpt><trkpt lat="44.8484482" lon="9.5025716"><ele>373.0</ele><time>2026-04-16T13:57:44.781Z</time></trkpt><trkpt lat="44.8484513" lon="9.5024547"><ele>373.0</ele><time>2026-04-16T13:57:46.78Z</time></trkpt><trkpt lat="44.8484654" lon="9.5023374"><ele>373.0</ele><time>2026-04-16T13:57:48.781Z</time></trkpt><trkpt lat="44.8484637" lon="9.5022161"><ele>373.0</ele><time>2026-04-16T13:57:50.781Z</time></trkpt><trkpt lat="44.8484432" lon="9.5021285"><ele>373.0</ele><time>2026-04-16T13:57:52.781Z</time></trkpt><trkpt lat="44.848354" lon="9.5020341"><ele>388.0</ele><time>2026-04-16T13:57:57.78Z</time></trkpt><trkpt lat="44.848285" lon="9.5020395"><ele>388.0</ele><time>2026-04-16T13:58:34.781Z</time></trkpt><trkpt lat="44.8482172" lon="9.5019967"><ele>388.0</ele><time>2026-04-16T13:58:38.78Z</time></trkpt><trkpt lat="44.8481499" lon="9.5019641"><ele>388.0</ele><time>2026-04-16T13:58:42.781Z</time></trkpt><trkpt lat="44.8480736" lon="9.5019416"><ele>388.0</ele><time>2026-04-16T13:58:49.781Z</time></trkpt><trkpt lat="44.8480105" lon="9.501916"><ele>388.0</ele><time>2026-04-16T13:58:54.781Z</time></trkpt></trkseg></trk></gpx>